<?xml version="1.0" encoding="UTF-8" standalone="no" ?>
<gpx xmlns="http://www.topografix.com/GPX/1/1" xmlns:xsi="http://www.w3.org/2001/XMLSchema-instance" xsi:schemaLocation="http://www.topografix.com/GPX/1/1 http://www.topografix.com/GPX/1/1/gpx.xsd" version="1.1" creator="VisuGPX - https://www.visugpx.com">
  <metadata>
    <name>St Vaast les Mello Maysel </name>
  </metadata>
  <trk>
    <name><![CDATA[Saint-Vaast-lès-Mello Course]]></name>
    <extensions>
      <line xmlns="http://www.topografix.com/GPX/gpx_style/0/2">
        <color>0000FF</color>
        <width>4</width>
      </line>
    </extensions>
    <trkseg>
      <trkpt lat="49.26829" lon="2.38816">
        <ele>76</ele>
        <time>2024-09-01T07:51:09Z</time>
      </trkpt>
      <trkpt lat="49.2683" lon="2.38816">
        <ele>76</ele>
        <time>2024-09-01T07:51:10Z</time>
      </trkpt>
      <trkpt lat="49.2683" lon="2.38816">
        <ele>76.1</ele>
        <time>2024-09-01T07:51:11Z</time>
      </trkpt>
      <trkpt lat="49.26831" lon="2.38817">
        <ele>76.2</ele>
        <time>2024-09-01T07:51:12Z</time>
      </trkpt>
      <trkpt lat="49.26832" lon="2.38817">
        <ele>76.3</ele>
        <time>2024-09-01T07:51:13Z</time>
      </trkpt>
      <trkpt lat="49.26832" lon="2.38817">
        <ele>76.3</ele>
        <time>2024-09-01T07:51:14Z</time>
      </trkpt>
      <trkpt lat="49.26833" lon="2.38817">
        <ele>76.4</ele>
        <time>2024-09-01T07:51:15Z</time>
      </trkpt>
      <trkpt lat="49.26833" lon="2.38817">
        <ele>76.4</ele>
        <time>2024-09-01T07:51:16Z</time>
      </trkpt>
      <trkpt lat="49.26834" lon="2.38817">
        <ele>76.4</ele>
        <time>2024-09-01T07:51:17Z</time>
      </trkpt>
      <trkpt lat="49.26834" lon="2.38817">
        <ele>76.5</ele>
        <time>2024-09-01T07:51:18Z</time>
      </trkpt>
      <trkpt lat="49.26834" lon="2.38816">
        <ele>76.4</ele>
        <time>2024-09-01T07:51:19Z</time>
      </trkpt>
      <trkpt lat="49.26834" lon="2.38815">
        <ele>76.4</ele>
        <time>2024-09-01T07:51:20Z</time>
      </trkpt>
      <trkpt lat="49.26833" lon="2.38815">
        <ele>76.3</ele>
        <time>2024-09-01T07:51:21Z</time>
      </trkpt>
      <trkpt lat="49.26833" lon="2.38814">
        <ele>76.3</ele>
        <time>2024-09-01T07:51:22Z</time>
      </trkpt>
      <trkpt lat="49.26832" lon="2.38814">
        <ele>76.1</ele>
        <time>2024-09-01T07:51:23Z</time>
      </trkpt>
      <trkpt lat="49.26831" lon="2.38813">
        <ele>76</ele>
        <time>2024-09-01T07:51:24Z</time>
      </trkpt>
      <trkpt lat="49.26829" lon="2.38811">
        <ele>75.8</ele>
        <time>2024-09-01T07:51:30Z</time>
      </trkpt>
      <trkpt lat="49.26828" lon="2.38811">
        <ele>75.7</ele>
        <time>2024-09-01T07:51:31Z</time>
      </trkpt>
      <trkpt lat="49.26828" lon="2.3881">
        <ele>75.6</ele>
        <time>2024-09-01T07:51:32Z</time>
      </trkpt>
      <trkpt lat="49.26827" lon="2.3881">
        <ele>75.5</ele>
        <time>2024-09-01T07:51:33Z</time>
      </trkpt>
      <trkpt lat="49.26826" lon="2.3881">
        <ele>75.4</ele>
        <time>2024-09-01T07:51:34Z</time>
      </trkpt>
      <trkpt lat="49.26825" lon="2.3881">
        <ele>75.3</ele>
        <time>2024-09-01T07:51:35Z</time>
      </trkpt>
      <trkpt lat="49.26824" lon="2.38809">
        <ele>75.2</ele>
        <time>2024-09-01T07:51:36Z</time>
      </trkpt>
      <trkpt lat="49.26823" lon="2.38809">
        <ele>75</ele>
        <time>2024-09-01T07:51:37Z</time>
      </trkpt>
      <trkpt lat="49.26821" lon="2.38809">
        <ele>74.9</ele>
        <time>2024-09-01T07:51:38Z</time>
      </trkpt>
      <trkpt lat="49.2682" lon="2.38809">
        <ele>74.7</ele>
        <time>2024-09-01T07:51:39Z</time>
      </trkpt>
      <trkpt lat="49.26819" lon="2.38809">
        <ele>74.6</ele>
        <time>2024-09-01T07:51:40Z</time>
      </trkpt>
      <trkpt lat="49.26817" lon="2.38809">
        <ele>74.4</ele>
        <time>2024-09-01T07:51:41Z</time>
      </trkpt>
      <trkpt lat="49.26816" lon="2.38809">
        <ele>74.3</ele>
        <time>2024-09-01T07:51:42Z</time>
      </trkpt>
      <trkpt lat="49.26815" lon="2.38808">
        <ele>74.1</ele>
        <time>2024-09-01T07:51:43Z</time>
      </trkpt>
      <trkpt lat="49.26813" lon="2.38808">
        <ele>74</ele>
        <time>2024-09-01T07:51:44Z</time>
      </trkpt>
      <trkpt lat="49.26812" lon="2.38808">
        <ele>73.8</ele>
        <time>2024-09-01T07:51:45Z</time>
      </trkpt>
      <trkpt lat="49.26811" lon="2.38808">
        <ele>73.7</ele>
        <time>2024-09-01T07:51:46Z</time>
      </trkpt>
      <trkpt lat="49.26809" lon="2.38807">
        <ele>73.5</ele>
        <time>2024-09-01T07:51:47Z</time>
      </trkpt>
      <trkpt lat="49.26808" lon="2.38807">
        <ele>73.3</ele>
        <time>2024-09-01T07:51:48Z</time>
      </trkpt>
      <trkpt lat="49.26807" lon="2.38806">
        <ele>73.1</ele>
        <time>2024-09-01T07:51:49Z</time>
      </trkpt>
      <trkpt lat="49.26805" lon="2.38805">
        <ele>73</ele>
        <time>2024-09-01T07:51:50Z</time>
      </trkpt>
      <trkpt lat="49.26804" lon="2.38805">
        <ele>72.8</ele>
        <time>2024-09-01T07:51:51Z</time>
      </trkpt>
      <trkpt lat="49.26803" lon="2.38804">
        <ele>72.7</ele>
        <time>2024-09-01T07:51:52Z</time>
      </trkpt>
      <trkpt lat="49.26802" lon="2.38802">
        <ele>72.5</ele>
        <time>2024-09-01T07:51:53Z</time>
      </trkpt>
      <trkpt lat="49.26801" lon="2.38801">
        <ele>72.3</ele>
        <time>2024-09-01T07:51:54Z</time>
      </trkpt>
      <trkpt lat="49.268" lon="2.38799">
        <ele>72.1</ele>
        <time>2024-09-01T07:51:55Z</time>
      </trkpt>
      <trkpt lat="49.26799" lon="2.38797">
        <ele>71.9</ele>
        <time>2024-09-01T07:51:56Z</time>
      </trkpt>
      <trkpt lat="49.26798" lon="2.38796">
        <ele>71.7</ele>
        <time>2024-09-01T07:51:57Z</time>
      </trkpt>
      <trkpt lat="49.26797" lon="2.38794">
        <ele>71.5</ele>
        <time>2024-09-01T07:51:58Z</time>
      </trkpt>
      <trkpt lat="49.26796" lon="2.38792">
        <ele>71.3</ele>
        <time>2024-09-01T07:51:59Z</time>
      </trkpt>
      <trkpt lat="49.26795" lon="2.3879">
        <ele>71.2</ele>
        <time>2024-09-01T07:52:00Z</time>
      </trkpt>
      <trkpt lat="49.26794" lon="2.38789">
        <ele>71</ele>
        <time>2024-09-01T07:52:01Z</time>
      </trkpt>
      <trkpt lat="49.26794" lon="2.38787">
        <ele>70.8</ele>
        <time>2024-09-01T07:52:02Z</time>
      </trkpt>
      <trkpt lat="49.26793" lon="2.38785">
        <ele>70.6</ele>
        <time>2024-09-01T07:52:03Z</time>
      </trkpt>
      <trkpt lat="49.26792" lon="2.38784">
        <ele>70.4</ele>
        <time>2024-09-01T07:52:04Z</time>
      </trkpt>
      <trkpt lat="49.26791" lon="2.38782">
        <ele>70.2</ele>
        <time>2024-09-01T07:52:05Z</time>
      </trkpt>
      <trkpt lat="49.2679" lon="2.3878">
        <ele>70</ele>
        <time>2024-09-01T07:52:06Z</time>
      </trkpt>
      <trkpt lat="49.26789" lon="2.38779">
        <ele>69.9</ele>
        <time>2024-09-01T07:52:07Z</time>
      </trkpt>
      <trkpt lat="49.26788" lon="2.38777">
        <ele>69.7</ele>
        <time>2024-09-01T07:52:08Z</time>
      </trkpt>
      <trkpt lat="49.26787" lon="2.38775">
        <ele>69.5</ele>
        <time>2024-09-01T07:52:09Z</time>
      </trkpt>
      <trkpt lat="49.26787" lon="2.38774">
        <ele>69.3</ele>
        <time>2024-09-01T07:52:10Z</time>
      </trkpt>
      <trkpt lat="49.26786" lon="2.38772">
        <ele>69.1</ele>
        <time>2024-09-01T07:52:11Z</time>
      </trkpt>
      <trkpt lat="49.26785" lon="2.3877">
        <ele>68.8</ele>
        <time>2024-09-01T07:52:12Z</time>
      </trkpt>
      <trkpt lat="49.26785" lon="2.38769">
        <ele>68.6</ele>
        <time>2024-09-01T07:52:13Z</time>
      </trkpt>
      <trkpt lat="49.26784" lon="2.38767">
        <ele>68.3</ele>
        <time>2024-09-01T07:52:14Z</time>
      </trkpt>
      <trkpt lat="49.26783" lon="2.38765">
        <ele>68.1</ele>
        <time>2024-09-01T07:52:15Z</time>
      </trkpt>
      <trkpt lat="49.26782" lon="2.38763">
        <ele>67.8</ele>
        <time>2024-09-01T07:52:16Z</time>
      </trkpt>
      <trkpt lat="49.26782" lon="2.38761">
        <ele>67.6</ele>
        <time>2024-09-01T07:52:17Z</time>
      </trkpt>
      <trkpt lat="49.26781" lon="2.3876">
        <ele>67.3</ele>
        <time>2024-09-01T07:52:18Z</time>
      </trkpt>
      <trkpt lat="49.2678" lon="2.38758">
        <ele>67.1</ele>
        <time>2024-09-01T07:52:19Z</time>
      </trkpt>
      <trkpt lat="49.26779" lon="2.38756">
        <ele>66.8</ele>
        <time>2024-09-01T07:52:20Z</time>
      </trkpt>
      <trkpt lat="49.26779" lon="2.38755">
        <ele>66.6</ele>
        <time>2024-09-01T07:52:21Z</time>
      </trkpt>
      <trkpt lat="49.26778" lon="2.38754">
        <ele>66.4</ele>
        <time>2024-09-01T07:52:22Z</time>
      </trkpt>
      <trkpt lat="49.26777" lon="2.38752">
        <ele>66.2</ele>
        <time>2024-09-01T07:52:23Z</time>
      </trkpt>
      <trkpt lat="49.26776" lon="2.38751">
        <ele>66</ele>
        <time>2024-09-01T07:52:24Z</time>
      </trkpt>
      <trkpt lat="49.26776" lon="2.3875">
        <ele>65.8</ele>
        <time>2024-09-01T07:52:25Z</time>
      </trkpt>
      <trkpt lat="49.26775" lon="2.38749">
        <ele>65.7</ele>
        <time>2024-09-01T07:52:26Z</time>
      </trkpt>
      <trkpt lat="49.26774" lon="2.38748">
        <ele>65.5</ele>
        <time>2024-09-01T07:52:27Z</time>
      </trkpt>
      <trkpt lat="49.26774" lon="2.38747">
        <ele>65.3</ele>
        <time>2024-09-01T07:52:28Z</time>
      </trkpt>
      <trkpt lat="49.26773" lon="2.38746">
        <ele>65.2</ele>
        <time>2024-09-01T07:52:29Z</time>
      </trkpt>
      <trkpt lat="49.26772" lon="2.38745">
        <ele>65</ele>
        <time>2024-09-01T07:52:30Z</time>
      </trkpt>
      <trkpt lat="49.26772" lon="2.38744">
        <ele>64.8</ele>
        <time>2024-09-01T07:52:31Z</time>
      </trkpt>
      <trkpt lat="49.26771" lon="2.38743">
        <ele>64.6</ele>
        <time>2024-09-01T07:52:32Z</time>
      </trkpt>
      <trkpt lat="49.2677" lon="2.38742">
        <ele>64.5</ele>
        <time>2024-09-01T07:52:33Z</time>
      </trkpt>
      <trkpt lat="49.2677" lon="2.38741">
        <ele>64.3</ele>
        <time>2024-09-01T07:52:34Z</time>
      </trkpt>
      <trkpt lat="49.26769" lon="2.3874">
        <ele>64.1</ele>
        <time>2024-09-01T07:52:35Z</time>
      </trkpt>
      <trkpt lat="49.26768" lon="2.38739">
        <ele>63.9</ele>
        <time>2024-09-01T07:52:36Z</time>
      </trkpt>
      <trkpt lat="49.26767" lon="2.38737">
        <ele>63.7</ele>
        <time>2024-09-01T07:52:37Z</time>
      </trkpt>
      <trkpt lat="49.26766" lon="2.38736">
        <ele>63.5</ele>
        <time>2024-09-01T07:52:38Z</time>
      </trkpt>
      <trkpt lat="49.26765" lon="2.38736">
        <ele>63.3</ele>
        <time>2024-09-01T07:52:39Z</time>
      </trkpt>
      <trkpt lat="49.26764" lon="2.38735">
        <ele>63.1</ele>
        <time>2024-09-01T07:52:40Z</time>
      </trkpt>
      <trkpt lat="49.26763" lon="2.38734">
        <ele>62.9</ele>
        <time>2024-09-01T07:52:41Z</time>
      </trkpt>
      <trkpt lat="49.26762" lon="2.38734">
        <ele>62.7</ele>
        <time>2024-09-01T07:52:42Z</time>
      </trkpt>
      <trkpt lat="49.26761" lon="2.38733">
        <ele>62.6</ele>
        <time>2024-09-01T07:52:43Z</time>
      </trkpt>
      <trkpt lat="49.2676" lon="2.38732">
        <ele>62.4</ele>
        <time>2024-09-01T07:52:44Z</time>
      </trkpt>
      <trkpt lat="49.26758" lon="2.38732">
        <ele>62.2</ele>
        <time>2024-09-01T07:52:45Z</time>
      </trkpt>
      <trkpt lat="49.26757" lon="2.38731">
        <ele>61.9</ele>
        <time>2024-09-01T07:52:46Z</time>
      </trkpt>
      <trkpt lat="49.26756" lon="2.3873">
        <ele>61.7</ele>
        <time>2024-09-01T07:52:47Z</time>
      </trkpt>
      <trkpt lat="49.26755" lon="2.38729">
        <ele>61.5</ele>
        <time>2024-09-01T07:52:48Z</time>
      </trkpt>
      <trkpt lat="49.26754" lon="2.38728">
        <ele>61.3</ele>
        <time>2024-09-01T07:52:49Z</time>
      </trkpt>
      <trkpt lat="49.26753" lon="2.38728">
        <ele>61</ele>
        <time>2024-09-01T07:52:50Z</time>
      </trkpt>
      <trkpt lat="49.26752" lon="2.38727">
        <ele>60.8</ele>
        <time>2024-09-01T07:52:51Z</time>
      </trkpt>
      <trkpt lat="49.2675" lon="2.38726">
        <ele>60.6</ele>
        <time>2024-09-01T07:52:52Z</time>
      </trkpt>
      <trkpt lat="49.26749" lon="2.38726">
        <ele>60.5</ele>
        <time>2024-09-01T07:52:53Z</time>
      </trkpt>
      <trkpt lat="49.26748" lon="2.38726">
        <ele>60.4</ele>
        <time>2024-09-01T07:52:54Z</time>
      </trkpt>
      <trkpt lat="49.26746" lon="2.38726">
        <ele>60.3</ele>
        <time>2024-09-01T07:52:55Z</time>
      </trkpt>
      <trkpt lat="49.26745" lon="2.38726">
        <ele>60.2</ele>
        <time>2024-09-01T07:52:56Z</time>
      </trkpt>
      <trkpt lat="49.26743" lon="2.38727">
        <ele>60.2</ele>
        <time>2024-09-01T07:52:57Z</time>
      </trkpt>
      <trkpt lat="49.26742" lon="2.38727">
        <ele>60.1</ele>
        <time>2024-09-01T07:52:58Z</time>
      </trkpt>
      <trkpt lat="49.2674" lon="2.38728">
        <ele>60.1</ele>
        <time>2024-09-01T07:52:59Z</time>
      </trkpt>
      <trkpt lat="49.26739" lon="2.38729">
        <ele>60.1</ele>
        <time>2024-09-01T07:53:00Z</time>
      </trkpt>
      <trkpt lat="49.26737" lon="2.38729">
        <ele>60</ele>
        <time>2024-09-01T07:53:01Z</time>
      </trkpt>
      <trkpt lat="49.26736" lon="2.38729">
        <ele>60</ele>
        <time>2024-09-01T07:53:02Z</time>
      </trkpt>
      <trkpt lat="49.26734" lon="2.3873">
        <ele>59.9</ele>
        <time>2024-09-01T07:53:03Z</time>
      </trkpt>
      <trkpt lat="49.26733" lon="2.3873">
        <ele>59.8</ele>
        <time>2024-09-01T07:53:04Z</time>
      </trkpt>
      <trkpt lat="49.26731" lon="2.3873">
        <ele>59.7</ele>
        <time>2024-09-01T07:53:05Z</time>
      </trkpt>
      <trkpt lat="49.26729" lon="2.3873">
        <ele>59.6</ele>
        <time>2024-09-01T07:53:06Z</time>
      </trkpt>
      <trkpt lat="49.26728" lon="2.3873">
        <ele>59.5</ele>
        <time>2024-09-01T07:53:07Z</time>
      </trkpt>
      <trkpt lat="49.26726" lon="2.3873">
        <ele>59.4</ele>
        <time>2024-09-01T07:53:08Z</time>
      </trkpt>
      <trkpt lat="49.26724" lon="2.3873">
        <ele>59.3</ele>
        <time>2024-09-01T07:53:09Z</time>
      </trkpt>
      <trkpt lat="49.26723" lon="2.3873">
        <ele>59.1</ele>
        <time>2024-09-01T07:53:10Z</time>
      </trkpt>
      <trkpt lat="49.26721" lon="2.3873">
        <ele>59</ele>
        <time>2024-09-01T07:53:11Z</time>
      </trkpt>
      <trkpt lat="49.2672" lon="2.3873">
        <ele>59</ele>
        <time>2024-09-01T07:53:12Z</time>
      </trkpt>
      <trkpt lat="49.26718" lon="2.3873">
        <ele>58.9</ele>
        <time>2024-09-01T07:53:13Z</time>
      </trkpt>
      <trkpt lat="49.26716" lon="2.3873">
        <ele>58.8</ele>
        <time>2024-09-01T07:53:14Z</time>
      </trkpt>
      <trkpt lat="49.26715" lon="2.3873">
        <ele>58.6</ele>
        <time>2024-09-01T07:53:15Z</time>
      </trkpt>
      <trkpt lat="49.26713" lon="2.3873">
        <ele>58.5</ele>
        <time>2024-09-01T07:53:16Z</time>
      </trkpt>
      <trkpt lat="49.26711" lon="2.3873">
        <ele>58.4</ele>
        <time>2024-09-01T07:53:17Z</time>
      </trkpt>
      <trkpt lat="49.2671" lon="2.3873">
        <ele>58.2</ele>
        <time>2024-09-01T07:53:18Z</time>
      </trkpt>
      <trkpt lat="49.26708" lon="2.38729">
        <ele>58.1</ele>
        <time>2024-09-01T07:53:19Z</time>
      </trkpt>
      <trkpt lat="49.26706" lon="2.38728">
        <ele>57.9</ele>
        <time>2024-09-01T07:53:20Z</time>
      </trkpt>
      <trkpt lat="49.26705" lon="2.38727">
        <ele>57.7</ele>
        <time>2024-09-01T07:53:21Z</time>
      </trkpt>
      <trkpt lat="49.26704" lon="2.38725">
        <ele>57.5</ele>
        <time>2024-09-01T07:53:22Z</time>
      </trkpt>
      <trkpt lat="49.26703" lon="2.38723">
        <ele>57.3</ele>
        <time>2024-09-01T07:53:23Z</time>
      </trkpt>
      <trkpt lat="49.26702" lon="2.38721">
        <ele>57.2</ele>
        <time>2024-09-01T07:53:24Z</time>
      </trkpt>
      <trkpt lat="49.26701" lon="2.38719">
        <ele>57.1</ele>
        <time>2024-09-01T07:53:25Z</time>
      </trkpt>
      <trkpt lat="49.26701" lon="2.38716">
        <ele>57</ele>
        <time>2024-09-01T07:53:26Z</time>
      </trkpt>
      <trkpt lat="49.26701" lon="2.38714">
        <ele>56.9</ele>
        <time>2024-09-01T07:53:27Z</time>
      </trkpt>
      <trkpt lat="49.26701" lon="2.38711">
        <ele>56.8</ele>
        <time>2024-09-01T07:53:28Z</time>
      </trkpt>
      <trkpt lat="49.26701" lon="2.38709">
        <ele>56.7</ele>
        <time>2024-09-01T07:53:29Z</time>
      </trkpt>
      <trkpt lat="49.26701" lon="2.38706">
        <ele>56.6</ele>
        <time>2024-09-01T07:53:30Z</time>
      </trkpt>
      <trkpt lat="49.267" lon="2.38704">
        <ele>56.6</ele>
        <time>2024-09-01T07:53:31Z</time>
      </trkpt>
      <trkpt lat="49.267" lon="2.38702">
        <ele>56.5</ele>
        <time>2024-09-01T07:53:32Z</time>
      </trkpt>
      <trkpt lat="49.267" lon="2.38699">
        <ele>56.4</ele>
        <time>2024-09-01T07:53:33Z</time>
      </trkpt>
      <trkpt lat="49.267" lon="2.38697">
        <ele>56.3</ele>
        <time>2024-09-01T07:53:34Z</time>
      </trkpt>
      <trkpt lat="49.267" lon="2.38695">
        <ele>56.2</ele>
        <time>2024-09-01T07:53:35Z</time>
      </trkpt>
      <trkpt lat="49.267" lon="2.38692">
        <ele>56.3</ele>
        <time>2024-09-01T07:53:36Z</time>
      </trkpt>
      <trkpt lat="49.26699" lon="2.38691">
        <ele>56.4</ele>
        <time>2024-09-01T07:53:37Z</time>
      </trkpt>
      <trkpt lat="49.26699" lon="2.38689">
        <ele>56.4</ele>
        <time>2024-09-01T07:53:38Z</time>
      </trkpt>
      <trkpt lat="49.26698" lon="2.38687">
        <ele>56.5</ele>
        <time>2024-09-01T07:53:39Z</time>
      </trkpt>
      <trkpt lat="49.26698" lon="2.38685">
        <ele>56.6</ele>
        <time>2024-09-01T07:53:40Z</time>
      </trkpt>
      <trkpt lat="49.26698" lon="2.38683">
        <ele>56.6</ele>
        <time>2024-09-01T07:53:41Z</time>
      </trkpt>
      <trkpt lat="49.26697" lon="2.38681">
        <ele>56.7</ele>
        <time>2024-09-01T07:53:42Z</time>
      </trkpt>
      <trkpt lat="49.26697" lon="2.38678">
        <ele>56.8</ele>
        <time>2024-09-01T07:53:43Z</time>
      </trkpt>
      <trkpt lat="49.26697" lon="2.38676">
        <ele>56.9</ele>
        <time>2024-09-01T07:53:44Z</time>
      </trkpt>
      <trkpt lat="49.26696" lon="2.38674">
        <ele>56.9</ele>
        <time>2024-09-01T07:53:45Z</time>
      </trkpt>
      <trkpt lat="49.26696" lon="2.38671">
        <ele>57</ele>
        <time>2024-09-01T07:53:46Z</time>
      </trkpt>
      <trkpt lat="49.26696" lon="2.38669">
        <ele>57</ele>
        <time>2024-09-01T07:53:47Z</time>
      </trkpt>
      <trkpt lat="49.26695" lon="2.38667">
        <ele>57.1</ele>
        <time>2024-09-01T07:53:48Z</time>
      </trkpt>
      <trkpt lat="49.26695" lon="2.38665">
        <ele>57.2</ele>
        <time>2024-09-01T07:53:49Z</time>
      </trkpt>
      <trkpt lat="49.26694" lon="2.38662">
        <ele>57.3</ele>
        <time>2024-09-01T07:53:50Z</time>
      </trkpt>
      <trkpt lat="49.26693" lon="2.3866">
        <ele>57.5</ele>
        <time>2024-09-01T07:53:51Z</time>
      </trkpt>
      <trkpt lat="49.26693" lon="2.38658">
        <ele>57.6</ele>
        <time>2024-09-01T07:53:52Z</time>
      </trkpt>
      <trkpt lat="49.26692" lon="2.38656">
        <ele>57.7</ele>
        <time>2024-09-01T07:53:53Z</time>
      </trkpt>
      <trkpt lat="49.26692" lon="2.38654">
        <ele>57.9</ele>
        <time>2024-09-01T07:53:54Z</time>
      </trkpt>
      <trkpt lat="49.26692" lon="2.38651">
        <ele>58.1</ele>
        <time>2024-09-01T07:53:55Z</time>
      </trkpt>
      <trkpt lat="49.26691" lon="2.38649">
        <ele>58.3</ele>
        <time>2024-09-01T07:53:56Z</time>
      </trkpt>
      <trkpt lat="49.26691" lon="2.38647">
        <ele>58.4</ele>
        <time>2024-09-01T07:53:57Z</time>
      </trkpt>
      <trkpt lat="49.26691" lon="2.38645">
        <ele>58.6</ele>
        <time>2024-09-01T07:53:58Z</time>
      </trkpt>
      <trkpt lat="49.2669" lon="2.38643">
        <ele>58.8</ele>
        <time>2024-09-01T07:53:59Z</time>
      </trkpt>
      <trkpt lat="49.2669" lon="2.38641">
        <ele>59</ele>
        <time>2024-09-01T07:54:00Z</time>
      </trkpt>
      <trkpt lat="49.2669" lon="2.38638">
        <ele>59.2</ele>
        <time>2024-09-01T07:54:01Z</time>
      </trkpt>
      <trkpt lat="49.2669" lon="2.38636">
        <ele>59.4</ele>
        <time>2024-09-01T07:54:02Z</time>
      </trkpt>
      <trkpt lat="49.26689" lon="2.38634">
        <ele>59.4</ele>
        <time>2024-09-01T07:54:03Z</time>
      </trkpt>
      <trkpt lat="49.26689" lon="2.38632">
        <ele>59.6</ele>
        <time>2024-09-01T07:54:04Z</time>
      </trkpt>
      <trkpt lat="49.26688" lon="2.3863">
        <ele>59.6</ele>
        <time>2024-09-01T07:54:05Z</time>
      </trkpt>
      <trkpt lat="49.26688" lon="2.38629">
        <ele>59.6</ele>
        <time>2024-09-01T07:54:06Z</time>
      </trkpt>
      <trkpt lat="49.26687" lon="2.38627">
        <ele>59.5</ele>
        <time>2024-09-01T07:54:07Z</time>
      </trkpt>
      <trkpt lat="49.26686" lon="2.38625">
        <ele>59.5</ele>
        <time>2024-09-01T07:54:08Z</time>
      </trkpt>
      <trkpt lat="49.26685" lon="2.38624">
        <ele>59.4</ele>
        <time>2024-09-01T07:54:09Z</time>
      </trkpt>
      <trkpt lat="49.26684" lon="2.38622">
        <ele>59.3</ele>
        <time>2024-09-01T07:54:10Z</time>
      </trkpt>
      <trkpt lat="49.26683" lon="2.3862">
        <ele>59.1</ele>
        <time>2024-09-01T07:54:11Z</time>
      </trkpt>
      <trkpt lat="49.26682" lon="2.38619">
        <ele>58.9</ele>
        <time>2024-09-01T07:54:12Z</time>
      </trkpt>
      <trkpt lat="49.26681" lon="2.38618">
        <ele>58.7</ele>
        <time>2024-09-01T07:54:13Z</time>
      </trkpt>
      <trkpt lat="49.2668" lon="2.38616">
        <ele>58.5</ele>
        <time>2024-09-01T07:54:14Z</time>
      </trkpt>
      <trkpt lat="49.26678" lon="2.38615">
        <ele>58.2</ele>
        <time>2024-09-01T07:54:15Z</time>
      </trkpt>
      <trkpt lat="49.26677" lon="2.38614">
        <ele>58</ele>
        <time>2024-09-01T07:54:16Z</time>
      </trkpt>
      <trkpt lat="49.26676" lon="2.38612">
        <ele>57.7</ele>
        <time>2024-09-01T07:54:17Z</time>
      </trkpt>
      <trkpt lat="49.26675" lon="2.38611">
        <ele>57.4</ele>
        <time>2024-09-01T07:54:18Z</time>
      </trkpt>
      <trkpt lat="49.26674" lon="2.38609">
        <ele>57.2</ele>
        <time>2024-09-01T07:54:19Z</time>
      </trkpt>
      <trkpt lat="49.26673" lon="2.38608">
        <ele>57</ele>
        <time>2024-09-01T07:54:20Z</time>
      </trkpt>
      <trkpt lat="49.26672" lon="2.38606">
        <ele>56.8</ele>
        <time>2024-09-01T07:54:21Z</time>
      </trkpt>
      <trkpt lat="49.26671" lon="2.38605">
        <ele>56.7</ele>
        <time>2024-09-01T07:54:22Z</time>
      </trkpt>
      <trkpt lat="49.2667" lon="2.38603">
        <ele>56.6</ele>
        <time>2024-09-01T07:54:23Z</time>
      </trkpt>
      <trkpt lat="49.26669" lon="2.38601">
        <ele>56.5</ele>
        <time>2024-09-01T07:54:24Z</time>
      </trkpt>
      <trkpt lat="49.26669" lon="2.386">
        <ele>56.4</ele>
        <time>2024-09-01T07:54:25Z</time>
      </trkpt>
      <trkpt lat="49.26668" lon="2.38598">
        <ele>56.4</ele>
        <time>2024-09-01T07:54:26Z</time>
      </trkpt>
      <trkpt lat="49.26668" lon="2.38595">
        <ele>56.4</ele>
        <time>2024-09-01T07:54:27Z</time>
      </trkpt>
      <trkpt lat="49.26667" lon="2.38593">
        <ele>56.4</ele>
        <time>2024-09-01T07:54:28Z</time>
      </trkpt>
      <trkpt lat="49.26667" lon="2.3859">
        <ele>56.4</ele>
        <time>2024-09-01T07:54:29Z</time>
      </trkpt>
      <trkpt lat="49.26666" lon="2.38588">
        <ele>56.5</ele>
        <time>2024-09-01T07:54:30Z</time>
      </trkpt>
      <trkpt lat="49.26665" lon="2.38585">
        <ele>56.4</ele>
        <time>2024-09-01T07:54:31Z</time>
      </trkpt>
      <trkpt lat="49.26665" lon="2.38582">
        <ele>56.4</ele>
        <time>2024-09-01T07:54:32Z</time>
      </trkpt>
      <trkpt lat="49.26664" lon="2.3858">
        <ele>56.3</ele>
        <time>2024-09-01T07:54:33Z</time>
      </trkpt>
      <trkpt lat="49.26663" lon="2.38577">
        <ele>56.2</ele>
        <time>2024-09-01T07:54:34Z</time>
      </trkpt>
      <trkpt lat="49.26663" lon="2.38575">
        <ele>56.1</ele>
        <time>2024-09-01T07:54:35Z</time>
      </trkpt>
      <trkpt lat="49.26662" lon="2.38572">
        <ele>56</ele>
        <time>2024-09-01T07:54:36Z</time>
      </trkpt>
      <trkpt lat="49.26661" lon="2.3857">
        <ele>55.8</ele>
        <time>2024-09-01T07:54:37Z</time>
      </trkpt>
      <trkpt lat="49.2666" lon="2.38567">
        <ele>55.6</ele>
        <time>2024-09-01T07:54:38Z</time>
      </trkpt>
      <trkpt lat="49.2666" lon="2.38565">
        <ele>55.5</ele>
        <time>2024-09-01T07:54:39Z</time>
      </trkpt>
      <trkpt lat="49.26659" lon="2.38562">
        <ele>55.4</ele>
        <time>2024-09-01T07:54:40Z</time>
      </trkpt>
      <trkpt lat="49.26659" lon="2.3856">
        <ele>55.3</ele>
        <time>2024-09-01T07:54:41Z</time>
      </trkpt>
      <trkpt lat="49.26658" lon="2.38557">
        <ele>55.2</ele>
        <time>2024-09-01T07:54:42Z</time>
      </trkpt>
      <trkpt lat="49.26658" lon="2.38554">
        <ele>55.1</ele>
        <time>2024-09-01T07:54:43Z</time>
      </trkpt>
      <trkpt lat="49.26657" lon="2.38552">
        <ele>55</ele>
        <time>2024-09-01T07:54:44Z</time>
      </trkpt>
      <trkpt lat="49.26657" lon="2.38549">
        <ele>54.8</ele>
        <time>2024-09-01T07:54:45Z</time>
      </trkpt>
      <trkpt lat="49.26657" lon="2.38547">
        <ele>54.7</ele>
        <time>2024-09-01T07:54:46Z</time>
      </trkpt>
      <trkpt lat="49.26656" lon="2.38545">
        <ele>54.5</ele>
        <time>2024-09-01T07:54:47Z</time>
      </trkpt>
      <trkpt lat="49.26656" lon="2.38544">
        <ele>54.3</ele>
        <time>2024-09-01T07:54:48Z</time>
      </trkpt>
      <trkpt lat="49.26655" lon="2.38543">
        <ele>54</ele>
        <time>2024-09-01T07:54:49Z</time>
      </trkpt>
      <trkpt lat="49.26654" lon="2.38542">
        <ele>53.6</ele>
        <time>2024-09-01T07:54:50Z</time>
      </trkpt>
      <trkpt lat="49.26653" lon="2.38541">
        <ele>53.2</ele>
        <time>2024-09-01T07:54:51Z</time>
      </trkpt>
      <trkpt lat="49.26652" lon="2.3854">
        <ele>52.8</ele>
        <time>2024-09-01T07:54:52Z</time>
      </trkpt>
      <trkpt lat="49.26651" lon="2.3854">
        <ele>52.2</ele>
        <time>2024-09-01T07:54:53Z</time>
      </trkpt>
      <trkpt lat="49.2665" lon="2.38539">
        <ele>51.8</ele>
        <time>2024-09-01T07:54:54Z</time>
      </trkpt>
      <trkpt lat="49.26649" lon="2.38539">
        <ele>51.2</ele>
        <time>2024-09-01T07:54:55Z</time>
      </trkpt>
      <trkpt lat="49.26647" lon="2.38539">
        <ele>50.6</ele>
        <time>2024-09-01T07:54:56Z</time>
      </trkpt>
      <trkpt lat="49.26646" lon="2.38539">
        <ele>50.1</ele>
        <time>2024-09-01T07:54:57Z</time>
      </trkpt>
      <trkpt lat="49.26645" lon="2.3854">
        <ele>49.5</ele>
        <time>2024-09-01T07:54:58Z</time>
      </trkpt>
      <trkpt lat="49.26643" lon="2.3854">
        <ele>48.9</ele>
        <time>2024-09-01T07:54:59Z</time>
      </trkpt>
      <trkpt lat="49.26642" lon="2.3854">
        <ele>48.3</ele>
        <time>2024-09-01T07:55:00Z</time>
      </trkpt>
      <trkpt lat="49.2664" lon="2.38541">
        <ele>47.6</ele>
        <time>2024-09-01T07:55:01Z</time>
      </trkpt>
      <trkpt lat="49.26639" lon="2.38541">
        <ele>47</ele>
        <time>2024-09-01T07:55:02Z</time>
      </trkpt>
      <trkpt lat="49.26637" lon="2.38541">
        <ele>46.6</ele>
        <time>2024-09-01T07:55:03Z</time>
      </trkpt>
      <trkpt lat="49.26636" lon="2.38542">
        <ele>46.3</ele>
        <time>2024-09-01T07:55:04Z</time>
      </trkpt>
      <trkpt lat="49.26635" lon="2.38542">
        <ele>46</ele>
        <time>2024-09-01T07:55:05Z</time>
      </trkpt>
      <trkpt lat="49.26633" lon="2.38542">
        <ele>45.7</ele>
        <time>2024-09-01T07:55:06Z</time>
      </trkpt>
      <trkpt lat="49.26632" lon="2.38542">
        <ele>45.4</ele>
        <time>2024-09-01T07:55:07Z</time>
      </trkpt>
      <trkpt lat="49.26631" lon="2.38542">
        <ele>45.2</ele>
        <time>2024-09-01T07:55:08Z</time>
      </trkpt>
      <trkpt lat="49.2663" lon="2.38542">
        <ele>45</ele>
        <time>2024-09-01T07:55:19Z</time>
      </trkpt>
      <trkpt lat="49.2663" lon="2.38542">
        <ele>44.8</ele>
        <time>2024-09-01T07:55:20Z</time>
      </trkpt>
      <trkpt lat="49.26629" lon="2.38542">
        <ele>44.7</ele>
        <time>2024-09-01T07:55:21Z</time>
      </trkpt>
      <trkpt lat="49.26628" lon="2.38542">
        <ele>44.5</ele>
        <time>2024-09-01T07:55:22Z</time>
      </trkpt>
      <trkpt lat="49.26628" lon="2.38541">
        <ele>44.3</ele>
        <time>2024-09-01T07:55:23Z</time>
      </trkpt>
      <trkpt lat="49.26627" lon="2.3854">
        <ele>44.1</ele>
        <time>2024-09-01T07:55:24Z</time>
      </trkpt>
      <trkpt lat="49.26626" lon="2.38539">
        <ele>43.8</ele>
        <time>2024-09-01T07:55:25Z</time>
      </trkpt>
      <trkpt lat="49.26624" lon="2.38538">
        <ele>43.5</ele>
        <time>2024-09-01T07:55:26Z</time>
      </trkpt>
      <trkpt lat="49.26623" lon="2.38538">
        <ele>43.3</ele>
        <time>2024-09-01T07:55:27Z</time>
      </trkpt>
      <trkpt lat="49.26622" lon="2.38537">
        <ele>43</ele>
        <time>2024-09-01T07:55:28Z</time>
      </trkpt>
      <trkpt lat="49.26621" lon="2.38537">
        <ele>42.8</ele>
        <time>2024-09-01T07:55:29Z</time>
      </trkpt>
      <trkpt lat="49.2662" lon="2.38537">
        <ele>42.5</ele>
        <time>2024-09-01T07:55:30Z</time>
      </trkpt>
      <trkpt lat="49.26619" lon="2.38536">
        <ele>42.2</ele>
        <time>2024-09-01T07:55:31Z</time>
      </trkpt>
      <trkpt lat="49.26618" lon="2.38535">
        <ele>41.9</ele>
        <time>2024-09-01T07:55:32Z</time>
      </trkpt>
      <trkpt lat="49.26617" lon="2.38534">
        <ele>41.6</ele>
        <time>2024-09-01T07:55:33Z</time>
      </trkpt>
      <trkpt lat="49.26616" lon="2.38533">
        <ele>41.3</ele>
        <time>2024-09-01T07:55:34Z</time>
      </trkpt>
      <trkpt lat="49.26615" lon="2.38531">
        <ele>41</ele>
        <time>2024-09-01T07:55:35Z</time>
      </trkpt>
      <trkpt lat="49.26614" lon="2.38529">
        <ele>40.7</ele>
        <time>2024-09-01T07:55:36Z</time>
      </trkpt>
      <trkpt lat="49.26613" lon="2.38527">
        <ele>40.5</ele>
        <time>2024-09-01T07:55:37Z</time>
      </trkpt>
      <trkpt lat="49.26612" lon="2.38525">
        <ele>40.1</ele>
        <time>2024-09-01T07:55:38Z</time>
      </trkpt>
      <trkpt lat="49.26612" lon="2.38523">
        <ele>39.8</ele>
        <time>2024-09-01T07:55:39Z</time>
      </trkpt>
      <trkpt lat="49.26611" lon="2.38521">
        <ele>39.5</ele>
        <time>2024-09-01T07:55:40Z</time>
      </trkpt>
      <trkpt lat="49.26611" lon="2.38519">
        <ele>39.3</ele>
        <time>2024-09-01T07:55:41Z</time>
      </trkpt>
      <trkpt lat="49.2661" lon="2.38517">
        <ele>39</ele>
        <time>2024-09-01T07:55:42Z</time>
      </trkpt>
      <trkpt lat="49.26609" lon="2.38515">
        <ele>38.8</ele>
        <time>2024-09-01T07:55:43Z</time>
      </trkpt>
      <trkpt lat="49.26608" lon="2.38513">
        <ele>38.6</ele>
        <time>2024-09-01T07:55:44Z</time>
      </trkpt>
      <trkpt lat="49.26608" lon="2.38511">
        <ele>38.4</ele>
        <time>2024-09-01T07:55:45Z</time>
      </trkpt>
      <trkpt lat="49.26607" lon="2.38509">
        <ele>38.2</ele>
        <time>2024-09-01T07:55:46Z</time>
      </trkpt>
      <trkpt lat="49.26606" lon="2.38508">
        <ele>38</ele>
        <time>2024-09-01T07:55:47Z</time>
      </trkpt>
      <trkpt lat="49.26605" lon="2.38506">
        <ele>37.8</ele>
        <time>2024-09-01T07:55:48Z</time>
      </trkpt>
      <trkpt lat="49.26604" lon="2.38504">
        <ele>37.6</ele>
        <time>2024-09-01T07:55:49Z</time>
      </trkpt>
      <trkpt lat="49.26603" lon="2.38503">
        <ele>37.5</ele>
        <time>2024-09-01T07:55:50Z</time>
      </trkpt>
      <trkpt lat="49.26602" lon="2.38501">
        <ele>37.4</ele>
        <time>2024-09-01T07:55:51Z</time>
      </trkpt>
      <trkpt lat="49.26601" lon="2.385">
        <ele>37.3</ele>
        <time>2024-09-01T07:55:52Z</time>
      </trkpt>
      <trkpt lat="49.266" lon="2.38499">
        <ele>37.3</ele>
        <time>2024-09-01T07:55:53Z</time>
      </trkpt>
      <trkpt lat="49.26599" lon="2.38497">
        <ele>37.3</ele>
        <time>2024-09-01T07:55:54Z</time>
      </trkpt>
      <trkpt lat="49.26598" lon="2.38496">
        <ele>37.3</ele>
        <time>2024-09-01T07:55:55Z</time>
      </trkpt>
      <trkpt lat="49.26598" lon="2.38495">
        <ele>37.3</ele>
        <time>2024-09-01T07:55:56Z</time>
      </trkpt>
      <trkpt lat="49.26597" lon="2.38494">
        <ele>37.3</ele>
        <time>2024-09-01T07:55:57Z</time>
      </trkpt>
      <trkpt lat="49.26596" lon="2.38493">
        <ele>37.3</ele>
        <time>2024-09-01T07:55:58Z</time>
      </trkpt>
      <trkpt lat="49.26596" lon="2.38492">
        <ele>37.2</ele>
        <time>2024-09-01T07:55:59Z</time>
      </trkpt>
      <trkpt lat="49.26595" lon="2.38492">
        <ele>37.2</ele>
        <time>2024-09-01T07:56:00Z</time>
      </trkpt>
      <trkpt lat="49.26594" lon="2.38492">
        <ele>37.1</ele>
        <time>2024-09-01T07:56:01Z</time>
      </trkpt>
      <trkpt lat="49.26593" lon="2.38493">
        <ele>37</ele>
        <time>2024-09-01T07:56:02Z</time>
      </trkpt>
      <trkpt lat="49.26592" lon="2.38492">
        <ele>36.9</ele>
        <time>2024-09-01T07:56:03Z</time>
      </trkpt>
      <trkpt lat="49.26591" lon="2.38492">
        <ele>36.8</ele>
        <time>2024-09-01T07:56:04Z</time>
      </trkpt>
      <trkpt lat="49.2659" lon="2.38491">
        <ele>36.7</ele>
        <time>2024-09-01T07:56:05Z</time>
      </trkpt>
      <trkpt lat="49.26588" lon="2.38491">
        <ele>36.5</ele>
        <time>2024-09-01T07:56:06Z</time>
      </trkpt>
      <trkpt lat="49.26587" lon="2.3849">
        <ele>36.4</ele>
        <time>2024-09-01T07:56:07Z</time>
      </trkpt>
      <trkpt lat="49.26586" lon="2.3849">
        <ele>36.2</ele>
        <time>2024-09-01T07:56:08Z</time>
      </trkpt>
      <trkpt lat="49.26584" lon="2.38489">
        <ele>36.1</ele>
        <time>2024-09-01T07:56:09Z</time>
      </trkpt>
      <trkpt lat="49.26583" lon="2.38488">
        <ele>36</ele>
        <time>2024-09-01T07:56:10Z</time>
      </trkpt>
      <trkpt lat="49.26581" lon="2.38488">
        <ele>35.9</ele>
        <time>2024-09-01T07:56:11Z</time>
      </trkpt>
      <trkpt lat="49.26579" lon="2.38488">
        <ele>35.9</ele>
        <time>2024-09-01T07:56:12Z</time>
      </trkpt>
      <trkpt lat="49.26578" lon="2.38488">
        <ele>35.8</ele>
        <time>2024-09-01T07:56:13Z</time>
      </trkpt>
      <trkpt lat="49.26577" lon="2.38488">
        <ele>35.8</ele>
        <time>2024-09-01T07:56:14Z</time>
      </trkpt>
      <trkpt lat="49.26575" lon="2.38487">
        <ele>35.7</ele>
        <time>2024-09-01T07:56:15Z</time>
      </trkpt>
      <trkpt lat="49.26574" lon="2.38487">
        <ele>35.7</ele>
        <time>2024-09-01T07:56:16Z</time>
      </trkpt>
      <trkpt lat="49.26573" lon="2.38486">
        <ele>35.6</ele>
        <time>2024-09-01T07:56:17Z</time>
      </trkpt>
      <trkpt lat="49.26572" lon="2.38486">
        <ele>35.6</ele>
        <time>2024-09-01T07:56:18Z</time>
      </trkpt>
      <trkpt lat="49.2657" lon="2.38485">
        <ele>35.5</ele>
        <time>2024-09-01T07:56:19Z</time>
      </trkpt>
      <trkpt lat="49.26569" lon="2.38485">
        <ele>35.5</ele>
        <time>2024-09-01T07:56:20Z</time>
      </trkpt>
      <trkpt lat="49.26568" lon="2.38485">
        <ele>35.4</ele>
        <time>2024-09-01T07:56:21Z</time>
      </trkpt>
      <trkpt lat="49.26567" lon="2.38485">
        <ele>35.4</ele>
        <time>2024-09-01T07:56:22Z</time>
      </trkpt>
      <trkpt lat="49.26565" lon="2.38485">
        <ele>35.4</ele>
        <time>2024-09-01T07:56:23Z</time>
      </trkpt>
      <trkpt lat="49.26564" lon="2.38484">
        <ele>35.3</ele>
        <time>2024-09-01T07:56:24Z</time>
      </trkpt>
      <trkpt lat="49.26563" lon="2.38484">
        <ele>35.3</ele>
        <time>2024-09-01T07:56:25Z</time>
      </trkpt>
      <trkpt lat="49.26562" lon="2.38484">
        <ele>35.2</ele>
        <time>2024-09-01T07:56:26Z</time>
      </trkpt>
      <trkpt lat="49.26561" lon="2.38484">
        <ele>35.2</ele>
        <time>2024-09-01T07:56:27Z</time>
      </trkpt>
      <trkpt lat="49.2656" lon="2.38484">
        <ele>35.1</ele>
        <time>2024-09-01T07:56:28Z</time>
      </trkpt>
      <trkpt lat="49.26559" lon="2.38484">
        <ele>35.1</ele>
        <time>2024-09-01T07:56:29Z</time>
      </trkpt>
      <trkpt lat="49.26558" lon="2.38484">
        <ele>35.1</ele>
        <time>2024-09-01T07:56:30Z</time>
      </trkpt>
      <trkpt lat="49.26557" lon="2.38484">
        <ele>35</ele>
        <time>2024-09-01T07:56:31Z</time>
      </trkpt>
      <trkpt lat="49.26556" lon="2.38484">
        <ele>35</ele>
        <time>2024-09-01T07:56:32Z</time>
      </trkpt>
      <trkpt lat="49.26555" lon="2.38484">
        <ele>35</ele>
        <time>2024-09-01T07:56:33Z</time>
      </trkpt>
      <trkpt lat="49.26554" lon="2.38485">
        <ele>35</ele>
        <time>2024-09-01T07:56:34Z</time>
      </trkpt>
      <trkpt lat="49.26552" lon="2.38485">
        <ele>34.9</ele>
        <time>2024-09-01T07:56:35Z</time>
      </trkpt>
      <trkpt lat="49.26551" lon="2.38485">
        <ele>34.9</ele>
        <time>2024-09-01T07:56:36Z</time>
      </trkpt>
      <trkpt lat="49.26549" lon="2.38485">
        <ele>34.9</ele>
        <time>2024-09-01T07:56:37Z</time>
      </trkpt>
      <trkpt lat="49.26548" lon="2.38486">
        <ele>34.9</ele>
        <time>2024-09-01T07:56:38Z</time>
      </trkpt>
      <trkpt lat="49.26546" lon="2.38485">
        <ele>34.8</ele>
        <time>2024-09-01T07:56:39Z</time>
      </trkpt>
      <trkpt lat="49.26545" lon="2.38485">
        <ele>34.8</ele>
        <time>2024-09-01T07:56:40Z</time>
      </trkpt>
      <trkpt lat="49.26544" lon="2.38484">
        <ele>34.8</ele>
        <time>2024-09-01T07:56:41Z</time>
      </trkpt>
      <trkpt lat="49.26543" lon="2.38484">
        <ele>34.8</ele>
        <time>2024-09-01T07:56:42Z</time>
      </trkpt>
      <trkpt lat="49.26542" lon="2.38484">
        <ele>34.8</ele>
        <time>2024-09-01T07:56:43Z</time>
      </trkpt>
      <trkpt lat="49.26541" lon="2.38484">
        <ele>34.8</ele>
        <time>2024-09-01T07:56:44Z</time>
      </trkpt>
      <trkpt lat="49.2654" lon="2.38483">
        <ele>34.8</ele>
        <time>2024-09-01T07:56:45Z</time>
      </trkpt>
      <trkpt lat="49.26539" lon="2.38483">
        <ele>34.8</ele>
        <time>2024-09-01T07:56:46Z</time>
      </trkpt>
      <trkpt lat="49.26537" lon="2.38482">
        <ele>34.8</ele>
        <time>2024-09-01T07:56:47Z</time>
      </trkpt>
      <trkpt lat="49.26536" lon="2.38481">
        <ele>34.8</ele>
        <time>2024-09-01T07:56:48Z</time>
      </trkpt>
      <trkpt lat="49.26535" lon="2.38481">
        <ele>34.8</ele>
        <time>2024-09-01T07:56:49Z</time>
      </trkpt>
      <trkpt lat="49.26534" lon="2.3848">
        <ele>34.8</ele>
        <time>2024-09-01T07:56:50Z</time>
      </trkpt>
      <trkpt lat="49.26533" lon="2.3848">
        <ele>34.8</ele>
        <time>2024-09-01T07:56:51Z</time>
      </trkpt>
      <trkpt lat="49.26532" lon="2.38479">
        <ele>34.8</ele>
        <time>2024-09-01T07:56:52Z</time>
      </trkpt>
      <trkpt lat="49.26531" lon="2.38479">
        <ele>34.8</ele>
        <time>2024-09-01T07:56:53Z</time>
      </trkpt>
      <trkpt lat="49.2653" lon="2.38478">
        <ele>34.8</ele>
        <time>2024-09-01T07:56:54Z</time>
      </trkpt>
      <trkpt lat="49.26528" lon="2.38478">
        <ele>34.8</ele>
        <time>2024-09-01T07:56:55Z</time>
      </trkpt>
      <trkpt lat="49.26527" lon="2.38477">
        <ele>34.8</ele>
        <time>2024-09-01T07:56:56Z</time>
      </trkpt>
      <trkpt lat="49.26525" lon="2.38477">
        <ele>34.8</ele>
        <time>2024-09-01T07:56:57Z</time>
      </trkpt>
      <trkpt lat="49.26523" lon="2.38477">
        <ele>34.9</ele>
        <time>2024-09-01T07:56:58Z</time>
      </trkpt>
      <trkpt lat="49.26522" lon="2.38476">
        <ele>34.9</ele>
        <time>2024-09-01T07:56:59Z</time>
      </trkpt>
      <trkpt lat="49.2652" lon="2.38476">
        <ele>34.9</ele>
        <time>2024-09-01T07:57:00Z</time>
      </trkpt>
      <trkpt lat="49.26518" lon="2.38475">
        <ele>34.9</ele>
        <time>2024-09-01T07:57:01Z</time>
      </trkpt>
      <trkpt lat="49.26517" lon="2.38474">
        <ele>35</ele>
        <time>2024-09-01T07:57:02Z</time>
      </trkpt>
      <trkpt lat="49.26515" lon="2.38473">
        <ele>35</ele>
        <time>2024-09-01T07:57:03Z</time>
      </trkpt>
      <trkpt lat="49.26514" lon="2.38472">
        <ele>35</ele>
        <time>2024-09-01T07:57:04Z</time>
      </trkpt>
      <trkpt lat="49.26513" lon="2.38471">
        <ele>34.9</ele>
        <time>2024-09-01T07:57:05Z</time>
      </trkpt>
      <trkpt lat="49.26511" lon="2.3847">
        <ele>34.9</ele>
        <time>2024-09-01T07:57:06Z</time>
      </trkpt>
      <trkpt lat="49.2651" lon="2.38469">
        <ele>34.9</ele>
        <time>2024-09-01T07:57:07Z</time>
      </trkpt>
      <trkpt lat="49.26509" lon="2.38468">
        <ele>34.9</ele>
        <time>2024-09-01T07:57:08Z</time>
      </trkpt>
      <trkpt lat="49.26508" lon="2.38468">
        <ele>34.8</ele>
        <time>2024-09-01T07:57:09Z</time>
      </trkpt>
      <trkpt lat="49.26506" lon="2.38468">
        <ele>34.8</ele>
        <time>2024-09-01T07:57:10Z</time>
      </trkpt>
      <trkpt lat="49.26505" lon="2.38467">
        <ele>34.8</ele>
        <time>2024-09-01T07:57:11Z</time>
      </trkpt>
      <trkpt lat="49.26504" lon="2.38467">
        <ele>34.8</ele>
        <time>2024-09-01T07:57:12Z</time>
      </trkpt>
      <trkpt lat="49.26502" lon="2.38466">
        <ele>34.8</ele>
        <time>2024-09-01T07:57:13Z</time>
      </trkpt>
      <trkpt lat="49.26501" lon="2.38466">
        <ele>34.8</ele>
        <time>2024-09-01T07:57:14Z</time>
      </trkpt>
      <trkpt lat="49.26499" lon="2.38465">
        <ele>34.7</ele>
        <time>2024-09-01T07:57:15Z</time>
      </trkpt>
      <trkpt lat="49.26498" lon="2.38465">
        <ele>34.6</ele>
        <time>2024-09-01T07:57:16Z</time>
      </trkpt>
      <trkpt lat="49.26496" lon="2.38466">
        <ele>34.5</ele>
        <time>2024-09-01T07:57:17Z</time>
      </trkpt>
      <trkpt lat="49.26494" lon="2.38466">
        <ele>34.4</ele>
        <time>2024-09-01T07:57:18Z</time>
      </trkpt>
      <trkpt lat="49.26491" lon="2.38467">
        <ele>34.3</ele>
        <time>2024-09-01T07:57:19Z</time>
      </trkpt>
      <trkpt lat="49.26489" lon="2.38467">
        <ele>34.2</ele>
        <time>2024-09-01T07:57:20Z</time>
      </trkpt>
      <trkpt lat="49.26487" lon="2.38467">
        <ele>34.1</ele>
        <time>2024-09-01T07:57:21Z</time>
      </trkpt>
      <trkpt lat="49.26486" lon="2.38467">
        <ele>34</ele>
        <time>2024-09-01T07:57:22Z</time>
      </trkpt>
      <trkpt lat="49.26484" lon="2.38467">
        <ele>33.9</ele>
        <time>2024-09-01T07:57:23Z</time>
      </trkpt>
      <trkpt lat="49.26483" lon="2.38466">
        <ele>33.8</ele>
        <time>2024-09-01T07:57:24Z</time>
      </trkpt>
      <trkpt lat="49.26481" lon="2.38465">
        <ele>33.7</ele>
        <time>2024-09-01T07:57:25Z</time>
      </trkpt>
      <trkpt lat="49.2648" lon="2.38464">
        <ele>33.7</ele>
        <time>2024-09-01T07:57:26Z</time>
      </trkpt>
      <trkpt lat="49.26478" lon="2.38463">
        <ele>33.6</ele>
        <time>2024-09-01T07:57:27Z</time>
      </trkpt>
      <trkpt lat="49.26476" lon="2.38462">
        <ele>33.5</ele>
        <time>2024-09-01T07:57:28Z</time>
      </trkpt>
      <trkpt lat="49.26475" lon="2.38462">
        <ele>33.5</ele>
        <time>2024-09-01T07:57:29Z</time>
      </trkpt>
      <trkpt lat="49.26473" lon="2.38462">
        <ele>33.4</ele>
        <time>2024-09-01T07:57:30Z</time>
      </trkpt>
      <trkpt lat="49.26472" lon="2.38461">
        <ele>33.4</ele>
        <time>2024-09-01T07:57:31Z</time>
      </trkpt>
      <trkpt lat="49.26471" lon="2.38461">
        <ele>33.4</ele>
        <time>2024-09-01T07:57:32Z</time>
      </trkpt>
      <trkpt lat="49.2647" lon="2.3846">
        <ele>33.4</ele>
        <time>2024-09-01T07:57:33Z</time>
      </trkpt>
      <trkpt lat="49.26469" lon="2.3846">
        <ele>33.5</ele>
        <time>2024-09-01T07:57:34Z</time>
      </trkpt>
      <trkpt lat="49.26468" lon="2.38459">
        <ele>33.5</ele>
        <time>2024-09-01T07:57:35Z</time>
      </trkpt>
      <trkpt lat="49.26467" lon="2.38458">
        <ele>33.5</ele>
        <time>2024-09-01T07:57:36Z</time>
      </trkpt>
      <trkpt lat="49.26467" lon="2.38457">
        <ele>33.5</ele>
        <time>2024-09-01T07:57:37Z</time>
      </trkpt>
      <trkpt lat="49.26466" lon="2.38457">
        <ele>33.6</ele>
        <time>2024-09-01T07:57:38Z</time>
      </trkpt>
      <trkpt lat="49.26466" lon="2.38456">
        <ele>33.6</ele>
        <time>2024-09-01T07:57:39Z</time>
      </trkpt>
      <trkpt lat="49.26466" lon="2.38456">
        <ele>33.6</ele>
        <time>2024-09-01T07:57:40Z</time>
      </trkpt>
      <trkpt lat="49.26466" lon="2.38456">
        <ele>33.6</ele>
        <time>2024-09-01T07:57:41Z</time>
      </trkpt>
      <trkpt lat="49.26465" lon="2.38455">
        <ele>33.6</ele>
        <time>2024-09-01T07:57:42Z</time>
      </trkpt>
      <trkpt lat="49.26465" lon="2.38455">
        <ele>33.6</ele>
        <time>2024-09-01T07:57:43Z</time>
      </trkpt>
      <trkpt lat="49.26464" lon="2.38454">
        <ele>33.6</ele>
        <time>2024-09-01T07:57:44Z</time>
      </trkpt>
      <trkpt lat="49.26463" lon="2.38455">
        <ele>33.6</ele>
        <time>2024-09-01T07:57:45Z</time>
      </trkpt>
      <trkpt lat="49.26462" lon="2.38455">
        <ele>33.6</ele>
        <time>2024-09-01T07:57:46Z</time>
      </trkpt>
      <trkpt lat="49.26461" lon="2.38455">
        <ele>33.6</ele>
        <time>2024-09-01T07:57:47Z</time>
      </trkpt>
      <trkpt lat="49.2646" lon="2.38456">
        <ele>33.6</ele>
        <time>2024-09-01T07:57:48Z</time>
      </trkpt>
      <trkpt lat="49.26458" lon="2.38455">
        <ele>33.6</ele>
        <time>2024-09-01T07:57:49Z</time>
      </trkpt>
      <trkpt lat="49.26457" lon="2.38455">
        <ele>33.6</ele>
        <time>2024-09-01T07:57:50Z</time>
      </trkpt>
      <trkpt lat="49.26455" lon="2.38455">
        <ele>33.6</ele>
        <time>2024-09-01T07:57:51Z</time>
      </trkpt>
      <trkpt lat="49.26454" lon="2.38454">
        <ele>33.7</ele>
        <time>2024-09-01T07:57:52Z</time>
      </trkpt>
      <trkpt lat="49.26452" lon="2.38453">
        <ele>33.7</ele>
        <time>2024-09-01T07:57:53Z</time>
      </trkpt>
      <trkpt lat="49.2645" lon="2.38453">
        <ele>33.7</ele>
        <time>2024-09-01T07:57:54Z</time>
      </trkpt>
      <trkpt lat="49.26448" lon="2.38452">
        <ele>33.7</ele>
        <time>2024-09-01T07:57:55Z</time>
      </trkpt>
      <trkpt lat="49.26446" lon="2.3845">
        <ele>33.8</ele>
        <time>2024-09-01T07:57:56Z</time>
      </trkpt>
      <trkpt lat="49.26444" lon="2.38449">
        <ele>33.8</ele>
        <time>2024-09-01T07:57:57Z</time>
      </trkpt>
      <trkpt lat="49.26442" lon="2.38448">
        <ele>33.9</ele>
        <time>2024-09-01T07:57:58Z</time>
      </trkpt>
      <trkpt lat="49.26441" lon="2.38448">
        <ele>33.9</ele>
        <time>2024-09-01T07:57:59Z</time>
      </trkpt>
      <trkpt lat="49.2644" lon="2.38447">
        <ele>33.9</ele>
        <time>2024-09-01T07:58:00Z</time>
      </trkpt>
      <trkpt lat="49.26438" lon="2.38447">
        <ele>33.9</ele>
        <time>2024-09-01T07:58:01Z</time>
      </trkpt>
      <trkpt lat="49.26437" lon="2.38447">
        <ele>33.9</ele>
        <time>2024-09-01T07:58:02Z</time>
      </trkpt>
      <trkpt lat="49.26436" lon="2.38446">
        <ele>33.9</ele>
        <time>2024-09-01T07:58:03Z</time>
      </trkpt>
      <trkpt lat="49.26434" lon="2.38446">
        <ele>34</ele>
        <time>2024-09-01T07:58:04Z</time>
      </trkpt>
      <trkpt lat="49.26433" lon="2.38445">
        <ele>34</ele>
        <time>2024-09-01T07:58:05Z</time>
      </trkpt>
      <trkpt lat="49.26432" lon="2.38444">
        <ele>34</ele>
        <time>2024-09-01T07:58:06Z</time>
      </trkpt>
      <trkpt lat="49.2643" lon="2.38443">
        <ele>34</ele>
        <time>2024-09-01T07:58:07Z</time>
      </trkpt>
      <trkpt lat="49.26429" lon="2.38443">
        <ele>33.9</ele>
        <time>2024-09-01T07:58:08Z</time>
      </trkpt>
      <trkpt lat="49.26427" lon="2.38442">
        <ele>33.9</ele>
        <time>2024-09-01T07:58:09Z</time>
      </trkpt>
      <trkpt lat="49.26426" lon="2.38442">
        <ele>33.9</ele>
        <time>2024-09-01T07:58:10Z</time>
      </trkpt>
      <trkpt lat="49.26424" lon="2.38442">
        <ele>33.9</ele>
        <time>2024-09-01T07:58:11Z</time>
      </trkpt>
      <trkpt lat="49.26423" lon="2.38442">
        <ele>33.9</ele>
        <time>2024-09-01T07:58:12Z</time>
      </trkpt>
      <trkpt lat="49.26421" lon="2.38442">
        <ele>33.9</ele>
        <time>2024-09-01T07:58:13Z</time>
      </trkpt>
      <trkpt lat="49.2642" lon="2.38442">
        <ele>33.9</ele>
        <time>2024-09-01T07:58:14Z</time>
      </trkpt>
      <trkpt lat="49.26419" lon="2.38442">
        <ele>33.9</ele>
        <time>2024-09-01T07:58:15Z</time>
      </trkpt>
      <trkpt lat="49.26418" lon="2.38442">
        <ele>33.9</ele>
        <time>2024-09-01T07:58:16Z</time>
      </trkpt>
      <trkpt lat="49.26416" lon="2.38441">
        <ele>33.9</ele>
        <time>2024-09-01T07:58:17Z</time>
      </trkpt>
      <trkpt lat="49.26415" lon="2.38441">
        <ele>33.8</ele>
        <time>2024-09-01T07:58:18Z</time>
      </trkpt>
      <trkpt lat="49.26413" lon="2.38441">
        <ele>33.8</ele>
        <time>2024-09-01T07:58:19Z</time>
      </trkpt>
      <trkpt lat="49.26412" lon="2.38441">
        <ele>33.7</ele>
        <time>2024-09-01T07:58:20Z</time>
      </trkpt>
      <trkpt lat="49.2641" lon="2.3844">
        <ele>33.7</ele>
        <time>2024-09-01T07:58:21Z</time>
      </trkpt>
      <trkpt lat="49.26408" lon="2.3844">
        <ele>33.6</ele>
        <time>2024-09-01T07:58:22Z</time>
      </trkpt>
      <trkpt lat="49.26406" lon="2.38439">
        <ele>33.6</ele>
        <time>2024-09-01T07:58:23Z</time>
      </trkpt>
      <trkpt lat="49.26405" lon="2.38439">
        <ele>33.5</ele>
        <time>2024-09-01T07:58:24Z</time>
      </trkpt>
      <trkpt lat="49.26403" lon="2.38439">
        <ele>33.5</ele>
        <time>2024-09-01T07:58:25Z</time>
      </trkpt>
      <trkpt lat="49.26401" lon="2.38438">
        <ele>33.5</ele>
        <time>2024-09-01T07:58:26Z</time>
      </trkpt>
      <trkpt lat="49.26399" lon="2.38438">
        <ele>33.4</ele>
        <time>2024-09-01T07:58:27Z</time>
      </trkpt>
      <trkpt lat="49.26398" lon="2.38438">
        <ele>33.4</ele>
        <time>2024-09-01T07:58:28Z</time>
      </trkpt>
      <trkpt lat="49.26396" lon="2.38438">
        <ele>33.4</ele>
        <time>2024-09-01T07:58:29Z</time>
      </trkpt>
      <trkpt lat="49.26395" lon="2.38438">
        <ele>33.4</ele>
        <time>2024-09-01T07:58:30Z</time>
      </trkpt>
      <trkpt lat="49.26393" lon="2.38437">
        <ele>33.3</ele>
        <time>2024-09-01T07:58:31Z</time>
      </trkpt>
      <trkpt lat="49.26392" lon="2.38437">
        <ele>33.3</ele>
        <time>2024-09-01T07:58:32Z</time>
      </trkpt>
      <trkpt lat="49.26391" lon="2.38436">
        <ele>33.3</ele>
        <time>2024-09-01T07:58:33Z</time>
      </trkpt>
      <trkpt lat="49.2639" lon="2.38436">
        <ele>33.3</ele>
        <time>2024-09-01T07:58:34Z</time>
      </trkpt>
      <trkpt lat="49.26388" lon="2.38435">
        <ele>33.3</ele>
        <time>2024-09-01T07:58:35Z</time>
      </trkpt>
      <trkpt lat="49.26387" lon="2.38434">
        <ele>33.3</ele>
        <time>2024-09-01T07:58:36Z</time>
      </trkpt>
      <trkpt lat="49.26385" lon="2.38433">
        <ele>33.4</ele>
        <time>2024-09-01T07:58:37Z</time>
      </trkpt>
      <trkpt lat="49.26384" lon="2.38432">
        <ele>33.4</ele>
        <time>2024-09-01T07:58:38Z</time>
      </trkpt>
      <trkpt lat="49.26383" lon="2.38431">
        <ele>33.4</ele>
        <time>2024-09-01T07:58:39Z</time>
      </trkpt>
      <trkpt lat="49.26381" lon="2.3843">
        <ele>33.4</ele>
        <time>2024-09-01T07:58:40Z</time>
      </trkpt>
      <trkpt lat="49.2638" lon="2.38428">
        <ele>33.4</ele>
        <time>2024-09-01T07:58:41Z</time>
      </trkpt>
      <trkpt lat="49.26379" lon="2.38427">
        <ele>33.4</ele>
        <time>2024-09-01T07:58:42Z</time>
      </trkpt>
      <trkpt lat="49.26379" lon="2.38425">
        <ele>33.4</ele>
        <time>2024-09-01T07:58:43Z</time>
      </trkpt>
      <trkpt lat="49.26378" lon="2.38424">
        <ele>33.4</ele>
        <time>2024-09-01T07:58:44Z</time>
      </trkpt>
      <trkpt lat="49.26377" lon="2.38422">
        <ele>33.5</ele>
        <time>2024-09-01T07:58:45Z</time>
      </trkpt>
      <trkpt lat="49.26377" lon="2.38421">
        <ele>33.5</ele>
        <time>2024-09-01T07:58:46Z</time>
      </trkpt>
      <trkpt lat="49.26376" lon="2.38419">
        <ele>33.5</ele>
        <time>2024-09-01T07:58:47Z</time>
      </trkpt>
      <trkpt lat="49.26376" lon="2.38417">
        <ele>33.5</ele>
        <time>2024-09-01T07:58:48Z</time>
      </trkpt>
      <trkpt lat="49.26375" lon="2.38415">
        <ele>33.5</ele>
        <time>2024-09-01T07:58:49Z</time>
      </trkpt>
      <trkpt lat="49.26375" lon="2.38413">
        <ele>33.4</ele>
        <time>2024-09-01T07:58:50Z</time>
      </trkpt>
      <trkpt lat="49.26375" lon="2.38411">
        <ele>33.4</ele>
        <time>2024-09-01T07:58:51Z</time>
      </trkpt>
      <trkpt lat="49.26374" lon="2.38409">
        <ele>33.3</ele>
        <time>2024-09-01T07:58:52Z</time>
      </trkpt>
      <trkpt lat="49.26374" lon="2.38407">
        <ele>33.3</ele>
        <time>2024-09-01T07:58:53Z</time>
      </trkpt>
      <trkpt lat="49.26374" lon="2.38405">
        <ele>33.3</ele>
        <time>2024-09-01T07:58:54Z</time>
      </trkpt>
      <trkpt lat="49.26374" lon="2.38403">
        <ele>33.2</ele>
        <time>2024-09-01T07:58:55Z</time>
      </trkpt>
      <trkpt lat="49.26375" lon="2.38401">
        <ele>33.2</ele>
        <time>2024-09-01T07:58:56Z</time>
      </trkpt>
      <trkpt lat="49.26375" lon="2.38399">
        <ele>33.2</ele>
        <time>2024-09-01T07:58:57Z</time>
      </trkpt>
      <trkpt lat="49.26375" lon="2.38397">
        <ele>33.1</ele>
        <time>2024-09-01T07:58:58Z</time>
      </trkpt>
      <trkpt lat="49.26376" lon="2.38395">
        <ele>33.1</ele>
        <time>2024-09-01T07:58:59Z</time>
      </trkpt>
      <trkpt lat="49.26376" lon="2.38393">
        <ele>33.1</ele>
        <time>2024-09-01T07:59:00Z</time>
      </trkpt>
      <trkpt lat="49.26376" lon="2.3839">
        <ele>33</ele>
        <time>2024-09-01T07:59:01Z</time>
      </trkpt>
      <trkpt lat="49.26377" lon="2.38388">
        <ele>33</ele>
        <time>2024-09-01T07:59:02Z</time>
      </trkpt>
      <trkpt lat="49.26377" lon="2.38386">
        <ele>33.1</ele>
        <time>2024-09-01T07:59:03Z</time>
      </trkpt>
      <trkpt lat="49.26378" lon="2.38384">
        <ele>33.1</ele>
        <time>2024-09-01T07:59:04Z</time>
      </trkpt>
      <trkpt lat="49.26378" lon="2.38382">
        <ele>33.2</ele>
        <time>2024-09-01T07:59:05Z</time>
      </trkpt>
      <trkpt lat="49.26379" lon="2.38379">
        <ele>33.2</ele>
        <time>2024-09-01T07:59:06Z</time>
      </trkpt>
      <trkpt lat="49.26379" lon="2.38376">
        <ele>33.3</ele>
        <time>2024-09-01T07:59:07Z</time>
      </trkpt>
      <trkpt lat="49.26379" lon="2.38374">
        <ele>33.4</ele>
        <time>2024-09-01T07:59:08Z</time>
      </trkpt>
      <trkpt lat="49.2638" lon="2.38371">
        <ele>33.4</ele>
        <time>2024-09-01T07:59:09Z</time>
      </trkpt>
      <trkpt lat="49.2638" lon="2.38368">
        <ele>33.5</ele>
        <time>2024-09-01T07:59:10Z</time>
      </trkpt>
      <trkpt lat="49.2638" lon="2.38365">
        <ele>33.6</ele>
        <time>2024-09-01T07:59:11Z</time>
      </trkpt>
      <trkpt lat="49.26381" lon="2.38363">
        <ele>33.7</ele>
        <time>2024-09-01T07:59:12Z</time>
      </trkpt>
      <trkpt lat="49.26382" lon="2.38361">
        <ele>33.7</ele>
        <time>2024-09-01T07:59:13Z</time>
      </trkpt>
      <trkpt lat="49.26382" lon="2.3836">
        <ele>33.8</ele>
        <time>2024-09-01T07:59:14Z</time>
      </trkpt>
      <trkpt lat="49.26383" lon="2.38358">
        <ele>33.8</ele>
        <time>2024-09-01T07:59:15Z</time>
      </trkpt>
      <trkpt lat="49.26384" lon="2.38356">
        <ele>33.8</ele>
        <time>2024-09-01T07:59:16Z</time>
      </trkpt>
      <trkpt lat="49.26384" lon="2.38354">
        <ele>33.8</ele>
        <time>2024-09-01T07:59:17Z</time>
      </trkpt>
      <trkpt lat="49.26384" lon="2.38352">
        <ele>33.8</ele>
        <time>2024-09-01T07:59:18Z</time>
      </trkpt>
      <trkpt lat="49.26384" lon="2.3835">
        <ele>33.8</ele>
        <time>2024-09-01T07:59:19Z</time>
      </trkpt>
      <trkpt lat="49.26384" lon="2.38348">
        <ele>33.8</ele>
        <time>2024-09-01T07:59:20Z</time>
      </trkpt>
      <trkpt lat="49.26384" lon="2.38345">
        <ele>33.8</ele>
        <time>2024-09-01T07:59:21Z</time>
      </trkpt>
      <trkpt lat="49.26385" lon="2.38342">
        <ele>33.8</ele>
        <time>2024-09-01T07:59:22Z</time>
      </trkpt>
      <trkpt lat="49.26385" lon="2.3834">
        <ele>33.8</ele>
        <time>2024-09-01T07:59:23Z</time>
      </trkpt>
      <trkpt lat="49.26385" lon="2.38337">
        <ele>33.8</ele>
        <time>2024-09-01T07:59:24Z</time>
      </trkpt>
      <trkpt lat="49.26385" lon="2.38335">
        <ele>33.8</ele>
        <time>2024-09-01T07:59:25Z</time>
      </trkpt>
      <trkpt lat="49.26384" lon="2.38333">
        <ele>33.8</ele>
        <time>2024-09-01T07:59:26Z</time>
      </trkpt>
      <trkpt lat="49.26384" lon="2.3833">
        <ele>33.8</ele>
        <time>2024-09-01T07:59:27Z</time>
      </trkpt>
      <trkpt lat="49.26384" lon="2.38327">
        <ele>33.8</ele>
        <time>2024-09-01T07:59:28Z</time>
      </trkpt>
      <trkpt lat="49.26384" lon="2.38325">
        <ele>33.8</ele>
        <time>2024-09-01T07:59:29Z</time>
      </trkpt>
      <trkpt lat="49.26383" lon="2.38322">
        <ele>33.8</ele>
        <time>2024-09-01T07:59:30Z</time>
      </trkpt>
      <trkpt lat="49.26383" lon="2.38319">
        <ele>33.8</ele>
        <time>2024-09-01T07:59:31Z</time>
      </trkpt>
      <trkpt lat="49.26383" lon="2.38316">
        <ele>33.8</ele>
        <time>2024-09-01T07:59:32Z</time>
      </trkpt>
      <trkpt lat="49.26383" lon="2.38314">
        <ele>33.8</ele>
        <time>2024-09-01T07:59:33Z</time>
      </trkpt>
      <trkpt lat="49.26383" lon="2.38311">
        <ele>33.8</ele>
        <time>2024-09-01T07:59:34Z</time>
      </trkpt>
      <trkpt lat="49.26382" lon="2.38309">
        <ele>33.8</ele>
        <time>2024-09-01T07:59:35Z</time>
      </trkpt>
      <trkpt lat="49.26382" lon="2.38306">
        <ele>33.8</ele>
        <time>2024-09-01T07:59:36Z</time>
      </trkpt>
      <trkpt lat="49.26382" lon="2.38304">
        <ele>33.7</ele>
        <time>2024-09-01T07:59:37Z</time>
      </trkpt>
      <trkpt lat="49.26382" lon="2.38302">
        <ele>33.6</ele>
        <time>2024-09-01T07:59:38Z</time>
      </trkpt>
      <trkpt lat="49.26382" lon="2.383">
        <ele>33.6</ele>
        <time>2024-09-01T07:59:39Z</time>
      </trkpt>
      <trkpt lat="49.26382" lon="2.38297">
        <ele>33.5</ele>
        <time>2024-09-01T07:59:40Z</time>
      </trkpt>
      <trkpt lat="49.26381" lon="2.38295">
        <ele>33.5</ele>
        <time>2024-09-01T07:59:41Z</time>
      </trkpt>
      <trkpt lat="49.26381" lon="2.38293">
        <ele>33.4</ele>
        <time>2024-09-01T07:59:42Z</time>
      </trkpt>
      <trkpt lat="49.26381" lon="2.38291">
        <ele>33.3</ele>
        <time>2024-09-01T07:59:43Z</time>
      </trkpt>
      <trkpt lat="49.2638" lon="2.38289">
        <ele>33.3</ele>
        <time>2024-09-01T07:59:44Z</time>
      </trkpt>
      <trkpt lat="49.26379" lon="2.38288">
        <ele>33.2</ele>
        <time>2024-09-01T07:59:45Z</time>
      </trkpt>
      <trkpt lat="49.26379" lon="2.38286">
        <ele>33.2</ele>
        <time>2024-09-01T07:59:46Z</time>
      </trkpt>
      <trkpt lat="49.26378" lon="2.38284">
        <ele>33.1</ele>
        <time>2024-09-01T07:59:47Z</time>
      </trkpt>
      <trkpt lat="49.26377" lon="2.38282">
        <ele>33.1</ele>
        <time>2024-09-01T07:59:48Z</time>
      </trkpt>
      <trkpt lat="49.26377" lon="2.3828">
        <ele>33</ele>
        <time>2024-09-01T07:59:49Z</time>
      </trkpt>
      <trkpt lat="49.26376" lon="2.38278">
        <ele>33</ele>
        <time>2024-09-01T07:59:50Z</time>
      </trkpt>
      <trkpt lat="49.26376" lon="2.38276">
        <ele>33</ele>
        <time>2024-09-01T07:59:51Z</time>
      </trkpt>
      <trkpt lat="49.26375" lon="2.38274">
        <ele>33</ele>
        <time>2024-09-01T07:59:52Z</time>
      </trkpt>
      <trkpt lat="49.26375" lon="2.38272">
        <ele>33</ele>
        <time>2024-09-01T07:59:53Z</time>
      </trkpt>
      <trkpt lat="49.26375" lon="2.3827">
        <ele>33</ele>
        <time>2024-09-01T07:59:54Z</time>
      </trkpt>
      <trkpt lat="49.26374" lon="2.38268">
        <ele>33</ele>
        <time>2024-09-01T07:59:55Z</time>
      </trkpt>
      <trkpt lat="49.26374" lon="2.38267">
        <ele>33</ele>
        <time>2024-09-01T07:59:56Z</time>
      </trkpt>
      <trkpt lat="49.26373" lon="2.38265">
        <ele>33</ele>
        <time>2024-09-01T07:59:57Z</time>
      </trkpt>
      <trkpt lat="49.26372" lon="2.38264">
        <ele>33</ele>
        <time>2024-09-01T07:59:58Z</time>
      </trkpt>
      <trkpt lat="49.26372" lon="2.38263">
        <ele>33</ele>
        <time>2024-09-01T07:59:59Z</time>
      </trkpt>
      <trkpt lat="49.26371" lon="2.38262">
        <ele>33</ele>
        <time>2024-09-01T08:00:00Z</time>
      </trkpt>
      <trkpt lat="49.2637" lon="2.3826">
        <ele>33</ele>
        <time>2024-09-01T08:00:01Z</time>
      </trkpt>
      <trkpt lat="49.2637" lon="2.38259">
        <ele>33</ele>
        <time>2024-09-01T08:00:02Z</time>
      </trkpt>
      <trkpt lat="49.26369" lon="2.38257">
        <ele>33</ele>
        <time>2024-09-01T08:00:03Z</time>
      </trkpt>
      <trkpt lat="49.26369" lon="2.38256">
        <ele>33</ele>
        <time>2024-09-01T08:00:04Z</time>
      </trkpt>
      <trkpt lat="49.26368" lon="2.38255">
        <ele>33</ele>
        <time>2024-09-01T08:00:05Z</time>
      </trkpt>
      <trkpt lat="49.26368" lon="2.38253">
        <ele>33</ele>
        <time>2024-09-01T08:00:06Z</time>
      </trkpt>
      <trkpt lat="49.26367" lon="2.38252">
        <ele>33</ele>
        <time>2024-09-01T08:00:07Z</time>
      </trkpt>
      <trkpt lat="49.26366" lon="2.3825">
        <ele>33</ele>
        <time>2024-09-01T08:00:08Z</time>
      </trkpt>
      <trkpt lat="49.26365" lon="2.38249">
        <ele>33</ele>
        <time>2024-09-01T08:00:09Z</time>
      </trkpt>
      <trkpt lat="49.26364" lon="2.38248">
        <ele>33.1</ele>
        <time>2024-09-01T08:00:10Z</time>
      </trkpt>
      <trkpt lat="49.26363" lon="2.38247">
        <ele>33.1</ele>
        <time>2024-09-01T08:00:11Z</time>
      </trkpt>
      <trkpt lat="49.26362" lon="2.38245">
        <ele>33.2</ele>
        <time>2024-09-01T08:00:12Z</time>
      </trkpt>
      <trkpt lat="49.26361" lon="2.38244">
        <ele>33.2</ele>
        <time>2024-09-01T08:00:13Z</time>
      </trkpt>
      <trkpt lat="49.2636" lon="2.38243">
        <ele>33.3</ele>
        <time>2024-09-01T08:00:14Z</time>
      </trkpt>
      <trkpt lat="49.26359" lon="2.38241">
        <ele>33.3</ele>
        <time>2024-09-01T08:00:15Z</time>
      </trkpt>
      <trkpt lat="49.26358" lon="2.3824">
        <ele>33.3</ele>
        <time>2024-09-01T08:00:16Z</time>
      </trkpt>
      <trkpt lat="49.26358" lon="2.38239">
        <ele>33.4</ele>
        <time>2024-09-01T08:00:17Z</time>
      </trkpt>
      <trkpt lat="49.26357" lon="2.38238">
        <ele>33.4</ele>
        <time>2024-09-01T08:00:18Z</time>
      </trkpt>
      <trkpt lat="49.26357" lon="2.38237">
        <ele>33.4</ele>
        <time>2024-09-01T08:00:19Z</time>
      </trkpt>
      <trkpt lat="49.26356" lon="2.38235">
        <ele>33.4</ele>
        <time>2024-09-01T08:00:20Z</time>
      </trkpt>
      <trkpt lat="49.26356" lon="2.38234">
        <ele>33.5</ele>
        <time>2024-09-01T08:00:21Z</time>
      </trkpt>
      <trkpt lat="49.26355" lon="2.38233">
        <ele>33.5</ele>
        <time>2024-09-01T08:00:22Z</time>
      </trkpt>
      <trkpt lat="49.26355" lon="2.38231">
        <ele>33.5</ele>
        <time>2024-09-01T08:00:23Z</time>
      </trkpt>
      <trkpt lat="49.26354" lon="2.38229">
        <ele>33.6</ele>
        <time>2024-09-01T08:00:24Z</time>
      </trkpt>
      <trkpt lat="49.26353" lon="2.38227">
        <ele>33.6</ele>
        <time>2024-09-01T08:00:25Z</time>
      </trkpt>
      <trkpt lat="49.26352" lon="2.38225">
        <ele>33.6</ele>
        <time>2024-09-01T08:00:26Z</time>
      </trkpt>
      <trkpt lat="49.26351" lon="2.38222">
        <ele>33.6</ele>
        <time>2024-09-01T08:00:27Z</time>
      </trkpt>
      <trkpt lat="49.2635" lon="2.3822">
        <ele>33.6</ele>
        <time>2024-09-01T08:00:28Z</time>
      </trkpt>
      <trkpt lat="49.26348" lon="2.38219">
        <ele>33.5</ele>
        <time>2024-09-01T08:00:29Z</time>
      </trkpt>
      <trkpt lat="49.26347" lon="2.38217">
        <ele>33.5</ele>
        <time>2024-09-01T08:00:30Z</time>
      </trkpt>
      <trkpt lat="49.26346" lon="2.38216">
        <ele>33.5</ele>
        <time>2024-09-01T08:00:31Z</time>
      </trkpt>
      <trkpt lat="49.26345" lon="2.38215">
        <ele>33.5</ele>
        <time>2024-09-01T08:00:32Z</time>
      </trkpt>
      <trkpt lat="49.26344" lon="2.38213">
        <ele>33.5</ele>
        <time>2024-09-01T08:00:33Z</time>
      </trkpt>
      <trkpt lat="49.26344" lon="2.38212">
        <ele>33.5</ele>
        <time>2024-09-01T08:00:34Z</time>
      </trkpt>
      <trkpt lat="49.26343" lon="2.3821">
        <ele>33.5</ele>
        <time>2024-09-01T08:00:35Z</time>
      </trkpt>
      <trkpt lat="49.26342" lon="2.38208">
        <ele>33.5</ele>
        <time>2024-09-01T08:00:36Z</time>
      </trkpt>
      <trkpt lat="49.26341" lon="2.38207">
        <ele>33.5</ele>
        <time>2024-09-01T08:00:37Z</time>
      </trkpt>
      <trkpt lat="49.2634" lon="2.38205">
        <ele>33.6</ele>
        <time>2024-09-01T08:00:38Z</time>
      </trkpt>
      <trkpt lat="49.26339" lon="2.38203">
        <ele>33.6</ele>
        <time>2024-09-01T08:00:39Z</time>
      </trkpt>
      <trkpt lat="49.26338" lon="2.38201">
        <ele>33.7</ele>
        <time>2024-09-01T08:00:40Z</time>
      </trkpt>
      <trkpt lat="49.26337" lon="2.382">
        <ele>33.7</ele>
        <time>2024-09-01T08:00:41Z</time>
      </trkpt>
      <trkpt lat="49.26336" lon="2.38198">
        <ele>33.8</ele>
        <time>2024-09-01T08:00:42Z</time>
      </trkpt>
      <trkpt lat="49.26335" lon="2.38197">
        <ele>33.9</ele>
        <time>2024-09-01T08:00:43Z</time>
      </trkpt>
      <trkpt lat="49.26334" lon="2.38195">
        <ele>33.9</ele>
        <time>2024-09-01T08:00:44Z</time>
      </trkpt>
      <trkpt lat="49.26333" lon="2.38194">
        <ele>34</ele>
        <time>2024-09-01T08:00:45Z</time>
      </trkpt>
      <trkpt lat="49.26332" lon="2.38193">
        <ele>33.9</ele>
        <time>2024-09-01T08:00:46Z</time>
      </trkpt>
      <trkpt lat="49.26331" lon="2.38191">
        <ele>33.8</ele>
        <time>2024-09-01T08:00:47Z</time>
      </trkpt>
      <trkpt lat="49.26331" lon="2.38189">
        <ele>33.7</ele>
        <time>2024-09-01T08:00:48Z</time>
      </trkpt>
      <trkpt lat="49.2633" lon="2.38188">
        <ele>33.7</ele>
        <time>2024-09-01T08:00:49Z</time>
      </trkpt>
      <trkpt lat="49.26329" lon="2.38187">
        <ele>33.6</ele>
        <time>2024-09-01T08:00:50Z</time>
      </trkpt>
      <trkpt lat="49.26328" lon="2.38186">
        <ele>33.5</ele>
        <time>2024-09-01T08:00:51Z</time>
      </trkpt>
      <trkpt lat="49.26327" lon="2.38185">
        <ele>33.5</ele>
        <time>2024-09-01T08:00:52Z</time>
      </trkpt>
      <trkpt lat="49.26326" lon="2.38183">
        <ele>33.4</ele>
        <time>2024-09-01T08:00:53Z</time>
      </trkpt>
      <trkpt lat="49.26325" lon="2.38182">
        <ele>33.4</ele>
        <time>2024-09-01T08:00:54Z</time>
      </trkpt>
      <trkpt lat="49.26324" lon="2.38181">
        <ele>33.3</ele>
        <time>2024-09-01T08:00:55Z</time>
      </trkpt>
      <trkpt lat="49.26322" lon="2.38179">
        <ele>33.3</ele>
        <time>2024-09-01T08:00:56Z</time>
      </trkpt>
      <trkpt lat="49.26321" lon="2.38178">
        <ele>33.2</ele>
        <time>2024-09-01T08:00:57Z</time>
      </trkpt>
      <trkpt lat="49.2632" lon="2.38176">
        <ele>33.2</ele>
        <time>2024-09-01T08:00:58Z</time>
      </trkpt>
      <trkpt lat="49.26319" lon="2.38174">
        <ele>33.1</ele>
        <time>2024-09-01T08:00:59Z</time>
      </trkpt>
      <trkpt lat="49.26318" lon="2.38172">
        <ele>33.1</ele>
        <time>2024-09-01T08:01:00Z</time>
      </trkpt>
      <trkpt lat="49.26317" lon="2.38171">
        <ele>33.1</ele>
        <time>2024-09-01T08:01:01Z</time>
      </trkpt>
      <trkpt lat="49.26316" lon="2.3817">
        <ele>33</ele>
        <time>2024-09-01T08:01:02Z</time>
      </trkpt>
      <trkpt lat="49.26315" lon="2.38168">
        <ele>33</ele>
        <time>2024-09-01T08:01:03Z</time>
      </trkpt>
      <trkpt lat="49.26314" lon="2.38167">
        <ele>33</ele>
        <time>2024-09-01T08:01:04Z</time>
      </trkpt>
      <trkpt lat="49.26313" lon="2.38166">
        <ele>33</ele>
        <time>2024-09-01T08:01:05Z</time>
      </trkpt>
      <trkpt lat="49.26312" lon="2.38165">
        <ele>33</ele>
        <time>2024-09-01T08:01:06Z</time>
      </trkpt>
      <trkpt lat="49.26311" lon="2.38164">
        <ele>33.1</ele>
        <time>2024-09-01T08:01:07Z</time>
      </trkpt>
      <trkpt lat="49.2631" lon="2.38163">
        <ele>33.1</ele>
        <time>2024-09-01T08:01:08Z</time>
      </trkpt>
      <trkpt lat="49.26309" lon="2.38162">
        <ele>33.2</ele>
        <time>2024-09-01T08:01:09Z</time>
      </trkpt>
      <trkpt lat="49.26308" lon="2.3816">
        <ele>33.2</ele>
        <time>2024-09-01T08:01:10Z</time>
      </trkpt>
      <trkpt lat="49.26307" lon="2.38159">
        <ele>33.3</ele>
        <time>2024-09-01T08:01:11Z</time>
      </trkpt>
      <trkpt lat="49.26306" lon="2.38158">
        <ele>33.3</ele>
        <time>2024-09-01T08:01:12Z</time>
      </trkpt>
      <trkpt lat="49.26305" lon="2.38156">
        <ele>33.4</ele>
        <time>2024-09-01T08:01:13Z</time>
      </trkpt>
      <trkpt lat="49.26305" lon="2.38154">
        <ele>33.4</ele>
        <time>2024-09-01T08:01:14Z</time>
      </trkpt>
      <trkpt lat="49.26304" lon="2.38152">
        <ele>33.5</ele>
        <time>2024-09-01T08:01:15Z</time>
      </trkpt>
      <trkpt lat="49.26303" lon="2.38151">
        <ele>33.5</ele>
        <time>2024-09-01T08:01:16Z</time>
      </trkpt>
      <trkpt lat="49.26302" lon="2.38149">
        <ele>33.5</ele>
        <time>2024-09-01T08:01:17Z</time>
      </trkpt>
      <trkpt lat="49.26301" lon="2.38148">
        <ele>33.6</ele>
        <time>2024-09-01T08:01:18Z</time>
      </trkpt>
      <trkpt lat="49.263" lon="2.38147">
        <ele>33.6</ele>
        <time>2024-09-01T08:01:19Z</time>
      </trkpt>
      <trkpt lat="49.26299" lon="2.38146">
        <ele>33.6</ele>
        <time>2024-09-01T08:01:20Z</time>
      </trkpt>
      <trkpt lat="49.26298" lon="2.38145">
        <ele>33.6</ele>
        <time>2024-09-01T08:01:21Z</time>
      </trkpt>
      <trkpt lat="49.26297" lon="2.38144">
        <ele>33.6</ele>
        <time>2024-09-01T08:01:22Z</time>
      </trkpt>
      <trkpt lat="49.26296" lon="2.38143">
        <ele>33.6</ele>
        <time>2024-09-01T08:01:23Z</time>
      </trkpt>
      <trkpt lat="49.26295" lon="2.38142">
        <ele>33.6</ele>
        <time>2024-09-01T08:01:24Z</time>
      </trkpt>
      <trkpt lat="49.26294" lon="2.3814">
        <ele>33.6</ele>
        <time>2024-09-01T08:01:25Z</time>
      </trkpt>
      <trkpt lat="49.26294" lon="2.38137">
        <ele>33.6</ele>
        <time>2024-09-01T08:01:26Z</time>
      </trkpt>
      <trkpt lat="49.26292" lon="2.38135">
        <ele>33.5</ele>
        <time>2024-09-01T08:01:27Z</time>
      </trkpt>
      <trkpt lat="49.26291" lon="2.38133">
        <ele>33.5</ele>
        <time>2024-09-01T08:01:28Z</time>
      </trkpt>
      <trkpt lat="49.2629" lon="2.38131">
        <ele>33.5</ele>
        <time>2024-09-01T08:01:29Z</time>
      </trkpt>
      <trkpt lat="49.26288" lon="2.38129">
        <ele>33.5</ele>
        <time>2024-09-01T08:01:30Z</time>
      </trkpt>
      <trkpt lat="49.26287" lon="2.38127">
        <ele>33.5</ele>
        <time>2024-09-01T08:01:31Z</time>
      </trkpt>
      <trkpt lat="49.26286" lon="2.38125">
        <ele>33.5</ele>
        <time>2024-09-01T08:01:32Z</time>
      </trkpt>
      <trkpt lat="49.26284" lon="2.38124">
        <ele>33.5</ele>
        <time>2024-09-01T08:01:33Z</time>
      </trkpt>
      <trkpt lat="49.26283" lon="2.38122">
        <ele>33.6</ele>
        <time>2024-09-01T08:01:34Z</time>
      </trkpt>
      <trkpt lat="49.26282" lon="2.38121">
        <ele>33.6</ele>
        <time>2024-09-01T08:01:35Z</time>
      </trkpt>
      <trkpt lat="49.2628" lon="2.3812">
        <ele>33.7</ele>
        <time>2024-09-01T08:01:36Z</time>
      </trkpt>
      <trkpt lat="49.26279" lon="2.38119">
        <ele>33.7</ele>
        <time>2024-09-01T08:01:37Z</time>
      </trkpt>
      <trkpt lat="49.26277" lon="2.38118">
        <ele>33.8</ele>
        <time>2024-09-01T08:01:38Z</time>
      </trkpt>
      <trkpt lat="49.26276" lon="2.38116">
        <ele>33.8</ele>
        <time>2024-09-01T08:01:39Z</time>
      </trkpt>
      <trkpt lat="49.26275" lon="2.38115">
        <ele>33.9</ele>
        <time>2024-09-01T08:01:40Z</time>
      </trkpt>
      <trkpt lat="49.26274" lon="2.38114">
        <ele>33.9</ele>
        <time>2024-09-01T08:01:41Z</time>
      </trkpt>
      <trkpt lat="49.26273" lon="2.38113">
        <ele>33.9</ele>
        <time>2024-09-01T08:01:42Z</time>
      </trkpt>
      <trkpt lat="49.26272" lon="2.38112">
        <ele>34</ele>
        <time>2024-09-01T08:01:43Z</time>
      </trkpt>
      <trkpt lat="49.26272" lon="2.3811">
        <ele>34</ele>
        <time>2024-09-01T08:01:44Z</time>
      </trkpt>
      <trkpt lat="49.26271" lon="2.38109">
        <ele>33.9</ele>
        <time>2024-09-01T08:01:45Z</time>
      </trkpt>
      <trkpt lat="49.26271" lon="2.38107">
        <ele>33.9</ele>
        <time>2024-09-01T08:01:46Z</time>
      </trkpt>
      <trkpt lat="49.26271" lon="2.38105">
        <ele>33.8</ele>
        <time>2024-09-01T08:01:47Z</time>
      </trkpt>
      <trkpt lat="49.2627" lon="2.38103">
        <ele>33.8</ele>
        <time>2024-09-01T08:01:48Z</time>
      </trkpt>
      <trkpt lat="49.2627" lon="2.38101">
        <ele>33.7</ele>
        <time>2024-09-01T08:01:49Z</time>
      </trkpt>
      <trkpt lat="49.2627" lon="2.38099">
        <ele>33.7</ele>
        <time>2024-09-01T08:01:50Z</time>
      </trkpt>
      <trkpt lat="49.26269" lon="2.38097">
        <ele>33.7</ele>
        <time>2024-09-01T08:01:51Z</time>
      </trkpt>
      <trkpt lat="49.26268" lon="2.38096">
        <ele>33.6</ele>
        <time>2024-09-01T08:01:52Z</time>
      </trkpt>
      <trkpt lat="49.26268" lon="2.38094">
        <ele>33.6</ele>
        <time>2024-09-01T08:01:53Z</time>
      </trkpt>
      <trkpt lat="49.26267" lon="2.38093">
        <ele>33.6</ele>
        <time>2024-09-01T08:01:54Z</time>
      </trkpt>
      <trkpt lat="49.26267" lon="2.38091">
        <ele>33.5</ele>
        <time>2024-09-01T08:01:55Z</time>
      </trkpt>
      <trkpt lat="49.26267" lon="2.38089">
        <ele>33.5</ele>
        <time>2024-09-01T08:01:56Z</time>
      </trkpt>
      <trkpt lat="49.26268" lon="2.38086">
        <ele>33.4</ele>
        <time>2024-09-01T08:01:57Z</time>
      </trkpt>
      <trkpt lat="49.26268" lon="2.38084">
        <ele>33.4</ele>
        <time>2024-09-01T08:01:58Z</time>
      </trkpt>
      <trkpt lat="49.26268" lon="2.38082">
        <ele>33.4</ele>
        <time>2024-09-01T08:01:59Z</time>
      </trkpt>
      <trkpt lat="49.26268" lon="2.3808">
        <ele>33.4</ele>
        <time>2024-09-01T08:02:00Z</time>
      </trkpt>
      <trkpt lat="49.26267" lon="2.38078">
        <ele>33.5</ele>
        <time>2024-09-01T08:02:01Z</time>
      </trkpt>
      <trkpt lat="49.26267" lon="2.38076">
        <ele>33.5</ele>
        <time>2024-09-01T08:02:02Z</time>
      </trkpt>
      <trkpt lat="49.26266" lon="2.38075">
        <ele>33.6</ele>
        <time>2024-09-01T08:02:03Z</time>
      </trkpt>
      <trkpt lat="49.26265" lon="2.38073">
        <ele>33.7</ele>
        <time>2024-09-01T08:02:04Z</time>
      </trkpt>
      <trkpt lat="49.26264" lon="2.38071">
        <ele>33.7</ele>
        <time>2024-09-01T08:02:05Z</time>
      </trkpt>
      <trkpt lat="49.26263" lon="2.38068">
        <ele>33.8</ele>
        <time>2024-09-01T08:02:06Z</time>
      </trkpt>
      <trkpt lat="49.26262" lon="2.38066">
        <ele>33.8</ele>
        <time>2024-09-01T08:02:07Z</time>
      </trkpt>
      <trkpt lat="49.26262" lon="2.38064">
        <ele>33.9</ele>
        <time>2024-09-01T08:02:08Z</time>
      </trkpt>
      <trkpt lat="49.26261" lon="2.38062">
        <ele>33.9</ele>
        <time>2024-09-01T08:02:09Z</time>
      </trkpt>
      <trkpt lat="49.2626" lon="2.3806">
        <ele>33.9</ele>
        <time>2024-09-01T08:02:10Z</time>
      </trkpt>
      <trkpt lat="49.26259" lon="2.38058">
        <ele>34</ele>
        <time>2024-09-01T08:02:11Z</time>
      </trkpt>
      <trkpt lat="49.26259" lon="2.38056">
        <ele>34</ele>
        <time>2024-09-01T08:02:12Z</time>
      </trkpt>
      <trkpt lat="49.26258" lon="2.38054">
        <ele>34</ele>
        <time>2024-09-01T08:02:13Z</time>
      </trkpt>
      <trkpt lat="49.26257" lon="2.38052">
        <ele>34</ele>
        <time>2024-09-01T08:02:14Z</time>
      </trkpt>
      <trkpt lat="49.26257" lon="2.38051">
        <ele>34</ele>
        <time>2024-09-01T08:02:15Z</time>
      </trkpt>
      <trkpt lat="49.26256" lon="2.38049">
        <ele>33.9</ele>
        <time>2024-09-01T08:02:16Z</time>
      </trkpt>
      <trkpt lat="49.26255" lon="2.38047">
        <ele>33.9</ele>
        <time>2024-09-01T08:02:17Z</time>
      </trkpt>
      <trkpt lat="49.26255" lon="2.38045">
        <ele>33.9</ele>
        <time>2024-09-01T08:02:18Z</time>
      </trkpt>
      <trkpt lat="49.26254" lon="2.38042">
        <ele>33.9</ele>
        <time>2024-09-01T08:02:19Z</time>
      </trkpt>
      <trkpt lat="49.26254" lon="2.38039">
        <ele>33.9</ele>
        <time>2024-09-01T08:02:20Z</time>
      </trkpt>
      <trkpt lat="49.26253" lon="2.38037">
        <ele>33.9</ele>
        <time>2024-09-01T08:02:21Z</time>
      </trkpt>
      <trkpt lat="49.26252" lon="2.38034">
        <ele>33.9</ele>
        <time>2024-09-01T08:02:22Z</time>
      </trkpt>
      <trkpt lat="49.26251" lon="2.38031">
        <ele>34</ele>
        <time>2024-09-01T08:02:23Z</time>
      </trkpt>
      <trkpt lat="49.2625" lon="2.38029">
        <ele>34</ele>
        <time>2024-09-01T08:02:24Z</time>
      </trkpt>
      <trkpt lat="49.26249" lon="2.38026">
        <ele>34</ele>
        <time>2024-09-01T08:02:25Z</time>
      </trkpt>
      <trkpt lat="49.26248" lon="2.38024">
        <ele>34</ele>
        <time>2024-09-01T08:02:26Z</time>
      </trkpt>
      <trkpt lat="49.26248" lon="2.38022">
        <ele>34</ele>
        <time>2024-09-01T08:02:27Z</time>
      </trkpt>
      <trkpt lat="49.26247" lon="2.3802">
        <ele>34</ele>
        <time>2024-09-01T08:02:28Z</time>
      </trkpt>
      <trkpt lat="49.26246" lon="2.38018">
        <ele>33.9</ele>
        <time>2024-09-01T08:02:29Z</time>
      </trkpt>
      <trkpt lat="49.26245" lon="2.38016">
        <ele>33.9</ele>
        <time>2024-09-01T08:02:30Z</time>
      </trkpt>
      <trkpt lat="49.26243" lon="2.38014">
        <ele>33.9</ele>
        <time>2024-09-01T08:02:31Z</time>
      </trkpt>
      <trkpt lat="49.26242" lon="2.38012">
        <ele>33.8</ele>
        <time>2024-09-01T08:02:32Z</time>
      </trkpt>
      <trkpt lat="49.2624" lon="2.3801">
        <ele>33.8</ele>
        <time>2024-09-01T08:02:33Z</time>
      </trkpt>
      <trkpt lat="49.26238" lon="2.38009">
        <ele>33.7</ele>
        <time>2024-09-01T08:02:34Z</time>
      </trkpt>
      <trkpt lat="49.26236" lon="2.38007">
        <ele>33.6</ele>
        <time>2024-09-01T08:02:35Z</time>
      </trkpt>
      <trkpt lat="49.26234" lon="2.38005">
        <ele>33.5</ele>
        <time>2024-09-01T08:02:36Z</time>
      </trkpt>
      <trkpt lat="49.26233" lon="2.38003">
        <ele>33.5</ele>
        <time>2024-09-01T08:02:37Z</time>
      </trkpt>
      <trkpt lat="49.26232" lon="2.38001">
        <ele>33.4</ele>
        <time>2024-09-01T08:02:38Z</time>
      </trkpt>
      <trkpt lat="49.26231" lon="2.37999">
        <ele>33.3</ele>
        <time>2024-09-01T08:02:39Z</time>
      </trkpt>
      <trkpt lat="49.2623" lon="2.37997">
        <ele>33.3</ele>
        <time>2024-09-01T08:02:40Z</time>
      </trkpt>
      <trkpt lat="49.2623" lon="2.37995">
        <ele>33.3</ele>
        <time>2024-09-01T08:02:41Z</time>
      </trkpt>
      <trkpt lat="49.26229" lon="2.37993">
        <ele>33.4</ele>
        <time>2024-09-01T08:02:42Z</time>
      </trkpt>
      <trkpt lat="49.26228" lon="2.37992">
        <ele>33.4</ele>
        <time>2024-09-01T08:02:43Z</time>
      </trkpt>
      <trkpt lat="49.26228" lon="2.3799">
        <ele>33.4</ele>
        <time>2024-09-01T08:02:44Z</time>
      </trkpt>
      <trkpt lat="49.26227" lon="2.37987">
        <ele>33.5</ele>
        <time>2024-09-01T08:02:45Z</time>
      </trkpt>
      <trkpt lat="49.26226" lon="2.37985">
        <ele>33.5</ele>
        <time>2024-09-01T08:02:46Z</time>
      </trkpt>
      <trkpt lat="49.26226" lon="2.37982">
        <ele>33.6</ele>
        <time>2024-09-01T08:02:47Z</time>
      </trkpt>
      <trkpt lat="49.26225" lon="2.3798">
        <ele>33.7</ele>
        <time>2024-09-01T08:02:48Z</time>
      </trkpt>
      <trkpt lat="49.26224" lon="2.37977">
        <ele>33.8</ele>
        <time>2024-09-01T08:02:49Z</time>
      </trkpt>
      <trkpt lat="49.26223" lon="2.37974">
        <ele>33.9</ele>
        <time>2024-09-01T08:02:50Z</time>
      </trkpt>
      <trkpt lat="49.26223" lon="2.37971">
        <ele>34</ele>
        <time>2024-09-01T08:02:51Z</time>
      </trkpt>
      <trkpt lat="49.26222" lon="2.37968">
        <ele>34.1</ele>
        <time>2024-09-01T08:02:52Z</time>
      </trkpt>
      <trkpt lat="49.26222" lon="2.37966">
        <ele>34.2</ele>
        <time>2024-09-01T08:02:53Z</time>
      </trkpt>
      <trkpt lat="49.26221" lon="2.37963">
        <ele>34.3</ele>
        <time>2024-09-01T08:02:54Z</time>
      </trkpt>
      <trkpt lat="49.26221" lon="2.37961">
        <ele>34.4</ele>
        <time>2024-09-01T08:02:55Z</time>
      </trkpt>
      <trkpt lat="49.2622" lon="2.37958">
        <ele>34.5</ele>
        <time>2024-09-01T08:02:56Z</time>
      </trkpt>
      <trkpt lat="49.2622" lon="2.37956">
        <ele>34.5</ele>
        <time>2024-09-01T08:02:57Z</time>
      </trkpt>
      <trkpt lat="49.26219" lon="2.37954">
        <ele>34.6</ele>
        <time>2024-09-01T08:02:58Z</time>
      </trkpt>
      <trkpt lat="49.26219" lon="2.37951">
        <ele>34.7</ele>
        <time>2024-09-01T08:02:59Z</time>
      </trkpt>
      <trkpt lat="49.26219" lon="2.37949">
        <ele>34.7</ele>
        <time>2024-09-01T08:03:00Z</time>
      </trkpt>
      <trkpt lat="49.26219" lon="2.37947">
        <ele>34.8</ele>
        <time>2024-09-01T08:03:01Z</time>
      </trkpt>
      <trkpt lat="49.26219" lon="2.37945">
        <ele>34.8</ele>
        <time>2024-09-01T08:03:02Z</time>
      </trkpt>
      <trkpt lat="49.26219" lon="2.37943">
        <ele>34.8</ele>
        <time>2024-09-01T08:03:03Z</time>
      </trkpt>
      <trkpt lat="49.26219" lon="2.37941">
        <ele>34.8</ele>
        <time>2024-09-01T08:03:04Z</time>
      </trkpt>
      <trkpt lat="49.26219" lon="2.37938">
        <ele>34.7</ele>
        <time>2024-09-01T08:03:05Z</time>
      </trkpt>
      <trkpt lat="49.26219" lon="2.37936">
        <ele>34.6</ele>
        <time>2024-09-01T08:03:06Z</time>
      </trkpt>
      <trkpt lat="49.26218" lon="2.37933">
        <ele>34.6</ele>
        <time>2024-09-01T08:03:07Z</time>
      </trkpt>
      <trkpt lat="49.26218" lon="2.37931">
        <ele>34.5</ele>
        <time>2024-09-01T08:03:08Z</time>
      </trkpt>
      <trkpt lat="49.26217" lon="2.37929">
        <ele>34.5</ele>
        <time>2024-09-01T08:03:09Z</time>
      </trkpt>
      <trkpt lat="49.26217" lon="2.37927">
        <ele>34.4</ele>
        <time>2024-09-01T08:03:10Z</time>
      </trkpt>
      <trkpt lat="49.26216" lon="2.37924">
        <ele>34.4</ele>
        <time>2024-09-01T08:03:11Z</time>
      </trkpt>
      <trkpt lat="49.26216" lon="2.37922">
        <ele>34.3</ele>
        <time>2024-09-01T08:03:12Z</time>
      </trkpt>
      <trkpt lat="49.26216" lon="2.3792">
        <ele>34.3</ele>
        <time>2024-09-01T08:03:13Z</time>
      </trkpt>
      <trkpt lat="49.26216" lon="2.37918">
        <ele>34.3</ele>
        <time>2024-09-01T08:03:14Z</time>
      </trkpt>
      <trkpt lat="49.26215" lon="2.37916">
        <ele>34.2</ele>
        <time>2024-09-01T08:03:15Z</time>
      </trkpt>
      <trkpt lat="49.26215" lon="2.37914">
        <ele>34.2</ele>
        <time>2024-09-01T08:03:16Z</time>
      </trkpt>
      <trkpt lat="49.26215" lon="2.37912">
        <ele>34.2</ele>
        <time>2024-09-01T08:03:17Z</time>
      </trkpt>
      <trkpt lat="49.26215" lon="2.3791">
        <ele>34.2</ele>
        <time>2024-09-01T08:03:18Z</time>
      </trkpt>
      <trkpt lat="49.26215" lon="2.37908">
        <ele>34.2</ele>
        <time>2024-09-01T08:03:19Z</time>
      </trkpt>
      <trkpt lat="49.26215" lon="2.37906">
        <ele>34.1</ele>
        <time>2024-09-01T08:03:20Z</time>
      </trkpt>
      <trkpt lat="49.26215" lon="2.37904">
        <ele>34.1</ele>
        <time>2024-09-01T08:03:21Z</time>
      </trkpt>
      <trkpt lat="49.26215" lon="2.37902">
        <ele>34.1</ele>
        <time>2024-09-01T08:03:22Z</time>
      </trkpt>
      <trkpt lat="49.26215" lon="2.37899">
        <ele>34.1</ele>
        <time>2024-09-01T08:03:23Z</time>
      </trkpt>
      <trkpt lat="49.26214" lon="2.37896">
        <ele>34.1</ele>
        <time>2024-09-01T08:03:24Z</time>
      </trkpt>
      <trkpt lat="49.26214" lon="2.37893">
        <ele>34.1</ele>
        <time>2024-09-01T08:03:25Z</time>
      </trkpt>
      <trkpt lat="49.26213" lon="2.37891">
        <ele>34</ele>
        <time>2024-09-01T08:03:26Z</time>
      </trkpt>
      <trkpt lat="49.26213" lon="2.37888">
        <ele>34</ele>
        <time>2024-09-01T08:03:27Z</time>
      </trkpt>
      <trkpt lat="49.26212" lon="2.37885">
        <ele>34</ele>
        <time>2024-09-01T08:03:28Z</time>
      </trkpt>
      <trkpt lat="49.26212" lon="2.37883">
        <ele>33.9</ele>
        <time>2024-09-01T08:03:29Z</time>
      </trkpt>
      <trkpt lat="49.26212" lon="2.3788">
        <ele>33.9</ele>
        <time>2024-09-01T08:03:30Z</time>
      </trkpt>
      <trkpt lat="49.26212" lon="2.37877">
        <ele>33.8</ele>
        <time>2024-09-01T08:03:31Z</time>
      </trkpt>
      <trkpt lat="49.26211" lon="2.37874">
        <ele>33.8</ele>
        <time>2024-09-01T08:03:32Z</time>
      </trkpt>
      <trkpt lat="49.26211" lon="2.37871">
        <ele>33.7</ele>
        <time>2024-09-01T08:03:33Z</time>
      </trkpt>
      <trkpt lat="49.2621" lon="2.37868">
        <ele>33.7</ele>
        <time>2024-09-01T08:03:34Z</time>
      </trkpt>
      <trkpt lat="49.2621" lon="2.37866">
        <ele>33.6</ele>
        <time>2024-09-01T08:03:35Z</time>
      </trkpt>
      <trkpt lat="49.26209" lon="2.37863">
        <ele>33.5</ele>
        <time>2024-09-01T08:03:36Z</time>
      </trkpt>
      <trkpt lat="49.26209" lon="2.37861">
        <ele>33.5</ele>
        <time>2024-09-01T08:03:37Z</time>
      </trkpt>
      <trkpt lat="49.26208" lon="2.37858">
        <ele>33.5</ele>
        <time>2024-09-01T08:03:38Z</time>
      </trkpt>
      <trkpt lat="49.26208" lon="2.37856">
        <ele>33.5</ele>
        <time>2024-09-01T08:03:39Z</time>
      </trkpt>
      <trkpt lat="49.26208" lon="2.37853">
        <ele>33.5</ele>
        <time>2024-09-01T08:03:40Z</time>
      </trkpt>
      <trkpt lat="49.26208" lon="2.37851">
        <ele>33.5</ele>
        <time>2024-09-01T08:03:41Z</time>
      </trkpt>
      <trkpt lat="49.26209" lon="2.37849">
        <ele>33.5</ele>
        <time>2024-09-01T08:03:42Z</time>
      </trkpt>
      <trkpt lat="49.26209" lon="2.37846">
        <ele>33.5</ele>
        <time>2024-09-01T08:03:43Z</time>
      </trkpt>
      <trkpt lat="49.26209" lon="2.37844">
        <ele>33.5</ele>
        <time>2024-09-01T08:03:44Z</time>
      </trkpt>
      <trkpt lat="49.26209" lon="2.37842">
        <ele>33.5</ele>
        <time>2024-09-01T08:03:45Z</time>
      </trkpt>
      <trkpt lat="49.26209" lon="2.37839">
        <ele>33.5</ele>
        <time>2024-09-01T08:03:46Z</time>
      </trkpt>
      <trkpt lat="49.26209" lon="2.37837">
        <ele>33.5</ele>
        <time>2024-09-01T08:03:47Z</time>
      </trkpt>
      <trkpt lat="49.26209" lon="2.37835">
        <ele>33.5</ele>
        <time>2024-09-01T08:03:48Z</time>
      </trkpt>
      <trkpt lat="49.26209" lon="2.37833">
        <ele>33.5</ele>
        <time>2024-09-01T08:03:49Z</time>
      </trkpt>
      <trkpt lat="49.26209" lon="2.37831">
        <ele>33.6</ele>
        <time>2024-09-01T08:03:50Z</time>
      </trkpt>
      <trkpt lat="49.26209" lon="2.37829">
        <ele>33.7</ele>
        <time>2024-09-01T08:03:51Z</time>
      </trkpt>
      <trkpt lat="49.2621" lon="2.37827">
        <ele>33.8</ele>
        <time>2024-09-01T08:03:52Z</time>
      </trkpt>
      <trkpt lat="49.2621" lon="2.37825">
        <ele>33.9</ele>
        <time>2024-09-01T08:03:53Z</time>
      </trkpt>
      <trkpt lat="49.2621" lon="2.37823">
        <ele>33.9</ele>
        <time>2024-09-01T08:03:54Z</time>
      </trkpt>
      <trkpt lat="49.2621" lon="2.37821">
        <ele>34</ele>
        <time>2024-09-01T08:03:55Z</time>
      </trkpt>
      <trkpt lat="49.26211" lon="2.3782">
        <ele>34.1</ele>
        <time>2024-09-01T08:03:56Z</time>
      </trkpt>
      <trkpt lat="49.26211" lon="2.37818">
        <ele>34.1</ele>
        <time>2024-09-01T08:03:57Z</time>
      </trkpt>
      <trkpt lat="49.26211" lon="2.37817">
        <ele>34.2</ele>
        <time>2024-09-01T08:03:58Z</time>
      </trkpt>
      <trkpt lat="49.2621" lon="2.37816">
        <ele>34.2</ele>
        <time>2024-09-01T08:03:59Z</time>
      </trkpt>
      <trkpt lat="49.2621" lon="2.37815">
        <ele>34.2</ele>
        <time>2024-09-01T08:04:00Z</time>
      </trkpt>
      <trkpt lat="49.26209" lon="2.37815">
        <ele>34.2</ele>
        <time>2024-09-01T08:04:01Z</time>
      </trkpt>
      <trkpt lat="49.26208" lon="2.37814">
        <ele>34.2</ele>
        <time>2024-09-01T08:04:02Z</time>
      </trkpt>
      <trkpt lat="49.26207" lon="2.37814">
        <ele>34.2</ele>
        <time>2024-09-01T08:04:03Z</time>
      </trkpt>
      <trkpt lat="49.26206" lon="2.37814">
        <ele>34.1</ele>
        <time>2024-09-01T08:04:04Z</time>
      </trkpt>
      <trkpt lat="49.26205" lon="2.37813">
        <ele>34.1</ele>
        <time>2024-09-01T08:04:05Z</time>
      </trkpt>
      <trkpt lat="49.26204" lon="2.37813">
        <ele>34.1</ele>
        <time>2024-09-01T08:04:06Z</time>
      </trkpt>
      <trkpt lat="49.26202" lon="2.37812">
        <ele>34</ele>
        <time>2024-09-01T08:04:07Z</time>
      </trkpt>
      <trkpt lat="49.26201" lon="2.37812">
        <ele>34</ele>
        <time>2024-09-01T08:04:08Z</time>
      </trkpt>
      <trkpt lat="49.26199" lon="2.37811">
        <ele>34</ele>
        <time>2024-09-01T08:04:09Z</time>
      </trkpt>
      <trkpt lat="49.26198" lon="2.37811">
        <ele>33.9</ele>
        <time>2024-09-01T08:04:10Z</time>
      </trkpt>
      <trkpt lat="49.26196" lon="2.3781">
        <ele>33.9</ele>
        <time>2024-09-01T08:04:11Z</time>
      </trkpt>
      <trkpt lat="49.26194" lon="2.3781">
        <ele>33.9</ele>
        <time>2024-09-01T08:04:12Z</time>
      </trkpt>
      <trkpt lat="49.26192" lon="2.3781">
        <ele>34</ele>
        <time>2024-09-01T08:04:13Z</time>
      </trkpt>
      <trkpt lat="49.2619" lon="2.3781">
        <ele>34.2</ele>
        <time>2024-09-01T08:04:14Z</time>
      </trkpt>
      <trkpt lat="49.26188" lon="2.37809">
        <ele>34.3</ele>
        <time>2024-09-01T08:04:15Z</time>
      </trkpt>
      <trkpt lat="49.26187" lon="2.37809">
        <ele>34.4</ele>
        <time>2024-09-01T08:04:16Z</time>
      </trkpt>
      <trkpt lat="49.26185" lon="2.37809">
        <ele>34.6</ele>
        <time>2024-09-01T08:04:17Z</time>
      </trkpt>
      <trkpt lat="49.26183" lon="2.37809">
        <ele>34.7</ele>
        <time>2024-09-01T08:04:18Z</time>
      </trkpt>
      <trkpt lat="49.26182" lon="2.37808">
        <ele>34.8</ele>
        <time>2024-09-01T08:04:19Z</time>
      </trkpt>
      <trkpt lat="49.2618" lon="2.37808">
        <ele>34.9</ele>
        <time>2024-09-01T08:04:20Z</time>
      </trkpt>
      <trkpt lat="49.26179" lon="2.37808">
        <ele>35.1</ele>
        <time>2024-09-01T08:04:21Z</time>
      </trkpt>
      <trkpt lat="49.26177" lon="2.37808">
        <ele>35.2</ele>
        <time>2024-09-01T08:04:22Z</time>
      </trkpt>
      <trkpt lat="49.26176" lon="2.37807">
        <ele>35.3</ele>
        <time>2024-09-01T08:04:23Z</time>
      </trkpt>
      <trkpt lat="49.26175" lon="2.37807">
        <ele>35.4</ele>
        <time>2024-09-01T08:04:24Z</time>
      </trkpt>
      <trkpt lat="49.26173" lon="2.37807">
        <ele>35.5</ele>
        <time>2024-09-01T08:04:25Z</time>
      </trkpt>
      <trkpt lat="49.26172" lon="2.37806">
        <ele>35.6</ele>
        <time>2024-09-01T08:04:26Z</time>
      </trkpt>
      <trkpt lat="49.26171" lon="2.37806">
        <ele>35.7</ele>
        <time>2024-09-01T08:04:27Z</time>
      </trkpt>
      <trkpt lat="49.2617" lon="2.37806">
        <ele>35.7</ele>
        <time>2024-09-01T08:04:28Z</time>
      </trkpt>
      <trkpt lat="49.26169" lon="2.37806">
        <ele>35.8</ele>
        <time>2024-09-01T08:04:29Z</time>
      </trkpt>
      <trkpt lat="49.26167" lon="2.37806">
        <ele>35.9</ele>
        <time>2024-09-01T08:04:30Z</time>
      </trkpt>
      <trkpt lat="49.26166" lon="2.37806">
        <ele>36</ele>
        <time>2024-09-01T08:04:31Z</time>
      </trkpt>
      <trkpt lat="49.26165" lon="2.37806">
        <ele>36</ele>
        <time>2024-09-01T08:04:32Z</time>
      </trkpt>
      <trkpt lat="49.26163" lon="2.37806">
        <ele>36</ele>
        <time>2024-09-01T08:04:33Z</time>
      </trkpt>
      <trkpt lat="49.26161" lon="2.37805">
        <ele>36</ele>
        <time>2024-09-01T08:04:34Z</time>
      </trkpt>
      <trkpt lat="49.2616" lon="2.37805">
        <ele>36</ele>
        <time>2024-09-01T08:04:35Z</time>
      </trkpt>
      <trkpt lat="49.26158" lon="2.37804">
        <ele>35.9</ele>
        <time>2024-09-01T08:04:36Z</time>
      </trkpt>
      <trkpt lat="49.26157" lon="2.37802">
        <ele>35.9</ele>
        <time>2024-09-01T08:04:37Z</time>
      </trkpt>
      <trkpt lat="49.26155" lon="2.37801">
        <ele>35.9</ele>
        <time>2024-09-01T08:04:38Z</time>
      </trkpt>
      <trkpt lat="49.26154" lon="2.378">
        <ele>35.9</ele>
        <time>2024-09-01T08:04:39Z</time>
      </trkpt>
      <trkpt lat="49.26153" lon="2.37799">
        <ele>35.9</ele>
        <time>2024-09-01T08:04:40Z</time>
      </trkpt>
      <trkpt lat="49.26151" lon="2.37797">
        <ele>35.9</ele>
        <time>2024-09-01T08:04:41Z</time>
      </trkpt>
      <trkpt lat="49.2615" lon="2.37796">
        <ele>35.9</ele>
        <time>2024-09-01T08:04:42Z</time>
      </trkpt>
      <trkpt lat="49.26149" lon="2.37794">
        <ele>35.8</ele>
        <time>2024-09-01T08:04:43Z</time>
      </trkpt>
      <trkpt lat="49.26148" lon="2.37793">
        <ele>35.8</ele>
        <time>2024-09-01T08:04:44Z</time>
      </trkpt>
      <trkpt lat="49.26147" lon="2.37792">
        <ele>35.8</ele>
        <time>2024-09-01T08:04:45Z</time>
      </trkpt>
      <trkpt lat="49.26146" lon="2.3779">
        <ele>35.9</ele>
        <time>2024-09-01T08:04:46Z</time>
      </trkpt>
      <trkpt lat="49.26145" lon="2.37789">
        <ele>35.9</ele>
        <time>2024-09-01T08:04:47Z</time>
      </trkpt>
      <trkpt lat="49.26144" lon="2.37788">
        <ele>35.9</ele>
        <time>2024-09-01T08:04:48Z</time>
      </trkpt>
      <trkpt lat="49.26143" lon="2.37787">
        <ele>35.9</ele>
        <time>2024-09-01T08:04:49Z</time>
      </trkpt>
      <trkpt lat="49.26143" lon="2.37785">
        <ele>35.9</ele>
        <time>2024-09-01T08:04:50Z</time>
      </trkpt>
      <trkpt lat="49.26142" lon="2.37784">
        <ele>35.9</ele>
        <time>2024-09-01T08:04:51Z</time>
      </trkpt>
      <trkpt lat="49.26141" lon="2.37782">
        <ele>35.9</ele>
        <time>2024-09-01T08:04:52Z</time>
      </trkpt>
      <trkpt lat="49.26141" lon="2.3778">
        <ele>35.9</ele>
        <time>2024-09-01T08:04:53Z</time>
      </trkpt>
      <trkpt lat="49.26141" lon="2.37779">
        <ele>35.9</ele>
        <time>2024-09-01T08:07:04Z</time>
      </trkpt>
      <trkpt lat="49.26141" lon="2.37778">
        <ele>35.9</ele>
        <time>2024-09-01T08:07:05Z</time>
      </trkpt>
      <trkpt lat="49.26141" lon="2.37777">
        <ele>35.9</ele>
        <time>2024-09-01T08:07:06Z</time>
      </trkpt>
      <trkpt lat="49.26141" lon="2.37776">
        <ele>35.9</ele>
        <time>2024-09-01T08:07:07Z</time>
      </trkpt>
      <trkpt lat="49.26141" lon="2.37775">
        <ele>35.9</ele>
        <time>2024-09-01T08:07:08Z</time>
      </trkpt>
      <trkpt lat="49.26141" lon="2.37774">
        <ele>35.9</ele>
        <time>2024-09-01T08:07:09Z</time>
      </trkpt>
      <trkpt lat="49.26141" lon="2.37773">
        <ele>35.9</ele>
        <time>2024-09-01T08:07:10Z</time>
      </trkpt>
      <trkpt lat="49.26141" lon="2.37772">
        <ele>35.9</ele>
        <time>2024-09-01T08:07:11Z</time>
      </trkpt>
      <trkpt lat="49.26141" lon="2.3777">
        <ele>35.9</ele>
        <time>2024-09-01T08:07:12Z</time>
      </trkpt>
      <trkpt lat="49.26141" lon="2.37768">
        <ele>35.9</ele>
        <time>2024-09-01T08:07:13Z</time>
      </trkpt>
      <trkpt lat="49.26141" lon="2.37766">
        <ele>35.9</ele>
        <time>2024-09-01T08:07:14Z</time>
      </trkpt>
      <trkpt lat="49.26142" lon="2.37764">
        <ele>35.9</ele>
        <time>2024-09-01T08:07:15Z</time>
      </trkpt>
      <trkpt lat="49.26142" lon="2.37762">
        <ele>35.9</ele>
        <time>2024-09-01T08:07:16Z</time>
      </trkpt>
      <trkpt lat="49.26142" lon="2.37759">
        <ele>35.9</ele>
        <time>2024-09-01T08:07:17Z</time>
      </trkpt>
      <trkpt lat="49.26142" lon="2.37756">
        <ele>35.9</ele>
        <time>2024-09-01T08:07:18Z</time>
      </trkpt>
      <trkpt lat="49.26143" lon="2.37753">
        <ele>35.9</ele>
        <time>2024-09-01T08:07:19Z</time>
      </trkpt>
      <trkpt lat="49.26143" lon="2.3775">
        <ele>35.9</ele>
        <time>2024-09-01T08:07:20Z</time>
      </trkpt>
      <trkpt lat="49.26143" lon="2.37747">
        <ele>35.8</ele>
        <time>2024-09-01T08:07:21Z</time>
      </trkpt>
      <trkpt lat="49.26143" lon="2.37744">
        <ele>35.7</ele>
        <time>2024-09-01T08:07:22Z</time>
      </trkpt>
      <trkpt lat="49.26143" lon="2.37741">
        <ele>35.6</ele>
        <time>2024-09-01T08:07:23Z</time>
      </trkpt>
      <trkpt lat="49.26143" lon="2.37738">
        <ele>35.5</ele>
        <time>2024-09-01T08:07:24Z</time>
      </trkpt>
      <trkpt lat="49.26144" lon="2.37735">
        <ele>35.4</ele>
        <time>2024-09-01T08:07:25Z</time>
      </trkpt>
      <trkpt lat="49.26144" lon="2.37732">
        <ele>35.3</ele>
        <time>2024-09-01T08:07:26Z</time>
      </trkpt>
      <trkpt lat="49.26144" lon="2.3773">
        <ele>35.2</ele>
        <time>2024-09-01T08:07:27Z</time>
      </trkpt>
      <trkpt lat="49.26144" lon="2.37727">
        <ele>35.1</ele>
        <time>2024-09-01T08:07:28Z</time>
      </trkpt>
      <trkpt lat="49.26144" lon="2.37724">
        <ele>35.1</ele>
        <time>2024-09-01T08:07:29Z</time>
      </trkpt>
      <trkpt lat="49.26145" lon="2.37721">
        <ele>35</ele>
        <time>2024-09-01T08:07:30Z</time>
      </trkpt>
      <trkpt lat="49.26145" lon="2.37718">
        <ele>35.1</ele>
        <time>2024-09-01T08:07:31Z</time>
      </trkpt>
      <trkpt lat="49.26145" lon="2.37716">
        <ele>35.2</ele>
        <time>2024-09-01T08:07:32Z</time>
      </trkpt>
      <trkpt lat="49.26145" lon="2.37713">
        <ele>35.3</ele>
        <time>2024-09-01T08:07:33Z</time>
      </trkpt>
      <trkpt lat="49.26145" lon="2.3771">
        <ele>35.3</ele>
        <time>2024-09-01T08:07:34Z</time>
      </trkpt>
      <trkpt lat="49.26145" lon="2.37707">
        <ele>35.4</ele>
        <time>2024-09-01T08:07:35Z</time>
      </trkpt>
      <trkpt lat="49.26145" lon="2.37704">
        <ele>35.5</ele>
        <time>2024-09-01T08:07:36Z</time>
      </trkpt>
      <trkpt lat="49.26145" lon="2.37702">
        <ele>35.6</ele>
        <time>2024-09-01T08:07:37Z</time>
      </trkpt>
      <trkpt lat="49.26145" lon="2.37699">
        <ele>35.7</ele>
        <time>2024-09-01T08:07:38Z</time>
      </trkpt>
      <trkpt lat="49.26145" lon="2.37696">
        <ele>35.7</ele>
        <time>2024-09-01T08:07:39Z</time>
      </trkpt>
      <trkpt lat="49.26145" lon="2.37693">
        <ele>35.8</ele>
        <time>2024-09-01T08:07:40Z</time>
      </trkpt>
      <trkpt lat="49.26144" lon="2.3769">
        <ele>35.8</ele>
        <time>2024-09-01T08:07:41Z</time>
      </trkpt>
      <trkpt lat="49.26144" lon="2.37687">
        <ele>35.8</ele>
        <time>2024-09-01T08:07:42Z</time>
      </trkpt>
      <trkpt lat="49.26144" lon="2.37685">
        <ele>35.8</ele>
        <time>2024-09-01T08:07:43Z</time>
      </trkpt>
      <trkpt lat="49.26144" lon="2.37682">
        <ele>35.8</ele>
        <time>2024-09-01T08:07:44Z</time>
      </trkpt>
      <trkpt lat="49.26143" lon="2.37679">
        <ele>35.9</ele>
        <time>2024-09-01T08:07:45Z</time>
      </trkpt>
      <trkpt lat="49.26142" lon="2.37676">
        <ele>35.9</ele>
        <time>2024-09-01T08:07:46Z</time>
      </trkpt>
      <trkpt lat="49.26142" lon="2.37674">
        <ele>35.9</ele>
        <time>2024-09-01T08:07:47Z</time>
      </trkpt>
      <trkpt lat="49.26141" lon="2.37671">
        <ele>35.9</ele>
        <time>2024-09-01T08:07:48Z</time>
      </trkpt>
      <trkpt lat="49.2614" lon="2.37668">
        <ele>35.9</ele>
        <time>2024-09-01T08:07:49Z</time>
      </trkpt>
      <trkpt lat="49.2614" lon="2.37666">
        <ele>36</ele>
        <time>2024-09-01T08:07:50Z</time>
      </trkpt>
      <trkpt lat="49.26139" lon="2.37663">
        <ele>36</ele>
        <time>2024-09-01T08:07:51Z</time>
      </trkpt>
      <trkpt lat="49.26138" lon="2.3766">
        <ele>36</ele>
        <time>2024-09-01T08:07:52Z</time>
      </trkpt>
      <trkpt lat="49.26138" lon="2.37658">
        <ele>36</ele>
        <time>2024-09-01T08:07:53Z</time>
      </trkpt>
      <trkpt lat="49.26137" lon="2.37655">
        <ele>36</ele>
        <time>2024-09-01T08:07:54Z</time>
      </trkpt>
      <trkpt lat="49.26137" lon="2.37652">
        <ele>36</ele>
        <time>2024-09-01T08:07:55Z</time>
      </trkpt>
      <trkpt lat="49.26136" lon="2.37649">
        <ele>36</ele>
        <time>2024-09-01T08:07:56Z</time>
      </trkpt>
      <trkpt lat="49.26136" lon="2.37647">
        <ele>36</ele>
        <time>2024-09-01T08:07:57Z</time>
      </trkpt>
      <trkpt lat="49.26136" lon="2.37644">
        <ele>36</ele>
        <time>2024-09-01T08:07:58Z</time>
      </trkpt>
      <trkpt lat="49.26135" lon="2.37641">
        <ele>36</ele>
        <time>2024-09-01T08:07:59Z</time>
      </trkpt>
      <trkpt lat="49.26135" lon="2.37638">
        <ele>36</ele>
        <time>2024-09-01T08:08:00Z</time>
      </trkpt>
      <trkpt lat="49.26135" lon="2.37635">
        <ele>35.9</ele>
        <time>2024-09-01T08:08:01Z</time>
      </trkpt>
      <trkpt lat="49.26134" lon="2.37632">
        <ele>35.8</ele>
        <time>2024-09-01T08:08:02Z</time>
      </trkpt>
      <trkpt lat="49.26134" lon="2.3763">
        <ele>35.7</ele>
        <time>2024-09-01T08:08:03Z</time>
      </trkpt>
      <trkpt lat="49.26134" lon="2.37627">
        <ele>35.6</ele>
        <time>2024-09-01T08:08:04Z</time>
      </trkpt>
      <trkpt lat="49.26134" lon="2.37624">
        <ele>35.5</ele>
        <time>2024-09-01T08:08:05Z</time>
      </trkpt>
      <trkpt lat="49.26133" lon="2.37621">
        <ele>35.4</ele>
        <time>2024-09-01T08:08:06Z</time>
      </trkpt>
      <trkpt lat="49.26133" lon="2.37618">
        <ele>35.3</ele>
        <time>2024-09-01T08:08:07Z</time>
      </trkpt>
      <trkpt lat="49.26133" lon="2.37615">
        <ele>35.2</ele>
        <time>2024-09-01T08:08:08Z</time>
      </trkpt>
      <trkpt lat="49.26133" lon="2.37613">
        <ele>35.1</ele>
        <time>2024-09-01T08:08:09Z</time>
      </trkpt>
      <trkpt lat="49.26133" lon="2.3761">
        <ele>35</ele>
        <time>2024-09-01T08:08:10Z</time>
      </trkpt>
      <trkpt lat="49.26133" lon="2.37608">
        <ele>35</ele>
        <time>2024-09-01T08:08:11Z</time>
      </trkpt>
      <trkpt lat="49.26133" lon="2.37606">
        <ele>35</ele>
        <time>2024-09-01T08:08:12Z</time>
      </trkpt>
      <trkpt lat="49.26133" lon="2.37603">
        <ele>35</ele>
        <time>2024-09-01T08:08:13Z</time>
      </trkpt>
      <trkpt lat="49.26132" lon="2.37601">
        <ele>35</ele>
        <time>2024-09-01T08:08:14Z</time>
      </trkpt>
      <trkpt lat="49.26132" lon="2.37598">
        <ele>35</ele>
        <time>2024-09-01T08:08:15Z</time>
      </trkpt>
      <trkpt lat="49.26132" lon="2.37595">
        <ele>35</ele>
        <time>2024-09-01T08:08:16Z</time>
      </trkpt>
      <trkpt lat="49.26133" lon="2.37592">
        <ele>35</ele>
        <time>2024-09-01T08:08:17Z</time>
      </trkpt>
      <trkpt lat="49.26133" lon="2.37589">
        <ele>35</ele>
        <time>2024-09-01T08:08:18Z</time>
      </trkpt>
      <trkpt lat="49.26133" lon="2.37586">
        <ele>35</ele>
        <time>2024-09-01T08:08:19Z</time>
      </trkpt>
      <trkpt lat="49.26133" lon="2.37583">
        <ele>35</ele>
        <time>2024-09-01T08:08:20Z</time>
      </trkpt>
      <trkpt lat="49.26133" lon="2.3758">
        <ele>35</ele>
        <time>2024-09-01T08:08:21Z</time>
      </trkpt>
      <trkpt lat="49.26133" lon="2.37578">
        <ele>35</ele>
        <time>2024-09-01T08:08:22Z</time>
      </trkpt>
      <trkpt lat="49.26133" lon="2.37575">
        <ele>35.1</ele>
        <time>2024-09-01T08:08:23Z</time>
      </trkpt>
      <trkpt lat="49.26134" lon="2.37572">
        <ele>35.1</ele>
        <time>2024-09-01T08:08:24Z</time>
      </trkpt>
      <trkpt lat="49.26134" lon="2.37569">
        <ele>35.1</ele>
        <time>2024-09-01T08:08:25Z</time>
      </trkpt>
      <trkpt lat="49.26135" lon="2.37566">
        <ele>35.1</ele>
        <time>2024-09-01T08:08:26Z</time>
      </trkpt>
      <trkpt lat="49.26136" lon="2.37564">
        <ele>35.1</ele>
        <time>2024-09-01T08:08:27Z</time>
      </trkpt>
      <trkpt lat="49.26137" lon="2.37561">
        <ele>35.1</ele>
        <time>2024-09-01T08:08:28Z</time>
      </trkpt>
      <trkpt lat="49.26138" lon="2.37559">
        <ele>35</ele>
        <time>2024-09-01T08:08:29Z</time>
      </trkpt>
      <trkpt lat="49.26139" lon="2.37556">
        <ele>35</ele>
        <time>2024-09-01T08:08:30Z</time>
      </trkpt>
      <trkpt lat="49.26141" lon="2.37554">
        <ele>35.1</ele>
        <time>2024-09-01T08:08:31Z</time>
      </trkpt>
      <trkpt lat="49.26142" lon="2.37552">
        <ele>35.1</ele>
        <time>2024-09-01T08:08:32Z</time>
      </trkpt>
      <trkpt lat="49.26143" lon="2.37549">
        <ele>35.2</ele>
        <time>2024-09-01T08:08:33Z</time>
      </trkpt>
      <trkpt lat="49.26144" lon="2.37547">
        <ele>35.2</ele>
        <time>2024-09-01T08:08:34Z</time>
      </trkpt>
      <trkpt lat="49.26146" lon="2.37545">
        <ele>35.3</ele>
        <time>2024-09-01T08:08:35Z</time>
      </trkpt>
      <trkpt lat="49.26147" lon="2.37543">
        <ele>35.3</ele>
        <time>2024-09-01T08:08:36Z</time>
      </trkpt>
      <trkpt lat="49.26148" lon="2.37541">
        <ele>35.4</ele>
        <time>2024-09-01T08:08:37Z</time>
      </trkpt>
      <trkpt lat="49.26149" lon="2.37538">
        <ele>35.4</ele>
        <time>2024-09-01T08:08:38Z</time>
      </trkpt>
      <trkpt lat="49.2615" lon="2.37536">
        <ele>35.4</ele>
        <time>2024-09-01T08:08:39Z</time>
      </trkpt>
      <trkpt lat="49.2615" lon="2.37534">
        <ele>35.5</ele>
        <time>2024-09-01T08:08:40Z</time>
      </trkpt>
      <trkpt lat="49.2615" lon="2.37531">
        <ele>35.5</ele>
        <time>2024-09-01T08:08:41Z</time>
      </trkpt>
      <trkpt lat="49.26151" lon="2.37528">
        <ele>35.6</ele>
        <time>2024-09-01T08:08:42Z</time>
      </trkpt>
      <trkpt lat="49.26151" lon="2.37525">
        <ele>35.6</ele>
        <time>2024-09-01T08:08:43Z</time>
      </trkpt>
      <trkpt lat="49.26151" lon="2.37522">
        <ele>35.6</ele>
        <time>2024-09-01T08:08:44Z</time>
      </trkpt>
      <trkpt lat="49.26151" lon="2.3752">
        <ele>35.6</ele>
        <time>2024-09-01T08:08:45Z</time>
      </trkpt>
      <trkpt lat="49.2615" lon="2.37517">
        <ele>35.6</ele>
        <time>2024-09-01T08:08:46Z</time>
      </trkpt>
      <trkpt lat="49.2615" lon="2.37514">
        <ele>35.6</ele>
        <time>2024-09-01T08:08:47Z</time>
      </trkpt>
      <trkpt lat="49.26149" lon="2.37511">
        <ele>35.6</ele>
        <time>2024-09-01T08:08:48Z</time>
      </trkpt>
      <trkpt lat="49.26148" lon="2.37508">
        <ele>35.7</ele>
        <time>2024-09-01T08:08:49Z</time>
      </trkpt>
      <trkpt lat="49.26147" lon="2.37505">
        <ele>35.7</ele>
        <time>2024-09-01T08:08:50Z</time>
      </trkpt>
      <trkpt lat="49.26146" lon="2.37503">
        <ele>35.8</ele>
        <time>2024-09-01T08:08:51Z</time>
      </trkpt>
      <trkpt lat="49.26144" lon="2.375">
        <ele>35.8</ele>
        <time>2024-09-01T08:08:52Z</time>
      </trkpt>
      <trkpt lat="49.26143" lon="2.37498">
        <ele>35.9</ele>
        <time>2024-09-01T08:08:53Z</time>
      </trkpt>
      <trkpt lat="49.26141" lon="2.37496">
        <ele>35.9</ele>
        <time>2024-09-01T08:08:54Z</time>
      </trkpt>
      <trkpt lat="49.2614" lon="2.37494">
        <ele>36</ele>
        <time>2024-09-01T08:08:55Z</time>
      </trkpt>
      <trkpt lat="49.26138" lon="2.37491">
        <ele>36</ele>
        <time>2024-09-01T08:08:56Z</time>
      </trkpt>
      <trkpt lat="49.26137" lon="2.37489">
        <ele>36</ele>
        <time>2024-09-01T08:08:57Z</time>
      </trkpt>
      <trkpt lat="49.26135" lon="2.37488">
        <ele>36</ele>
        <time>2024-09-01T08:08:58Z</time>
      </trkpt>
      <trkpt lat="49.26134" lon="2.37486">
        <ele>36</ele>
        <time>2024-09-01T08:08:59Z</time>
      </trkpt>
      <trkpt lat="49.26133" lon="2.37484">
        <ele>36</ele>
        <time>2024-09-01T08:09:00Z</time>
      </trkpt>
      <trkpt lat="49.26131" lon="2.37482">
        <ele>36</ele>
        <time>2024-09-01T08:09:01Z</time>
      </trkpt>
      <trkpt lat="49.2613" lon="2.3748">
        <ele>36</ele>
        <time>2024-09-01T08:09:02Z</time>
      </trkpt>
      <trkpt lat="49.26128" lon="2.37478">
        <ele>36</ele>
        <time>2024-09-01T08:09:03Z</time>
      </trkpt>
      <trkpt lat="49.26127" lon="2.37475">
        <ele>36</ele>
        <time>2024-09-01T08:09:04Z</time>
      </trkpt>
      <trkpt lat="49.26125" lon="2.37473">
        <ele>36</ele>
        <time>2024-09-01T08:09:05Z</time>
      </trkpt>
      <trkpt lat="49.26124" lon="2.37471">
        <ele>36</ele>
        <time>2024-09-01T08:09:06Z</time>
      </trkpt>
      <trkpt lat="49.26123" lon="2.37469">
        <ele>36</ele>
        <time>2024-09-01T08:09:07Z</time>
      </trkpt>
      <trkpt lat="49.26121" lon="2.37467">
        <ele>35.9</ele>
        <time>2024-09-01T08:09:08Z</time>
      </trkpt>
      <trkpt lat="49.2612" lon="2.37465">
        <ele>35.9</ele>
        <time>2024-09-01T08:09:09Z</time>
      </trkpt>
      <trkpt lat="49.26118" lon="2.37463">
        <ele>35.9</ele>
        <time>2024-09-01T08:09:10Z</time>
      </trkpt>
      <trkpt lat="49.26117" lon="2.37461">
        <ele>35.9</ele>
        <time>2024-09-01T08:09:11Z</time>
      </trkpt>
      <trkpt lat="49.26116" lon="2.37459">
        <ele>35.9</ele>
        <time>2024-09-01T08:09:12Z</time>
      </trkpt>
      <trkpt lat="49.26114" lon="2.37457">
        <ele>35.9</ele>
        <time>2024-09-01T08:09:13Z</time>
      </trkpt>
      <trkpt lat="49.26113" lon="2.37455">
        <ele>36</ele>
        <time>2024-09-01T08:09:14Z</time>
      </trkpt>
      <trkpt lat="49.26112" lon="2.37452">
        <ele>36</ele>
        <time>2024-09-01T08:09:15Z</time>
      </trkpt>
      <trkpt lat="49.2611" lon="2.3745">
        <ele>36</ele>
        <time>2024-09-01T08:09:16Z</time>
      </trkpt>
      <trkpt lat="49.26109" lon="2.37448">
        <ele>36.1</ele>
        <time>2024-09-01T08:09:17Z</time>
      </trkpt>
      <trkpt lat="49.26108" lon="2.37446">
        <ele>36.1</ele>
        <time>2024-09-01T08:09:18Z</time>
      </trkpt>
      <trkpt lat="49.26106" lon="2.37444">
        <ele>36.2</ele>
        <time>2024-09-01T08:09:19Z</time>
      </trkpt>
      <trkpt lat="49.26105" lon="2.37442">
        <ele>36.2</ele>
        <time>2024-09-01T08:09:20Z</time>
      </trkpt>
      <trkpt lat="49.26103" lon="2.37441">
        <ele>36.3</ele>
        <time>2024-09-01T08:09:21Z</time>
      </trkpt>
      <trkpt lat="49.26102" lon="2.37439">
        <ele>36.3</ele>
        <time>2024-09-01T08:09:22Z</time>
      </trkpt>
      <trkpt lat="49.261" lon="2.37437">
        <ele>36.4</ele>
        <time>2024-09-01T08:09:23Z</time>
      </trkpt>
      <trkpt lat="49.26099" lon="2.37435">
        <ele>36.4</ele>
        <time>2024-09-01T08:09:24Z</time>
      </trkpt>
      <trkpt lat="49.26098" lon="2.37433">
        <ele>36.5</ele>
        <time>2024-09-01T08:09:25Z</time>
      </trkpt>
      <trkpt lat="49.26096" lon="2.37431">
        <ele>36.5</ele>
        <time>2024-09-01T08:09:26Z</time>
      </trkpt>
      <trkpt lat="49.26095" lon="2.37429">
        <ele>36.6</ele>
        <time>2024-09-01T08:09:27Z</time>
      </trkpt>
      <trkpt lat="49.26094" lon="2.37427">
        <ele>36.6</ele>
        <time>2024-09-01T08:09:28Z</time>
      </trkpt>
      <trkpt lat="49.26093" lon="2.37425">
        <ele>36.7</ele>
        <time>2024-09-01T08:09:29Z</time>
      </trkpt>
      <trkpt lat="49.26092" lon="2.37423">
        <ele>36.7</ele>
        <time>2024-09-01T08:09:30Z</time>
      </trkpt>
      <trkpt lat="49.26091" lon="2.37422">
        <ele>36.7</ele>
        <time>2024-09-01T08:09:31Z</time>
      </trkpt>
      <trkpt lat="49.2609" lon="2.3742">
        <ele>36.8</ele>
        <time>2024-09-01T08:09:32Z</time>
      </trkpt>
      <trkpt lat="49.26089" lon="2.37419">
        <ele>36.8</ele>
        <time>2024-09-01T08:09:33Z</time>
      </trkpt>
      <trkpt lat="49.26088" lon="2.37418">
        <ele>36.8</ele>
        <time>2024-09-01T08:09:34Z</time>
      </trkpt>
      <trkpt lat="49.26087" lon="2.37418">
        <ele>36.9</ele>
        <time>2024-09-01T08:09:35Z</time>
      </trkpt>
      <trkpt lat="49.26087" lon="2.37418">
        <ele>36.9</ele>
        <time>2024-09-01T08:09:36Z</time>
      </trkpt>
      <trkpt lat="49.26086" lon="2.3742">
        <ele>36.9</ele>
        <time>2024-09-01T08:09:37Z</time>
      </trkpt>
      <trkpt lat="49.26085" lon="2.37421">
        <ele>36.9</ele>
        <time>2024-09-01T08:09:38Z</time>
      </trkpt>
      <trkpt lat="49.26084" lon="2.37423">
        <ele>37</ele>
        <time>2024-09-01T08:09:39Z</time>
      </trkpt>
      <trkpt lat="49.26084" lon="2.37425">
        <ele>37</ele>
        <time>2024-09-01T08:09:40Z</time>
      </trkpt>
      <trkpt lat="49.26082" lon="2.37427">
        <ele>37</ele>
        <time>2024-09-01T08:09:41Z</time>
      </trkpt>
      <trkpt lat="49.26081" lon="2.37429">
        <ele>37</ele>
        <time>2024-09-01T08:09:42Z</time>
      </trkpt>
      <trkpt lat="49.26081" lon="2.37431">
        <ele>37</ele>
        <time>2024-09-01T08:09:43Z</time>
      </trkpt>
      <trkpt lat="49.2608" lon="2.37434">
        <ele>37</ele>
        <time>2024-09-01T08:09:44Z</time>
      </trkpt>
      <trkpt lat="49.26078" lon="2.37435">
        <ele>37</ele>
        <time>2024-09-01T08:09:45Z</time>
      </trkpt>
      <trkpt lat="49.26077" lon="2.37437">
        <ele>37</ele>
        <time>2024-09-01T08:09:46Z</time>
      </trkpt>
      <trkpt lat="49.26076" lon="2.37439">
        <ele>37</ele>
        <time>2024-09-01T08:09:47Z</time>
      </trkpt>
      <trkpt lat="49.26074" lon="2.37441">
        <ele>37</ele>
        <time>2024-09-01T08:09:48Z</time>
      </trkpt>
      <trkpt lat="49.26073" lon="2.37442">
        <ele>37</ele>
        <time>2024-09-01T08:09:49Z</time>
      </trkpt>
      <trkpt lat="49.26071" lon="2.37444">
        <ele>37</ele>
        <time>2024-09-01T08:09:50Z</time>
      </trkpt>
      <trkpt lat="49.26069" lon="2.37446">
        <ele>37</ele>
        <time>2024-09-01T08:09:51Z</time>
      </trkpt>
      <trkpt lat="49.26068" lon="2.37448">
        <ele>37.1</ele>
        <time>2024-09-01T08:09:52Z</time>
      </trkpt>
      <trkpt lat="49.26066" lon="2.37449">
        <ele>37.1</ele>
        <time>2024-09-01T08:09:53Z</time>
      </trkpt>
      <trkpt lat="49.26064" lon="2.3745">
        <ele>37.1</ele>
        <time>2024-09-01T08:09:54Z</time>
      </trkpt>
      <trkpt lat="49.26062" lon="2.37451">
        <ele>37.2</ele>
        <time>2024-09-01T08:09:55Z</time>
      </trkpt>
      <trkpt lat="49.2606" lon="2.37452">
        <ele>37.2</ele>
        <time>2024-09-01T08:09:56Z</time>
      </trkpt>
      <trkpt lat="49.26058" lon="2.37453">
        <ele>37.3</ele>
        <time>2024-09-01T08:09:57Z</time>
      </trkpt>
      <trkpt lat="49.26056" lon="2.37453">
        <ele>37.3</ele>
        <time>2024-09-01T08:09:58Z</time>
      </trkpt>
      <trkpt lat="49.26054" lon="2.37454">
        <ele>37.4</ele>
        <time>2024-09-01T08:09:59Z</time>
      </trkpt>
      <trkpt lat="49.26052" lon="2.37454">
        <ele>37.4</ele>
        <time>2024-09-01T08:10:00Z</time>
      </trkpt>
      <trkpt lat="49.2605" lon="2.37454">
        <ele>37.5</ele>
        <time>2024-09-01T08:10:01Z</time>
      </trkpt>
      <trkpt lat="49.26048" lon="2.37454">
        <ele>37.5</ele>
        <time>2024-09-01T08:10:02Z</time>
      </trkpt>
      <trkpt lat="49.26046" lon="2.37454">
        <ele>37.6</ele>
        <time>2024-09-01T08:10:03Z</time>
      </trkpt>
      <trkpt lat="49.26044" lon="2.37454">
        <ele>37.6</ele>
        <time>2024-09-01T08:10:04Z</time>
      </trkpt>
      <trkpt lat="49.26042" lon="2.37454">
        <ele>37.7</ele>
        <time>2024-09-01T08:10:05Z</time>
      </trkpt>
      <trkpt lat="49.2604" lon="2.37454">
        <ele>37.7</ele>
        <time>2024-09-01T08:10:06Z</time>
      </trkpt>
      <trkpt lat="49.26039" lon="2.37453">
        <ele>37.7</ele>
        <time>2024-09-01T08:10:07Z</time>
      </trkpt>
      <trkpt lat="49.26037" lon="2.37453">
        <ele>37.8</ele>
        <time>2024-09-01T08:10:08Z</time>
      </trkpt>
      <trkpt lat="49.26035" lon="2.37452">
        <ele>37.8</ele>
        <time>2024-09-01T08:10:09Z</time>
      </trkpt>
      <trkpt lat="49.26034" lon="2.37451">
        <ele>37.8</ele>
        <time>2024-09-01T08:10:10Z</time>
      </trkpt>
      <trkpt lat="49.26032" lon="2.37449">
        <ele>37.9</ele>
        <time>2024-09-01T08:10:11Z</time>
      </trkpt>
      <trkpt lat="49.26031" lon="2.37448">
        <ele>37.9</ele>
        <time>2024-09-01T08:10:12Z</time>
      </trkpt>
      <trkpt lat="49.2603" lon="2.37446">
        <ele>37.9</ele>
        <time>2024-09-01T08:10:13Z</time>
      </trkpt>
      <trkpt lat="49.26029" lon="2.37443">
        <ele>38</ele>
        <time>2024-09-01T08:10:14Z</time>
      </trkpt>
      <trkpt lat="49.26028" lon="2.3744">
        <ele>38</ele>
        <time>2024-09-01T08:10:15Z</time>
      </trkpt>
      <trkpt lat="49.26028" lon="2.37438">
        <ele>38</ele>
        <time>2024-09-01T08:10:16Z</time>
      </trkpt>
      <trkpt lat="49.26028" lon="2.37435">
        <ele>38</ele>
        <time>2024-09-01T08:10:17Z</time>
      </trkpt>
      <trkpt lat="49.26028" lon="2.37432">
        <ele>38</ele>
        <time>2024-09-01T08:10:18Z</time>
      </trkpt>
      <trkpt lat="49.26028" lon="2.37429">
        <ele>38</ele>
        <time>2024-09-01T08:10:19Z</time>
      </trkpt>
      <trkpt lat="49.26028" lon="2.37426">
        <ele>38</ele>
        <time>2024-09-01T08:10:20Z</time>
      </trkpt>
      <trkpt lat="49.26028" lon="2.37423">
        <ele>38</ele>
        <time>2024-09-01T08:10:21Z</time>
      </trkpt>
      <trkpt lat="49.26028" lon="2.3742">
        <ele>38</ele>
        <time>2024-09-01T08:10:22Z</time>
      </trkpt>
      <trkpt lat="49.26028" lon="2.37418">
        <ele>38</ele>
        <time>2024-09-01T08:10:23Z</time>
      </trkpt>
      <trkpt lat="49.26028" lon="2.37415">
        <ele>38.1</ele>
        <time>2024-09-01T08:10:24Z</time>
      </trkpt>
      <trkpt lat="49.26029" lon="2.37412">
        <ele>38.2</ele>
        <time>2024-09-01T08:10:25Z</time>
      </trkpt>
      <trkpt lat="49.26029" lon="2.37409">
        <ele>38.3</ele>
        <time>2024-09-01T08:10:26Z</time>
      </trkpt>
      <trkpt lat="49.26029" lon="2.37406">
        <ele>38.3</ele>
        <time>2024-09-01T08:10:27Z</time>
      </trkpt>
      <trkpt lat="49.2603" lon="2.37403">
        <ele>38.4</ele>
        <time>2024-09-01T08:10:28Z</time>
      </trkpt>
      <trkpt lat="49.2603" lon="2.374">
        <ele>38.5</ele>
        <time>2024-09-01T08:10:29Z</time>
      </trkpt>
      <trkpt lat="49.26031" lon="2.37397">
        <ele>38.6</ele>
        <time>2024-09-01T08:10:30Z</time>
      </trkpt>
      <trkpt lat="49.26032" lon="2.37395">
        <ele>38.7</ele>
        <time>2024-09-01T08:10:31Z</time>
      </trkpt>
      <trkpt lat="49.26033" lon="2.37392">
        <ele>38.7</ele>
        <time>2024-09-01T08:10:32Z</time>
      </trkpt>
      <trkpt lat="49.26034" lon="2.3739">
        <ele>38.7</ele>
        <time>2024-09-01T08:10:33Z</time>
      </trkpt>
      <trkpt lat="49.26035" lon="2.37388">
        <ele>38.9</ele>
        <time>2024-09-01T08:10:34Z</time>
      </trkpt>
      <trkpt lat="49.26036" lon="2.37387">
        <ele>39.2</ele>
        <time>2024-09-01T08:10:35Z</time>
      </trkpt>
      <trkpt lat="49.26037" lon="2.37385">
        <ele>39.6</ele>
        <time>2024-09-01T08:10:36Z</time>
      </trkpt>
      <trkpt lat="49.26037" lon="2.37384">
        <ele>39.8</ele>
        <time>2024-09-01T08:10:37Z</time>
      </trkpt>
      <trkpt lat="49.26037" lon="2.37383">
        <ele>40</ele>
        <time>2024-09-01T08:10:38Z</time>
      </trkpt>
      <trkpt lat="49.26036" lon="2.37381">
        <ele>40.3</ele>
        <time>2024-09-01T08:10:39Z</time>
      </trkpt>
      <trkpt lat="49.26036" lon="2.3738">
        <ele>40.6</ele>
        <time>2024-09-01T08:10:40Z</time>
      </trkpt>
      <trkpt lat="49.26035" lon="2.37379">
        <ele>41</ele>
        <time>2024-09-01T08:10:41Z</time>
      </trkpt>
      <trkpt lat="49.26035" lon="2.37377">
        <ele>41.4</ele>
        <time>2024-09-01T08:10:42Z</time>
      </trkpt>
      <trkpt lat="49.26035" lon="2.37375">
        <ele>41.9</ele>
        <time>2024-09-01T08:10:43Z</time>
      </trkpt>
      <trkpt lat="49.26035" lon="2.37373">
        <ele>42.3</ele>
        <time>2024-09-01T08:10:44Z</time>
      </trkpt>
      <trkpt lat="49.26035" lon="2.37371">
        <ele>42.8</ele>
        <time>2024-09-01T08:10:45Z</time>
      </trkpt>
      <trkpt lat="49.26035" lon="2.37369">
        <ele>43.2</ele>
        <time>2024-09-01T08:10:46Z</time>
      </trkpt>
      <trkpt lat="49.26035" lon="2.37367">
        <ele>43.6</ele>
        <time>2024-09-01T08:10:47Z</time>
      </trkpt>
      <trkpt lat="49.26036" lon="2.37365">
        <ele>44</ele>
        <time>2024-09-01T08:10:48Z</time>
      </trkpt>
      <trkpt lat="49.26036" lon="2.37363">
        <ele>44.3</ele>
        <time>2024-09-01T08:10:49Z</time>
      </trkpt>
      <trkpt lat="49.26036" lon="2.37362">
        <ele>44.7</ele>
        <time>2024-09-01T08:10:50Z</time>
      </trkpt>
      <trkpt lat="49.26036" lon="2.3736">
        <ele>45.2</ele>
        <time>2024-09-01T08:10:51Z</time>
      </trkpt>
      <trkpt lat="49.26037" lon="2.37359">
        <ele>45.8</ele>
        <time>2024-09-01T08:10:52Z</time>
      </trkpt>
      <trkpt lat="49.26037" lon="2.37358">
        <ele>46.2</ele>
        <time>2024-09-01T08:10:53Z</time>
      </trkpt>
      <trkpt lat="49.26037" lon="2.37357">
        <ele>46.6</ele>
        <time>2024-09-01T08:10:54Z</time>
      </trkpt>
      <trkpt lat="49.26037" lon="2.37357">
        <ele>46.8</ele>
        <time>2024-09-01T08:10:55Z</time>
      </trkpt>
      <trkpt lat="49.26037" lon="2.37356">
        <ele>46.9</ele>
        <time>2024-09-01T08:10:56Z</time>
      </trkpt>
      <trkpt lat="49.26036" lon="2.37356">
        <ele>46.9</ele>
        <time>2024-09-01T08:10:57Z</time>
      </trkpt>
      <trkpt lat="49.26035" lon="2.37357">
        <ele>46.9</ele>
        <time>2024-09-01T08:10:58Z</time>
      </trkpt>
      <trkpt lat="49.26034" lon="2.37357">
        <ele>47</ele>
        <time>2024-09-01T08:10:59Z</time>
      </trkpt>
      <trkpt lat="49.26033" lon="2.37357">
        <ele>47</ele>
        <time>2024-09-01T08:11:00Z</time>
      </trkpt>
      <trkpt lat="49.26032" lon="2.37357">
        <ele>47.2</ele>
        <time>2024-09-01T08:11:01Z</time>
      </trkpt>
      <trkpt lat="49.2603" lon="2.37357">
        <ele>47.4</ele>
        <time>2024-09-01T08:11:02Z</time>
      </trkpt>
      <trkpt lat="49.26029" lon="2.37356">
        <ele>47.7</ele>
        <time>2024-09-01T08:11:03Z</time>
      </trkpt>
      <trkpt lat="49.26028" lon="2.37356">
        <ele>48</ele>
        <time>2024-09-01T08:11:04Z</time>
      </trkpt>
      <trkpt lat="49.26028" lon="2.37355">
        <ele>48.6</ele>
        <time>2024-09-01T08:11:05Z</time>
      </trkpt>
      <trkpt lat="49.26027" lon="2.37353">
        <ele>49</ele>
        <time>2024-09-01T08:11:06Z</time>
      </trkpt>
      <trkpt lat="49.26027" lon="2.37352">
        <ele>49.5</ele>
        <time>2024-09-01T08:11:07Z</time>
      </trkpt>
      <trkpt lat="49.26027" lon="2.37351">
        <ele>50</ele>
        <time>2024-09-01T08:11:08Z</time>
      </trkpt>
      <trkpt lat="49.26026" lon="2.3735">
        <ele>50.3</ele>
        <time>2024-09-01T08:11:09Z</time>
      </trkpt>
      <trkpt lat="49.26026" lon="2.37349">
        <ele>50.6</ele>
        <time>2024-09-01T08:11:10Z</time>
      </trkpt>
      <trkpt lat="49.26026" lon="2.37349">
        <ele>50.7</ele>
        <time>2024-09-01T08:11:11Z</time>
      </trkpt>
      <trkpt lat="49.26025" lon="2.37348">
        <ele>50.9</ele>
        <time>2024-09-01T08:11:12Z</time>
      </trkpt>
      <trkpt lat="49.26024" lon="2.37347">
        <ele>51.1</ele>
        <time>2024-09-01T08:11:13Z</time>
      </trkpt>
      <trkpt lat="49.26024" lon="2.37346">
        <ele>51.3</ele>
        <time>2024-09-01T08:11:14Z</time>
      </trkpt>
      <trkpt lat="49.26023" lon="2.37346">
        <ele>51.5</ele>
        <time>2024-09-01T08:11:15Z</time>
      </trkpt>
      <trkpt lat="49.26022" lon="2.37345">
        <ele>51.8</ele>
        <time>2024-09-01T08:11:16Z</time>
      </trkpt>
      <trkpt lat="49.26021" lon="2.37344">
        <ele>51.9</ele>
        <time>2024-09-01T08:11:17Z</time>
      </trkpt>
      <trkpt lat="49.2602" lon="2.37343">
        <ele>52.1</ele>
        <time>2024-09-01T08:11:18Z</time>
      </trkpt>
      <trkpt lat="49.26019" lon="2.37342">
        <ele>52.4</ele>
        <time>2024-09-01T08:11:19Z</time>
      </trkpt>
      <trkpt lat="49.26017" lon="2.3734">
        <ele>52.7</ele>
        <time>2024-09-01T08:11:20Z</time>
      </trkpt>
      <trkpt lat="49.26016" lon="2.37338">
        <ele>53.1</ele>
        <time>2024-09-01T08:11:21Z</time>
      </trkpt>
      <trkpt lat="49.26014" lon="2.37337">
        <ele>53.5</ele>
        <time>2024-09-01T08:11:22Z</time>
      </trkpt>
      <trkpt lat="49.26013" lon="2.37334">
        <ele>54</ele>
        <time>2024-09-01T08:11:23Z</time>
      </trkpt>
      <trkpt lat="49.26012" lon="2.37332">
        <ele>54.4</ele>
        <time>2024-09-01T08:11:24Z</time>
      </trkpt>
      <trkpt lat="49.2601" lon="2.37331">
        <ele>54.7</ele>
        <time>2024-09-01T08:11:25Z</time>
      </trkpt>
      <trkpt lat="49.26008" lon="2.37329">
        <ele>55</ele>
        <time>2024-09-01T08:11:26Z</time>
      </trkpt>
      <trkpt lat="49.26007" lon="2.37328">
        <ele>55</ele>
        <time>2024-09-01T08:11:27Z</time>
      </trkpt>
      <trkpt lat="49.26006" lon="2.37327">
        <ele>55.2</ele>
        <time>2024-09-01T08:11:28Z</time>
      </trkpt>
      <trkpt lat="49.26005" lon="2.37327">
        <ele>55.2</ele>
        <time>2024-09-01T08:11:29Z</time>
      </trkpt>
      <trkpt lat="49.26004" lon="2.37326">
        <ele>55.2</ele>
        <time>2024-09-01T08:11:30Z</time>
      </trkpt>
      <trkpt lat="49.26002" lon="2.37326">
        <ele>55</ele>
        <time>2024-09-01T08:11:31Z</time>
      </trkpt>
      <trkpt lat="49.26001" lon="2.37326">
        <ele>54.7</ele>
        <time>2024-09-01T08:11:32Z</time>
      </trkpt>
      <trkpt lat="49.26" lon="2.37326">
        <ele>54.7</ele>
        <time>2024-09-01T08:11:33Z</time>
      </trkpt>
      <trkpt lat="49.25998" lon="2.37325">
        <ele>54.6</ele>
        <time>2024-09-01T08:11:34Z</time>
      </trkpt>
      <trkpt lat="49.25997" lon="2.37325">
        <ele>54.8</ele>
        <time>2024-09-01T08:11:35Z</time>
      </trkpt>
      <trkpt lat="49.25996" lon="2.37324">
        <ele>54.9</ele>
        <time>2024-09-01T08:11:36Z</time>
      </trkpt>
      <trkpt lat="49.25995" lon="2.37323">
        <ele>55.1</ele>
        <time>2024-09-01T08:11:37Z</time>
      </trkpt>
      <trkpt lat="49.25994" lon="2.37322">
        <ele>55.4</ele>
        <time>2024-09-01T08:11:38Z</time>
      </trkpt>
      <trkpt lat="49.25993" lon="2.3732">
        <ele>55.6</ele>
        <time>2024-09-01T08:11:39Z</time>
      </trkpt>
      <trkpt lat="49.25992" lon="2.37319">
        <ele>55.9</ele>
        <time>2024-09-01T08:11:40Z</time>
      </trkpt>
      <trkpt lat="49.25991" lon="2.37318">
        <ele>56.3</ele>
        <time>2024-09-01T08:11:41Z</time>
      </trkpt>
      <trkpt lat="49.2599" lon="2.37317">
        <ele>56.7</ele>
        <time>2024-09-01T08:11:42Z</time>
      </trkpt>
      <trkpt lat="49.25989" lon="2.37315">
        <ele>57</ele>
        <time>2024-09-01T08:11:43Z</time>
      </trkpt>
      <trkpt lat="49.25987" lon="2.37314">
        <ele>57.3</ele>
        <time>2024-09-01T08:11:44Z</time>
      </trkpt>
      <trkpt lat="49.25986" lon="2.37313">
        <ele>57.6</ele>
        <time>2024-09-01T08:11:45Z</time>
      </trkpt>
      <trkpt lat="49.25985" lon="2.37312">
        <ele>57.9</ele>
        <time>2024-09-01T08:11:46Z</time>
      </trkpt>
      <trkpt lat="49.25983" lon="2.3731">
        <ele>58.3</ele>
        <time>2024-09-01T08:11:47Z</time>
      </trkpt>
      <trkpt lat="49.25982" lon="2.37309">
        <ele>58.8</ele>
        <time>2024-09-01T08:11:48Z</time>
      </trkpt>
      <trkpt lat="49.25981" lon="2.37308">
        <ele>59.1</ele>
        <time>2024-09-01T08:11:49Z</time>
      </trkpt>
      <trkpt lat="49.2598" lon="2.37306">
        <ele>59.6</ele>
        <time>2024-09-01T08:11:50Z</time>
      </trkpt>
      <trkpt lat="49.25979" lon="2.37306">
        <ele>59.7</ele>
        <time>2024-09-01T08:11:51Z</time>
      </trkpt>
      <trkpt lat="49.25978" lon="2.37305">
        <ele>59.8</ele>
        <time>2024-09-01T08:11:52Z</time>
      </trkpt>
      <trkpt lat="49.25977" lon="2.37305">
        <ele>59.7</ele>
        <time>2024-09-01T08:11:53Z</time>
      </trkpt>
      <trkpt lat="49.25975" lon="2.37305">
        <ele>59.6</ele>
        <time>2024-09-01T08:11:54Z</time>
      </trkpt>
      <trkpt lat="49.25973" lon="2.37305">
        <ele>59.4</ele>
        <time>2024-09-01T08:11:55Z</time>
      </trkpt>
      <trkpt lat="49.25971" lon="2.37305">
        <ele>59.2</ele>
        <time>2024-09-01T08:11:56Z</time>
      </trkpt>
      <trkpt lat="49.25969" lon="2.37304">
        <ele>59.4</ele>
        <time>2024-09-01T08:11:57Z</time>
      </trkpt>
      <trkpt lat="49.25967" lon="2.37303">
        <ele>59.5</ele>
        <time>2024-09-01T08:11:58Z</time>
      </trkpt>
      <trkpt lat="49.25965" lon="2.37303">
        <ele>59.6</ele>
        <time>2024-09-01T08:11:59Z</time>
      </trkpt>
      <trkpt lat="49.25963" lon="2.37302">
        <ele>59.7</ele>
        <time>2024-09-01T08:12:00Z</time>
      </trkpt>
      <trkpt lat="49.25962" lon="2.37301">
        <ele>59.8</ele>
        <time>2024-09-01T08:12:01Z</time>
      </trkpt>
      <trkpt lat="49.2596" lon="2.37301">
        <ele>59.9</ele>
        <time>2024-09-01T08:12:02Z</time>
      </trkpt>
      <trkpt lat="49.25959" lon="2.373">
        <ele>60</ele>
        <time>2024-09-01T08:12:03Z</time>
      </trkpt>
      <trkpt lat="49.25957" lon="2.37299">
        <ele>60.1</ele>
        <time>2024-09-01T08:12:04Z</time>
      </trkpt>
      <trkpt lat="49.25956" lon="2.37298">
        <ele>60.3</ele>
        <time>2024-09-01T08:12:05Z</time>
      </trkpt>
      <trkpt lat="49.25954" lon="2.37297">
        <ele>60.4</ele>
        <time>2024-09-01T08:12:06Z</time>
      </trkpt>
      <trkpt lat="49.25953" lon="2.37297">
        <ele>60.5</ele>
        <time>2024-09-01T08:12:07Z</time>
      </trkpt>
      <trkpt lat="49.25951" lon="2.37296">
        <ele>60.5</ele>
        <time>2024-09-01T08:12:08Z</time>
      </trkpt>
      <trkpt lat="49.2595" lon="2.37296">
        <ele>60.4</ele>
        <time>2024-09-01T08:12:09Z</time>
      </trkpt>
      <trkpt lat="49.25948" lon="2.37295">
        <ele>60.4</ele>
        <time>2024-09-01T08:12:10Z</time>
      </trkpt>
      <trkpt lat="49.25947" lon="2.37295">
        <ele>60.3</ele>
        <time>2024-09-01T08:12:11Z</time>
      </trkpt>
      <trkpt lat="49.25945" lon="2.37295">
        <ele>60.3</ele>
        <time>2024-09-01T08:12:12Z</time>
      </trkpt>
      <trkpt lat="49.25944" lon="2.37294">
        <ele>60.2</ele>
        <time>2024-09-01T08:12:13Z</time>
      </trkpt>
      <trkpt lat="49.25942" lon="2.37294">
        <ele>60.1</ele>
        <time>2024-09-01T08:12:14Z</time>
      </trkpt>
      <trkpt lat="49.25941" lon="2.37293">
        <ele>60.1</ele>
        <time>2024-09-01T08:12:15Z</time>
      </trkpt>
      <trkpt lat="49.25939" lon="2.37293">
        <ele>60</ele>
        <time>2024-09-01T08:12:16Z</time>
      </trkpt>
      <trkpt lat="49.25937" lon="2.37292">
        <ele>60</ele>
        <time>2024-09-01T08:12:17Z</time>
      </trkpt>
      <trkpt lat="49.25936" lon="2.37292">
        <ele>59.9</ele>
        <time>2024-09-01T08:12:18Z</time>
      </trkpt>
      <trkpt lat="49.25934" lon="2.37291">
        <ele>59.8</ele>
        <time>2024-09-01T08:12:19Z</time>
      </trkpt>
      <trkpt lat="49.25932" lon="2.37291">
        <ele>59.7</ele>
        <time>2024-09-01T08:12:20Z</time>
      </trkpt>
      <trkpt lat="49.25931" lon="2.37291">
        <ele>59.6</ele>
        <time>2024-09-01T08:12:21Z</time>
      </trkpt>
      <trkpt lat="49.25929" lon="2.37291">
        <ele>59.4</ele>
        <time>2024-09-01T08:12:22Z</time>
      </trkpt>
      <trkpt lat="49.25927" lon="2.3729">
        <ele>59.3</ele>
        <time>2024-09-01T08:12:23Z</time>
      </trkpt>
      <trkpt lat="49.25925" lon="2.3729">
        <ele>59.2</ele>
        <time>2024-09-01T08:12:24Z</time>
      </trkpt>
      <trkpt lat="49.25924" lon="2.37289">
        <ele>59.3</ele>
        <time>2024-09-01T08:12:25Z</time>
      </trkpt>
      <trkpt lat="49.25922" lon="2.37288">
        <ele>59.3</ele>
        <time>2024-09-01T08:12:26Z</time>
      </trkpt>
      <trkpt lat="49.25921" lon="2.37288">
        <ele>59.3</ele>
        <time>2024-09-01T08:12:27Z</time>
      </trkpt>
      <trkpt lat="49.25919" lon="2.37287">
        <ele>59.4</ele>
        <time>2024-09-01T08:12:28Z</time>
      </trkpt>
      <trkpt lat="49.25918" lon="2.37286">
        <ele>59.5</ele>
        <time>2024-09-01T08:12:29Z</time>
      </trkpt>
      <trkpt lat="49.25916" lon="2.37285">
        <ele>59.4</ele>
        <time>2024-09-01T08:12:30Z</time>
      </trkpt>
      <trkpt lat="49.25915" lon="2.37284">
        <ele>59.5</ele>
        <time>2024-09-01T08:12:31Z</time>
      </trkpt>
      <trkpt lat="49.25914" lon="2.37283">
        <ele>59.5</ele>
        <time>2024-09-01T08:12:32Z</time>
      </trkpt>
      <trkpt lat="49.25913" lon="2.37281">
        <ele>59.7</ele>
        <time>2024-09-01T08:12:33Z</time>
      </trkpt>
      <trkpt lat="49.25912" lon="2.37279">
        <ele>60</ele>
        <time>2024-09-01T08:12:34Z</time>
      </trkpt>
      <trkpt lat="49.25911" lon="2.37276">
        <ele>60.1</ele>
        <time>2024-09-01T08:12:35Z</time>
      </trkpt>
      <trkpt lat="49.2591" lon="2.37274">
        <ele>60.1</ele>
        <time>2024-09-01T08:12:36Z</time>
      </trkpt>
      <trkpt lat="49.25909" lon="2.37272">
        <ele>60.1</ele>
        <time>2024-09-01T08:12:37Z</time>
      </trkpt>
      <trkpt lat="49.25908" lon="2.3727">
        <ele>60.1</ele>
        <time>2024-09-01T08:12:38Z</time>
      </trkpt>
      <trkpt lat="49.25907" lon="2.37268">
        <ele>60.1</ele>
        <time>2024-09-01T08:12:39Z</time>
      </trkpt>
      <trkpt lat="49.25907" lon="2.37265">
        <ele>60.1</ele>
        <time>2024-09-01T08:12:40Z</time>
      </trkpt>
      <trkpt lat="49.25906" lon="2.37264">
        <ele>60.1</ele>
        <time>2024-09-01T08:12:41Z</time>
      </trkpt>
      <trkpt lat="49.25905" lon="2.37262">
        <ele>60.1</ele>
        <time>2024-09-01T08:12:42Z</time>
      </trkpt>
      <trkpt lat="49.25904" lon="2.37259">
        <ele>60.1</ele>
        <time>2024-09-01T08:12:43Z</time>
      </trkpt>
      <trkpt lat="49.25903" lon="2.37257">
        <ele>60.2</ele>
        <time>2024-09-01T08:12:44Z</time>
      </trkpt>
      <trkpt lat="49.25903" lon="2.37255">
        <ele>60.3</ele>
        <time>2024-09-01T08:12:45Z</time>
      </trkpt>
      <trkpt lat="49.25902" lon="2.37252">
        <ele>60.5</ele>
        <time>2024-09-01T08:12:46Z</time>
      </trkpt>
      <trkpt lat="49.25902" lon="2.37249">
        <ele>60.7</ele>
        <time>2024-09-01T08:12:47Z</time>
      </trkpt>
      <trkpt lat="49.25901" lon="2.37247">
        <ele>61</ele>
        <time>2024-09-01T08:12:48Z</time>
      </trkpt>
      <trkpt lat="49.259" lon="2.37244">
        <ele>61.3</ele>
        <time>2024-09-01T08:12:49Z</time>
      </trkpt>
      <trkpt lat="49.25899" lon="2.37242">
        <ele>61.5</ele>
        <time>2024-09-01T08:12:50Z</time>
      </trkpt>
      <trkpt lat="49.25898" lon="2.3724">
        <ele>61.6</ele>
        <time>2024-09-01T08:12:51Z</time>
      </trkpt>
      <trkpt lat="49.25897" lon="2.37237">
        <ele>61.7</ele>
        <time>2024-09-01T08:12:52Z</time>
      </trkpt>
      <trkpt lat="49.25896" lon="2.37235">
        <ele>61.9</ele>
        <time>2024-09-01T08:12:53Z</time>
      </trkpt>
      <trkpt lat="49.25896" lon="2.37233">
        <ele>62</ele>
        <time>2024-09-01T08:12:54Z</time>
      </trkpt>
      <trkpt lat="49.25895" lon="2.3723">
        <ele>62.1</ele>
        <time>2024-09-01T08:12:55Z</time>
      </trkpt>
      <trkpt lat="49.25894" lon="2.37227">
        <ele>62.2</ele>
        <time>2024-09-01T08:12:56Z</time>
      </trkpt>
      <trkpt lat="49.25893" lon="2.37225">
        <ele>62.2</ele>
        <time>2024-09-01T08:12:57Z</time>
      </trkpt>
      <trkpt lat="49.25891" lon="2.37222">
        <ele>62.1</ele>
        <time>2024-09-01T08:12:58Z</time>
      </trkpt>
      <trkpt lat="49.2589" lon="2.3722">
        <ele>61.7</ele>
        <time>2024-09-01T08:12:59Z</time>
      </trkpt>
      <trkpt lat="49.25889" lon="2.37217">
        <ele>61.3</ele>
        <time>2024-09-01T08:13:00Z</time>
      </trkpt>
      <trkpt lat="49.25888" lon="2.37215">
        <ele>60.8</ele>
        <time>2024-09-01T08:13:01Z</time>
      </trkpt>
      <trkpt lat="49.25887" lon="2.37212">
        <ele>60.4</ele>
        <time>2024-09-01T08:13:02Z</time>
      </trkpt>
      <trkpt lat="49.25886" lon="2.3721">
        <ele>60.1</ele>
        <time>2024-09-01T08:13:03Z</time>
      </trkpt>
      <trkpt lat="49.25885" lon="2.37208">
        <ele>59.8</ele>
        <time>2024-09-01T08:13:04Z</time>
      </trkpt>
      <trkpt lat="49.25885" lon="2.37205">
        <ele>59.6</ele>
        <time>2024-09-01T08:13:05Z</time>
      </trkpt>
      <trkpt lat="49.25884" lon="2.37202">
        <ele>59.5</ele>
        <time>2024-09-01T08:13:06Z</time>
      </trkpt>
      <trkpt lat="49.25884" lon="2.37199">
        <ele>59.4</ele>
        <time>2024-09-01T08:13:07Z</time>
      </trkpt>
      <trkpt lat="49.25884" lon="2.37196">
        <ele>59.3</ele>
        <time>2024-09-01T08:13:08Z</time>
      </trkpt>
      <trkpt lat="49.25883" lon="2.37194">
        <ele>59.2</ele>
        <time>2024-09-01T08:13:09Z</time>
      </trkpt>
      <trkpt lat="49.25883" lon="2.37191">
        <ele>59.1</ele>
        <time>2024-09-01T08:13:10Z</time>
      </trkpt>
      <trkpt lat="49.25883" lon="2.37188">
        <ele>58.9</ele>
        <time>2024-09-01T08:13:11Z</time>
      </trkpt>
      <trkpt lat="49.25882" lon="2.37186">
        <ele>58.8</ele>
        <time>2024-09-01T08:13:12Z</time>
      </trkpt>
      <trkpt lat="49.25882" lon="2.37183">
        <ele>58.7</ele>
        <time>2024-09-01T08:13:13Z</time>
      </trkpt>
      <trkpt lat="49.25881" lon="2.37181">
        <ele>58.6</ele>
        <time>2024-09-01T08:13:14Z</time>
      </trkpt>
      <trkpt lat="49.25881" lon="2.37178">
        <ele>58.4</ele>
        <time>2024-09-01T08:13:15Z</time>
      </trkpt>
      <trkpt lat="49.2588" lon="2.37176">
        <ele>58.4</ele>
        <time>2024-09-01T08:13:16Z</time>
      </trkpt>
      <trkpt lat="49.25879" lon="2.37173">
        <ele>58.2</ele>
        <time>2024-09-01T08:13:17Z</time>
      </trkpt>
      <trkpt lat="49.25879" lon="2.37171">
        <ele>58.1</ele>
        <time>2024-09-01T08:13:18Z</time>
      </trkpt>
      <trkpt lat="49.25878" lon="2.37169">
        <ele>58</ele>
        <time>2024-09-01T08:13:19Z</time>
      </trkpt>
      <trkpt lat="49.25877" lon="2.37166">
        <ele>57.9</ele>
        <time>2024-09-01T08:13:20Z</time>
      </trkpt>
      <trkpt lat="49.25876" lon="2.37164">
        <ele>57.7</ele>
        <time>2024-09-01T08:13:21Z</time>
      </trkpt>
      <trkpt lat="49.25875" lon="2.37162">
        <ele>57.5</ele>
        <time>2024-09-01T08:13:22Z</time>
      </trkpt>
      <trkpt lat="49.25874" lon="2.37159">
        <ele>57.3</ele>
        <time>2024-09-01T08:13:23Z</time>
      </trkpt>
      <trkpt lat="49.25874" lon="2.37157">
        <ele>57.1</ele>
        <time>2024-09-01T08:13:24Z</time>
      </trkpt>
      <trkpt lat="49.25873" lon="2.37154">
        <ele>56.9</ele>
        <time>2024-09-01T08:13:25Z</time>
      </trkpt>
      <trkpt lat="49.25873" lon="2.37152">
        <ele>56.7</ele>
        <time>2024-09-01T08:13:26Z</time>
      </trkpt>
      <trkpt lat="49.25872" lon="2.37149">
        <ele>56.5</ele>
        <time>2024-09-01T08:13:27Z</time>
      </trkpt>
      <trkpt lat="49.25872" lon="2.37146">
        <ele>56.3</ele>
        <time>2024-09-01T08:13:28Z</time>
      </trkpt>
      <trkpt lat="49.25872" lon="2.37144">
        <ele>56.1</ele>
        <time>2024-09-01T08:13:29Z</time>
      </trkpt>
      <trkpt lat="49.25872" lon="2.37141">
        <ele>55.9</ele>
        <time>2024-09-01T08:13:30Z</time>
      </trkpt>
      <trkpt lat="49.25871" lon="2.37138">
        <ele>55.8</ele>
        <time>2024-09-01T08:13:31Z</time>
      </trkpt>
      <trkpt lat="49.25871" lon="2.37135">
        <ele>55.6</ele>
        <time>2024-09-01T08:13:32Z</time>
      </trkpt>
      <trkpt lat="49.25871" lon="2.37132">
        <ele>55.5</ele>
        <time>2024-09-01T08:13:33Z</time>
      </trkpt>
      <trkpt lat="49.25871" lon="2.37129">
        <ele>55.3</ele>
        <time>2024-09-01T08:13:34Z</time>
      </trkpt>
      <trkpt lat="49.2587" lon="2.37126">
        <ele>55</ele>
        <time>2024-09-01T08:13:35Z</time>
      </trkpt>
      <trkpt lat="49.2587" lon="2.37123">
        <ele>54.6</ele>
        <time>2024-09-01T08:13:36Z</time>
      </trkpt>
      <trkpt lat="49.25869" lon="2.37121">
        <ele>54.2</ele>
        <time>2024-09-01T08:13:37Z</time>
      </trkpt>
      <trkpt lat="49.25869" lon="2.37118">
        <ele>53.8</ele>
        <time>2024-09-01T08:13:38Z</time>
      </trkpt>
      <trkpt lat="49.25868" lon="2.37116">
        <ele>53.3</ele>
        <time>2024-09-01T08:13:39Z</time>
      </trkpt>
      <trkpt lat="49.25867" lon="2.37113">
        <ele>52.8</ele>
        <time>2024-09-01T08:13:40Z</time>
      </trkpt>
      <trkpt lat="49.25867" lon="2.37111">
        <ele>52.4</ele>
        <time>2024-09-01T08:13:41Z</time>
      </trkpt>
      <trkpt lat="49.25866" lon="2.37108">
        <ele>52.1</ele>
        <time>2024-09-01T08:13:42Z</time>
      </trkpt>
      <trkpt lat="49.25866" lon="2.37105">
        <ele>51.9</ele>
        <time>2024-09-01T08:13:43Z</time>
      </trkpt>
      <trkpt lat="49.25865" lon="2.37103">
        <ele>51.7</ele>
        <time>2024-09-01T08:13:44Z</time>
      </trkpt>
      <trkpt lat="49.25865" lon="2.371">
        <ele>51.5</ele>
        <time>2024-09-01T08:13:45Z</time>
      </trkpt>
      <trkpt lat="49.25865" lon="2.37098">
        <ele>51.4</ele>
        <time>2024-09-01T08:13:46Z</time>
      </trkpt>
      <trkpt lat="49.25864" lon="2.37095">
        <ele>51.2</ele>
        <time>2024-09-01T08:13:47Z</time>
      </trkpt>
      <trkpt lat="49.25864" lon="2.37093">
        <ele>51.1</ele>
        <time>2024-09-01T08:13:48Z</time>
      </trkpt>
      <trkpt lat="49.25863" lon="2.37091">
        <ele>50.7</ele>
        <time>2024-09-01T08:13:49Z</time>
      </trkpt>
      <trkpt lat="49.25862" lon="2.37088">
        <ele>50.5</ele>
        <time>2024-09-01T08:13:50Z</time>
      </trkpt>
      <trkpt lat="49.25862" lon="2.37086">
        <ele>50.2</ele>
        <time>2024-09-01T08:13:51Z</time>
      </trkpt>
      <trkpt lat="49.25861" lon="2.37084">
        <ele>50</ele>
        <time>2024-09-01T08:13:52Z</time>
      </trkpt>
      <trkpt lat="49.25861" lon="2.37081">
        <ele>49.8</ele>
        <time>2024-09-01T08:13:53Z</time>
      </trkpt>
      <trkpt lat="49.2586" lon="2.37079">
        <ele>49.7</ele>
        <time>2024-09-01T08:13:54Z</time>
      </trkpt>
      <trkpt lat="49.25859" lon="2.37076">
        <ele>49.5</ele>
        <time>2024-09-01T08:13:55Z</time>
      </trkpt>
      <trkpt lat="49.25859" lon="2.37074">
        <ele>49.3</ele>
        <time>2024-09-01T08:13:56Z</time>
      </trkpt>
      <trkpt lat="49.25858" lon="2.37071">
        <ele>49.1</ele>
        <time>2024-09-01T08:13:57Z</time>
      </trkpt>
      <trkpt lat="49.25857" lon="2.37069">
        <ele>48.9</ele>
        <time>2024-09-01T08:13:58Z</time>
      </trkpt>
      <trkpt lat="49.25856" lon="2.37066">
        <ele>48.7</ele>
        <time>2024-09-01T08:13:59Z</time>
      </trkpt>
      <trkpt lat="49.25854" lon="2.37064">
        <ele>48.4</ele>
        <time>2024-09-01T08:14:00Z</time>
      </trkpt>
      <trkpt lat="49.25853" lon="2.37062">
        <ele>48.2</ele>
        <time>2024-09-01T08:14:01Z</time>
      </trkpt>
      <trkpt lat="49.25851" lon="2.3706">
        <ele>47.9</ele>
        <time>2024-09-01T08:14:02Z</time>
      </trkpt>
      <trkpt lat="49.25849" lon="2.37058">
        <ele>47.7</ele>
        <time>2024-09-01T08:14:03Z</time>
      </trkpt>
      <trkpt lat="49.25847" lon="2.37057">
        <ele>47.5</ele>
        <time>2024-09-01T08:14:04Z</time>
      </trkpt>
      <trkpt lat="49.25845" lon="2.37056">
        <ele>47.3</ele>
        <time>2024-09-01T08:14:05Z</time>
      </trkpt>
      <trkpt lat="49.25843" lon="2.37055">
        <ele>47.1</ele>
        <time>2024-09-01T08:14:06Z</time>
      </trkpt>
      <trkpt lat="49.25842" lon="2.37054">
        <ele>46.9</ele>
        <time>2024-09-01T08:14:07Z</time>
      </trkpt>
      <trkpt lat="49.2584" lon="2.37054">
        <ele>46.7</ele>
        <time>2024-09-01T08:14:08Z</time>
      </trkpt>
      <trkpt lat="49.25839" lon="2.37054">
        <ele>46.5</ele>
        <time>2024-09-01T08:14:09Z</time>
      </trkpt>
      <trkpt lat="49.25837" lon="2.37054">
        <ele>46.3</ele>
        <time>2024-09-01T08:14:10Z</time>
      </trkpt>
      <trkpt lat="49.25836" lon="2.37054">
        <ele>46.2</ele>
        <time>2024-09-01T08:14:11Z</time>
      </trkpt>
      <trkpt lat="49.25834" lon="2.37053">
        <ele>46</ele>
        <time>2024-09-01T08:14:12Z</time>
      </trkpt>
      <trkpt lat="49.25832" lon="2.37053">
        <ele>45.9</ele>
        <time>2024-09-01T08:14:13Z</time>
      </trkpt>
      <trkpt lat="49.25831" lon="2.37053">
        <ele>45.8</ele>
        <time>2024-09-01T08:14:14Z</time>
      </trkpt>
      <trkpt lat="49.25829" lon="2.37053">
        <ele>45.8</ele>
        <time>2024-09-01T08:14:15Z</time>
      </trkpt>
      <trkpt lat="49.25828" lon="2.37052">
        <ele>45.8</ele>
        <time>2024-09-01T08:14:16Z</time>
      </trkpt>
      <trkpt lat="49.25827" lon="2.37052">
        <ele>45.7</ele>
        <time>2024-09-01T08:14:17Z</time>
      </trkpt>
      <trkpt lat="49.25825" lon="2.37052">
        <ele>45.7</ele>
        <time>2024-09-01T08:14:18Z</time>
      </trkpt>
      <trkpt lat="49.25824" lon="2.37052">
        <ele>45.7</ele>
        <time>2024-09-01T08:14:19Z</time>
      </trkpt>
      <trkpt lat="49.25823" lon="2.37052">
        <ele>45.6</ele>
        <time>2024-09-01T08:14:20Z</time>
      </trkpt>
      <trkpt lat="49.25822" lon="2.37052">
        <ele>45.6</ele>
        <time>2024-09-01T08:14:21Z</time>
      </trkpt>
      <trkpt lat="49.25821" lon="2.37051">
        <ele>45.6</ele>
        <time>2024-09-01T08:14:22Z</time>
      </trkpt>
      <trkpt lat="49.2582" lon="2.37052">
        <ele>45.6</ele>
        <time>2024-09-01T08:14:23Z</time>
      </trkpt>
      <trkpt lat="49.25818" lon="2.37052">
        <ele>45.5</ele>
        <time>2024-09-01T08:14:24Z</time>
      </trkpt>
      <trkpt lat="49.25817" lon="2.37053">
        <ele>45.5</ele>
        <time>2024-09-01T08:14:25Z</time>
      </trkpt>
      <trkpt lat="49.25815" lon="2.37053">
        <ele>45.4</ele>
        <time>2024-09-01T08:14:26Z</time>
      </trkpt>
      <trkpt lat="49.25814" lon="2.37053">
        <ele>45.4</ele>
        <time>2024-09-01T08:14:27Z</time>
      </trkpt>
      <trkpt lat="49.25813" lon="2.37053">
        <ele>45.4</ele>
        <time>2024-09-01T08:14:28Z</time>
      </trkpt>
      <trkpt lat="49.25812" lon="2.37053">
        <ele>45.4</ele>
        <time>2024-09-01T08:14:29Z</time>
      </trkpt>
      <trkpt lat="49.25811" lon="2.37052">
        <ele>45.4</ele>
        <time>2024-09-01T08:14:30Z</time>
      </trkpt>
      <trkpt lat="49.2581" lon="2.37052">
        <ele>45.4</ele>
        <time>2024-09-01T08:14:31Z</time>
      </trkpt>
      <trkpt lat="49.2581" lon="2.37052">
        <ele>45.4</ele>
        <time>2024-09-01T08:14:32Z</time>
      </trkpt>
      <trkpt lat="49.2581" lon="2.37053">
        <ele>45.3</ele>
        <time>2024-09-01T08:14:33Z</time>
      </trkpt>
      <trkpt lat="49.25809" lon="2.37053">
        <ele>45.3</ele>
        <time>2024-09-01T08:14:34Z</time>
      </trkpt>
      <trkpt lat="49.2581" lon="2.37055">
        <ele>45.2</ele>
        <time>2024-09-01T08:14:35Z</time>
      </trkpt>
      <trkpt lat="49.2581" lon="2.37057">
        <ele>45.2</ele>
        <time>2024-09-01T08:14:36Z</time>
      </trkpt>
      <trkpt lat="49.25811" lon="2.3706">
        <ele>45.2</ele>
        <time>2024-09-01T08:14:37Z</time>
      </trkpt>
      <trkpt lat="49.25811" lon="2.37062">
        <ele>45.2</ele>
        <time>2024-09-01T08:14:38Z</time>
      </trkpt>
      <trkpt lat="49.25811" lon="2.37065">
        <ele>45.1</ele>
        <time>2024-09-01T08:14:39Z</time>
      </trkpt>
      <trkpt lat="49.25811" lon="2.37067">
        <ele>45.1</ele>
        <time>2024-09-01T08:14:40Z</time>
      </trkpt>
      <trkpt lat="49.25811" lon="2.3707">
        <ele>45.1</ele>
        <time>2024-09-01T08:14:41Z</time>
      </trkpt>
      <trkpt lat="49.2581" lon="2.37073">
        <ele>45.1</ele>
        <time>2024-09-01T08:14:42Z</time>
      </trkpt>
      <trkpt lat="49.2581" lon="2.37076">
        <ele>45</ele>
        <time>2024-09-01T08:14:43Z</time>
      </trkpt>
      <trkpt lat="49.2581" lon="2.37079">
        <ele>45</ele>
        <time>2024-09-01T08:14:44Z</time>
      </trkpt>
      <trkpt lat="49.25809" lon="2.37081">
        <ele>45</ele>
        <time>2024-09-01T08:14:45Z</time>
      </trkpt>
      <trkpt lat="49.25809" lon="2.37083">
        <ele>45</ele>
        <time>2024-09-01T08:14:46Z</time>
      </trkpt>
      <trkpt lat="49.25809" lon="2.37085">
        <ele>45</ele>
        <time>2024-09-01T08:14:47Z</time>
      </trkpt>
      <trkpt lat="49.25808" lon="2.37087">
        <ele>45</ele>
        <time>2024-09-01T08:14:48Z</time>
      </trkpt>
      <trkpt lat="49.25808" lon="2.37089">
        <ele>45</ele>
        <time>2024-09-01T08:14:49Z</time>
      </trkpt>
      <trkpt lat="49.25807" lon="2.37091">
        <ele>45</ele>
        <time>2024-09-01T08:14:50Z</time>
      </trkpt>
      <trkpt lat="49.25807" lon="2.37093">
        <ele>45</ele>
        <time>2024-09-01T08:14:51Z</time>
      </trkpt>
      <trkpt lat="49.25806" lon="2.37095">
        <ele>45</ele>
        <time>2024-09-01T08:14:52Z</time>
      </trkpt>
      <trkpt lat="49.25806" lon="2.37097">
        <ele>45</ele>
        <time>2024-09-01T08:14:53Z</time>
      </trkpt>
      <trkpt lat="49.25805" lon="2.37099">
        <ele>45</ele>
        <time>2024-09-01T08:14:54Z</time>
      </trkpt>
      <trkpt lat="49.25805" lon="2.37101">
        <ele>45.1</ele>
        <time>2024-09-01T08:14:55Z</time>
      </trkpt>
      <trkpt lat="49.25805" lon="2.37103">
        <ele>45.2</ele>
        <time>2024-09-01T08:14:56Z</time>
      </trkpt>
      <trkpt lat="49.25804" lon="2.37106">
        <ele>45.2</ele>
        <time>2024-09-01T08:14:57Z</time>
      </trkpt>
      <trkpt lat="49.25804" lon="2.37108">
        <ele>45.3</ele>
        <time>2024-09-01T08:14:58Z</time>
      </trkpt>
      <trkpt lat="49.25803" lon="2.3711">
        <ele>45.3</ele>
        <time>2024-09-01T08:14:59Z</time>
      </trkpt>
      <trkpt lat="49.25803" lon="2.37112">
        <ele>45.3</ele>
        <time>2024-09-01T08:15:00Z</time>
      </trkpt>
      <trkpt lat="49.25803" lon="2.37114">
        <ele>45.3</ele>
        <time>2024-09-01T08:15:01Z</time>
      </trkpt>
      <trkpt lat="49.25803" lon="2.37116">
        <ele>45.2</ele>
        <time>2024-09-01T08:15:02Z</time>
      </trkpt>
      <trkpt lat="49.25803" lon="2.37118">
        <ele>45.2</ele>
        <time>2024-09-01T08:15:03Z</time>
      </trkpt>
      <trkpt lat="49.25803" lon="2.37121">
        <ele>45.1</ele>
        <time>2024-09-01T08:15:04Z</time>
      </trkpt>
      <trkpt lat="49.25802" lon="2.37123">
        <ele>45</ele>
        <time>2024-09-01T08:15:05Z</time>
      </trkpt>
      <trkpt lat="49.25802" lon="2.37125">
        <ele>45</ele>
        <time>2024-09-01T08:15:06Z</time>
      </trkpt>
      <trkpt lat="49.25802" lon="2.37127">
        <ele>44.9</ele>
        <time>2024-09-01T08:15:07Z</time>
      </trkpt>
      <trkpt lat="49.25802" lon="2.37129">
        <ele>44.9</ele>
        <time>2024-09-01T08:15:08Z</time>
      </trkpt>
      <trkpt lat="49.25802" lon="2.37131">
        <ele>44.8</ele>
        <time>2024-09-01T08:15:09Z</time>
      </trkpt>
      <trkpt lat="49.25802" lon="2.37133">
        <ele>44.7</ele>
        <time>2024-09-01T08:15:10Z</time>
      </trkpt>
      <trkpt lat="49.25802" lon="2.37135">
        <ele>44.6</ele>
        <time>2024-09-01T08:15:11Z</time>
      </trkpt>
      <trkpt lat="49.25802" lon="2.37138">
        <ele>44.6</ele>
        <time>2024-09-01T08:15:12Z</time>
      </trkpt>
      <trkpt lat="49.25802" lon="2.3714">
        <ele>44.5</ele>
        <time>2024-09-01T08:15:13Z</time>
      </trkpt>
      <trkpt lat="49.25802" lon="2.37142">
        <ele>44.5</ele>
        <time>2024-09-01T08:15:14Z</time>
      </trkpt>
      <trkpt lat="49.25802" lon="2.37144">
        <ele>44.5</ele>
        <time>2024-09-01T08:15:15Z</time>
      </trkpt>
      <trkpt lat="49.25803" lon="2.37147">
        <ele>44.4</ele>
        <time>2024-09-01T08:15:16Z</time>
      </trkpt>
      <trkpt lat="49.25803" lon="2.37149">
        <ele>44.4</ele>
        <time>2024-09-01T08:15:17Z</time>
      </trkpt>
      <trkpt lat="49.25803" lon="2.37151">
        <ele>44.4</ele>
        <time>2024-09-01T08:15:18Z</time>
      </trkpt>
      <trkpt lat="49.25803" lon="2.37154">
        <ele>44.3</ele>
        <time>2024-09-01T08:15:19Z</time>
      </trkpt>
      <trkpt lat="49.25803" lon="2.37156">
        <ele>44.4</ele>
        <time>2024-09-01T08:15:20Z</time>
      </trkpt>
      <trkpt lat="49.25803" lon="2.37159">
        <ele>44.4</ele>
        <time>2024-09-01T08:15:21Z</time>
      </trkpt>
      <trkpt lat="49.25803" lon="2.37161">
        <ele>44.4</ele>
        <time>2024-09-01T08:15:22Z</time>
      </trkpt>
      <trkpt lat="49.25803" lon="2.37163">
        <ele>44.4</ele>
        <time>2024-09-01T08:15:23Z</time>
      </trkpt>
      <trkpt lat="49.25803" lon="2.37165">
        <ele>44.3</ele>
        <time>2024-09-01T08:15:24Z</time>
      </trkpt>
      <trkpt lat="49.25803" lon="2.37167">
        <ele>44.3</ele>
        <time>2024-09-01T08:15:25Z</time>
      </trkpt>
      <trkpt lat="49.25803" lon="2.3717">
        <ele>44.3</ele>
        <time>2024-09-01T08:15:26Z</time>
      </trkpt>
      <trkpt lat="49.25804" lon="2.37172">
        <ele>44.3</ele>
        <time>2024-09-01T08:15:27Z</time>
      </trkpt>
      <trkpt lat="49.25803" lon="2.37174">
        <ele>44.3</ele>
        <time>2024-09-01T08:15:28Z</time>
      </trkpt>
      <trkpt lat="49.25803" lon="2.37176">
        <ele>44.4</ele>
        <time>2024-09-01T08:15:29Z</time>
      </trkpt>
      <trkpt lat="49.25803" lon="2.37179">
        <ele>44.4</ele>
        <time>2024-09-01T08:15:30Z</time>
      </trkpt>
      <trkpt lat="49.25803" lon="2.37182">
        <ele>44.4</ele>
        <time>2024-09-01T08:15:31Z</time>
      </trkpt>
      <trkpt lat="49.25803" lon="2.37184">
        <ele>44.4</ele>
        <time>2024-09-01T08:15:32Z</time>
      </trkpt>
      <trkpt lat="49.25803" lon="2.37187">
        <ele>44.4</ele>
        <time>2024-09-01T08:15:33Z</time>
      </trkpt>
      <trkpt lat="49.25803" lon="2.3719">
        <ele>44.4</ele>
        <time>2024-09-01T08:15:34Z</time>
      </trkpt>
      <trkpt lat="49.25803" lon="2.37192">
        <ele>44.4</ele>
        <time>2024-09-01T08:15:35Z</time>
      </trkpt>
      <trkpt lat="49.25803" lon="2.37195">
        <ele>44.4</ele>
        <time>2024-09-01T08:15:36Z</time>
      </trkpt>
      <trkpt lat="49.25803" lon="2.37197">
        <ele>44.4</ele>
        <time>2024-09-01T08:15:37Z</time>
      </trkpt>
      <trkpt lat="49.25803" lon="2.37199">
        <ele>44.4</ele>
        <time>2024-09-01T08:15:38Z</time>
      </trkpt>
      <trkpt lat="49.25802" lon="2.37201">
        <ele>44.4</ele>
        <time>2024-09-01T08:15:39Z</time>
      </trkpt>
      <trkpt lat="49.25802" lon="2.37204">
        <ele>44.5</ele>
        <time>2024-09-01T08:15:40Z</time>
      </trkpt>
      <trkpt lat="49.25802" lon="2.37206">
        <ele>44.5</ele>
        <time>2024-09-01T08:15:41Z</time>
      </trkpt>
      <trkpt lat="49.25801" lon="2.37209">
        <ele>44.6</ele>
        <time>2024-09-01T08:15:42Z</time>
      </trkpt>
      <trkpt lat="49.25801" lon="2.37212">
        <ele>44.6</ele>
        <time>2024-09-01T08:15:43Z</time>
      </trkpt>
      <trkpt lat="49.25801" lon="2.37214">
        <ele>44.6</ele>
        <time>2024-09-01T08:15:44Z</time>
      </trkpt>
      <trkpt lat="49.258" lon="2.37217">
        <ele>44.6</ele>
        <time>2024-09-01T08:15:45Z</time>
      </trkpt>
      <trkpt lat="49.258" lon="2.3722">
        <ele>44.6</ele>
        <time>2024-09-01T08:15:46Z</time>
      </trkpt>
      <trkpt lat="49.258" lon="2.37222">
        <ele>44.6</ele>
        <time>2024-09-01T08:15:47Z</time>
      </trkpt>
      <trkpt lat="49.258" lon="2.37225">
        <ele>44.5</ele>
        <time>2024-09-01T08:15:48Z</time>
      </trkpt>
      <trkpt lat="49.258" lon="2.37227">
        <ele>44.4</ele>
        <time>2024-09-01T08:15:49Z</time>
      </trkpt>
      <trkpt lat="49.258" lon="2.3723">
        <ele>44.3</ele>
        <time>2024-09-01T08:15:50Z</time>
      </trkpt>
      <trkpt lat="49.258" lon="2.37232">
        <ele>44.3</ele>
        <time>2024-09-01T08:15:51Z</time>
      </trkpt>
      <trkpt lat="49.25801" lon="2.37235">
        <ele>44.2</ele>
        <time>2024-09-01T08:15:52Z</time>
      </trkpt>
      <trkpt lat="49.258" lon="2.37237">
        <ele>44.1</ele>
        <time>2024-09-01T08:15:53Z</time>
      </trkpt>
      <trkpt lat="49.258" lon="2.3724">
        <ele>44</ele>
        <time>2024-09-01T08:15:54Z</time>
      </trkpt>
      <trkpt lat="49.258" lon="2.37243">
        <ele>44</ele>
        <time>2024-09-01T08:15:55Z</time>
      </trkpt>
      <trkpt lat="49.258" lon="2.37245">
        <ele>43.9</ele>
        <time>2024-09-01T08:15:56Z</time>
      </trkpt>
      <trkpt lat="49.258" lon="2.37248">
        <ele>43.8</ele>
        <time>2024-09-01T08:15:57Z</time>
      </trkpt>
      <trkpt lat="49.258" lon="2.3725">
        <ele>43.7</ele>
        <time>2024-09-01T08:15:58Z</time>
      </trkpt>
      <trkpt lat="49.25801" lon="2.37253">
        <ele>43.6</ele>
        <time>2024-09-01T08:15:59Z</time>
      </trkpt>
      <trkpt lat="49.25801" lon="2.37255">
        <ele>43.5</ele>
        <time>2024-09-01T08:16:00Z</time>
      </trkpt>
      <trkpt lat="49.25801" lon="2.37258">
        <ele>43.4</ele>
        <time>2024-09-01T08:16:01Z</time>
      </trkpt>
      <trkpt lat="49.25801" lon="2.3726">
        <ele>43.3</ele>
        <time>2024-09-01T08:16:02Z</time>
      </trkpt>
      <trkpt lat="49.25801" lon="2.37263">
        <ele>43.3</ele>
        <time>2024-09-01T08:16:03Z</time>
      </trkpt>
      <trkpt lat="49.25801" lon="2.37265">
        <ele>43.2</ele>
        <time>2024-09-01T08:16:04Z</time>
      </trkpt>
      <trkpt lat="49.258" lon="2.37268">
        <ele>43.2</ele>
        <time>2024-09-01T08:16:05Z</time>
      </trkpt>
      <trkpt lat="49.258" lon="2.3727">
        <ele>43.2</ele>
        <time>2024-09-01T08:16:06Z</time>
      </trkpt>
      <trkpt lat="49.25799" lon="2.37273">
        <ele>43.3</ele>
        <time>2024-09-01T08:16:07Z</time>
      </trkpt>
      <trkpt lat="49.25798" lon="2.37275">
        <ele>43.4</ele>
        <time>2024-09-01T08:16:08Z</time>
      </trkpt>
      <trkpt lat="49.25798" lon="2.37278">
        <ele>43.4</ele>
        <time>2024-09-01T08:16:09Z</time>
      </trkpt>
      <trkpt lat="49.25797" lon="2.37281">
        <ele>43.6</ele>
        <time>2024-09-01T08:16:10Z</time>
      </trkpt>
      <trkpt lat="49.25797" lon="2.37283">
        <ele>43.7</ele>
        <time>2024-09-01T08:16:11Z</time>
      </trkpt>
      <trkpt lat="49.25797" lon="2.37286">
        <ele>43.7</ele>
        <time>2024-09-01T08:16:12Z</time>
      </trkpt>
      <trkpt lat="49.25797" lon="2.37288">
        <ele>43.7</ele>
        <time>2024-09-01T08:16:13Z</time>
      </trkpt>
      <trkpt lat="49.25797" lon="2.37291">
        <ele>43.7</ele>
        <time>2024-09-01T08:16:14Z</time>
      </trkpt>
      <trkpt lat="49.25798" lon="2.37293">
        <ele>43.6</ele>
        <time>2024-09-01T08:16:15Z</time>
      </trkpt>
      <trkpt lat="49.25798" lon="2.37296">
        <ele>43.5</ele>
        <time>2024-09-01T08:16:16Z</time>
      </trkpt>
      <trkpt lat="49.25798" lon="2.37298">
        <ele>43.5</ele>
        <time>2024-09-01T08:16:17Z</time>
      </trkpt>
      <trkpt lat="49.25799" lon="2.37301">
        <ele>43.4</ele>
        <time>2024-09-01T08:16:18Z</time>
      </trkpt>
      <trkpt lat="49.25799" lon="2.37304">
        <ele>43.4</ele>
        <time>2024-09-01T08:16:19Z</time>
      </trkpt>
      <trkpt lat="49.25799" lon="2.37307">
        <ele>43.4</ele>
        <time>2024-09-01T08:16:20Z</time>
      </trkpt>
      <trkpt lat="49.25799" lon="2.37309">
        <ele>43.4</ele>
        <time>2024-09-01T08:16:21Z</time>
      </trkpt>
      <trkpt lat="49.258" lon="2.37311">
        <ele>43.5</ele>
        <time>2024-09-01T08:16:22Z</time>
      </trkpt>
      <trkpt lat="49.258" lon="2.37313">
        <ele>43.5</ele>
        <time>2024-09-01T08:16:23Z</time>
      </trkpt>
      <trkpt lat="49.258" lon="2.37316">
        <ele>43.5</ele>
        <time>2024-09-01T08:16:24Z</time>
      </trkpt>
      <trkpt lat="49.258" lon="2.37318">
        <ele>43.6</ele>
        <time>2024-09-01T08:16:25Z</time>
      </trkpt>
      <trkpt lat="49.258" lon="2.3732">
        <ele>43.6</ele>
        <time>2024-09-01T08:16:26Z</time>
      </trkpt>
      <trkpt lat="49.258" lon="2.37322">
        <ele>43.7</ele>
        <time>2024-09-01T08:16:27Z</time>
      </trkpt>
      <trkpt lat="49.258" lon="2.37325">
        <ele>43.8</ele>
        <time>2024-09-01T08:16:28Z</time>
      </trkpt>
      <trkpt lat="49.258" lon="2.37327">
        <ele>43.8</ele>
        <time>2024-09-01T08:16:29Z</time>
      </trkpt>
      <trkpt lat="49.258" lon="2.3733">
        <ele>43.9</ele>
        <time>2024-09-01T08:16:30Z</time>
      </trkpt>
      <trkpt lat="49.25799" lon="2.37332">
        <ele>44.1</ele>
        <time>2024-09-01T08:16:31Z</time>
      </trkpt>
      <trkpt lat="49.25799" lon="2.37334">
        <ele>44.2</ele>
        <time>2024-09-01T08:16:32Z</time>
      </trkpt>
      <trkpt lat="49.25798" lon="2.37336">
        <ele>44.3</ele>
        <time>2024-09-01T08:16:33Z</time>
      </trkpt>
      <trkpt lat="49.25797" lon="2.37338">
        <ele>44.4</ele>
        <time>2024-09-01T08:16:34Z</time>
      </trkpt>
      <trkpt lat="49.25796" lon="2.3734">
        <ele>44.5</ele>
        <time>2024-09-01T08:16:35Z</time>
      </trkpt>
      <trkpt lat="49.25795" lon="2.37342">
        <ele>44.7</ele>
        <time>2024-09-01T08:16:36Z</time>
      </trkpt>
      <trkpt lat="49.25794" lon="2.37344">
        <ele>44.8</ele>
        <time>2024-09-01T08:16:37Z</time>
      </trkpt>
      <trkpt lat="49.25793" lon="2.37346">
        <ele>44.9</ele>
        <time>2024-09-01T08:16:38Z</time>
      </trkpt>
      <trkpt lat="49.25792" lon="2.37348">
        <ele>44.9</ele>
        <time>2024-09-01T08:16:39Z</time>
      </trkpt>
      <trkpt lat="49.25791" lon="2.3735">
        <ele>45</ele>
        <time>2024-09-01T08:16:40Z</time>
      </trkpt>
      <trkpt lat="49.25791" lon="2.37352">
        <ele>45</ele>
        <time>2024-09-01T08:16:41Z</time>
      </trkpt>
      <trkpt lat="49.2579" lon="2.37354">
        <ele>45</ele>
        <time>2024-09-01T08:16:42Z</time>
      </trkpt>
      <trkpt lat="49.25789" lon="2.37356">
        <ele>45</ele>
        <time>2024-09-01T08:16:43Z</time>
      </trkpt>
      <trkpt lat="49.25788" lon="2.37358">
        <ele>45</ele>
        <time>2024-09-01T08:16:44Z</time>
      </trkpt>
      <trkpt lat="49.25787" lon="2.3736">
        <ele>45.1</ele>
        <time>2024-09-01T08:16:45Z</time>
      </trkpt>
      <trkpt lat="49.25786" lon="2.37362">
        <ele>45.1</ele>
        <time>2024-09-01T08:16:46Z</time>
      </trkpt>
      <trkpt lat="49.25785" lon="2.37363">
        <ele>45.2</ele>
        <time>2024-09-01T08:16:47Z</time>
      </trkpt>
      <trkpt lat="49.25783" lon="2.37365">
        <ele>45.3</ele>
        <time>2024-09-01T08:16:48Z</time>
      </trkpt>
      <trkpt lat="49.25782" lon="2.37367">
        <ele>45.3</ele>
        <time>2024-09-01T08:16:49Z</time>
      </trkpt>
      <trkpt lat="49.25781" lon="2.37368">
        <ele>45.4</ele>
        <time>2024-09-01T08:16:50Z</time>
      </trkpt>
      <trkpt lat="49.2578" lon="2.37369">
        <ele>45.5</ele>
        <time>2024-09-01T08:16:51Z</time>
      </trkpt>
      <trkpt lat="49.2578" lon="2.37371">
        <ele>45.5</ele>
        <time>2024-09-01T08:16:52Z</time>
      </trkpt>
      <trkpt lat="49.25778" lon="2.37372">
        <ele>45.6</ele>
        <time>2024-09-01T08:16:53Z</time>
      </trkpt>
      <trkpt lat="49.25777" lon="2.37373">
        <ele>45.7</ele>
        <time>2024-09-01T08:16:54Z</time>
      </trkpt>
      <trkpt lat="49.25776" lon="2.37373">
        <ele>45.8</ele>
        <time>2024-09-01T08:16:55Z</time>
      </trkpt>
      <trkpt lat="49.25775" lon="2.37374">
        <ele>46</ele>
        <time>2024-09-01T08:16:56Z</time>
      </trkpt>
      <trkpt lat="49.25774" lon="2.37375">
        <ele>46.1</ele>
        <time>2024-09-01T08:16:57Z</time>
      </trkpt>
      <trkpt lat="49.25773" lon="2.37376">
        <ele>46.2</ele>
        <time>2024-09-01T08:16:58Z</time>
      </trkpt>
      <trkpt lat="49.25772" lon="2.37377">
        <ele>46.2</ele>
        <time>2024-09-01T08:16:59Z</time>
      </trkpt>
      <trkpt lat="49.25771" lon="2.37379">
        <ele>46.3</ele>
        <time>2024-09-01T08:17:00Z</time>
      </trkpt>
      <trkpt lat="49.2577" lon="2.3738">
        <ele>46.3</ele>
        <time>2024-09-01T08:17:01Z</time>
      </trkpt>
      <trkpt lat="49.25769" lon="2.37382">
        <ele>46.2</ele>
        <time>2024-09-01T08:17:02Z</time>
      </trkpt>
      <trkpt lat="49.25768" lon="2.37383">
        <ele>46.2</ele>
        <time>2024-09-01T08:17:03Z</time>
      </trkpt>
      <trkpt lat="49.25767" lon="2.37385">
        <ele>46.2</ele>
        <time>2024-09-01T08:17:04Z</time>
      </trkpt>
      <trkpt lat="49.25765" lon="2.37386">
        <ele>46.2</ele>
        <time>2024-09-01T08:17:05Z</time>
      </trkpt>
      <trkpt lat="49.25764" lon="2.37388">
        <ele>46.1</ele>
        <time>2024-09-01T08:17:06Z</time>
      </trkpt>
      <trkpt lat="49.25763" lon="2.37389">
        <ele>46</ele>
        <time>2024-09-01T08:17:07Z</time>
      </trkpt>
      <trkpt lat="49.25763" lon="2.3739">
        <ele>46.1</ele>
        <time>2024-09-01T08:17:08Z</time>
      </trkpt>
      <trkpt lat="49.25761" lon="2.37392">
        <ele>46.1</ele>
        <time>2024-09-01T08:17:09Z</time>
      </trkpt>
      <trkpt lat="49.2576" lon="2.37393">
        <ele>46.1</ele>
        <time>2024-09-01T08:17:10Z</time>
      </trkpt>
      <trkpt lat="49.25758" lon="2.37395">
        <ele>46.2</ele>
        <time>2024-09-01T08:17:11Z</time>
      </trkpt>
      <trkpt lat="49.25756" lon="2.37396">
        <ele>46.3</ele>
        <time>2024-09-01T08:17:12Z</time>
      </trkpt>
      <trkpt lat="49.25754" lon="2.37397">
        <ele>46.4</ele>
        <time>2024-09-01T08:17:13Z</time>
      </trkpt>
      <trkpt lat="49.25752" lon="2.37399">
        <ele>46.5</ele>
        <time>2024-09-01T08:17:14Z</time>
      </trkpt>
      <trkpt lat="49.2575" lon="2.374">
        <ele>46.6</ele>
        <time>2024-09-01T08:17:15Z</time>
      </trkpt>
      <trkpt lat="49.25748" lon="2.37401">
        <ele>46.8</ele>
        <time>2024-09-01T08:17:16Z</time>
      </trkpt>
      <trkpt lat="49.25747" lon="2.37402">
        <ele>46.9</ele>
        <time>2024-09-01T08:17:17Z</time>
      </trkpt>
      <trkpt lat="49.25746" lon="2.37403">
        <ele>47</ele>
        <time>2024-09-01T08:17:18Z</time>
      </trkpt>
      <trkpt lat="49.25744" lon="2.37404">
        <ele>47.1</ele>
        <time>2024-09-01T08:17:19Z</time>
      </trkpt>
      <trkpt lat="49.25743" lon="2.37404">
        <ele>47.1</ele>
        <time>2024-09-01T08:17:20Z</time>
      </trkpt>
      <trkpt lat="49.25742" lon="2.37405">
        <ele>47.2</ele>
        <time>2024-09-01T08:17:21Z</time>
      </trkpt>
      <trkpt lat="49.25741" lon="2.37406">
        <ele>47.2</ele>
        <time>2024-09-01T08:17:22Z</time>
      </trkpt>
      <trkpt lat="49.25739" lon="2.37407">
        <ele>47.1</ele>
        <time>2024-09-01T08:17:23Z</time>
      </trkpt>
      <trkpt lat="49.25738" lon="2.37408">
        <ele>47.1</ele>
        <time>2024-09-01T08:17:24Z</time>
      </trkpt>
      <trkpt lat="49.25737" lon="2.3741">
        <ele>46.9</ele>
        <time>2024-09-01T08:17:25Z</time>
      </trkpt>
      <trkpt lat="49.25735" lon="2.37412">
        <ele>46.7</ele>
        <time>2024-09-01T08:17:26Z</time>
      </trkpt>
      <trkpt lat="49.25734" lon="2.37414">
        <ele>46.5</ele>
        <time>2024-09-01T08:17:27Z</time>
      </trkpt>
      <trkpt lat="49.25732" lon="2.37415">
        <ele>46.2</ele>
        <time>2024-09-01T08:17:28Z</time>
      </trkpt>
      <trkpt lat="49.25731" lon="2.37417">
        <ele>46</ele>
        <time>2024-09-01T08:17:29Z</time>
      </trkpt>
      <trkpt lat="49.2573" lon="2.37419">
        <ele>46.1</ele>
        <time>2024-09-01T08:17:30Z</time>
      </trkpt>
      <trkpt lat="49.25728" lon="2.37421">
        <ele>46.1</ele>
        <time>2024-09-01T08:17:31Z</time>
      </trkpt>
      <trkpt lat="49.25727" lon="2.37422">
        <ele>46.2</ele>
        <time>2024-09-01T08:17:32Z</time>
      </trkpt>
      <trkpt lat="49.25726" lon="2.37424">
        <ele>46.2</ele>
        <time>2024-09-01T08:17:33Z</time>
      </trkpt>
      <trkpt lat="49.25724" lon="2.37425">
        <ele>46.3</ele>
        <time>2024-09-01T08:17:34Z</time>
      </trkpt>
      <trkpt lat="49.25723" lon="2.37427">
        <ele>46.3</ele>
        <time>2024-09-01T08:17:35Z</time>
      </trkpt>
      <trkpt lat="49.25722" lon="2.37428">
        <ele>46.5</ele>
        <time>2024-09-01T08:17:36Z</time>
      </trkpt>
      <trkpt lat="49.2572" lon="2.37429">
        <ele>46.6</ele>
        <time>2024-09-01T08:17:37Z</time>
      </trkpt>
      <trkpt lat="49.25719" lon="2.3743">
        <ele>46.8</ele>
        <time>2024-09-01T08:17:38Z</time>
      </trkpt>
      <trkpt lat="49.25718" lon="2.37431">
        <ele>46.9</ele>
        <time>2024-09-01T08:17:39Z</time>
      </trkpt>
      <trkpt lat="49.25717" lon="2.37432">
        <ele>47</ele>
        <time>2024-09-01T08:17:40Z</time>
      </trkpt>
      <trkpt lat="49.25715" lon="2.37433">
        <ele>47.2</ele>
        <time>2024-09-01T08:17:41Z</time>
      </trkpt>
      <trkpt lat="49.25714" lon="2.37435">
        <ele>47.3</ele>
        <time>2024-09-01T08:17:42Z</time>
      </trkpt>
      <trkpt lat="49.25712" lon="2.37436">
        <ele>47.4</ele>
        <time>2024-09-01T08:17:43Z</time>
      </trkpt>
      <trkpt lat="49.25711" lon="2.37438">
        <ele>47.5</ele>
        <time>2024-09-01T08:17:44Z</time>
      </trkpt>
      <trkpt lat="49.25709" lon="2.37439">
        <ele>47.5</ele>
        <time>2024-09-01T08:17:45Z</time>
      </trkpt>
      <trkpt lat="49.25708" lon="2.37441">
        <ele>47.6</ele>
        <time>2024-09-01T08:17:46Z</time>
      </trkpt>
      <trkpt lat="49.25707" lon="2.37443">
        <ele>47.6</ele>
        <time>2024-09-01T08:17:47Z</time>
      </trkpt>
      <trkpt lat="49.25705" lon="2.37444">
        <ele>47.6</ele>
        <time>2024-09-01T08:17:48Z</time>
      </trkpt>
      <trkpt lat="49.25704" lon="2.37445">
        <ele>47.7</ele>
        <time>2024-09-01T08:17:49Z</time>
      </trkpt>
      <trkpt lat="49.25703" lon="2.37446">
        <ele>47.7</ele>
        <time>2024-09-01T08:17:50Z</time>
      </trkpt>
      <trkpt lat="49.25702" lon="2.37447">
        <ele>47.8</ele>
        <time>2024-09-01T08:17:51Z</time>
      </trkpt>
      <trkpt lat="49.25701" lon="2.37448">
        <ele>47.9</ele>
        <time>2024-09-01T08:17:52Z</time>
      </trkpt>
      <trkpt lat="49.25699" lon="2.37449">
        <ele>48</ele>
        <time>2024-09-01T08:17:53Z</time>
      </trkpt>
      <trkpt lat="49.25698" lon="2.37451">
        <ele>48.1</ele>
        <time>2024-09-01T08:17:54Z</time>
      </trkpt>
      <trkpt lat="49.25697" lon="2.37451">
        <ele>48.2</ele>
        <time>2024-09-01T08:17:55Z</time>
      </trkpt>
      <trkpt lat="49.25695" lon="2.37452">
        <ele>48.3</ele>
        <time>2024-09-01T08:17:56Z</time>
      </trkpt>
      <trkpt lat="49.25694" lon="2.37453">
        <ele>48.4</ele>
        <time>2024-09-01T08:17:57Z</time>
      </trkpt>
      <trkpt lat="49.25693" lon="2.37453">
        <ele>48.6</ele>
        <time>2024-09-01T08:17:58Z</time>
      </trkpt>
      <trkpt lat="49.25691" lon="2.37454">
        <ele>48.8</ele>
        <time>2024-09-01T08:17:59Z</time>
      </trkpt>
      <trkpt lat="49.2569" lon="2.37454">
        <ele>48.9</ele>
        <time>2024-09-01T08:18:00Z</time>
      </trkpt>
      <trkpt lat="49.25689" lon="2.37454">
        <ele>49.1</ele>
        <time>2024-09-01T08:18:01Z</time>
      </trkpt>
      <trkpt lat="49.25688" lon="2.37454">
        <ele>49.2</ele>
        <time>2024-09-01T08:18:02Z</time>
      </trkpt>
      <trkpt lat="49.25687" lon="2.37454">
        <ele>49.3</ele>
        <time>2024-09-01T08:18:03Z</time>
      </trkpt>
      <trkpt lat="49.25686" lon="2.37454">
        <ele>49.4</ele>
        <time>2024-09-01T08:18:04Z</time>
      </trkpt>
      <trkpt lat="49.25685" lon="2.37454">
        <ele>49.6</ele>
        <time>2024-09-01T08:18:05Z</time>
      </trkpt>
      <trkpt lat="49.25684" lon="2.37454">
        <ele>49.7</ele>
        <time>2024-09-01T08:18:06Z</time>
      </trkpt>
      <trkpt lat="49.25683" lon="2.37454">
        <ele>49.9</ele>
        <time>2024-09-01T08:18:07Z</time>
      </trkpt>
      <trkpt lat="49.25682" lon="2.37454">
        <ele>50</ele>
        <time>2024-09-01T08:18:08Z</time>
      </trkpt>
      <trkpt lat="49.2568" lon="2.37455">
        <ele>50.2</ele>
        <time>2024-09-01T08:18:09Z</time>
      </trkpt>
      <trkpt lat="49.25679" lon="2.37456">
        <ele>50.3</ele>
        <time>2024-09-01T08:18:10Z</time>
      </trkpt>
      <trkpt lat="49.25677" lon="2.37457">
        <ele>50.4</ele>
        <time>2024-09-01T08:18:11Z</time>
      </trkpt>
      <trkpt lat="49.25675" lon="2.37459">
        <ele>50.5</ele>
        <time>2024-09-01T08:18:12Z</time>
      </trkpt>
      <trkpt lat="49.25674" lon="2.3746">
        <ele>50.6</ele>
        <time>2024-09-01T08:18:13Z</time>
      </trkpt>
      <trkpt lat="49.25673" lon="2.37461">
        <ele>50.6</ele>
        <time>2024-09-01T08:18:14Z</time>
      </trkpt>
      <trkpt lat="49.25672" lon="2.37462">
        <ele>50.6</ele>
        <time>2024-09-01T08:18:15Z</time>
      </trkpt>
      <trkpt lat="49.25671" lon="2.37463">
        <ele>50.7</ele>
        <time>2024-09-01T08:18:16Z</time>
      </trkpt>
      <trkpt lat="49.2567" lon="2.37464">
        <ele>50.7</ele>
        <time>2024-09-01T08:18:17Z</time>
      </trkpt>
      <trkpt lat="49.25668" lon="2.37465">
        <ele>50.7</ele>
        <time>2024-09-01T08:18:18Z</time>
      </trkpt>
      <trkpt lat="49.25667" lon="2.37465">
        <ele>50.7</ele>
        <time>2024-09-01T08:18:19Z</time>
      </trkpt>
      <trkpt lat="49.25666" lon="2.37466">
        <ele>50.8</ele>
        <time>2024-09-01T08:18:20Z</time>
      </trkpt>
      <trkpt lat="49.25664" lon="2.37466">
        <ele>50.9</ele>
        <time>2024-09-01T08:18:21Z</time>
      </trkpt>
      <trkpt lat="49.25663" lon="2.37467">
        <ele>51.1</ele>
        <time>2024-09-01T08:18:22Z</time>
      </trkpt>
      <trkpt lat="49.25661" lon="2.37468">
        <ele>51.2</ele>
        <time>2024-09-01T08:18:23Z</time>
      </trkpt>
      <trkpt lat="49.25659" lon="2.37469">
        <ele>51.3</ele>
        <time>2024-09-01T08:18:24Z</time>
      </trkpt>
      <trkpt lat="49.25658" lon="2.37471">
        <ele>51.4</ele>
        <time>2024-09-01T08:18:25Z</time>
      </trkpt>
      <trkpt lat="49.25656" lon="2.37472">
        <ele>51.5</ele>
        <time>2024-09-01T08:18:26Z</time>
      </trkpt>
      <trkpt lat="49.25655" lon="2.37473">
        <ele>51.7</ele>
        <time>2024-09-01T08:18:27Z</time>
      </trkpt>
      <trkpt lat="49.25654" lon="2.37475">
        <ele>52</ele>
        <time>2024-09-01T08:18:28Z</time>
      </trkpt>
      <trkpt lat="49.25653" lon="2.37476">
        <ele>52.3</ele>
        <time>2024-09-01T08:18:29Z</time>
      </trkpt>
      <trkpt lat="49.25652" lon="2.37477">
        <ele>52.5</ele>
        <time>2024-09-01T08:18:30Z</time>
      </trkpt>
      <trkpt lat="49.2565" lon="2.37478">
        <ele>52.8</ele>
        <time>2024-09-01T08:18:31Z</time>
      </trkpt>
      <trkpt lat="49.25649" lon="2.37479">
        <ele>53</ele>
        <time>2024-09-01T08:18:32Z</time>
      </trkpt>
      <trkpt lat="49.25647" lon="2.3748">
        <ele>53.2</ele>
        <time>2024-09-01T08:18:33Z</time>
      </trkpt>
      <trkpt lat="49.25646" lon="2.3748">
        <ele>53.4</ele>
        <time>2024-09-01T08:18:34Z</time>
      </trkpt>
      <trkpt lat="49.25645" lon="2.3748">
        <ele>53.6</ele>
        <time>2024-09-01T08:18:35Z</time>
      </trkpt>
      <trkpt lat="49.25643" lon="2.3748">
        <ele>53.8</ele>
        <time>2024-09-01T08:18:36Z</time>
      </trkpt>
      <trkpt lat="49.25642" lon="2.37481">
        <ele>54</ele>
        <time>2024-09-01T08:18:37Z</time>
      </trkpt>
      <trkpt lat="49.2564" lon="2.37482">
        <ele>54.2</ele>
        <time>2024-09-01T08:18:38Z</time>
      </trkpt>
      <trkpt lat="49.25639" lon="2.37483">
        <ele>54.4</ele>
        <time>2024-09-01T08:18:39Z</time>
      </trkpt>
      <trkpt lat="49.25637" lon="2.37484">
        <ele>54.5</ele>
        <time>2024-09-01T08:18:40Z</time>
      </trkpt>
      <trkpt lat="49.25635" lon="2.37485">
        <ele>54.5</ele>
        <time>2024-09-01T08:18:41Z</time>
      </trkpt>
      <trkpt lat="49.25632" lon="2.37487">
        <ele>54.7</ele>
        <time>2024-09-01T08:18:42Z</time>
      </trkpt>
      <trkpt lat="49.2563" lon="2.37488">
        <ele>54.8</ele>
        <time>2024-09-01T08:18:43Z</time>
      </trkpt>
      <trkpt lat="49.25628" lon="2.3749">
        <ele>54.9</ele>
        <time>2024-09-01T08:18:44Z</time>
      </trkpt>
      <trkpt lat="49.25626" lon="2.37491">
        <ele>55</ele>
        <time>2024-09-01T08:18:45Z</time>
      </trkpt>
      <trkpt lat="49.25624" lon="2.37492">
        <ele>55.1</ele>
        <time>2024-09-01T08:18:46Z</time>
      </trkpt>
      <trkpt lat="49.25623" lon="2.37493">
        <ele>55.2</ele>
        <time>2024-09-01T08:18:47Z</time>
      </trkpt>
      <trkpt lat="49.25621" lon="2.37493">
        <ele>55.2</ele>
        <time>2024-09-01T08:18:48Z</time>
      </trkpt>
      <trkpt lat="49.25619" lon="2.37494">
        <ele>55.3</ele>
        <time>2024-09-01T08:18:49Z</time>
      </trkpt>
      <trkpt lat="49.25618" lon="2.37494">
        <ele>55.4</ele>
        <time>2024-09-01T08:18:50Z</time>
      </trkpt>
      <trkpt lat="49.25616" lon="2.37495">
        <ele>55.5</ele>
        <time>2024-09-01T08:18:51Z</time>
      </trkpt>
      <trkpt lat="49.25615" lon="2.37495">
        <ele>55.5</ele>
        <time>2024-09-01T08:18:52Z</time>
      </trkpt>
      <trkpt lat="49.25613" lon="2.37495">
        <ele>55.6</ele>
        <time>2024-09-01T08:18:53Z</time>
      </trkpt>
      <trkpt lat="49.25612" lon="2.37495">
        <ele>55.7</ele>
        <time>2024-09-01T08:18:54Z</time>
      </trkpt>
      <trkpt lat="49.2561" lon="2.37496">
        <ele>55.7</ele>
        <time>2024-09-01T08:18:55Z</time>
      </trkpt>
      <trkpt lat="49.25608" lon="2.37495">
        <ele>55.8</ele>
        <time>2024-09-01T08:18:56Z</time>
      </trkpt>
      <trkpt lat="49.25607" lon="2.37495">
        <ele>55.8</ele>
        <time>2024-09-01T08:18:57Z</time>
      </trkpt>
      <trkpt lat="49.25605" lon="2.37495">
        <ele>55.9</ele>
        <time>2024-09-01T08:18:58Z</time>
      </trkpt>
      <trkpt lat="49.25603" lon="2.37495">
        <ele>55.9</ele>
        <time>2024-09-01T08:18:59Z</time>
      </trkpt>
      <trkpt lat="49.25601" lon="2.37496">
        <ele>56</ele>
        <time>2024-09-01T08:19:00Z</time>
      </trkpt>
      <trkpt lat="49.25599" lon="2.37496">
        <ele>56.1</ele>
        <time>2024-09-01T08:19:01Z</time>
      </trkpt>
      <trkpt lat="49.25597" lon="2.37496">
        <ele>56.2</ele>
        <time>2024-09-01T08:19:02Z</time>
      </trkpt>
      <trkpt lat="49.25595" lon="2.37497">
        <ele>56.3</ele>
        <time>2024-09-01T08:19:03Z</time>
      </trkpt>
      <trkpt lat="49.25594" lon="2.37498">
        <ele>56.5</ele>
        <time>2024-09-01T08:19:04Z</time>
      </trkpt>
      <trkpt lat="49.25592" lon="2.37498">
        <ele>56.6</ele>
        <time>2024-09-01T08:19:05Z</time>
      </trkpt>
      <trkpt lat="49.2559" lon="2.37499">
        <ele>56.7</ele>
        <time>2024-09-01T08:19:06Z</time>
      </trkpt>
      <trkpt lat="49.25588" lon="2.375">
        <ele>56.8</ele>
        <time>2024-09-01T08:19:07Z</time>
      </trkpt>
      <trkpt lat="49.25587" lon="2.37501">
        <ele>57</ele>
        <time>2024-09-01T08:19:08Z</time>
      </trkpt>
      <trkpt lat="49.25586" lon="2.37502">
        <ele>57.2</ele>
        <time>2024-09-01T08:19:09Z</time>
      </trkpt>
      <trkpt lat="49.25585" lon="2.37502">
        <ele>57.3</ele>
        <time>2024-09-01T08:19:10Z</time>
      </trkpt>
      <trkpt lat="49.25585" lon="2.37503">
        <ele>57.3</ele>
        <time>2024-09-01T08:19:11Z</time>
      </trkpt>
      <trkpt lat="49.25586" lon="2.37503">
        <ele>57.4</ele>
        <time>2024-09-01T08:19:12Z</time>
      </trkpt>
      <trkpt lat="49.25586" lon="2.37503">
        <ele>57.4</ele>
        <time>2024-09-01T08:19:13Z</time>
      </trkpt>
      <trkpt lat="49.25587" lon="2.37503">
        <ele>57.4</ele>
        <time>2024-09-01T08:19:14Z</time>
      </trkpt>
      <trkpt lat="49.25589" lon="2.37503">
        <ele>57.4</ele>
        <time>2024-09-01T08:19:15Z</time>
      </trkpt>
      <trkpt lat="49.2559" lon="2.37504">
        <ele>57.4</ele>
        <time>2024-09-01T08:19:16Z</time>
      </trkpt>
      <trkpt lat="49.25592" lon="2.37504">
        <ele>57.4</ele>
        <time>2024-09-01T08:19:17Z</time>
      </trkpt>
      <trkpt lat="49.25593" lon="2.37503">
        <ele>57.3</ele>
        <time>2024-09-01T08:19:18Z</time>
      </trkpt>
      <trkpt lat="49.25595" lon="2.37503">
        <ele>57.3</ele>
        <time>2024-09-01T08:19:19Z</time>
      </trkpt>
      <trkpt lat="49.25597" lon="2.37503">
        <ele>57.2</ele>
        <time>2024-09-01T08:19:20Z</time>
      </trkpt>
      <trkpt lat="49.25598" lon="2.37503">
        <ele>57.1</ele>
        <time>2024-09-01T08:19:21Z</time>
      </trkpt>
      <trkpt lat="49.256" lon="2.37502">
        <ele>56.9</ele>
        <time>2024-09-01T08:19:22Z</time>
      </trkpt>
      <trkpt lat="49.25601" lon="2.37502">
        <ele>56.7</ele>
        <time>2024-09-01T08:19:23Z</time>
      </trkpt>
      <trkpt lat="49.25602" lon="2.37501">
        <ele>56.5</ele>
        <time>2024-09-01T08:19:24Z</time>
      </trkpt>
      <trkpt lat="49.25603" lon="2.375">
        <ele>56.3</ele>
        <time>2024-09-01T08:19:25Z</time>
      </trkpt>
      <trkpt lat="49.25604" lon="2.37499">
        <ele>56.2</ele>
        <time>2024-09-01T08:19:26Z</time>
      </trkpt>
      <trkpt lat="49.25605" lon="2.37498">
        <ele>56.1</ele>
        <time>2024-09-01T08:19:27Z</time>
      </trkpt>
      <trkpt lat="49.25606" lon="2.37497">
        <ele>56</ele>
        <time>2024-09-01T08:19:28Z</time>
      </trkpt>
      <trkpt lat="49.25607" lon="2.37496">
        <ele>55.9</ele>
        <time>2024-09-01T08:19:29Z</time>
      </trkpt>
      <trkpt lat="49.25608" lon="2.37496">
        <ele>55.8</ele>
        <time>2024-09-01T08:19:30Z</time>
      </trkpt>
      <trkpt lat="49.25609" lon="2.37496">
        <ele>55.8</ele>
        <time>2024-09-01T08:19:31Z</time>
      </trkpt>
      <trkpt lat="49.2561" lon="2.37496">
        <ele>55.8</ele>
        <time>2024-09-01T08:19:32Z</time>
      </trkpt>
      <trkpt lat="49.25612" lon="2.37497">
        <ele>55.7</ele>
        <time>2024-09-01T08:19:33Z</time>
      </trkpt>
      <trkpt lat="49.25613" lon="2.37497">
        <ele>55.7</ele>
        <time>2024-09-01T08:19:34Z</time>
      </trkpt>
      <trkpt lat="49.25614" lon="2.37497">
        <ele>55.7</ele>
        <time>2024-09-01T08:19:35Z</time>
      </trkpt>
      <trkpt lat="49.25615" lon="2.37497">
        <ele>55.7</ele>
        <time>2024-09-01T08:19:36Z</time>
      </trkpt>
      <trkpt lat="49.25617" lon="2.37497">
        <ele>55.6</ele>
        <time>2024-09-01T08:19:37Z</time>
      </trkpt>
      <trkpt lat="49.25618" lon="2.37497">
        <ele>55.6</ele>
        <time>2024-09-01T08:19:38Z</time>
      </trkpt>
      <trkpt lat="49.25619" lon="2.37498">
        <ele>55.5</ele>
        <time>2024-09-01T08:19:39Z</time>
      </trkpt>
      <trkpt lat="49.25621" lon="2.37498">
        <ele>55.5</ele>
        <time>2024-09-01T08:19:40Z</time>
      </trkpt>
      <trkpt lat="49.25622" lon="2.37498">
        <ele>55.5</ele>
        <time>2024-09-01T08:19:41Z</time>
      </trkpt>
      <trkpt lat="49.25624" lon="2.37498">
        <ele>55.4</ele>
        <time>2024-09-01T08:19:42Z</time>
      </trkpt>
      <trkpt lat="49.25625" lon="2.37499">
        <ele>55.4</ele>
        <time>2024-09-01T08:19:43Z</time>
      </trkpt>
      <trkpt lat="49.25627" lon="2.37499">
        <ele>55.4</ele>
        <time>2024-09-01T08:19:44Z</time>
      </trkpt>
      <trkpt lat="49.25628" lon="2.375">
        <ele>55.4</ele>
        <time>2024-09-01T08:19:45Z</time>
      </trkpt>
      <trkpt lat="49.2563" lon="2.375">
        <ele>55.4</ele>
        <time>2024-09-01T08:19:46Z</time>
      </trkpt>
      <trkpt lat="49.25631" lon="2.37501">
        <ele>55.4</ele>
        <time>2024-09-01T08:19:47Z</time>
      </trkpt>
      <trkpt lat="49.25633" lon="2.37501">
        <ele>55.5</ele>
        <time>2024-09-01T08:19:48Z</time>
      </trkpt>
      <trkpt lat="49.25634" lon="2.37501">
        <ele>55.4</ele>
        <time>2024-09-01T08:19:49Z</time>
      </trkpt>
      <trkpt lat="49.25636" lon="2.37501">
        <ele>55.3</ele>
        <time>2024-09-01T08:19:50Z</time>
      </trkpt>
      <trkpt lat="49.25637" lon="2.375">
        <ele>55.1</ele>
        <time>2024-09-01T08:19:51Z</time>
      </trkpt>
      <trkpt lat="49.25638" lon="2.375">
        <ele>55</ele>
        <time>2024-09-01T08:19:52Z</time>
      </trkpt>
      <trkpt lat="49.25639" lon="2.37499">
        <ele>55</ele>
        <time>2024-09-01T08:19:53Z</time>
      </trkpt>
      <trkpt lat="49.2564" lon="2.37499">
        <ele>54.9</ele>
        <time>2024-09-01T08:19:54Z</time>
      </trkpt>
      <trkpt lat="49.25641" lon="2.37499">
        <ele>54.8</ele>
        <time>2024-09-01T08:19:55Z</time>
      </trkpt>
      <trkpt lat="49.25643" lon="2.37498">
        <ele>54.7</ele>
        <time>2024-09-01T08:19:56Z</time>
      </trkpt>
      <trkpt lat="49.25644" lon="2.37498">
        <ele>54.5</ele>
        <time>2024-09-01T08:19:57Z</time>
      </trkpt>
      <trkpt lat="49.25645" lon="2.37497">
        <ele>54.4</ele>
        <time>2024-09-01T08:19:58Z</time>
      </trkpt>
      <trkpt lat="49.25647" lon="2.37497">
        <ele>54.3</ele>
        <time>2024-09-01T08:19:59Z</time>
      </trkpt>
      <trkpt lat="49.25648" lon="2.37497">
        <ele>54.2</ele>
        <time>2024-09-01T08:20:00Z</time>
      </trkpt>
      <trkpt lat="49.2565" lon="2.37496">
        <ele>54</ele>
        <time>2024-09-01T08:20:01Z</time>
      </trkpt>
      <trkpt lat="49.25651" lon="2.37496">
        <ele>53.8</ele>
        <time>2024-09-01T08:20:02Z</time>
      </trkpt>
      <trkpt lat="49.25653" lon="2.37495">
        <ele>53.6</ele>
        <time>2024-09-01T08:20:03Z</time>
      </trkpt>
      <trkpt lat="49.25656" lon="2.37494">
        <ele>53.4</ele>
        <time>2024-09-01T08:20:04Z</time>
      </trkpt>
      <trkpt lat="49.25658" lon="2.37494">
        <ele>53.1</ele>
        <time>2024-09-01T08:20:05Z</time>
      </trkpt>
      <trkpt lat="49.2566" lon="2.37493">
        <ele>52.8</ele>
        <time>2024-09-01T08:20:06Z</time>
      </trkpt>
      <trkpt lat="49.25662" lon="2.37492">
        <ele>52.6</ele>
        <time>2024-09-01T08:20:07Z</time>
      </trkpt>
      <trkpt lat="49.25664" lon="2.37491">
        <ele>52.3</ele>
        <time>2024-09-01T08:20:08Z</time>
      </trkpt>
      <trkpt lat="49.25665" lon="2.3749">
        <ele>52.1</ele>
        <time>2024-09-01T08:20:09Z</time>
      </trkpt>
      <trkpt lat="49.25667" lon="2.3749">
        <ele>51.9</ele>
        <time>2024-09-01T08:20:10Z</time>
      </trkpt>
      <trkpt lat="49.25668" lon="2.37489">
        <ele>51.7</ele>
        <time>2024-09-01T08:20:11Z</time>
      </trkpt>
      <trkpt lat="49.25669" lon="2.37488">
        <ele>51.6</ele>
        <time>2024-09-01T08:20:12Z</time>
      </trkpt>
      <trkpt lat="49.25671" lon="2.37487">
        <ele>51.4</ele>
        <time>2024-09-01T08:20:13Z</time>
      </trkpt>
      <trkpt lat="49.25672" lon="2.37486">
        <ele>51.2</ele>
        <time>2024-09-01T08:20:14Z</time>
      </trkpt>
      <trkpt lat="49.25673" lon="2.37485">
        <ele>51</ele>
        <time>2024-09-01T08:20:15Z</time>
      </trkpt>
      <trkpt lat="49.25675" lon="2.37485">
        <ele>50.9</ele>
        <time>2024-09-01T08:20:16Z</time>
      </trkpt>
      <trkpt lat="49.25677" lon="2.37484">
        <ele>50.7</ele>
        <time>2024-09-01T08:20:17Z</time>
      </trkpt>
      <trkpt lat="49.25679" lon="2.37484">
        <ele>50.7</ele>
        <time>2024-09-01T08:20:18Z</time>
      </trkpt>
      <trkpt lat="49.25681" lon="2.37485">
        <ele>50.6</ele>
        <time>2024-09-01T08:20:19Z</time>
      </trkpt>
      <trkpt lat="49.25683" lon="2.37485">
        <ele>50.5</ele>
        <time>2024-09-01T08:20:20Z</time>
      </trkpt>
      <trkpt lat="49.25685" lon="2.37485">
        <ele>50.4</ele>
        <time>2024-09-01T08:20:21Z</time>
      </trkpt>
      <trkpt lat="49.25687" lon="2.37486">
        <ele>50.4</ele>
        <time>2024-09-01T08:20:22Z</time>
      </trkpt>
      <trkpt lat="49.25689" lon="2.37486">
        <ele>50.3</ele>
        <time>2024-09-01T08:20:23Z</time>
      </trkpt>
      <trkpt lat="49.2569" lon="2.37486">
        <ele>50.2</ele>
        <time>2024-09-01T08:20:24Z</time>
      </trkpt>
      <trkpt lat="49.25692" lon="2.37486">
        <ele>50.1</ele>
        <time>2024-09-01T08:20:25Z</time>
      </trkpt>
      <trkpt lat="49.25693" lon="2.37486">
        <ele>50</ele>
        <time>2024-09-01T08:20:26Z</time>
      </trkpt>
      <trkpt lat="49.25695" lon="2.37485">
        <ele>49.9</ele>
        <time>2024-09-01T08:20:27Z</time>
      </trkpt>
      <trkpt lat="49.25697" lon="2.37485">
        <ele>49.8</ele>
        <time>2024-09-01T08:20:28Z</time>
      </trkpt>
      <trkpt lat="49.25699" lon="2.37484">
        <ele>49.7</ele>
        <time>2024-09-01T08:20:29Z</time>
      </trkpt>
      <trkpt lat="49.257" lon="2.37484">
        <ele>49.6</ele>
        <time>2024-09-01T08:20:30Z</time>
      </trkpt>
      <trkpt lat="49.25702" lon="2.37483">
        <ele>49.4</ele>
        <time>2024-09-01T08:20:31Z</time>
      </trkpt>
      <trkpt lat="49.25704" lon="2.37482">
        <ele>49.3</ele>
        <time>2024-09-01T08:20:32Z</time>
      </trkpt>
      <trkpt lat="49.25706" lon="2.37482">
        <ele>49.1</ele>
        <time>2024-09-01T08:20:33Z</time>
      </trkpt>
      <trkpt lat="49.25708" lon="2.37481">
        <ele>48.9</ele>
        <time>2024-09-01T08:20:34Z</time>
      </trkpt>
      <trkpt lat="49.2571" lon="2.3748">
        <ele>48.7</ele>
        <time>2024-09-01T08:20:35Z</time>
      </trkpt>
      <trkpt lat="49.25712" lon="2.3748">
        <ele>48.6</ele>
        <time>2024-09-01T08:20:36Z</time>
      </trkpt>
      <trkpt lat="49.25714" lon="2.3748">
        <ele>48.5</ele>
        <time>2024-09-01T08:20:37Z</time>
      </trkpt>
      <trkpt lat="49.25716" lon="2.3748">
        <ele>48.4</ele>
        <time>2024-09-01T08:20:38Z</time>
      </trkpt>
      <trkpt lat="49.25718" lon="2.3748">
        <ele>48.3</ele>
        <time>2024-09-01T08:20:39Z</time>
      </trkpt>
      <trkpt lat="49.25719" lon="2.3748">
        <ele>48.3</ele>
        <time>2024-09-01T08:20:40Z</time>
      </trkpt>
      <trkpt lat="49.25721" lon="2.3748">
        <ele>48.2</ele>
        <time>2024-09-01T08:20:41Z</time>
      </trkpt>
      <trkpt lat="49.25722" lon="2.3748">
        <ele>48.1</ele>
        <time>2024-09-01T08:20:42Z</time>
      </trkpt>
      <trkpt lat="49.25724" lon="2.3748">
        <ele>48.1</ele>
        <time>2024-09-01T08:20:43Z</time>
      </trkpt>
      <trkpt lat="49.25726" lon="2.3748">
        <ele>48.2</ele>
        <time>2024-09-01T08:20:44Z</time>
      </trkpt>
      <trkpt lat="49.25727" lon="2.3748">
        <ele>48.2</ele>
        <time>2024-09-01T08:20:45Z</time>
      </trkpt>
      <trkpt lat="49.25729" lon="2.3748">
        <ele>48.2</ele>
        <time>2024-09-01T08:20:46Z</time>
      </trkpt>
      <trkpt lat="49.2573" lon="2.3748">
        <ele>48.2</ele>
        <time>2024-09-01T08:20:47Z</time>
      </trkpt>
      <trkpt lat="49.25731" lon="2.37479">
        <ele>48.2</ele>
        <time>2024-09-01T08:20:48Z</time>
      </trkpt>
      <trkpt lat="49.25733" lon="2.37479">
        <ele>48.2</ele>
        <time>2024-09-01T08:20:49Z</time>
      </trkpt>
      <trkpt lat="49.25734" lon="2.37479">
        <ele>48.2</ele>
        <time>2024-09-01T08:20:50Z</time>
      </trkpt>
      <trkpt lat="49.25736" lon="2.37478">
        <ele>48.1</ele>
        <time>2024-09-01T08:20:51Z</time>
      </trkpt>
      <trkpt lat="49.25738" lon="2.37478">
        <ele>48</ele>
        <time>2024-09-01T08:20:52Z</time>
      </trkpt>
      <trkpt lat="49.25739" lon="2.37477">
        <ele>47.9</ele>
        <time>2024-09-01T08:20:53Z</time>
      </trkpt>
      <trkpt lat="49.25741" lon="2.37476">
        <ele>47.8</ele>
        <time>2024-09-01T08:20:54Z</time>
      </trkpt>
      <trkpt lat="49.25743" lon="2.37475">
        <ele>47.6</ele>
        <time>2024-09-01T08:20:55Z</time>
      </trkpt>
      <trkpt lat="49.25745" lon="2.37475">
        <ele>47.5</ele>
        <time>2024-09-01T08:20:56Z</time>
      </trkpt>
      <trkpt lat="49.25746" lon="2.37474">
        <ele>47.4</ele>
        <time>2024-09-01T08:20:57Z</time>
      </trkpt>
      <trkpt lat="49.25748" lon="2.37473">
        <ele>47.2</ele>
        <time>2024-09-01T08:20:58Z</time>
      </trkpt>
      <trkpt lat="49.2575" lon="2.37473">
        <ele>47.1</ele>
        <time>2024-09-01T08:20:59Z</time>
      </trkpt>
      <trkpt lat="49.25751" lon="2.37471">
        <ele>47</ele>
        <time>2024-09-01T08:21:00Z</time>
      </trkpt>
      <trkpt lat="49.25753" lon="2.3747">
        <ele>46.9</ele>
        <time>2024-09-01T08:21:01Z</time>
      </trkpt>
      <trkpt lat="49.25754" lon="2.37468">
        <ele>46.8</ele>
        <time>2024-09-01T08:21:02Z</time>
      </trkpt>
      <trkpt lat="49.25755" lon="2.37466">
        <ele>46.7</ele>
        <time>2024-09-01T08:21:03Z</time>
      </trkpt>
      <trkpt lat="49.25757" lon="2.37465">
        <ele>46.6</ele>
        <time>2024-09-01T08:21:04Z</time>
      </trkpt>
      <trkpt lat="49.25758" lon="2.37463">
        <ele>46.5</ele>
        <time>2024-09-01T08:21:05Z</time>
      </trkpt>
      <trkpt lat="49.2576" lon="2.37462">
        <ele>46.4</ele>
        <time>2024-09-01T08:21:06Z</time>
      </trkpt>
      <trkpt lat="49.25762" lon="2.37461">
        <ele>46.3</ele>
        <time>2024-09-01T08:21:07Z</time>
      </trkpt>
      <trkpt lat="49.25764" lon="2.3746">
        <ele>46.1</ele>
        <time>2024-09-01T08:21:08Z</time>
      </trkpt>
      <trkpt lat="49.25766" lon="2.3746">
        <ele>46</ele>
        <time>2024-09-01T08:21:09Z</time>
      </trkpt>
      <trkpt lat="49.25768" lon="2.37459">
        <ele>45.9</ele>
        <time>2024-09-01T08:21:10Z</time>
      </trkpt>
      <trkpt lat="49.25769" lon="2.37459">
        <ele>45.9</ele>
        <time>2024-09-01T08:21:11Z</time>
      </trkpt>
      <trkpt lat="49.25771" lon="2.37459">
        <ele>45.8</ele>
        <time>2024-09-01T08:21:12Z</time>
      </trkpt>
      <trkpt lat="49.25773" lon="2.37458">
        <ele>45.7</ele>
        <time>2024-09-01T08:21:13Z</time>
      </trkpt>
      <trkpt lat="49.25774" lon="2.37457">
        <ele>45.5</ele>
        <time>2024-09-01T08:21:14Z</time>
      </trkpt>
      <trkpt lat="49.25775" lon="2.37456">
        <ele>45.3</ele>
        <time>2024-09-01T08:21:15Z</time>
      </trkpt>
      <trkpt lat="49.25777" lon="2.37454">
        <ele>45.1</ele>
        <time>2024-09-01T08:21:16Z</time>
      </trkpt>
      <trkpt lat="49.25778" lon="2.37453">
        <ele>44.9</ele>
        <time>2024-09-01T08:21:17Z</time>
      </trkpt>
      <trkpt lat="49.25779" lon="2.37451">
        <ele>44.7</ele>
        <time>2024-09-01T08:21:18Z</time>
      </trkpt>
      <trkpt lat="49.25781" lon="2.3745">
        <ele>44.6</ele>
        <time>2024-09-01T08:21:19Z</time>
      </trkpt>
      <trkpt lat="49.25782" lon="2.37449">
        <ele>44.4</ele>
        <time>2024-09-01T08:21:20Z</time>
      </trkpt>
      <trkpt lat="49.25784" lon="2.37449">
        <ele>44.3</ele>
        <time>2024-09-01T08:21:21Z</time>
      </trkpt>
      <trkpt lat="49.25786" lon="2.37449">
        <ele>44.2</ele>
        <time>2024-09-01T08:21:22Z</time>
      </trkpt>
      <trkpt lat="49.25787" lon="2.37448">
        <ele>44.2</ele>
        <time>2024-09-01T08:21:23Z</time>
      </trkpt>
      <trkpt lat="49.25789" lon="2.37448">
        <ele>44.1</ele>
        <time>2024-09-01T08:21:24Z</time>
      </trkpt>
      <trkpt lat="49.2579" lon="2.37449">
        <ele>44.1</ele>
        <time>2024-09-01T08:21:25Z</time>
      </trkpt>
      <trkpt lat="49.25791" lon="2.37449">
        <ele>44.1</ele>
        <time>2024-09-01T08:21:26Z</time>
      </trkpt>
      <trkpt lat="49.25793" lon="2.37449">
        <ele>44.1</ele>
        <time>2024-09-01T08:21:27Z</time>
      </trkpt>
      <trkpt lat="49.25794" lon="2.3745">
        <ele>44.2</ele>
        <time>2024-09-01T08:21:28Z</time>
      </trkpt>
      <trkpt lat="49.25796" lon="2.3745">
        <ele>44.2</ele>
        <time>2024-09-01T08:21:29Z</time>
      </trkpt>
      <trkpt lat="49.25798" lon="2.3745">
        <ele>44.2</ele>
        <time>2024-09-01T08:21:30Z</time>
      </trkpt>
      <trkpt lat="49.258" lon="2.3745">
        <ele>44.2</ele>
        <time>2024-09-01T08:21:31Z</time>
      </trkpt>
      <trkpt lat="49.25802" lon="2.3745">
        <ele>44</ele>
        <time>2024-09-01T08:21:32Z</time>
      </trkpt>
      <trkpt lat="49.25803" lon="2.37449">
        <ele>43.9</ele>
        <time>2024-09-01T08:21:33Z</time>
      </trkpt>
      <trkpt lat="49.25805" lon="2.37448">
        <ele>43.7</ele>
        <time>2024-09-01T08:21:34Z</time>
      </trkpt>
      <trkpt lat="49.25807" lon="2.37448">
        <ele>43.6</ele>
        <time>2024-09-01T08:21:35Z</time>
      </trkpt>
      <trkpt lat="49.25809" lon="2.37447">
        <ele>43.4</ele>
        <time>2024-09-01T08:21:36Z</time>
      </trkpt>
      <trkpt lat="49.25811" lon="2.37446">
        <ele>43.3</ele>
        <time>2024-09-01T08:21:37Z</time>
      </trkpt>
      <trkpt lat="49.25813" lon="2.37446">
        <ele>43.2</ele>
        <time>2024-09-01T08:21:38Z</time>
      </trkpt>
      <trkpt lat="49.25815" lon="2.37445">
        <ele>43.2</ele>
        <time>2024-09-01T08:21:39Z</time>
      </trkpt>
      <trkpt lat="49.25817" lon="2.37445">
        <ele>43.1</ele>
        <time>2024-09-01T08:21:40Z</time>
      </trkpt>
      <trkpt lat="49.25819" lon="2.37445">
        <ele>43.1</ele>
        <time>2024-09-01T08:21:41Z</time>
      </trkpt>
      <trkpt lat="49.2582" lon="2.37445">
        <ele>43</ele>
        <time>2024-09-01T08:21:42Z</time>
      </trkpt>
      <trkpt lat="49.25822" lon="2.37445">
        <ele>43.1</ele>
        <time>2024-09-01T08:21:43Z</time>
      </trkpt>
      <trkpt lat="49.25823" lon="2.37446">
        <ele>43.2</ele>
        <time>2024-09-01T08:21:44Z</time>
      </trkpt>
      <trkpt lat="49.25824" lon="2.37446">
        <ele>43.2</ele>
        <time>2024-09-01T08:21:45Z</time>
      </trkpt>
      <trkpt lat="49.25826" lon="2.37446">
        <ele>43.3</ele>
        <time>2024-09-01T08:21:46Z</time>
      </trkpt>
      <trkpt lat="49.25827" lon="2.37447">
        <ele>43.3</ele>
        <time>2024-09-01T08:21:47Z</time>
      </trkpt>
      <trkpt lat="49.25828" lon="2.37447">
        <ele>43.3</ele>
        <time>2024-09-01T08:21:48Z</time>
      </trkpt>
      <trkpt lat="49.2583" lon="2.37447">
        <ele>43.3</ele>
        <time>2024-09-01T08:21:49Z</time>
      </trkpt>
      <trkpt lat="49.25831" lon="2.37446">
        <ele>43.3</ele>
        <time>2024-09-01T08:21:50Z</time>
      </trkpt>
      <trkpt lat="49.25832" lon="2.37447">
        <ele>43.3</ele>
        <time>2024-09-01T08:21:51Z</time>
      </trkpt>
      <trkpt lat="49.25833" lon="2.37447">
        <ele>43.3</ele>
        <time>2024-09-01T08:21:52Z</time>
      </trkpt>
      <trkpt lat="49.25835" lon="2.37447">
        <ele>43.3</ele>
        <time>2024-09-01T08:21:53Z</time>
      </trkpt>
      <trkpt lat="49.25836" lon="2.37447">
        <ele>43.3</ele>
        <time>2024-09-01T08:21:54Z</time>
      </trkpt>
      <trkpt lat="49.25837" lon="2.37447">
        <ele>43.3</ele>
        <time>2024-09-01T08:21:55Z</time>
      </trkpt>
      <trkpt lat="49.25839" lon="2.37447">
        <ele>43.2</ele>
        <time>2024-09-01T08:21:56Z</time>
      </trkpt>
      <trkpt lat="49.2584" lon="2.37448">
        <ele>43.2</ele>
        <time>2024-09-01T08:21:57Z</time>
      </trkpt>
      <trkpt lat="49.25842" lon="2.37448">
        <ele>43.2</ele>
        <time>2024-09-01T08:21:58Z</time>
      </trkpt>
      <trkpt lat="49.25844" lon="2.37448">
        <ele>43.2</ele>
        <time>2024-09-01T08:21:59Z</time>
      </trkpt>
      <trkpt lat="49.25845" lon="2.37449">
        <ele>43.2</ele>
        <time>2024-09-01T08:22:00Z</time>
      </trkpt>
      <trkpt lat="49.25846" lon="2.37449">
        <ele>43.2</ele>
        <time>2024-09-01T08:22:01Z</time>
      </trkpt>
      <trkpt lat="49.25848" lon="2.3745">
        <ele>43.3</ele>
        <time>2024-09-01T08:22:02Z</time>
      </trkpt>
      <trkpt lat="49.25848" lon="2.3745">
        <ele>43.2</ele>
        <time>2024-09-01T08:22:03Z</time>
      </trkpt>
      <trkpt lat="49.25849" lon="2.3745">
        <ele>43.2</ele>
        <time>2024-09-01T08:22:04Z</time>
      </trkpt>
      <trkpt lat="49.25849" lon="2.3745">
        <ele>43.2</ele>
        <time>2024-09-01T08:22:05Z</time>
      </trkpt>
      <trkpt lat="49.2585" lon="2.3745">
        <ele>43.2</ele>
        <time>2024-09-01T08:22:06Z</time>
      </trkpt>
      <trkpt lat="49.25851" lon="2.3745">
        <ele>43.2</ele>
        <time>2024-09-01T08:22:07Z</time>
      </trkpt>
      <trkpt lat="49.25852" lon="2.3745">
        <ele>43.1</ele>
        <time>2024-09-01T08:22:08Z</time>
      </trkpt>
      <trkpt lat="49.25853" lon="2.3745">
        <ele>43.1</ele>
        <time>2024-09-01T08:22:09Z</time>
      </trkpt>
      <trkpt lat="49.25855" lon="2.37451">
        <ele>43.1</ele>
        <time>2024-09-01T08:22:10Z</time>
      </trkpt>
      <trkpt lat="49.25856" lon="2.37451">
        <ele>43.1</ele>
        <time>2024-09-01T08:22:11Z</time>
      </trkpt>
      <trkpt lat="49.25857" lon="2.37452">
        <ele>43.2</ele>
        <time>2024-09-01T08:22:12Z</time>
      </trkpt>
      <trkpt lat="49.25858" lon="2.37452">
        <ele>43.2</ele>
        <time>2024-09-01T08:22:13Z</time>
      </trkpt>
      <trkpt lat="49.25858" lon="2.37453">
        <ele>43.3</ele>
        <time>2024-09-01T08:22:14Z</time>
      </trkpt>
      <trkpt lat="49.25859" lon="2.37453">
        <ele>43.4</ele>
        <time>2024-09-01T08:22:15Z</time>
      </trkpt>
      <trkpt lat="49.2586" lon="2.37454">
        <ele>43.4</ele>
        <time>2024-09-01T08:22:16Z</time>
      </trkpt>
      <trkpt lat="49.25861" lon="2.37455">
        <ele>43.5</ele>
        <time>2024-09-01T08:22:17Z</time>
      </trkpt>
      <trkpt lat="49.25862" lon="2.37456">
        <ele>43.6</ele>
        <time>2024-09-01T08:22:18Z</time>
      </trkpt>
      <trkpt lat="49.25863" lon="2.37457">
        <ele>43.8</ele>
        <time>2024-09-01T08:22:19Z</time>
      </trkpt>
      <trkpt lat="49.25865" lon="2.37458">
        <ele>43.8</ele>
        <time>2024-09-01T08:22:20Z</time>
      </trkpt>
      <trkpt lat="49.25866" lon="2.37459">
        <ele>43.9</ele>
        <time>2024-09-01T08:22:21Z</time>
      </trkpt>
      <trkpt lat="49.25867" lon="2.3746">
        <ele>44</ele>
        <time>2024-09-01T08:22:22Z</time>
      </trkpt>
      <trkpt lat="49.25868" lon="2.37461">
        <ele>44.1</ele>
        <time>2024-09-01T08:22:23Z</time>
      </trkpt>
      <trkpt lat="49.2587" lon="2.37461">
        <ele>44.1</ele>
        <time>2024-09-01T08:22:24Z</time>
      </trkpt>
      <trkpt lat="49.25871" lon="2.37462">
        <ele>44.2</ele>
        <time>2024-09-01T08:22:25Z</time>
      </trkpt>
      <trkpt lat="49.25872" lon="2.37462">
        <ele>44.1</ele>
        <time>2024-09-01T08:22:26Z</time>
      </trkpt>
      <trkpt lat="49.25873" lon="2.37462">
        <ele>44.2</ele>
        <time>2024-09-01T08:22:27Z</time>
      </trkpt>
      <trkpt lat="49.25873" lon="2.37462">
        <ele>44.1</ele>
        <time>2024-09-01T08:22:28Z</time>
      </trkpt>
      <trkpt lat="49.25874" lon="2.37462">
        <ele>44.1</ele>
        <time>2024-09-01T08:22:29Z</time>
      </trkpt>
      <trkpt lat="49.25875" lon="2.37463">
        <ele>44.1</ele>
        <time>2024-09-01T08:22:30Z</time>
      </trkpt>
      <trkpt lat="49.25876" lon="2.37463">
        <ele>44.1</ele>
        <time>2024-09-01T08:22:31Z</time>
      </trkpt>
      <trkpt lat="49.25877" lon="2.37464">
        <ele>44.2</ele>
        <time>2024-09-01T08:22:32Z</time>
      </trkpt>
      <trkpt lat="49.25879" lon="2.37464">
        <ele>44.2</ele>
        <time>2024-09-01T08:22:33Z</time>
      </trkpt>
      <trkpt lat="49.25881" lon="2.37465">
        <ele>44.3</ele>
        <time>2024-09-01T08:22:34Z</time>
      </trkpt>
      <trkpt lat="49.25883" lon="2.37466">
        <ele>44.3</ele>
        <time>2024-09-01T08:22:35Z</time>
      </trkpt>
      <trkpt lat="49.25885" lon="2.37467">
        <ele>44.4</ele>
        <time>2024-09-01T08:22:36Z</time>
      </trkpt>
      <trkpt lat="49.25887" lon="2.37468">
        <ele>44.5</ele>
        <time>2024-09-01T08:22:37Z</time>
      </trkpt>
      <trkpt lat="49.25888" lon="2.37469">
        <ele>44.6</ele>
        <time>2024-09-01T08:22:38Z</time>
      </trkpt>
      <trkpt lat="49.2589" lon="2.3747">
        <ele>44.5</ele>
        <time>2024-09-01T08:22:39Z</time>
      </trkpt>
      <trkpt lat="49.25893" lon="2.37473">
        <ele>44.6</ele>
        <time>2024-09-01T08:22:48Z</time>
      </trkpt>
      <trkpt lat="49.25895" lon="2.37474">
        <ele>44.7</ele>
        <time>2024-09-01T08:22:49Z</time>
      </trkpt>
      <trkpt lat="49.25896" lon="2.37475">
        <ele>44.8</ele>
        <time>2024-09-01T08:22:50Z</time>
      </trkpt>
      <trkpt lat="49.25897" lon="2.37476">
        <ele>44.9</ele>
        <time>2024-09-01T08:22:51Z</time>
      </trkpt>
      <trkpt lat="49.25898" lon="2.37477">
        <ele>45</ele>
        <time>2024-09-01T08:22:52Z</time>
      </trkpt>
      <trkpt lat="49.259" lon="2.37478">
        <ele>45</ele>
        <time>2024-09-01T08:22:53Z</time>
      </trkpt>
      <trkpt lat="49.25901" lon="2.37478">
        <ele>45.1</ele>
        <time>2024-09-01T08:22:54Z</time>
      </trkpt>
      <trkpt lat="49.25903" lon="2.37479">
        <ele>45.2</ele>
        <time>2024-09-01T08:22:55Z</time>
      </trkpt>
      <trkpt lat="49.25904" lon="2.3748">
        <ele>45.2</ele>
        <time>2024-09-01T08:22:56Z</time>
      </trkpt>
      <trkpt lat="49.25906" lon="2.37481">
        <ele>45.1</ele>
        <time>2024-09-01T08:22:57Z</time>
      </trkpt>
      <trkpt lat="49.25908" lon="2.37481">
        <ele>45</ele>
        <time>2024-09-01T08:22:58Z</time>
      </trkpt>
      <trkpt lat="49.2591" lon="2.37481">
        <ele>44.9</ele>
        <time>2024-09-01T08:22:59Z</time>
      </trkpt>
      <trkpt lat="49.25912" lon="2.37482">
        <ele>44.8</ele>
        <time>2024-09-01T08:23:00Z</time>
      </trkpt>
      <trkpt lat="49.25914" lon="2.37482">
        <ele>44.7</ele>
        <time>2024-09-01T08:23:01Z</time>
      </trkpt>
      <trkpt lat="49.25916" lon="2.37483">
        <ele>44.7</ele>
        <time>2024-09-01T08:23:02Z</time>
      </trkpt>
      <trkpt lat="49.25918" lon="2.37483">
        <ele>44.6</ele>
        <time>2024-09-01T08:23:03Z</time>
      </trkpt>
      <trkpt lat="49.2592" lon="2.37484">
        <ele>44.6</ele>
        <time>2024-09-01T08:23:04Z</time>
      </trkpt>
      <trkpt lat="49.25922" lon="2.37485">
        <ele>44.6</ele>
        <time>2024-09-01T08:23:05Z</time>
      </trkpt>
      <trkpt lat="49.25924" lon="2.37486">
        <ele>44.6</ele>
        <time>2024-09-01T08:23:06Z</time>
      </trkpt>
      <trkpt lat="49.25926" lon="2.37487">
        <ele>44.6</ele>
        <time>2024-09-01T08:23:07Z</time>
      </trkpt>
      <trkpt lat="49.25928" lon="2.37488">
        <ele>44.7</ele>
        <time>2024-09-01T08:23:08Z</time>
      </trkpt>
      <trkpt lat="49.25929" lon="2.3749">
        <ele>44.8</ele>
        <time>2024-09-01T08:23:09Z</time>
      </trkpt>
      <trkpt lat="49.25931" lon="2.37491">
        <ele>44.9</ele>
        <time>2024-09-01T08:23:10Z</time>
      </trkpt>
      <trkpt lat="49.25932" lon="2.37493">
        <ele>45</ele>
        <time>2024-09-01T08:23:11Z</time>
      </trkpt>
      <trkpt lat="49.25934" lon="2.37495">
        <ele>45</ele>
        <time>2024-09-01T08:23:12Z</time>
      </trkpt>
      <trkpt lat="49.25936" lon="2.37496">
        <ele>45</ele>
        <time>2024-09-01T08:23:13Z</time>
      </trkpt>
      <trkpt lat="49.25937" lon="2.37498">
        <ele>45</ele>
        <time>2024-09-01T08:23:14Z</time>
      </trkpt>
      <trkpt lat="49.25939" lon="2.37499">
        <ele>44.9</ele>
        <time>2024-09-01T08:23:15Z</time>
      </trkpt>
      <trkpt lat="49.2594" lon="2.37501">
        <ele>44.9</ele>
        <time>2024-09-01T08:23:16Z</time>
      </trkpt>
      <trkpt lat="49.25942" lon="2.37501">
        <ele>44.9</ele>
        <time>2024-09-01T08:23:17Z</time>
      </trkpt>
      <trkpt lat="49.25943" lon="2.37502">
        <ele>44.8</ele>
        <time>2024-09-01T08:23:18Z</time>
      </trkpt>
      <trkpt lat="49.25945" lon="2.37503">
        <ele>44.8</ele>
        <time>2024-09-01T08:23:19Z</time>
      </trkpt>
      <trkpt lat="49.25946" lon="2.37504">
        <ele>44.9</ele>
        <time>2024-09-01T08:23:20Z</time>
      </trkpt>
      <trkpt lat="49.25948" lon="2.37505">
        <ele>45</ele>
        <time>2024-09-01T08:23:21Z</time>
      </trkpt>
      <trkpt lat="49.2595" lon="2.37506">
        <ele>45.1</ele>
        <time>2024-09-01T08:23:22Z</time>
      </trkpt>
      <trkpt lat="49.2595" lon="2.37507">
        <ele>45.1</ele>
        <time>2024-09-01T08:23:23Z</time>
      </trkpt>
      <trkpt lat="49.25951" lon="2.37507">
        <ele>45.2</ele>
        <time>2024-09-01T08:23:24Z</time>
      </trkpt>
      <trkpt lat="49.25951" lon="2.37507">
        <ele>45.2</ele>
        <time>2024-09-01T08:23:25Z</time>
      </trkpt>
      <trkpt lat="49.25952" lon="2.37508">
        <ele>45.2</ele>
        <time>2024-09-01T08:23:26Z</time>
      </trkpt>
      <trkpt lat="49.25952" lon="2.37508">
        <ele>45.3</ele>
        <time>2024-09-01T08:23:27Z</time>
      </trkpt>
      <trkpt lat="49.25953" lon="2.37509">
        <ele>45.3</ele>
        <time>2024-09-01T08:23:28Z</time>
      </trkpt>
      <trkpt lat="49.25954" lon="2.37509">
        <ele>45.3</ele>
        <time>2024-09-01T08:23:29Z</time>
      </trkpt>
      <trkpt lat="49.25954" lon="2.3751">
        <ele>45.4</ele>
        <time>2024-09-01T08:23:30Z</time>
      </trkpt>
      <trkpt lat="49.25955" lon="2.3751">
        <ele>45.4</ele>
        <time>2024-09-01T08:23:31Z</time>
      </trkpt>
      <trkpt lat="49.25955" lon="2.3751">
        <ele>45.4</ele>
        <time>2024-09-01T08:23:32Z</time>
      </trkpt>
      <trkpt lat="49.25956" lon="2.37511">
        <ele>45.4</ele>
        <time>2024-09-01T08:23:33Z</time>
      </trkpt>
      <trkpt lat="49.25957" lon="2.37511">
        <ele>45.4</ele>
        <time>2024-09-01T08:23:34Z</time>
      </trkpt>
      <trkpt lat="49.25958" lon="2.37512">
        <ele>45.4</ele>
        <time>2024-09-01T08:23:35Z</time>
      </trkpt>
      <trkpt lat="49.25959" lon="2.37513">
        <ele>45.4</ele>
        <time>2024-09-01T08:23:36Z</time>
      </trkpt>
      <trkpt lat="49.25961" lon="2.37514">
        <ele>45.4</ele>
        <time>2024-09-01T08:23:37Z</time>
      </trkpt>
      <trkpt lat="49.25962" lon="2.37514">
        <ele>45.4</ele>
        <time>2024-09-01T08:23:38Z</time>
      </trkpt>
      <trkpt lat="49.25963" lon="2.37516">
        <ele>45.4</ele>
        <time>2024-09-01T08:23:39Z</time>
      </trkpt>
      <trkpt lat="49.25965" lon="2.37517">
        <ele>45.5</ele>
        <time>2024-09-01T08:23:40Z</time>
      </trkpt>
      <trkpt lat="49.25966" lon="2.37519">
        <ele>45.6</ele>
        <time>2024-09-01T08:23:41Z</time>
      </trkpt>
      <trkpt lat="49.25967" lon="2.37521">
        <ele>45.8</ele>
        <time>2024-09-01T08:23:42Z</time>
      </trkpt>
      <trkpt lat="49.25968" lon="2.37523">
        <ele>45.9</ele>
        <time>2024-09-01T08:23:43Z</time>
      </trkpt>
      <trkpt lat="49.25969" lon="2.37525">
        <ele>46.1</ele>
        <time>2024-09-01T08:23:44Z</time>
      </trkpt>
      <trkpt lat="49.2597" lon="2.37527">
        <ele>46.3</ele>
        <time>2024-09-01T08:23:45Z</time>
      </trkpt>
      <trkpt lat="49.25971" lon="2.37529">
        <ele>46.5</ele>
        <time>2024-09-01T08:23:46Z</time>
      </trkpt>
      <trkpt lat="49.25972" lon="2.37531">
        <ele>46.8</ele>
        <time>2024-09-01T08:23:47Z</time>
      </trkpt>
      <trkpt lat="49.25973" lon="2.37533">
        <ele>47.1</ele>
        <time>2024-09-01T08:23:48Z</time>
      </trkpt>
      <trkpt lat="49.25974" lon="2.37535">
        <ele>47.2</ele>
        <time>2024-09-01T08:23:49Z</time>
      </trkpt>
      <trkpt lat="49.25975" lon="2.37537">
        <ele>47.3</ele>
        <time>2024-09-01T08:23:50Z</time>
      </trkpt>
      <trkpt lat="49.25977" lon="2.37538">
        <ele>47.2</ele>
        <time>2024-09-01T08:23:51Z</time>
      </trkpt>
      <trkpt lat="49.25979" lon="2.3754">
        <ele>47.1</ele>
        <time>2024-09-01T08:23:52Z</time>
      </trkpt>
      <trkpt lat="49.2598" lon="2.37541">
        <ele>47</ele>
        <time>2024-09-01T08:23:53Z</time>
      </trkpt>
      <trkpt lat="49.25982" lon="2.37542">
        <ele>46.8</ele>
        <time>2024-09-01T08:23:54Z</time>
      </trkpt>
      <trkpt lat="49.25983" lon="2.37544">
        <ele>46.7</ele>
        <time>2024-09-01T08:23:55Z</time>
      </trkpt>
      <trkpt lat="49.25984" lon="2.37545">
        <ele>46.6</ele>
        <time>2024-09-01T08:23:56Z</time>
      </trkpt>
      <trkpt lat="49.25986" lon="2.37546">
        <ele>46.5</ele>
        <time>2024-09-01T08:23:57Z</time>
      </trkpt>
      <trkpt lat="49.25987" lon="2.37548">
        <ele>46.3</ele>
        <time>2024-09-01T08:23:58Z</time>
      </trkpt>
      <trkpt lat="49.25988" lon="2.37549">
        <ele>46.1</ele>
        <time>2024-09-01T08:23:59Z</time>
      </trkpt>
      <trkpt lat="49.25989" lon="2.37549">
        <ele>45.8</ele>
        <time>2024-09-01T08:24:00Z</time>
      </trkpt>
      <trkpt lat="49.25991" lon="2.37549">
        <ele>45.4</ele>
        <time>2024-09-01T08:24:01Z</time>
      </trkpt>
      <trkpt lat="49.25992" lon="2.3755">
        <ele>45.1</ele>
        <time>2024-09-01T08:24:02Z</time>
      </trkpt>
      <trkpt lat="49.25993" lon="2.3755">
        <ele>44.7</ele>
        <time>2024-09-01T08:24:03Z</time>
      </trkpt>
      <trkpt lat="49.25995" lon="2.3755">
        <ele>44.3</ele>
        <time>2024-09-01T08:24:04Z</time>
      </trkpt>
      <trkpt lat="49.25996" lon="2.37551">
        <ele>43.9</ele>
        <time>2024-09-01T08:24:05Z</time>
      </trkpt>
      <trkpt lat="49.25998" lon="2.37553">
        <ele>43.5</ele>
        <time>2024-09-01T08:24:06Z</time>
      </trkpt>
      <trkpt lat="49.26" lon="2.37554">
        <ele>43.1</ele>
        <time>2024-09-01T08:24:07Z</time>
      </trkpt>
      <trkpt lat="49.26001" lon="2.37555">
        <ele>42.8</ele>
        <time>2024-09-01T08:24:08Z</time>
      </trkpt>
      <trkpt lat="49.26003" lon="2.37557">
        <ele>42.7</ele>
        <time>2024-09-01T08:24:09Z</time>
      </trkpt>
      <trkpt lat="49.26004" lon="2.37559">
        <ele>42.6</ele>
        <time>2024-09-01T08:24:10Z</time>
      </trkpt>
      <trkpt lat="49.26006" lon="2.3756">
        <ele>42.4</ele>
        <time>2024-09-01T08:24:11Z</time>
      </trkpt>
      <trkpt lat="49.26008" lon="2.37562">
        <ele>42.2</ele>
        <time>2024-09-01T08:24:12Z</time>
      </trkpt>
      <trkpt lat="49.2601" lon="2.37564">
        <ele>42</ele>
        <time>2024-09-01T08:24:13Z</time>
      </trkpt>
      <trkpt lat="49.26011" lon="2.37566">
        <ele>41.9</ele>
        <time>2024-09-01T08:24:14Z</time>
      </trkpt>
      <trkpt lat="49.26012" lon="2.37568">
        <ele>41.7</ele>
        <time>2024-09-01T08:24:15Z</time>
      </trkpt>
      <trkpt lat="49.26013" lon="2.3757">
        <ele>41.6</ele>
        <time>2024-09-01T08:24:16Z</time>
      </trkpt>
      <trkpt lat="49.26014" lon="2.37572">
        <ele>41.5</ele>
        <time>2024-09-01T08:24:17Z</time>
      </trkpt>
      <trkpt lat="49.26014" lon="2.37574">
        <ele>41.5</ele>
        <time>2024-09-01T08:24:18Z</time>
      </trkpt>
      <trkpt lat="49.26015" lon="2.37577">
        <ele>41.4</ele>
        <time>2024-09-01T08:24:19Z</time>
      </trkpt>
      <trkpt lat="49.26016" lon="2.37579">
        <ele>41.4</ele>
        <time>2024-09-01T08:24:20Z</time>
      </trkpt>
      <trkpt lat="49.26016" lon="2.37581">
        <ele>41.3</ele>
        <time>2024-09-01T08:24:21Z</time>
      </trkpt>
      <trkpt lat="49.26017" lon="2.37583">
        <ele>41.2</ele>
        <time>2024-09-01T08:24:22Z</time>
      </trkpt>
      <trkpt lat="49.26017" lon="2.37585">
        <ele>40.9</ele>
        <time>2024-09-01T08:24:23Z</time>
      </trkpt>
      <trkpt lat="49.26018" lon="2.37587">
        <ele>40.6</ele>
        <time>2024-09-01T08:24:24Z</time>
      </trkpt>
      <trkpt lat="49.26019" lon="2.37589">
        <ele>40.2</ele>
        <time>2024-09-01T08:24:25Z</time>
      </trkpt>
      <trkpt lat="49.2602" lon="2.37591">
        <ele>39.9</ele>
        <time>2024-09-01T08:24:26Z</time>
      </trkpt>
      <trkpt lat="49.26021" lon="2.37593">
        <ele>39.6</ele>
        <time>2024-09-01T08:24:27Z</time>
      </trkpt>
      <trkpt lat="49.26021" lon="2.37595">
        <ele>39.4</ele>
        <time>2024-09-01T08:24:28Z</time>
      </trkpt>
      <trkpt lat="49.26022" lon="2.37597">
        <ele>39.3</ele>
        <time>2024-09-01T08:24:29Z</time>
      </trkpt>
      <trkpt lat="49.26022" lon="2.37599">
        <ele>39.2</ele>
        <time>2024-09-01T08:24:30Z</time>
      </trkpt>
      <trkpt lat="49.26022" lon="2.37601">
        <ele>39.3</ele>
        <time>2024-09-01T08:24:31Z</time>
      </trkpt>
      <trkpt lat="49.26022" lon="2.37603">
        <ele>39.3</ele>
        <time>2024-09-01T08:24:32Z</time>
      </trkpt>
      <trkpt lat="49.26022" lon="2.37604">
        <ele>39.5</ele>
        <time>2024-09-01T08:24:33Z</time>
      </trkpt>
      <trkpt lat="49.26022" lon="2.37606">
        <ele>39.6</ele>
        <time>2024-09-01T08:24:34Z</time>
      </trkpt>
      <trkpt lat="49.26021" lon="2.37607">
        <ele>39.7</ele>
        <time>2024-09-01T08:24:35Z</time>
      </trkpt>
      <trkpt lat="49.26022" lon="2.37608">
        <ele>39.5</ele>
        <time>2024-09-01T08:24:36Z</time>
      </trkpt>
      <trkpt lat="49.26022" lon="2.3761">
        <ele>39.3</ele>
        <time>2024-09-01T08:24:37Z</time>
      </trkpt>
      <trkpt lat="49.26023" lon="2.37612">
        <ele>38.9</ele>
        <time>2024-09-01T08:24:38Z</time>
      </trkpt>
      <trkpt lat="49.26024" lon="2.37615">
        <ele>38.5</ele>
        <time>2024-09-01T08:24:39Z</time>
      </trkpt>
      <trkpt lat="49.26025" lon="2.37617">
        <ele>38</ele>
        <time>2024-09-01T08:24:40Z</time>
      </trkpt>
      <trkpt lat="49.26027" lon="2.3762">
        <ele>37.6</ele>
        <time>2024-09-01T08:24:41Z</time>
      </trkpt>
      <trkpt lat="49.26027" lon="2.37622">
        <ele>37.2</ele>
        <time>2024-09-01T08:24:42Z</time>
      </trkpt>
      <trkpt lat="49.26028" lon="2.37625">
        <ele>37</ele>
        <time>2024-09-01T08:24:43Z</time>
      </trkpt>
      <trkpt lat="49.26029" lon="2.37627">
        <ele>37</ele>
        <time>2024-09-01T08:24:44Z</time>
      </trkpt>
      <trkpt lat="49.2603" lon="2.37629">
        <ele>36.9</ele>
        <time>2024-09-01T08:24:45Z</time>
      </trkpt>
      <trkpt lat="49.2603" lon="2.37632">
        <ele>36.9</ele>
        <time>2024-09-01T08:24:46Z</time>
      </trkpt>
      <trkpt lat="49.26031" lon="2.37634">
        <ele>36.9</ele>
        <time>2024-09-01T08:24:47Z</time>
      </trkpt>
      <trkpt lat="49.26031" lon="2.37637">
        <ele>36.9</ele>
        <time>2024-09-01T08:24:48Z</time>
      </trkpt>
      <trkpt lat="49.26031" lon="2.37639">
        <ele>36.9</ele>
        <time>2024-09-01T08:24:49Z</time>
      </trkpt>
      <trkpt lat="49.26031" lon="2.37642">
        <ele>36.9</ele>
        <time>2024-09-01T08:24:50Z</time>
      </trkpt>
      <trkpt lat="49.26032" lon="2.37645">
        <ele>36.9</ele>
        <time>2024-09-01T08:24:51Z</time>
      </trkpt>
      <trkpt lat="49.26032" lon="2.37647">
        <ele>36.8</ele>
        <time>2024-09-01T08:24:52Z</time>
      </trkpt>
      <trkpt lat="49.26032" lon="2.3765">
        <ele>36.8</ele>
        <time>2024-09-01T08:24:53Z</time>
      </trkpt>
      <trkpt lat="49.26033" lon="2.37653">
        <ele>36.8</ele>
        <time>2024-09-01T08:24:54Z</time>
      </trkpt>
      <trkpt lat="49.26033" lon="2.37656">
        <ele>36.8</ele>
        <time>2024-09-01T08:24:55Z</time>
      </trkpt>
      <trkpt lat="49.26034" lon="2.37659">
        <ele>36.8</ele>
        <time>2024-09-01T08:24:56Z</time>
      </trkpt>
      <trkpt lat="49.26034" lon="2.37662">
        <ele>36.8</ele>
        <time>2024-09-01T08:24:57Z</time>
      </trkpt>
      <trkpt lat="49.26034" lon="2.37665">
        <ele>36.8</ele>
        <time>2024-09-01T08:24:58Z</time>
      </trkpt>
      <trkpt lat="49.26034" lon="2.37668">
        <ele>36.7</ele>
        <time>2024-09-01T08:24:59Z</time>
      </trkpt>
      <trkpt lat="49.26034" lon="2.37671">
        <ele>36.6</ele>
        <time>2024-09-01T08:25:00Z</time>
      </trkpt>
      <trkpt lat="49.26034" lon="2.37675">
        <ele>36.5</ele>
        <time>2024-09-01T08:25:01Z</time>
      </trkpt>
      <trkpt lat="49.26034" lon="2.37678">
        <ele>36.4</ele>
        <time>2024-09-01T08:25:02Z</time>
      </trkpt>
      <trkpt lat="49.26035" lon="2.37681">
        <ele>36.2</ele>
        <time>2024-09-01T08:25:03Z</time>
      </trkpt>
      <trkpt lat="49.26035" lon="2.37684">
        <ele>36.1</ele>
        <time>2024-09-01T08:25:04Z</time>
      </trkpt>
      <trkpt lat="49.26035" lon="2.37687">
        <ele>36</ele>
        <time>2024-09-01T08:25:05Z</time>
      </trkpt>
      <trkpt lat="49.26035" lon="2.3769">
        <ele>35.9</ele>
        <time>2024-09-01T08:25:06Z</time>
      </trkpt>
      <trkpt lat="49.26036" lon="2.37692">
        <ele>35.8</ele>
        <time>2024-09-01T08:25:07Z</time>
      </trkpt>
      <trkpt lat="49.26036" lon="2.37694">
        <ele>35.7</ele>
        <time>2024-09-01T08:25:08Z</time>
      </trkpt>
      <trkpt lat="49.26036" lon="2.37697">
        <ele>35.7</ele>
        <time>2024-09-01T08:25:09Z</time>
      </trkpt>
      <trkpt lat="49.26036" lon="2.37699">
        <ele>35.7</ele>
        <time>2024-09-01T08:25:10Z</time>
      </trkpt>
      <trkpt lat="49.26036" lon="2.37701">
        <ele>35.8</ele>
        <time>2024-09-01T08:25:11Z</time>
      </trkpt>
      <trkpt lat="49.26037" lon="2.37703">
        <ele>35.8</ele>
        <time>2024-09-01T08:25:12Z</time>
      </trkpt>
      <trkpt lat="49.26037" lon="2.37705">
        <ele>35.8</ele>
        <time>2024-09-01T08:25:13Z</time>
      </trkpt>
      <trkpt lat="49.26037" lon="2.37707">
        <ele>35.8</ele>
        <time>2024-09-01T08:25:14Z</time>
      </trkpt>
      <trkpt lat="49.26037" lon="2.3771">
        <ele>35.8</ele>
        <time>2024-09-01T08:25:15Z</time>
      </trkpt>
      <trkpt lat="49.26038" lon="2.37712">
        <ele>35.9</ele>
        <time>2024-09-01T08:25:16Z</time>
      </trkpt>
      <trkpt lat="49.26038" lon="2.37714">
        <ele>35.9</ele>
        <time>2024-09-01T08:25:17Z</time>
      </trkpt>
      <trkpt lat="49.26038" lon="2.37716">
        <ele>35.9</ele>
        <time>2024-09-01T08:25:18Z</time>
      </trkpt>
      <trkpt lat="49.26038" lon="2.37718">
        <ele>35.9</ele>
        <time>2024-09-01T08:25:19Z</time>
      </trkpt>
      <trkpt lat="49.26038" lon="2.3772">
        <ele>36</ele>
        <time>2024-09-01T08:25:20Z</time>
      </trkpt>
      <trkpt lat="49.26039" lon="2.37723">
        <ele>36</ele>
        <time>2024-09-01T08:25:21Z</time>
      </trkpt>
      <trkpt lat="49.26039" lon="2.37725">
        <ele>36.1</ele>
        <time>2024-09-01T08:25:22Z</time>
      </trkpt>
      <trkpt lat="49.26039" lon="2.37727">
        <ele>36.1</ele>
        <time>2024-09-01T08:25:23Z</time>
      </trkpt>
      <trkpt lat="49.26039" lon="2.3773">
        <ele>36.2</ele>
        <time>2024-09-01T08:25:24Z</time>
      </trkpt>
      <trkpt lat="49.26039" lon="2.37732">
        <ele>36.2</ele>
        <time>2024-09-01T08:25:25Z</time>
      </trkpt>
      <trkpt lat="49.26039" lon="2.37734">
        <ele>36.2</ele>
        <time>2024-09-01T08:25:26Z</time>
      </trkpt>
      <trkpt lat="49.26039" lon="2.37736">
        <ele>36.3</ele>
        <time>2024-09-01T08:25:27Z</time>
      </trkpt>
      <trkpt lat="49.26039" lon="2.37738">
        <ele>36.3</ele>
        <time>2024-09-01T08:25:28Z</time>
      </trkpt>
      <trkpt lat="49.2604" lon="2.37739">
        <ele>36.3</ele>
        <time>2024-09-01T08:25:29Z</time>
      </trkpt>
      <trkpt lat="49.26041" lon="2.3774">
        <ele>36.3</ele>
        <time>2024-09-01T08:25:30Z</time>
      </trkpt>
      <trkpt lat="49.26042" lon="2.37741">
        <ele>36.3</ele>
        <time>2024-09-01T08:25:31Z</time>
      </trkpt>
      <trkpt lat="49.26044" lon="2.37741">
        <ele>36.3</ele>
        <time>2024-09-01T08:25:32Z</time>
      </trkpt>
      <trkpt lat="49.26045" lon="2.37741">
        <ele>36.2</ele>
        <time>2024-09-01T08:25:33Z</time>
      </trkpt>
      <trkpt lat="49.26047" lon="2.3774">
        <ele>36.2</ele>
        <time>2024-09-01T08:25:34Z</time>
      </trkpt>
      <trkpt lat="49.26049" lon="2.37739">
        <ele>36.1</ele>
        <time>2024-09-01T08:25:35Z</time>
      </trkpt>
      <trkpt lat="49.26051" lon="2.37739">
        <ele>36.1</ele>
        <time>2024-09-01T08:25:36Z</time>
      </trkpt>
      <trkpt lat="49.26053" lon="2.37738">
        <ele>36.1</ele>
        <time>2024-09-01T08:25:37Z</time>
      </trkpt>
      <trkpt lat="49.26054" lon="2.37738">
        <ele>36</ele>
        <time>2024-09-01T08:25:38Z</time>
      </trkpt>
      <trkpt lat="49.26056" lon="2.37737">
        <ele>36</ele>
        <time>2024-09-01T08:25:39Z</time>
      </trkpt>
      <trkpt lat="49.26058" lon="2.37737">
        <ele>36</ele>
        <time>2024-09-01T08:25:40Z</time>
      </trkpt>
      <trkpt lat="49.26059" lon="2.37736">
        <ele>36.1</ele>
        <time>2024-09-01T08:25:41Z</time>
      </trkpt>
      <trkpt lat="49.26061" lon="2.37736">
        <ele>36.1</ele>
        <time>2024-09-01T08:25:42Z</time>
      </trkpt>
      <trkpt lat="49.26062" lon="2.37735">
        <ele>36.1</ele>
        <time>2024-09-01T08:25:43Z</time>
      </trkpt>
      <trkpt lat="49.26064" lon="2.37734">
        <ele>36.1</ele>
        <time>2024-09-01T08:25:44Z</time>
      </trkpt>
      <trkpt lat="49.26065" lon="2.37734">
        <ele>36.1</ele>
        <time>2024-09-01T08:25:45Z</time>
      </trkpt>
      <trkpt lat="49.26067" lon="2.37733">
        <ele>36.2</ele>
        <time>2024-09-01T08:25:46Z</time>
      </trkpt>
      <trkpt lat="49.26068" lon="2.37733">
        <ele>36.2</ele>
        <time>2024-09-01T08:25:47Z</time>
      </trkpt>
      <trkpt lat="49.2607" lon="2.37732">
        <ele>36.2</ele>
        <time>2024-09-01T08:25:48Z</time>
      </trkpt>
      <trkpt lat="49.26072" lon="2.37732">
        <ele>36.2</ele>
        <time>2024-09-01T08:25:49Z</time>
      </trkpt>
      <trkpt lat="49.26073" lon="2.37731">
        <ele>36.2</ele>
        <time>2024-09-01T08:25:50Z</time>
      </trkpt>
      <trkpt lat="49.26075" lon="2.37731">
        <ele>36.2</ele>
        <time>2024-09-01T08:25:51Z</time>
      </trkpt>
      <trkpt lat="49.26076" lon="2.37731">
        <ele>36.2</ele>
        <time>2024-09-01T08:25:52Z</time>
      </trkpt>
      <trkpt lat="49.26078" lon="2.3773">
        <ele>36.2</ele>
        <time>2024-09-01T08:25:53Z</time>
      </trkpt>
      <trkpt lat="49.26079" lon="2.3773">
        <ele>36.2</ele>
        <time>2024-09-01T08:25:54Z</time>
      </trkpt>
      <trkpt lat="49.2608" lon="2.37729">
        <ele>36.2</ele>
        <time>2024-09-01T08:25:55Z</time>
      </trkpt>
      <trkpt lat="49.26082" lon="2.37729">
        <ele>36.2</ele>
        <time>2024-09-01T08:25:56Z</time>
      </trkpt>
      <trkpt lat="49.26083" lon="2.37729">
        <ele>36.2</ele>
        <time>2024-09-01T08:25:57Z</time>
      </trkpt>
      <trkpt lat="49.26084" lon="2.37729">
        <ele>36.2</ele>
        <time>2024-09-01T08:25:58Z</time>
      </trkpt>
      <trkpt lat="49.26085" lon="2.37729">
        <ele>36.2</ele>
        <time>2024-09-01T08:25:59Z</time>
      </trkpt>
      <trkpt lat="49.26086" lon="2.37728">
        <ele>36.2</ele>
        <time>2024-09-01T08:26:00Z</time>
      </trkpt>
      <trkpt lat="49.26087" lon="2.37728">
        <ele>36.2</ele>
        <time>2024-09-01T08:26:01Z</time>
      </trkpt>
      <trkpt lat="49.26088" lon="2.37727">
        <ele>36.2</ele>
        <time>2024-09-01T08:26:02Z</time>
      </trkpt>
      <trkpt lat="49.2609" lon="2.37726">
        <ele>36.1</ele>
        <time>2024-09-01T08:26:03Z</time>
      </trkpt>
      <trkpt lat="49.26091" lon="2.37725">
        <ele>36.1</ele>
        <time>2024-09-01T08:26:04Z</time>
      </trkpt>
      <trkpt lat="49.26092" lon="2.37724">
        <ele>36</ele>
        <time>2024-09-01T08:26:05Z</time>
      </trkpt>
      <trkpt lat="49.26093" lon="2.37722">
        <ele>36</ele>
        <time>2024-09-01T08:26:06Z</time>
      </trkpt>
      <trkpt lat="49.26094" lon="2.37721">
        <ele>36</ele>
        <time>2024-09-01T08:26:07Z</time>
      </trkpt>
      <trkpt lat="49.26095" lon="2.3772">
        <ele>36</ele>
        <time>2024-09-01T08:26:08Z</time>
      </trkpt>
      <trkpt lat="49.26097" lon="2.37719">
        <ele>35.9</ele>
        <time>2024-09-01T08:26:09Z</time>
      </trkpt>
      <trkpt lat="49.26098" lon="2.37718">
        <ele>35.9</ele>
        <time>2024-09-01T08:26:10Z</time>
      </trkpt>
      <trkpt lat="49.26099" lon="2.37718">
        <ele>35.9</ele>
        <time>2024-09-01T08:26:11Z</time>
      </trkpt>
      <trkpt lat="49.26101" lon="2.37718">
        <ele>35.9</ele>
        <time>2024-09-01T08:26:12Z</time>
      </trkpt>
      <trkpt lat="49.26102" lon="2.37718">
        <ele>35.9</ele>
        <time>2024-09-01T08:26:13Z</time>
      </trkpt>
      <trkpt lat="49.26104" lon="2.37719">
        <ele>35.9</ele>
        <time>2024-09-01T08:26:14Z</time>
      </trkpt>
      <trkpt lat="49.26105" lon="2.3772">
        <ele>35.9</ele>
        <time>2024-09-01T08:26:15Z</time>
      </trkpt>
      <trkpt lat="49.26107" lon="2.37721">
        <ele>36</ele>
        <time>2024-09-01T08:26:16Z</time>
      </trkpt>
      <trkpt lat="49.26108" lon="2.37723">
        <ele>36</ele>
        <time>2024-09-01T08:26:17Z</time>
      </trkpt>
      <trkpt lat="49.26109" lon="2.37725">
        <ele>36.1</ele>
        <time>2024-09-01T08:26:18Z</time>
      </trkpt>
      <trkpt lat="49.26111" lon="2.37727">
        <ele>36.2</ele>
        <time>2024-09-01T08:26:19Z</time>
      </trkpt>
      <trkpt lat="49.26112" lon="2.37729">
        <ele>36.2</ele>
        <time>2024-09-01T08:26:20Z</time>
      </trkpt>
      <trkpt lat="49.26113" lon="2.37731">
        <ele>36.3</ele>
        <time>2024-09-01T08:26:21Z</time>
      </trkpt>
      <trkpt lat="49.26113" lon="2.37733">
        <ele>36.3</ele>
        <time>2024-09-01T08:26:22Z</time>
      </trkpt>
      <trkpt lat="49.26114" lon="2.37735">
        <ele>36.4</ele>
        <time>2024-09-01T08:26:23Z</time>
      </trkpt>
      <trkpt lat="49.26115" lon="2.37738">
        <ele>36.4</ele>
        <time>2024-09-01T08:26:24Z</time>
      </trkpt>
      <trkpt lat="49.26115" lon="2.3774">
        <ele>36.5</ele>
        <time>2024-09-01T08:26:25Z</time>
      </trkpt>
      <trkpt lat="49.26116" lon="2.37742">
        <ele>36.5</ele>
        <time>2024-09-01T08:26:26Z</time>
      </trkpt>
      <trkpt lat="49.26117" lon="2.37744">
        <ele>36.6</ele>
        <time>2024-09-01T08:26:27Z</time>
      </trkpt>
      <trkpt lat="49.26118" lon="2.37746">
        <ele>36.6</ele>
        <time>2024-09-01T08:26:28Z</time>
      </trkpt>
      <trkpt lat="49.26119" lon="2.37749">
        <ele>36.7</ele>
        <time>2024-09-01T08:26:29Z</time>
      </trkpt>
      <trkpt lat="49.2612" lon="2.3775">
        <ele>36.7</ele>
        <time>2024-09-01T08:26:30Z</time>
      </trkpt>
      <trkpt lat="49.26121" lon="2.37752">
        <ele>36.6</ele>
        <time>2024-09-01T08:26:31Z</time>
      </trkpt>
      <trkpt lat="49.26122" lon="2.37754">
        <ele>36.5</ele>
        <time>2024-09-01T08:26:32Z</time>
      </trkpt>
      <trkpt lat="49.26123" lon="2.37756">
        <ele>36.5</ele>
        <time>2024-09-01T08:26:33Z</time>
      </trkpt>
      <trkpt lat="49.26124" lon="2.37757">
        <ele>36.4</ele>
        <time>2024-09-01T08:26:34Z</time>
      </trkpt>
      <trkpt lat="49.26125" lon="2.37759">
        <ele>36.3</ele>
        <time>2024-09-01T08:26:35Z</time>
      </trkpt>
      <trkpt lat="49.26127" lon="2.37761">
        <ele>36.3</ele>
        <time>2024-09-01T08:26:36Z</time>
      </trkpt>
      <trkpt lat="49.26128" lon="2.37763">
        <ele>36.2</ele>
        <time>2024-09-01T08:26:37Z</time>
      </trkpt>
      <trkpt lat="49.2613" lon="2.37764">
        <ele>36.2</ele>
        <time>2024-09-01T08:26:38Z</time>
      </trkpt>
      <trkpt lat="49.26131" lon="2.37766">
        <ele>36.1</ele>
        <time>2024-09-01T08:26:39Z</time>
      </trkpt>
      <trkpt lat="49.26132" lon="2.37767">
        <ele>36.1</ele>
        <time>2024-09-01T08:26:40Z</time>
      </trkpt>
      <trkpt lat="49.26134" lon="2.37769">
        <ele>36.1</ele>
        <time>2024-09-01T08:26:41Z</time>
      </trkpt>
      <trkpt lat="49.26135" lon="2.3777">
        <ele>36</ele>
        <time>2024-09-01T08:26:42Z</time>
      </trkpt>
      <trkpt lat="49.26136" lon="2.37771">
        <ele>36</ele>
        <time>2024-09-01T08:26:43Z</time>
      </trkpt>
      <trkpt lat="49.26138" lon="2.37773">
        <ele>36</ele>
        <time>2024-09-01T08:26:44Z</time>
      </trkpt>
      <trkpt lat="49.26139" lon="2.37774">
        <ele>36</ele>
        <time>2024-09-01T08:26:45Z</time>
      </trkpt>
      <trkpt lat="49.2614" lon="2.37776">
        <ele>36</ele>
        <time>2024-09-01T08:26:46Z</time>
      </trkpt>
      <trkpt lat="49.26141" lon="2.37778">
        <ele>35.9</ele>
        <time>2024-09-01T08:26:47Z</time>
      </trkpt>
      <trkpt lat="49.26142" lon="2.37779">
        <ele>35.9</ele>
        <time>2024-09-01T08:26:48Z</time>
      </trkpt>
      <trkpt lat="49.26143" lon="2.37781">
        <ele>35.9</ele>
        <time>2024-09-01T08:26:49Z</time>
      </trkpt>
      <trkpt lat="49.26144" lon="2.37783">
        <ele>35.8</ele>
        <time>2024-09-01T08:26:50Z</time>
      </trkpt>
      <trkpt lat="49.26145" lon="2.37785">
        <ele>35.8</ele>
        <time>2024-09-01T08:26:51Z</time>
      </trkpt>
      <trkpt lat="49.26146" lon="2.37786">
        <ele>35.8</ele>
        <time>2024-09-01T08:26:52Z</time>
      </trkpt>
      <trkpt lat="49.26147" lon="2.37788">
        <ele>35.8</ele>
        <time>2024-09-01T08:26:53Z</time>
      </trkpt>
      <trkpt lat="49.26148" lon="2.3779">
        <ele>35.8</ele>
        <time>2024-09-01T08:26:54Z</time>
      </trkpt>
      <trkpt lat="49.2615" lon="2.37791">
        <ele>35.8</ele>
        <time>2024-09-01T08:26:55Z</time>
      </trkpt>
      <trkpt lat="49.26151" lon="2.37793">
        <ele>35.8</ele>
        <time>2024-09-01T08:26:56Z</time>
      </trkpt>
      <trkpt lat="49.26152" lon="2.37795">
        <ele>35.8</ele>
        <time>2024-09-01T08:26:57Z</time>
      </trkpt>
      <trkpt lat="49.26153" lon="2.37796">
        <ele>35.8</ele>
        <time>2024-09-01T08:26:58Z</time>
      </trkpt>
      <trkpt lat="49.26155" lon="2.37798">
        <ele>35.8</ele>
        <time>2024-09-01T08:26:59Z</time>
      </trkpt>
      <trkpt lat="49.26156" lon="2.37799">
        <ele>35.9</ele>
        <time>2024-09-01T08:27:00Z</time>
      </trkpt>
      <trkpt lat="49.26157" lon="2.378">
        <ele>35.9</ele>
        <time>2024-09-01T08:27:01Z</time>
      </trkpt>
      <trkpt lat="49.26158" lon="2.37801">
        <ele>35.9</ele>
        <time>2024-09-01T08:27:02Z</time>
      </trkpt>
      <trkpt lat="49.26159" lon="2.37802">
        <ele>35.9</ele>
        <time>2024-09-01T08:27:03Z</time>
      </trkpt>
      <trkpt lat="49.26161" lon="2.37803">
        <ele>35.9</ele>
        <time>2024-09-01T08:27:04Z</time>
      </trkpt>
      <trkpt lat="49.26162" lon="2.37803">
        <ele>35.9</ele>
        <time>2024-09-01T08:27:05Z</time>
      </trkpt>
      <trkpt lat="49.26163" lon="2.37804">
        <ele>36</ele>
        <time>2024-09-01T08:27:06Z</time>
      </trkpt>
      <trkpt lat="49.26165" lon="2.37804">
        <ele>36</ele>
        <time>2024-09-01T08:27:07Z</time>
      </trkpt>
      <trkpt lat="49.26167" lon="2.37805">
        <ele>36</ele>
        <time>2024-09-01T08:27:08Z</time>
      </trkpt>
      <trkpt lat="49.26169" lon="2.37805">
        <ele>35.8</ele>
        <time>2024-09-01T08:27:09Z</time>
      </trkpt>
      <trkpt lat="49.2617" lon="2.37805">
        <ele>35.7</ele>
        <time>2024-09-01T08:27:10Z</time>
      </trkpt>
      <trkpt lat="49.26172" lon="2.37805">
        <ele>35.6</ele>
        <time>2024-09-01T08:27:11Z</time>
      </trkpt>
      <trkpt lat="49.26173" lon="2.37805">
        <ele>35.5</ele>
        <time>2024-09-01T08:27:12Z</time>
      </trkpt>
      <trkpt lat="49.26175" lon="2.37805">
        <ele>35.4</ele>
        <time>2024-09-01T08:27:13Z</time>
      </trkpt>
      <trkpt lat="49.26176" lon="2.37805">
        <ele>35.3</ele>
        <time>2024-09-01T08:27:14Z</time>
      </trkpt>
      <trkpt lat="49.26178" lon="2.37805">
        <ele>35.2</ele>
        <time>2024-09-01T08:27:15Z</time>
      </trkpt>
      <trkpt lat="49.26179" lon="2.37805">
        <ele>35.1</ele>
        <time>2024-09-01T08:27:16Z</time>
      </trkpt>
      <trkpt lat="49.26181" lon="2.37806">
        <ele>35</ele>
        <time>2024-09-01T08:27:17Z</time>
      </trkpt>
      <trkpt lat="49.26182" lon="2.37806">
        <ele>34.9</ele>
        <time>2024-09-01T08:27:18Z</time>
      </trkpt>
      <trkpt lat="49.26184" lon="2.37807">
        <ele>34.7</ele>
        <time>2024-09-01T08:27:19Z</time>
      </trkpt>
      <trkpt lat="49.26186" lon="2.37807">
        <ele>34.6</ele>
        <time>2024-09-01T08:27:20Z</time>
      </trkpt>
      <trkpt lat="49.26187" lon="2.37807">
        <ele>34.5</ele>
        <time>2024-09-01T08:27:21Z</time>
      </trkpt>
      <trkpt lat="49.26189" lon="2.37807">
        <ele>34.3</ele>
        <time>2024-09-01T08:27:22Z</time>
      </trkpt>
      <trkpt lat="49.2619" lon="2.37807">
        <ele>34.2</ele>
        <time>2024-09-01T08:27:23Z</time>
      </trkpt>
      <trkpt lat="49.26192" lon="2.37807">
        <ele>34.1</ele>
        <time>2024-09-01T08:27:24Z</time>
      </trkpt>
      <trkpt lat="49.26193" lon="2.37807">
        <ele>34</ele>
        <time>2024-09-01T08:27:25Z</time>
      </trkpt>
      <trkpt lat="49.26195" lon="2.37807">
        <ele>34</ele>
        <time>2024-09-01T08:27:26Z</time>
      </trkpt>
      <trkpt lat="49.26196" lon="2.37806">
        <ele>34</ele>
        <time>2024-09-01T08:27:27Z</time>
      </trkpt>
      <trkpt lat="49.26197" lon="2.37806">
        <ele>34.1</ele>
        <time>2024-09-01T08:27:28Z</time>
      </trkpt>
      <trkpt lat="49.26199" lon="2.37806">
        <ele>34.1</ele>
        <time>2024-09-01T08:27:29Z</time>
      </trkpt>
      <trkpt lat="49.262" lon="2.37805">
        <ele>34.2</ele>
        <time>2024-09-01T08:27:30Z</time>
      </trkpt>
      <trkpt lat="49.26201" lon="2.37805">
        <ele>34.3</ele>
        <time>2024-09-01T08:27:31Z</time>
      </trkpt>
      <trkpt lat="49.26203" lon="2.37804">
        <ele>34.3</ele>
        <time>2024-09-01T08:27:32Z</time>
      </trkpt>
      <trkpt lat="49.26204" lon="2.37804">
        <ele>34.4</ele>
        <time>2024-09-01T08:27:33Z</time>
      </trkpt>
      <trkpt lat="49.26206" lon="2.37804">
        <ele>34.4</ele>
        <time>2024-09-01T08:27:34Z</time>
      </trkpt>
      <trkpt lat="49.26207" lon="2.37805">
        <ele>34.4</ele>
        <time>2024-09-01T08:27:35Z</time>
      </trkpt>
      <trkpt lat="49.26208" lon="2.37806">
        <ele>34.5</ele>
        <time>2024-09-01T08:27:36Z</time>
      </trkpt>
      <trkpt lat="49.26209" lon="2.37807">
        <ele>34.5</ele>
        <time>2024-09-01T08:27:37Z</time>
      </trkpt>
      <trkpt lat="49.2621" lon="2.37808">
        <ele>34.5</ele>
        <time>2024-09-01T08:27:38Z</time>
      </trkpt>
      <trkpt lat="49.26211" lon="2.3781">
        <ele>34.4</ele>
        <time>2024-09-01T08:27:39Z</time>
      </trkpt>
      <trkpt lat="49.26211" lon="2.37812">
        <ele>34.4</ele>
        <time>2024-09-01T08:27:40Z</time>
      </trkpt>
      <trkpt lat="49.26212" lon="2.37813">
        <ele>34.3</ele>
        <time>2024-09-01T08:27:41Z</time>
      </trkpt>
      <trkpt lat="49.26212" lon="2.37815">
        <ele>34.3</ele>
        <time>2024-09-01T08:27:42Z</time>
      </trkpt>
      <trkpt lat="49.26212" lon="2.37816">
        <ele>34.3</ele>
        <time>2024-09-01T08:27:43Z</time>
      </trkpt>
      <trkpt lat="49.26213" lon="2.37818">
        <ele>34.2</ele>
        <time>2024-09-01T08:27:44Z</time>
      </trkpt>
      <trkpt lat="49.26213" lon="2.37818">
        <ele>34.2</ele>
        <time>2024-09-01T08:28:02Z</time>
      </trkpt>
      <trkpt lat="49.26213" lon="2.37818">
        <ele>34.2</ele>
        <time>2024-09-01T08:28:03Z</time>
      </trkpt>
      <trkpt lat="49.26213" lon="2.37819">
        <ele>34.2</ele>
        <time>2024-09-01T08:28:04Z</time>
      </trkpt>
      <trkpt lat="49.26212" lon="2.37819">
        <ele>34.2</ele>
        <time>2024-09-01T08:28:05Z</time>
      </trkpt>
      <trkpt lat="49.26212" lon="2.3782">
        <ele>34.1</ele>
        <time>2024-09-01T08:28:06Z</time>
      </trkpt>
      <trkpt lat="49.26213" lon="2.37821">
        <ele>34.1</ele>
        <time>2024-09-01T08:28:07Z</time>
      </trkpt>
      <trkpt lat="49.26213" lon="2.37822">
        <ele>34.1</ele>
        <time>2024-09-01T08:28:08Z</time>
      </trkpt>
      <trkpt lat="49.26213" lon="2.37823">
        <ele>34</ele>
        <time>2024-09-01T08:28:09Z</time>
      </trkpt>
      <trkpt lat="49.26213" lon="2.37824">
        <ele>34</ele>
        <time>2024-09-01T08:28:10Z</time>
      </trkpt>
      <trkpt lat="49.26213" lon="2.37825">
        <ele>33.9</ele>
        <time>2024-09-01T08:28:11Z</time>
      </trkpt>
      <trkpt lat="49.26212" lon="2.37827">
        <ele>33.9</ele>
        <time>2024-09-01T08:28:12Z</time>
      </trkpt>
      <trkpt lat="49.26212" lon="2.37829">
        <ele>33.8</ele>
        <time>2024-09-01T08:28:13Z</time>
      </trkpt>
      <trkpt lat="49.26212" lon="2.37831">
        <ele>33.7</ele>
        <time>2024-09-01T08:28:14Z</time>
      </trkpt>
      <trkpt lat="49.26212" lon="2.37833">
        <ele>33.7</ele>
        <time>2024-09-01T08:28:15Z</time>
      </trkpt>
      <trkpt lat="49.26212" lon="2.37835">
        <ele>33.6</ele>
        <time>2024-09-01T08:28:16Z</time>
      </trkpt>
      <trkpt lat="49.26212" lon="2.37837">
        <ele>33.6</ele>
        <time>2024-09-01T08:28:17Z</time>
      </trkpt>
      <trkpt lat="49.26212" lon="2.37839">
        <ele>33.6</ele>
        <time>2024-09-01T08:28:18Z</time>
      </trkpt>
      <trkpt lat="49.26212" lon="2.37841">
        <ele>33.6</ele>
        <time>2024-09-01T08:28:19Z</time>
      </trkpt>
      <trkpt lat="49.26213" lon="2.37843">
        <ele>33.7</ele>
        <time>2024-09-01T08:28:20Z</time>
      </trkpt>
      <trkpt lat="49.26213" lon="2.37845">
        <ele>33.7</ele>
        <time>2024-09-01T08:28:21Z</time>
      </trkpt>
      <trkpt lat="49.26213" lon="2.37847">
        <ele>33.7</ele>
        <time>2024-09-01T08:28:22Z</time>
      </trkpt>
      <trkpt lat="49.26213" lon="2.37849">
        <ele>33.7</ele>
        <time>2024-09-01T08:28:23Z</time>
      </trkpt>
      <trkpt lat="49.26213" lon="2.37851">
        <ele>33.7</ele>
        <time>2024-09-01T08:28:24Z</time>
      </trkpt>
      <trkpt lat="49.26213" lon="2.37853">
        <ele>33.7</ele>
        <time>2024-09-01T08:28:25Z</time>
      </trkpt>
      <trkpt lat="49.26213" lon="2.37855">
        <ele>33.7</ele>
        <time>2024-09-01T08:28:26Z</time>
      </trkpt>
      <trkpt lat="49.26213" lon="2.37856">
        <ele>33.7</ele>
        <time>2024-09-01T08:28:27Z</time>
      </trkpt>
      <trkpt lat="49.26213" lon="2.37858">
        <ele>33.7</ele>
        <time>2024-09-01T08:28:28Z</time>
      </trkpt>
      <trkpt lat="49.26214" lon="2.3786">
        <ele>33.7</ele>
        <time>2024-09-01T08:28:29Z</time>
      </trkpt>
      <trkpt lat="49.26214" lon="2.37862">
        <ele>33.7</ele>
        <time>2024-09-01T08:28:30Z</time>
      </trkpt>
      <trkpt lat="49.26214" lon="2.37864">
        <ele>33.7</ele>
        <time>2024-09-01T08:28:31Z</time>
      </trkpt>
      <trkpt lat="49.26214" lon="2.37867">
        <ele>33.8</ele>
        <time>2024-09-01T08:28:32Z</time>
      </trkpt>
      <trkpt lat="49.26214" lon="2.37869">
        <ele>33.8</ele>
        <time>2024-09-01T08:28:33Z</time>
      </trkpt>
      <trkpt lat="49.26214" lon="2.37871">
        <ele>33.8</ele>
        <time>2024-09-01T08:28:34Z</time>
      </trkpt>
      <trkpt lat="49.26214" lon="2.37873">
        <ele>33.8</ele>
        <time>2024-09-01T08:28:35Z</time>
      </trkpt>
      <trkpt lat="49.26214" lon="2.37876">
        <ele>33.9</ele>
        <time>2024-09-01T08:28:36Z</time>
      </trkpt>
      <trkpt lat="49.26214" lon="2.37878">
        <ele>33.9</ele>
        <time>2024-09-01T08:28:37Z</time>
      </trkpt>
      <trkpt lat="49.26214" lon="2.37881">
        <ele>33.9</ele>
        <time>2024-09-01T08:28:38Z</time>
      </trkpt>
      <trkpt lat="49.26214" lon="2.37884">
        <ele>33.9</ele>
        <time>2024-09-01T08:28:39Z</time>
      </trkpt>
      <trkpt lat="49.26213" lon="2.37886">
        <ele>34</ele>
        <time>2024-09-01T08:28:40Z</time>
      </trkpt>
      <trkpt lat="49.26213" lon="2.37889">
        <ele>34</ele>
        <time>2024-09-01T08:28:41Z</time>
      </trkpt>
      <trkpt lat="49.26213" lon="2.37891">
        <ele>34</ele>
        <time>2024-09-01T08:28:42Z</time>
      </trkpt>
      <trkpt lat="49.26213" lon="2.37893">
        <ele>34.1</ele>
        <time>2024-09-01T08:28:43Z</time>
      </trkpt>
      <trkpt lat="49.26213" lon="2.37896">
        <ele>34.1</ele>
        <time>2024-09-01T08:28:44Z</time>
      </trkpt>
      <trkpt lat="49.26214" lon="2.37898">
        <ele>34.1</ele>
        <time>2024-09-01T08:28:45Z</time>
      </trkpt>
      <trkpt lat="49.26214" lon="2.379">
        <ele>34.1</ele>
        <time>2024-09-01T08:28:46Z</time>
      </trkpt>
      <trkpt lat="49.26215" lon="2.37903">
        <ele>34.1</ele>
        <time>2024-09-01T08:28:47Z</time>
      </trkpt>
      <trkpt lat="49.26215" lon="2.37905">
        <ele>34.1</ele>
        <time>2024-09-01T08:28:48Z</time>
      </trkpt>
      <trkpt lat="49.26216" lon="2.37907">
        <ele>34.2</ele>
        <time>2024-09-01T08:28:49Z</time>
      </trkpt>
      <trkpt lat="49.26216" lon="2.37909">
        <ele>34.2</ele>
        <time>2024-09-01T08:28:50Z</time>
      </trkpt>
      <trkpt lat="49.26217" lon="2.37912">
        <ele>34.2</ele>
        <time>2024-09-01T08:28:51Z</time>
      </trkpt>
      <trkpt lat="49.26217" lon="2.37915">
        <ele>34.2</ele>
        <time>2024-09-01T08:28:52Z</time>
      </trkpt>
      <trkpt lat="49.26217" lon="2.37917">
        <ele>34.2</ele>
        <time>2024-09-01T08:28:53Z</time>
      </trkpt>
      <trkpt lat="49.26217" lon="2.3792">
        <ele>34.3</ele>
        <time>2024-09-01T08:28:54Z</time>
      </trkpt>
      <trkpt lat="49.26217" lon="2.37923">
        <ele>34.3</ele>
        <time>2024-09-01T08:28:55Z</time>
      </trkpt>
      <trkpt lat="49.26217" lon="2.37926">
        <ele>34.4</ele>
        <time>2024-09-01T08:28:56Z</time>
      </trkpt>
      <trkpt lat="49.26217" lon="2.37928">
        <ele>34.4</ele>
        <time>2024-09-01T08:28:57Z</time>
      </trkpt>
      <trkpt lat="49.26217" lon="2.3793">
        <ele>34.5</ele>
        <time>2024-09-01T08:28:58Z</time>
      </trkpt>
      <trkpt lat="49.26217" lon="2.37932">
        <ele>34.5</ele>
        <time>2024-09-01T08:28:59Z</time>
      </trkpt>
      <trkpt lat="49.26218" lon="2.37934">
        <ele>34.6</ele>
        <time>2024-09-01T08:29:00Z</time>
      </trkpt>
      <trkpt lat="49.26218" lon="2.37937">
        <ele>34.6</ele>
        <time>2024-09-01T08:29:01Z</time>
      </trkpt>
      <trkpt lat="49.26218" lon="2.37939">
        <ele>34.7</ele>
        <time>2024-09-01T08:29:02Z</time>
      </trkpt>
      <trkpt lat="49.26219" lon="2.37941">
        <ele>34.8</ele>
        <time>2024-09-01T08:29:03Z</time>
      </trkpt>
      <trkpt lat="49.26219" lon="2.37944">
        <ele>34.9</ele>
        <time>2024-09-01T08:29:04Z</time>
      </trkpt>
      <trkpt lat="49.2622" lon="2.37946">
        <ele>34.9</ele>
        <time>2024-09-01T08:29:05Z</time>
      </trkpt>
      <trkpt lat="49.26221" lon="2.37949">
        <ele>34.8</ele>
        <time>2024-09-01T08:29:06Z</time>
      </trkpt>
      <trkpt lat="49.26221" lon="2.37952">
        <ele>34.7</ele>
        <time>2024-09-01T08:29:07Z</time>
      </trkpt>
      <trkpt lat="49.26222" lon="2.37955">
        <ele>34.6</ele>
        <time>2024-09-01T08:29:08Z</time>
      </trkpt>
      <trkpt lat="49.26223" lon="2.37957">
        <ele>34.5</ele>
        <time>2024-09-01T08:29:09Z</time>
      </trkpt>
      <trkpt lat="49.26224" lon="2.3796">
        <ele>34.4</ele>
        <time>2024-09-01T08:29:10Z</time>
      </trkpt>
      <trkpt lat="49.26224" lon="2.37963">
        <ele>34.3</ele>
        <time>2024-09-01T08:29:11Z</time>
      </trkpt>
      <trkpt lat="49.26225" lon="2.37965">
        <ele>34.1</ele>
        <time>2024-09-01T08:29:12Z</time>
      </trkpt>
      <trkpt lat="49.26226" lon="2.37967">
        <ele>34</ele>
        <time>2024-09-01T08:29:13Z</time>
      </trkpt>
      <trkpt lat="49.26226" lon="2.3797">
        <ele>33.9</ele>
        <time>2024-09-01T08:29:14Z</time>
      </trkpt>
      <trkpt lat="49.26227" lon="2.37972">
        <ele>33.8</ele>
        <time>2024-09-01T08:29:15Z</time>
      </trkpt>
      <trkpt lat="49.26227" lon="2.37974">
        <ele>33.8</ele>
        <time>2024-09-01T08:29:16Z</time>
      </trkpt>
      <trkpt lat="49.26228" lon="2.37976">
        <ele>33.7</ele>
        <time>2024-09-01T08:29:17Z</time>
      </trkpt>
      <trkpt lat="49.26228" lon="2.37978">
        <ele>33.7</ele>
        <time>2024-09-01T08:29:18Z</time>
      </trkpt>
      <trkpt lat="49.26229" lon="2.3798">
        <ele>33.6</ele>
        <time>2024-09-01T08:29:19Z</time>
      </trkpt>
      <trkpt lat="49.26229" lon="2.37983">
        <ele>33.6</ele>
        <time>2024-09-01T08:29:20Z</time>
      </trkpt>
      <trkpt lat="49.26229" lon="2.37985">
        <ele>33.5</ele>
        <time>2024-09-01T08:29:21Z</time>
      </trkpt>
      <trkpt lat="49.2623" lon="2.37987">
        <ele>33.5</ele>
        <time>2024-09-01T08:29:22Z</time>
      </trkpt>
      <trkpt lat="49.26231" lon="2.3799">
        <ele>33.5</ele>
        <time>2024-09-01T08:29:23Z</time>
      </trkpt>
      <trkpt lat="49.26231" lon="2.37992">
        <ele>33.4</ele>
        <time>2024-09-01T08:29:24Z</time>
      </trkpt>
      <trkpt lat="49.26232" lon="2.37994">
        <ele>33.4</ele>
        <time>2024-09-01T08:29:25Z</time>
      </trkpt>
      <trkpt lat="49.26233" lon="2.37997">
        <ele>33.4</ele>
        <time>2024-09-01T08:29:26Z</time>
      </trkpt>
      <trkpt lat="49.26234" lon="2.37999">
        <ele>33.4</ele>
        <time>2024-09-01T08:29:27Z</time>
      </trkpt>
      <trkpt lat="49.26235" lon="2.38002">
        <ele>33.5</ele>
        <time>2024-09-01T08:29:28Z</time>
      </trkpt>
      <trkpt lat="49.26236" lon="2.38004">
        <ele>33.6</ele>
        <time>2024-09-01T08:29:29Z</time>
      </trkpt>
      <trkpt lat="49.26237" lon="2.38006">
        <ele>33.6</ele>
        <time>2024-09-01T08:29:30Z</time>
      </trkpt>
      <trkpt lat="49.26238" lon="2.38008">
        <ele>33.7</ele>
        <time>2024-09-01T08:29:31Z</time>
      </trkpt>
      <trkpt lat="49.26238" lon="2.3801">
        <ele>33.7</ele>
        <time>2024-09-01T08:29:32Z</time>
      </trkpt>
      <trkpt lat="49.26239" lon="2.38012">
        <ele>33.8</ele>
        <time>2024-09-01T08:29:33Z</time>
      </trkpt>
      <trkpt lat="49.2624" lon="2.38013">
        <ele>33.8</ele>
        <time>2024-09-01T08:29:34Z</time>
      </trkpt>
      <trkpt lat="49.26241" lon="2.38015">
        <ele>33.9</ele>
        <time>2024-09-01T08:29:35Z</time>
      </trkpt>
      <trkpt lat="49.26243" lon="2.38017">
        <ele>33.9</ele>
        <time>2024-09-01T08:29:36Z</time>
      </trkpt>
      <trkpt lat="49.26244" lon="2.38019">
        <ele>33.9</ele>
        <time>2024-09-01T08:29:37Z</time>
      </trkpt>
      <trkpt lat="49.26245" lon="2.38021">
        <ele>33.9</ele>
        <time>2024-09-01T08:29:38Z</time>
      </trkpt>
      <trkpt lat="49.26246" lon="2.38023">
        <ele>34</ele>
        <time>2024-09-01T08:29:39Z</time>
      </trkpt>
      <trkpt lat="49.26247" lon="2.38025">
        <ele>34</ele>
        <time>2024-09-01T08:29:40Z</time>
      </trkpt>
      <trkpt lat="49.26248" lon="2.38027">
        <ele>34</ele>
        <time>2024-09-01T08:29:41Z</time>
      </trkpt>
      <trkpt lat="49.26249" lon="2.38029">
        <ele>34</ele>
        <time>2024-09-01T08:29:42Z</time>
      </trkpt>
      <trkpt lat="49.2625" lon="2.3803">
        <ele>34</ele>
        <time>2024-09-01T08:29:43Z</time>
      </trkpt>
      <trkpt lat="49.26251" lon="2.38032">
        <ele>34</ele>
        <time>2024-09-01T08:29:44Z</time>
      </trkpt>
      <trkpt lat="49.26251" lon="2.38035">
        <ele>34</ele>
        <time>2024-09-01T08:29:45Z</time>
      </trkpt>
      <trkpt lat="49.26252" lon="2.38037">
        <ele>34</ele>
        <time>2024-09-01T08:29:46Z</time>
      </trkpt>
      <trkpt lat="49.26253" lon="2.38039">
        <ele>33.9</ele>
        <time>2024-09-01T08:29:47Z</time>
      </trkpt>
      <trkpt lat="49.26253" lon="2.38041">
        <ele>33.9</ele>
        <time>2024-09-01T08:29:48Z</time>
      </trkpt>
      <trkpt lat="49.26254" lon="2.38043">
        <ele>33.9</ele>
        <time>2024-09-01T08:29:49Z</time>
      </trkpt>
      <trkpt lat="49.26255" lon="2.38045">
        <ele>33.9</ele>
        <time>2024-09-01T08:29:50Z</time>
      </trkpt>
      <trkpt lat="49.26256" lon="2.38048">
        <ele>33.9</ele>
        <time>2024-09-01T08:29:51Z</time>
      </trkpt>
      <trkpt lat="49.26257" lon="2.3805">
        <ele>34</ele>
        <time>2024-09-01T08:29:52Z</time>
      </trkpt>
      <trkpt lat="49.26258" lon="2.38053">
        <ele>34</ele>
        <time>2024-09-01T08:29:53Z</time>
      </trkpt>
      <trkpt lat="49.26258" lon="2.38055">
        <ele>34</ele>
        <time>2024-09-01T08:29:54Z</time>
      </trkpt>
      <trkpt lat="49.26259" lon="2.38058">
        <ele>34</ele>
        <time>2024-09-01T08:29:55Z</time>
      </trkpt>
      <trkpt lat="49.2626" lon="2.38061">
        <ele>33.9</ele>
        <time>2024-09-01T08:29:56Z</time>
      </trkpt>
      <trkpt lat="49.26261" lon="2.38063">
        <ele>33.9</ele>
        <time>2024-09-01T08:29:57Z</time>
      </trkpt>
      <trkpt lat="49.26262" lon="2.38065">
        <ele>33.9</ele>
        <time>2024-09-01T08:29:58Z</time>
      </trkpt>
      <trkpt lat="49.26262" lon="2.38067">
        <ele>33.8</ele>
        <time>2024-09-01T08:29:59Z</time>
      </trkpt>
      <trkpt lat="49.26263" lon="2.38069">
        <ele>33.8</ele>
        <time>2024-09-01T08:30:00Z</time>
      </trkpt>
      <trkpt lat="49.26263" lon="2.38072">
        <ele>33.7</ele>
        <time>2024-09-01T08:30:01Z</time>
      </trkpt>
      <trkpt lat="49.26263" lon="2.38074">
        <ele>33.7</ele>
        <time>2024-09-01T08:30:02Z</time>
      </trkpt>
      <trkpt lat="49.26263" lon="2.38077">
        <ele>33.7</ele>
        <time>2024-09-01T08:30:03Z</time>
      </trkpt>
      <trkpt lat="49.26263" lon="2.38079">
        <ele>33.6</ele>
        <time>2024-09-01T08:30:04Z</time>
      </trkpt>
      <trkpt lat="49.26262" lon="2.38081">
        <ele>33.6</ele>
        <time>2024-09-01T08:30:05Z</time>
      </trkpt>
      <trkpt lat="49.26262" lon="2.38084">
        <ele>33.6</ele>
        <time>2024-09-01T08:30:06Z</time>
      </trkpt>
      <trkpt lat="49.2626" lon="2.38086">
        <ele>33.7</ele>
        <time>2024-09-01T08:30:16Z</time>
      </trkpt>
      <trkpt lat="49.26259" lon="2.38087">
        <ele>33.7</ele>
        <time>2024-09-01T08:30:17Z</time>
      </trkpt>
      <trkpt lat="49.26259" lon="2.38087">
        <ele>33.7</ele>
        <time>2024-09-01T08:30:18Z</time>
      </trkpt>
      <trkpt lat="49.26258" lon="2.38087">
        <ele>33.8</ele>
        <time>2024-09-01T08:30:19Z</time>
      </trkpt>
      <trkpt lat="49.26257" lon="2.38087">
        <ele>33.8</ele>
        <time>2024-09-01T08:30:20Z</time>
      </trkpt>
      <trkpt lat="49.26256" lon="2.38087">
        <ele>33.8</ele>
        <time>2024-09-01T08:30:21Z</time>
      </trkpt>
      <trkpt lat="49.26254" lon="2.38087">
        <ele>33.9</ele>
        <time>2024-09-01T08:30:22Z</time>
      </trkpt>
      <trkpt lat="49.26254" lon="2.38087">
        <ele>33.9</ele>
        <time>2024-09-01T08:30:23Z</time>
      </trkpt>
      <trkpt lat="49.26253" lon="2.38087">
        <ele>33.9</ele>
        <time>2024-09-01T08:30:24Z</time>
      </trkpt>
      <trkpt lat="49.26252" lon="2.38087">
        <ele>33.9</ele>
        <time>2024-09-01T08:30:25Z</time>
      </trkpt>
      <trkpt lat="49.26251" lon="2.38087">
        <ele>34</ele>
        <time>2024-09-01T08:30:26Z</time>
      </trkpt>
      <trkpt lat="49.26249" lon="2.38087">
        <ele>34</ele>
        <time>2024-09-01T08:30:27Z</time>
      </trkpt>
      <trkpt lat="49.26248" lon="2.38087">
        <ele>34</ele>
        <time>2024-09-01T08:30:28Z</time>
      </trkpt>
      <trkpt lat="49.26247" lon="2.38087">
        <ele>34</ele>
        <time>2024-09-01T08:30:29Z</time>
      </trkpt>
      <trkpt lat="49.26246" lon="2.38088">
        <ele>34</ele>
        <time>2024-09-01T08:30:30Z</time>
      </trkpt>
      <trkpt lat="49.26245" lon="2.38088">
        <ele>34</ele>
        <time>2024-09-01T08:30:31Z</time>
      </trkpt>
      <trkpt lat="49.26243" lon="2.38088">
        <ele>34</ele>
        <time>2024-09-01T08:30:32Z</time>
      </trkpt>
      <trkpt lat="49.26242" lon="2.38089">
        <ele>33.9</ele>
        <time>2024-09-01T08:30:33Z</time>
      </trkpt>
      <trkpt lat="49.2624" lon="2.38089">
        <ele>33.9</ele>
        <time>2024-09-01T08:30:34Z</time>
      </trkpt>
      <trkpt lat="49.26239" lon="2.3809">
        <ele>33.9</ele>
        <time>2024-09-01T08:30:35Z</time>
      </trkpt>
      <trkpt lat="49.26238" lon="2.38091">
        <ele>33.9</ele>
        <time>2024-09-01T08:30:36Z</time>
      </trkpt>
      <trkpt lat="49.26236" lon="2.38093">
        <ele>33.8</ele>
        <time>2024-09-01T08:30:37Z</time>
      </trkpt>
      <trkpt lat="49.26235" lon="2.38094">
        <ele>33.8</ele>
        <time>2024-09-01T08:30:38Z</time>
      </trkpt>
      <trkpt lat="49.26233" lon="2.38096">
        <ele>33.7</ele>
        <time>2024-09-01T08:30:39Z</time>
      </trkpt>
      <trkpt lat="49.26232" lon="2.38098">
        <ele>33.7</ele>
        <time>2024-09-01T08:30:40Z</time>
      </trkpt>
      <trkpt lat="49.26231" lon="2.381">
        <ele>33.6</ele>
        <time>2024-09-01T08:30:41Z</time>
      </trkpt>
      <trkpt lat="49.26229" lon="2.38102">
        <ele>33.5</ele>
        <time>2024-09-01T08:30:42Z</time>
      </trkpt>
      <trkpt lat="49.26228" lon="2.38104">
        <ele>33.4</ele>
        <time>2024-09-01T08:30:43Z</time>
      </trkpt>
      <trkpt lat="49.26227" lon="2.38105">
        <ele>33.3</ele>
        <time>2024-09-01T08:30:44Z</time>
      </trkpt>
      <trkpt lat="49.26225" lon="2.38106">
        <ele>33.3</ele>
        <time>2024-09-01T08:30:45Z</time>
      </trkpt>
      <trkpt lat="49.26224" lon="2.38108">
        <ele>33.2</ele>
        <time>2024-09-01T08:30:46Z</time>
      </trkpt>
      <trkpt lat="49.26223" lon="2.38109">
        <ele>33.1</ele>
        <time>2024-09-01T08:30:47Z</time>
      </trkpt>
      <trkpt lat="49.26222" lon="2.3811">
        <ele>33.1</ele>
        <time>2024-09-01T08:30:48Z</time>
      </trkpt>
      <trkpt lat="49.26221" lon="2.38112">
        <ele>33.1</ele>
        <time>2024-09-01T08:30:49Z</time>
      </trkpt>
      <trkpt lat="49.2622" lon="2.38113">
        <ele>33.1</ele>
        <time>2024-09-01T08:30:50Z</time>
      </trkpt>
      <trkpt lat="49.26219" lon="2.38115">
        <ele>33.1</ele>
        <time>2024-09-01T08:30:51Z</time>
      </trkpt>
      <trkpt lat="49.26218" lon="2.38117">
        <ele>33.1</ele>
        <time>2024-09-01T08:30:52Z</time>
      </trkpt>
      <trkpt lat="49.26217" lon="2.38119">
        <ele>33.1</ele>
        <time>2024-09-01T08:30:53Z</time>
      </trkpt>
      <trkpt lat="49.26216" lon="2.38122">
        <ele>33.1</ele>
        <time>2024-09-01T08:30:54Z</time>
      </trkpt>
      <trkpt lat="49.26215" lon="2.38124">
        <ele>33.1</ele>
        <time>2024-09-01T08:30:55Z</time>
      </trkpt>
      <trkpt lat="49.26214" lon="2.38126">
        <ele>33.1</ele>
        <time>2024-09-01T08:30:56Z</time>
      </trkpt>
      <trkpt lat="49.26213" lon="2.38129">
        <ele>33.1</ele>
        <time>2024-09-01T08:30:57Z</time>
      </trkpt>
      <trkpt lat="49.26212" lon="2.38131">
        <ele>33.1</ele>
        <time>2024-09-01T08:30:58Z</time>
      </trkpt>
      <trkpt lat="49.2621" lon="2.38134">
        <ele>33.1</ele>
        <time>2024-09-01T08:30:59Z</time>
      </trkpt>
      <trkpt lat="49.26209" lon="2.38136">
        <ele>33</ele>
        <time>2024-09-01T08:31:00Z</time>
      </trkpt>
      <trkpt lat="49.26207" lon="2.38139">
        <ele>33</ele>
        <time>2024-09-01T08:31:01Z</time>
      </trkpt>
      <trkpt lat="49.26206" lon="2.38141">
        <ele>33</ele>
        <time>2024-09-01T08:31:02Z</time>
      </trkpt>
      <trkpt lat="49.26204" lon="2.38143">
        <ele>33</ele>
        <time>2024-09-01T08:31:03Z</time>
      </trkpt>
      <trkpt lat="49.26203" lon="2.38144">
        <ele>33</ele>
        <time>2024-09-01T08:31:04Z</time>
      </trkpt>
      <trkpt lat="49.26201" lon="2.38146">
        <ele>33</ele>
        <time>2024-09-01T08:31:05Z</time>
      </trkpt>
      <trkpt lat="49.262" lon="2.38147">
        <ele>33</ele>
        <time>2024-09-01T08:31:06Z</time>
      </trkpt>
      <trkpt lat="49.26198" lon="2.38148">
        <ele>33</ele>
        <time>2024-09-01T08:31:07Z</time>
      </trkpt>
      <trkpt lat="49.26197" lon="2.3815">
        <ele>33</ele>
        <time>2024-09-01T08:31:08Z</time>
      </trkpt>
      <trkpt lat="49.26195" lon="2.38151">
        <ele>33</ele>
        <time>2024-09-01T08:31:09Z</time>
      </trkpt>
      <trkpt lat="49.26194" lon="2.38153">
        <ele>33</ele>
        <time>2024-09-01T08:31:10Z</time>
      </trkpt>
      <trkpt lat="49.26193" lon="2.38156">
        <ele>33.1</ele>
        <time>2024-09-01T08:31:11Z</time>
      </trkpt>
      <trkpt lat="49.26191" lon="2.38158">
        <ele>33.2</ele>
        <time>2024-09-01T08:31:12Z</time>
      </trkpt>
      <trkpt lat="49.26191" lon="2.38161">
        <ele>33.3</ele>
        <time>2024-09-01T08:31:13Z</time>
      </trkpt>
      <trkpt lat="49.2619" lon="2.38164">
        <ele>33.3</ele>
        <time>2024-09-01T08:31:14Z</time>
      </trkpt>
      <trkpt lat="49.2619" lon="2.38167">
        <ele>33.4</ele>
        <time>2024-09-01T08:31:15Z</time>
      </trkpt>
      <trkpt lat="49.26189" lon="2.38169">
        <ele>33.4</ele>
        <time>2024-09-01T08:31:16Z</time>
      </trkpt>
      <trkpt lat="49.26189" lon="2.38172">
        <ele>33.4</ele>
        <time>2024-09-01T08:31:17Z</time>
      </trkpt>
      <trkpt lat="49.26189" lon="2.38174">
        <ele>33.4</ele>
        <time>2024-09-01T08:31:18Z</time>
      </trkpt>
      <trkpt lat="49.26189" lon="2.38177">
        <ele>33.4</ele>
        <time>2024-09-01T08:31:19Z</time>
      </trkpt>
      <trkpt lat="49.26189" lon="2.38179">
        <ele>33.4</ele>
        <time>2024-09-01T08:31:20Z</time>
      </trkpt>
      <trkpt lat="49.26189" lon="2.38181">
        <ele>33.4</ele>
        <time>2024-09-01T08:31:21Z</time>
      </trkpt>
      <trkpt lat="49.26189" lon="2.38183">
        <ele>33.4</ele>
        <time>2024-09-01T08:31:22Z</time>
      </trkpt>
      <trkpt lat="49.26189" lon="2.38186">
        <ele>33.4</ele>
        <time>2024-09-01T08:31:23Z</time>
      </trkpt>
      <trkpt lat="49.26189" lon="2.38188">
        <ele>33.4</ele>
        <time>2024-09-01T08:31:24Z</time>
      </trkpt>
      <trkpt lat="49.26189" lon="2.3819">
        <ele>33.4</ele>
        <time>2024-09-01T08:31:25Z</time>
      </trkpt>
      <trkpt lat="49.26189" lon="2.38193">
        <ele>33.4</ele>
        <time>2024-09-01T08:31:26Z</time>
      </trkpt>
      <trkpt lat="49.26189" lon="2.38195">
        <ele>33.4</ele>
        <time>2024-09-01T08:31:27Z</time>
      </trkpt>
      <trkpt lat="49.26189" lon="2.38197">
        <ele>33.4</ele>
        <time>2024-09-01T08:31:28Z</time>
      </trkpt>
      <trkpt lat="49.26189" lon="2.38199">
        <ele>33.4</ele>
        <time>2024-09-01T08:31:29Z</time>
      </trkpt>
      <trkpt lat="49.26189" lon="2.38201">
        <ele>33.4</ele>
        <time>2024-09-01T08:31:30Z</time>
      </trkpt>
      <trkpt lat="49.26188" lon="2.38203">
        <ele>33.4</ele>
        <time>2024-09-01T08:31:31Z</time>
      </trkpt>
      <trkpt lat="49.26188" lon="2.38205">
        <ele>33.5</ele>
        <time>2024-09-01T08:31:32Z</time>
      </trkpt>
      <trkpt lat="49.26188" lon="2.38207">
        <ele>33.5</ele>
        <time>2024-09-01T08:31:33Z</time>
      </trkpt>
      <trkpt lat="49.26188" lon="2.38209">
        <ele>33.5</ele>
        <time>2024-09-01T08:31:34Z</time>
      </trkpt>
      <trkpt lat="49.26187" lon="2.38211">
        <ele>33.5</ele>
        <time>2024-09-01T08:31:35Z</time>
      </trkpt>
      <trkpt lat="49.26187" lon="2.38213">
        <ele>33.5</ele>
        <time>2024-09-01T08:31:36Z</time>
      </trkpt>
      <trkpt lat="49.26187" lon="2.38216">
        <ele>33.5</ele>
        <time>2024-09-01T08:31:37Z</time>
      </trkpt>
      <trkpt lat="49.26187" lon="2.38219">
        <ele>33.5</ele>
        <time>2024-09-01T08:31:38Z</time>
      </trkpt>
      <trkpt lat="49.26187" lon="2.38221">
        <ele>33.5</ele>
        <time>2024-09-01T08:31:39Z</time>
      </trkpt>
      <trkpt lat="49.26188" lon="2.38224">
        <ele>33.5</ele>
        <time>2024-09-01T08:31:40Z</time>
      </trkpt>
      <trkpt lat="49.26187" lon="2.38226">
        <ele>33.5</ele>
        <time>2024-09-01T08:31:41Z</time>
      </trkpt>
      <trkpt lat="49.26187" lon="2.38229">
        <ele>33.5</ele>
        <time>2024-09-01T08:31:42Z</time>
      </trkpt>
      <trkpt lat="49.26187" lon="2.38232">
        <ele>33.5</ele>
        <time>2024-09-01T08:31:43Z</time>
      </trkpt>
      <trkpt lat="49.26186" lon="2.38234">
        <ele>33.5</ele>
        <time>2024-09-01T08:31:44Z</time>
      </trkpt>
      <trkpt lat="49.26186" lon="2.38237">
        <ele>33.4</ele>
        <time>2024-09-01T08:31:45Z</time>
      </trkpt>
      <trkpt lat="49.26186" lon="2.38239">
        <ele>33.4</ele>
        <time>2024-09-01T08:31:46Z</time>
      </trkpt>
      <trkpt lat="49.26187" lon="2.38241">
        <ele>33.4</ele>
        <time>2024-09-01T08:31:47Z</time>
      </trkpt>
      <trkpt lat="49.26187" lon="2.38243">
        <ele>33.3</ele>
        <time>2024-09-01T08:31:48Z</time>
      </trkpt>
      <trkpt lat="49.26187" lon="2.38245">
        <ele>33.3</ele>
        <time>2024-09-01T08:31:49Z</time>
      </trkpt>
      <trkpt lat="49.26187" lon="2.38248">
        <ele>33.3</ele>
        <time>2024-09-01T08:31:50Z</time>
      </trkpt>
      <trkpt lat="49.26187" lon="2.3825">
        <ele>33.3</ele>
        <time>2024-09-01T08:31:51Z</time>
      </trkpt>
      <trkpt lat="49.26188" lon="2.38252">
        <ele>33.2</ele>
        <time>2024-09-01T08:31:52Z</time>
      </trkpt>
      <trkpt lat="49.26188" lon="2.38255">
        <ele>33.2</ele>
        <time>2024-09-01T08:31:53Z</time>
      </trkpt>
      <trkpt lat="49.26188" lon="2.38257">
        <ele>33.2</ele>
        <time>2024-09-01T08:31:54Z</time>
      </trkpt>
      <trkpt lat="49.26188" lon="2.3826">
        <ele>33.2</ele>
        <time>2024-09-01T08:31:55Z</time>
      </trkpt>
      <trkpt lat="49.26188" lon="2.38262">
        <ele>33.2</ele>
        <time>2024-09-01T08:31:56Z</time>
      </trkpt>
      <trkpt lat="49.26187" lon="2.38265">
        <ele>33.3</ele>
        <time>2024-09-01T08:31:57Z</time>
      </trkpt>
      <trkpt lat="49.26187" lon="2.38268">
        <ele>33.3</ele>
        <time>2024-09-01T08:31:58Z</time>
      </trkpt>
      <trkpt lat="49.26187" lon="2.3827">
        <ele>33.3</ele>
        <time>2024-09-01T08:31:59Z</time>
      </trkpt>
      <trkpt lat="49.26187" lon="2.38273">
        <ele>33.3</ele>
        <time>2024-09-01T08:32:00Z</time>
      </trkpt>
      <trkpt lat="49.26187" lon="2.38275">
        <ele>33.3</ele>
        <time>2024-09-01T08:32:01Z</time>
      </trkpt>
      <trkpt lat="49.26187" lon="2.38278">
        <ele>33.3</ele>
        <time>2024-09-01T08:32:02Z</time>
      </trkpt>
      <trkpt lat="49.26188" lon="2.3828">
        <ele>33.3</ele>
        <time>2024-09-01T08:32:03Z</time>
      </trkpt>
      <trkpt lat="49.26188" lon="2.38283">
        <ele>33.3</ele>
        <time>2024-09-01T08:32:04Z</time>
      </trkpt>
      <trkpt lat="49.26188" lon="2.38286">
        <ele>33.3</ele>
        <time>2024-09-01T08:32:05Z</time>
      </trkpt>
      <trkpt lat="49.26189" lon="2.38288">
        <ele>33.3</ele>
        <time>2024-09-01T08:32:06Z</time>
      </trkpt>
      <trkpt lat="49.26189" lon="2.38291">
        <ele>33.3</ele>
        <time>2024-09-01T08:32:07Z</time>
      </trkpt>
      <trkpt lat="49.26189" lon="2.38294">
        <ele>33.3</ele>
        <time>2024-09-01T08:32:08Z</time>
      </trkpt>
      <trkpt lat="49.26189" lon="2.38296">
        <ele>33.3</ele>
        <time>2024-09-01T08:32:09Z</time>
      </trkpt>
      <trkpt lat="49.26189" lon="2.38299">
        <ele>33.4</ele>
        <time>2024-09-01T08:32:10Z</time>
      </trkpt>
      <trkpt lat="49.26188" lon="2.38302">
        <ele>33.4</ele>
        <time>2024-09-01T08:32:11Z</time>
      </trkpt>
      <trkpt lat="49.26188" lon="2.38305">
        <ele>33.5</ele>
        <time>2024-09-01T08:32:12Z</time>
      </trkpt>
      <trkpt lat="49.26188" lon="2.38307">
        <ele>33.5</ele>
        <time>2024-09-01T08:32:13Z</time>
      </trkpt>
      <trkpt lat="49.26187" lon="2.3831">
        <ele>33.5</ele>
        <time>2024-09-01T08:32:14Z</time>
      </trkpt>
      <trkpt lat="49.26187" lon="2.38312">
        <ele>33.5</ele>
        <time>2024-09-01T08:32:15Z</time>
      </trkpt>
      <trkpt lat="49.26187" lon="2.38315">
        <ele>33.5</ele>
        <time>2024-09-01T08:32:16Z</time>
      </trkpt>
      <trkpt lat="49.26187" lon="2.38317">
        <ele>33.5</ele>
        <time>2024-09-01T08:32:17Z</time>
      </trkpt>
      <trkpt lat="49.26187" lon="2.38319">
        <ele>33.5</ele>
        <time>2024-09-01T08:32:18Z</time>
      </trkpt>
      <trkpt lat="49.26187" lon="2.38322">
        <ele>33.5</ele>
        <time>2024-09-01T08:32:19Z</time>
      </trkpt>
      <trkpt lat="49.26187" lon="2.38324">
        <ele>33.5</ele>
        <time>2024-09-01T08:32:20Z</time>
      </trkpt>
      <trkpt lat="49.26187" lon="2.38327">
        <ele>33.5</ele>
        <time>2024-09-01T08:32:21Z</time>
      </trkpt>
      <trkpt lat="49.26187" lon="2.38329">
        <ele>33.5</ele>
        <time>2024-09-01T08:32:22Z</time>
      </trkpt>
      <trkpt lat="49.26187" lon="2.38331">
        <ele>33.5</ele>
        <time>2024-09-01T08:32:23Z</time>
      </trkpt>
      <trkpt lat="49.26187" lon="2.38334">
        <ele>33.5</ele>
        <time>2024-09-01T08:32:24Z</time>
      </trkpt>
      <trkpt lat="49.26187" lon="2.38336">
        <ele>33.5</ele>
        <time>2024-09-01T08:32:25Z</time>
      </trkpt>
      <trkpt lat="49.26187" lon="2.38338">
        <ele>33.5</ele>
        <time>2024-09-01T08:32:26Z</time>
      </trkpt>
      <trkpt lat="49.26187" lon="2.3834">
        <ele>33.6</ele>
        <time>2024-09-01T08:32:27Z</time>
      </trkpt>
      <trkpt lat="49.26186" lon="2.38342">
        <ele>33.6</ele>
        <time>2024-09-01T08:32:28Z</time>
      </trkpt>
      <trkpt lat="49.26186" lon="2.38344">
        <ele>33.6</ele>
        <time>2024-09-01T08:32:29Z</time>
      </trkpt>
      <trkpt lat="49.26185" lon="2.38346">
        <ele>33.7</ele>
        <time>2024-09-01T08:32:30Z</time>
      </trkpt>
      <trkpt lat="49.26184" lon="2.38348">
        <ele>33.7</ele>
        <time>2024-09-01T08:32:31Z</time>
      </trkpt>
      <trkpt lat="49.26184" lon="2.38351">
        <ele>33.8</ele>
        <time>2024-09-01T08:32:32Z</time>
      </trkpt>
      <trkpt lat="49.26184" lon="2.38353">
        <ele>33.8</ele>
        <time>2024-09-01T08:32:33Z</time>
      </trkpt>
      <trkpt lat="49.26183" lon="2.38356">
        <ele>33.8</ele>
        <time>2024-09-01T08:32:34Z</time>
      </trkpt>
      <trkpt lat="49.26183" lon="2.38359">
        <ele>33.8</ele>
        <time>2024-09-01T08:32:35Z</time>
      </trkpt>
      <trkpt lat="49.26183" lon="2.38361">
        <ele>33.8</ele>
        <time>2024-09-01T08:32:36Z</time>
      </trkpt>
      <trkpt lat="49.26183" lon="2.38364">
        <ele>33.8</ele>
        <time>2024-09-01T08:32:37Z</time>
      </trkpt>
      <trkpt lat="49.26183" lon="2.38366">
        <ele>33.8</ele>
        <time>2024-09-01T08:32:38Z</time>
      </trkpt>
      <trkpt lat="49.26183" lon="2.38369">
        <ele>33.8</ele>
        <time>2024-09-01T08:32:39Z</time>
      </trkpt>
      <trkpt lat="49.26183" lon="2.38371">
        <ele>33.8</ele>
        <time>2024-09-01T08:32:40Z</time>
      </trkpt>
      <trkpt lat="49.26183" lon="2.38372">
        <ele>33.8</ele>
        <time>2024-09-01T08:32:41Z</time>
      </trkpt>
      <trkpt lat="49.26183" lon="2.38374">
        <ele>33.8</ele>
        <time>2024-09-01T08:32:42Z</time>
      </trkpt>
      <trkpt lat="49.26183" lon="2.38376">
        <ele>33.8</ele>
        <time>2024-09-01T08:32:43Z</time>
      </trkpt>
      <trkpt lat="49.26183" lon="2.38378">
        <ele>33.8</ele>
        <time>2024-09-01T08:32:44Z</time>
      </trkpt>
      <trkpt lat="49.26183" lon="2.3838">
        <ele>33.9</ele>
        <time>2024-09-01T08:32:45Z</time>
      </trkpt>
      <trkpt lat="49.26183" lon="2.38383">
        <ele>33.9</ele>
        <time>2024-09-01T08:32:46Z</time>
      </trkpt>
      <trkpt lat="49.26182" lon="2.38385">
        <ele>33.9</ele>
        <time>2024-09-01T08:32:47Z</time>
      </trkpt>
      <trkpt lat="49.26182" lon="2.38387">
        <ele>33.9</ele>
        <time>2024-09-01T08:32:48Z</time>
      </trkpt>
      <trkpt lat="49.26182" lon="2.38389">
        <ele>33.9</ele>
        <time>2024-09-01T08:32:49Z</time>
      </trkpt>
      <trkpt lat="49.26181" lon="2.38392">
        <ele>33.9</ele>
        <time>2024-09-01T08:32:50Z</time>
      </trkpt>
      <trkpt lat="49.26181" lon="2.38394">
        <ele>33.9</ele>
        <time>2024-09-01T08:32:51Z</time>
      </trkpt>
      <trkpt lat="49.26181" lon="2.38397">
        <ele>33.9</ele>
        <time>2024-09-01T08:32:52Z</time>
      </trkpt>
      <trkpt lat="49.26181" lon="2.38399">
        <ele>33.8</ele>
        <time>2024-09-01T08:32:53Z</time>
      </trkpt>
      <trkpt lat="49.26181" lon="2.38401">
        <ele>33.8</ele>
        <time>2024-09-01T08:32:54Z</time>
      </trkpt>
      <trkpt lat="49.26181" lon="2.38403">
        <ele>33.7</ele>
        <time>2024-09-01T08:32:55Z</time>
      </trkpt>
      <trkpt lat="49.26181" lon="2.38406">
        <ele>33.7</ele>
        <time>2024-09-01T08:32:56Z</time>
      </trkpt>
      <trkpt lat="49.26182" lon="2.38407">
        <ele>33.6</ele>
        <time>2024-09-01T08:32:57Z</time>
      </trkpt>
      <trkpt lat="49.26182" lon="2.38409">
        <ele>33.6</ele>
        <time>2024-09-01T08:32:58Z</time>
      </trkpt>
      <trkpt lat="49.26182" lon="2.38411">
        <ele>33.6</ele>
        <time>2024-09-01T08:32:59Z</time>
      </trkpt>
      <trkpt lat="49.26182" lon="2.38413">
        <ele>33.5</ele>
        <time>2024-09-01T08:33:00Z</time>
      </trkpt>
      <trkpt lat="49.26181" lon="2.38414">
        <ele>33.5</ele>
        <time>2024-09-01T08:33:01Z</time>
      </trkpt>
      <trkpt lat="49.26181" lon="2.38416">
        <ele>33.5</ele>
        <time>2024-09-01T08:33:02Z</time>
      </trkpt>
      <trkpt lat="49.26181" lon="2.38418">
        <ele>33.5</ele>
        <time>2024-09-01T08:33:03Z</time>
      </trkpt>
      <trkpt lat="49.26181" lon="2.3842">
        <ele>33.5</ele>
        <time>2024-09-01T08:33:04Z</time>
      </trkpt>
      <trkpt lat="49.26181" lon="2.38422">
        <ele>33.5</ele>
        <time>2024-09-01T08:33:05Z</time>
      </trkpt>
      <trkpt lat="49.26181" lon="2.38425">
        <ele>33.5</ele>
        <time>2024-09-01T08:33:06Z</time>
      </trkpt>
      <trkpt lat="49.2618" lon="2.38427">
        <ele>33.5</ele>
        <time>2024-09-01T08:33:07Z</time>
      </trkpt>
      <trkpt lat="49.2618" lon="2.3843">
        <ele>33.5</ele>
        <time>2024-09-01T08:33:08Z</time>
      </trkpt>
      <trkpt lat="49.2618" lon="2.38432">
        <ele>33.5</ele>
        <time>2024-09-01T08:33:09Z</time>
      </trkpt>
      <trkpt lat="49.2618" lon="2.38435">
        <ele>33.5</ele>
        <time>2024-09-01T08:33:10Z</time>
      </trkpt>
      <trkpt lat="49.2618" lon="2.38437">
        <ele>33.5</ele>
        <time>2024-09-01T08:33:11Z</time>
      </trkpt>
      <trkpt lat="49.2618" lon="2.3844">
        <ele>33.5</ele>
        <time>2024-09-01T08:33:12Z</time>
      </trkpt>
      <trkpt lat="49.2618" lon="2.38442">
        <ele>33.5</ele>
        <time>2024-09-01T08:33:13Z</time>
      </trkpt>
      <trkpt lat="49.2618" lon="2.38444">
        <ele>33.5</ele>
        <time>2024-09-01T08:33:14Z</time>
      </trkpt>
      <trkpt lat="49.2618" lon="2.38446">
        <ele>33.5</ele>
        <time>2024-09-01T08:33:15Z</time>
      </trkpt>
      <trkpt lat="49.2618" lon="2.38448">
        <ele>33.5</ele>
        <time>2024-09-01T08:33:16Z</time>
      </trkpt>
      <trkpt lat="49.2618" lon="2.38451">
        <ele>33.5</ele>
        <time>2024-09-01T08:33:17Z</time>
      </trkpt>
      <trkpt lat="49.26181" lon="2.38453">
        <ele>33.5</ele>
        <time>2024-09-01T08:33:18Z</time>
      </trkpt>
      <trkpt lat="49.26181" lon="2.38455">
        <ele>33.5</ele>
        <time>2024-09-01T08:33:19Z</time>
      </trkpt>
      <trkpt lat="49.26181" lon="2.38457">
        <ele>33.5</ele>
        <time>2024-09-01T08:33:20Z</time>
      </trkpt>
      <trkpt lat="49.26181" lon="2.3846">
        <ele>33.5</ele>
        <time>2024-09-01T08:33:21Z</time>
      </trkpt>
      <trkpt lat="49.26181" lon="2.38463">
        <ele>33.5</ele>
        <time>2024-09-01T08:33:22Z</time>
      </trkpt>
      <trkpt lat="49.2618" lon="2.38465">
        <ele>33.5</ele>
        <time>2024-09-01T08:33:23Z</time>
      </trkpt>
      <trkpt lat="49.2618" lon="2.38468">
        <ele>33.5</ele>
        <time>2024-09-01T08:33:24Z</time>
      </trkpt>
      <trkpt lat="49.2618" lon="2.38471">
        <ele>33.5</ele>
        <time>2024-09-01T08:33:25Z</time>
      </trkpt>
      <trkpt lat="49.2618" lon="2.38473">
        <ele>33.5</ele>
        <time>2024-09-01T08:33:26Z</time>
      </trkpt>
      <trkpt lat="49.2618" lon="2.38476">
        <ele>33.5</ele>
        <time>2024-09-01T08:33:27Z</time>
      </trkpt>
      <trkpt lat="49.2618" lon="2.38479">
        <ele>33.5</ele>
        <time>2024-09-01T08:33:28Z</time>
      </trkpt>
      <trkpt lat="49.2618" lon="2.38482">
        <ele>33.5</ele>
        <time>2024-09-01T08:33:29Z</time>
      </trkpt>
      <trkpt lat="49.2618" lon="2.38485">
        <ele>33.5</ele>
        <time>2024-09-01T08:33:30Z</time>
      </trkpt>
      <trkpt lat="49.2618" lon="2.38488">
        <ele>33.5</ele>
        <time>2024-09-01T08:33:31Z</time>
      </trkpt>
      <trkpt lat="49.2618" lon="2.38491">
        <ele>33.5</ele>
        <time>2024-09-01T08:33:32Z</time>
      </trkpt>
      <trkpt lat="49.26181" lon="2.38495">
        <ele>33.5</ele>
        <time>2024-09-01T08:33:33Z</time>
      </trkpt>
      <trkpt lat="49.26181" lon="2.38498">
        <ele>33.5</ele>
        <time>2024-09-01T08:33:34Z</time>
      </trkpt>
      <trkpt lat="49.26181" lon="2.38502">
        <ele>33.5</ele>
        <time>2024-09-01T08:33:35Z</time>
      </trkpt>
      <trkpt lat="49.26181" lon="2.38505">
        <ele>33.5</ele>
        <time>2024-09-01T08:33:36Z</time>
      </trkpt>
      <trkpt lat="49.26181" lon="2.38509">
        <ele>33.5</ele>
        <time>2024-09-01T08:33:37Z</time>
      </trkpt>
      <trkpt lat="49.26181" lon="2.38512">
        <ele>33.5</ele>
        <time>2024-09-01T08:33:38Z</time>
      </trkpt>
      <trkpt lat="49.26181" lon="2.38514">
        <ele>33.5</ele>
        <time>2024-09-01T08:33:39Z</time>
      </trkpt>
      <trkpt lat="49.26181" lon="2.38517">
        <ele>33.5</ele>
        <time>2024-09-01T08:33:40Z</time>
      </trkpt>
      <trkpt lat="49.26181" lon="2.38519">
        <ele>33.5</ele>
        <time>2024-09-01T08:33:41Z</time>
      </trkpt>
      <trkpt lat="49.2618" lon="2.38521">
        <ele>33.5</ele>
        <time>2024-09-01T08:33:42Z</time>
      </trkpt>
      <trkpt lat="49.2618" lon="2.38523">
        <ele>33.5</ele>
        <time>2024-09-01T08:33:43Z</time>
      </trkpt>
      <trkpt lat="49.2618" lon="2.38525">
        <ele>33.5</ele>
        <time>2024-09-01T08:33:44Z</time>
      </trkpt>
      <trkpt lat="49.26179" lon="2.38527">
        <ele>33.5</ele>
        <time>2024-09-01T08:33:45Z</time>
      </trkpt>
      <trkpt lat="49.26179" lon="2.38529">
        <ele>33.6</ele>
        <time>2024-09-01T08:33:46Z</time>
      </trkpt>
      <trkpt lat="49.26178" lon="2.38532">
        <ele>33.6</ele>
        <time>2024-09-01T08:33:47Z</time>
      </trkpt>
      <trkpt lat="49.26178" lon="2.38534">
        <ele>33.6</ele>
        <time>2024-09-01T08:33:48Z</time>
      </trkpt>
      <trkpt lat="49.26178" lon="2.38536">
        <ele>33.6</ele>
        <time>2024-09-01T08:33:49Z</time>
      </trkpt>
      <trkpt lat="49.26177" lon="2.38538">
        <ele>33.6</ele>
        <time>2024-09-01T08:33:50Z</time>
      </trkpt>
      <trkpt lat="49.26177" lon="2.38541">
        <ele>33.6</ele>
        <time>2024-09-01T08:33:51Z</time>
      </trkpt>
      <trkpt lat="49.26177" lon="2.38543">
        <ele>33.6</ele>
        <time>2024-09-01T08:33:52Z</time>
      </trkpt>
      <trkpt lat="49.26177" lon="2.38545">
        <ele>33.6</ele>
        <time>2024-09-01T08:33:53Z</time>
      </trkpt>
      <trkpt lat="49.26177" lon="2.38548">
        <ele>33.6</ele>
        <time>2024-09-01T08:33:54Z</time>
      </trkpt>
      <trkpt lat="49.26176" lon="2.3855">
        <ele>33.6</ele>
        <time>2024-09-01T08:33:55Z</time>
      </trkpt>
      <trkpt lat="49.26176" lon="2.38553">
        <ele>33.7</ele>
        <time>2024-09-01T08:33:56Z</time>
      </trkpt>
      <trkpt lat="49.26176" lon="2.38556">
        <ele>33.6</ele>
        <time>2024-09-01T08:33:57Z</time>
      </trkpt>
      <trkpt lat="49.26176" lon="2.38559">
        <ele>33.6</ele>
        <time>2024-09-01T08:33:58Z</time>
      </trkpt>
      <trkpt lat="49.26177" lon="2.38561">
        <ele>33.6</ele>
        <time>2024-09-01T08:33:59Z</time>
      </trkpt>
      <trkpt lat="49.26177" lon="2.38564">
        <ele>33.6</ele>
        <time>2024-09-01T08:34:00Z</time>
      </trkpt>
      <trkpt lat="49.26177" lon="2.38566">
        <ele>33.6</ele>
        <time>2024-09-01T08:34:01Z</time>
      </trkpt>
      <trkpt lat="49.26177" lon="2.38569">
        <ele>33.6</ele>
        <time>2024-09-01T08:34:02Z</time>
      </trkpt>
      <trkpt lat="49.26177" lon="2.38571">
        <ele>33.6</ele>
        <time>2024-09-01T08:34:03Z</time>
      </trkpt>
      <trkpt lat="49.26177" lon="2.38574">
        <ele>33.6</ele>
        <time>2024-09-01T08:34:04Z</time>
      </trkpt>
      <trkpt lat="49.26177" lon="2.38576">
        <ele>33.6</ele>
        <time>2024-09-01T08:34:05Z</time>
      </trkpt>
      <trkpt lat="49.26177" lon="2.38578">
        <ele>33.6</ele>
        <time>2024-09-01T08:34:06Z</time>
      </trkpt>
      <trkpt lat="49.26176" lon="2.38581">
        <ele>33.6</ele>
        <time>2024-09-01T08:34:07Z</time>
      </trkpt>
      <trkpt lat="49.26176" lon="2.38583">
        <ele>33.7</ele>
        <time>2024-09-01T08:34:08Z</time>
      </trkpt>
      <trkpt lat="49.26176" lon="2.38585">
        <ele>33.7</ele>
        <time>2024-09-01T08:34:09Z</time>
      </trkpt>
      <trkpt lat="49.26176" lon="2.38588">
        <ele>33.7</ele>
        <time>2024-09-01T08:34:10Z</time>
      </trkpt>
      <trkpt lat="49.26175" lon="2.3859">
        <ele>33.7</ele>
        <time>2024-09-01T08:34:11Z</time>
      </trkpt>
      <trkpt lat="49.26175" lon="2.38593">
        <ele>33.7</ele>
        <time>2024-09-01T08:34:12Z</time>
      </trkpt>
      <trkpt lat="49.26175" lon="2.38595">
        <ele>33.7</ele>
        <time>2024-09-01T08:34:13Z</time>
      </trkpt>
      <trkpt lat="49.26175" lon="2.38598">
        <ele>33.7</ele>
        <time>2024-09-01T08:34:14Z</time>
      </trkpt>
      <trkpt lat="49.26175" lon="2.38601">
        <ele>33.7</ele>
        <time>2024-09-01T08:34:15Z</time>
      </trkpt>
      <trkpt lat="49.26175" lon="2.38604">
        <ele>33.7</ele>
        <time>2024-09-01T08:34:16Z</time>
      </trkpt>
      <trkpt lat="49.26175" lon="2.38607">
        <ele>33.7</ele>
        <time>2024-09-01T08:34:17Z</time>
      </trkpt>
      <trkpt lat="49.26175" lon="2.38609">
        <ele>33.7</ele>
        <time>2024-09-01T08:34:18Z</time>
      </trkpt>
      <trkpt lat="49.26175" lon="2.38612">
        <ele>33.7</ele>
        <time>2024-09-01T08:34:19Z</time>
      </trkpt>
      <trkpt lat="49.26175" lon="2.38615">
        <ele>33.7</ele>
        <time>2024-09-01T08:34:20Z</time>
      </trkpt>
      <trkpt lat="49.26175" lon="2.38618">
        <ele>33.7</ele>
        <time>2024-09-01T08:34:21Z</time>
      </trkpt>
      <trkpt lat="49.26175" lon="2.38621">
        <ele>33.7</ele>
        <time>2024-09-01T08:34:22Z</time>
      </trkpt>
      <trkpt lat="49.26175" lon="2.38624">
        <ele>33.7</ele>
        <time>2024-09-01T08:34:23Z</time>
      </trkpt>
      <trkpt lat="49.26174" lon="2.38627">
        <ele>33.7</ele>
        <time>2024-09-01T08:34:24Z</time>
      </trkpt>
      <trkpt lat="49.26174" lon="2.3863">
        <ele>33.7</ele>
        <time>2024-09-01T08:34:25Z</time>
      </trkpt>
      <trkpt lat="49.26174" lon="2.38632">
        <ele>33.7</ele>
        <time>2024-09-01T08:34:26Z</time>
      </trkpt>
      <trkpt lat="49.26174" lon="2.38634">
        <ele>33.8</ele>
        <time>2024-09-01T08:34:27Z</time>
      </trkpt>
      <trkpt lat="49.26174" lon="2.38637">
        <ele>33.8</ele>
        <time>2024-09-01T08:34:28Z</time>
      </trkpt>
      <trkpt lat="49.26174" lon="2.38639">
        <ele>33.8</ele>
        <time>2024-09-01T08:34:29Z</time>
      </trkpt>
      <trkpt lat="49.26174" lon="2.38641">
        <ele>33.8</ele>
        <time>2024-09-01T08:34:30Z</time>
      </trkpt>
      <trkpt lat="49.26174" lon="2.38644">
        <ele>33.8</ele>
        <time>2024-09-01T08:34:31Z</time>
      </trkpt>
      <trkpt lat="49.26174" lon="2.38646">
        <ele>33.8</ele>
        <time>2024-09-01T08:34:32Z</time>
      </trkpt>
      <trkpt lat="49.26174" lon="2.38649">
        <ele>33.8</ele>
        <time>2024-09-01T08:34:33Z</time>
      </trkpt>
      <trkpt lat="49.26174" lon="2.38651">
        <ele>33.7</ele>
        <time>2024-09-01T08:34:34Z</time>
      </trkpt>
      <trkpt lat="49.26174" lon="2.38653">
        <ele>33.7</ele>
        <time>2024-09-01T08:34:35Z</time>
      </trkpt>
      <trkpt lat="49.26175" lon="2.38656">
        <ele>33.7</ele>
        <time>2024-09-01T08:34:36Z</time>
      </trkpt>
      <trkpt lat="49.26175" lon="2.38658">
        <ele>33.7</ele>
        <time>2024-09-01T08:34:37Z</time>
      </trkpt>
      <trkpt lat="49.26176" lon="2.3866">
        <ele>33.7</ele>
        <time>2024-09-01T08:34:38Z</time>
      </trkpt>
      <trkpt lat="49.26176" lon="2.38663">
        <ele>33.7</ele>
        <time>2024-09-01T08:34:39Z</time>
      </trkpt>
      <trkpt lat="49.26177" lon="2.38666">
        <ele>33.6</ele>
        <time>2024-09-01T08:34:40Z</time>
      </trkpt>
      <trkpt lat="49.26177" lon="2.38668">
        <ele>33.6</ele>
        <time>2024-09-01T08:34:41Z</time>
      </trkpt>
      <trkpt lat="49.26177" lon="2.38671">
        <ele>33.6</ele>
        <time>2024-09-01T08:34:42Z</time>
      </trkpt>
      <trkpt lat="49.26176" lon="2.38673">
        <ele>33.5</ele>
        <time>2024-09-01T08:34:43Z</time>
      </trkpt>
      <trkpt lat="49.26176" lon="2.38676">
        <ele>33.4</ele>
        <time>2024-09-01T08:34:44Z</time>
      </trkpt>
      <trkpt lat="49.26176" lon="2.38679">
        <ele>33.4</ele>
        <time>2024-09-01T08:34:45Z</time>
      </trkpt>
      <trkpt lat="49.26176" lon="2.38682">
        <ele>33.3</ele>
        <time>2024-09-01T08:34:46Z</time>
      </trkpt>
      <trkpt lat="49.26176" lon="2.38684">
        <ele>33.2</ele>
        <time>2024-09-01T08:34:47Z</time>
      </trkpt>
      <trkpt lat="49.26176" lon="2.38687">
        <ele>33.2</ele>
        <time>2024-09-01T08:34:48Z</time>
      </trkpt>
      <trkpt lat="49.26176" lon="2.38689">
        <ele>33.1</ele>
        <time>2024-09-01T08:34:49Z</time>
      </trkpt>
      <trkpt lat="49.26175" lon="2.38692">
        <ele>33.1</ele>
        <time>2024-09-01T08:34:50Z</time>
      </trkpt>
      <trkpt lat="49.26175" lon="2.38694">
        <ele>33</ele>
        <time>2024-09-01T08:34:51Z</time>
      </trkpt>
      <trkpt lat="49.26175" lon="2.38697">
        <ele>33</ele>
        <time>2024-09-01T08:34:52Z</time>
      </trkpt>
      <trkpt lat="49.26175" lon="2.387">
        <ele>33</ele>
        <time>2024-09-01T08:34:53Z</time>
      </trkpt>
      <trkpt lat="49.26174" lon="2.38702">
        <ele>33</ele>
        <time>2024-09-01T08:34:54Z</time>
      </trkpt>
      <trkpt lat="49.26174" lon="2.38705">
        <ele>33</ele>
        <time>2024-09-01T08:34:55Z</time>
      </trkpt>
      <trkpt lat="49.26174" lon="2.38708">
        <ele>33</ele>
        <time>2024-09-01T08:34:56Z</time>
      </trkpt>
      <trkpt lat="49.26173" lon="2.3871">
        <ele>33</ele>
        <time>2024-09-01T08:34:57Z</time>
      </trkpt>
      <trkpt lat="49.26173" lon="2.38713">
        <ele>33</ele>
        <time>2024-09-01T08:34:58Z</time>
      </trkpt>
      <trkpt lat="49.26173" lon="2.38715">
        <ele>33</ele>
        <time>2024-09-01T08:34:59Z</time>
      </trkpt>
      <trkpt lat="49.26173" lon="2.38717">
        <ele>33</ele>
        <time>2024-09-01T08:35:00Z</time>
      </trkpt>
      <trkpt lat="49.26173" lon="2.3872">
        <ele>33</ele>
        <time>2024-09-01T08:35:01Z</time>
      </trkpt>
      <trkpt lat="49.26173" lon="2.38722">
        <ele>33</ele>
        <time>2024-09-01T08:35:02Z</time>
      </trkpt>
      <trkpt lat="49.26172" lon="2.38725">
        <ele>33</ele>
        <time>2024-09-01T08:35:03Z</time>
      </trkpt>
      <trkpt lat="49.26172" lon="2.38727">
        <ele>33</ele>
        <time>2024-09-01T08:35:04Z</time>
      </trkpt>
      <trkpt lat="49.26172" lon="2.3873">
        <ele>33</ele>
        <time>2024-09-01T08:35:05Z</time>
      </trkpt>
      <trkpt lat="49.26172" lon="2.38732">
        <ele>33</ele>
        <time>2024-09-01T08:35:06Z</time>
      </trkpt>
      <trkpt lat="49.26172" lon="2.38735">
        <ele>33</ele>
        <time>2024-09-01T08:35:07Z</time>
      </trkpt>
      <trkpt lat="49.26172" lon="2.38737">
        <ele>33</ele>
        <time>2024-09-01T08:35:08Z</time>
      </trkpt>
      <trkpt lat="49.26172" lon="2.3874">
        <ele>33</ele>
        <time>2024-09-01T08:35:09Z</time>
      </trkpt>
      <trkpt lat="49.26172" lon="2.38742">
        <ele>33</ele>
        <time>2024-09-01T08:35:10Z</time>
      </trkpt>
      <trkpt lat="49.26172" lon="2.38745">
        <ele>33</ele>
        <time>2024-09-01T08:35:11Z</time>
      </trkpt>
      <trkpt lat="49.26171" lon="2.38747">
        <ele>33</ele>
        <time>2024-09-01T08:35:12Z</time>
      </trkpt>
      <trkpt lat="49.26171" lon="2.38749">
        <ele>33</ele>
        <time>2024-09-01T08:35:13Z</time>
      </trkpt>
      <trkpt lat="49.26171" lon="2.38752">
        <ele>33</ele>
        <time>2024-09-01T08:35:14Z</time>
      </trkpt>
      <trkpt lat="49.26171" lon="2.38754">
        <ele>33</ele>
        <time>2024-09-01T08:35:15Z</time>
      </trkpt>
      <trkpt lat="49.26171" lon="2.38756">
        <ele>33</ele>
        <time>2024-09-01T08:35:16Z</time>
      </trkpt>
      <trkpt lat="49.26171" lon="2.38759">
        <ele>33</ele>
        <time>2024-09-01T08:35:17Z</time>
      </trkpt>
      <trkpt lat="49.26172" lon="2.38762">
        <ele>33</ele>
        <time>2024-09-01T08:35:18Z</time>
      </trkpt>
      <trkpt lat="49.26172" lon="2.38764">
        <ele>33</ele>
        <time>2024-09-01T08:35:19Z</time>
      </trkpt>
      <trkpt lat="49.26172" lon="2.38767">
        <ele>33</ele>
        <time>2024-09-01T08:35:20Z</time>
      </trkpt>
      <trkpt lat="49.26172" lon="2.38769">
        <ele>33</ele>
        <time>2024-09-01T08:35:21Z</time>
      </trkpt>
      <trkpt lat="49.26172" lon="2.38772">
        <ele>33</ele>
        <time>2024-09-01T08:35:22Z</time>
      </trkpt>
      <trkpt lat="49.26171" lon="2.38774">
        <ele>33</ele>
        <time>2024-09-01T08:35:23Z</time>
      </trkpt>
      <trkpt lat="49.26171" lon="2.38777">
        <ele>33</ele>
        <time>2024-09-01T08:35:24Z</time>
      </trkpt>
      <trkpt lat="49.26171" lon="2.38779">
        <ele>33</ele>
        <time>2024-09-01T08:35:25Z</time>
      </trkpt>
      <trkpt lat="49.26171" lon="2.38782">
        <ele>33</ele>
        <time>2024-09-01T08:35:26Z</time>
      </trkpt>
      <trkpt lat="49.26171" lon="2.38785">
        <ele>33</ele>
        <time>2024-09-01T08:35:27Z</time>
      </trkpt>
      <trkpt lat="49.26171" lon="2.38788">
        <ele>33</ele>
        <time>2024-09-01T08:35:28Z</time>
      </trkpt>
      <trkpt lat="49.26171" lon="2.38791">
        <ele>33</ele>
        <time>2024-09-01T08:35:29Z</time>
      </trkpt>
      <trkpt lat="49.26171" lon="2.38793">
        <ele>33</ele>
        <time>2024-09-01T08:35:30Z</time>
      </trkpt>
      <trkpt lat="49.26171" lon="2.38796">
        <ele>33</ele>
        <time>2024-09-01T08:35:31Z</time>
      </trkpt>
      <trkpt lat="49.26171" lon="2.38798">
        <ele>33</ele>
        <time>2024-09-01T08:35:32Z</time>
      </trkpt>
      <trkpt lat="49.26171" lon="2.388">
        <ele>33</ele>
        <time>2024-09-01T08:35:33Z</time>
      </trkpt>
      <trkpt lat="49.26171" lon="2.38802">
        <ele>33</ele>
        <time>2024-09-01T08:35:34Z</time>
      </trkpt>
      <trkpt lat="49.26171" lon="2.38804">
        <ele>33</ele>
        <time>2024-09-01T08:35:35Z</time>
      </trkpt>
      <trkpt lat="49.26171" lon="2.38806">
        <ele>33</ele>
        <time>2024-09-01T08:35:36Z</time>
      </trkpt>
      <trkpt lat="49.26172" lon="2.38808">
        <ele>33</ele>
        <time>2024-09-01T08:35:37Z</time>
      </trkpt>
      <trkpt lat="49.26172" lon="2.3881">
        <ele>33</ele>
        <time>2024-09-01T08:35:38Z</time>
      </trkpt>
      <trkpt lat="49.26172" lon="2.38812">
        <ele>33</ele>
        <time>2024-09-01T08:35:39Z</time>
      </trkpt>
      <trkpt lat="49.26171" lon="2.38815">
        <ele>33</ele>
        <time>2024-09-01T08:35:40Z</time>
      </trkpt>
      <trkpt lat="49.26171" lon="2.38817">
        <ele>33</ele>
        <time>2024-09-01T08:35:41Z</time>
      </trkpt>
      <trkpt lat="49.26171" lon="2.38819">
        <ele>33</ele>
        <time>2024-09-01T08:35:42Z</time>
      </trkpt>
      <trkpt lat="49.26171" lon="2.38822">
        <ele>33</ele>
        <time>2024-09-01T08:35:43Z</time>
      </trkpt>
      <trkpt lat="49.26171" lon="2.38824">
        <ele>33</ele>
        <time>2024-09-01T08:35:44Z</time>
      </trkpt>
      <trkpt lat="49.2617" lon="2.38827">
        <ele>33</ele>
        <time>2024-09-01T08:35:45Z</time>
      </trkpt>
      <trkpt lat="49.2617" lon="2.3883">
        <ele>33</ele>
        <time>2024-09-01T08:35:46Z</time>
      </trkpt>
      <trkpt lat="49.2617" lon="2.38833">
        <ele>33</ele>
        <time>2024-09-01T08:35:47Z</time>
      </trkpt>
      <trkpt lat="49.2617" lon="2.38836">
        <ele>33.1</ele>
        <time>2024-09-01T08:35:48Z</time>
      </trkpt>
      <trkpt lat="49.2617" lon="2.38838">
        <ele>33.1</ele>
        <time>2024-09-01T08:35:49Z</time>
      </trkpt>
      <trkpt lat="49.2617" lon="2.3884">
        <ele>33.2</ele>
        <time>2024-09-01T08:35:50Z</time>
      </trkpt>
      <trkpt lat="49.2617" lon="2.38842">
        <ele>33.3</ele>
        <time>2024-09-01T08:35:51Z</time>
      </trkpt>
      <trkpt lat="49.2617" lon="2.38844">
        <ele>33.4</ele>
        <time>2024-09-01T08:35:52Z</time>
      </trkpt>
      <trkpt lat="49.26169" lon="2.38847">
        <ele>33.4</ele>
        <time>2024-09-01T08:35:53Z</time>
      </trkpt>
      <trkpt lat="49.26169" lon="2.38849">
        <ele>33.5</ele>
        <time>2024-09-01T08:35:54Z</time>
      </trkpt>
      <trkpt lat="49.26169" lon="2.38851">
        <ele>33.6</ele>
        <time>2024-09-01T08:35:55Z</time>
      </trkpt>
      <trkpt lat="49.26169" lon="2.38854">
        <ele>33.7</ele>
        <time>2024-09-01T08:35:56Z</time>
      </trkpt>
      <trkpt lat="49.26169" lon="2.38856">
        <ele>33.7</ele>
        <time>2024-09-01T08:35:57Z</time>
      </trkpt>
      <trkpt lat="49.26169" lon="2.38858">
        <ele>33.8</ele>
        <time>2024-09-01T08:35:58Z</time>
      </trkpt>
      <trkpt lat="49.26168" lon="2.3886">
        <ele>33.9</ele>
        <time>2024-09-01T08:35:59Z</time>
      </trkpt>
      <trkpt lat="49.26168" lon="2.38862">
        <ele>33.9</ele>
        <time>2024-09-01T08:36:00Z</time>
      </trkpt>
      <trkpt lat="49.26168" lon="2.38864">
        <ele>34</ele>
        <time>2024-09-01T08:36:01Z</time>
      </trkpt>
      <trkpt lat="49.26167" lon="2.38866">
        <ele>34</ele>
        <time>2024-09-01T08:36:02Z</time>
      </trkpt>
      <trkpt lat="49.26167" lon="2.38868">
        <ele>34</ele>
        <time>2024-09-01T08:36:03Z</time>
      </trkpt>
      <trkpt lat="49.26166" lon="2.3887">
        <ele>34</ele>
        <time>2024-09-01T08:36:04Z</time>
      </trkpt>
      <trkpt lat="49.26166" lon="2.38872">
        <ele>34</ele>
        <time>2024-09-01T08:36:05Z</time>
      </trkpt>
      <trkpt lat="49.26166" lon="2.38874">
        <ele>34</ele>
        <time>2024-09-01T08:36:06Z</time>
      </trkpt>
      <trkpt lat="49.26165" lon="2.38876">
        <ele>34</ele>
        <time>2024-09-01T08:36:07Z</time>
      </trkpt>
      <trkpt lat="49.26165" lon="2.38878">
        <ele>33.9</ele>
        <time>2024-09-01T08:36:08Z</time>
      </trkpt>
      <trkpt lat="49.26165" lon="2.3888">
        <ele>33.9</ele>
        <time>2024-09-01T08:36:09Z</time>
      </trkpt>
      <trkpt lat="49.26165" lon="2.38883">
        <ele>33.9</ele>
        <time>2024-09-01T08:36:10Z</time>
      </trkpt>
      <trkpt lat="49.26165" lon="2.38885">
        <ele>33.9</ele>
        <time>2024-09-01T08:36:11Z</time>
      </trkpt>
      <trkpt lat="49.26165" lon="2.38887">
        <ele>33.9</ele>
        <time>2024-09-01T08:36:12Z</time>
      </trkpt>
      <trkpt lat="49.26165" lon="2.38889">
        <ele>33.9</ele>
        <time>2024-09-01T08:36:13Z</time>
      </trkpt>
      <trkpt lat="49.26165" lon="2.38891">
        <ele>33.9</ele>
        <time>2024-09-01T08:36:14Z</time>
      </trkpt>
      <trkpt lat="49.26165" lon="2.38893">
        <ele>33.8</ele>
        <time>2024-09-01T08:36:15Z</time>
      </trkpt>
      <trkpt lat="49.26165" lon="2.38895">
        <ele>33.8</ele>
        <time>2024-09-01T08:36:16Z</time>
      </trkpt>
      <trkpt lat="49.26166" lon="2.38897">
        <ele>33.7</ele>
        <time>2024-09-01T08:36:17Z</time>
      </trkpt>
      <trkpt lat="49.26166" lon="2.38899">
        <ele>33.6</ele>
        <time>2024-09-01T08:36:18Z</time>
      </trkpt>
      <trkpt lat="49.26166" lon="2.38901">
        <ele>33.5</ele>
        <time>2024-09-01T08:36:19Z</time>
      </trkpt>
      <trkpt lat="49.26166" lon="2.38904">
        <ele>33.5</ele>
        <time>2024-09-01T08:36:20Z</time>
      </trkpt>
      <trkpt lat="49.26166" lon="2.38907">
        <ele>33.4</ele>
        <time>2024-09-01T08:36:21Z</time>
      </trkpt>
      <trkpt lat="49.26167" lon="2.3891">
        <ele>33.2</ele>
        <time>2024-09-01T08:36:22Z</time>
      </trkpt>
      <trkpt lat="49.26167" lon="2.38913">
        <ele>33.1</ele>
        <time>2024-09-01T08:36:23Z</time>
      </trkpt>
      <trkpt lat="49.26167" lon="2.38916">
        <ele>33</ele>
        <time>2024-09-01T08:36:24Z</time>
      </trkpt>
      <trkpt lat="49.26167" lon="2.38919">
        <ele>33</ele>
        <time>2024-09-01T08:36:25Z</time>
      </trkpt>
      <trkpt lat="49.26167" lon="2.38922">
        <ele>33</ele>
        <time>2024-09-01T08:36:26Z</time>
      </trkpt>
      <trkpt lat="49.26168" lon="2.38925">
        <ele>33</ele>
        <time>2024-09-01T08:36:27Z</time>
      </trkpt>
      <trkpt lat="49.26168" lon="2.38928">
        <ele>33</ele>
        <time>2024-09-01T08:36:28Z</time>
      </trkpt>
      <trkpt lat="49.26168" lon="2.3893">
        <ele>33</ele>
        <time>2024-09-01T08:36:29Z</time>
      </trkpt>
      <trkpt lat="49.26168" lon="2.38933">
        <ele>33</ele>
        <time>2024-09-01T08:36:30Z</time>
      </trkpt>
      <trkpt lat="49.26168" lon="2.38936">
        <ele>33</ele>
        <time>2024-09-01T08:36:31Z</time>
      </trkpt>
      <trkpt lat="49.26169" lon="2.38938">
        <ele>33</ele>
        <time>2024-09-01T08:36:32Z</time>
      </trkpt>
      <trkpt lat="49.26169" lon="2.38941">
        <ele>33</ele>
        <time>2024-09-01T08:36:33Z</time>
      </trkpt>
      <trkpt lat="49.26169" lon="2.38943">
        <ele>33</ele>
        <time>2024-09-01T08:36:34Z</time>
      </trkpt>
      <trkpt lat="49.2617" lon="2.38946">
        <ele>33</ele>
        <time>2024-09-01T08:36:35Z</time>
      </trkpt>
      <trkpt lat="49.2617" lon="2.38948">
        <ele>33</ele>
        <time>2024-09-01T08:36:36Z</time>
      </trkpt>
      <trkpt lat="49.2617" lon="2.38951">
        <ele>33</ele>
        <time>2024-09-01T08:36:37Z</time>
      </trkpt>
      <trkpt lat="49.2617" lon="2.38954">
        <ele>33</ele>
        <time>2024-09-01T08:36:38Z</time>
      </trkpt>
      <trkpt lat="49.2617" lon="2.38956">
        <ele>33</ele>
        <time>2024-09-01T08:36:39Z</time>
      </trkpt>
      <trkpt lat="49.2617" lon="2.38958">
        <ele>33</ele>
        <time>2024-09-01T08:36:40Z</time>
      </trkpt>
      <trkpt lat="49.2617" lon="2.38961">
        <ele>33</ele>
        <time>2024-09-01T08:36:41Z</time>
      </trkpt>
      <trkpt lat="49.2617" lon="2.38963">
        <ele>33</ele>
        <time>2024-09-01T08:36:42Z</time>
      </trkpt>
      <trkpt lat="49.2617" lon="2.38965">
        <ele>33</ele>
        <time>2024-09-01T08:36:43Z</time>
      </trkpt>
      <trkpt lat="49.2617" lon="2.38968">
        <ele>33</ele>
        <time>2024-09-01T08:36:44Z</time>
      </trkpt>
      <trkpt lat="49.2617" lon="2.3897">
        <ele>33</ele>
        <time>2024-09-01T08:36:45Z</time>
      </trkpt>
      <trkpt lat="49.26169" lon="2.38973">
        <ele>33</ele>
        <time>2024-09-01T08:36:46Z</time>
      </trkpt>
      <trkpt lat="49.26169" lon="2.38975">
        <ele>33</ele>
        <time>2024-09-01T08:36:47Z</time>
      </trkpt>
      <trkpt lat="49.26169" lon="2.38978">
        <ele>33</ele>
        <time>2024-09-01T08:36:48Z</time>
      </trkpt>
      <trkpt lat="49.26168" lon="2.3898">
        <ele>33</ele>
        <time>2024-09-01T08:36:49Z</time>
      </trkpt>
      <trkpt lat="49.26168" lon="2.38983">
        <ele>33</ele>
        <time>2024-09-01T08:36:50Z</time>
      </trkpt>
      <trkpt lat="49.26168" lon="2.38985">
        <ele>33</ele>
        <time>2024-09-01T08:36:51Z</time>
      </trkpt>
      <trkpt lat="49.26168" lon="2.38987">
        <ele>33</ele>
        <time>2024-09-01T08:36:52Z</time>
      </trkpt>
      <trkpt lat="49.26168" lon="2.3899">
        <ele>33</ele>
        <time>2024-09-01T08:36:53Z</time>
      </trkpt>
      <trkpt lat="49.26168" lon="2.38992">
        <ele>33</ele>
        <time>2024-09-01T08:36:54Z</time>
      </trkpt>
      <trkpt lat="49.26168" lon="2.38995">
        <ele>33</ele>
        <time>2024-09-01T08:36:55Z</time>
      </trkpt>
      <trkpt lat="49.26168" lon="2.38997">
        <ele>33</ele>
        <time>2024-09-01T08:36:56Z</time>
      </trkpt>
      <trkpt lat="49.26168" lon="2.39">
        <ele>33</ele>
        <time>2024-09-01T08:36:57Z</time>
      </trkpt>
      <trkpt lat="49.26168" lon="2.39003">
        <ele>33</ele>
        <time>2024-09-01T08:36:58Z</time>
      </trkpt>
      <trkpt lat="49.26168" lon="2.39006">
        <ele>33</ele>
        <time>2024-09-01T08:36:59Z</time>
      </trkpt>
      <trkpt lat="49.26167" lon="2.39009">
        <ele>33</ele>
        <time>2024-09-01T08:37:00Z</time>
      </trkpt>
      <trkpt lat="49.26167" lon="2.39011">
        <ele>33</ele>
        <time>2024-09-01T08:37:01Z</time>
      </trkpt>
      <trkpt lat="49.26167" lon="2.39013">
        <ele>33</ele>
        <time>2024-09-01T08:37:02Z</time>
      </trkpt>
      <trkpt lat="49.26167" lon="2.39016">
        <ele>33</ele>
        <time>2024-09-01T08:37:03Z</time>
      </trkpt>
      <trkpt lat="49.26166" lon="2.39018">
        <ele>33</ele>
        <time>2024-09-01T08:37:04Z</time>
      </trkpt>
      <trkpt lat="49.26166" lon="2.39021">
        <ele>33</ele>
        <time>2024-09-01T08:37:05Z</time>
      </trkpt>
      <trkpt lat="49.26166" lon="2.39023">
        <ele>33</ele>
        <time>2024-09-01T08:37:06Z</time>
      </trkpt>
      <trkpt lat="49.26167" lon="2.39026">
        <ele>33</ele>
        <time>2024-09-01T08:37:07Z</time>
      </trkpt>
      <trkpt lat="49.26167" lon="2.39028">
        <ele>33</ele>
        <time>2024-09-01T08:37:08Z</time>
      </trkpt>
      <trkpt lat="49.26167" lon="2.39031">
        <ele>33</ele>
        <time>2024-09-01T08:37:09Z</time>
      </trkpt>
      <trkpt lat="49.26167" lon="2.39034">
        <ele>33</ele>
        <time>2024-09-01T08:37:10Z</time>
      </trkpt>
      <trkpt lat="49.26167" lon="2.39036">
        <ele>33</ele>
        <time>2024-09-01T08:37:11Z</time>
      </trkpt>
      <trkpt lat="49.26167" lon="2.39039">
        <ele>33</ele>
        <time>2024-09-01T08:37:12Z</time>
      </trkpt>
      <trkpt lat="49.26167" lon="2.39041">
        <ele>33</ele>
        <time>2024-09-01T08:37:13Z</time>
      </trkpt>
      <trkpt lat="49.26167" lon="2.39044">
        <ele>33</ele>
        <time>2024-09-01T08:37:14Z</time>
      </trkpt>
      <trkpt lat="49.26167" lon="2.39046">
        <ele>33</ele>
        <time>2024-09-01T08:37:15Z</time>
      </trkpt>
      <trkpt lat="49.26167" lon="2.39049">
        <ele>33</ele>
        <time>2024-09-01T08:37:16Z</time>
      </trkpt>
      <trkpt lat="49.26167" lon="2.39051">
        <ele>33</ele>
        <time>2024-09-01T08:37:17Z</time>
      </trkpt>
      <trkpt lat="49.26168" lon="2.39053">
        <ele>33</ele>
        <time>2024-09-01T08:37:18Z</time>
      </trkpt>
      <trkpt lat="49.26167" lon="2.39056">
        <ele>33</ele>
        <time>2024-09-01T08:37:19Z</time>
      </trkpt>
      <trkpt lat="49.26167" lon="2.39058">
        <ele>33</ele>
        <time>2024-09-01T08:37:20Z</time>
      </trkpt>
      <trkpt lat="49.26167" lon="2.3906">
        <ele>33</ele>
        <time>2024-09-01T08:37:21Z</time>
      </trkpt>
      <trkpt lat="49.26166" lon="2.39063">
        <ele>33</ele>
        <time>2024-09-01T08:37:22Z</time>
      </trkpt>
      <trkpt lat="49.26166" lon="2.39065">
        <ele>33</ele>
        <time>2024-09-01T08:37:23Z</time>
      </trkpt>
      <trkpt lat="49.26166" lon="2.39067">
        <ele>33</ele>
        <time>2024-09-01T08:37:24Z</time>
      </trkpt>
      <trkpt lat="49.26166" lon="2.3907">
        <ele>33</ele>
        <time>2024-09-01T08:37:25Z</time>
      </trkpt>
      <trkpt lat="49.26166" lon="2.39072">
        <ele>33</ele>
        <time>2024-09-01T08:37:26Z</time>
      </trkpt>
      <trkpt lat="49.26165" lon="2.39074">
        <ele>33</ele>
        <time>2024-09-01T08:37:27Z</time>
      </trkpt>
      <trkpt lat="49.26165" lon="2.39077">
        <ele>33</ele>
        <time>2024-09-01T08:37:28Z</time>
      </trkpt>
      <trkpt lat="49.26165" lon="2.39079">
        <ele>33</ele>
        <time>2024-09-01T08:37:29Z</time>
      </trkpt>
      <trkpt lat="49.26164" lon="2.39081">
        <ele>33</ele>
        <time>2024-09-01T08:37:30Z</time>
      </trkpt>
      <trkpt lat="49.26164" lon="2.39083">
        <ele>33</ele>
        <time>2024-09-01T08:37:31Z</time>
      </trkpt>
      <trkpt lat="49.26164" lon="2.39086">
        <ele>33</ele>
        <time>2024-09-01T08:37:32Z</time>
      </trkpt>
      <trkpt lat="49.26164" lon="2.39088">
        <ele>33</ele>
        <time>2024-09-01T08:37:33Z</time>
      </trkpt>
      <trkpt lat="49.26163" lon="2.3909">
        <ele>33</ele>
        <time>2024-09-01T08:37:34Z</time>
      </trkpt>
      <trkpt lat="49.26163" lon="2.39092">
        <ele>33</ele>
        <time>2024-09-01T08:37:35Z</time>
      </trkpt>
      <trkpt lat="49.26162" lon="2.39095">
        <ele>33.1</ele>
        <time>2024-09-01T08:37:36Z</time>
      </trkpt>
      <trkpt lat="49.26162" lon="2.39097">
        <ele>33.1</ele>
        <time>2024-09-01T08:37:37Z</time>
      </trkpt>
      <trkpt lat="49.26162" lon="2.39099">
        <ele>33.1</ele>
        <time>2024-09-01T08:37:38Z</time>
      </trkpt>
      <trkpt lat="49.26162" lon="2.39101">
        <ele>33.1</ele>
        <time>2024-09-01T08:37:39Z</time>
      </trkpt>
      <trkpt lat="49.26161" lon="2.39104">
        <ele>33.1</ele>
        <time>2024-09-01T08:37:40Z</time>
      </trkpt>
      <trkpt lat="49.26161" lon="2.39106">
        <ele>33.2</ele>
        <time>2024-09-01T08:37:41Z</time>
      </trkpt>
      <trkpt lat="49.26161" lon="2.39108">
        <ele>33.2</ele>
        <time>2024-09-01T08:37:42Z</time>
      </trkpt>
      <trkpt lat="49.26161" lon="2.3911">
        <ele>33.2</ele>
        <time>2024-09-01T08:37:43Z</time>
      </trkpt>
      <trkpt lat="49.2616" lon="2.39112">
        <ele>33.2</ele>
        <time>2024-09-01T08:37:44Z</time>
      </trkpt>
      <trkpt lat="49.2616" lon="2.39114">
        <ele>33.2</ele>
        <time>2024-09-01T08:37:45Z</time>
      </trkpt>
      <trkpt lat="49.2616" lon="2.39116">
        <ele>33.2</ele>
        <time>2024-09-01T08:37:46Z</time>
      </trkpt>
      <trkpt lat="49.2616" lon="2.39119">
        <ele>33.2</ele>
        <time>2024-09-01T08:37:47Z</time>
      </trkpt>
      <trkpt lat="49.2616" lon="2.39121">
        <ele>33.2</ele>
        <time>2024-09-01T08:37:48Z</time>
      </trkpt>
      <trkpt lat="49.26161" lon="2.39124">
        <ele>33.2</ele>
        <time>2024-09-01T08:37:49Z</time>
      </trkpt>
      <trkpt lat="49.26161" lon="2.39126">
        <ele>33.2</ele>
        <time>2024-09-01T08:37:50Z</time>
      </trkpt>
      <trkpt lat="49.26161" lon="2.39129">
        <ele>33.2</ele>
        <time>2024-09-01T08:37:51Z</time>
      </trkpt>
      <trkpt lat="49.26161" lon="2.39131">
        <ele>33.2</ele>
        <time>2024-09-01T08:37:52Z</time>
      </trkpt>
      <trkpt lat="49.26161" lon="2.39134">
        <ele>33.2</ele>
        <time>2024-09-01T08:37:53Z</time>
      </trkpt>
      <trkpt lat="49.26161" lon="2.39137">
        <ele>33.2</ele>
        <time>2024-09-01T08:37:54Z</time>
      </trkpt>
      <trkpt lat="49.26161" lon="2.39139">
        <ele>33.2</ele>
        <time>2024-09-01T08:37:55Z</time>
      </trkpt>
      <trkpt lat="49.26161" lon="2.39142">
        <ele>33.2</ele>
        <time>2024-09-01T08:37:56Z</time>
      </trkpt>
      <trkpt lat="49.26161" lon="2.39145">
        <ele>33.2</ele>
        <time>2024-09-01T08:37:57Z</time>
      </trkpt>
      <trkpt lat="49.26162" lon="2.39148">
        <ele>33.2</ele>
        <time>2024-09-01T08:37:58Z</time>
      </trkpt>
      <trkpt lat="49.26161" lon="2.39151">
        <ele>33.2</ele>
        <time>2024-09-01T08:37:59Z</time>
      </trkpt>
      <trkpt lat="49.26161" lon="2.39154">
        <ele>33.2</ele>
        <time>2024-09-01T08:38:00Z</time>
      </trkpt>
      <trkpt lat="49.26161" lon="2.39156">
        <ele>33.2</ele>
        <time>2024-09-01T08:38:01Z</time>
      </trkpt>
      <trkpt lat="49.26161" lon="2.39159">
        <ele>33.2</ele>
        <time>2024-09-01T08:38:02Z</time>
      </trkpt>
      <trkpt lat="49.2616" lon="2.39161">
        <ele>33.2</ele>
        <time>2024-09-01T08:38:03Z</time>
      </trkpt>
      <trkpt lat="49.2616" lon="2.39164">
        <ele>33.2</ele>
        <time>2024-09-01T08:38:04Z</time>
      </trkpt>
      <trkpt lat="49.26159" lon="2.39166">
        <ele>33.3</ele>
        <time>2024-09-01T08:38:05Z</time>
      </trkpt>
      <trkpt lat="49.26159" lon="2.39168">
        <ele>33.3</ele>
        <time>2024-09-01T08:38:06Z</time>
      </trkpt>
      <trkpt lat="49.26159" lon="2.39171">
        <ele>33.3</ele>
        <time>2024-09-01T08:38:07Z</time>
      </trkpt>
      <trkpt lat="49.26158" lon="2.39173">
        <ele>33.3</ele>
        <time>2024-09-01T08:38:08Z</time>
      </trkpt>
      <trkpt lat="49.26158" lon="2.39176">
        <ele>33.3</ele>
        <time>2024-09-01T08:38:09Z</time>
      </trkpt>
      <trkpt lat="49.26158" lon="2.39178">
        <ele>33.3</ele>
        <time>2024-09-01T08:38:10Z</time>
      </trkpt>
      <trkpt lat="49.26158" lon="2.3918">
        <ele>33.3</ele>
        <time>2024-09-01T08:38:11Z</time>
      </trkpt>
      <trkpt lat="49.26158" lon="2.39183">
        <ele>33.3</ele>
        <time>2024-09-01T08:38:12Z</time>
      </trkpt>
      <trkpt lat="49.26158" lon="2.39185">
        <ele>33.3</ele>
        <time>2024-09-01T08:38:13Z</time>
      </trkpt>
      <trkpt lat="49.26158" lon="2.39188">
        <ele>33.3</ele>
        <time>2024-09-01T08:38:14Z</time>
      </trkpt>
      <trkpt lat="49.26158" lon="2.3919">
        <ele>33.3</ele>
        <time>2024-09-01T08:38:15Z</time>
      </trkpt>
      <trkpt lat="49.26158" lon="2.39193">
        <ele>33.3</ele>
        <time>2024-09-01T08:38:16Z</time>
      </trkpt>
      <trkpt lat="49.26158" lon="2.39195">
        <ele>33.3</ele>
        <time>2024-09-01T08:38:17Z</time>
      </trkpt>
      <trkpt lat="49.26158" lon="2.39198">
        <ele>33.3</ele>
        <time>2024-09-01T08:38:18Z</time>
      </trkpt>
      <trkpt lat="49.26158" lon="2.392">
        <ele>33.3</ele>
        <time>2024-09-01T08:38:19Z</time>
      </trkpt>
      <trkpt lat="49.26158" lon="2.39203">
        <ele>33.3</ele>
        <time>2024-09-01T08:38:20Z</time>
      </trkpt>
      <trkpt lat="49.26157" lon="2.39205">
        <ele>33.3</ele>
        <time>2024-09-01T08:38:21Z</time>
      </trkpt>
      <trkpt lat="49.26157" lon="2.39207">
        <ele>33.3</ele>
        <time>2024-09-01T08:38:22Z</time>
      </trkpt>
      <trkpt lat="49.26157" lon="2.3921">
        <ele>33.4</ele>
        <time>2024-09-01T08:38:23Z</time>
      </trkpt>
      <trkpt lat="49.26156" lon="2.39212">
        <ele>33.4</ele>
        <time>2024-09-01T08:38:24Z</time>
      </trkpt>
      <trkpt lat="49.26156" lon="2.39215">
        <ele>33.4</ele>
        <time>2024-09-01T08:38:25Z</time>
      </trkpt>
      <trkpt lat="49.26156" lon="2.39217">
        <ele>33.4</ele>
        <time>2024-09-01T08:38:26Z</time>
      </trkpt>
      <trkpt lat="49.26155" lon="2.3922">
        <ele>33.4</ele>
        <time>2024-09-01T08:38:27Z</time>
      </trkpt>
      <trkpt lat="49.26155" lon="2.39222">
        <ele>33.4</ele>
        <time>2024-09-01T08:38:28Z</time>
      </trkpt>
      <trkpt lat="49.26155" lon="2.39225">
        <ele>33.4</ele>
        <time>2024-09-01T08:38:29Z</time>
      </trkpt>
      <trkpt lat="49.26155" lon="2.39227">
        <ele>33.4</ele>
        <time>2024-09-01T08:38:30Z</time>
      </trkpt>
      <trkpt lat="49.26155" lon="2.3923">
        <ele>33.4</ele>
        <time>2024-09-01T08:38:31Z</time>
      </trkpt>
      <trkpt lat="49.26155" lon="2.39232">
        <ele>33.4</ele>
        <time>2024-09-01T08:38:32Z</time>
      </trkpt>
      <trkpt lat="49.26155" lon="2.39234">
        <ele>33.4</ele>
        <time>2024-09-01T08:38:33Z</time>
      </trkpt>
      <trkpt lat="49.26155" lon="2.39236">
        <ele>33.4</ele>
        <time>2024-09-01T08:38:34Z</time>
      </trkpt>
      <trkpt lat="49.26154" lon="2.39239">
        <ele>33.4</ele>
        <time>2024-09-01T08:38:35Z</time>
      </trkpt>
      <trkpt lat="49.26154" lon="2.39241">
        <ele>33.5</ele>
        <time>2024-09-01T08:38:36Z</time>
      </trkpt>
      <trkpt lat="49.26154" lon="2.39244">
        <ele>33.5</ele>
        <time>2024-09-01T08:38:37Z</time>
      </trkpt>
      <trkpt lat="49.26154" lon="2.39246">
        <ele>33.5</ele>
        <time>2024-09-01T08:38:38Z</time>
      </trkpt>
      <trkpt lat="49.26153" lon="2.39248">
        <ele>33.5</ele>
        <time>2024-09-01T08:38:39Z</time>
      </trkpt>
      <trkpt lat="49.26153" lon="2.39251">
        <ele>33.5</ele>
        <time>2024-09-01T08:38:40Z</time>
      </trkpt>
      <trkpt lat="49.26153" lon="2.39253">
        <ele>33.5</ele>
        <time>2024-09-01T08:38:41Z</time>
      </trkpt>
      <trkpt lat="49.26153" lon="2.39256">
        <ele>33.5</ele>
        <time>2024-09-01T08:38:42Z</time>
      </trkpt>
      <trkpt lat="49.26152" lon="2.39258">
        <ele>33.5</ele>
        <time>2024-09-01T08:38:43Z</time>
      </trkpt>
      <trkpt lat="49.26152" lon="2.39261">
        <ele>33.5</ele>
        <time>2024-09-01T08:38:44Z</time>
      </trkpt>
      <trkpt lat="49.26152" lon="2.39263">
        <ele>33.5</ele>
        <time>2024-09-01T08:38:45Z</time>
      </trkpt>
      <trkpt lat="49.26152" lon="2.39266">
        <ele>33.5</ele>
        <time>2024-09-01T08:38:46Z</time>
      </trkpt>
      <trkpt lat="49.26152" lon="2.39269">
        <ele>33.5</ele>
        <time>2024-09-01T08:38:47Z</time>
      </trkpt>
      <trkpt lat="49.26152" lon="2.39271">
        <ele>33.5</ele>
        <time>2024-09-01T08:38:48Z</time>
      </trkpt>
      <trkpt lat="49.26151" lon="2.39274">
        <ele>33.6</ele>
        <time>2024-09-01T08:38:49Z</time>
      </trkpt>
      <trkpt lat="49.26151" lon="2.39276">
        <ele>33.6</ele>
        <time>2024-09-01T08:38:50Z</time>
      </trkpt>
      <trkpt lat="49.26151" lon="2.39279">
        <ele>33.6</ele>
        <time>2024-09-01T08:38:51Z</time>
      </trkpt>
      <trkpt lat="49.2615" lon="2.39281">
        <ele>33.6</ele>
        <time>2024-09-01T08:38:52Z</time>
      </trkpt>
      <trkpt lat="49.2615" lon="2.39284">
        <ele>33.6</ele>
        <time>2024-09-01T08:38:53Z</time>
      </trkpt>
      <trkpt lat="49.2615" lon="2.39287">
        <ele>33.6</ele>
        <time>2024-09-01T08:38:54Z</time>
      </trkpt>
      <trkpt lat="49.26149" lon="2.3929">
        <ele>33.6</ele>
        <time>2024-09-01T08:38:55Z</time>
      </trkpt>
      <trkpt lat="49.26149" lon="2.39292">
        <ele>33.6</ele>
        <time>2024-09-01T08:38:56Z</time>
      </trkpt>
      <trkpt lat="49.26149" lon="2.39295">
        <ele>33.7</ele>
        <time>2024-09-01T08:38:57Z</time>
      </trkpt>
      <trkpt lat="49.26148" lon="2.39298">
        <ele>33.7</ele>
        <time>2024-09-01T08:38:58Z</time>
      </trkpt>
      <trkpt lat="49.26148" lon="2.393">
        <ele>33.7</ele>
        <time>2024-09-01T08:38:59Z</time>
      </trkpt>
      <trkpt lat="49.26148" lon="2.39303">
        <ele>33.7</ele>
        <time>2024-09-01T08:39:00Z</time>
      </trkpt>
      <trkpt lat="49.26148" lon="2.39305">
        <ele>33.7</ele>
        <time>2024-09-01T08:39:01Z</time>
      </trkpt>
      <trkpt lat="49.26148" lon="2.39308">
        <ele>33.7</ele>
        <time>2024-09-01T08:39:02Z</time>
      </trkpt>
      <trkpt lat="49.26147" lon="2.3931">
        <ele>33.7</ele>
        <time>2024-09-01T08:39:03Z</time>
      </trkpt>
      <trkpt lat="49.26147" lon="2.39312">
        <ele>33.7</ele>
        <time>2024-09-01T08:39:04Z</time>
      </trkpt>
      <trkpt lat="49.26146" lon="2.39315">
        <ele>33.7</ele>
        <time>2024-09-01T08:39:05Z</time>
      </trkpt>
      <trkpt lat="49.26146" lon="2.39317">
        <ele>33.8</ele>
        <time>2024-09-01T08:39:06Z</time>
      </trkpt>
      <trkpt lat="49.26145" lon="2.39319">
        <ele>33.8</ele>
        <time>2024-09-01T08:39:07Z</time>
      </trkpt>
      <trkpt lat="49.26144" lon="2.39321">
        <ele>33.8</ele>
        <time>2024-09-01T08:39:08Z</time>
      </trkpt>
      <trkpt lat="49.26144" lon="2.39324">
        <ele>33.8</ele>
        <time>2024-09-01T08:39:09Z</time>
      </trkpt>
      <trkpt lat="49.26143" lon="2.39326">
        <ele>33.8</ele>
        <time>2024-09-01T08:39:10Z</time>
      </trkpt>
      <trkpt lat="49.26143" lon="2.39328">
        <ele>33.9</ele>
        <time>2024-09-01T08:39:11Z</time>
      </trkpt>
      <trkpt lat="49.26142" lon="2.3933">
        <ele>33.9</ele>
        <time>2024-09-01T08:39:12Z</time>
      </trkpt>
      <trkpt lat="49.26142" lon="2.39332">
        <ele>33.9</ele>
        <time>2024-09-01T08:39:13Z</time>
      </trkpt>
      <trkpt lat="49.26142" lon="2.39335">
        <ele>33.9</ele>
        <time>2024-09-01T08:39:14Z</time>
      </trkpt>
      <trkpt lat="49.26141" lon="2.39337">
        <ele>33.8</ele>
        <time>2024-09-01T08:39:15Z</time>
      </trkpt>
      <trkpt lat="49.26141" lon="2.39339">
        <ele>33.7</ele>
        <time>2024-09-01T08:39:16Z</time>
      </trkpt>
      <trkpt lat="49.26141" lon="2.39341">
        <ele>33.7</ele>
        <time>2024-09-01T08:39:17Z</time>
      </trkpt>
      <trkpt lat="49.2614" lon="2.39344">
        <ele>33.6</ele>
        <time>2024-09-01T08:39:18Z</time>
      </trkpt>
      <trkpt lat="49.26139" lon="2.39346">
        <ele>33.5</ele>
        <time>2024-09-01T08:39:19Z</time>
      </trkpt>
      <trkpt lat="49.26139" lon="2.39348">
        <ele>33.5</ele>
        <time>2024-09-01T08:39:20Z</time>
      </trkpt>
      <trkpt lat="49.26138" lon="2.3935">
        <ele>33.4</ele>
        <time>2024-09-01T08:39:21Z</time>
      </trkpt>
      <trkpt lat="49.26138" lon="2.39353">
        <ele>33.3</ele>
        <time>2024-09-01T08:39:22Z</time>
      </trkpt>
      <trkpt lat="49.26138" lon="2.39355">
        <ele>33.2</ele>
        <time>2024-09-01T08:39:23Z</time>
      </trkpt>
      <trkpt lat="49.26137" lon="2.39357">
        <ele>33.1</ele>
        <time>2024-09-01T08:39:24Z</time>
      </trkpt>
      <trkpt lat="49.26137" lon="2.3936">
        <ele>33</ele>
        <time>2024-09-01T08:39:25Z</time>
      </trkpt>
      <trkpt lat="49.26137" lon="2.39362">
        <ele>33</ele>
        <time>2024-09-01T08:39:26Z</time>
      </trkpt>
      <trkpt lat="49.26137" lon="2.39365">
        <ele>33</ele>
        <time>2024-09-01T08:39:27Z</time>
      </trkpt>
      <trkpt lat="49.26137" lon="2.39367">
        <ele>33</ele>
        <time>2024-09-01T08:39:28Z</time>
      </trkpt>
      <trkpt lat="49.26136" lon="2.3937">
        <ele>33</ele>
        <time>2024-09-01T08:39:29Z</time>
      </trkpt>
      <trkpt lat="49.26136" lon="2.39373">
        <ele>33</ele>
        <time>2024-09-01T08:39:30Z</time>
      </trkpt>
      <trkpt lat="49.26136" lon="2.39375">
        <ele>33.1</ele>
        <time>2024-09-01T08:39:31Z</time>
      </trkpt>
      <trkpt lat="49.26136" lon="2.39378">
        <ele>33.1</ele>
        <time>2024-09-01T08:39:32Z</time>
      </trkpt>
      <trkpt lat="49.26136" lon="2.39381">
        <ele>33.1</ele>
        <time>2024-09-01T08:39:33Z</time>
      </trkpt>
      <trkpt lat="49.26136" lon="2.39383">
        <ele>33.1</ele>
        <time>2024-09-01T08:39:34Z</time>
      </trkpt>
      <trkpt lat="49.26135" lon="2.39386">
        <ele>33.1</ele>
        <time>2024-09-01T08:39:35Z</time>
      </trkpt>
      <trkpt lat="49.26135" lon="2.39388">
        <ele>33.1</ele>
        <time>2024-09-01T08:39:36Z</time>
      </trkpt>
      <trkpt lat="49.26134" lon="2.39391">
        <ele>33.2</ele>
        <time>2024-09-01T08:39:37Z</time>
      </trkpt>
      <trkpt lat="49.26134" lon="2.39394">
        <ele>33.2</ele>
        <time>2024-09-01T08:39:38Z</time>
      </trkpt>
      <trkpt lat="49.26134" lon="2.39396">
        <ele>33.2</ele>
        <time>2024-09-01T08:39:39Z</time>
      </trkpt>
      <trkpt lat="49.26133" lon="2.39399">
        <ele>33.2</ele>
        <time>2024-09-01T08:39:40Z</time>
      </trkpt>
      <trkpt lat="49.26132" lon="2.39401">
        <ele>33.2</ele>
        <time>2024-09-01T08:39:41Z</time>
      </trkpt>
      <trkpt lat="49.26131" lon="2.39403">
        <ele>33.3</ele>
        <time>2024-09-01T08:39:42Z</time>
      </trkpt>
      <trkpt lat="49.26131" lon="2.39406">
        <ele>33.3</ele>
        <time>2024-09-01T08:39:43Z</time>
      </trkpt>
      <trkpt lat="49.2613" lon="2.39409">
        <ele>33.3</ele>
        <time>2024-09-01T08:39:44Z</time>
      </trkpt>
      <trkpt lat="49.2613" lon="2.39411">
        <ele>33.3</ele>
        <time>2024-09-01T08:39:45Z</time>
      </trkpt>
      <trkpt lat="49.26129" lon="2.39414">
        <ele>33.4</ele>
        <time>2024-09-01T08:39:46Z</time>
      </trkpt>
      <trkpt lat="49.26128" lon="2.39417">
        <ele>33.4</ele>
        <time>2024-09-01T08:39:47Z</time>
      </trkpt>
      <trkpt lat="49.26128" lon="2.39419">
        <ele>33.4</ele>
        <time>2024-09-01T08:39:48Z</time>
      </trkpt>
      <trkpt lat="49.26127" lon="2.39422">
        <ele>33.4</ele>
        <time>2024-09-01T08:39:49Z</time>
      </trkpt>
      <trkpt lat="49.26127" lon="2.39424">
        <ele>33.4</ele>
        <time>2024-09-01T08:39:50Z</time>
      </trkpt>
      <trkpt lat="49.26126" lon="2.39427">
        <ele>33.5</ele>
        <time>2024-09-01T08:39:51Z</time>
      </trkpt>
      <trkpt lat="49.26126" lon="2.39429">
        <ele>33.5</ele>
        <time>2024-09-01T08:39:52Z</time>
      </trkpt>
      <trkpt lat="49.26125" lon="2.39431">
        <ele>33.5</ele>
        <time>2024-09-01T08:39:53Z</time>
      </trkpt>
      <trkpt lat="49.26124" lon="2.39434">
        <ele>33.5</ele>
        <time>2024-09-01T08:39:54Z</time>
      </trkpt>
      <trkpt lat="49.26123" lon="2.39436">
        <ele>33.6</ele>
        <time>2024-09-01T08:39:55Z</time>
      </trkpt>
      <trkpt lat="49.26122" lon="2.39438">
        <ele>33.6</ele>
        <time>2024-09-01T08:39:56Z</time>
      </trkpt>
      <trkpt lat="49.26121" lon="2.3944">
        <ele>33.6</ele>
        <time>2024-09-01T08:39:57Z</time>
      </trkpt>
      <trkpt lat="49.2612" lon="2.39443">
        <ele>33.7</ele>
        <time>2024-09-01T08:39:58Z</time>
      </trkpt>
      <trkpt lat="49.26119" lon="2.39445">
        <ele>33.7</ele>
        <time>2024-09-01T08:39:59Z</time>
      </trkpt>
      <trkpt lat="49.26118" lon="2.39447">
        <ele>33.7</ele>
        <time>2024-09-01T08:40:00Z</time>
      </trkpt>
      <trkpt lat="49.26117" lon="2.3945">
        <ele>33.8</ele>
        <time>2024-09-01T08:40:01Z</time>
      </trkpt>
      <trkpt lat="49.26116" lon="2.39452">
        <ele>33.8</ele>
        <time>2024-09-01T08:40:02Z</time>
      </trkpt>
      <trkpt lat="49.26115" lon="2.39455">
        <ele>33.8</ele>
        <time>2024-09-01T08:40:03Z</time>
      </trkpt>
      <trkpt lat="49.26114" lon="2.39458">
        <ele>33.9</ele>
        <time>2024-09-01T08:40:04Z</time>
      </trkpt>
      <trkpt lat="49.26114" lon="2.3946">
        <ele>33.9</ele>
        <time>2024-09-01T08:40:05Z</time>
      </trkpt>
      <trkpt lat="49.26113" lon="2.39463">
        <ele>33.9</ele>
        <time>2024-09-01T08:40:06Z</time>
      </trkpt>
      <trkpt lat="49.26113" lon="2.39466">
        <ele>33.9</ele>
        <time>2024-09-01T08:40:07Z</time>
      </trkpt>
      <trkpt lat="49.26113" lon="2.39469">
        <ele>33.9</ele>
        <time>2024-09-01T08:40:08Z</time>
      </trkpt>
      <trkpt lat="49.26114" lon="2.39472">
        <ele>33.9</ele>
        <time>2024-09-01T08:40:09Z</time>
      </trkpt>
      <trkpt lat="49.26114" lon="2.39474">
        <ele>33.8</ele>
        <time>2024-09-01T08:40:10Z</time>
      </trkpt>
      <trkpt lat="49.26115" lon="2.39477">
        <ele>33.7</ele>
        <time>2024-09-01T08:40:11Z</time>
      </trkpt>
      <trkpt lat="49.26115" lon="2.3948">
        <ele>33.6</ele>
        <time>2024-09-01T08:40:12Z</time>
      </trkpt>
      <trkpt lat="49.26116" lon="2.39482">
        <ele>33.5</ele>
        <time>2024-09-01T08:40:13Z</time>
      </trkpt>
      <trkpt lat="49.26116" lon="2.39484">
        <ele>33.5</ele>
        <time>2024-09-01T08:40:14Z</time>
      </trkpt>
      <trkpt lat="49.26117" lon="2.39486">
        <ele>33.4</ele>
        <time>2024-09-01T08:40:15Z</time>
      </trkpt>
      <trkpt lat="49.26118" lon="2.39488">
        <ele>33.3</ele>
        <time>2024-09-01T08:40:16Z</time>
      </trkpt>
      <trkpt lat="49.26119" lon="2.39489">
        <ele>33.3</ele>
        <time>2024-09-01T08:40:17Z</time>
      </trkpt>
      <trkpt lat="49.26121" lon="2.39491">
        <ele>33.2</ele>
        <time>2024-09-01T08:40:18Z</time>
      </trkpt>
      <trkpt lat="49.26122" lon="2.39492">
        <ele>33.2</ele>
        <time>2024-09-01T08:40:19Z</time>
      </trkpt>
      <trkpt lat="49.26123" lon="2.39493">
        <ele>33.2</ele>
        <time>2024-09-01T08:40:20Z</time>
      </trkpt>
      <trkpt lat="49.26124" lon="2.39493">
        <ele>33.1</ele>
        <time>2024-09-01T08:40:21Z</time>
      </trkpt>
      <trkpt lat="49.26126" lon="2.39493">
        <ele>33.1</ele>
        <time>2024-09-01T08:40:22Z</time>
      </trkpt>
      <trkpt lat="49.26127" lon="2.39494">
        <ele>33.1</ele>
        <time>2024-09-01T08:40:23Z</time>
      </trkpt>
      <trkpt lat="49.26128" lon="2.39494">
        <ele>33.1</ele>
        <time>2024-09-01T08:40:24Z</time>
      </trkpt>
      <trkpt lat="49.26129" lon="2.39494">
        <ele>33.1</ele>
        <time>2024-09-01T08:40:25Z</time>
      </trkpt>
      <trkpt lat="49.2613" lon="2.39495">
        <ele>33.1</ele>
        <time>2024-09-01T08:40:26Z</time>
      </trkpt>
      <trkpt lat="49.26132" lon="2.39495">
        <ele>33</ele>
        <time>2024-09-01T08:40:27Z</time>
      </trkpt>
      <trkpt lat="49.26133" lon="2.39497">
        <ele>33</ele>
        <time>2024-09-01T08:40:28Z</time>
      </trkpt>
      <trkpt lat="49.26134" lon="2.39498">
        <ele>33</ele>
        <time>2024-09-01T08:40:29Z</time>
      </trkpt>
      <trkpt lat="49.26136" lon="2.395">
        <ele>33</ele>
        <time>2024-09-01T08:40:30Z</time>
      </trkpt>
      <trkpt lat="49.26138" lon="2.39501">
        <ele>33</ele>
        <time>2024-09-01T08:40:31Z</time>
      </trkpt>
      <trkpt lat="49.26139" lon="2.39502">
        <ele>33</ele>
        <time>2024-09-01T08:40:32Z</time>
      </trkpt>
      <trkpt lat="49.26141" lon="2.39503">
        <ele>33</ele>
        <time>2024-09-01T08:40:33Z</time>
      </trkpt>
      <trkpt lat="49.26142" lon="2.39505">
        <ele>33</ele>
        <time>2024-09-01T08:40:34Z</time>
      </trkpt>
      <trkpt lat="49.26144" lon="2.39506">
        <ele>33</ele>
        <time>2024-09-01T08:40:35Z</time>
      </trkpt>
      <trkpt lat="49.26145" lon="2.39507">
        <ele>33</ele>
        <time>2024-09-01T08:40:36Z</time>
      </trkpt>
      <trkpt lat="49.26147" lon="2.39508">
        <ele>33</ele>
        <time>2024-09-01T08:40:37Z</time>
      </trkpt>
      <trkpt lat="49.26149" lon="2.39509">
        <ele>33</ele>
        <time>2024-09-01T08:40:38Z</time>
      </trkpt>
      <trkpt lat="49.2615" lon="2.3951">
        <ele>33</ele>
        <time>2024-09-01T08:40:39Z</time>
      </trkpt>
      <trkpt lat="49.26152" lon="2.39511">
        <ele>33</ele>
        <time>2024-09-01T08:40:40Z</time>
      </trkpt>
      <trkpt lat="49.26154" lon="2.39512">
        <ele>33</ele>
        <time>2024-09-01T08:40:41Z</time>
      </trkpt>
      <trkpt lat="49.26156" lon="2.39513">
        <ele>33</ele>
        <time>2024-09-01T08:40:42Z</time>
      </trkpt>
      <trkpt lat="49.26157" lon="2.39514">
        <ele>33</ele>
        <time>2024-09-01T08:40:43Z</time>
      </trkpt>
      <trkpt lat="49.26159" lon="2.39516">
        <ele>33</ele>
        <time>2024-09-01T08:40:44Z</time>
      </trkpt>
      <trkpt lat="49.26161" lon="2.39517">
        <ele>33</ele>
        <time>2024-09-01T08:40:45Z</time>
      </trkpt>
      <trkpt lat="49.26162" lon="2.39519">
        <ele>33</ele>
        <time>2024-09-01T08:40:46Z</time>
      </trkpt>
      <trkpt lat="49.26164" lon="2.3952">
        <ele>33</ele>
        <time>2024-09-01T08:40:47Z</time>
      </trkpt>
      <trkpt lat="49.26165" lon="2.39522">
        <ele>33</ele>
        <time>2024-09-01T08:40:48Z</time>
      </trkpt>
      <trkpt lat="49.26167" lon="2.39524">
        <ele>33</ele>
        <time>2024-09-01T08:40:49Z</time>
      </trkpt>
      <trkpt lat="49.26168" lon="2.39526">
        <ele>33</ele>
        <time>2024-09-01T08:40:50Z</time>
      </trkpt>
      <trkpt lat="49.26169" lon="2.39528">
        <ele>33</ele>
        <time>2024-09-01T08:40:51Z</time>
      </trkpt>
      <trkpt lat="49.26171" lon="2.39529">
        <ele>33</ele>
        <time>2024-09-01T08:40:52Z</time>
      </trkpt>
      <trkpt lat="49.26172" lon="2.39531">
        <ele>33</ele>
        <time>2024-09-01T08:40:53Z</time>
      </trkpt>
      <trkpt lat="49.26173" lon="2.39532">
        <ele>33</ele>
        <time>2024-09-01T08:40:54Z</time>
      </trkpt>
      <trkpt lat="49.26174" lon="2.39534">
        <ele>33</ele>
        <time>2024-09-01T08:40:55Z</time>
      </trkpt>
      <trkpt lat="49.26175" lon="2.39535">
        <ele>33</ele>
        <time>2024-09-01T08:40:56Z</time>
      </trkpt>
      <trkpt lat="49.26177" lon="2.39536">
        <ele>33</ele>
        <time>2024-09-01T08:40:57Z</time>
      </trkpt>
      <trkpt lat="49.26178" lon="2.39537">
        <ele>33</ele>
        <time>2024-09-01T08:40:58Z</time>
      </trkpt>
      <trkpt lat="49.2618" lon="2.39538">
        <ele>33</ele>
        <time>2024-09-01T08:40:59Z</time>
      </trkpt>
      <trkpt lat="49.26181" lon="2.39539">
        <ele>33</ele>
        <time>2024-09-01T08:41:00Z</time>
      </trkpt>
      <trkpt lat="49.26183" lon="2.3954">
        <ele>33</ele>
        <time>2024-09-01T08:41:01Z</time>
      </trkpt>
      <trkpt lat="49.26184" lon="2.39541">
        <ele>33</ele>
        <time>2024-09-01T08:41:02Z</time>
      </trkpt>
      <trkpt lat="49.26186" lon="2.39543">
        <ele>33</ele>
        <time>2024-09-01T08:41:03Z</time>
      </trkpt>
      <trkpt lat="49.26188" lon="2.39544">
        <ele>33</ele>
        <time>2024-09-01T08:41:04Z</time>
      </trkpt>
      <trkpt lat="49.26189" lon="2.39546">
        <ele>33</ele>
        <time>2024-09-01T08:41:05Z</time>
      </trkpt>
      <trkpt lat="49.26191" lon="2.39547">
        <ele>33</ele>
        <time>2024-09-01T08:41:06Z</time>
      </trkpt>
      <trkpt lat="49.26193" lon="2.39548">
        <ele>33</ele>
        <time>2024-09-01T08:41:07Z</time>
      </trkpt>
      <trkpt lat="49.26194" lon="2.39549">
        <ele>33</ele>
        <time>2024-09-01T08:41:08Z</time>
      </trkpt>
      <trkpt lat="49.26194" lon="2.39549">
        <ele>33</ele>
        <time>2024-09-01T08:41:09Z</time>
      </trkpt>
      <trkpt lat="49.26195" lon="2.3955">
        <ele>33</ele>
        <time>2024-09-01T08:41:10Z</time>
      </trkpt>
      <trkpt lat="49.26196" lon="2.3955">
        <ele>33</ele>
        <time>2024-09-01T08:41:11Z</time>
      </trkpt>
      <trkpt lat="49.26197" lon="2.39551">
        <ele>33</ele>
        <time>2024-09-01T08:41:12Z</time>
      </trkpt>
      <trkpt lat="49.26198" lon="2.39551">
        <ele>33</ele>
        <time>2024-09-01T08:41:13Z</time>
      </trkpt>
      <trkpt lat="49.262" lon="2.39552">
        <ele>33</ele>
        <time>2024-09-01T08:41:14Z</time>
      </trkpt>
      <trkpt lat="49.26201" lon="2.39553">
        <ele>33</ele>
        <time>2024-09-01T08:41:15Z</time>
      </trkpt>
      <trkpt lat="49.26202" lon="2.39554">
        <ele>33</ele>
        <time>2024-09-01T08:41:16Z</time>
      </trkpt>
      <trkpt lat="49.26204" lon="2.39555">
        <ele>33</ele>
        <time>2024-09-01T08:41:17Z</time>
      </trkpt>
      <trkpt lat="49.26205" lon="2.39556">
        <ele>33</ele>
        <time>2024-09-01T08:41:18Z</time>
      </trkpt>
      <trkpt lat="49.26206" lon="2.39557">
        <ele>33</ele>
        <time>2024-09-01T08:41:19Z</time>
      </trkpt>
      <trkpt lat="49.26208" lon="2.39558">
        <ele>33</ele>
        <time>2024-09-01T08:41:20Z</time>
      </trkpt>
      <trkpt lat="49.2621" lon="2.39559">
        <ele>33</ele>
        <time>2024-09-01T08:41:21Z</time>
      </trkpt>
      <trkpt lat="49.26211" lon="2.3956">
        <ele>33</ele>
        <time>2024-09-01T08:41:22Z</time>
      </trkpt>
      <trkpt lat="49.26213" lon="2.39562">
        <ele>33</ele>
        <time>2024-09-01T08:41:23Z</time>
      </trkpt>
      <trkpt lat="49.26214" lon="2.39563">
        <ele>33</ele>
        <time>2024-09-01T08:41:24Z</time>
      </trkpt>
      <trkpt lat="49.26216" lon="2.39564">
        <ele>33</ele>
        <time>2024-09-01T08:41:25Z</time>
      </trkpt>
      <trkpt lat="49.26217" lon="2.39566">
        <ele>33</ele>
        <time>2024-09-01T08:41:26Z</time>
      </trkpt>
      <trkpt lat="49.26219" lon="2.39568">
        <ele>33</ele>
        <time>2024-09-01T08:41:27Z</time>
      </trkpt>
      <trkpt lat="49.2622" lon="2.39569">
        <ele>33</ele>
        <time>2024-09-01T08:41:28Z</time>
      </trkpt>
      <trkpt lat="49.26222" lon="2.39571">
        <ele>33</ele>
        <time>2024-09-01T08:41:29Z</time>
      </trkpt>
      <trkpt lat="49.26223" lon="2.39572">
        <ele>33</ele>
        <time>2024-09-01T08:41:30Z</time>
      </trkpt>
      <trkpt lat="49.26224" lon="2.39574">
        <ele>33</ele>
        <time>2024-09-01T08:41:31Z</time>
      </trkpt>
      <trkpt lat="49.26226" lon="2.39575">
        <ele>33</ele>
        <time>2024-09-01T08:41:32Z</time>
      </trkpt>
      <trkpt lat="49.26227" lon="2.39577">
        <ele>33</ele>
        <time>2024-09-01T08:41:33Z</time>
      </trkpt>
      <trkpt lat="49.26228" lon="2.39578">
        <ele>33</ele>
        <time>2024-09-01T08:41:34Z</time>
      </trkpt>
      <trkpt lat="49.2623" lon="2.39579">
        <ele>33</ele>
        <time>2024-09-01T08:41:35Z</time>
      </trkpt>
      <trkpt lat="49.26231" lon="2.3958">
        <ele>33</ele>
        <time>2024-09-01T08:41:36Z</time>
      </trkpt>
      <trkpt lat="49.26233" lon="2.39581">
        <ele>33</ele>
        <time>2024-09-01T08:41:37Z</time>
      </trkpt>
      <trkpt lat="49.26234" lon="2.39581">
        <ele>33</ele>
        <time>2024-09-01T08:41:38Z</time>
      </trkpt>
      <trkpt lat="49.26236" lon="2.39582">
        <ele>33</ele>
        <time>2024-09-01T08:41:39Z</time>
      </trkpt>
      <trkpt lat="49.26238" lon="2.39582">
        <ele>33</ele>
        <time>2024-09-01T08:41:40Z</time>
      </trkpt>
      <trkpt lat="49.26239" lon="2.39583">
        <ele>33</ele>
        <time>2024-09-01T08:41:41Z</time>
      </trkpt>
      <trkpt lat="49.26241" lon="2.39583">
        <ele>33</ele>
        <time>2024-09-01T08:41:42Z</time>
      </trkpt>
      <trkpt lat="49.26242" lon="2.39584">
        <ele>33</ele>
        <time>2024-09-01T08:41:43Z</time>
      </trkpt>
      <trkpt lat="49.26243" lon="2.39584">
        <ele>33</ele>
        <time>2024-09-01T08:41:44Z</time>
      </trkpt>
      <trkpt lat="49.26245" lon="2.39584">
        <ele>33</ele>
        <time>2024-09-01T08:41:45Z</time>
      </trkpt>
      <trkpt lat="49.26246" lon="2.39585">
        <ele>33</ele>
        <time>2024-09-01T08:41:46Z</time>
      </trkpt>
      <trkpt lat="49.26248" lon="2.39585">
        <ele>33</ele>
        <time>2024-09-01T08:41:47Z</time>
      </trkpt>
      <trkpt lat="49.2625" lon="2.39586">
        <ele>33</ele>
        <time>2024-09-01T08:41:48Z</time>
      </trkpt>
      <trkpt lat="49.26251" lon="2.39587">
        <ele>33</ele>
        <time>2024-09-01T08:41:49Z</time>
      </trkpt>
      <trkpt lat="49.26252" lon="2.39588">
        <ele>33</ele>
        <time>2024-09-01T08:41:50Z</time>
      </trkpt>
      <trkpt lat="49.26254" lon="2.3959">
        <ele>33</ele>
        <time>2024-09-01T08:41:51Z</time>
      </trkpt>
      <trkpt lat="49.26255" lon="2.39592">
        <ele>33</ele>
        <time>2024-09-01T08:41:52Z</time>
      </trkpt>
      <trkpt lat="49.26255" lon="2.39594">
        <ele>33</ele>
        <time>2024-09-01T08:41:53Z</time>
      </trkpt>
      <trkpt lat="49.26256" lon="2.39597">
        <ele>33</ele>
        <time>2024-09-01T08:41:54Z</time>
      </trkpt>
      <trkpt lat="49.26256" lon="2.39599">
        <ele>33</ele>
        <time>2024-09-01T08:41:55Z</time>
      </trkpt>
      <trkpt lat="49.26256" lon="2.39602">
        <ele>33</ele>
        <time>2024-09-01T08:41:56Z</time>
      </trkpt>
      <trkpt lat="49.26256" lon="2.39605">
        <ele>33</ele>
        <time>2024-09-01T08:41:57Z</time>
      </trkpt>
      <trkpt lat="49.26256" lon="2.39608">
        <ele>33</ele>
        <time>2024-09-01T08:41:58Z</time>
      </trkpt>
      <trkpt lat="49.26256" lon="2.39611">
        <ele>33</ele>
        <time>2024-09-01T08:41:59Z</time>
      </trkpt>
      <trkpt lat="49.26256" lon="2.39613">
        <ele>33</ele>
        <time>2024-09-01T08:42:00Z</time>
      </trkpt>
      <trkpt lat="49.26256" lon="2.39616">
        <ele>33</ele>
        <time>2024-09-01T08:42:01Z</time>
      </trkpt>
      <trkpt lat="49.26256" lon="2.39619">
        <ele>33</ele>
        <time>2024-09-01T08:42:02Z</time>
      </trkpt>
      <trkpt lat="49.26255" lon="2.39621">
        <ele>33</ele>
        <time>2024-09-01T08:42:03Z</time>
      </trkpt>
      <trkpt lat="49.26255" lon="2.39624">
        <ele>33</ele>
        <time>2024-09-01T08:42:04Z</time>
      </trkpt>
      <trkpt lat="49.26255" lon="2.39627">
        <ele>33</ele>
        <time>2024-09-01T08:42:05Z</time>
      </trkpt>
      <trkpt lat="49.26255" lon="2.3963">
        <ele>33</ele>
        <time>2024-09-01T08:42:06Z</time>
      </trkpt>
      <trkpt lat="49.26255" lon="2.39633">
        <ele>33</ele>
        <time>2024-09-01T08:42:07Z</time>
      </trkpt>
      <trkpt lat="49.26255" lon="2.39635">
        <ele>33</ele>
        <time>2024-09-01T08:42:08Z</time>
      </trkpt>
      <trkpt lat="49.26255" lon="2.39637">
        <ele>33</ele>
        <time>2024-09-01T08:42:09Z</time>
      </trkpt>
      <trkpt lat="49.26255" lon="2.39639">
        <ele>33</ele>
        <time>2024-09-01T08:42:10Z</time>
      </trkpt>
      <trkpt lat="49.26255" lon="2.39641">
        <ele>33</ele>
        <time>2024-09-01T08:42:11Z</time>
      </trkpt>
      <trkpt lat="49.26255" lon="2.39644">
        <ele>33</ele>
        <time>2024-09-01T08:42:12Z</time>
      </trkpt>
      <trkpt lat="49.26255" lon="2.39646">
        <ele>33</ele>
        <time>2024-09-01T08:42:13Z</time>
      </trkpt>
      <trkpt lat="49.26255" lon="2.39649">
        <ele>33</ele>
        <time>2024-09-01T08:42:14Z</time>
      </trkpt>
      <trkpt lat="49.26255" lon="2.39652">
        <ele>33</ele>
        <time>2024-09-01T08:42:15Z</time>
      </trkpt>
      <trkpt lat="49.26255" lon="2.39654">
        <ele>33</ele>
        <time>2024-09-01T08:42:16Z</time>
      </trkpt>
      <trkpt lat="49.26256" lon="2.39656">
        <ele>33</ele>
        <time>2024-09-01T08:42:17Z</time>
      </trkpt>
      <trkpt lat="49.26256" lon="2.39658">
        <ele>33</ele>
        <time>2024-09-01T08:42:18Z</time>
      </trkpt>
      <trkpt lat="49.26257" lon="2.39661">
        <ele>33</ele>
        <time>2024-09-01T08:42:19Z</time>
      </trkpt>
      <trkpt lat="49.26257" lon="2.39663">
        <ele>33</ele>
        <time>2024-09-01T08:42:20Z</time>
      </trkpt>
      <trkpt lat="49.26257" lon="2.39665">
        <ele>33</ele>
        <time>2024-09-01T08:42:21Z</time>
      </trkpt>
      <trkpt lat="49.26258" lon="2.39667">
        <ele>33</ele>
        <time>2024-09-01T08:42:22Z</time>
      </trkpt>
      <trkpt lat="49.26258" lon="2.39669">
        <ele>33</ele>
        <time>2024-09-01T08:42:23Z</time>
      </trkpt>
      <trkpt lat="49.26259" lon="2.39671">
        <ele>33</ele>
        <time>2024-09-01T08:42:24Z</time>
      </trkpt>
      <trkpt lat="49.26259" lon="2.39673">
        <ele>33</ele>
        <time>2024-09-01T08:42:25Z</time>
      </trkpt>
      <trkpt lat="49.2626" lon="2.39675">
        <ele>33</ele>
        <time>2024-09-01T08:42:26Z</time>
      </trkpt>
      <trkpt lat="49.2626" lon="2.39678">
        <ele>33</ele>
        <time>2024-09-01T08:42:27Z</time>
      </trkpt>
      <trkpt lat="49.26261" lon="2.3968">
        <ele>33</ele>
        <time>2024-09-01T08:42:28Z</time>
      </trkpt>
      <trkpt lat="49.26261" lon="2.39683">
        <ele>33</ele>
        <time>2024-09-01T08:42:29Z</time>
      </trkpt>
      <trkpt lat="49.26261" lon="2.39685">
        <ele>33</ele>
        <time>2024-09-01T08:42:30Z</time>
      </trkpt>
      <trkpt lat="49.26261" lon="2.39688">
        <ele>33</ele>
        <time>2024-09-01T08:42:31Z</time>
      </trkpt>
      <trkpt lat="49.26261" lon="2.3969">
        <ele>33</ele>
        <time>2024-09-01T08:42:32Z</time>
      </trkpt>
      <trkpt lat="49.26261" lon="2.39693">
        <ele>33</ele>
        <time>2024-09-01T08:42:33Z</time>
      </trkpt>
      <trkpt lat="49.26261" lon="2.39695">
        <ele>33</ele>
        <time>2024-09-01T08:42:34Z</time>
      </trkpt>
      <trkpt lat="49.26261" lon="2.39698">
        <ele>33</ele>
        <time>2024-09-01T08:42:35Z</time>
      </trkpt>
      <trkpt lat="49.26262" lon="2.397">
        <ele>33</ele>
        <time>2024-09-01T08:42:36Z</time>
      </trkpt>
      <trkpt lat="49.26262" lon="2.39703">
        <ele>33</ele>
        <time>2024-09-01T08:42:37Z</time>
      </trkpt>
      <trkpt lat="49.26263" lon="2.39705">
        <ele>33</ele>
        <time>2024-09-01T08:42:38Z</time>
      </trkpt>
      <trkpt lat="49.26264" lon="2.39708">
        <ele>33</ele>
        <time>2024-09-01T08:42:39Z</time>
      </trkpt>
      <trkpt lat="49.26265" lon="2.3971">
        <ele>33</ele>
        <time>2024-09-01T08:42:40Z</time>
      </trkpt>
      <trkpt lat="49.26266" lon="2.39713">
        <ele>33</ele>
        <time>2024-09-01T08:42:41Z</time>
      </trkpt>
      <trkpt lat="49.26268" lon="2.39715">
        <ele>33</ele>
        <time>2024-09-01T08:42:42Z</time>
      </trkpt>
      <trkpt lat="49.26269" lon="2.39718">
        <ele>33</ele>
        <time>2024-09-01T08:42:43Z</time>
      </trkpt>
      <trkpt lat="49.26271" lon="2.3972">
        <ele>33</ele>
        <time>2024-09-01T08:42:44Z</time>
      </trkpt>
      <trkpt lat="49.26272" lon="2.39722">
        <ele>33</ele>
        <time>2024-09-01T08:42:45Z</time>
      </trkpt>
      <trkpt lat="49.26274" lon="2.39724">
        <ele>33</ele>
        <time>2024-09-01T08:42:46Z</time>
      </trkpt>
      <trkpt lat="49.26276" lon="2.39725">
        <ele>33</ele>
        <time>2024-09-01T08:42:47Z</time>
      </trkpt>
      <trkpt lat="49.26277" lon="2.39727">
        <ele>33</ele>
        <time>2024-09-01T08:42:48Z</time>
      </trkpt>
      <trkpt lat="49.26279" lon="2.39728">
        <ele>33</ele>
        <time>2024-09-01T08:42:49Z</time>
      </trkpt>
      <trkpt lat="49.26281" lon="2.39729">
        <ele>33</ele>
        <time>2024-09-01T08:42:50Z</time>
      </trkpt>
      <trkpt lat="49.26282" lon="2.39731">
        <ele>33</ele>
        <time>2024-09-01T08:42:51Z</time>
      </trkpt>
      <trkpt lat="49.26284" lon="2.39732">
        <ele>33</ele>
        <time>2024-09-01T08:42:52Z</time>
      </trkpt>
      <trkpt lat="49.26285" lon="2.39733">
        <ele>33</ele>
        <time>2024-09-01T08:42:53Z</time>
      </trkpt>
      <trkpt lat="49.26287" lon="2.39734">
        <ele>33</ele>
        <time>2024-09-01T08:42:54Z</time>
      </trkpt>
      <trkpt lat="49.26288" lon="2.39736">
        <ele>33</ele>
        <time>2024-09-01T08:42:55Z</time>
      </trkpt>
      <trkpt lat="49.26289" lon="2.39737">
        <ele>33</ele>
        <time>2024-09-01T08:42:56Z</time>
      </trkpt>
      <trkpt lat="49.26291" lon="2.39738">
        <ele>33</ele>
        <time>2024-09-01T08:42:57Z</time>
      </trkpt>
      <trkpt lat="49.26292" lon="2.39739">
        <ele>33</ele>
        <time>2024-09-01T08:42:58Z</time>
      </trkpt>
      <trkpt lat="49.26293" lon="2.3974">
        <ele>33</ele>
        <time>2024-09-01T08:42:59Z</time>
      </trkpt>
      <trkpt lat="49.26294" lon="2.39742">
        <ele>33</ele>
        <time>2024-09-01T08:43:00Z</time>
      </trkpt>
      <trkpt lat="49.26295" lon="2.39743">
        <ele>33</ele>
        <time>2024-09-01T08:43:01Z</time>
      </trkpt>
      <trkpt lat="49.26295" lon="2.39746">
        <ele>33</ele>
        <time>2024-09-01T08:43:02Z</time>
      </trkpt>
      <trkpt lat="49.26296" lon="2.39748">
        <ele>33</ele>
        <time>2024-09-01T08:43:03Z</time>
      </trkpt>
      <trkpt lat="49.26296" lon="2.3975">
        <ele>33</ele>
        <time>2024-09-01T08:43:04Z</time>
      </trkpt>
      <trkpt lat="49.26296" lon="2.39753">
        <ele>33.1</ele>
        <time>2024-09-01T08:43:05Z</time>
      </trkpt>
      <trkpt lat="49.26297" lon="2.39755">
        <ele>33.1</ele>
        <time>2024-09-01T08:43:06Z</time>
      </trkpt>
      <trkpt lat="49.26298" lon="2.39758">
        <ele>33.2</ele>
        <time>2024-09-01T08:43:07Z</time>
      </trkpt>
      <trkpt lat="49.26299" lon="2.3976">
        <ele>33.3</ele>
        <time>2024-09-01T08:43:08Z</time>
      </trkpt>
      <trkpt lat="49.263" lon="2.39763">
        <ele>33.4</ele>
        <time>2024-09-01T08:43:09Z</time>
      </trkpt>
      <trkpt lat="49.263" lon="2.39765">
        <ele>33.4</ele>
        <time>2024-09-01T08:43:10Z</time>
      </trkpt>
      <trkpt lat="49.26301" lon="2.39767">
        <ele>33.5</ele>
        <time>2024-09-01T08:43:11Z</time>
      </trkpt>
      <trkpt lat="49.26302" lon="2.39769">
        <ele>33.6</ele>
        <time>2024-09-01T08:43:12Z</time>
      </trkpt>
      <trkpt lat="49.26303" lon="2.39771">
        <ele>33.7</ele>
        <time>2024-09-01T08:43:13Z</time>
      </trkpt>
      <trkpt lat="49.26304" lon="2.39772">
        <ele>33.8</ele>
        <time>2024-09-01T08:43:14Z</time>
      </trkpt>
      <trkpt lat="49.26305" lon="2.39774">
        <ele>33.8</ele>
        <time>2024-09-01T08:43:15Z</time>
      </trkpt>
      <trkpt lat="49.26306" lon="2.39776">
        <ele>33.9</ele>
        <time>2024-09-01T08:43:16Z</time>
      </trkpt>
      <trkpt lat="49.26307" lon="2.39777">
        <ele>33.9</ele>
        <time>2024-09-01T08:43:17Z</time>
      </trkpt>
      <trkpt lat="49.26307" lon="2.39779">
        <ele>33.9</ele>
        <time>2024-09-01T08:43:18Z</time>
      </trkpt>
      <trkpt lat="49.26308" lon="2.3978">
        <ele>33.9</ele>
        <time>2024-09-01T08:43:19Z</time>
      </trkpt>
      <trkpt lat="49.26309" lon="2.39782">
        <ele>33.9</ele>
        <time>2024-09-01T08:43:20Z</time>
      </trkpt>
      <trkpt lat="49.26309" lon="2.39784">
        <ele>33.9</ele>
        <time>2024-09-01T08:43:21Z</time>
      </trkpt>
      <trkpt lat="49.2631" lon="2.39787">
        <ele>33.8</ele>
        <time>2024-09-01T08:43:22Z</time>
      </trkpt>
      <trkpt lat="49.2631" lon="2.39789">
        <ele>33.8</ele>
        <time>2024-09-01T08:43:23Z</time>
      </trkpt>
      <trkpt lat="49.26311" lon="2.39792">
        <ele>33.8</ele>
        <time>2024-09-01T08:43:24Z</time>
      </trkpt>
      <trkpt lat="49.26312" lon="2.39795">
        <ele>33.8</ele>
        <time>2024-09-01T08:43:25Z</time>
      </trkpt>
      <trkpt lat="49.26314" lon="2.39798">
        <ele>33.7</ele>
        <time>2024-09-01T08:43:26Z</time>
      </trkpt>
      <trkpt lat="49.26315" lon="2.39801">
        <ele>33.7</ele>
        <time>2024-09-01T08:43:27Z</time>
      </trkpt>
      <trkpt lat="49.26316" lon="2.39803">
        <ele>33.6</ele>
        <time>2024-09-01T08:43:28Z</time>
      </trkpt>
      <trkpt lat="49.26318" lon="2.39806">
        <ele>33.6</ele>
        <time>2024-09-01T08:43:29Z</time>
      </trkpt>
      <trkpt lat="49.26319" lon="2.39808">
        <ele>33.5</ele>
        <time>2024-09-01T08:43:30Z</time>
      </trkpt>
      <trkpt lat="49.26321" lon="2.39811">
        <ele>33.4</ele>
        <time>2024-09-01T08:43:31Z</time>
      </trkpt>
      <trkpt lat="49.26323" lon="2.39813">
        <ele>33.3</ele>
        <time>2024-09-01T08:43:32Z</time>
      </trkpt>
      <trkpt lat="49.26325" lon="2.39816">
        <ele>33.2</ele>
        <time>2024-09-01T08:43:33Z</time>
      </trkpt>
      <trkpt lat="49.26326" lon="2.39818">
        <ele>33.1</ele>
        <time>2024-09-01T08:43:34Z</time>
      </trkpt>
      <trkpt lat="49.26327" lon="2.3982">
        <ele>33.1</ele>
        <time>2024-09-01T08:43:35Z</time>
      </trkpt>
      <trkpt lat="49.26328" lon="2.39822">
        <ele>33.1</ele>
        <time>2024-09-01T08:43:36Z</time>
      </trkpt>
      <trkpt lat="49.26328" lon="2.39823">
        <ele>33.1</ele>
        <time>2024-09-01T08:43:37Z</time>
      </trkpt>
      <trkpt lat="49.26328" lon="2.39824">
        <ele>33.1</ele>
        <time>2024-09-01T08:43:38Z</time>
      </trkpt>
      <trkpt lat="49.26329" lon="2.39825">
        <ele>33</ele>
        <time>2024-09-01T08:43:39Z</time>
      </trkpt>
      <trkpt lat="49.2633" lon="2.39826">
        <ele>33</ele>
        <time>2024-09-01T08:43:40Z</time>
      </trkpt>
      <trkpt lat="49.26331" lon="2.39826">
        <ele>33</ele>
        <time>2024-09-01T08:43:41Z</time>
      </trkpt>
      <trkpt lat="49.26332" lon="2.39825">
        <ele>33</ele>
        <time>2024-09-01T08:43:42Z</time>
      </trkpt>
      <trkpt lat="49.26333" lon="2.39825">
        <ele>33</ele>
        <time>2024-09-01T08:43:43Z</time>
      </trkpt>
      <trkpt lat="49.26335" lon="2.39825">
        <ele>33</ele>
        <time>2024-09-01T08:43:44Z</time>
      </trkpt>
      <trkpt lat="49.26336" lon="2.39824">
        <ele>33.1</ele>
        <time>2024-09-01T08:43:45Z</time>
      </trkpt>
      <trkpt lat="49.26337" lon="2.39824">
        <ele>33.1</ele>
        <time>2024-09-01T08:43:46Z</time>
      </trkpt>
      <trkpt lat="49.26339" lon="2.39823">
        <ele>33.1</ele>
        <time>2024-09-01T08:43:47Z</time>
      </trkpt>
      <trkpt lat="49.2634" lon="2.39823">
        <ele>33.1</ele>
        <time>2024-09-01T08:43:48Z</time>
      </trkpt>
      <trkpt lat="49.26341" lon="2.39822">
        <ele>33.2</ele>
        <time>2024-09-01T08:43:49Z</time>
      </trkpt>
      <trkpt lat="49.26343" lon="2.39821">
        <ele>33.2</ele>
        <time>2024-09-01T08:43:50Z</time>
      </trkpt>
      <trkpt lat="49.26344" lon="2.3982">
        <ele>33.2</ele>
        <time>2024-09-01T08:43:51Z</time>
      </trkpt>
      <trkpt lat="49.26346" lon="2.39819">
        <ele>33.2</ele>
        <time>2024-09-01T08:43:52Z</time>
      </trkpt>
      <trkpt lat="49.26348" lon="2.39818">
        <ele>33.2</ele>
        <time>2024-09-01T08:43:53Z</time>
      </trkpt>
      <trkpt lat="49.26349" lon="2.39817">
        <ele>33.2</ele>
        <time>2024-09-01T08:43:54Z</time>
      </trkpt>
      <trkpt lat="49.26351" lon="2.39817">
        <ele>33.2</ele>
        <time>2024-09-01T08:43:55Z</time>
      </trkpt>
      <trkpt lat="49.26352" lon="2.39816">
        <ele>33.3</ele>
        <time>2024-09-01T08:43:56Z</time>
      </trkpt>
      <trkpt lat="49.26354" lon="2.39816">
        <ele>33.3</ele>
        <time>2024-09-01T08:43:57Z</time>
      </trkpt>
      <trkpt lat="49.26355" lon="2.39815">
        <ele>33.3</ele>
        <time>2024-09-01T08:43:58Z</time>
      </trkpt>
      <trkpt lat="49.26356" lon="2.39815">
        <ele>33.3</ele>
        <time>2024-09-01T08:43:59Z</time>
      </trkpt>
      <trkpt lat="49.26357" lon="2.39814">
        <ele>33.3</ele>
        <time>2024-09-01T08:44:00Z</time>
      </trkpt>
      <trkpt lat="49.26359" lon="2.39814">
        <ele>33.3</ele>
        <time>2024-09-01T08:44:01Z</time>
      </trkpt>
      <trkpt lat="49.2636" lon="2.39813">
        <ele>33.2</ele>
        <time>2024-09-01T08:44:02Z</time>
      </trkpt>
      <trkpt lat="49.26361" lon="2.39811">
        <ele>33.2</ele>
        <time>2024-09-01T08:44:03Z</time>
      </trkpt>
      <trkpt lat="49.26362" lon="2.3981">
        <ele>33.2</ele>
        <time>2024-09-01T08:44:04Z</time>
      </trkpt>
      <trkpt lat="49.26364" lon="2.39809">
        <ele>33.2</ele>
        <time>2024-09-01T08:44:05Z</time>
      </trkpt>
      <trkpt lat="49.26365" lon="2.39808">
        <ele>33.2</ele>
        <time>2024-09-01T08:44:06Z</time>
      </trkpt>
      <trkpt lat="49.26367" lon="2.39806">
        <ele>33.2</ele>
        <time>2024-09-01T08:44:07Z</time>
      </trkpt>
      <trkpt lat="49.26368" lon="2.39805">
        <ele>33.3</ele>
        <time>2024-09-01T08:44:08Z</time>
      </trkpt>
      <trkpt lat="49.2637" lon="2.39804">
        <ele>33.3</ele>
        <time>2024-09-01T08:44:09Z</time>
      </trkpt>
      <trkpt lat="49.26371" lon="2.39803">
        <ele>33.4</ele>
        <time>2024-09-01T08:44:10Z</time>
      </trkpt>
      <trkpt lat="49.26372" lon="2.39802">
        <ele>33.4</ele>
        <time>2024-09-01T08:44:11Z</time>
      </trkpt>
      <trkpt lat="49.26373" lon="2.39801">
        <ele>33.4</ele>
        <time>2024-09-01T08:44:12Z</time>
      </trkpt>
      <trkpt lat="49.26375" lon="2.398">
        <ele>33.5</ele>
        <time>2024-09-01T08:44:13Z</time>
      </trkpt>
      <trkpt lat="49.26376" lon="2.398">
        <ele>33.5</ele>
        <time>2024-09-01T08:44:14Z</time>
      </trkpt>
      <trkpt lat="49.26377" lon="2.39799">
        <ele>33.6</ele>
        <time>2024-09-01T08:44:15Z</time>
      </trkpt>
      <trkpt lat="49.26379" lon="2.39798">
        <ele>33.6</ele>
        <time>2024-09-01T08:44:16Z</time>
      </trkpt>
      <trkpt lat="49.2638" lon="2.39797">
        <ele>33.7</ele>
        <time>2024-09-01T08:44:17Z</time>
      </trkpt>
      <trkpt lat="49.26382" lon="2.39796">
        <ele>33.7</ele>
        <time>2024-09-01T08:44:18Z</time>
      </trkpt>
      <trkpt lat="49.26383" lon="2.39795">
        <ele>33.8</ele>
        <time>2024-09-01T08:44:19Z</time>
      </trkpt>
      <trkpt lat="49.26385" lon="2.39794">
        <ele>33.9</ele>
        <time>2024-09-01T08:44:20Z</time>
      </trkpt>
      <trkpt lat="49.26387" lon="2.39794">
        <ele>33.9</ele>
        <time>2024-09-01T08:44:21Z</time>
      </trkpt>
      <trkpt lat="49.26389" lon="2.39793">
        <ele>34</ele>
        <time>2024-09-01T08:44:22Z</time>
      </trkpt>
      <trkpt lat="49.2639" lon="2.39792">
        <ele>34</ele>
        <time>2024-09-01T08:44:23Z</time>
      </trkpt>
      <trkpt lat="49.26392" lon="2.39792">
        <ele>34</ele>
        <time>2024-09-01T08:44:24Z</time>
      </trkpt>
      <trkpt lat="49.26393" lon="2.39791">
        <ele>34</ele>
        <time>2024-09-01T08:44:25Z</time>
      </trkpt>
      <trkpt lat="49.26395" lon="2.3979">
        <ele>34</ele>
        <time>2024-09-01T08:44:26Z</time>
      </trkpt>
      <trkpt lat="49.26396" lon="2.3979">
        <ele>34</ele>
        <time>2024-09-01T08:44:27Z</time>
      </trkpt>
      <trkpt lat="49.26398" lon="2.39789">
        <ele>34</ele>
        <time>2024-09-01T08:44:28Z</time>
      </trkpt>
      <trkpt lat="49.264" lon="2.39789">
        <ele>34</ele>
        <time>2024-09-01T08:44:29Z</time>
      </trkpt>
      <trkpt lat="49.26401" lon="2.39788">
        <ele>34</ele>
        <time>2024-09-01T08:44:30Z</time>
      </trkpt>
      <trkpt lat="49.26403" lon="2.39787">
        <ele>34</ele>
        <time>2024-09-01T08:44:31Z</time>
      </trkpt>
      <trkpt lat="49.26404" lon="2.39786">
        <ele>34</ele>
        <time>2024-09-01T08:44:32Z</time>
      </trkpt>
      <trkpt lat="49.26406" lon="2.39786">
        <ele>34</ele>
        <time>2024-09-01T08:44:33Z</time>
      </trkpt>
      <trkpt lat="49.26407" lon="2.39784">
        <ele>34</ele>
        <time>2024-09-01T08:44:34Z</time>
      </trkpt>
      <trkpt lat="49.26409" lon="2.39783">
        <ele>34</ele>
        <time>2024-09-01T08:44:35Z</time>
      </trkpt>
      <trkpt lat="49.2641" lon="2.39782">
        <ele>34</ele>
        <time>2024-09-01T08:44:36Z</time>
      </trkpt>
      <trkpt lat="49.26411" lon="2.39781">
        <ele>34</ele>
        <time>2024-09-01T08:44:37Z</time>
      </trkpt>
      <trkpt lat="49.26413" lon="2.3978">
        <ele>34</ele>
        <time>2024-09-01T08:44:38Z</time>
      </trkpt>
      <trkpt lat="49.26414" lon="2.39779">
        <ele>34</ele>
        <time>2024-09-01T08:44:39Z</time>
      </trkpt>
      <trkpt lat="49.26416" lon="2.39778">
        <ele>34</ele>
        <time>2024-09-01T08:44:40Z</time>
      </trkpt>
      <trkpt lat="49.26417" lon="2.39778">
        <ele>34</ele>
        <time>2024-09-01T08:44:41Z</time>
      </trkpt>
      <trkpt lat="49.26419" lon="2.39777">
        <ele>34</ele>
        <time>2024-09-01T08:44:42Z</time>
      </trkpt>
      <trkpt lat="49.26421" lon="2.39776">
        <ele>34</ele>
        <time>2024-09-01T08:44:43Z</time>
      </trkpt>
      <trkpt lat="49.26422" lon="2.39775">
        <ele>34</ele>
        <time>2024-09-01T08:44:44Z</time>
      </trkpt>
      <trkpt lat="49.26424" lon="2.39774">
        <ele>34</ele>
        <time>2024-09-01T08:44:45Z</time>
      </trkpt>
      <trkpt lat="49.26425" lon="2.39774">
        <ele>34</ele>
        <time>2024-09-01T08:44:46Z</time>
      </trkpt>
      <trkpt lat="49.26426" lon="2.39773">
        <ele>34</ele>
        <time>2024-09-01T08:44:47Z</time>
      </trkpt>
      <trkpt lat="49.26428" lon="2.39773">
        <ele>34</ele>
        <time>2024-09-01T08:44:48Z</time>
      </trkpt>
      <trkpt lat="49.26429" lon="2.39772">
        <ele>34</ele>
        <time>2024-09-01T08:44:49Z</time>
      </trkpt>
      <trkpt lat="49.2643" lon="2.39771">
        <ele>34</ele>
        <time>2024-09-01T08:44:50Z</time>
      </trkpt>
      <trkpt lat="49.26432" lon="2.39769">
        <ele>34</ele>
        <time>2024-09-01T08:44:51Z</time>
      </trkpt>
      <trkpt lat="49.26434" lon="2.39768">
        <ele>34</ele>
        <time>2024-09-01T08:44:52Z</time>
      </trkpt>
      <trkpt lat="49.26608" lon="2.39673">
        <ele>40.5</ele>
        <time>2024-09-01T08:51:53Z</time>
      </trkpt>
      <trkpt lat="49.26609" lon="2.39673">
        <ele>40.6</ele>
        <time>2024-09-01T08:51:54Z</time>
      </trkpt>
      <trkpt lat="49.2661" lon="2.39672">
        <ele>40.7</ele>
        <time>2024-09-01T08:51:55Z</time>
      </trkpt>
      <trkpt lat="49.26611" lon="2.39672">
        <ele>40.8</ele>
        <time>2024-09-01T08:51:56Z</time>
      </trkpt>
      <trkpt lat="49.26612" lon="2.39671">
        <ele>40.9</ele>
        <time>2024-09-01T08:51:57Z</time>
      </trkpt>
      <trkpt lat="49.26614" lon="2.39671">
        <ele>41.1</ele>
        <time>2024-09-01T08:51:58Z</time>
      </trkpt>
      <trkpt lat="49.26615" lon="2.3967">
        <ele>41.3</ele>
        <time>2024-09-01T08:51:59Z</time>
      </trkpt>
      <trkpt lat="49.26617" lon="2.3967">
        <ele>41.5</ele>
        <time>2024-09-01T08:52:00Z</time>
      </trkpt>
      <trkpt lat="49.26618" lon="2.3967">
        <ele>41.7</ele>
        <time>2024-09-01T08:52:01Z</time>
      </trkpt>
      <trkpt lat="49.2662" lon="2.3967">
        <ele>41.9</ele>
        <time>2024-09-01T08:52:02Z</time>
      </trkpt>
      <trkpt lat="49.26622" lon="2.3967">
        <ele>42.1</ele>
        <time>2024-09-01T08:52:03Z</time>
      </trkpt>
      <trkpt lat="49.26624" lon="2.39671">
        <ele>42.3</ele>
        <time>2024-09-01T08:52:04Z</time>
      </trkpt>
      <trkpt lat="49.26625" lon="2.39672">
        <ele>42.4</ele>
        <time>2024-09-01T08:52:05Z</time>
      </trkpt>
      <trkpt lat="49.26627" lon="2.39673">
        <ele>42.6</ele>
        <time>2024-09-01T08:52:06Z</time>
      </trkpt>
      <trkpt lat="49.26628" lon="2.39674">
        <ele>42.8</ele>
        <time>2024-09-01T08:52:07Z</time>
      </trkpt>
      <trkpt lat="49.2663" lon="2.39675">
        <ele>43</ele>
        <time>2024-09-01T08:52:08Z</time>
      </trkpt>
      <trkpt lat="49.26632" lon="2.39676">
        <ele>43.2</ele>
        <time>2024-09-01T08:52:09Z</time>
      </trkpt>
      <trkpt lat="49.26634" lon="2.39677">
        <ele>43.4</ele>
        <time>2024-09-01T08:52:10Z</time>
      </trkpt>
      <trkpt lat="49.26635" lon="2.39678">
        <ele>43.6</ele>
        <time>2024-09-01T08:52:11Z</time>
      </trkpt>
      <trkpt lat="49.26637" lon="2.39678">
        <ele>43.8</ele>
        <time>2024-09-01T08:52:12Z</time>
      </trkpt>
      <trkpt lat="49.26639" lon="2.39679">
        <ele>44</ele>
        <time>2024-09-01T08:52:13Z</time>
      </trkpt>
      <trkpt lat="49.2664" lon="2.39679">
        <ele>44.1</ele>
        <time>2024-09-01T08:52:14Z</time>
      </trkpt>
      <trkpt lat="49.26642" lon="2.3968">
        <ele>44.2</ele>
        <time>2024-09-01T08:52:15Z</time>
      </trkpt>
      <trkpt lat="49.26644" lon="2.3968">
        <ele>44.3</ele>
        <time>2024-09-01T08:52:16Z</time>
      </trkpt>
      <trkpt lat="49.26646" lon="2.3968">
        <ele>44.4</ele>
        <time>2024-09-01T08:52:17Z</time>
      </trkpt>
      <trkpt lat="49.26648" lon="2.3968">
        <ele>44.5</ele>
        <time>2024-09-01T08:52:18Z</time>
      </trkpt>
      <trkpt lat="49.2665" lon="2.3968">
        <ele>44.6</ele>
        <time>2024-09-01T08:52:19Z</time>
      </trkpt>
      <trkpt lat="49.26652" lon="2.3968">
        <ele>44.7</ele>
        <time>2024-09-01T08:52:20Z</time>
      </trkpt>
      <trkpt lat="49.26653" lon="2.39679">
        <ele>44.8</ele>
        <time>2024-09-01T08:52:21Z</time>
      </trkpt>
      <trkpt lat="49.26655" lon="2.39679">
        <ele>44.9</ele>
        <time>2024-09-01T08:52:22Z</time>
      </trkpt>
      <trkpt lat="49.26656" lon="2.39679">
        <ele>45</ele>
        <time>2024-09-01T08:52:23Z</time>
      </trkpt>
      <trkpt lat="49.26658" lon="2.39678">
        <ele>45.1</ele>
        <time>2024-09-01T08:52:24Z</time>
      </trkpt>
      <trkpt lat="49.2666" lon="2.39678">
        <ele>45.2</ele>
        <time>2024-09-01T08:52:25Z</time>
      </trkpt>
      <trkpt lat="49.26661" lon="2.39678">
        <ele>45.3</ele>
        <time>2024-09-01T08:52:26Z</time>
      </trkpt>
      <trkpt lat="49.26663" lon="2.39678">
        <ele>45.4</ele>
        <time>2024-09-01T08:52:27Z</time>
      </trkpt>
      <trkpt lat="49.26665" lon="2.39678">
        <ele>45.5</ele>
        <time>2024-09-01T08:52:28Z</time>
      </trkpt>
      <trkpt lat="49.26666" lon="2.39678">
        <ele>45.6</ele>
        <time>2024-09-01T08:52:29Z</time>
      </trkpt>
      <trkpt lat="49.26668" lon="2.39678">
        <ele>45.7</ele>
        <time>2024-09-01T08:52:30Z</time>
      </trkpt>
      <trkpt lat="49.2667" lon="2.39678">
        <ele>45.8</ele>
        <time>2024-09-01T08:52:31Z</time>
      </trkpt>
      <trkpt lat="49.26672" lon="2.39678">
        <ele>46</ele>
        <time>2024-09-01T08:52:32Z</time>
      </trkpt>
      <trkpt lat="49.26674" lon="2.39678">
        <ele>46.1</ele>
        <time>2024-09-01T08:52:33Z</time>
      </trkpt>
      <trkpt lat="49.26675" lon="2.39678">
        <ele>46.2</ele>
        <time>2024-09-01T08:52:34Z</time>
      </trkpt>
      <trkpt lat="49.26677" lon="2.39678">
        <ele>46.4</ele>
        <time>2024-09-01T08:52:35Z</time>
      </trkpt>
      <trkpt lat="49.26679" lon="2.39678">
        <ele>46.5</ele>
        <time>2024-09-01T08:52:36Z</time>
      </trkpt>
      <trkpt lat="49.26681" lon="2.39678">
        <ele>46.6</ele>
        <time>2024-09-01T08:52:37Z</time>
      </trkpt>
      <trkpt lat="49.26682" lon="2.39678">
        <ele>46.7</ele>
        <time>2024-09-01T08:52:38Z</time>
      </trkpt>
      <trkpt lat="49.26684" lon="2.39677">
        <ele>46.9</ele>
        <time>2024-09-01T08:52:39Z</time>
      </trkpt>
      <trkpt lat="49.26686" lon="2.39678">
        <ele>47</ele>
        <time>2024-09-01T08:52:40Z</time>
      </trkpt>
      <trkpt lat="49.26687" lon="2.39678">
        <ele>47.1</ele>
        <time>2024-09-01T08:52:41Z</time>
      </trkpt>
      <trkpt lat="49.26688" lon="2.39678">
        <ele>47.1</ele>
        <time>2024-09-01T08:52:42Z</time>
      </trkpt>
      <trkpt lat="49.26689" lon="2.39678">
        <ele>47.2</ele>
        <time>2024-09-01T08:52:43Z</time>
      </trkpt>
      <trkpt lat="49.2669" lon="2.39678">
        <ele>47.3</ele>
        <time>2024-09-01T08:52:44Z</time>
      </trkpt>
      <trkpt lat="49.26691" lon="2.39679">
        <ele>47.3</ele>
        <time>2024-09-01T08:52:45Z</time>
      </trkpt>
      <trkpt lat="49.26692" lon="2.39679">
        <ele>47.4</ele>
        <time>2024-09-01T08:52:46Z</time>
      </trkpt>
      <trkpt lat="49.26693" lon="2.39679">
        <ele>47.5</ele>
        <time>2024-09-01T08:52:47Z</time>
      </trkpt>
      <trkpt lat="49.26695" lon="2.39679">
        <ele>47.6</ele>
        <time>2024-09-01T08:52:48Z</time>
      </trkpt>
      <trkpt lat="49.26696" lon="2.39679">
        <ele>47.7</ele>
        <time>2024-09-01T08:52:49Z</time>
      </trkpt>
      <trkpt lat="49.26698" lon="2.3968">
        <ele>47.9</ele>
        <time>2024-09-01T08:52:50Z</time>
      </trkpt>
      <trkpt lat="49.26699" lon="2.3968">
        <ele>48.1</ele>
        <time>2024-09-01T08:52:51Z</time>
      </trkpt>
      <trkpt lat="49.26701" lon="2.3968">
        <ele>48.3</ele>
        <time>2024-09-01T08:52:52Z</time>
      </trkpt>
      <trkpt lat="49.26702" lon="2.39681">
        <ele>48.5</ele>
        <time>2024-09-01T08:52:53Z</time>
      </trkpt>
      <trkpt lat="49.26704" lon="2.39681">
        <ele>48.6</ele>
        <time>2024-09-01T08:52:54Z</time>
      </trkpt>
      <trkpt lat="49.26705" lon="2.39681">
        <ele>48.8</ele>
        <time>2024-09-01T08:52:55Z</time>
      </trkpt>
      <trkpt lat="49.26706" lon="2.39682">
        <ele>48.9</ele>
        <time>2024-09-01T08:52:56Z</time>
      </trkpt>
      <trkpt lat="49.26707" lon="2.39682">
        <ele>49</ele>
        <time>2024-09-01T08:52:57Z</time>
      </trkpt>
      <trkpt lat="49.26708" lon="2.39682">
        <ele>49.1</ele>
        <time>2024-09-01T08:52:58Z</time>
      </trkpt>
      <trkpt lat="49.26709" lon="2.39683">
        <ele>49.2</ele>
        <time>2024-09-01T08:52:59Z</time>
      </trkpt>
      <trkpt lat="49.2671" lon="2.39682">
        <ele>49.3</ele>
        <time>2024-09-01T08:53:00Z</time>
      </trkpt>
      <trkpt lat="49.2671" lon="2.39682">
        <ele>49.4</ele>
        <time>2024-09-01T08:53:01Z</time>
      </trkpt>
      <trkpt lat="49.26711" lon="2.39682">
        <ele>49.5</ele>
        <time>2024-09-01T08:53:02Z</time>
      </trkpt>
      <trkpt lat="49.26712" lon="2.39681">
        <ele>49.6</ele>
        <time>2024-09-01T08:53:03Z</time>
      </trkpt>
      <trkpt lat="49.26712" lon="2.3968">
        <ele>49.7</ele>
        <time>2024-09-01T08:53:04Z</time>
      </trkpt>
      <trkpt lat="49.26711" lon="2.3968">
        <ele>49.7</ele>
        <time>2024-09-01T08:53:15Z</time>
      </trkpt>
      <trkpt lat="49.26711" lon="2.3968">
        <ele>49.6</ele>
        <time>2024-09-01T08:53:16Z</time>
      </trkpt>
      <trkpt lat="49.2671" lon="2.3968">
        <ele>49.5</ele>
        <time>2024-09-01T08:53:17Z</time>
      </trkpt>
      <trkpt lat="49.26709" lon="2.3968">
        <ele>49.3</ele>
        <time>2024-09-01T08:53:18Z</time>
      </trkpt>
      <trkpt lat="49.26708" lon="2.3968">
        <ele>49.2</ele>
        <time>2024-09-01T08:53:19Z</time>
      </trkpt>
      <trkpt lat="49.26706" lon="2.3968">
        <ele>49</ele>
        <time>2024-09-01T08:53:20Z</time>
      </trkpt>
      <trkpt lat="49.26705" lon="2.3968">
        <ele>48.8</ele>
        <time>2024-09-01T08:53:21Z</time>
      </trkpt>
      <trkpt lat="49.26704" lon="2.3968">
        <ele>48.7</ele>
        <time>2024-09-01T08:53:22Z</time>
      </trkpt>
      <trkpt lat="49.26702" lon="2.3968">
        <ele>48.5</ele>
        <time>2024-09-01T08:53:23Z</time>
      </trkpt>
      <trkpt lat="49.26701" lon="2.3968">
        <ele>48.3</ele>
        <time>2024-09-01T08:53:24Z</time>
      </trkpt>
      <trkpt lat="49.26699" lon="2.39681">
        <ele>48.1</ele>
        <time>2024-09-01T08:53:25Z</time>
      </trkpt>
      <trkpt lat="49.26697" lon="2.39681">
        <ele>47.9</ele>
        <time>2024-09-01T08:53:26Z</time>
      </trkpt>
      <trkpt lat="49.26696" lon="2.39681">
        <ele>47.6</ele>
        <time>2024-09-01T08:53:27Z</time>
      </trkpt>
      <trkpt lat="49.26694" lon="2.39682">
        <ele>47.4</ele>
        <time>2024-09-01T08:53:28Z</time>
      </trkpt>
      <trkpt lat="49.26692" lon="2.39682">
        <ele>47.3</ele>
        <time>2024-09-01T08:53:29Z</time>
      </trkpt>
      <trkpt lat="49.26691" lon="2.39682">
        <ele>47.2</ele>
        <time>2024-09-01T08:53:30Z</time>
      </trkpt>
      <trkpt lat="49.26689" lon="2.39682">
        <ele>47</ele>
        <time>2024-09-01T08:53:31Z</time>
      </trkpt>
      <trkpt lat="49.26687" lon="2.39682">
        <ele>46.9</ele>
        <time>2024-09-01T08:53:32Z</time>
      </trkpt>
      <trkpt lat="49.26686" lon="2.39683">
        <ele>46.8</ele>
        <time>2024-09-01T08:53:33Z</time>
      </trkpt>
      <trkpt lat="49.26684" lon="2.39683">
        <ele>46.7</ele>
        <time>2024-09-01T08:53:34Z</time>
      </trkpt>
      <trkpt lat="49.26683" lon="2.39683">
        <ele>46.6</ele>
        <time>2024-09-01T08:53:35Z</time>
      </trkpt>
      <trkpt lat="49.26681" lon="2.39683">
        <ele>46.5</ele>
        <time>2024-09-01T08:53:36Z</time>
      </trkpt>
      <trkpt lat="49.2668" lon="2.39683">
        <ele>46.4</ele>
        <time>2024-09-01T08:53:37Z</time>
      </trkpt>
      <trkpt lat="49.26678" lon="2.39683">
        <ele>46.3</ele>
        <time>2024-09-01T08:53:38Z</time>
      </trkpt>
      <trkpt lat="49.26677" lon="2.39683">
        <ele>46.2</ele>
        <time>2024-09-01T08:53:39Z</time>
      </trkpt>
      <trkpt lat="49.26676" lon="2.39683">
        <ele>46.1</ele>
        <time>2024-09-01T08:53:40Z</time>
      </trkpt>
      <trkpt lat="49.26674" lon="2.39683">
        <ele>45.9</ele>
        <time>2024-09-01T08:53:41Z</time>
      </trkpt>
      <trkpt lat="49.26673" lon="2.39683">
        <ele>45.8</ele>
        <time>2024-09-01T08:53:42Z</time>
      </trkpt>
      <trkpt lat="49.26671" lon="2.39683">
        <ele>45.7</ele>
        <time>2024-09-01T08:53:43Z</time>
      </trkpt>
      <trkpt lat="49.2667" lon="2.39684">
        <ele>45.6</ele>
        <time>2024-09-01T08:53:44Z</time>
      </trkpt>
      <trkpt lat="49.26668" lon="2.39684">
        <ele>45.5</ele>
        <time>2024-09-01T08:53:45Z</time>
      </trkpt>
      <trkpt lat="49.26667" lon="2.39685">
        <ele>45.4</ele>
        <time>2024-09-01T08:53:46Z</time>
      </trkpt>
      <trkpt lat="49.26665" lon="2.39685">
        <ele>45.3</ele>
        <time>2024-09-01T08:53:47Z</time>
      </trkpt>
      <trkpt lat="49.26664" lon="2.39686">
        <ele>45.2</ele>
        <time>2024-09-01T08:53:48Z</time>
      </trkpt>
      <trkpt lat="49.26662" lon="2.39687">
        <ele>45.1</ele>
        <time>2024-09-01T08:53:49Z</time>
      </trkpt>
      <trkpt lat="49.26661" lon="2.39687">
        <ele>45</ele>
        <time>2024-09-01T08:53:50Z</time>
      </trkpt>
      <trkpt lat="49.26659" lon="2.39688">
        <ele>44.9</ele>
        <time>2024-09-01T08:53:51Z</time>
      </trkpt>
      <trkpt lat="49.26658" lon="2.39688">
        <ele>44.8</ele>
        <time>2024-09-01T08:53:52Z</time>
      </trkpt>
      <trkpt lat="49.26656" lon="2.39688">
        <ele>44.8</ele>
        <time>2024-09-01T08:53:53Z</time>
      </trkpt>
      <trkpt lat="49.26655" lon="2.39688">
        <ele>44.7</ele>
        <time>2024-09-01T08:53:54Z</time>
      </trkpt>
      <trkpt lat="49.26653" lon="2.39688">
        <ele>44.6</ele>
        <time>2024-09-01T08:53:55Z</time>
      </trkpt>
      <trkpt lat="49.26652" lon="2.39688">
        <ele>44.6</ele>
        <time>2024-09-01T08:53:56Z</time>
      </trkpt>
      <trkpt lat="49.26651" lon="2.39688">
        <ele>44.5</ele>
        <time>2024-09-01T08:53:57Z</time>
      </trkpt>
      <trkpt lat="49.2665" lon="2.39688">
        <ele>44.5</ele>
        <time>2024-09-01T08:53:58Z</time>
      </trkpt>
      <trkpt lat="49.26648" lon="2.39688">
        <ele>44.4</ele>
        <time>2024-09-01T08:53:59Z</time>
      </trkpt>
      <trkpt lat="49.26647" lon="2.39688">
        <ele>44.4</ele>
        <time>2024-09-01T08:54:00Z</time>
      </trkpt>
      <trkpt lat="49.26646" lon="2.39688">
        <ele>44.3</ele>
        <time>2024-09-01T08:54:01Z</time>
      </trkpt>
      <trkpt lat="49.26644" lon="2.39688">
        <ele>44.2</ele>
        <time>2024-09-01T08:54:02Z</time>
      </trkpt>
      <trkpt lat="49.26643" lon="2.39689">
        <ele>44.2</ele>
        <time>2024-09-01T08:54:03Z</time>
      </trkpt>
      <trkpt lat="49.26642" lon="2.39689">
        <ele>44.1</ele>
        <time>2024-09-01T08:54:04Z</time>
      </trkpt>
      <trkpt lat="49.2664" lon="2.39689">
        <ele>44</ele>
        <time>2024-09-01T08:54:05Z</time>
      </trkpt>
      <trkpt lat="49.26639" lon="2.39688">
        <ele>43.9</ele>
        <time>2024-09-01T08:54:06Z</time>
      </trkpt>
      <trkpt lat="49.26637" lon="2.39688">
        <ele>43.7</ele>
        <time>2024-09-01T08:54:07Z</time>
      </trkpt>
      <trkpt lat="49.26636" lon="2.39688">
        <ele>43.5</ele>
        <time>2024-09-01T08:54:08Z</time>
      </trkpt>
      <trkpt lat="49.26634" lon="2.39687">
        <ele>43.4</ele>
        <time>2024-09-01T08:54:09Z</time>
      </trkpt>
      <trkpt lat="49.26633" lon="2.39686">
        <ele>43.2</ele>
        <time>2024-09-01T08:54:10Z</time>
      </trkpt>
      <trkpt lat="49.26631" lon="2.39685">
        <ele>43</ele>
        <time>2024-09-01T08:54:11Z</time>
      </trkpt>
      <trkpt lat="49.2663" lon="2.39684">
        <ele>42.8</ele>
        <time>2024-09-01T08:54:12Z</time>
      </trkpt>
      <trkpt lat="49.26629" lon="2.39683">
        <ele>42.7</ele>
        <time>2024-09-01T08:54:13Z</time>
      </trkpt>
      <trkpt lat="49.26628" lon="2.39682">
        <ele>42.6</ele>
        <time>2024-09-01T08:54:14Z</time>
      </trkpt>
      <trkpt lat="49.26627" lon="2.39682">
        <ele>42.5</ele>
        <time>2024-09-01T08:54:15Z</time>
      </trkpt>
      <trkpt lat="49.26627" lon="2.39682">
        <ele>42.4</ele>
        <time>2024-09-01T08:54:16Z</time>
      </trkpt>
      <trkpt lat="49.26627" lon="2.39684">
        <ele>42.4</ele>
        <time>2024-09-01T08:54:17Z</time>
      </trkpt>
      <trkpt lat="49.26627" lon="2.39685">
        <ele>42.4</ele>
        <time>2024-09-01T08:54:18Z</time>
      </trkpt>
      <trkpt lat="49.26627" lon="2.39687">
        <ele>42.5</ele>
        <time>2024-09-01T08:54:19Z</time>
      </trkpt>
      <trkpt lat="49.26628" lon="2.39688">
        <ele>42.5</ele>
        <time>2024-09-01T08:54:20Z</time>
      </trkpt>
      <trkpt lat="49.26628" lon="2.39691">
        <ele>42.5</ele>
        <time>2024-09-01T08:54:21Z</time>
      </trkpt>
      <trkpt lat="49.26629" lon="2.39693">
        <ele>42.5</ele>
        <time>2024-09-01T08:54:22Z</time>
      </trkpt>
      <trkpt lat="49.26629" lon="2.39695">
        <ele>42.6</ele>
        <time>2024-09-01T08:54:23Z</time>
      </trkpt>
      <trkpt lat="49.26629" lon="2.39697">
        <ele>43</ele>
        <time>2024-09-01T08:54:24Z</time>
      </trkpt>
      <trkpt lat="49.26629" lon="2.39699">
        <ele>43.2</ele>
        <time>2024-09-01T08:54:25Z</time>
      </trkpt>
      <trkpt lat="49.26629" lon="2.397">
        <ele>43.5</ele>
        <time>2024-09-01T08:54:26Z</time>
      </trkpt>
      <trkpt lat="49.26628" lon="2.39702">
        <ele>43.7</ele>
        <time>2024-09-01T08:54:34Z</time>
      </trkpt>
      <trkpt lat="49.26628" lon="2.39702">
        <ele>43.7</ele>
        <time>2024-09-01T08:54:35Z</time>
      </trkpt>
      <trkpt lat="49.26628" lon="2.39703">
        <ele>43.8</ele>
        <time>2024-09-01T08:54:36Z</time>
      </trkpt>
      <trkpt lat="49.26628" lon="2.39703">
        <ele>43.9</ele>
        <time>2024-09-01T08:54:37Z</time>
      </trkpt>
      <trkpt lat="49.26629" lon="2.39704">
        <ele>44.1</ele>
        <time>2024-09-01T08:54:38Z</time>
      </trkpt>
      <trkpt lat="49.26629" lon="2.39705">
        <ele>44.3</ele>
        <time>2024-09-01T08:54:39Z</time>
      </trkpt>
      <trkpt lat="49.26629" lon="2.39707">
        <ele>44.6</ele>
        <time>2024-09-01T08:54:40Z</time>
      </trkpt>
      <trkpt lat="49.2663" lon="2.39708">
        <ele>45</ele>
        <time>2024-09-01T08:54:41Z</time>
      </trkpt>
      <trkpt lat="49.2663" lon="2.3971">
        <ele>45.4</ele>
        <time>2024-09-01T08:54:42Z</time>
      </trkpt>
      <trkpt lat="49.2663" lon="2.39712">
        <ele>45.8</ele>
        <time>2024-09-01T08:54:43Z</time>
      </trkpt>
      <trkpt lat="49.2663" lon="2.39714">
        <ele>46.2</ele>
        <time>2024-09-01T08:54:44Z</time>
      </trkpt>
      <trkpt lat="49.26631" lon="2.39716">
        <ele>46.5</ele>
        <time>2024-09-01T08:54:45Z</time>
      </trkpt>
      <trkpt lat="49.26631" lon="2.39718">
        <ele>46.9</ele>
        <time>2024-09-01T08:54:46Z</time>
      </trkpt>
      <trkpt lat="49.26631" lon="2.39719">
        <ele>47.3</ele>
        <time>2024-09-01T08:54:47Z</time>
      </trkpt>
      <trkpt lat="49.26631" lon="2.39721">
        <ele>47.6</ele>
        <time>2024-09-01T08:54:48Z</time>
      </trkpt>
      <trkpt lat="49.26632" lon="2.39722">
        <ele>47.9</ele>
        <time>2024-09-01T08:54:49Z</time>
      </trkpt>
      <trkpt lat="49.26632" lon="2.39723">
        <ele>48.2</ele>
        <time>2024-09-01T08:54:50Z</time>
      </trkpt>
      <trkpt lat="49.26633" lon="2.39724">
        <ele>48.5</ele>
        <time>2024-09-01T08:54:51Z</time>
      </trkpt>
      <trkpt lat="49.26633" lon="2.39725">
        <ele>48.7</ele>
        <time>2024-09-01T08:54:52Z</time>
      </trkpt>
      <trkpt lat="49.26634" lon="2.39725">
        <ele>49</ele>
        <time>2024-09-01T08:54:53Z</time>
      </trkpt>
      <trkpt lat="49.26634" lon="2.39726">
        <ele>49.3</ele>
        <time>2024-09-01T08:54:54Z</time>
      </trkpt>
      <trkpt lat="49.26635" lon="2.39726">
        <ele>49.6</ele>
        <time>2024-09-01T08:54:55Z</time>
      </trkpt>
      <trkpt lat="49.26636" lon="2.39727">
        <ele>49.9</ele>
        <time>2024-09-01T08:54:56Z</time>
      </trkpt>
      <trkpt lat="49.26637" lon="2.39727">
        <ele>50.3</ele>
        <time>2024-09-01T08:54:57Z</time>
      </trkpt>
      <trkpt lat="49.26638" lon="2.39728">
        <ele>50.7</ele>
        <time>2024-09-01T08:54:58Z</time>
      </trkpt>
      <trkpt lat="49.26639" lon="2.39729">
        <ele>51.2</ele>
        <time>2024-09-01T08:54:59Z</time>
      </trkpt>
      <trkpt lat="49.2664" lon="2.39731">
        <ele>51.5</ele>
        <time>2024-09-01T08:55:00Z</time>
      </trkpt>
      <trkpt lat="49.26641" lon="2.39733">
        <ele>52</ele>
        <time>2024-09-01T08:55:01Z</time>
      </trkpt>
      <trkpt lat="49.26642" lon="2.39735">
        <ele>52.4</ele>
        <time>2024-09-01T08:55:02Z</time>
      </trkpt>
      <trkpt lat="49.26643" lon="2.39737">
        <ele>52.8</ele>
        <time>2024-09-01T08:55:03Z</time>
      </trkpt>
      <trkpt lat="49.26644" lon="2.39739">
        <ele>53.2</ele>
        <time>2024-09-01T08:55:04Z</time>
      </trkpt>
      <trkpt lat="49.26645" lon="2.39741">
        <ele>53.6</ele>
        <time>2024-09-01T08:55:05Z</time>
      </trkpt>
      <trkpt lat="49.26645" lon="2.39743">
        <ele>53.9</ele>
        <time>2024-09-01T08:55:06Z</time>
      </trkpt>
      <trkpt lat="49.26645" lon="2.39745">
        <ele>54.3</ele>
        <time>2024-09-01T08:55:07Z</time>
      </trkpt>
      <trkpt lat="49.26645" lon="2.39747">
        <ele>54.7</ele>
        <time>2024-09-01T08:55:08Z</time>
      </trkpt>
      <trkpt lat="49.26646" lon="2.39749">
        <ele>55.1</ele>
        <time>2024-09-01T08:55:09Z</time>
      </trkpt>
      <trkpt lat="49.26646" lon="2.39752">
        <ele>55.4</ele>
        <time>2024-09-01T08:55:10Z</time>
      </trkpt>
      <trkpt lat="49.26645" lon="2.39754">
        <ele>55.7</ele>
        <time>2024-09-01T08:55:11Z</time>
      </trkpt>
      <trkpt lat="49.26645" lon="2.39756">
        <ele>55.9</ele>
        <time>2024-09-01T08:55:12Z</time>
      </trkpt>
      <trkpt lat="49.26645" lon="2.39758">
        <ele>56.2</ele>
        <time>2024-09-01T08:55:13Z</time>
      </trkpt>
      <trkpt lat="49.26644" lon="2.3976">
        <ele>56.4</ele>
        <time>2024-09-01T08:55:14Z</time>
      </trkpt>
      <trkpt lat="49.26644" lon="2.39763">
        <ele>56.6</ele>
        <time>2024-09-01T08:55:15Z</time>
      </trkpt>
      <trkpt lat="49.26643" lon="2.39765">
        <ele>56.8</ele>
        <time>2024-09-01T08:55:16Z</time>
      </trkpt>
      <trkpt lat="49.26643" lon="2.39767">
        <ele>57.1</ele>
        <time>2024-09-01T08:55:17Z</time>
      </trkpt>
      <trkpt lat="49.26643" lon="2.39769">
        <ele>57.3</ele>
        <time>2024-09-01T08:55:18Z</time>
      </trkpt>
      <trkpt lat="49.26642" lon="2.39771">
        <ele>57.5</ele>
        <time>2024-09-01T08:55:19Z</time>
      </trkpt>
      <trkpt lat="49.26642" lon="2.39774">
        <ele>57.7</ele>
        <time>2024-09-01T08:55:20Z</time>
      </trkpt>
      <trkpt lat="49.26642" lon="2.39776">
        <ele>58</ele>
        <time>2024-09-01T08:55:21Z</time>
      </trkpt>
      <trkpt lat="49.26642" lon="2.39779">
        <ele>58.3</ele>
        <time>2024-09-01T08:55:22Z</time>
      </trkpt>
      <trkpt lat="49.26642" lon="2.39782">
        <ele>58.5</ele>
        <time>2024-09-01T08:55:23Z</time>
      </trkpt>
      <trkpt lat="49.26642" lon="2.39785">
        <ele>58.7</ele>
        <time>2024-09-01T08:55:24Z</time>
      </trkpt>
      <trkpt lat="49.26642" lon="2.39788">
        <ele>58.9</ele>
        <time>2024-09-01T08:55:25Z</time>
      </trkpt>
      <trkpt lat="49.26642" lon="2.39791">
        <ele>59.2</ele>
        <time>2024-09-01T08:55:26Z</time>
      </trkpt>
      <trkpt lat="49.26642" lon="2.39793">
        <ele>59.4</ele>
        <time>2024-09-01T08:55:27Z</time>
      </trkpt>
      <trkpt lat="49.26642" lon="2.39796">
        <ele>59.6</ele>
        <time>2024-09-01T08:55:28Z</time>
      </trkpt>
      <trkpt lat="49.26642" lon="2.39799">
        <ele>59.8</ele>
        <time>2024-09-01T08:55:29Z</time>
      </trkpt>
      <trkpt lat="49.26641" lon="2.39801">
        <ele>59.9</ele>
        <time>2024-09-01T08:55:30Z</time>
      </trkpt>
      <trkpt lat="49.26641" lon="2.39803">
        <ele>60</ele>
        <time>2024-09-01T08:55:31Z</time>
      </trkpt>
      <trkpt lat="49.2664" lon="2.39805">
        <ele>60.1</ele>
        <time>2024-09-01T08:55:32Z</time>
      </trkpt>
      <trkpt lat="49.2664" lon="2.39807">
        <ele>60.1</ele>
        <time>2024-09-01T08:55:33Z</time>
      </trkpt>
      <trkpt lat="49.26639" lon="2.39809">
        <ele>60.1</ele>
        <time>2024-09-01T08:55:34Z</time>
      </trkpt>
      <trkpt lat="49.26638" lon="2.39811">
        <ele>60</ele>
        <time>2024-09-01T08:55:35Z</time>
      </trkpt>
      <trkpt lat="49.26638" lon="2.39813">
        <ele>59.9</ele>
        <time>2024-09-01T08:55:36Z</time>
      </trkpt>
      <trkpt lat="49.26637" lon="2.39815">
        <ele>59.8</ele>
        <time>2024-09-01T08:55:37Z</time>
      </trkpt>
      <trkpt lat="49.26637" lon="2.39817">
        <ele>59.7</ele>
        <time>2024-09-01T08:55:38Z</time>
      </trkpt>
      <trkpt lat="49.26636" lon="2.39819">
        <ele>59.7</ele>
        <time>2024-09-01T08:55:39Z</time>
      </trkpt>
      <trkpt lat="49.26636" lon="2.39821">
        <ele>59.7</ele>
        <time>2024-09-01T08:55:40Z</time>
      </trkpt>
      <trkpt lat="49.26636" lon="2.39823">
        <ele>59.7</ele>
        <time>2024-09-01T08:55:41Z</time>
      </trkpt>
      <trkpt lat="49.26636" lon="2.39825">
        <ele>59.7</ele>
        <time>2024-09-01T08:55:42Z</time>
      </trkpt>
      <trkpt lat="49.26636" lon="2.39828">
        <ele>59.8</ele>
        <time>2024-09-01T08:55:43Z</time>
      </trkpt>
      <trkpt lat="49.26636" lon="2.3983">
        <ele>59.9</ele>
        <time>2024-09-01T08:55:44Z</time>
      </trkpt>
      <trkpt lat="49.26636" lon="2.39832">
        <ele>60.1</ele>
        <time>2024-09-01T08:55:45Z</time>
      </trkpt>
      <trkpt lat="49.26636" lon="2.39835">
        <ele>60.2</ele>
        <time>2024-09-01T08:55:46Z</time>
      </trkpt>
      <trkpt lat="49.26637" lon="2.39836">
        <ele>60.3</ele>
        <time>2024-09-01T08:55:47Z</time>
      </trkpt>
      <trkpt lat="49.26637" lon="2.39838">
        <ele>60.4</ele>
        <time>2024-09-01T08:55:48Z</time>
      </trkpt>
      <trkpt lat="49.26637" lon="2.39839">
        <ele>60.5</ele>
        <time>2024-09-01T08:55:49Z</time>
      </trkpt>
      <trkpt lat="49.26638" lon="2.39839">
        <ele>60.7</ele>
        <time>2024-09-01T08:55:50Z</time>
      </trkpt>
      <trkpt lat="49.26639" lon="2.3984">
        <ele>61</ele>
        <time>2024-09-01T08:55:51Z</time>
      </trkpt>
      <trkpt lat="49.2664" lon="2.3984">
        <ele>61.1</ele>
        <time>2024-09-01T08:55:52Z</time>
      </trkpt>
      <trkpt lat="49.26641" lon="2.39841">
        <ele>61.3</ele>
        <time>2024-09-01T08:55:53Z</time>
      </trkpt>
      <trkpt lat="49.26642" lon="2.39842">
        <ele>61.5</ele>
        <time>2024-09-01T08:55:54Z</time>
      </trkpt>
      <trkpt lat="49.26643" lon="2.39843">
        <ele>61.7</ele>
        <time>2024-09-01T08:55:55Z</time>
      </trkpt>
      <trkpt lat="49.26644" lon="2.39844">
        <ele>61.9</ele>
        <time>2024-09-01T08:55:56Z</time>
      </trkpt>
      <trkpt lat="49.26645" lon="2.39845">
        <ele>62</ele>
        <time>2024-09-01T08:55:57Z</time>
      </trkpt>
      <trkpt lat="49.26646" lon="2.39846">
        <ele>62.2</ele>
        <time>2024-09-01T08:55:58Z</time>
      </trkpt>
      <trkpt lat="49.26648" lon="2.39848">
        <ele>62.4</ele>
        <time>2024-09-01T08:55:59Z</time>
      </trkpt>
      <trkpt lat="49.26649" lon="2.39849">
        <ele>62.6</ele>
        <time>2024-09-01T08:56:00Z</time>
      </trkpt>
      <trkpt lat="49.26651" lon="2.39852">
        <ele>63</ele>
        <time>2024-09-01T08:56:09Z</time>
      </trkpt>
      <trkpt lat="49.26651" lon="2.39853">
        <ele>63.1</ele>
        <time>2024-09-01T08:56:10Z</time>
      </trkpt>
      <trkpt lat="49.26652" lon="2.39854">
        <ele>63.3</ele>
        <time>2024-09-01T08:56:11Z</time>
      </trkpt>
      <trkpt lat="49.26653" lon="2.39855">
        <ele>63.4</ele>
        <time>2024-09-01T08:56:12Z</time>
      </trkpt>
      <trkpt lat="49.26653" lon="2.39856">
        <ele>63.5</ele>
        <time>2024-09-01T08:56:13Z</time>
      </trkpt>
      <trkpt lat="49.26654" lon="2.39857">
        <ele>63.6</ele>
        <time>2024-09-01T08:56:14Z</time>
      </trkpt>
      <trkpt lat="49.26654" lon="2.39858">
        <ele>63.7</ele>
        <time>2024-09-01T08:56:15Z</time>
      </trkpt>
      <trkpt lat="49.26655" lon="2.39859">
        <ele>63.8</ele>
        <time>2024-09-01T08:56:16Z</time>
      </trkpt>
      <trkpt lat="49.26655" lon="2.39859">
        <ele>63.9</ele>
        <time>2024-09-01T08:56:17Z</time>
      </trkpt>
      <trkpt lat="49.26656" lon="2.3986">
        <ele>64</ele>
        <time>2024-09-01T08:56:18Z</time>
      </trkpt>
      <trkpt lat="49.26657" lon="2.39861">
        <ele>64.2</ele>
        <time>2024-09-01T08:56:19Z</time>
      </trkpt>
      <trkpt lat="49.26658" lon="2.39862">
        <ele>64.5</ele>
        <time>2024-09-01T08:56:20Z</time>
      </trkpt>
      <trkpt lat="49.2666" lon="2.39863">
        <ele>64.8</ele>
        <time>2024-09-01T08:56:21Z</time>
      </trkpt>
      <trkpt lat="49.26661" lon="2.39864">
        <ele>65.2</ele>
        <time>2024-09-01T08:56:22Z</time>
      </trkpt>
      <trkpt lat="49.26663" lon="2.39866">
        <ele>65.5</ele>
        <time>2024-09-01T08:56:23Z</time>
      </trkpt>
      <trkpt lat="49.26665" lon="2.39867">
        <ele>65.8</ele>
        <time>2024-09-01T08:56:24Z</time>
      </trkpt>
      <trkpt lat="49.26666" lon="2.39868">
        <ele>66.2</ele>
        <time>2024-09-01T08:56:25Z</time>
      </trkpt>
      <trkpt lat="49.26668" lon="2.39868">
        <ele>66.4</ele>
        <time>2024-09-01T08:56:26Z</time>
      </trkpt>
      <trkpt lat="49.26669" lon="2.39869">
        <ele>66.5</ele>
        <time>2024-09-01T08:56:27Z</time>
      </trkpt>
      <trkpt lat="49.26671" lon="2.3987">
        <ele>66.7</ele>
        <time>2024-09-01T08:56:28Z</time>
      </trkpt>
      <trkpt lat="49.26673" lon="2.39872">
        <ele>66.9</ele>
        <time>2024-09-01T08:56:29Z</time>
      </trkpt>
      <trkpt lat="49.26675" lon="2.39873">
        <ele>67.2</ele>
        <time>2024-09-01T08:56:30Z</time>
      </trkpt>
      <trkpt lat="49.26677" lon="2.39874">
        <ele>67.4</ele>
        <time>2024-09-01T08:56:31Z</time>
      </trkpt>
      <trkpt lat="49.26679" lon="2.39876">
        <ele>67.6</ele>
        <time>2024-09-01T08:56:32Z</time>
      </trkpt>
      <trkpt lat="49.26681" lon="2.39877">
        <ele>67.9</ele>
        <time>2024-09-01T08:56:33Z</time>
      </trkpt>
      <trkpt lat="49.26682" lon="2.39877">
        <ele>68</ele>
        <time>2024-09-01T08:56:34Z</time>
      </trkpt>
      <trkpt lat="49.26684" lon="2.39877">
        <ele>68.2</ele>
        <time>2024-09-01T08:56:35Z</time>
      </trkpt>
      <trkpt lat="49.26684" lon="2.39878">
        <ele>68.2</ele>
        <time>2024-09-01T08:56:36Z</time>
      </trkpt>
      <trkpt lat="49.26685" lon="2.39878">
        <ele>68.3</ele>
        <time>2024-09-01T08:56:37Z</time>
      </trkpt>
      <trkpt lat="49.26686" lon="2.39878">
        <ele>68.4</ele>
        <time>2024-09-01T08:56:38Z</time>
      </trkpt>
      <trkpt lat="49.26687" lon="2.39878">
        <ele>68.5</ele>
        <time>2024-09-01T08:56:39Z</time>
      </trkpt>
      <trkpt lat="49.26688" lon="2.39878">
        <ele>68.6</ele>
        <time>2024-09-01T08:56:40Z</time>
      </trkpt>
      <trkpt lat="49.26689" lon="2.39879">
        <ele>68.7</ele>
        <time>2024-09-01T08:56:41Z</time>
      </trkpt>
      <trkpt lat="49.2669" lon="2.3988">
        <ele>68.9</ele>
        <time>2024-09-01T08:56:42Z</time>
      </trkpt>
      <trkpt lat="49.26691" lon="2.39881">
        <ele>69</ele>
        <time>2024-09-01T08:56:43Z</time>
      </trkpt>
      <trkpt lat="49.26692" lon="2.39882">
        <ele>69.2</ele>
        <time>2024-09-01T08:56:44Z</time>
      </trkpt>
      <trkpt lat="49.26693" lon="2.39882">
        <ele>69.4</ele>
        <time>2024-09-01T08:56:45Z</time>
      </trkpt>
      <trkpt lat="49.26694" lon="2.39883">
        <ele>69.6</ele>
        <time>2024-09-01T08:56:46Z</time>
      </trkpt>
      <trkpt lat="49.26696" lon="2.39884">
        <ele>69.7</ele>
        <time>2024-09-01T08:56:47Z</time>
      </trkpt>
      <trkpt lat="49.26697" lon="2.39884">
        <ele>69.7</ele>
        <time>2024-09-01T08:56:48Z</time>
      </trkpt>
      <trkpt lat="49.26699" lon="2.39885">
        <ele>69.8</ele>
        <time>2024-09-01T08:56:49Z</time>
      </trkpt>
      <trkpt lat="49.26701" lon="2.39885">
        <ele>69.9</ele>
        <time>2024-09-01T08:56:50Z</time>
      </trkpt>
      <trkpt lat="49.26703" lon="2.39886">
        <ele>70.1</ele>
        <time>2024-09-01T08:56:51Z</time>
      </trkpt>
      <trkpt lat="49.26704" lon="2.39887">
        <ele>70.2</ele>
        <time>2024-09-01T08:56:52Z</time>
      </trkpt>
      <trkpt lat="49.26706" lon="2.39888">
        <ele>70.4</ele>
        <time>2024-09-01T08:56:53Z</time>
      </trkpt>
      <trkpt lat="49.26708" lon="2.39889">
        <ele>70.5</ele>
        <time>2024-09-01T08:56:54Z</time>
      </trkpt>
      <trkpt lat="49.2671" lon="2.3989">
        <ele>70.6</ele>
        <time>2024-09-01T08:56:55Z</time>
      </trkpt>
      <trkpt lat="49.26711" lon="2.3989">
        <ele>70.7</ele>
        <time>2024-09-01T08:56:56Z</time>
      </trkpt>
      <trkpt lat="49.26713" lon="2.3989">
        <ele>70.8</ele>
        <time>2024-09-01T08:56:57Z</time>
      </trkpt>
      <trkpt lat="49.26714" lon="2.39891">
        <ele>70.8</ele>
        <time>2024-09-01T08:56:58Z</time>
      </trkpt>
      <trkpt lat="49.26715" lon="2.39891">
        <ele>71</ele>
        <time>2024-09-01T08:56:59Z</time>
      </trkpt>
      <trkpt lat="49.26717" lon="2.39892">
        <ele>71.1</ele>
        <time>2024-09-01T08:57:00Z</time>
      </trkpt>
      <trkpt lat="49.26718" lon="2.39893">
        <ele>71.2</ele>
        <time>2024-09-01T08:57:01Z</time>
      </trkpt>
      <trkpt lat="49.26719" lon="2.39893">
        <ele>71.3</ele>
        <time>2024-09-01T08:57:02Z</time>
      </trkpt>
      <trkpt lat="49.26721" lon="2.39894">
        <ele>71.5</ele>
        <time>2024-09-01T08:57:03Z</time>
      </trkpt>
      <trkpt lat="49.26722" lon="2.39895">
        <ele>71.7</ele>
        <time>2024-09-01T08:57:04Z</time>
      </trkpt>
      <trkpt lat="49.26723" lon="2.39896">
        <ele>71.8</ele>
        <time>2024-09-01T08:57:05Z</time>
      </trkpt>
      <trkpt lat="49.26724" lon="2.39897">
        <ele>72</ele>
        <time>2024-09-01T08:57:06Z</time>
      </trkpt>
      <trkpt lat="49.26726" lon="2.39899">
        <ele>72.2</ele>
        <time>2024-09-01T08:57:07Z</time>
      </trkpt>
      <trkpt lat="49.26727" lon="2.399">
        <ele>72.4</ele>
        <time>2024-09-01T08:57:08Z</time>
      </trkpt>
      <trkpt lat="49.26729" lon="2.39902">
        <ele>72.6</ele>
        <time>2024-09-01T08:57:09Z</time>
      </trkpt>
      <trkpt lat="49.2673" lon="2.39904">
        <ele>72.9</ele>
        <time>2024-09-01T08:57:10Z</time>
      </trkpt>
      <trkpt lat="49.26732" lon="2.39905">
        <ele>73.1</ele>
        <time>2024-09-01T08:57:11Z</time>
      </trkpt>
      <trkpt lat="49.26734" lon="2.39907">
        <ele>73.4</ele>
        <time>2024-09-01T08:57:12Z</time>
      </trkpt>
      <trkpt lat="49.26735" lon="2.39909">
        <ele>73.6</ele>
        <time>2024-09-01T08:57:13Z</time>
      </trkpt>
      <trkpt lat="49.26736" lon="2.3991">
        <ele>73.8</ele>
        <time>2024-09-01T08:57:14Z</time>
      </trkpt>
      <trkpt lat="49.26738" lon="2.39911">
        <ele>74</ele>
        <time>2024-09-01T08:57:15Z</time>
      </trkpt>
      <trkpt lat="49.26739" lon="2.39913">
        <ele>74.2</ele>
        <time>2024-09-01T08:57:16Z</time>
      </trkpt>
      <trkpt lat="49.26741" lon="2.39914">
        <ele>74.4</ele>
        <time>2024-09-01T08:57:17Z</time>
      </trkpt>
      <trkpt lat="49.26742" lon="2.39915">
        <ele>74.5</ele>
        <time>2024-09-01T08:57:18Z</time>
      </trkpt>
      <trkpt lat="49.26743" lon="2.39916">
        <ele>74.7</ele>
        <time>2024-09-01T08:57:19Z</time>
      </trkpt>
      <trkpt lat="49.26744" lon="2.39918">
        <ele>74.8</ele>
        <time>2024-09-01T08:57:20Z</time>
      </trkpt>
      <trkpt lat="49.26745" lon="2.39919">
        <ele>74.8</ele>
        <time>2024-09-01T08:57:21Z</time>
      </trkpt>
      <trkpt lat="49.26746" lon="2.3992">
        <ele>74.8</ele>
        <time>2024-09-01T08:57:22Z</time>
      </trkpt>
      <trkpt lat="49.26747" lon="2.39921">
        <ele>74.8</ele>
        <time>2024-09-01T08:57:23Z</time>
      </trkpt>
      <trkpt lat="49.26748" lon="2.39922">
        <ele>74.8</ele>
        <time>2024-09-01T08:57:24Z</time>
      </trkpt>
      <trkpt lat="49.26749" lon="2.39923">
        <ele>74.8</ele>
        <time>2024-09-01T08:57:25Z</time>
      </trkpt>
      <trkpt lat="49.2675" lon="2.39924">
        <ele>74.8</ele>
        <time>2024-09-01T08:57:26Z</time>
      </trkpt>
      <trkpt lat="49.26751" lon="2.39925">
        <ele>74.8</ele>
        <time>2024-09-01T08:57:27Z</time>
      </trkpt>
      <trkpt lat="49.26753" lon="2.39926">
        <ele>74.8</ele>
        <time>2024-09-01T08:57:28Z</time>
      </trkpt>
      <trkpt lat="49.26754" lon="2.39927">
        <ele>74.9</ele>
        <time>2024-09-01T08:57:29Z</time>
      </trkpt>
      <trkpt lat="49.26755" lon="2.39928">
        <ele>74.9</ele>
        <time>2024-09-01T08:57:30Z</time>
      </trkpt>
      <trkpt lat="49.26757" lon="2.39929">
        <ele>75</ele>
        <time>2024-09-01T08:57:31Z</time>
      </trkpt>
      <trkpt lat="49.26758" lon="2.39931">
        <ele>75</ele>
        <time>2024-09-01T08:57:32Z</time>
      </trkpt>
      <trkpt lat="49.26759" lon="2.39932">
        <ele>75.1</ele>
        <time>2024-09-01T08:57:33Z</time>
      </trkpt>
      <trkpt lat="49.26759" lon="2.39933">
        <ele>75.1</ele>
        <time>2024-09-01T08:57:34Z</time>
      </trkpt>
      <trkpt lat="49.2676" lon="2.39935">
        <ele>75.2</ele>
        <time>2024-09-01T08:57:35Z</time>
      </trkpt>
      <trkpt lat="49.26761" lon="2.39937">
        <ele>75.2</ele>
        <time>2024-09-01T08:57:36Z</time>
      </trkpt>
      <trkpt lat="49.26762" lon="2.39939">
        <ele>75.3</ele>
        <time>2024-09-01T08:57:37Z</time>
      </trkpt>
      <trkpt lat="49.26762" lon="2.39941">
        <ele>75.3</ele>
        <time>2024-09-01T08:57:38Z</time>
      </trkpt>
      <trkpt lat="49.26763" lon="2.39944">
        <ele>75.4</ele>
        <time>2024-09-01T08:57:39Z</time>
      </trkpt>
      <trkpt lat="49.26764" lon="2.39946">
        <ele>75.5</ele>
        <time>2024-09-01T08:57:40Z</time>
      </trkpt>
      <trkpt lat="49.26764" lon="2.39948">
        <ele>75.6</ele>
        <time>2024-09-01T08:57:41Z</time>
      </trkpt>
      <trkpt lat="49.26765" lon="2.3995">
        <ele>75.7</ele>
        <time>2024-09-01T08:57:42Z</time>
      </trkpt>
      <trkpt lat="49.26766" lon="2.39952">
        <ele>75.7</ele>
        <time>2024-09-01T08:57:43Z</time>
      </trkpt>
      <trkpt lat="49.26767" lon="2.39954">
        <ele>75.7</ele>
        <time>2024-09-01T08:57:44Z</time>
      </trkpt>
      <trkpt lat="49.26767" lon="2.39955">
        <ele>75.6</ele>
        <time>2024-09-01T08:57:45Z</time>
      </trkpt>
      <trkpt lat="49.26768" lon="2.39957">
        <ele>75.6</ele>
        <time>2024-09-01T08:57:46Z</time>
      </trkpt>
      <trkpt lat="49.26769" lon="2.39959">
        <ele>75.5</ele>
        <time>2024-09-01T08:57:47Z</time>
      </trkpt>
      <trkpt lat="49.26769" lon="2.39961">
        <ele>75.4</ele>
        <time>2024-09-01T08:57:48Z</time>
      </trkpt>
      <trkpt lat="49.2677" lon="2.39963">
        <ele>75.2</ele>
        <time>2024-09-01T08:57:49Z</time>
      </trkpt>
      <trkpt lat="49.2677" lon="2.39964">
        <ele>75.1</ele>
        <time>2024-09-01T08:57:50Z</time>
      </trkpt>
      <trkpt lat="49.26771" lon="2.39966">
        <ele>74.9</ele>
        <time>2024-09-01T08:57:51Z</time>
      </trkpt>
      <trkpt lat="49.26771" lon="2.39968">
        <ele>74.7</ele>
        <time>2024-09-01T08:57:52Z</time>
      </trkpt>
      <trkpt lat="49.26772" lon="2.39969">
        <ele>74.5</ele>
        <time>2024-09-01T08:57:53Z</time>
      </trkpt>
      <trkpt lat="49.26773" lon="2.39971">
        <ele>74.2</ele>
        <time>2024-09-01T08:57:54Z</time>
      </trkpt>
      <trkpt lat="49.26774" lon="2.39973">
        <ele>73.9</ele>
        <time>2024-09-01T08:57:55Z</time>
      </trkpt>
      <trkpt lat="49.26775" lon="2.39975">
        <ele>73.7</ele>
        <time>2024-09-01T08:57:56Z</time>
      </trkpt>
      <trkpt lat="49.26776" lon="2.39978">
        <ele>73.4</ele>
        <time>2024-09-01T08:57:57Z</time>
      </trkpt>
      <trkpt lat="49.26776" lon="2.3998">
        <ele>73.2</ele>
        <time>2024-09-01T08:57:58Z</time>
      </trkpt>
      <trkpt lat="49.26777" lon="2.39983">
        <ele>73.1</ele>
        <time>2024-09-01T08:57:59Z</time>
      </trkpt>
      <trkpt lat="49.26778" lon="2.39986">
        <ele>73.1</ele>
        <time>2024-09-01T08:58:00Z</time>
      </trkpt>
      <trkpt lat="49.26779" lon="2.39988">
        <ele>73.1</ele>
        <time>2024-09-01T08:58:01Z</time>
      </trkpt>
      <trkpt lat="49.2678" lon="2.39991">
        <ele>73.2</ele>
        <time>2024-09-01T08:58:02Z</time>
      </trkpt>
      <trkpt lat="49.2678" lon="2.39994">
        <ele>73.2</ele>
        <time>2024-09-01T08:58:03Z</time>
      </trkpt>
      <trkpt lat="49.2678" lon="2.39996">
        <ele>73.2</ele>
        <time>2024-09-01T08:58:04Z</time>
      </trkpt>
      <trkpt lat="49.26781" lon="2.39999">
        <ele>73.2</ele>
        <time>2024-09-01T08:58:05Z</time>
      </trkpt>
      <trkpt lat="49.26781" lon="2.40001">
        <ele>73.2</ele>
        <time>2024-09-01T08:58:06Z</time>
      </trkpt>
      <trkpt lat="49.26781" lon="2.40003">
        <ele>73.2</ele>
        <time>2024-09-01T08:58:07Z</time>
      </trkpt>
      <trkpt lat="49.26781" lon="2.40005">
        <ele>73.2</ele>
        <time>2024-09-01T08:58:08Z</time>
      </trkpt>
      <trkpt lat="49.26782" lon="2.40007">
        <ele>73.2</ele>
        <time>2024-09-01T08:58:09Z</time>
      </trkpt>
      <trkpt lat="49.26782" lon="2.40009">
        <ele>73.2</ele>
        <time>2024-09-01T08:58:10Z</time>
      </trkpt>
      <trkpt lat="49.26782" lon="2.40011">
        <ele>73.3</ele>
        <time>2024-09-01T08:58:11Z</time>
      </trkpt>
      <trkpt lat="49.26782" lon="2.40013">
        <ele>73.2</ele>
        <time>2024-09-01T08:58:12Z</time>
      </trkpt>
      <trkpt lat="49.26783" lon="2.40015">
        <ele>73.3</ele>
        <time>2024-09-01T08:58:13Z</time>
      </trkpt>
      <trkpt lat="49.26783" lon="2.40017">
        <ele>73.3</ele>
        <time>2024-09-01T08:58:14Z</time>
      </trkpt>
      <trkpt lat="49.26783" lon="2.4002">
        <ele>73.3</ele>
        <time>2024-09-01T08:58:15Z</time>
      </trkpt>
      <trkpt lat="49.26784" lon="2.40022">
        <ele>73.3</ele>
        <time>2024-09-01T08:58:16Z</time>
      </trkpt>
      <trkpt lat="49.26784" lon="2.40025">
        <ele>73.3</ele>
        <time>2024-09-01T08:58:17Z</time>
      </trkpt>
      <trkpt lat="49.26785" lon="2.40027">
        <ele>73.3</ele>
        <time>2024-09-01T08:58:18Z</time>
      </trkpt>
      <trkpt lat="49.26786" lon="2.40029">
        <ele>73.3</ele>
        <time>2024-09-01T08:58:19Z</time>
      </trkpt>
      <trkpt lat="49.26787" lon="2.40031">
        <ele>73.3</ele>
        <time>2024-09-01T08:58:20Z</time>
      </trkpt>
      <trkpt lat="49.26788" lon="2.40033">
        <ele>73.4</ele>
        <time>2024-09-01T08:58:21Z</time>
      </trkpt>
      <trkpt lat="49.26789" lon="2.40035">
        <ele>73.4</ele>
        <time>2024-09-01T08:58:22Z</time>
      </trkpt>
      <trkpt lat="49.26791" lon="2.40037">
        <ele>73.5</ele>
        <time>2024-09-01T08:58:23Z</time>
      </trkpt>
      <trkpt lat="49.26792" lon="2.40039">
        <ele>73.5</ele>
        <time>2024-09-01T08:58:24Z</time>
      </trkpt>
      <trkpt lat="49.26794" lon="2.4004">
        <ele>73.6</ele>
        <time>2024-09-01T08:58:25Z</time>
      </trkpt>
      <trkpt lat="49.26795" lon="2.40042">
        <ele>73.6</ele>
        <time>2024-09-01T08:58:26Z</time>
      </trkpt>
      <trkpt lat="49.26797" lon="2.40043">
        <ele>73.7</ele>
        <time>2024-09-01T08:58:27Z</time>
      </trkpt>
      <trkpt lat="49.26798" lon="2.40044">
        <ele>73.7</ele>
        <time>2024-09-01T08:58:28Z</time>
      </trkpt>
      <trkpt lat="49.26799" lon="2.40045">
        <ele>73.8</ele>
        <time>2024-09-01T08:58:29Z</time>
      </trkpt>
      <trkpt lat="49.268" lon="2.40046">
        <ele>73.8</ele>
        <time>2024-09-01T08:58:30Z</time>
      </trkpt>
      <trkpt lat="49.26801" lon="2.40047">
        <ele>73.8</ele>
        <time>2024-09-01T08:58:31Z</time>
      </trkpt>
      <trkpt lat="49.26803" lon="2.40048">
        <ele>73.9</ele>
        <time>2024-09-01T08:58:32Z</time>
      </trkpt>
      <trkpt lat="49.26804" lon="2.40048">
        <ele>73.9</ele>
        <time>2024-09-01T08:58:33Z</time>
      </trkpt>
      <trkpt lat="49.26805" lon="2.40049">
        <ele>74</ele>
        <time>2024-09-01T08:58:34Z</time>
      </trkpt>
      <trkpt lat="49.26806" lon="2.4005">
        <ele>74</ele>
        <time>2024-09-01T08:58:35Z</time>
      </trkpt>
      <trkpt lat="49.26807" lon="2.4005">
        <ele>74</ele>
        <time>2024-09-01T08:58:36Z</time>
      </trkpt>
      <trkpt lat="49.26809" lon="2.40051">
        <ele>74</ele>
        <time>2024-09-01T08:58:37Z</time>
      </trkpt>
      <trkpt lat="49.2681" lon="2.40052">
        <ele>74</ele>
        <time>2024-09-01T08:58:38Z</time>
      </trkpt>
      <trkpt lat="49.26811" lon="2.40052">
        <ele>74</ele>
        <time>2024-09-01T08:58:39Z</time>
      </trkpt>
      <trkpt lat="49.26813" lon="2.40053">
        <ele>74</ele>
        <time>2024-09-01T08:58:40Z</time>
      </trkpt>
      <trkpt lat="49.26814" lon="2.40054">
        <ele>74</ele>
        <time>2024-09-01T08:58:41Z</time>
      </trkpt>
      <trkpt lat="49.26816" lon="2.40055">
        <ele>74</ele>
        <time>2024-09-01T08:58:42Z</time>
      </trkpt>
      <trkpt lat="49.26818" lon="2.40056">
        <ele>74</ele>
        <time>2024-09-01T08:58:43Z</time>
      </trkpt>
      <trkpt lat="49.26819" lon="2.40057">
        <ele>74</ele>
        <time>2024-09-01T08:58:44Z</time>
      </trkpt>
      <trkpt lat="49.26821" lon="2.40058">
        <ele>74</ele>
        <time>2024-09-01T08:58:45Z</time>
      </trkpt>
      <trkpt lat="49.26823" lon="2.40058">
        <ele>74</ele>
        <time>2024-09-01T08:58:46Z</time>
      </trkpt>
      <trkpt lat="49.26824" lon="2.40058">
        <ele>74</ele>
        <time>2024-09-01T08:58:47Z</time>
      </trkpt>
      <trkpt lat="49.26826" lon="2.40058">
        <ele>74</ele>
        <time>2024-09-01T08:58:48Z</time>
      </trkpt>
      <trkpt lat="49.26827" lon="2.40058">
        <ele>74</ele>
        <time>2024-09-01T08:58:49Z</time>
      </trkpt>
      <trkpt lat="49.26829" lon="2.40057">
        <ele>74</ele>
        <time>2024-09-01T08:58:50Z</time>
      </trkpt>
      <trkpt lat="49.2683" lon="2.40056">
        <ele>74</ele>
        <time>2024-09-01T08:58:51Z</time>
      </trkpt>
      <trkpt lat="49.26832" lon="2.40055">
        <ele>74</ele>
        <time>2024-09-01T08:58:52Z</time>
      </trkpt>
      <trkpt lat="49.26833" lon="2.40053">
        <ele>74</ele>
        <time>2024-09-01T08:58:53Z</time>
      </trkpt>
      <trkpt lat="49.26834" lon="2.40051">
        <ele>74</ele>
        <time>2024-09-01T08:58:54Z</time>
      </trkpt>
      <trkpt lat="49.26835" lon="2.40049">
        <ele>74</ele>
        <time>2024-09-01T08:58:55Z</time>
      </trkpt>
      <trkpt lat="49.26835" lon="2.40047">
        <ele>73.9</ele>
        <time>2024-09-01T08:58:56Z</time>
      </trkpt>
      <trkpt lat="49.26836" lon="2.40045">
        <ele>73.9</ele>
        <time>2024-09-01T08:58:57Z</time>
      </trkpt>
      <trkpt lat="49.26837" lon="2.40043">
        <ele>73.9</ele>
        <time>2024-09-01T08:58:58Z</time>
      </trkpt>
      <trkpt lat="49.26838" lon="2.40041">
        <ele>73.8</ele>
        <time>2024-09-01T08:58:59Z</time>
      </trkpt>
      <trkpt lat="49.26839" lon="2.40039">
        <ele>73.8</ele>
        <time>2024-09-01T08:59:00Z</time>
      </trkpt>
      <trkpt lat="49.26839" lon="2.40038">
        <ele>73.8</ele>
        <time>2024-09-01T08:59:01Z</time>
      </trkpt>
      <trkpt lat="49.2684" lon="2.40036">
        <ele>73.8</ele>
        <time>2024-09-01T08:59:02Z</time>
      </trkpt>
      <trkpt lat="49.26841" lon="2.40034">
        <ele>73.7</ele>
        <time>2024-09-01T08:59:03Z</time>
      </trkpt>
      <trkpt lat="49.26842" lon="2.40033">
        <ele>73.7</ele>
        <time>2024-09-01T08:59:04Z</time>
      </trkpt>
      <trkpt lat="49.26843" lon="2.40031">
        <ele>73.7</ele>
        <time>2024-09-01T08:59:05Z</time>
      </trkpt>
      <trkpt lat="49.26844" lon="2.4003">
        <ele>73.6</ele>
        <time>2024-09-01T08:59:06Z</time>
      </trkpt>
      <trkpt lat="49.26845" lon="2.40028">
        <ele>73.6</ele>
        <time>2024-09-01T08:59:07Z</time>
      </trkpt>
      <trkpt lat="49.26845" lon="2.40027">
        <ele>73.6</ele>
        <time>2024-09-01T08:59:08Z</time>
      </trkpt>
      <trkpt lat="49.26846" lon="2.40026">
        <ele>73.7</ele>
        <time>2024-09-01T08:59:09Z</time>
      </trkpt>
      <trkpt lat="49.26847" lon="2.40025">
        <ele>73.6</ele>
        <time>2024-09-01T08:59:10Z</time>
      </trkpt>
      <trkpt lat="49.26848" lon="2.40025">
        <ele>73.6</ele>
        <time>2024-09-01T08:59:11Z</time>
      </trkpt>
      <trkpt lat="49.26849" lon="2.40025">
        <ele>73.6</ele>
        <time>2024-09-01T08:59:12Z</time>
      </trkpt>
      <trkpt lat="49.2685" lon="2.40025">
        <ele>73.6</ele>
        <time>2024-09-01T08:59:13Z</time>
      </trkpt>
      <trkpt lat="49.26851" lon="2.40025">
        <ele>73.5</ele>
        <time>2024-09-01T08:59:14Z</time>
      </trkpt>
      <trkpt lat="49.26852" lon="2.40026">
        <ele>73.4</ele>
        <time>2024-09-01T08:59:15Z</time>
      </trkpt>
      <trkpt lat="49.26853" lon="2.40027">
        <ele>73.3</ele>
        <time>2024-09-01T08:59:16Z</time>
      </trkpt>
      <trkpt lat="49.26854" lon="2.40027">
        <ele>73.3</ele>
        <time>2024-09-01T08:59:17Z</time>
      </trkpt>
      <trkpt lat="49.26856" lon="2.40028">
        <ele>73.2</ele>
        <time>2024-09-01T08:59:18Z</time>
      </trkpt>
      <trkpt lat="49.26857" lon="2.40029">
        <ele>73.2</ele>
        <time>2024-09-01T08:59:19Z</time>
      </trkpt>
      <trkpt lat="49.26858" lon="2.40029">
        <ele>73.1</ele>
        <time>2024-09-01T08:59:20Z</time>
      </trkpt>
      <trkpt lat="49.26859" lon="2.40029">
        <ele>73.1</ele>
        <time>2024-09-01T08:59:21Z</time>
      </trkpt>
      <trkpt lat="49.26859" lon="2.4003">
        <ele>73.1</ele>
        <time>2024-09-01T08:59:22Z</time>
      </trkpt>
      <trkpt lat="49.2686" lon="2.40031">
        <ele>73.1</ele>
        <time>2024-09-01T08:59:23Z</time>
      </trkpt>
      <trkpt lat="49.2686" lon="2.40033">
        <ele>73</ele>
        <time>2024-09-01T08:59:24Z</time>
      </trkpt>
      <trkpt lat="49.26861" lon="2.40035">
        <ele>73</ele>
        <time>2024-09-01T08:59:25Z</time>
      </trkpt>
      <trkpt lat="49.26862" lon="2.40038">
        <ele>73.1</ele>
        <time>2024-09-01T08:59:26Z</time>
      </trkpt>
      <trkpt lat="49.26862" lon="2.4004">
        <ele>73.2</ele>
        <time>2024-09-01T08:59:27Z</time>
      </trkpt>
      <trkpt lat="49.26864" lon="2.40043">
        <ele>73.3</ele>
        <time>2024-09-01T08:59:28Z</time>
      </trkpt>
      <trkpt lat="49.26865" lon="2.40046">
        <ele>73.4</ele>
        <time>2024-09-01T08:59:29Z</time>
      </trkpt>
      <trkpt lat="49.26866" lon="2.40049">
        <ele>73.5</ele>
        <time>2024-09-01T08:59:30Z</time>
      </trkpt>
      <trkpt lat="49.26867" lon="2.40052">
        <ele>73.5</ele>
        <time>2024-09-01T08:59:31Z</time>
      </trkpt>
      <trkpt lat="49.26868" lon="2.40054">
        <ele>73.6</ele>
        <time>2024-09-01T08:59:32Z</time>
      </trkpt>
      <trkpt lat="49.26869" lon="2.40056">
        <ele>73.6</ele>
        <time>2024-09-01T08:59:33Z</time>
      </trkpt>
      <trkpt lat="49.2687" lon="2.40058">
        <ele>73.6</ele>
        <time>2024-09-01T08:59:34Z</time>
      </trkpt>
      <trkpt lat="49.26872" lon="2.40059">
        <ele>73.6</ele>
        <time>2024-09-01T08:59:35Z</time>
      </trkpt>
      <trkpt lat="49.26873" lon="2.40061">
        <ele>73.6</ele>
        <time>2024-09-01T08:59:36Z</time>
      </trkpt>
      <trkpt lat="49.26874" lon="2.40062">
        <ele>73.6</ele>
        <time>2024-09-01T08:59:37Z</time>
      </trkpt>
      <trkpt lat="49.26875" lon="2.40063">
        <ele>73.6</ele>
        <time>2024-09-01T08:59:38Z</time>
      </trkpt>
      <trkpt lat="49.26876" lon="2.40064">
        <ele>73.6</ele>
        <time>2024-09-01T08:59:39Z</time>
      </trkpt>
      <trkpt lat="49.26877" lon="2.40065">
        <ele>73.6</ele>
        <time>2024-09-01T08:59:40Z</time>
      </trkpt>
      <trkpt lat="49.26878" lon="2.40066">
        <ele>73.7</ele>
        <time>2024-09-01T08:59:41Z</time>
      </trkpt>
      <trkpt lat="49.2688" lon="2.40066">
        <ele>73.7</ele>
        <time>2024-09-01T08:59:42Z</time>
      </trkpt>
      <trkpt lat="49.26881" lon="2.40067">
        <ele>73.7</ele>
        <time>2024-09-01T08:59:43Z</time>
      </trkpt>
      <trkpt lat="49.26881" lon="2.40067">
        <ele>73.8</ele>
        <time>2024-09-01T08:59:44Z</time>
      </trkpt>
      <trkpt lat="49.26882" lon="2.40067">
        <ele>73.8</ele>
        <time>2024-09-01T08:59:45Z</time>
      </trkpt>
      <trkpt lat="49.26883" lon="2.40068">
        <ele>73.8</ele>
        <time>2024-09-01T08:59:46Z</time>
      </trkpt>
      <trkpt lat="49.26884" lon="2.40068">
        <ele>73.8</ele>
        <time>2024-09-01T08:59:47Z</time>
      </trkpt>
      <trkpt lat="49.26885" lon="2.40069">
        <ele>73.8</ele>
        <time>2024-09-01T08:59:48Z</time>
      </trkpt>
      <trkpt lat="49.26886" lon="2.4007">
        <ele>73.8</ele>
        <time>2024-09-01T08:59:49Z</time>
      </trkpt>
      <trkpt lat="49.26887" lon="2.40071">
        <ele>73.8</ele>
        <time>2024-09-01T08:59:50Z</time>
      </trkpt>
      <trkpt lat="49.26888" lon="2.40072">
        <ele>73.7</ele>
        <time>2024-09-01T08:59:51Z</time>
      </trkpt>
      <trkpt lat="49.26889" lon="2.40074">
        <ele>73.7</ele>
        <time>2024-09-01T08:59:52Z</time>
      </trkpt>
      <trkpt lat="49.26889" lon="2.40075">
        <ele>73.5</ele>
        <time>2024-09-01T08:59:53Z</time>
      </trkpt>
      <trkpt lat="49.2689" lon="2.40077">
        <ele>73.3</ele>
        <time>2024-09-01T08:59:54Z</time>
      </trkpt>
      <trkpt lat="49.26891" lon="2.40078">
        <ele>73.1</ele>
        <time>2024-09-01T08:59:55Z</time>
      </trkpt>
      <trkpt lat="49.26891" lon="2.4008">
        <ele>73</ele>
        <time>2024-09-01T08:59:56Z</time>
      </trkpt>
      <trkpt lat="49.26891" lon="2.40081">
        <ele>72.8</ele>
        <time>2024-09-01T08:59:57Z</time>
      </trkpt>
      <trkpt lat="49.26891" lon="2.40083">
        <ele>72.6</ele>
        <time>2024-09-01T08:59:58Z</time>
      </trkpt>
      <trkpt lat="49.26892" lon="2.40084">
        <ele>72.5</ele>
        <time>2024-09-01T08:59:59Z</time>
      </trkpt>
      <trkpt lat="49.26892" lon="2.40087">
        <ele>72.3</ele>
        <time>2024-09-01T09:00:09Z</time>
      </trkpt>
      <trkpt lat="49.26892" lon="2.40087">
        <ele>72.3</ele>
        <time>2024-09-01T09:00:10Z</time>
      </trkpt>
      <trkpt lat="49.26892" lon="2.40088">
        <ele>72.2</ele>
        <time>2024-09-01T09:00:11Z</time>
      </trkpt>
      <trkpt lat="49.26891" lon="2.40088">
        <ele>72.3</ele>
        <time>2024-09-01T09:00:12Z</time>
      </trkpt>
      <trkpt lat="49.2689" lon="2.40088">
        <ele>72.4</ele>
        <time>2024-09-01T09:00:13Z</time>
      </trkpt>
      <trkpt lat="49.2689" lon="2.40088">
        <ele>72.6</ele>
        <time>2024-09-01T09:00:14Z</time>
      </trkpt>
      <trkpt lat="49.26889" lon="2.40089">
        <ele>72.6</ele>
        <time>2024-09-01T09:00:15Z</time>
      </trkpt>
      <trkpt lat="49.26888" lon="2.4009">
        <ele>72.5</ele>
        <time>2024-09-01T09:00:16Z</time>
      </trkpt>
      <trkpt lat="49.26887" lon="2.40091">
        <ele>72.5</ele>
        <time>2024-09-01T09:00:17Z</time>
      </trkpt>
      <trkpt lat="49.26886" lon="2.40092">
        <ele>72.4</ele>
        <time>2024-09-01T09:00:18Z</time>
      </trkpt>
      <trkpt lat="49.26885" lon="2.40093">
        <ele>72.3</ele>
        <time>2024-09-01T09:00:19Z</time>
      </trkpt>
      <trkpt lat="49.26885" lon="2.40095">
        <ele>72.2</ele>
        <time>2024-09-01T09:00:20Z</time>
      </trkpt>
      <trkpt lat="49.26884" lon="2.40097">
        <ele>72.1</ele>
        <time>2024-09-01T09:00:21Z</time>
      </trkpt>
      <trkpt lat="49.26883" lon="2.40099">
        <ele>72</ele>
        <time>2024-09-01T09:00:22Z</time>
      </trkpt>
      <trkpt lat="49.26883" lon="2.40101">
        <ele>71.9</ele>
        <time>2024-09-01T09:00:23Z</time>
      </trkpt>
      <trkpt lat="49.26882" lon="2.40103">
        <ele>71.8</ele>
        <time>2024-09-01T09:00:24Z</time>
      </trkpt>
      <trkpt lat="49.26882" lon="2.40105">
        <ele>71.8</ele>
        <time>2024-09-01T09:00:25Z</time>
      </trkpt>
      <trkpt lat="49.26882" lon="2.40108">
        <ele>71.7</ele>
        <time>2024-09-01T09:00:26Z</time>
      </trkpt>
      <trkpt lat="49.26881" lon="2.4011">
        <ele>71.6</ele>
        <time>2024-09-01T09:00:27Z</time>
      </trkpt>
      <trkpt lat="49.26881" lon="2.40112">
        <ele>71.6</ele>
        <time>2024-09-01T09:00:28Z</time>
      </trkpt>
      <trkpt lat="49.2688" lon="2.40113">
        <ele>71.5</ele>
        <time>2024-09-01T09:00:29Z</time>
      </trkpt>
      <trkpt lat="49.26879" lon="2.40115">
        <ele>71.4</ele>
        <time>2024-09-01T09:00:30Z</time>
      </trkpt>
      <trkpt lat="49.26878" lon="2.40117">
        <ele>71.4</ele>
        <time>2024-09-01T09:00:31Z</time>
      </trkpt>
      <trkpt lat="49.26878" lon="2.40118">
        <ele>71.3</ele>
        <time>2024-09-01T09:00:32Z</time>
      </trkpt>
      <trkpt lat="49.26877" lon="2.4012">
        <ele>71.3</ele>
        <time>2024-09-01T09:00:33Z</time>
      </trkpt>
      <trkpt lat="49.26877" lon="2.40122">
        <ele>71.2</ele>
        <time>2024-09-01T09:00:34Z</time>
      </trkpt>
      <trkpt lat="49.26877" lon="2.40124">
        <ele>71.1</ele>
        <time>2024-09-01T09:00:35Z</time>
      </trkpt>
      <trkpt lat="49.26876" lon="2.40126">
        <ele>71</ele>
        <time>2024-09-01T09:00:36Z</time>
      </trkpt>
      <trkpt lat="49.26876" lon="2.40128">
        <ele>70.9</ele>
        <time>2024-09-01T09:00:37Z</time>
      </trkpt>
      <trkpt lat="49.26876" lon="2.40129">
        <ele>70.8</ele>
        <time>2024-09-01T09:00:38Z</time>
      </trkpt>
      <trkpt lat="49.26877" lon="2.40131">
        <ele>70.7</ele>
        <time>2024-09-01T09:00:39Z</time>
      </trkpt>
      <trkpt lat="49.26877" lon="2.40133">
        <ele>70.6</ele>
        <time>2024-09-01T09:00:40Z</time>
      </trkpt>
      <trkpt lat="49.26877" lon="2.40134">
        <ele>70.5</ele>
        <time>2024-09-01T09:00:41Z</time>
      </trkpt>
      <trkpt lat="49.26877" lon="2.40136">
        <ele>70.4</ele>
        <time>2024-09-01T09:00:42Z</time>
      </trkpt>
      <trkpt lat="49.26876" lon="2.40138">
        <ele>70.3</ele>
        <time>2024-09-01T09:00:43Z</time>
      </trkpt>
      <trkpt lat="49.26876" lon="2.4014">
        <ele>70.4</ele>
        <time>2024-09-01T09:00:44Z</time>
      </trkpt>
      <trkpt lat="49.26875" lon="2.40142">
        <ele>70.5</ele>
        <time>2024-09-01T09:00:45Z</time>
      </trkpt>
      <trkpt lat="49.26875" lon="2.40143">
        <ele>70.6</ele>
        <time>2024-09-01T09:00:46Z</time>
      </trkpt>
      <trkpt lat="49.26874" lon="2.40144">
        <ele>70.7</ele>
        <time>2024-09-01T09:00:47Z</time>
      </trkpt>
      <trkpt lat="49.26874" lon="2.40144">
        <ele>70.8</ele>
        <time>2024-09-01T09:00:48Z</time>
      </trkpt>
      <trkpt lat="49.26873" lon="2.40145">
        <ele>70.8</ele>
        <time>2024-09-01T09:00:49Z</time>
      </trkpt>
      <trkpt lat="49.26873" lon="2.40146">
        <ele>70.9</ele>
        <time>2024-09-01T09:00:50Z</time>
      </trkpt>
      <trkpt lat="49.26873" lon="2.40147">
        <ele>70.9</ele>
        <time>2024-09-01T09:00:51Z</time>
      </trkpt>
      <trkpt lat="49.26872" lon="2.40148">
        <ele>71</ele>
        <time>2024-09-01T09:00:52Z</time>
      </trkpt>
      <trkpt lat="49.26872" lon="2.4015">
        <ele>71.1</ele>
        <time>2024-09-01T09:00:53Z</time>
      </trkpt>
      <trkpt lat="49.26872" lon="2.40153">
        <ele>71.1</ele>
        <time>2024-09-01T09:00:54Z</time>
      </trkpt>
      <trkpt lat="49.26891" lon="2.39881">
        <ele>83</ele>
        <time>2024-09-01T09:09:32Z</time>
      </trkpt>
      <trkpt lat="49.26891" lon="2.3988">
        <ele>83</ele>
        <time>2024-09-01T09:09:33Z</time>
      </trkpt>
      <trkpt lat="49.26892" lon="2.39879">
        <ele>83</ele>
        <time>2024-09-01T09:09:34Z</time>
      </trkpt>
      <trkpt lat="49.26892" lon="2.39878">
        <ele>83</ele>
        <time>2024-09-01T09:09:35Z</time>
      </trkpt>
      <trkpt lat="49.26893" lon="2.39876">
        <ele>83</ele>
        <time>2024-09-01T09:09:36Z</time>
      </trkpt>
      <trkpt lat="49.26894" lon="2.39874">
        <ele>83</ele>
        <time>2024-09-01T09:09:37Z</time>
      </trkpt>
      <trkpt lat="49.26894" lon="2.39872">
        <ele>83</ele>
        <time>2024-09-01T09:09:38Z</time>
      </trkpt>
      <trkpt lat="49.26895" lon="2.3987">
        <ele>83</ele>
        <time>2024-09-01T09:09:39Z</time>
      </trkpt>
      <trkpt lat="49.26896" lon="2.39868">
        <ele>83</ele>
        <time>2024-09-01T09:09:40Z</time>
      </trkpt>
      <trkpt lat="49.26896" lon="2.39866">
        <ele>83</ele>
        <time>2024-09-01T09:09:41Z</time>
      </trkpt>
      <trkpt lat="49.26897" lon="2.39864">
        <ele>83</ele>
        <time>2024-09-01T09:09:42Z</time>
      </trkpt>
      <trkpt lat="49.26897" lon="2.39861">
        <ele>83</ele>
        <time>2024-09-01T09:09:43Z</time>
      </trkpt>
      <trkpt lat="49.26897" lon="2.39859">
        <ele>83</ele>
        <time>2024-09-01T09:09:44Z</time>
      </trkpt>
      <trkpt lat="49.26898" lon="2.39856">
        <ele>83</ele>
        <time>2024-09-01T09:09:45Z</time>
      </trkpt>
      <trkpt lat="49.26898" lon="2.39854">
        <ele>83</ele>
        <time>2024-09-01T09:09:46Z</time>
      </trkpt>
      <trkpt lat="49.26898" lon="2.39851">
        <ele>83</ele>
        <time>2024-09-01T09:09:47Z</time>
      </trkpt>
      <trkpt lat="49.26899" lon="2.39848">
        <ele>83</ele>
        <time>2024-09-01T09:09:48Z</time>
      </trkpt>
      <trkpt lat="49.26899" lon="2.39845">
        <ele>83</ele>
        <time>2024-09-01T09:09:49Z</time>
      </trkpt>
      <trkpt lat="49.26899" lon="2.39842">
        <ele>83</ele>
        <time>2024-09-01T09:09:50Z</time>
      </trkpt>
      <trkpt lat="49.269" lon="2.3984">
        <ele>83</ele>
        <time>2024-09-01T09:09:51Z</time>
      </trkpt>
      <trkpt lat="49.269" lon="2.39837">
        <ele>83</ele>
        <time>2024-09-01T09:09:52Z</time>
      </trkpt>
      <trkpt lat="49.26901" lon="2.39835">
        <ele>83</ele>
        <time>2024-09-01T09:09:53Z</time>
      </trkpt>
      <trkpt lat="49.26902" lon="2.39833">
        <ele>83</ele>
        <time>2024-09-01T09:09:54Z</time>
      </trkpt>
      <trkpt lat="49.26902" lon="2.39831">
        <ele>83</ele>
        <time>2024-09-01T09:09:55Z</time>
      </trkpt>
      <trkpt lat="49.26903" lon="2.39828">
        <ele>83.1</ele>
        <time>2024-09-01T09:09:56Z</time>
      </trkpt>
      <trkpt lat="49.26904" lon="2.39826">
        <ele>83.1</ele>
        <time>2024-09-01T09:09:57Z</time>
      </trkpt>
      <trkpt lat="49.26904" lon="2.39824">
        <ele>83.2</ele>
        <time>2024-09-01T09:09:58Z</time>
      </trkpt>
      <trkpt lat="49.26905" lon="2.39821">
        <ele>83.3</ele>
        <time>2024-09-01T09:09:59Z</time>
      </trkpt>
      <trkpt lat="49.26906" lon="2.39819">
        <ele>83.3</ele>
        <time>2024-09-01T09:10:00Z</time>
      </trkpt>
      <trkpt lat="49.26906" lon="2.39817">
        <ele>83.4</ele>
        <time>2024-09-01T09:10:01Z</time>
      </trkpt>
      <trkpt lat="49.26907" lon="2.39814">
        <ele>83.4</ele>
        <time>2024-09-01T09:10:02Z</time>
      </trkpt>
      <trkpt lat="49.26907" lon="2.39812">
        <ele>83.5</ele>
        <time>2024-09-01T09:10:03Z</time>
      </trkpt>
      <trkpt lat="49.26908" lon="2.3981">
        <ele>83.6</ele>
        <time>2024-09-01T09:10:04Z</time>
      </trkpt>
      <trkpt lat="49.26908" lon="2.39808">
        <ele>83.6</ele>
        <time>2024-09-01T09:10:05Z</time>
      </trkpt>
      <trkpt lat="49.26909" lon="2.39806">
        <ele>83.7</ele>
        <time>2024-09-01T09:10:06Z</time>
      </trkpt>
      <trkpt lat="49.26909" lon="2.39803">
        <ele>83.7</ele>
        <time>2024-09-01T09:10:07Z</time>
      </trkpt>
      <trkpt lat="49.26909" lon="2.39801">
        <ele>83.7</ele>
        <time>2024-09-01T09:10:08Z</time>
      </trkpt>
      <trkpt lat="49.2691" lon="2.39798">
        <ele>83.7</ele>
        <time>2024-09-01T09:10:09Z</time>
      </trkpt>
      <trkpt lat="49.2691" lon="2.39796">
        <ele>83.7</ele>
        <time>2024-09-01T09:10:10Z</time>
      </trkpt>
      <trkpt lat="49.2691" lon="2.39793">
        <ele>83.7</ele>
        <time>2024-09-01T09:10:11Z</time>
      </trkpt>
      <trkpt lat="49.26911" lon="2.39791">
        <ele>83.7</ele>
        <time>2024-09-01T09:10:12Z</time>
      </trkpt>
      <trkpt lat="49.26911" lon="2.39789">
        <ele>83.7</ele>
        <time>2024-09-01T09:10:13Z</time>
      </trkpt>
      <trkpt lat="49.26912" lon="2.39787">
        <ele>83.7</ele>
        <time>2024-09-01T09:10:14Z</time>
      </trkpt>
      <trkpt lat="49.26912" lon="2.39784">
        <ele>83.7</ele>
        <time>2024-09-01T09:10:15Z</time>
      </trkpt>
      <trkpt lat="49.26913" lon="2.39782">
        <ele>83.7</ele>
        <time>2024-09-01T09:10:16Z</time>
      </trkpt>
      <trkpt lat="49.26913" lon="2.3978">
        <ele>83.8</ele>
        <time>2024-09-01T09:10:17Z</time>
      </trkpt>
      <trkpt lat="49.26914" lon="2.39778">
        <ele>83.8</ele>
        <time>2024-09-01T09:10:18Z</time>
      </trkpt>
      <trkpt lat="49.26914" lon="2.39775">
        <ele>83.8</ele>
        <time>2024-09-01T09:10:19Z</time>
      </trkpt>
      <trkpt lat="49.26914" lon="2.39772">
        <ele>83.8</ele>
        <time>2024-09-01T09:10:20Z</time>
      </trkpt>
      <trkpt lat="49.26915" lon="2.3977">
        <ele>83.8</ele>
        <time>2024-09-01T09:10:21Z</time>
      </trkpt>
      <trkpt lat="49.26915" lon="2.39767">
        <ele>83.8</ele>
        <time>2024-09-01T09:10:22Z</time>
      </trkpt>
      <trkpt lat="49.26915" lon="2.39765">
        <ele>83.8</ele>
        <time>2024-09-01T09:10:23Z</time>
      </trkpt>
      <trkpt lat="49.26915" lon="2.39763">
        <ele>83.9</ele>
        <time>2024-09-01T09:10:24Z</time>
      </trkpt>
      <trkpt lat="49.26916" lon="2.39761">
        <ele>83.9</ele>
        <time>2024-09-01T09:10:25Z</time>
      </trkpt>
      <trkpt lat="49.26916" lon="2.39759">
        <ele>83.9</ele>
        <time>2024-09-01T09:10:26Z</time>
      </trkpt>
      <trkpt lat="49.26916" lon="2.39757">
        <ele>84</ele>
        <time>2024-09-01T09:10:27Z</time>
      </trkpt>
      <trkpt lat="49.26917" lon="2.39755">
        <ele>84</ele>
        <time>2024-09-01T09:10:28Z</time>
      </trkpt>
      <trkpt lat="49.26917" lon="2.39753">
        <ele>84</ele>
        <time>2024-09-01T09:10:29Z</time>
      </trkpt>
      <trkpt lat="49.26918" lon="2.39751">
        <ele>84</ele>
        <time>2024-09-01T09:10:30Z</time>
      </trkpt>
      <trkpt lat="49.26918" lon="2.39749">
        <ele>84</ele>
        <time>2024-09-01T09:10:31Z</time>
      </trkpt>
      <trkpt lat="49.26918" lon="2.39747">
        <ele>84.1</ele>
        <time>2024-09-01T09:10:32Z</time>
      </trkpt>
      <trkpt lat="49.26918" lon="2.39745">
        <ele>84.1</ele>
        <time>2024-09-01T09:10:33Z</time>
      </trkpt>
      <trkpt lat="49.26918" lon="2.39742">
        <ele>84.1</ele>
        <time>2024-09-01T09:10:34Z</time>
      </trkpt>
      <trkpt lat="49.26918" lon="2.3974">
        <ele>84.1</ele>
        <time>2024-09-01T09:10:35Z</time>
      </trkpt>
      <trkpt lat="49.26918" lon="2.39738">
        <ele>84.1</ele>
        <time>2024-09-01T09:10:36Z</time>
      </trkpt>
      <trkpt lat="49.26918" lon="2.39735">
        <ele>84.1</ele>
        <time>2024-09-01T09:10:37Z</time>
      </trkpt>
      <trkpt lat="49.26918" lon="2.39733">
        <ele>84.1</ele>
        <time>2024-09-01T09:10:38Z</time>
      </trkpt>
      <trkpt lat="49.26918" lon="2.39731">
        <ele>84.1</ele>
        <time>2024-09-01T09:10:39Z</time>
      </trkpt>
      <trkpt lat="49.26918" lon="2.39728">
        <ele>84.1</ele>
        <time>2024-09-01T09:10:40Z</time>
      </trkpt>
      <trkpt lat="49.26918" lon="2.39727">
        <ele>84.1</ele>
        <time>2024-09-01T09:10:41Z</time>
      </trkpt>
      <trkpt lat="49.26918" lon="2.39725">
        <ele>84.2</ele>
        <time>2024-09-01T09:10:42Z</time>
      </trkpt>
      <trkpt lat="49.26918" lon="2.39724">
        <ele>84.1</ele>
        <time>2024-09-01T09:10:43Z</time>
      </trkpt>
      <trkpt lat="49.26918" lon="2.39722">
        <ele>84.2</ele>
        <time>2024-09-01T09:10:44Z</time>
      </trkpt>
      <trkpt lat="49.26918" lon="2.39721">
        <ele>84.2</ele>
        <time>2024-09-01T09:10:45Z</time>
      </trkpt>
      <trkpt lat="49.26918" lon="2.39719">
        <ele>84.2</ele>
        <time>2024-09-01T09:10:46Z</time>
      </trkpt>
      <trkpt lat="49.26919" lon="2.39718">
        <ele>84.2</ele>
        <time>2024-09-01T09:10:47Z</time>
      </trkpt>
      <trkpt lat="49.26919" lon="2.39716">
        <ele>84.3</ele>
        <time>2024-09-01T09:10:48Z</time>
      </trkpt>
      <trkpt lat="49.2692" lon="2.39716">
        <ele>84.3</ele>
        <time>2024-09-01T09:10:49Z</time>
      </trkpt>
      <trkpt lat="49.26921" lon="2.39715">
        <ele>84.4</ele>
        <time>2024-09-01T09:10:50Z</time>
      </trkpt>
      <trkpt lat="49.26922" lon="2.39716">
        <ele>84.5</ele>
        <time>2024-09-01T09:10:51Z</time>
      </trkpt>
      <trkpt lat="49.26923" lon="2.39716">
        <ele>84.6</ele>
        <time>2024-09-01T09:10:52Z</time>
      </trkpt>
      <trkpt lat="49.26924" lon="2.39717">
        <ele>84.8</ele>
        <time>2024-09-01T09:10:53Z</time>
      </trkpt>
      <trkpt lat="49.26925" lon="2.39718">
        <ele>84.9</ele>
        <time>2024-09-01T09:10:54Z</time>
      </trkpt>
      <trkpt lat="49.26927" lon="2.39719">
        <ele>85</ele>
        <time>2024-09-01T09:10:55Z</time>
      </trkpt>
      <trkpt lat="49.26928" lon="2.3972">
        <ele>85.2</ele>
        <time>2024-09-01T09:10:56Z</time>
      </trkpt>
      <trkpt lat="49.26929" lon="2.39721">
        <ele>85.3</ele>
        <time>2024-09-01T09:10:57Z</time>
      </trkpt>
      <trkpt lat="49.26931" lon="2.39722">
        <ele>85.5</ele>
        <time>2024-09-01T09:10:58Z</time>
      </trkpt>
      <trkpt lat="49.26932" lon="2.39723">
        <ele>85.6</ele>
        <time>2024-09-01T09:10:59Z</time>
      </trkpt>
      <trkpt lat="49.26933" lon="2.39724">
        <ele>85.7</ele>
        <time>2024-09-01T09:11:00Z</time>
      </trkpt>
      <trkpt lat="49.26935" lon="2.39726">
        <ele>85.8</ele>
        <time>2024-09-01T09:11:01Z</time>
      </trkpt>
      <trkpt lat="49.26936" lon="2.39727">
        <ele>85.8</ele>
        <time>2024-09-01T09:11:02Z</time>
      </trkpt>
      <trkpt lat="49.26937" lon="2.39728">
        <ele>85.9</ele>
        <time>2024-09-01T09:11:03Z</time>
      </trkpt>
      <trkpt lat="49.26938" lon="2.39729">
        <ele>85.9</ele>
        <time>2024-09-01T09:11:04Z</time>
      </trkpt>
      <trkpt lat="49.26939" lon="2.3973">
        <ele>86</ele>
        <time>2024-09-01T09:11:05Z</time>
      </trkpt>
      <trkpt lat="49.2694" lon="2.39731">
        <ele>86</ele>
        <time>2024-09-01T09:11:06Z</time>
      </trkpt>
      <trkpt lat="49.26942" lon="2.39732">
        <ele>86.1</ele>
        <time>2024-09-01T09:11:07Z</time>
      </trkpt>
      <trkpt lat="49.26943" lon="2.39733">
        <ele>86.1</ele>
        <time>2024-09-01T09:11:08Z</time>
      </trkpt>
      <trkpt lat="49.26944" lon="2.39734">
        <ele>86.1</ele>
        <time>2024-09-01T09:11:09Z</time>
      </trkpt>
      <trkpt lat="49.26945" lon="2.39735">
        <ele>86.2</ele>
        <time>2024-09-01T09:11:10Z</time>
      </trkpt>
      <trkpt lat="49.26946" lon="2.39735">
        <ele>86.2</ele>
        <time>2024-09-01T09:11:11Z</time>
      </trkpt>
      <trkpt lat="49.26948" lon="2.39736">
        <ele>86.3</ele>
        <time>2024-09-01T09:11:12Z</time>
      </trkpt>
      <trkpt lat="49.26949" lon="2.39737">
        <ele>86.3</ele>
        <time>2024-09-01T09:11:13Z</time>
      </trkpt>
      <trkpt lat="49.2695" lon="2.39737">
        <ele>86.4</ele>
        <time>2024-09-01T09:11:14Z</time>
      </trkpt>
      <trkpt lat="49.26951" lon="2.39738">
        <ele>86.4</ele>
        <time>2024-09-01T09:11:15Z</time>
      </trkpt>
      <trkpt lat="49.26952" lon="2.39739">
        <ele>86.4</ele>
        <time>2024-09-01T09:11:16Z</time>
      </trkpt>
      <trkpt lat="49.26953" lon="2.3974">
        <ele>86.5</ele>
        <time>2024-09-01T09:11:17Z</time>
      </trkpt>
      <trkpt lat="49.26954" lon="2.39741">
        <ele>86.5</ele>
        <time>2024-09-01T09:11:18Z</time>
      </trkpt>
      <trkpt lat="49.26955" lon="2.39742">
        <ele>86.5</ele>
        <time>2024-09-01T09:11:19Z</time>
      </trkpt>
      <trkpt lat="49.26957" lon="2.39743">
        <ele>86.5</ele>
        <time>2024-09-01T09:11:20Z</time>
      </trkpt>
      <trkpt lat="49.26958" lon="2.39744">
        <ele>86.5</ele>
        <time>2024-09-01T09:11:21Z</time>
      </trkpt>
      <trkpt lat="49.26959" lon="2.39745">
        <ele>86.5</ele>
        <time>2024-09-01T09:11:22Z</time>
      </trkpt>
      <trkpt lat="49.26961" lon="2.39746">
        <ele>86.6</ele>
        <time>2024-09-01T09:11:23Z</time>
      </trkpt>
      <trkpt lat="49.26962" lon="2.39746">
        <ele>86.6</ele>
        <time>2024-09-01T09:11:24Z</time>
      </trkpt>
      <trkpt lat="49.26963" lon="2.39747">
        <ele>86.6</ele>
        <time>2024-09-01T09:11:25Z</time>
      </trkpt>
      <trkpt lat="49.26964" lon="2.39747">
        <ele>86.7</ele>
        <time>2024-09-01T09:11:26Z</time>
      </trkpt>
      <trkpt lat="49.26965" lon="2.39749">
        <ele>86.6</ele>
        <time>2024-09-01T09:11:27Z</time>
      </trkpt>
      <trkpt lat="49.26967" lon="2.3975">
        <ele>86.6</ele>
        <time>2024-09-01T09:11:28Z</time>
      </trkpt>
      <trkpt lat="49.26968" lon="2.39751">
        <ele>86.6</ele>
        <time>2024-09-01T09:11:29Z</time>
      </trkpt>
      <trkpt lat="49.26969" lon="2.39752">
        <ele>86.6</ele>
        <time>2024-09-01T09:11:30Z</time>
      </trkpt>
      <trkpt lat="49.26971" lon="2.39753">
        <ele>86.7</ele>
        <time>2024-09-01T09:11:31Z</time>
      </trkpt>
      <trkpt lat="49.26972" lon="2.39754">
        <ele>86.7</ele>
        <time>2024-09-01T09:11:32Z</time>
      </trkpt>
      <trkpt lat="49.26974" lon="2.39755">
        <ele>86.7</ele>
        <time>2024-09-01T09:11:33Z</time>
      </trkpt>
      <trkpt lat="49.26975" lon="2.39756">
        <ele>86.7</ele>
        <time>2024-09-01T09:11:34Z</time>
      </trkpt>
      <trkpt lat="49.26976" lon="2.39757">
        <ele>86.7</ele>
        <time>2024-09-01T09:11:35Z</time>
      </trkpt>
      <trkpt lat="49.26978" lon="2.39757">
        <ele>86.7</ele>
        <time>2024-09-01T09:11:36Z</time>
      </trkpt>
      <trkpt lat="49.26979" lon="2.39758">
        <ele>86.7</ele>
        <time>2024-09-01T09:11:37Z</time>
      </trkpt>
      <trkpt lat="49.2698" lon="2.39759">
        <ele>86.7</ele>
        <time>2024-09-01T09:11:38Z</time>
      </trkpt>
      <trkpt lat="49.26982" lon="2.39759">
        <ele>86.7</ele>
        <time>2024-09-01T09:11:39Z</time>
      </trkpt>
      <trkpt lat="49.26983" lon="2.3976">
        <ele>86.7</ele>
        <time>2024-09-01T09:11:40Z</time>
      </trkpt>
      <trkpt lat="49.26985" lon="2.39761">
        <ele>86.7</ele>
        <time>2024-09-01T09:11:41Z</time>
      </trkpt>
      <trkpt lat="49.26987" lon="2.39762">
        <ele>86.7</ele>
        <time>2024-09-01T09:11:42Z</time>
      </trkpt>
      <trkpt lat="49.26988" lon="2.39762">
        <ele>86.7</ele>
        <time>2024-09-01T09:11:43Z</time>
      </trkpt>
      <trkpt lat="49.26989" lon="2.39762">
        <ele>86.7</ele>
        <time>2024-09-01T09:11:44Z</time>
      </trkpt>
      <trkpt lat="49.26991" lon="2.39763">
        <ele>86.8</ele>
        <time>2024-09-01T09:11:45Z</time>
      </trkpt>
      <trkpt lat="49.26992" lon="2.39763">
        <ele>86.8</ele>
        <time>2024-09-01T09:11:46Z</time>
      </trkpt>
      <trkpt lat="49.26993" lon="2.39763">
        <ele>86.8</ele>
        <time>2024-09-01T09:11:47Z</time>
      </trkpt>
      <trkpt lat="49.26994" lon="2.39763">
        <ele>86.8</ele>
        <time>2024-09-01T09:11:48Z</time>
      </trkpt>
      <trkpt lat="49.26995" lon="2.39763">
        <ele>86.9</ele>
        <time>2024-09-01T09:11:49Z</time>
      </trkpt>
      <trkpt lat="49.26997" lon="2.39763">
        <ele>86.9</ele>
        <time>2024-09-01T09:11:50Z</time>
      </trkpt>
      <trkpt lat="49.26998" lon="2.39763">
        <ele>87</ele>
        <time>2024-09-01T09:11:51Z</time>
      </trkpt>
      <trkpt lat="49.26999" lon="2.39763">
        <ele>87</ele>
        <time>2024-09-01T09:11:52Z</time>
      </trkpt>
      <trkpt lat="49.27001" lon="2.39763">
        <ele>87.1</ele>
        <time>2024-09-01T09:11:53Z</time>
      </trkpt>
      <trkpt lat="49.27002" lon="2.39763">
        <ele>87.1</ele>
        <time>2024-09-01T09:11:54Z</time>
      </trkpt>
      <trkpt lat="49.27004" lon="2.39763">
        <ele>87</ele>
        <time>2024-09-01T09:11:55Z</time>
      </trkpt>
      <trkpt lat="49.27006" lon="2.39763">
        <ele>87</ele>
        <time>2024-09-01T09:11:56Z</time>
      </trkpt>
      <trkpt lat="49.27008" lon="2.39764">
        <ele>87</ele>
        <time>2024-09-01T09:11:57Z</time>
      </trkpt>
      <trkpt lat="49.2701" lon="2.39764">
        <ele>87</ele>
        <time>2024-09-01T09:11:58Z</time>
      </trkpt>
      <trkpt lat="49.27012" lon="2.39765">
        <ele>87</ele>
        <time>2024-09-01T09:11:59Z</time>
      </trkpt>
      <trkpt lat="49.27013" lon="2.39765">
        <ele>87</ele>
        <time>2024-09-01T09:12:00Z</time>
      </trkpt>
      <trkpt lat="49.27015" lon="2.39767">
        <ele>87</ele>
        <time>2024-09-01T09:12:01Z</time>
      </trkpt>
      <trkpt lat="49.27017" lon="2.39768">
        <ele>87.1</ele>
        <time>2024-09-01T09:12:02Z</time>
      </trkpt>
      <trkpt lat="49.27018" lon="2.39769">
        <ele>87.1</ele>
        <time>2024-09-01T09:12:03Z</time>
      </trkpt>
      <trkpt lat="49.2702" lon="2.39771">
        <ele>87.2</ele>
        <time>2024-09-01T09:12:04Z</time>
      </trkpt>
      <trkpt lat="49.27021" lon="2.39772">
        <ele>87.3</ele>
        <time>2024-09-01T09:12:05Z</time>
      </trkpt>
      <trkpt lat="49.27022" lon="2.39773">
        <ele>87.4</ele>
        <time>2024-09-01T09:12:06Z</time>
      </trkpt>
      <trkpt lat="49.27024" lon="2.39774">
        <ele>87.5</ele>
        <time>2024-09-01T09:12:07Z</time>
      </trkpt>
      <trkpt lat="49.27025" lon="2.39775">
        <ele>87.7</ele>
        <time>2024-09-01T09:12:08Z</time>
      </trkpt>
      <trkpt lat="49.27026" lon="2.39776">
        <ele>87.8</ele>
        <time>2024-09-01T09:12:09Z</time>
      </trkpt>
      <trkpt lat="49.27028" lon="2.39778">
        <ele>88</ele>
        <time>2024-09-01T09:12:10Z</time>
      </trkpt>
      <trkpt lat="49.27029" lon="2.39778">
        <ele>87.9</ele>
        <time>2024-09-01T09:12:11Z</time>
      </trkpt>
      <trkpt lat="49.27031" lon="2.39779">
        <ele>87.9</ele>
        <time>2024-09-01T09:12:12Z</time>
      </trkpt>
      <trkpt lat="49.27033" lon="2.3978">
        <ele>87.8</ele>
        <time>2024-09-01T09:12:13Z</time>
      </trkpt>
      <trkpt lat="49.27034" lon="2.39781">
        <ele>87.8</ele>
        <time>2024-09-01T09:12:14Z</time>
      </trkpt>
      <trkpt lat="49.27036" lon="2.39781">
        <ele>87.8</ele>
        <time>2024-09-01T09:12:15Z</time>
      </trkpt>
      <trkpt lat="49.27038" lon="2.39782">
        <ele>87.8</ele>
        <time>2024-09-01T09:12:16Z</time>
      </trkpt>
      <trkpt lat="49.27039" lon="2.39783">
        <ele>87.8</ele>
        <time>2024-09-01T09:12:17Z</time>
      </trkpt>
      <trkpt lat="49.27041" lon="2.39783">
        <ele>87.8</ele>
        <time>2024-09-01T09:12:18Z</time>
      </trkpt>
      <trkpt lat="49.27042" lon="2.39784">
        <ele>87.8</ele>
        <time>2024-09-01T09:12:19Z</time>
      </trkpt>
      <trkpt lat="49.27044" lon="2.39784">
        <ele>87.8</ele>
        <time>2024-09-01T09:12:20Z</time>
      </trkpt>
      <trkpt lat="49.27045" lon="2.39785">
        <ele>87.9</ele>
        <time>2024-09-01T09:12:21Z</time>
      </trkpt>
      <trkpt lat="49.27047" lon="2.39786">
        <ele>87.9</ele>
        <time>2024-09-01T09:12:22Z</time>
      </trkpt>
      <trkpt lat="49.27048" lon="2.39786">
        <ele>88</ele>
        <time>2024-09-01T09:12:23Z</time>
      </trkpt>
      <trkpt lat="49.2705" lon="2.39787">
        <ele>88.1</ele>
        <time>2024-09-01T09:12:24Z</time>
      </trkpt>
      <trkpt lat="49.27051" lon="2.39788">
        <ele>88.1</ele>
        <time>2024-09-01T09:12:25Z</time>
      </trkpt>
      <trkpt lat="49.27053" lon="2.39789">
        <ele>88.2</ele>
        <time>2024-09-01T09:12:26Z</time>
      </trkpt>
      <trkpt lat="49.27054" lon="2.3979">
        <ele>88.3</ele>
        <time>2024-09-01T09:12:27Z</time>
      </trkpt>
      <trkpt lat="49.27055" lon="2.39791">
        <ele>88.4</ele>
        <time>2024-09-01T09:12:28Z</time>
      </trkpt>
      <trkpt lat="49.27057" lon="2.39792">
        <ele>88.5</ele>
        <time>2024-09-01T09:12:29Z</time>
      </trkpt>
      <trkpt lat="49.27058" lon="2.39793">
        <ele>88.5</ele>
        <time>2024-09-01T09:12:30Z</time>
      </trkpt>
      <trkpt lat="49.2706" lon="2.39794">
        <ele>88.5</ele>
        <time>2024-09-01T09:12:31Z</time>
      </trkpt>
      <trkpt lat="49.27062" lon="2.39795">
        <ele>88.5</ele>
        <time>2024-09-01T09:12:32Z</time>
      </trkpt>
      <trkpt lat="49.27064" lon="2.39796">
        <ele>88.5</ele>
        <time>2024-09-01T09:12:33Z</time>
      </trkpt>
      <trkpt lat="49.27066" lon="2.39798">
        <ele>88.4</ele>
        <time>2024-09-01T09:12:34Z</time>
      </trkpt>
      <trkpt lat="49.27068" lon="2.39799">
        <ele>88.4</ele>
        <time>2024-09-01T09:12:35Z</time>
      </trkpt>
      <trkpt lat="49.2707" lon="2.39801">
        <ele>88.4</ele>
        <time>2024-09-01T09:12:36Z</time>
      </trkpt>
      <trkpt lat="49.27071" lon="2.39802">
        <ele>88.4</ele>
        <time>2024-09-01T09:12:37Z</time>
      </trkpt>
      <trkpt lat="49.27073" lon="2.39804">
        <ele>88.4</ele>
        <time>2024-09-01T09:12:38Z</time>
      </trkpt>
      <trkpt lat="49.27074" lon="2.39806">
        <ele>88.3</ele>
        <time>2024-09-01T09:12:39Z</time>
      </trkpt>
      <trkpt lat="49.27075" lon="2.39807">
        <ele>88.2</ele>
        <time>2024-09-01T09:12:40Z</time>
      </trkpt>
      <trkpt lat="49.27076" lon="2.39809">
        <ele>88.1</ele>
        <time>2024-09-01T09:12:41Z</time>
      </trkpt>
      <trkpt lat="49.27078" lon="2.3981">
        <ele>88</ele>
        <time>2024-09-01T09:12:42Z</time>
      </trkpt>
      <trkpt lat="49.27079" lon="2.39812">
        <ele>88</ele>
        <time>2024-09-01T09:12:43Z</time>
      </trkpt>
      <trkpt lat="49.2708" lon="2.39813">
        <ele>88</ele>
        <time>2024-09-01T09:12:44Z</time>
      </trkpt>
      <trkpt lat="49.27081" lon="2.39815">
        <ele>87.9</ele>
        <time>2024-09-01T09:12:45Z</time>
      </trkpt>
      <trkpt lat="49.27082" lon="2.39816">
        <ele>88</ele>
        <time>2024-09-01T09:12:46Z</time>
      </trkpt>
      <trkpt lat="49.27083" lon="2.39818">
        <ele>88</ele>
        <time>2024-09-01T09:12:47Z</time>
      </trkpt>
      <trkpt lat="49.27084" lon="2.39819">
        <ele>88</ele>
        <time>2024-09-01T09:12:48Z</time>
      </trkpt>
      <trkpt lat="49.27085" lon="2.39821">
        <ele>88.1</ele>
        <time>2024-09-01T09:12:49Z</time>
      </trkpt>
      <trkpt lat="49.27086" lon="2.39822">
        <ele>88.1</ele>
        <time>2024-09-01T09:12:50Z</time>
      </trkpt>
      <trkpt lat="49.27087" lon="2.39824">
        <ele>88.2</ele>
        <time>2024-09-01T09:12:51Z</time>
      </trkpt>
      <trkpt lat="49.27088" lon="2.39826">
        <ele>88.2</ele>
        <time>2024-09-01T09:12:52Z</time>
      </trkpt>
      <trkpt lat="49.2709" lon="2.39828">
        <ele>88.3</ele>
        <time>2024-09-01T09:12:53Z</time>
      </trkpt>
      <trkpt lat="49.27091" lon="2.3983">
        <ele>88.3</ele>
        <time>2024-09-01T09:12:54Z</time>
      </trkpt>
      <trkpt lat="49.27092" lon="2.39832">
        <ele>88.3</ele>
        <time>2024-09-01T09:12:55Z</time>
      </trkpt>
      <trkpt lat="49.27093" lon="2.39834">
        <ele>88.3</ele>
        <time>2024-09-01T09:12:56Z</time>
      </trkpt>
      <trkpt lat="49.27094" lon="2.39836">
        <ele>88.3</ele>
        <time>2024-09-01T09:12:57Z</time>
      </trkpt>
      <trkpt lat="49.27094" lon="2.39838">
        <ele>88.3</ele>
        <time>2024-09-01T09:12:58Z</time>
      </trkpt>
      <trkpt lat="49.27095" lon="2.3984">
        <ele>88.2</ele>
        <time>2024-09-01T09:12:59Z</time>
      </trkpt>
      <trkpt lat="49.27096" lon="2.39842">
        <ele>88.2</ele>
        <time>2024-09-01T09:13:00Z</time>
      </trkpt>
      <trkpt lat="49.27096" lon="2.39844">
        <ele>88.2</ele>
        <time>2024-09-01T09:13:01Z</time>
      </trkpt>
      <trkpt lat="49.27097" lon="2.39846">
        <ele>88.2</ele>
        <time>2024-09-01T09:13:02Z</time>
      </trkpt>
      <trkpt lat="49.27097" lon="2.39848">
        <ele>88.2</ele>
        <time>2024-09-01T09:13:03Z</time>
      </trkpt>
      <trkpt lat="49.27097" lon="2.3985">
        <ele>88.2</ele>
        <time>2024-09-01T09:13:04Z</time>
      </trkpt>
      <trkpt lat="49.27098" lon="2.39853">
        <ele>88.2</ele>
        <time>2024-09-01T09:13:05Z</time>
      </trkpt>
      <trkpt lat="49.27098" lon="2.39855">
        <ele>88.1</ele>
        <time>2024-09-01T09:13:06Z</time>
      </trkpt>
      <trkpt lat="49.27098" lon="2.39858">
        <ele>88.1</ele>
        <time>2024-09-01T09:13:07Z</time>
      </trkpt>
      <trkpt lat="49.27098" lon="2.3986">
        <ele>88.1</ele>
        <time>2024-09-01T09:13:08Z</time>
      </trkpt>
      <trkpt lat="49.27098" lon="2.39863">
        <ele>88</ele>
        <time>2024-09-01T09:13:09Z</time>
      </trkpt>
      <trkpt lat="49.27098" lon="2.39865">
        <ele>88</ele>
        <time>2024-09-01T09:13:10Z</time>
      </trkpt>
      <trkpt lat="49.27098" lon="2.39868">
        <ele>87.9</ele>
        <time>2024-09-01T09:13:11Z</time>
      </trkpt>
      <trkpt lat="49.27097" lon="2.3987">
        <ele>87.9</ele>
        <time>2024-09-01T09:13:12Z</time>
      </trkpt>
      <trkpt lat="49.27097" lon="2.39872">
        <ele>87.8</ele>
        <time>2024-09-01T09:13:13Z</time>
      </trkpt>
      <trkpt lat="49.27097" lon="2.39875">
        <ele>87.7</ele>
        <time>2024-09-01T09:13:14Z</time>
      </trkpt>
      <trkpt lat="49.27097" lon="2.39877">
        <ele>87.6</ele>
        <time>2024-09-01T09:13:15Z</time>
      </trkpt>
      <trkpt lat="49.27096" lon="2.39879">
        <ele>87.5</ele>
        <time>2024-09-01T09:13:16Z</time>
      </trkpt>
      <trkpt lat="49.27096" lon="2.39882">
        <ele>87.4</ele>
        <time>2024-09-01T09:13:17Z</time>
      </trkpt>
      <trkpt lat="49.27096" lon="2.39884">
        <ele>87.3</ele>
        <time>2024-09-01T09:13:18Z</time>
      </trkpt>
      <trkpt lat="49.27096" lon="2.39887">
        <ele>87.3</ele>
        <time>2024-09-01T09:13:19Z</time>
      </trkpt>
      <trkpt lat="49.27096" lon="2.39889">
        <ele>87.3</ele>
        <time>2024-09-01T09:13:20Z</time>
      </trkpt>
      <trkpt lat="49.27097" lon="2.39892">
        <ele>87.6</ele>
        <time>2024-09-01T09:13:21Z</time>
      </trkpt>
      <trkpt lat="49.27097" lon="2.39895">
        <ele>87.9</ele>
        <time>2024-09-01T09:13:22Z</time>
      </trkpt>
      <trkpt lat="49.27097" lon="2.39897">
        <ele>88.2</ele>
        <time>2024-09-01T09:13:23Z</time>
      </trkpt>
      <trkpt lat="49.27097" lon="2.39899">
        <ele>88.4</ele>
        <time>2024-09-01T09:13:24Z</time>
      </trkpt>
      <trkpt lat="49.27098" lon="2.39902">
        <ele>88.7</ele>
        <time>2024-09-01T09:13:25Z</time>
      </trkpt>
      <trkpt lat="49.27098" lon="2.39904">
        <ele>88.9</ele>
        <time>2024-09-01T09:13:26Z</time>
      </trkpt>
      <trkpt lat="49.27098" lon="2.39906">
        <ele>89.2</ele>
        <time>2024-09-01T09:13:27Z</time>
      </trkpt>
      <trkpt lat="49.27099" lon="2.39908">
        <ele>89.4</ele>
        <time>2024-09-01T09:13:28Z</time>
      </trkpt>
      <trkpt lat="49.27099" lon="2.39911">
        <ele>89.7</ele>
        <time>2024-09-01T09:13:29Z</time>
      </trkpt>
      <trkpt lat="49.27099" lon="2.39914">
        <ele>89.9</ele>
        <time>2024-09-01T09:13:30Z</time>
      </trkpt>
      <trkpt lat="49.271" lon="2.39916">
        <ele>90.1</ele>
        <time>2024-09-01T09:13:31Z</time>
      </trkpt>
      <trkpt lat="49.271" lon="2.39919">
        <ele>90.3</ele>
        <time>2024-09-01T09:13:32Z</time>
      </trkpt>
      <trkpt lat="49.27101" lon="2.39921">
        <ele>90.4</ele>
        <time>2024-09-01T09:13:33Z</time>
      </trkpt>
      <trkpt lat="49.27101" lon="2.39923">
        <ele>90.5</ele>
        <time>2024-09-01T09:13:34Z</time>
      </trkpt>
      <trkpt lat="49.27102" lon="2.39925">
        <ele>90.6</ele>
        <time>2024-09-01T09:13:35Z</time>
      </trkpt>
      <trkpt lat="49.27103" lon="2.39928">
        <ele>90.6</ele>
        <time>2024-09-01T09:13:36Z</time>
      </trkpt>
      <trkpt lat="49.27103" lon="2.3993">
        <ele>90.7</ele>
        <time>2024-09-01T09:13:37Z</time>
      </trkpt>
      <trkpt lat="49.27104" lon="2.39932">
        <ele>90.8</ele>
        <time>2024-09-01T09:13:38Z</time>
      </trkpt>
      <trkpt lat="49.27104" lon="2.39935">
        <ele>90.8</ele>
        <time>2024-09-01T09:13:39Z</time>
      </trkpt>
      <trkpt lat="49.27105" lon="2.39938">
        <ele>90.9</ele>
        <time>2024-09-01T09:13:40Z</time>
      </trkpt>
      <trkpt lat="49.27105" lon="2.3994">
        <ele>90.9</ele>
        <time>2024-09-01T09:13:41Z</time>
      </trkpt>
      <trkpt lat="49.27105" lon="2.39943">
        <ele>91</ele>
        <time>2024-09-01T09:13:42Z</time>
      </trkpt>
      <trkpt lat="49.27105" lon="2.39946">
        <ele>91</ele>
        <time>2024-09-01T09:13:43Z</time>
      </trkpt>
      <trkpt lat="49.27105" lon="2.39948">
        <ele>91.1</ele>
        <time>2024-09-01T09:13:44Z</time>
      </trkpt>
      <trkpt lat="49.27104" lon="2.3995">
        <ele>91.1</ele>
        <time>2024-09-01T09:13:45Z</time>
      </trkpt>
      <trkpt lat="49.27104" lon="2.39952">
        <ele>91.1</ele>
        <time>2024-09-01T09:13:46Z</time>
      </trkpt>
      <trkpt lat="49.27103" lon="2.39953">
        <ele>91.1</ele>
        <time>2024-09-01T09:13:47Z</time>
      </trkpt>
      <trkpt lat="49.27102" lon="2.39955">
        <ele>91.1</ele>
        <time>2024-09-01T09:13:48Z</time>
      </trkpt>
      <trkpt lat="49.27101" lon="2.39956">
        <ele>91.1</ele>
        <time>2024-09-01T09:13:49Z</time>
      </trkpt>
      <trkpt lat="49.271" lon="2.39957">
        <ele>91.1</ele>
        <time>2024-09-01T09:13:50Z</time>
      </trkpt>
      <trkpt lat="49.27099" lon="2.39959">
        <ele>91.1</ele>
        <time>2024-09-01T09:13:51Z</time>
      </trkpt>
      <trkpt lat="49.27098" lon="2.3996">
        <ele>91</ele>
        <time>2024-09-01T09:13:52Z</time>
      </trkpt>
      <trkpt lat="49.27097" lon="2.39962">
        <ele>91</ele>
        <time>2024-09-01T09:13:53Z</time>
      </trkpt>
      <trkpt lat="49.27096" lon="2.39964">
        <ele>90.9</ele>
        <time>2024-09-01T09:13:54Z</time>
      </trkpt>
      <trkpt lat="49.27095" lon="2.39965">
        <ele>90.9</ele>
        <time>2024-09-01T09:13:55Z</time>
      </trkpt>
      <trkpt lat="49.27094" lon="2.39967">
        <ele>90.8</ele>
        <time>2024-09-01T09:13:56Z</time>
      </trkpt>
      <trkpt lat="49.27093" lon="2.39968">
        <ele>90.7</ele>
        <time>2024-09-01T09:13:57Z</time>
      </trkpt>
      <trkpt lat="49.27092" lon="2.3997">
        <ele>90.6</ele>
        <time>2024-09-01T09:13:58Z</time>
      </trkpt>
      <trkpt lat="49.27091" lon="2.39971">
        <ele>90.5</ele>
        <time>2024-09-01T09:13:59Z</time>
      </trkpt>
      <trkpt lat="49.27089" lon="2.39973">
        <ele>90.4</ele>
        <time>2024-09-01T09:14:00Z</time>
      </trkpt>
      <trkpt lat="49.27088" lon="2.39975">
        <ele>90.3</ele>
        <time>2024-09-01T09:14:01Z</time>
      </trkpt>
      <trkpt lat="49.27087" lon="2.39976">
        <ele>90.1</ele>
        <time>2024-09-01T09:14:02Z</time>
      </trkpt>
      <trkpt lat="49.27086" lon="2.39978">
        <ele>90</ele>
        <time>2024-09-01T09:14:03Z</time>
      </trkpt>
      <trkpt lat="49.27085" lon="2.39979">
        <ele>89.9</ele>
        <time>2024-09-01T09:14:04Z</time>
      </trkpt>
      <trkpt lat="49.27084" lon="2.3998">
        <ele>89.7</ele>
        <time>2024-09-01T09:14:05Z</time>
      </trkpt>
      <trkpt lat="49.27082" lon="2.39981">
        <ele>89.5</ele>
        <time>2024-09-01T09:14:06Z</time>
      </trkpt>
      <trkpt lat="49.27081" lon="2.39983">
        <ele>89.2</ele>
        <time>2024-09-01T09:14:07Z</time>
      </trkpt>
      <trkpt lat="49.2708" lon="2.39984">
        <ele>89</ele>
        <time>2024-09-01T09:14:08Z</time>
      </trkpt>
      <trkpt lat="49.27079" lon="2.39986">
        <ele>88.8</ele>
        <time>2024-09-01T09:14:09Z</time>
      </trkpt>
      <trkpt lat="49.27078" lon="2.39988">
        <ele>88.6</ele>
        <time>2024-09-01T09:14:10Z</time>
      </trkpt>
      <trkpt lat="49.27077" lon="2.3999">
        <ele>88.5</ele>
        <time>2024-09-01T09:14:11Z</time>
      </trkpt>
      <trkpt lat="49.27076" lon="2.39993">
        <ele>88.5</ele>
        <time>2024-09-01T09:14:12Z</time>
      </trkpt>
      <trkpt lat="49.27075" lon="2.39995">
        <ele>88.5</ele>
        <time>2024-09-01T09:14:13Z</time>
      </trkpt>
      <trkpt lat="49.27074" lon="2.39997">
        <ele>88.5</ele>
        <time>2024-09-01T09:14:14Z</time>
      </trkpt>
      <trkpt lat="49.27073" lon="2.39999">
        <ele>88.6</ele>
        <time>2024-09-01T09:14:15Z</time>
      </trkpt>
      <trkpt lat="49.27073" lon="2.40001">
        <ele>88.5</ele>
        <time>2024-09-01T09:14:16Z</time>
      </trkpt>
      <trkpt lat="49.27072" lon="2.40003">
        <ele>88.3</ele>
        <time>2024-09-01T09:14:17Z</time>
      </trkpt>
      <trkpt lat="49.27072" lon="2.40005">
        <ele>88.2</ele>
        <time>2024-09-01T09:14:18Z</time>
      </trkpt>
      <trkpt lat="49.27071" lon="2.40007">
        <ele>88</ele>
        <time>2024-09-01T09:14:19Z</time>
      </trkpt>
      <trkpt lat="49.2707" lon="2.40008">
        <ele>87.9</ele>
        <time>2024-09-01T09:14:20Z</time>
      </trkpt>
      <trkpt lat="49.27069" lon="2.4001">
        <ele>87.8</ele>
        <time>2024-09-01T09:14:21Z</time>
      </trkpt>
      <trkpt lat="49.27068" lon="2.40012">
        <ele>87.7</ele>
        <time>2024-09-01T09:14:22Z</time>
      </trkpt>
      <trkpt lat="49.27067" lon="2.40014">
        <ele>87.7</ele>
        <time>2024-09-01T09:14:23Z</time>
      </trkpt>
      <trkpt lat="49.27066" lon="2.40016">
        <ele>87.7</ele>
        <time>2024-09-01T09:14:24Z</time>
      </trkpt>
      <trkpt lat="49.27065" lon="2.40018">
        <ele>87.7</ele>
        <time>2024-09-01T09:14:25Z</time>
      </trkpt>
      <trkpt lat="49.27064" lon="2.4002">
        <ele>87.7</ele>
        <time>2024-09-01T09:14:26Z</time>
      </trkpt>
      <trkpt lat="49.27063" lon="2.40022">
        <ele>87.7</ele>
        <time>2024-09-01T09:14:27Z</time>
      </trkpt>
      <trkpt lat="49.27063" lon="2.40025">
        <ele>87.8</ele>
        <time>2024-09-01T09:14:28Z</time>
      </trkpt>
      <trkpt lat="49.27062" lon="2.40027">
        <ele>87.8</ele>
        <time>2024-09-01T09:14:29Z</time>
      </trkpt>
      <trkpt lat="49.27062" lon="2.4003">
        <ele>87.8</ele>
        <time>2024-09-01T09:14:30Z</time>
      </trkpt>
      <trkpt lat="49.27061" lon="2.40032">
        <ele>87.8</ele>
        <time>2024-09-01T09:14:31Z</time>
      </trkpt>
      <trkpt lat="49.2706" lon="2.40035">
        <ele>87.8</ele>
        <time>2024-09-01T09:14:32Z</time>
      </trkpt>
      <trkpt lat="49.27059" lon="2.40038">
        <ele>87.9</ele>
        <time>2024-09-01T09:14:33Z</time>
      </trkpt>
      <trkpt lat="49.27059" lon="2.4004">
        <ele>88.1</ele>
        <time>2024-09-01T09:14:34Z</time>
      </trkpt>
      <trkpt lat="49.27058" lon="2.40043">
        <ele>88.2</ele>
        <time>2024-09-01T09:14:35Z</time>
      </trkpt>
      <trkpt lat="49.27057" lon="2.40046">
        <ele>88.4</ele>
        <time>2024-09-01T09:14:36Z</time>
      </trkpt>
      <trkpt lat="49.27057" lon="2.40049">
        <ele>88.5</ele>
        <time>2024-09-01T09:14:37Z</time>
      </trkpt>
      <trkpt lat="49.27056" lon="2.40051">
        <ele>88.8</ele>
        <time>2024-09-01T09:14:38Z</time>
      </trkpt>
      <trkpt lat="49.27055" lon="2.40053">
        <ele>88.8</ele>
        <time>2024-09-01T09:14:39Z</time>
      </trkpt>
      <trkpt lat="49.27054" lon="2.40056">
        <ele>88.5</ele>
        <time>2024-09-01T09:14:40Z</time>
      </trkpt>
      <trkpt lat="49.27053" lon="2.40058">
        <ele>88.1</ele>
        <time>2024-09-01T09:14:41Z</time>
      </trkpt>
      <trkpt lat="49.27052" lon="2.4006">
        <ele>87.7</ele>
        <time>2024-09-01T09:14:42Z</time>
      </trkpt>
      <trkpt lat="49.27051" lon="2.40062">
        <ele>87.4</ele>
        <time>2024-09-01T09:14:43Z</time>
      </trkpt>
      <trkpt lat="49.27051" lon="2.40064">
        <ele>87.2</ele>
        <time>2024-09-01T09:14:44Z</time>
      </trkpt>
      <trkpt lat="49.2705" lon="2.40066">
        <ele>87</ele>
        <time>2024-09-01T09:14:45Z</time>
      </trkpt>
      <trkpt lat="49.27049" lon="2.40068">
        <ele>86.8</ele>
        <time>2024-09-01T09:14:46Z</time>
      </trkpt>
      <trkpt lat="49.27049" lon="2.4007">
        <ele>86.7</ele>
        <time>2024-09-01T09:14:47Z</time>
      </trkpt>
      <trkpt lat="49.27048" lon="2.40073">
        <ele>86.5</ele>
        <time>2024-09-01T09:14:48Z</time>
      </trkpt>
      <trkpt lat="49.27047" lon="2.40075">
        <ele>86.4</ele>
        <time>2024-09-01T09:14:49Z</time>
      </trkpt>
      <trkpt lat="49.27047" lon="2.40078">
        <ele>86.3</ele>
        <time>2024-09-01T09:14:50Z</time>
      </trkpt>
      <trkpt lat="49.27046" lon="2.4008">
        <ele>86.2</ele>
        <time>2024-09-01T09:14:51Z</time>
      </trkpt>
      <trkpt lat="49.27045" lon="2.40083">
        <ele>86.2</ele>
        <time>2024-09-01T09:14:52Z</time>
      </trkpt>
      <trkpt lat="49.27045" lon="2.40086">
        <ele>86.1</ele>
        <time>2024-09-01T09:14:53Z</time>
      </trkpt>
      <trkpt lat="49.27044" lon="2.40088">
        <ele>86</ele>
        <time>2024-09-01T09:14:54Z</time>
      </trkpt>
      <trkpt lat="49.27043" lon="2.40091">
        <ele>85.9</ele>
        <time>2024-09-01T09:14:55Z</time>
      </trkpt>
      <trkpt lat="49.27043" lon="2.40094">
        <ele>85.8</ele>
        <time>2024-09-01T09:14:56Z</time>
      </trkpt>
      <trkpt lat="49.27043" lon="2.40096">
        <ele>85.8</ele>
        <time>2024-09-01T09:14:57Z</time>
      </trkpt>
      <trkpt lat="49.27042" lon="2.40099">
        <ele>85.7</ele>
        <time>2024-09-01T09:14:58Z</time>
      </trkpt>
      <trkpt lat="49.27042" lon="2.40101">
        <ele>85.7</ele>
        <time>2024-09-01T09:14:59Z</time>
      </trkpt>
      <trkpt lat="49.27042" lon="2.40104">
        <ele>85.6</ele>
        <time>2024-09-01T09:15:00Z</time>
      </trkpt>
      <trkpt lat="49.27042" lon="2.40106">
        <ele>85.5</ele>
        <time>2024-09-01T09:15:01Z</time>
      </trkpt>
      <trkpt lat="49.27042" lon="2.40109">
        <ele>85.5</ele>
        <time>2024-09-01T09:15:02Z</time>
      </trkpt>
      <trkpt lat="49.27042" lon="2.40111">
        <ele>85.5</ele>
        <time>2024-09-01T09:15:03Z</time>
      </trkpt>
      <trkpt lat="49.27042" lon="2.40113">
        <ele>85.4</ele>
        <time>2024-09-01T09:15:04Z</time>
      </trkpt>
      <trkpt lat="49.27042" lon="2.40116">
        <ele>85.2</ele>
        <time>2024-09-01T09:15:34Z</time>
      </trkpt>
      <trkpt lat="49.27042" lon="2.40117">
        <ele>85.1</ele>
        <time>2024-09-01T09:15:35Z</time>
      </trkpt>
      <trkpt lat="49.27041" lon="2.40118">
        <ele>85</ele>
        <time>2024-09-01T09:15:36Z</time>
      </trkpt>
      <trkpt lat="49.27041" lon="2.40119">
        <ele>85</ele>
        <time>2024-09-01T09:15:37Z</time>
      </trkpt>
      <trkpt lat="49.27041" lon="2.4012">
        <ele>84.9</ele>
        <time>2024-09-01T09:15:38Z</time>
      </trkpt>
      <trkpt lat="49.27041" lon="2.40122">
        <ele>84.8</ele>
        <time>2024-09-01T09:15:39Z</time>
      </trkpt>
      <trkpt lat="49.27041" lon="2.40123">
        <ele>84.8</ele>
        <time>2024-09-01T09:15:40Z</time>
      </trkpt>
      <trkpt lat="49.2704" lon="2.40125">
        <ele>84.7</ele>
        <time>2024-09-01T09:15:41Z</time>
      </trkpt>
      <trkpt lat="49.2704" lon="2.40127">
        <ele>84.7</ele>
        <time>2024-09-01T09:15:42Z</time>
      </trkpt>
      <trkpt lat="49.2704" lon="2.40129">
        <ele>84.6</ele>
        <time>2024-09-01T09:15:43Z</time>
      </trkpt>
      <trkpt lat="49.27039" lon="2.40131">
        <ele>84.5</ele>
        <time>2024-09-01T09:15:44Z</time>
      </trkpt>
      <trkpt lat="49.27039" lon="2.40133">
        <ele>84.5</ele>
        <time>2024-09-01T09:15:45Z</time>
      </trkpt>
      <trkpt lat="49.27039" lon="2.40135">
        <ele>84.5</ele>
        <time>2024-09-01T09:15:46Z</time>
      </trkpt>
      <trkpt lat="49.27038" lon="2.40137">
        <ele>84.4</ele>
        <time>2024-09-01T09:15:47Z</time>
      </trkpt>
      <trkpt lat="49.27038" lon="2.4014">
        <ele>84.5</ele>
        <time>2024-09-01T09:15:48Z</time>
      </trkpt>
      <trkpt lat="49.27037" lon="2.40142">
        <ele>84.6</ele>
        <time>2024-09-01T09:15:49Z</time>
      </trkpt>
      <trkpt lat="49.27037" lon="2.40144">
        <ele>84.8</ele>
        <time>2024-09-01T09:15:50Z</time>
      </trkpt>
      <trkpt lat="49.27036" lon="2.40145">
        <ele>85</ele>
        <time>2024-09-01T09:15:51Z</time>
      </trkpt>
      <trkpt lat="49.27036" lon="2.40147">
        <ele>85.3</ele>
        <time>2024-09-01T09:15:52Z</time>
      </trkpt>
      <trkpt lat="49.27035" lon="2.40149">
        <ele>85.5</ele>
        <time>2024-09-01T09:15:53Z</time>
      </trkpt>
      <trkpt lat="49.27035" lon="2.40151">
        <ele>85.7</ele>
        <time>2024-09-01T09:15:54Z</time>
      </trkpt>
      <trkpt lat="49.27035" lon="2.40153">
        <ele>85.8</ele>
        <time>2024-09-01T09:15:55Z</time>
      </trkpt>
      <trkpt lat="49.27034" lon="2.40155">
        <ele>85.9</ele>
        <time>2024-09-01T09:15:56Z</time>
      </trkpt>
      <trkpt lat="49.27034" lon="2.40157">
        <ele>86.1</ele>
        <time>2024-09-01T09:15:57Z</time>
      </trkpt>
      <trkpt lat="49.27034" lon="2.40159">
        <ele>86.3</ele>
        <time>2024-09-01T09:15:58Z</time>
      </trkpt>
      <trkpt lat="49.27034" lon="2.40161">
        <ele>86.5</ele>
        <time>2024-09-01T09:15:59Z</time>
      </trkpt>
      <trkpt lat="49.27033" lon="2.40163">
        <ele>86.7</ele>
        <time>2024-09-01T09:16:00Z</time>
      </trkpt>
      <trkpt lat="49.27033" lon="2.40165">
        <ele>86.9</ele>
        <time>2024-09-01T09:16:01Z</time>
      </trkpt>
      <trkpt lat="49.27032" lon="2.40167">
        <ele>87.2</ele>
        <time>2024-09-01T09:16:02Z</time>
      </trkpt>
      <trkpt lat="49.27032" lon="2.40169">
        <ele>87.2</ele>
        <time>2024-09-01T09:16:03Z</time>
      </trkpt>
      <trkpt lat="49.27032" lon="2.40171">
        <ele>87.3</ele>
        <time>2024-09-01T09:16:04Z</time>
      </trkpt>
      <trkpt lat="49.27032" lon="2.40173">
        <ele>87.4</ele>
        <time>2024-09-01T09:16:05Z</time>
      </trkpt>
      <trkpt lat="49.27031" lon="2.40175">
        <ele>87.5</ele>
        <time>2024-09-01T09:16:06Z</time>
      </trkpt>
      <trkpt lat="49.27031" lon="2.40177">
        <ele>87.6</ele>
        <time>2024-09-01T09:16:07Z</time>
      </trkpt>
      <trkpt lat="49.27031" lon="2.40179">
        <ele>87.7</ele>
        <time>2024-09-01T09:16:08Z</time>
      </trkpt>
      <trkpt lat="49.2703" lon="2.40181">
        <ele>87.9</ele>
        <time>2024-09-01T09:16:09Z</time>
      </trkpt>
      <trkpt lat="49.2703" lon="2.40183">
        <ele>88</ele>
        <time>2024-09-01T09:16:10Z</time>
      </trkpt>
      <trkpt lat="49.2703" lon="2.40185">
        <ele>88.2</ele>
        <time>2024-09-01T09:16:11Z</time>
      </trkpt>
      <trkpt lat="49.27029" lon="2.40187">
        <ele>88.4</ele>
        <time>2024-09-01T09:16:12Z</time>
      </trkpt>
      <trkpt lat="49.27029" lon="2.4019">
        <ele>88.6</ele>
        <time>2024-09-01T09:16:13Z</time>
      </trkpt>
      <trkpt lat="49.27028" lon="2.40192">
        <ele>88.7</ele>
        <time>2024-09-01T09:16:14Z</time>
      </trkpt>
      <trkpt lat="49.27028" lon="2.40194">
        <ele>89</ele>
        <time>2024-09-01T09:16:15Z</time>
      </trkpt>
      <trkpt lat="49.27027" lon="2.40196">
        <ele>88.7</ele>
        <time>2024-09-01T09:16:16Z</time>
      </trkpt>
      <trkpt lat="49.27027" lon="2.40198">
        <ele>88.5</ele>
        <time>2024-09-01T09:16:17Z</time>
      </trkpt>
      <trkpt lat="49.27026" lon="2.40201">
        <ele>88.2</ele>
        <time>2024-09-01T09:16:18Z</time>
      </trkpt>
      <trkpt lat="49.27026" lon="2.40203">
        <ele>88.1</ele>
        <time>2024-09-01T09:16:19Z</time>
      </trkpt>
      <trkpt lat="49.27025" lon="2.40205">
        <ele>87.9</ele>
        <time>2024-09-01T09:16:20Z</time>
      </trkpt>
      <trkpt lat="49.27025" lon="2.40207">
        <ele>87.8</ele>
        <time>2024-09-01T09:16:21Z</time>
      </trkpt>
      <trkpt lat="49.27024" lon="2.40209">
        <ele>87.6</ele>
        <time>2024-09-01T09:16:22Z</time>
      </trkpt>
      <trkpt lat="49.27024" lon="2.40211">
        <ele>87.5</ele>
        <time>2024-09-01T09:16:23Z</time>
      </trkpt>
      <trkpt lat="49.27023" lon="2.40213">
        <ele>87.4</ele>
        <time>2024-09-01T09:16:24Z</time>
      </trkpt>
      <trkpt lat="49.27023" lon="2.40215">
        <ele>87.4</ele>
        <time>2024-09-01T09:16:25Z</time>
      </trkpt>
      <trkpt lat="49.27023" lon="2.40217">
        <ele>87.3</ele>
        <time>2024-09-01T09:16:26Z</time>
      </trkpt>
      <trkpt lat="49.27022" lon="2.40219">
        <ele>87.2</ele>
        <time>2024-09-01T09:16:27Z</time>
      </trkpt>
      <trkpt lat="49.27022" lon="2.40221">
        <ele>87.2</ele>
        <time>2024-09-01T09:16:28Z</time>
      </trkpt>
      <trkpt lat="49.27021" lon="2.40224">
        <ele>86.9</ele>
        <time>2024-09-01T09:16:36Z</time>
      </trkpt>
      <trkpt lat="49.27021" lon="2.40224">
        <ele>86.9</ele>
        <time>2024-09-01T09:16:37Z</time>
      </trkpt>
      <trkpt lat="49.2702" lon="2.40225">
        <ele>86.8</ele>
        <time>2024-09-01T09:16:38Z</time>
      </trkpt>
      <trkpt lat="49.27021" lon="2.40226">
        <ele>86.9</ele>
        <time>2024-09-01T09:16:39Z</time>
      </trkpt>
      <trkpt lat="49.27021" lon="2.40227">
        <ele>86.9</ele>
        <time>2024-09-01T09:16:40Z</time>
      </trkpt>
      <trkpt lat="49.27021" lon="2.40229">
        <ele>86.9</ele>
        <time>2024-09-01T09:16:41Z</time>
      </trkpt>
      <trkpt lat="49.27021" lon="2.40231">
        <ele>86.9</ele>
        <time>2024-09-01T09:16:42Z</time>
      </trkpt>
      <trkpt lat="49.27021" lon="2.40233">
        <ele>86.8</ele>
        <time>2024-09-01T09:16:43Z</time>
      </trkpt>
      <trkpt lat="49.27021" lon="2.40234">
        <ele>86.8</ele>
        <time>2024-09-01T09:16:44Z</time>
      </trkpt>
      <trkpt lat="49.27021" lon="2.40236">
        <ele>86.7</ele>
        <time>2024-09-01T09:16:45Z</time>
      </trkpt>
      <trkpt lat="49.2702" lon="2.40238">
        <ele>86.6</ele>
        <time>2024-09-01T09:16:46Z</time>
      </trkpt>
      <trkpt lat="49.2702" lon="2.4024">
        <ele>86.5</ele>
        <time>2024-09-01T09:16:47Z</time>
      </trkpt>
      <trkpt lat="49.27019" lon="2.40242">
        <ele>86.4</ele>
        <time>2024-09-01T09:16:48Z</time>
      </trkpt>
      <trkpt lat="49.27019" lon="2.40244">
        <ele>86.3</ele>
        <time>2024-09-01T09:16:49Z</time>
      </trkpt>
      <trkpt lat="49.27018" lon="2.40246">
        <ele>86.3</ele>
        <time>2024-09-01T09:16:50Z</time>
      </trkpt>
      <trkpt lat="49.27017" lon="2.40248">
        <ele>86.2</ele>
        <time>2024-09-01T09:16:51Z</time>
      </trkpt>
      <trkpt lat="49.27017" lon="2.40249">
        <ele>86.2</ele>
        <time>2024-09-01T09:16:52Z</time>
      </trkpt>
      <trkpt lat="49.27016" lon="2.40251">
        <ele>86.1</ele>
        <time>2024-09-01T09:16:53Z</time>
      </trkpt>
      <trkpt lat="49.27016" lon="2.40252">
        <ele>86</ele>
        <time>2024-09-01T09:16:54Z</time>
      </trkpt>
      <trkpt lat="49.27015" lon="2.40253">
        <ele>85.8</ele>
        <time>2024-09-01T09:16:55Z</time>
      </trkpt>
      <trkpt lat="49.27015" lon="2.40254">
        <ele>85.7</ele>
        <time>2024-09-01T09:16:56Z</time>
      </trkpt>
      <trkpt lat="49.27015" lon="2.40256">
        <ele>85.5</ele>
        <time>2024-09-01T09:16:57Z</time>
      </trkpt>
      <trkpt lat="49.27014" lon="2.40257">
        <ele>85.4</ele>
        <time>2024-09-01T09:16:58Z</time>
      </trkpt>
      <trkpt lat="49.27014" lon="2.40259">
        <ele>85.2</ele>
        <time>2024-09-01T09:16:59Z</time>
      </trkpt>
      <trkpt lat="49.27014" lon="2.40261">
        <ele>85</ele>
        <time>2024-09-01T09:17:00Z</time>
      </trkpt>
      <trkpt lat="49.27014" lon="2.40262">
        <ele>84.9</ele>
        <time>2024-09-01T09:17:01Z</time>
      </trkpt>
      <trkpt lat="49.27014" lon="2.40264">
        <ele>84.7</ele>
        <time>2024-09-01T09:17:02Z</time>
      </trkpt>
      <trkpt lat="49.27014" lon="2.40266">
        <ele>84.5</ele>
        <time>2024-09-01T09:17:03Z</time>
      </trkpt>
      <trkpt lat="49.27014" lon="2.40268">
        <ele>84.4</ele>
        <time>2024-09-01T09:17:04Z</time>
      </trkpt>
      <trkpt lat="49.27014" lon="2.4027">
        <ele>84.2</ele>
        <time>2024-09-01T09:17:05Z</time>
      </trkpt>
      <trkpt lat="49.27014" lon="2.40272">
        <ele>84</ele>
        <time>2024-09-01T09:17:06Z</time>
      </trkpt>
      <trkpt lat="49.27013" lon="2.40274">
        <ele>83.9</ele>
        <time>2024-09-01T09:17:07Z</time>
      </trkpt>
      <trkpt lat="49.27013" lon="2.40276">
        <ele>83.8</ele>
        <time>2024-09-01T09:17:08Z</time>
      </trkpt>
      <trkpt lat="49.27012" lon="2.40278">
        <ele>83.7</ele>
        <time>2024-09-01T09:17:09Z</time>
      </trkpt>
      <trkpt lat="49.27012" lon="2.4028">
        <ele>83.5</ele>
        <time>2024-09-01T09:17:10Z</time>
      </trkpt>
      <trkpt lat="49.27011" lon="2.40282">
        <ele>83.4</ele>
        <time>2024-09-01T09:17:11Z</time>
      </trkpt>
      <trkpt lat="49.27011" lon="2.40284">
        <ele>83.3</ele>
        <time>2024-09-01T09:17:12Z</time>
      </trkpt>
      <trkpt lat="49.2701" lon="2.40286">
        <ele>83.2</ele>
        <time>2024-09-01T09:17:13Z</time>
      </trkpt>
      <trkpt lat="49.2701" lon="2.40288">
        <ele>83.1</ele>
        <time>2024-09-01T09:17:14Z</time>
      </trkpt>
      <trkpt lat="49.2701" lon="2.4029">
        <ele>83</ele>
        <time>2024-09-01T09:17:15Z</time>
      </trkpt>
      <trkpt lat="49.27009" lon="2.40293">
        <ele>82.9</ele>
        <time>2024-09-01T09:17:16Z</time>
      </trkpt>
      <trkpt lat="49.27009" lon="2.40295">
        <ele>82.9</ele>
        <time>2024-09-01T09:17:17Z</time>
      </trkpt>
      <trkpt lat="49.27009" lon="2.40297">
        <ele>82.8</ele>
        <time>2024-09-01T09:17:18Z</time>
      </trkpt>
      <trkpt lat="49.27008" lon="2.403">
        <ele>82.9</ele>
        <time>2024-09-01T09:17:19Z</time>
      </trkpt>
      <trkpt lat="49.27007" lon="2.40302">
        <ele>83</ele>
        <time>2024-09-01T09:17:20Z</time>
      </trkpt>
      <trkpt lat="49.27007" lon="2.40304">
        <ele>83.2</ele>
        <time>2024-09-01T09:17:21Z</time>
      </trkpt>
      <trkpt lat="49.27006" lon="2.40306">
        <ele>83.5</ele>
        <time>2024-09-01T09:17:22Z</time>
      </trkpt>
      <trkpt lat="49.27005" lon="2.40308">
        <ele>84</ele>
        <time>2024-09-01T09:17:23Z</time>
      </trkpt>
      <trkpt lat="49.27005" lon="2.4031">
        <ele>84.6</ele>
        <time>2024-09-01T09:17:24Z</time>
      </trkpt>
      <trkpt lat="49.27004" lon="2.40312">
        <ele>85.2</ele>
        <time>2024-09-01T09:17:25Z</time>
      </trkpt>
      <trkpt lat="49.27003" lon="2.40314">
        <ele>85.8</ele>
        <time>2024-09-01T09:17:26Z</time>
      </trkpt>
      <trkpt lat="49.27003" lon="2.40316">
        <ele>86.4</ele>
        <time>2024-09-01T09:17:27Z</time>
      </trkpt>
      <trkpt lat="49.27002" lon="2.40318">
        <ele>87.2</ele>
        <time>2024-09-01T09:17:28Z</time>
      </trkpt>
      <trkpt lat="49.27001" lon="2.40321">
        <ele>88</ele>
        <time>2024-09-01T09:17:29Z</time>
      </trkpt>
      <trkpt lat="49.27001" lon="2.40323">
        <ele>88.7</ele>
        <time>2024-09-01T09:17:30Z</time>
      </trkpt>
      <trkpt lat="49.27" lon="2.40325">
        <ele>89.5</ele>
        <time>2024-09-01T09:17:31Z</time>
      </trkpt>
      <trkpt lat="49.27" lon="2.40327">
        <ele>89.5</ele>
        <time>2024-09-01T09:17:32Z</time>
      </trkpt>
      <trkpt lat="49.26999" lon="2.4033">
        <ele>89.6</ele>
        <time>2024-09-01T09:17:33Z</time>
      </trkpt>
      <trkpt lat="49.26999" lon="2.40332">
        <ele>89.6</ele>
        <time>2024-09-01T09:17:34Z</time>
      </trkpt>
      <trkpt lat="49.26998" lon="2.40334">
        <ele>89.4</ele>
        <time>2024-09-01T09:17:35Z</time>
      </trkpt>
      <trkpt lat="49.26998" lon="2.40336">
        <ele>88</ele>
        <time>2024-09-01T09:17:36Z</time>
      </trkpt>
      <trkpt lat="49.26997" lon="2.40338">
        <ele>86.8</ele>
        <time>2024-09-01T09:17:37Z</time>
      </trkpt>
      <trkpt lat="49.26996" lon="2.4034">
        <ele>85.6</ele>
        <time>2024-09-01T09:17:38Z</time>
      </trkpt>
      <trkpt lat="49.26996" lon="2.40342">
        <ele>84.3</ele>
        <time>2024-09-01T09:17:39Z</time>
      </trkpt>
      <trkpt lat="49.26995" lon="2.40344">
        <ele>83.2</ele>
        <time>2024-09-01T09:17:40Z</time>
      </trkpt>
      <trkpt lat="49.26994" lon="2.40345">
        <ele>82.2</ele>
        <time>2024-09-01T09:17:41Z</time>
      </trkpt>
      <trkpt lat="49.26993" lon="2.40347">
        <ele>81.2</ele>
        <time>2024-09-01T09:17:42Z</time>
      </trkpt>
      <trkpt lat="49.26993" lon="2.40349">
        <ele>80.3</ele>
        <time>2024-09-01T09:17:43Z</time>
      </trkpt>
      <trkpt lat="49.26992" lon="2.40352">
        <ele>79.4</ele>
        <time>2024-09-01T09:17:44Z</time>
      </trkpt>
      <trkpt lat="49.26991" lon="2.40354">
        <ele>78.5</ele>
        <time>2024-09-01T09:17:45Z</time>
      </trkpt>
      <trkpt lat="49.2699" lon="2.40356">
        <ele>77.8</ele>
        <time>2024-09-01T09:17:46Z</time>
      </trkpt>
      <trkpt lat="49.2699" lon="2.40358">
        <ele>77.1</ele>
        <time>2024-09-01T09:17:47Z</time>
      </trkpt>
      <trkpt lat="49.26989" lon="2.4036">
        <ele>76.6</ele>
        <time>2024-09-01T09:17:48Z</time>
      </trkpt>
      <trkpt lat="49.26988" lon="2.40363">
        <ele>76.8</ele>
        <time>2024-09-01T09:17:49Z</time>
      </trkpt>
      <trkpt lat="49.26988" lon="2.40364">
        <ele>77.4</ele>
        <time>2024-09-01T09:17:50Z</time>
      </trkpt>
      <trkpt lat="49.26987" lon="2.40366">
        <ele>78.1</ele>
        <time>2024-09-01T09:17:51Z</time>
      </trkpt>
      <trkpt lat="49.26987" lon="2.40368">
        <ele>78.7</ele>
        <time>2024-09-01T09:17:52Z</time>
      </trkpt>
      <trkpt lat="49.26986" lon="2.4037">
        <ele>79.4</ele>
        <time>2024-09-01T09:17:53Z</time>
      </trkpt>
      <trkpt lat="49.26985" lon="2.40372">
        <ele>80.1</ele>
        <time>2024-09-01T09:17:54Z</time>
      </trkpt>
      <trkpt lat="49.26985" lon="2.40374">
        <ele>80.8</ele>
        <time>2024-09-01T09:17:55Z</time>
      </trkpt>
      <trkpt lat="49.26984" lon="2.40375">
        <ele>81.5</ele>
        <time>2024-09-01T09:17:56Z</time>
      </trkpt>
      <trkpt lat="49.26983" lon="2.40377">
        <ele>82.3</ele>
        <time>2024-09-01T09:17:57Z</time>
      </trkpt>
      <trkpt lat="49.26983" lon="2.40379">
        <ele>83.2</ele>
        <time>2024-09-01T09:17:58Z</time>
      </trkpt>
      <trkpt lat="49.26982" lon="2.40381">
        <ele>84.1</ele>
        <time>2024-09-01T09:17:59Z</time>
      </trkpt>
      <trkpt lat="49.26981" lon="2.40383">
        <ele>85.2</ele>
        <time>2024-09-01T09:18:00Z</time>
      </trkpt>
      <trkpt lat="49.2698" lon="2.40385">
        <ele>86.3</ele>
        <time>2024-09-01T09:18:01Z</time>
      </trkpt>
      <trkpt lat="49.2698" lon="2.40387">
        <ele>87.5</ele>
        <time>2024-09-01T09:18:02Z</time>
      </trkpt>
      <trkpt lat="49.26979" lon="2.40389">
        <ele>88.7</ele>
        <time>2024-09-01T09:18:03Z</time>
      </trkpt>
      <trkpt lat="49.26978" lon="2.4039">
        <ele>89.2</ele>
        <time>2024-09-01T09:18:04Z</time>
      </trkpt>
      <trkpt lat="49.26977" lon="2.40392">
        <ele>89.6</ele>
        <time>2024-09-01T09:18:05Z</time>
      </trkpt>
      <trkpt lat="49.26977" lon="2.40394">
        <ele>89.9</ele>
        <time>2024-09-01T09:18:06Z</time>
      </trkpt>
      <trkpt lat="49.26976" lon="2.40396">
        <ele>90.3</ele>
        <time>2024-09-01T09:18:07Z</time>
      </trkpt>
      <trkpt lat="49.26976" lon="2.40398">
        <ele>90.5</ele>
        <time>2024-09-01T09:18:08Z</time>
      </trkpt>
      <trkpt lat="49.26976" lon="2.404">
        <ele>90.8</ele>
        <time>2024-09-01T09:18:09Z</time>
      </trkpt>
      <trkpt lat="49.26976" lon="2.40402">
        <ele>91</ele>
        <time>2024-09-01T09:18:10Z</time>
      </trkpt>
      <trkpt lat="49.26976" lon="2.40404">
        <ele>91.2</ele>
        <time>2024-09-01T09:18:11Z</time>
      </trkpt>
      <trkpt lat="49.26975" lon="2.40406">
        <ele>91.5</ele>
        <time>2024-09-01T09:18:12Z</time>
      </trkpt>
      <trkpt lat="49.26975" lon="2.40408">
        <ele>91.8</ele>
        <time>2024-09-01T09:18:13Z</time>
      </trkpt>
      <trkpt lat="49.26974" lon="2.4041">
        <ele>92.3</ele>
        <time>2024-09-01T09:18:14Z</time>
      </trkpt>
      <trkpt lat="49.26974" lon="2.40412">
        <ele>92.7</ele>
        <time>2024-09-01T09:18:15Z</time>
      </trkpt>
      <trkpt lat="49.26973" lon="2.40414">
        <ele>93.3</ele>
        <time>2024-09-01T09:18:16Z</time>
      </trkpt>
      <trkpt lat="49.26972" lon="2.40415">
        <ele>93.8</ele>
        <time>2024-09-01T09:18:17Z</time>
      </trkpt>
      <trkpt lat="49.26971" lon="2.40417">
        <ele>93.9</ele>
        <time>2024-09-01T09:18:18Z</time>
      </trkpt>
      <trkpt lat="49.26971" lon="2.40419">
        <ele>93.4</ele>
        <time>2024-09-01T09:18:19Z</time>
      </trkpt>
      <trkpt lat="49.2697" lon="2.40421">
        <ele>92.8</ele>
        <time>2024-09-01T09:18:20Z</time>
      </trkpt>
      <trkpt lat="49.26969" lon="2.40423">
        <ele>92.2</ele>
        <time>2024-09-01T09:18:21Z</time>
      </trkpt>
      <trkpt lat="49.26969" lon="2.40424">
        <ele>91.7</ele>
        <time>2024-09-01T09:18:22Z</time>
      </trkpt>
      <trkpt lat="49.26968" lon="2.40426">
        <ele>91.2</ele>
        <time>2024-09-01T09:18:23Z</time>
      </trkpt>
      <trkpt lat="49.26967" lon="2.40428">
        <ele>90.7</ele>
        <time>2024-09-01T09:18:24Z</time>
      </trkpt>
      <trkpt lat="49.26967" lon="2.4043">
        <ele>90.3</ele>
        <time>2024-09-01T09:18:25Z</time>
      </trkpt>
      <trkpt lat="49.26966" lon="2.40432">
        <ele>89.8</ele>
        <time>2024-09-01T09:18:26Z</time>
      </trkpt>
      <trkpt lat="49.26965" lon="2.40434">
        <ele>89.4</ele>
        <time>2024-09-01T09:18:27Z</time>
      </trkpt>
      <trkpt lat="49.26965" lon="2.40436">
        <ele>88.9</ele>
        <time>2024-09-01T09:18:28Z</time>
      </trkpt>
      <trkpt lat="49.26964" lon="2.40439">
        <ele>88.5</ele>
        <time>2024-09-01T09:18:29Z</time>
      </trkpt>
      <trkpt lat="49.26963" lon="2.40441">
        <ele>88.1</ele>
        <time>2024-09-01T09:18:30Z</time>
      </trkpt>
      <trkpt lat="49.26963" lon="2.40443">
        <ele>87.7</ele>
        <time>2024-09-01T09:18:31Z</time>
      </trkpt>
      <trkpt lat="49.26962" lon="2.40445">
        <ele>87.6</ele>
        <time>2024-09-01T09:18:32Z</time>
      </trkpt>
      <trkpt lat="49.26962" lon="2.40448">
        <ele>87.8</ele>
        <time>2024-09-01T09:18:33Z</time>
      </trkpt>
      <trkpt lat="49.26961" lon="2.40449">
        <ele>88</ele>
        <time>2024-09-01T09:18:34Z</time>
      </trkpt>
      <trkpt lat="49.2696" lon="2.40451">
        <ele>88.3</ele>
        <time>2024-09-01T09:18:35Z</time>
      </trkpt>
      <trkpt lat="49.2696" lon="2.40453">
        <ele>88.5</ele>
        <time>2024-09-01T09:18:36Z</time>
      </trkpt>
      <trkpt lat="49.26959" lon="2.40454">
        <ele>88.8</ele>
        <time>2024-09-01T09:18:37Z</time>
      </trkpt>
      <trkpt lat="49.26958" lon="2.40456">
        <ele>89</ele>
        <time>2024-09-01T09:18:38Z</time>
      </trkpt>
      <trkpt lat="49.26958" lon="2.40458">
        <ele>89.2</ele>
        <time>2024-09-01T09:18:39Z</time>
      </trkpt>
      <trkpt lat="49.26957" lon="2.4046">
        <ele>89.4</ele>
        <time>2024-09-01T09:18:40Z</time>
      </trkpt>
      <trkpt lat="49.26957" lon="2.40462">
        <ele>89.6</ele>
        <time>2024-09-01T09:18:41Z</time>
      </trkpt>
      <trkpt lat="49.26956" lon="2.40463">
        <ele>89.8</ele>
        <time>2024-09-01T09:18:42Z</time>
      </trkpt>
      <trkpt lat="49.26956" lon="2.40465">
        <ele>90</ele>
        <time>2024-09-01T09:18:43Z</time>
      </trkpt>
      <trkpt lat="49.26956" lon="2.40467">
        <ele>90.2</ele>
        <time>2024-09-01T09:18:44Z</time>
      </trkpt>
      <trkpt lat="49.26955" lon="2.40469">
        <ele>90.4</ele>
        <time>2024-09-01T09:18:45Z</time>
      </trkpt>
      <trkpt lat="49.26955" lon="2.40471">
        <ele>90.6</ele>
        <time>2024-09-01T09:18:46Z</time>
      </trkpt>
      <trkpt lat="49.26954" lon="2.40472">
        <ele>90.7</ele>
        <time>2024-09-01T09:18:47Z</time>
      </trkpt>
      <trkpt lat="49.26954" lon="2.40474">
        <ele>90.9</ele>
        <time>2024-09-01T09:18:48Z</time>
      </trkpt>
      <trkpt lat="49.26953" lon="2.40476">
        <ele>91</ele>
        <time>2024-09-01T09:18:49Z</time>
      </trkpt>
      <trkpt lat="49.26953" lon="2.40478">
        <ele>91.1</ele>
        <time>2024-09-01T09:18:50Z</time>
      </trkpt>
      <trkpt lat="49.26952" lon="2.4048">
        <ele>91.3</ele>
        <time>2024-09-01T09:18:51Z</time>
      </trkpt>
      <trkpt lat="49.26952" lon="2.40482">
        <ele>91.4</ele>
        <time>2024-09-01T09:18:52Z</time>
      </trkpt>
      <trkpt lat="49.26951" lon="2.40485">
        <ele>91.4</ele>
        <time>2024-09-01T09:18:53Z</time>
      </trkpt>
      <trkpt lat="49.26951" lon="2.40487">
        <ele>91.6</ele>
        <time>2024-09-01T09:18:54Z</time>
      </trkpt>
      <trkpt lat="49.2695" lon="2.4049">
        <ele>91.7</ele>
        <time>2024-09-01T09:18:55Z</time>
      </trkpt>
      <trkpt lat="49.2695" lon="2.40492">
        <ele>92</ele>
        <time>2024-09-01T09:18:56Z</time>
      </trkpt>
      <trkpt lat="49.26949" lon="2.40494">
        <ele>92.3</ele>
        <time>2024-09-01T09:18:57Z</time>
      </trkpt>
      <trkpt lat="49.26948" lon="2.40496">
        <ele>92.6</ele>
        <time>2024-09-01T09:18:58Z</time>
      </trkpt>
      <trkpt lat="49.26947" lon="2.40498">
        <ele>92.9</ele>
        <time>2024-09-01T09:18:59Z</time>
      </trkpt>
      <trkpt lat="49.26946" lon="2.405">
        <ele>93.2</ele>
        <time>2024-09-01T09:19:00Z</time>
      </trkpt>
      <trkpt lat="49.26945" lon="2.40502">
        <ele>93.2</ele>
        <time>2024-09-01T09:19:01Z</time>
      </trkpt>
      <trkpt lat="49.26945" lon="2.40504">
        <ele>93.2</ele>
        <time>2024-09-01T09:19:02Z</time>
      </trkpt>
      <trkpt lat="49.26944" lon="2.40506">
        <ele>92.7</ele>
        <time>2024-09-01T09:19:03Z</time>
      </trkpt>
      <trkpt lat="49.26944" lon="2.40508">
        <ele>92.1</ele>
        <time>2024-09-01T09:19:04Z</time>
      </trkpt>
      <trkpt lat="49.26943" lon="2.4051">
        <ele>91.5</ele>
        <time>2024-09-01T09:19:05Z</time>
      </trkpt>
      <trkpt lat="49.26943" lon="2.40512">
        <ele>90.9</ele>
        <time>2024-09-01T09:19:06Z</time>
      </trkpt>
      <trkpt lat="49.26943" lon="2.40514">
        <ele>90.2</ele>
        <time>2024-09-01T09:19:07Z</time>
      </trkpt>
      <trkpt lat="49.26942" lon="2.40516">
        <ele>89.4</ele>
        <time>2024-09-01T09:19:08Z</time>
      </trkpt>
      <trkpt lat="49.26941" lon="2.40518">
        <ele>88.5</ele>
        <time>2024-09-01T09:19:09Z</time>
      </trkpt>
      <trkpt lat="49.2694" lon="2.4052">
        <ele>87.6</ele>
        <time>2024-09-01T09:19:10Z</time>
      </trkpt>
      <trkpt lat="49.26939" lon="2.40522">
        <ele>86.6</ele>
        <time>2024-09-01T09:19:11Z</time>
      </trkpt>
      <trkpt lat="49.26938" lon="2.40524">
        <ele>85.7</ele>
        <time>2024-09-01T09:19:12Z</time>
      </trkpt>
      <trkpt lat="49.26937" lon="2.40526">
        <ele>84.7</ele>
        <time>2024-09-01T09:19:13Z</time>
      </trkpt>
      <trkpt lat="49.26936" lon="2.40528">
        <ele>83.9</ele>
        <time>2024-09-01T09:19:14Z</time>
      </trkpt>
      <trkpt lat="49.26936" lon="2.4053">
        <ele>83.2</ele>
        <time>2024-09-01T09:19:15Z</time>
      </trkpt>
      <trkpt lat="49.26936" lon="2.40532">
        <ele>82.7</ele>
        <time>2024-09-01T09:19:16Z</time>
      </trkpt>
      <trkpt lat="49.26935" lon="2.40535">
        <ele>82.2</ele>
        <time>2024-09-01T09:19:17Z</time>
      </trkpt>
      <trkpt lat="49.26935" lon="2.40537">
        <ele>81.7</ele>
        <time>2024-09-01T09:19:18Z</time>
      </trkpt>
      <trkpt lat="49.26934" lon="2.40539">
        <ele>81.4</ele>
        <time>2024-09-01T09:19:19Z</time>
      </trkpt>
      <trkpt lat="49.26933" lon="2.40541">
        <ele>81.2</ele>
        <time>2024-09-01T09:19:20Z</time>
      </trkpt>
      <trkpt lat="49.26933" lon="2.40543">
        <ele>81.1</ele>
        <time>2024-09-01T09:19:21Z</time>
      </trkpt>
      <trkpt lat="49.26932" lon="2.40545">
        <ele>81.1</ele>
        <time>2024-09-01T09:19:22Z</time>
      </trkpt>
      <trkpt lat="49.26931" lon="2.40547">
        <ele>81.3</ele>
        <time>2024-09-01T09:19:23Z</time>
      </trkpt>
      <trkpt lat="49.2693" lon="2.40548">
        <ele>81.6</ele>
        <time>2024-09-01T09:19:24Z</time>
      </trkpt>
      <trkpt lat="49.26929" lon="2.4055">
        <ele>82.1</ele>
        <time>2024-09-01T09:19:25Z</time>
      </trkpt>
      <trkpt lat="49.26928" lon="2.40552">
        <ele>82.6</ele>
        <time>2024-09-01T09:19:26Z</time>
      </trkpt>
      <trkpt lat="49.26927" lon="2.40554">
        <ele>83.3</ele>
        <time>2024-09-01T09:19:27Z</time>
      </trkpt>
      <trkpt lat="49.26927" lon="2.40556">
        <ele>83.9</ele>
        <time>2024-09-01T09:19:28Z</time>
      </trkpt>
      <trkpt lat="49.26926" lon="2.40558">
        <ele>84.5</ele>
        <time>2024-09-01T09:19:29Z</time>
      </trkpt>
      <trkpt lat="49.26926" lon="2.4056">
        <ele>84.9</ele>
        <time>2024-09-01T09:19:30Z</time>
      </trkpt>
      <trkpt lat="49.26926" lon="2.40562">
        <ele>85.3</ele>
        <time>2024-09-01T09:19:31Z</time>
      </trkpt>
      <trkpt lat="49.26926" lon="2.40565">
        <ele>85.5</ele>
        <time>2024-09-01T09:19:32Z</time>
      </trkpt>
      <trkpt lat="49.26926" lon="2.40568">
        <ele>85.9</ele>
        <time>2024-09-01T09:19:33Z</time>
      </trkpt>
      <trkpt lat="49.26926" lon="2.4057">
        <ele>86.3</ele>
        <time>2024-09-01T09:19:34Z</time>
      </trkpt>
      <trkpt lat="49.26925" lon="2.40573">
        <ele>86.9</ele>
        <time>2024-09-01T09:19:35Z</time>
      </trkpt>
      <trkpt lat="49.26924" lon="2.40575">
        <ele>87.5</ele>
        <time>2024-09-01T09:19:36Z</time>
      </trkpt>
      <trkpt lat="49.26924" lon="2.40577">
        <ele>88.2</ele>
        <time>2024-09-01T09:19:37Z</time>
      </trkpt>
      <trkpt lat="49.26923" lon="2.40578">
        <ele>88.9</ele>
        <time>2024-09-01T09:19:38Z</time>
      </trkpt>
      <trkpt lat="49.26922" lon="2.4058">
        <ele>89.7</ele>
        <time>2024-09-01T09:19:39Z</time>
      </trkpt>
      <trkpt lat="49.26921" lon="2.40581">
        <ele>90.4</ele>
        <time>2024-09-01T09:19:40Z</time>
      </trkpt>
      <trkpt lat="49.2692" lon="2.40583">
        <ele>91.2</ele>
        <time>2024-09-01T09:19:41Z</time>
      </trkpt>
      <trkpt lat="49.26919" lon="2.40584">
        <ele>92</ele>
        <time>2024-09-01T09:19:42Z</time>
      </trkpt>
      <trkpt lat="49.26918" lon="2.40586">
        <ele>92.7</ele>
        <time>2024-09-01T09:19:43Z</time>
      </trkpt>
      <trkpt lat="49.26916" lon="2.40587">
        <ele>93.3</ele>
        <time>2024-09-01T09:19:44Z</time>
      </trkpt>
      <trkpt lat="49.26915" lon="2.40589">
        <ele>93.5</ele>
        <time>2024-09-01T09:19:45Z</time>
      </trkpt>
      <trkpt lat="49.26914" lon="2.40591">
        <ele>93.7</ele>
        <time>2024-09-01T09:19:46Z</time>
      </trkpt>
      <trkpt lat="49.26913" lon="2.40593">
        <ele>93.9</ele>
        <time>2024-09-01T09:19:47Z</time>
      </trkpt>
      <trkpt lat="49.26912" lon="2.40595">
        <ele>94.1</ele>
        <time>2024-09-01T09:19:48Z</time>
      </trkpt>
      <trkpt lat="49.26911" lon="2.40597">
        <ele>94.3</ele>
        <time>2024-09-01T09:19:49Z</time>
      </trkpt>
      <trkpt lat="49.26911" lon="2.40599">
        <ele>94.4</ele>
        <time>2024-09-01T09:19:50Z</time>
      </trkpt>
      <trkpt lat="49.2691" lon="2.40602">
        <ele>94.6</ele>
        <time>2024-09-01T09:19:51Z</time>
      </trkpt>
      <trkpt lat="49.2691" lon="2.40603">
        <ele>94.6</ele>
        <time>2024-09-01T09:19:52Z</time>
      </trkpt>
      <trkpt lat="49.2691" lon="2.40605">
        <ele>94.7</ele>
        <time>2024-09-01T09:19:53Z</time>
      </trkpt>
      <trkpt lat="49.2691" lon="2.40606">
        <ele>94.8</ele>
        <time>2024-09-01T09:19:54Z</time>
      </trkpt>
      <trkpt lat="49.26909" lon="2.40607">
        <ele>94.8</ele>
        <time>2024-09-01T09:19:55Z</time>
      </trkpt>
      <trkpt lat="49.26909" lon="2.40609">
        <ele>94.9</ele>
        <time>2024-09-01T09:19:56Z</time>
      </trkpt>
      <trkpt lat="49.26908" lon="2.4061">
        <ele>94.9</ele>
        <time>2024-09-01T09:19:57Z</time>
      </trkpt>
      <trkpt lat="49.26907" lon="2.4061">
        <ele>95</ele>
        <time>2024-09-01T09:19:58Z</time>
      </trkpt>
      <trkpt lat="49.26906" lon="2.40611">
        <ele>95</ele>
        <time>2024-09-01T09:19:59Z</time>
      </trkpt>
      <trkpt lat="49.26905" lon="2.40611">
        <ele>95</ele>
        <time>2024-09-01T09:20:00Z</time>
      </trkpt>
      <trkpt lat="49.26904" lon="2.40611">
        <ele>95</ele>
        <time>2024-09-01T09:20:01Z</time>
      </trkpt>
      <trkpt lat="49.26903" lon="2.40612">
        <ele>95</ele>
        <time>2024-09-01T09:20:02Z</time>
      </trkpt>
      <trkpt lat="49.26902" lon="2.40612">
        <ele>95</ele>
        <time>2024-09-01T09:20:03Z</time>
      </trkpt>
      <trkpt lat="49.26902" lon="2.40613">
        <ele>95</ele>
        <time>2024-09-01T09:20:04Z</time>
      </trkpt>
      <trkpt lat="49.26901" lon="2.40613">
        <ele>95</ele>
        <time>2024-09-01T09:20:05Z</time>
      </trkpt>
      <trkpt lat="49.269" lon="2.40613">
        <ele>95</ele>
        <time>2024-09-01T09:20:06Z</time>
      </trkpt>
      <trkpt lat="49.26899" lon="2.40614">
        <ele>95</ele>
        <time>2024-09-01T09:20:07Z</time>
      </trkpt>
      <trkpt lat="49.26898" lon="2.40614">
        <ele>95</ele>
        <time>2024-09-01T09:20:08Z</time>
      </trkpt>
      <trkpt lat="49.26897" lon="2.40615">
        <ele>95</ele>
        <time>2024-09-01T09:20:09Z</time>
      </trkpt>
      <trkpt lat="49.26896" lon="2.40616">
        <ele>95</ele>
        <time>2024-09-01T09:20:10Z</time>
      </trkpt>
      <trkpt lat="49.26895" lon="2.40616">
        <ele>95</ele>
        <time>2024-09-01T09:20:11Z</time>
      </trkpt>
      <trkpt lat="49.26894" lon="2.40617">
        <ele>95</ele>
        <time>2024-09-01T09:20:12Z</time>
      </trkpt>
      <trkpt lat="49.26893" lon="2.40617">
        <ele>95</ele>
        <time>2024-09-01T09:20:13Z</time>
      </trkpt>
      <trkpt lat="49.26892" lon="2.40617">
        <ele>95</ele>
        <time>2024-09-01T09:20:14Z</time>
      </trkpt>
      <trkpt lat="49.26891" lon="2.40618">
        <ele>95</ele>
        <time>2024-09-01T09:20:15Z</time>
      </trkpt>
      <trkpt lat="49.2689" lon="2.40619">
        <ele>95</ele>
        <time>2024-09-01T09:20:16Z</time>
      </trkpt>
      <trkpt lat="49.2689" lon="2.4062">
        <ele>95</ele>
        <time>2024-09-01T09:20:17Z</time>
      </trkpt>
      <trkpt lat="49.26889" lon="2.40622">
        <ele>95</ele>
        <time>2024-09-01T09:20:18Z</time>
      </trkpt>
      <trkpt lat="49.26888" lon="2.40624">
        <ele>95</ele>
        <time>2024-09-01T09:20:19Z</time>
      </trkpt>
      <trkpt lat="49.26887" lon="2.40625">
        <ele>95</ele>
        <time>2024-09-01T09:20:20Z</time>
      </trkpt>
      <trkpt lat="49.26886" lon="2.40627">
        <ele>95</ele>
        <time>2024-09-01T09:20:21Z</time>
      </trkpt>
      <trkpt lat="49.26885" lon="2.40629">
        <ele>95</ele>
        <time>2024-09-01T09:20:22Z</time>
      </trkpt>
      <trkpt lat="49.26884" lon="2.40631">
        <ele>95</ele>
        <time>2024-09-01T09:20:23Z</time>
      </trkpt>
      <trkpt lat="49.26883" lon="2.40633">
        <ele>95</ele>
        <time>2024-09-01T09:20:24Z</time>
      </trkpt>
      <trkpt lat="49.26883" lon="2.40635">
        <ele>95</ele>
        <time>2024-09-01T09:20:25Z</time>
      </trkpt>
      <trkpt lat="49.26882" lon="2.40637">
        <ele>95</ele>
        <time>2024-09-01T09:20:26Z</time>
      </trkpt>
      <trkpt lat="49.26882" lon="2.40639">
        <ele>95</ele>
        <time>2024-09-01T09:20:27Z</time>
      </trkpt>
      <trkpt lat="49.26881" lon="2.40641">
        <ele>95</ele>
        <time>2024-09-01T09:20:28Z</time>
      </trkpt>
      <trkpt lat="49.26881" lon="2.40644">
        <ele>95</ele>
        <time>2024-09-01T09:20:29Z</time>
      </trkpt>
      <trkpt lat="49.2688" lon="2.40646">
        <ele>95</ele>
        <time>2024-09-01T09:20:30Z</time>
      </trkpt>
      <trkpt lat="49.2688" lon="2.40648">
        <ele>95</ele>
        <time>2024-09-01T09:20:31Z</time>
      </trkpt>
      <trkpt lat="49.26879" lon="2.4065">
        <ele>95</ele>
        <time>2024-09-01T09:20:32Z</time>
      </trkpt>
      <trkpt lat="49.26878" lon="2.40652">
        <ele>95</ele>
        <time>2024-09-01T09:20:33Z</time>
      </trkpt>
      <trkpt lat="49.26877" lon="2.40655">
        <ele>95</ele>
        <time>2024-09-01T09:20:34Z</time>
      </trkpt>
      <trkpt lat="49.26876" lon="2.40656">
        <ele>95</ele>
        <time>2024-09-01T09:20:35Z</time>
      </trkpt>
      <trkpt lat="49.26875" lon="2.40658">
        <ele>95</ele>
        <time>2024-09-01T09:20:36Z</time>
      </trkpt>
      <trkpt lat="49.26874" lon="2.4066">
        <ele>95</ele>
        <time>2024-09-01T09:20:37Z</time>
      </trkpt>
      <trkpt lat="49.26873" lon="2.40662">
        <ele>95</ele>
        <time>2024-09-01T09:20:38Z</time>
      </trkpt>
      <trkpt lat="49.26873" lon="2.40665">
        <ele>95</ele>
        <time>2024-09-01T09:20:39Z</time>
      </trkpt>
      <trkpt lat="49.26872" lon="2.40667">
        <ele>95</ele>
        <time>2024-09-01T09:20:40Z</time>
      </trkpt>
      <trkpt lat="49.26871" lon="2.4067">
        <ele>94.8</ele>
        <time>2024-09-01T09:20:41Z</time>
      </trkpt>
      <trkpt lat="49.2687" lon="2.40672">
        <ele>94.7</ele>
        <time>2024-09-01T09:20:42Z</time>
      </trkpt>
      <trkpt lat="49.26869" lon="2.40674">
        <ele>94.7</ele>
        <time>2024-09-01T09:20:43Z</time>
      </trkpt>
      <trkpt lat="49.26869" lon="2.40677">
        <ele>94.7</ele>
        <time>2024-09-01T09:20:44Z</time>
      </trkpt>
      <trkpt lat="49.26868" lon="2.40679">
        <ele>94.7</ele>
        <time>2024-09-01T09:20:45Z</time>
      </trkpt>
      <trkpt lat="49.26866" lon="2.40681">
        <ele>94.8</ele>
        <time>2024-09-01T09:20:46Z</time>
      </trkpt>
      <trkpt lat="49.26866" lon="2.40682">
        <ele>94.9</ele>
        <time>2024-09-01T09:20:47Z</time>
      </trkpt>
      <trkpt lat="49.26865" lon="2.40684">
        <ele>95</ele>
        <time>2024-09-01T09:20:48Z</time>
      </trkpt>
      <trkpt lat="49.26864" lon="2.40685">
        <ele>95.1</ele>
        <time>2024-09-01T09:20:49Z</time>
      </trkpt>
      <trkpt lat="49.26864" lon="2.40687">
        <ele>95.2</ele>
        <time>2024-09-01T09:20:50Z</time>
      </trkpt>
      <trkpt lat="49.26863" lon="2.40689">
        <ele>95.4</ele>
        <time>2024-09-01T09:20:51Z</time>
      </trkpt>
      <trkpt lat="49.26863" lon="2.4069">
        <ele>95.5</ele>
        <time>2024-09-01T09:20:52Z</time>
      </trkpt>
      <trkpt lat="49.26862" lon="2.40692">
        <ele>95.8</ele>
        <time>2024-09-01T09:20:53Z</time>
      </trkpt>
      <trkpt lat="49.26861" lon="2.40694">
        <ele>96</ele>
        <time>2024-09-01T09:20:54Z</time>
      </trkpt>
      <trkpt lat="49.2686" lon="2.40696">
        <ele>95.6</ele>
        <time>2024-09-01T09:20:55Z</time>
      </trkpt>
      <trkpt lat="49.26859" lon="2.40698">
        <ele>95.2</ele>
        <time>2024-09-01T09:20:56Z</time>
      </trkpt>
      <trkpt lat="49.26858" lon="2.407">
        <ele>94.9</ele>
        <time>2024-09-01T09:20:57Z</time>
      </trkpt>
      <trkpt lat="49.26857" lon="2.40702">
        <ele>94.6</ele>
        <time>2024-09-01T09:20:58Z</time>
      </trkpt>
      <trkpt lat="49.26856" lon="2.40703">
        <ele>94.2</ele>
        <time>2024-09-01T09:20:59Z</time>
      </trkpt>
      <trkpt lat="49.26855" lon="2.40705">
        <ele>94</ele>
        <time>2024-09-01T09:21:00Z</time>
      </trkpt>
      <trkpt lat="49.26855" lon="2.40708">
        <ele>93.6</ele>
        <time>2024-09-01T09:21:01Z</time>
      </trkpt>
      <trkpt lat="49.26854" lon="2.4071">
        <ele>93.3</ele>
        <time>2024-09-01T09:21:02Z</time>
      </trkpt>
      <trkpt lat="49.26853" lon="2.40713">
        <ele>92.9</ele>
        <time>2024-09-01T09:21:03Z</time>
      </trkpt>
      <trkpt lat="49.26852" lon="2.40716">
        <ele>92.6</ele>
        <time>2024-09-01T09:21:04Z</time>
      </trkpt>
      <trkpt lat="49.26852" lon="2.40718">
        <ele>92.3</ele>
        <time>2024-09-01T09:21:05Z</time>
      </trkpt>
      <trkpt lat="49.26851" lon="2.40721">
        <ele>92.1</ele>
        <time>2024-09-01T09:21:06Z</time>
      </trkpt>
      <trkpt lat="49.2685" lon="2.40723">
        <ele>91.9</ele>
        <time>2024-09-01T09:21:07Z</time>
      </trkpt>
      <trkpt lat="49.2685" lon="2.40725">
        <ele>92.1</ele>
        <time>2024-09-01T09:21:08Z</time>
      </trkpt>
      <trkpt lat="49.26849" lon="2.40727">
        <ele>92.3</ele>
        <time>2024-09-01T09:21:09Z</time>
      </trkpt>
      <trkpt lat="49.26849" lon="2.40729">
        <ele>92.4</ele>
        <time>2024-09-01T09:21:10Z</time>
      </trkpt>
      <trkpt lat="49.26848" lon="2.40732">
        <ele>92.5</ele>
        <time>2024-09-01T09:21:11Z</time>
      </trkpt>
      <trkpt lat="49.26848" lon="2.40734">
        <ele>92.7</ele>
        <time>2024-09-01T09:21:12Z</time>
      </trkpt>
      <trkpt lat="49.26847" lon="2.40736">
        <ele>92.8</ele>
        <time>2024-09-01T09:21:13Z</time>
      </trkpt>
      <trkpt lat="49.26847" lon="2.40739">
        <ele>92.9</ele>
        <time>2024-09-01T09:21:14Z</time>
      </trkpt>
      <trkpt lat="49.26846" lon="2.40741">
        <ele>93</ele>
        <time>2024-09-01T09:21:15Z</time>
      </trkpt>
      <trkpt lat="49.26846" lon="2.40744">
        <ele>93.1</ele>
        <time>2024-09-01T09:21:16Z</time>
      </trkpt>
      <trkpt lat="49.26845" lon="2.40746">
        <ele>93.1</ele>
        <time>2024-09-01T09:21:17Z</time>
      </trkpt>
      <trkpt lat="49.26844" lon="2.40748">
        <ele>93.2</ele>
        <time>2024-09-01T09:21:18Z</time>
      </trkpt>
      <trkpt lat="49.26843" lon="2.4075">
        <ele>93.3</ele>
        <time>2024-09-01T09:21:19Z</time>
      </trkpt>
      <trkpt lat="49.26842" lon="2.40752">
        <ele>93.4</ele>
        <time>2024-09-01T09:21:20Z</time>
      </trkpt>
      <trkpt lat="49.26841" lon="2.40755">
        <ele>93.5</ele>
        <time>2024-09-01T09:21:21Z</time>
      </trkpt>
      <trkpt lat="49.26841" lon="2.40757">
        <ele>93.6</ele>
        <time>2024-09-01T09:21:22Z</time>
      </trkpt>
      <trkpt lat="49.2684" lon="2.4076">
        <ele>93.7</ele>
        <time>2024-09-01T09:21:23Z</time>
      </trkpt>
      <trkpt lat="49.26839" lon="2.40763">
        <ele>93.8</ele>
        <time>2024-09-01T09:21:24Z</time>
      </trkpt>
      <trkpt lat="49.26838" lon="2.40766">
        <ele>93.9</ele>
        <time>2024-09-01T09:21:25Z</time>
      </trkpt>
      <trkpt lat="49.26837" lon="2.40768">
        <ele>93.9</ele>
        <time>2024-09-01T09:21:26Z</time>
      </trkpt>
      <trkpt lat="49.26836" lon="2.40771">
        <ele>94</ele>
        <time>2024-09-01T09:21:27Z</time>
      </trkpt>
      <trkpt lat="49.26835" lon="2.40774">
        <ele>94</ele>
        <time>2024-09-01T09:21:28Z</time>
      </trkpt>
      <trkpt lat="49.26835" lon="2.40776">
        <ele>94</ele>
        <time>2024-09-01T09:21:29Z</time>
      </trkpt>
      <trkpt lat="49.26834" lon="2.40778">
        <ele>94</ele>
        <time>2024-09-01T09:21:30Z</time>
      </trkpt>
      <trkpt lat="49.26834" lon="2.40781">
        <ele>93.8</ele>
        <time>2024-09-01T09:21:31Z</time>
      </trkpt>
      <trkpt lat="49.26833" lon="2.40783">
        <ele>93.6</ele>
        <time>2024-09-01T09:21:32Z</time>
      </trkpt>
      <trkpt lat="49.26833" lon="2.40786">
        <ele>93.4</ele>
        <time>2024-09-01T09:21:33Z</time>
      </trkpt>
      <trkpt lat="49.26832" lon="2.40788">
        <ele>93.2</ele>
        <time>2024-09-01T09:21:34Z</time>
      </trkpt>
      <trkpt lat="49.26832" lon="2.40791">
        <ele>93</ele>
        <time>2024-09-01T09:21:35Z</time>
      </trkpt>
      <trkpt lat="49.26831" lon="2.40794">
        <ele>92.8</ele>
        <time>2024-09-01T09:21:36Z</time>
      </trkpt>
      <trkpt lat="49.26831" lon="2.40797">
        <ele>92.6</ele>
        <time>2024-09-01T09:21:37Z</time>
      </trkpt>
      <trkpt lat="49.2683" lon="2.408">
        <ele>92.5</ele>
        <time>2024-09-01T09:21:38Z</time>
      </trkpt>
      <trkpt lat="49.2683" lon="2.40803">
        <ele>92.3</ele>
        <time>2024-09-01T09:21:39Z</time>
      </trkpt>
      <trkpt lat="49.26829" lon="2.40806">
        <ele>92.1</ele>
        <time>2024-09-01T09:21:40Z</time>
      </trkpt>
      <trkpt lat="49.26829" lon="2.40809">
        <ele>92</ele>
        <time>2024-09-01T09:21:41Z</time>
      </trkpt>
      <trkpt lat="49.26829" lon="2.40812">
        <ele>92</ele>
        <time>2024-09-01T09:21:42Z</time>
      </trkpt>
      <trkpt lat="49.26828" lon="2.40815">
        <ele>91.9</ele>
        <time>2024-09-01T09:21:43Z</time>
      </trkpt>
      <trkpt lat="49.26827" lon="2.40817">
        <ele>91.8</ele>
        <time>2024-09-01T09:21:44Z</time>
      </trkpt>
      <trkpt lat="49.26827" lon="2.4082">
        <ele>91.7</ele>
        <time>2024-09-01T09:21:45Z</time>
      </trkpt>
      <trkpt lat="49.26826" lon="2.40823">
        <ele>91.6</ele>
        <time>2024-09-01T09:21:46Z</time>
      </trkpt>
      <trkpt lat="49.26825" lon="2.40826">
        <ele>91.5</ele>
        <time>2024-09-01T09:21:47Z</time>
      </trkpt>
      <trkpt lat="49.26825" lon="2.40829">
        <ele>91.5</ele>
        <time>2024-09-01T09:21:48Z</time>
      </trkpt>
      <trkpt lat="49.26825" lon="2.40832">
        <ele>91.4</ele>
        <time>2024-09-01T09:21:49Z</time>
      </trkpt>
      <trkpt lat="49.26824" lon="2.40835">
        <ele>91.3</ele>
        <time>2024-09-01T09:21:50Z</time>
      </trkpt>
      <trkpt lat="49.26824" lon="2.40837">
        <ele>91.2</ele>
        <time>2024-09-01T09:21:51Z</time>
      </trkpt>
      <trkpt lat="49.26824" lon="2.4084">
        <ele>91.1</ele>
        <time>2024-09-01T09:21:52Z</time>
      </trkpt>
      <trkpt lat="49.26823" lon="2.40842">
        <ele>91</ele>
        <time>2024-09-01T09:21:53Z</time>
      </trkpt>
      <trkpt lat="49.26823" lon="2.40845">
        <ele>90.9</ele>
        <time>2024-09-01T09:21:54Z</time>
      </trkpt>
      <trkpt lat="49.26823" lon="2.40847">
        <ele>90.8</ele>
        <time>2024-09-01T09:21:55Z</time>
      </trkpt>
      <trkpt lat="49.26823" lon="2.4085">
        <ele>90.7</ele>
        <time>2024-09-01T09:21:56Z</time>
      </trkpt>
      <trkpt lat="49.26822" lon="2.40852">
        <ele>90.6</ele>
        <time>2024-09-01T09:21:57Z</time>
      </trkpt>
      <trkpt lat="49.26822" lon="2.40854">
        <ele>90.6</ele>
        <time>2024-09-01T09:21:58Z</time>
      </trkpt>
      <trkpt lat="49.26821" lon="2.40856">
        <ele>90.5</ele>
        <time>2024-09-01T09:21:59Z</time>
      </trkpt>
      <trkpt lat="49.26821" lon="2.40859">
        <ele>90.4</ele>
        <time>2024-09-01T09:22:00Z</time>
      </trkpt>
      <trkpt lat="49.26821" lon="2.40861">
        <ele>90.4</ele>
        <time>2024-09-01T09:22:01Z</time>
      </trkpt>
      <trkpt lat="49.2682" lon="2.40864">
        <ele>90.4</ele>
        <time>2024-09-01T09:22:02Z</time>
      </trkpt>
      <trkpt lat="49.2682" lon="2.40866">
        <ele>90.5</ele>
        <time>2024-09-01T09:22:03Z</time>
      </trkpt>
      <trkpt lat="49.2682" lon="2.40869">
        <ele>90.5</ele>
        <time>2024-09-01T09:22:04Z</time>
      </trkpt>
      <trkpt lat="49.26819" lon="2.40871">
        <ele>90.5</ele>
        <time>2024-09-01T09:22:05Z</time>
      </trkpt>
      <trkpt lat="49.26819" lon="2.40874">
        <ele>90.5</ele>
        <time>2024-09-01T09:22:06Z</time>
      </trkpt>
      <trkpt lat="49.26818" lon="2.40877">
        <ele>90.6</ele>
        <time>2024-09-01T09:22:07Z</time>
      </trkpt>
      <trkpt lat="49.26818" lon="2.40879">
        <ele>90.6</ele>
        <time>2024-09-01T09:22:08Z</time>
      </trkpt>
      <trkpt lat="49.26817" lon="2.40882">
        <ele>90.6</ele>
        <time>2024-09-01T09:22:09Z</time>
      </trkpt>
      <trkpt lat="49.26817" lon="2.40885">
        <ele>90.6</ele>
        <time>2024-09-01T09:22:10Z</time>
      </trkpt>
      <trkpt lat="49.26816" lon="2.40887">
        <ele>90.6</ele>
        <time>2024-09-01T09:22:11Z</time>
      </trkpt>
      <trkpt lat="49.26815" lon="2.4089">
        <ele>90.7</ele>
        <time>2024-09-01T09:22:12Z</time>
      </trkpt>
      <trkpt lat="49.26815" lon="2.40893">
        <ele>90.7</ele>
        <time>2024-09-01T09:22:13Z</time>
      </trkpt>
      <trkpt lat="49.26814" lon="2.40896">
        <ele>90.8</ele>
        <time>2024-09-01T09:22:14Z</time>
      </trkpt>
      <trkpt lat="49.26814" lon="2.40899">
        <ele>90.8</ele>
        <time>2024-09-01T09:22:15Z</time>
      </trkpt>
      <trkpt lat="49.26813" lon="2.40902">
        <ele>90.8</ele>
        <time>2024-09-01T09:22:16Z</time>
      </trkpt>
      <trkpt lat="49.26813" lon="2.40904">
        <ele>90.9</ele>
        <time>2024-09-01T09:22:17Z</time>
      </trkpt>
      <trkpt lat="49.26813" lon="2.40907">
        <ele>90.9</ele>
        <time>2024-09-01T09:22:18Z</time>
      </trkpt>
      <trkpt lat="49.26813" lon="2.4091">
        <ele>90.9</ele>
        <time>2024-09-01T09:22:19Z</time>
      </trkpt>
      <trkpt lat="49.26813" lon="2.40913">
        <ele>91</ele>
        <time>2024-09-01T09:22:20Z</time>
      </trkpt>
      <trkpt lat="49.26812" lon="2.40916">
        <ele>91</ele>
        <time>2024-09-01T09:22:21Z</time>
      </trkpt>
      <trkpt lat="49.26811" lon="2.40918">
        <ele>90.9</ele>
        <time>2024-09-01T09:22:22Z</time>
      </trkpt>
      <trkpt lat="49.26811" lon="2.40921">
        <ele>90.8</ele>
        <time>2024-09-01T09:22:23Z</time>
      </trkpt>
      <trkpt lat="49.2681" lon="2.40924">
        <ele>90.7</ele>
        <time>2024-09-01T09:22:24Z</time>
      </trkpt>
      <trkpt lat="49.26809" lon="2.40927">
        <ele>90.6</ele>
        <time>2024-09-01T09:22:25Z</time>
      </trkpt>
      <trkpt lat="49.26809" lon="2.4093">
        <ele>90.5</ele>
        <time>2024-09-01T09:22:26Z</time>
      </trkpt>
      <trkpt lat="49.26809" lon="2.40933">
        <ele>90.4</ele>
        <time>2024-09-01T09:22:27Z</time>
      </trkpt>
      <trkpt lat="49.26808" lon="2.40935">
        <ele>90.3</ele>
        <time>2024-09-01T09:22:28Z</time>
      </trkpt>
      <trkpt lat="49.26808" lon="2.40938">
        <ele>90.2</ele>
        <time>2024-09-01T09:22:29Z</time>
      </trkpt>
      <trkpt lat="49.26808" lon="2.40941">
        <ele>90.1</ele>
        <time>2024-09-01T09:22:30Z</time>
      </trkpt>
      <trkpt lat="49.26808" lon="2.40943">
        <ele>90</ele>
        <time>2024-09-01T09:22:31Z</time>
      </trkpt>
      <trkpt lat="49.26808" lon="2.40945">
        <ele>90</ele>
        <time>2024-09-01T09:22:32Z</time>
      </trkpt>
      <trkpt lat="49.26808" lon="2.40947">
        <ele>89.9</ele>
        <time>2024-09-01T09:22:33Z</time>
      </trkpt>
      <trkpt lat="49.26808" lon="2.40949">
        <ele>89.8</ele>
        <time>2024-09-01T09:22:34Z</time>
      </trkpt>
      <trkpt lat="49.26808" lon="2.40951">
        <ele>89.8</ele>
        <time>2024-09-01T09:22:35Z</time>
      </trkpt>
      <trkpt lat="49.26808" lon="2.40953">
        <ele>89.7</ele>
        <time>2024-09-01T09:22:36Z</time>
      </trkpt>
      <trkpt lat="49.26808" lon="2.40955">
        <ele>89.7</ele>
        <time>2024-09-01T09:22:37Z</time>
      </trkpt>
      <trkpt lat="49.26808" lon="2.40957">
        <ele>89.6</ele>
        <time>2024-09-01T09:22:38Z</time>
      </trkpt>
      <trkpt lat="49.26808" lon="2.40959">
        <ele>89.5</ele>
        <time>2024-09-01T09:22:39Z</time>
      </trkpt>
      <trkpt lat="49.26808" lon="2.40961">
        <ele>89.5</ele>
        <time>2024-09-01T09:22:40Z</time>
      </trkpt>
      <trkpt lat="49.26808" lon="2.40963">
        <ele>89.4</ele>
        <time>2024-09-01T09:22:41Z</time>
      </trkpt>
      <trkpt lat="49.26807" lon="2.40965">
        <ele>89.3</ele>
        <time>2024-09-01T09:22:42Z</time>
      </trkpt>
      <trkpt lat="49.26807" lon="2.40967">
        <ele>89.2</ele>
        <time>2024-09-01T09:22:43Z</time>
      </trkpt>
      <trkpt lat="49.26806" lon="2.40969">
        <ele>89.1</ele>
        <time>2024-09-01T09:22:44Z</time>
      </trkpt>
      <trkpt lat="49.26806" lon="2.40972">
        <ele>89</ele>
        <time>2024-09-01T09:22:45Z</time>
      </trkpt>
      <trkpt lat="49.26805" lon="2.40974">
        <ele>89</ele>
        <time>2024-09-01T09:22:46Z</time>
      </trkpt>
      <trkpt lat="49.26805" lon="2.40976">
        <ele>88.9</ele>
        <time>2024-09-01T09:22:47Z</time>
      </trkpt>
      <trkpt lat="49.26804" lon="2.40978">
        <ele>88.8</ele>
        <time>2024-09-01T09:22:48Z</time>
      </trkpt>
      <trkpt lat="49.26804" lon="2.40981">
        <ele>88.7</ele>
        <time>2024-09-01T09:22:49Z</time>
      </trkpt>
      <trkpt lat="49.26804" lon="2.40984">
        <ele>88.7</ele>
        <time>2024-09-01T09:22:50Z</time>
      </trkpt>
      <trkpt lat="49.26803" lon="2.40986">
        <ele>88.6</ele>
        <time>2024-09-01T09:22:51Z</time>
      </trkpt>
      <trkpt lat="49.26803" lon="2.40989">
        <ele>88.5</ele>
        <time>2024-09-01T09:22:52Z</time>
      </trkpt>
      <trkpt lat="49.26803" lon="2.40992">
        <ele>88.4</ele>
        <time>2024-09-01T09:22:53Z</time>
      </trkpt>
      <trkpt lat="49.26802" lon="2.40994">
        <ele>88.4</ele>
        <time>2024-09-01T09:22:54Z</time>
      </trkpt>
      <trkpt lat="49.26802" lon="2.40997">
        <ele>88.3</ele>
        <time>2024-09-01T09:22:55Z</time>
      </trkpt>
      <trkpt lat="49.26802" lon="2.40999">
        <ele>88.3</ele>
        <time>2024-09-01T09:22:56Z</time>
      </trkpt>
      <trkpt lat="49.26802" lon="2.41002">
        <ele>88.3</ele>
        <time>2024-09-01T09:22:57Z</time>
      </trkpt>
      <trkpt lat="49.26802" lon="2.41005">
        <ele>88.3</ele>
        <time>2024-09-01T09:22:58Z</time>
      </trkpt>
      <trkpt lat="49.26801" lon="2.41007">
        <ele>88.3</ele>
        <time>2024-09-01T09:22:59Z</time>
      </trkpt>
      <trkpt lat="49.26801" lon="2.4101">
        <ele>88.3</ele>
        <time>2024-09-01T09:23:00Z</time>
      </trkpt>
      <trkpt lat="49.26801" lon="2.41013">
        <ele>88.3</ele>
        <time>2024-09-01T09:23:01Z</time>
      </trkpt>
      <trkpt lat="49.26801" lon="2.41016">
        <ele>88.4</ele>
        <time>2024-09-01T09:23:02Z</time>
      </trkpt>
      <trkpt lat="49.268" lon="2.41018">
        <ele>88.4</ele>
        <time>2024-09-01T09:23:03Z</time>
      </trkpt>
      <trkpt lat="49.268" lon="2.41021">
        <ele>88.4</ele>
        <time>2024-09-01T09:23:04Z</time>
      </trkpt>
      <trkpt lat="49.268" lon="2.41024">
        <ele>88.4</ele>
        <time>2024-09-01T09:23:05Z</time>
      </trkpt>
      <trkpt lat="49.26799" lon="2.41026">
        <ele>88.5</ele>
        <time>2024-09-01T09:23:06Z</time>
      </trkpt>
      <trkpt lat="49.26799" lon="2.41029">
        <ele>88.5</ele>
        <time>2024-09-01T09:23:07Z</time>
      </trkpt>
      <trkpt lat="49.26798" lon="2.41031">
        <ele>88.5</ele>
        <time>2024-09-01T09:23:08Z</time>
      </trkpt>
      <trkpt lat="49.26798" lon="2.41034">
        <ele>88.5</ele>
        <time>2024-09-01T09:23:09Z</time>
      </trkpt>
      <trkpt lat="49.26797" lon="2.41036">
        <ele>88.5</ele>
        <time>2024-09-01T09:23:10Z</time>
      </trkpt>
      <trkpt lat="49.26797" lon="2.41039">
        <ele>88.5</ele>
        <time>2024-09-01T09:23:11Z</time>
      </trkpt>
      <trkpt lat="49.26796" lon="2.41041">
        <ele>88.5</ele>
        <time>2024-09-01T09:23:12Z</time>
      </trkpt>
      <trkpt lat="49.26796" lon="2.41043">
        <ele>88.5</ele>
        <time>2024-09-01T09:23:13Z</time>
      </trkpt>
      <trkpt lat="49.26796" lon="2.41046">
        <ele>88.5</ele>
        <time>2024-09-01T09:23:14Z</time>
      </trkpt>
      <trkpt lat="49.26795" lon="2.41048">
        <ele>88.5</ele>
        <time>2024-09-01T09:23:15Z</time>
      </trkpt>
      <trkpt lat="49.26795" lon="2.4105">
        <ele>88.6</ele>
        <time>2024-09-01T09:23:16Z</time>
      </trkpt>
      <trkpt lat="49.26794" lon="2.41053">
        <ele>88.6</ele>
        <time>2024-09-01T09:23:17Z</time>
      </trkpt>
      <trkpt lat="49.26794" lon="2.41056">
        <ele>88.7</ele>
        <time>2024-09-01T09:23:18Z</time>
      </trkpt>
      <trkpt lat="49.26793" lon="2.41058">
        <ele>88.6</ele>
        <time>2024-09-01T09:23:19Z</time>
      </trkpt>
      <trkpt lat="49.26793" lon="2.41061">
        <ele>88.6</ele>
        <time>2024-09-01T09:23:20Z</time>
      </trkpt>
      <trkpt lat="49.26792" lon="2.41063">
        <ele>88.5</ele>
        <time>2024-09-01T09:23:21Z</time>
      </trkpt>
      <trkpt lat="49.26791" lon="2.41066">
        <ele>88.5</ele>
        <time>2024-09-01T09:23:22Z</time>
      </trkpt>
      <trkpt lat="49.26791" lon="2.41068">
        <ele>88.4</ele>
        <time>2024-09-01T09:23:23Z</time>
      </trkpt>
      <trkpt lat="49.2679" lon="2.4107">
        <ele>88.4</ele>
        <time>2024-09-01T09:23:24Z</time>
      </trkpt>
      <trkpt lat="49.26789" lon="2.41073">
        <ele>88.4</ele>
        <time>2024-09-01T09:23:25Z</time>
      </trkpt>
      <trkpt lat="49.26789" lon="2.41075">
        <ele>88.3</ele>
        <time>2024-09-01T09:23:26Z</time>
      </trkpt>
      <trkpt lat="49.26788" lon="2.41078">
        <ele>88.2</ele>
        <time>2024-09-01T09:23:27Z</time>
      </trkpt>
      <trkpt lat="49.26788" lon="2.4108">
        <ele>88.1</ele>
        <time>2024-09-01T09:23:28Z</time>
      </trkpt>
      <trkpt lat="49.26788" lon="2.41083">
        <ele>88</ele>
        <time>2024-09-01T09:23:29Z</time>
      </trkpt>
      <trkpt lat="49.26787" lon="2.41085">
        <ele>87.8</ele>
        <time>2024-09-01T09:23:30Z</time>
      </trkpt>
      <trkpt lat="49.26787" lon="2.41088">
        <ele>87.5</ele>
        <time>2024-09-01T09:23:31Z</time>
      </trkpt>
      <trkpt lat="49.26786" lon="2.41091">
        <ele>87.3</ele>
        <time>2024-09-01T09:23:32Z</time>
      </trkpt>
      <trkpt lat="49.26786" lon="2.41093">
        <ele>87</ele>
        <time>2024-09-01T09:23:33Z</time>
      </trkpt>
      <trkpt lat="49.26785" lon="2.41096">
        <ele>86.8</ele>
        <time>2024-09-01T09:23:34Z</time>
      </trkpt>
      <trkpt lat="49.26785" lon="2.41098">
        <ele>86.5</ele>
        <time>2024-09-01T09:23:35Z</time>
      </trkpt>
      <trkpt lat="49.26784" lon="2.411">
        <ele>86.3</ele>
        <time>2024-09-01T09:23:36Z</time>
      </trkpt>
      <trkpt lat="49.26784" lon="2.41103">
        <ele>86</ele>
        <time>2024-09-01T09:23:37Z</time>
      </trkpt>
      <trkpt lat="49.26784" lon="2.41106">
        <ele>85.7</ele>
        <time>2024-09-01T09:23:38Z</time>
      </trkpt>
      <trkpt lat="49.26783" lon="2.41108">
        <ele>85.4</ele>
        <time>2024-09-01T09:23:39Z</time>
      </trkpt>
      <trkpt lat="49.26783" lon="2.41111">
        <ele>85</ele>
        <time>2024-09-01T09:23:40Z</time>
      </trkpt>
      <trkpt lat="49.26782" lon="2.41114">
        <ele>84.9</ele>
        <time>2024-09-01T09:23:41Z</time>
      </trkpt>
      <trkpt lat="49.26782" lon="2.41116">
        <ele>84.8</ele>
        <time>2024-09-01T09:23:42Z</time>
      </trkpt>
      <trkpt lat="49.26781" lon="2.41119">
        <ele>84.7</ele>
        <time>2024-09-01T09:23:43Z</time>
      </trkpt>
      <trkpt lat="49.26781" lon="2.41121">
        <ele>84.6</ele>
        <time>2024-09-01T09:23:44Z</time>
      </trkpt>
      <trkpt lat="49.26781" lon="2.41124">
        <ele>84.5</ele>
        <time>2024-09-01T09:23:45Z</time>
      </trkpt>
      <trkpt lat="49.2678" lon="2.41126">
        <ele>84.5</ele>
        <time>2024-09-01T09:23:46Z</time>
      </trkpt>
      <trkpt lat="49.2678" lon="2.41129">
        <ele>84.4</ele>
        <time>2024-09-01T09:23:47Z</time>
      </trkpt>
      <trkpt lat="49.26779" lon="2.41131">
        <ele>84.3</ele>
        <time>2024-09-01T09:23:48Z</time>
      </trkpt>
      <trkpt lat="49.26779" lon="2.41134">
        <ele>84.2</ele>
        <time>2024-09-01T09:23:49Z</time>
      </trkpt>
      <trkpt lat="49.26778" lon="2.41136">
        <ele>84.1</ele>
        <time>2024-09-01T09:23:50Z</time>
      </trkpt>
      <trkpt lat="49.26778" lon="2.41138">
        <ele>84</ele>
        <time>2024-09-01T09:23:51Z</time>
      </trkpt>
      <trkpt lat="49.26777" lon="2.41141">
        <ele>84.2</ele>
        <time>2024-09-01T09:23:52Z</time>
      </trkpt>
      <trkpt lat="49.26777" lon="2.41143">
        <ele>84.3</ele>
        <time>2024-09-01T09:23:53Z</time>
      </trkpt>
      <trkpt lat="49.26777" lon="2.41145">
        <ele>84.4</ele>
        <time>2024-09-01T09:23:54Z</time>
      </trkpt>
      <trkpt lat="49.26776" lon="2.41147">
        <ele>84.5</ele>
        <time>2024-09-01T09:23:55Z</time>
      </trkpt>
      <trkpt lat="49.26776" lon="2.41149">
        <ele>84.6</ele>
        <time>2024-09-01T09:23:56Z</time>
      </trkpt>
      <trkpt lat="49.26776" lon="2.41151">
        <ele>84.7</ele>
        <time>2024-09-01T09:23:57Z</time>
      </trkpt>
      <trkpt lat="49.26775" lon="2.41154">
        <ele>84.8</ele>
        <time>2024-09-01T09:23:58Z</time>
      </trkpt>
      <trkpt lat="49.26775" lon="2.41156">
        <ele>84.9</ele>
        <time>2024-09-01T09:23:59Z</time>
      </trkpt>
      <trkpt lat="49.26774" lon="2.41159">
        <ele>85.1</ele>
        <time>2024-09-01T09:24:00Z</time>
      </trkpt>
      <trkpt lat="49.26774" lon="2.41161">
        <ele>85.2</ele>
        <time>2024-09-01T09:24:01Z</time>
      </trkpt>
      <trkpt lat="49.26773" lon="2.41164">
        <ele>85.3</ele>
        <time>2024-09-01T09:24:02Z</time>
      </trkpt>
      <trkpt lat="49.26773" lon="2.41166">
        <ele>85.4</ele>
        <time>2024-09-01T09:24:03Z</time>
      </trkpt>
      <trkpt lat="49.26772" lon="2.41169">
        <ele>85.6</ele>
        <time>2024-09-01T09:24:04Z</time>
      </trkpt>
      <trkpt lat="49.26772" lon="2.41171">
        <ele>85.7</ele>
        <time>2024-09-01T09:24:05Z</time>
      </trkpt>
      <trkpt lat="49.26771" lon="2.41173">
        <ele>85.9</ele>
        <time>2024-09-01T09:24:06Z</time>
      </trkpt>
      <trkpt lat="49.26771" lon="2.41176">
        <ele>86</ele>
        <time>2024-09-01T09:24:07Z</time>
      </trkpt>
      <trkpt lat="49.2677" lon="2.41178">
        <ele>86.2</ele>
        <time>2024-09-01T09:24:08Z</time>
      </trkpt>
      <trkpt lat="49.2677" lon="2.41181">
        <ele>86.3</ele>
        <time>2024-09-01T09:24:09Z</time>
      </trkpt>
      <trkpt lat="49.2677" lon="2.41184">
        <ele>86.4</ele>
        <time>2024-09-01T09:24:10Z</time>
      </trkpt>
      <trkpt lat="49.26769" lon="2.41186">
        <ele>86.5</ele>
        <time>2024-09-01T09:24:11Z</time>
      </trkpt>
      <trkpt lat="49.26769" lon="2.41188">
        <ele>86.6</ele>
        <time>2024-09-01T09:24:12Z</time>
      </trkpt>
      <trkpt lat="49.26769" lon="2.41191">
        <ele>86.7</ele>
        <time>2024-09-01T09:24:13Z</time>
      </trkpt>
      <trkpt lat="49.26768" lon="2.41193">
        <ele>86.8</ele>
        <time>2024-09-01T09:24:14Z</time>
      </trkpt>
      <trkpt lat="49.26768" lon="2.41196">
        <ele>86.8</ele>
        <time>2024-09-01T09:24:15Z</time>
      </trkpt>
      <trkpt lat="49.26768" lon="2.41199">
        <ele>86.8</ele>
        <time>2024-09-01T09:24:16Z</time>
      </trkpt>
      <trkpt lat="49.26767" lon="2.41202">
        <ele>86.8</ele>
        <time>2024-09-01T09:24:17Z</time>
      </trkpt>
      <trkpt lat="49.26767" lon="2.41204">
        <ele>86.8</ele>
        <time>2024-09-01T09:24:18Z</time>
      </trkpt>
      <trkpt lat="49.26766" lon="2.41207">
        <ele>86.8</ele>
        <time>2024-09-01T09:24:19Z</time>
      </trkpt>
      <trkpt lat="49.26766" lon="2.41209">
        <ele>86.8</ele>
        <time>2024-09-01T09:24:20Z</time>
      </trkpt>
      <trkpt lat="49.26765" lon="2.41212">
        <ele>86.7</ele>
        <time>2024-09-01T09:24:21Z</time>
      </trkpt>
      <trkpt lat="49.26765" lon="2.41214">
        <ele>86.7</ele>
        <time>2024-09-01T09:24:22Z</time>
      </trkpt>
      <trkpt lat="49.26765" lon="2.41217">
        <ele>86.6</ele>
        <time>2024-09-01T09:24:23Z</time>
      </trkpt>
      <trkpt lat="49.26764" lon="2.4122">
        <ele>86.6</ele>
        <time>2024-09-01T09:24:24Z</time>
      </trkpt>
      <trkpt lat="49.26764" lon="2.41222">
        <ele>86.5</ele>
        <time>2024-09-01T09:24:25Z</time>
      </trkpt>
      <trkpt lat="49.26763" lon="2.41225">
        <ele>86.5</ele>
        <time>2024-09-01T09:24:26Z</time>
      </trkpt>
      <trkpt lat="49.26763" lon="2.41227">
        <ele>86.4</ele>
        <time>2024-09-01T09:24:27Z</time>
      </trkpt>
      <trkpt lat="49.26763" lon="2.4123">
        <ele>86.3</ele>
        <time>2024-09-01T09:24:28Z</time>
      </trkpt>
      <trkpt lat="49.26762" lon="2.41232">
        <ele>86.2</ele>
        <time>2024-09-01T09:24:29Z</time>
      </trkpt>
      <trkpt lat="49.26762" lon="2.41234">
        <ele>86.1</ele>
        <time>2024-09-01T09:24:30Z</time>
      </trkpt>
      <trkpt lat="49.26761" lon="2.41237">
        <ele>86</ele>
        <time>2024-09-01T09:24:31Z</time>
      </trkpt>
      <trkpt lat="49.26761" lon="2.41239">
        <ele>85.9</ele>
        <time>2024-09-01T09:24:32Z</time>
      </trkpt>
      <trkpt lat="49.2676" lon="2.41242">
        <ele>85.8</ele>
        <time>2024-09-01T09:24:33Z</time>
      </trkpt>
      <trkpt lat="49.2676" lon="2.41244">
        <ele>85.7</ele>
        <time>2024-09-01T09:24:34Z</time>
      </trkpt>
      <trkpt lat="49.2676" lon="2.41247">
        <ele>85.6</ele>
        <time>2024-09-01T09:24:35Z</time>
      </trkpt>
      <trkpt lat="49.26759" lon="2.41249">
        <ele>85.4</ele>
        <time>2024-09-01T09:24:36Z</time>
      </trkpt>
      <trkpt lat="49.26759" lon="2.41252">
        <ele>85.3</ele>
        <time>2024-09-01T09:24:37Z</time>
      </trkpt>
      <trkpt lat="49.26759" lon="2.41254">
        <ele>85.3</ele>
        <time>2024-09-01T09:24:38Z</time>
      </trkpt>
      <trkpt lat="49.26758" lon="2.41257">
        <ele>85.3</ele>
        <time>2024-09-01T09:24:39Z</time>
      </trkpt>
      <trkpt lat="49.26758" lon="2.41259">
        <ele>85.3</ele>
        <time>2024-09-01T09:24:40Z</time>
      </trkpt>
      <trkpt lat="49.26758" lon="2.41262">
        <ele>85.3</ele>
        <time>2024-09-01T09:24:41Z</time>
      </trkpt>
      <trkpt lat="49.26757" lon="2.41264">
        <ele>85.2</ele>
        <time>2024-09-01T09:24:42Z</time>
      </trkpt>
      <trkpt lat="49.26757" lon="2.41267">
        <ele>85.2</ele>
        <time>2024-09-01T09:24:43Z</time>
      </trkpt>
      <trkpt lat="49.26756" lon="2.41269">
        <ele>85.2</ele>
        <time>2024-09-01T09:24:44Z</time>
      </trkpt>
      <trkpt lat="49.26756" lon="2.41272">
        <ele>85.1</ele>
        <time>2024-09-01T09:24:45Z</time>
      </trkpt>
      <trkpt lat="49.26755" lon="2.41274">
        <ele>85.1</ele>
        <time>2024-09-01T09:24:46Z</time>
      </trkpt>
      <trkpt lat="49.26755" lon="2.41276">
        <ele>85</ele>
        <time>2024-09-01T09:24:47Z</time>
      </trkpt>
      <trkpt lat="49.26755" lon="2.41279">
        <ele>85</ele>
        <time>2024-09-01T09:24:48Z</time>
      </trkpt>
      <trkpt lat="49.26754" lon="2.41281">
        <ele>84.9</ele>
        <time>2024-09-01T09:24:49Z</time>
      </trkpt>
      <trkpt lat="49.26754" lon="2.41284">
        <ele>84.8</ele>
        <time>2024-09-01T09:24:50Z</time>
      </trkpt>
      <trkpt lat="49.26754" lon="2.41287">
        <ele>84.7</ele>
        <time>2024-09-01T09:24:51Z</time>
      </trkpt>
      <trkpt lat="49.26753" lon="2.41289">
        <ele>84.6</ele>
        <time>2024-09-01T09:24:52Z</time>
      </trkpt>
      <trkpt lat="49.26753" lon="2.41292">
        <ele>84.5</ele>
        <time>2024-09-01T09:24:53Z</time>
      </trkpt>
      <trkpt lat="49.26753" lon="2.41294">
        <ele>84.5</ele>
        <time>2024-09-01T09:24:54Z</time>
      </trkpt>
      <trkpt lat="49.26752" lon="2.41297">
        <ele>84.4</ele>
        <time>2024-09-01T09:24:55Z</time>
      </trkpt>
      <trkpt lat="49.26752" lon="2.41299">
        <ele>84.3</ele>
        <time>2024-09-01T09:24:56Z</time>
      </trkpt>
      <trkpt lat="49.26752" lon="2.41302">
        <ele>84.2</ele>
        <time>2024-09-01T09:24:57Z</time>
      </trkpt>
      <trkpt lat="49.26751" lon="2.41305">
        <ele>84.1</ele>
        <time>2024-09-01T09:24:58Z</time>
      </trkpt>
      <trkpt lat="49.26751" lon="2.41307">
        <ele>84</ele>
        <time>2024-09-01T09:24:59Z</time>
      </trkpt>
      <trkpt lat="49.26751" lon="2.4131">
        <ele>84</ele>
        <time>2024-09-01T09:25:00Z</time>
      </trkpt>
      <trkpt lat="49.26751" lon="2.41313">
        <ele>84</ele>
        <time>2024-09-01T09:25:01Z</time>
      </trkpt>
      <trkpt lat="49.2675" lon="2.41315">
        <ele>84</ele>
        <time>2024-09-01T09:25:02Z</time>
      </trkpt>
      <trkpt lat="49.2675" lon="2.41317">
        <ele>84</ele>
        <time>2024-09-01T09:25:03Z</time>
      </trkpt>
      <trkpt lat="49.2675" lon="2.4132">
        <ele>84</ele>
        <time>2024-09-01T09:25:04Z</time>
      </trkpt>
      <trkpt lat="49.2675" lon="2.41322">
        <ele>84</ele>
        <time>2024-09-01T09:25:05Z</time>
      </trkpt>
      <trkpt lat="49.2675" lon="2.41325">
        <ele>84</ele>
        <time>2024-09-01T09:25:06Z</time>
      </trkpt>
      <trkpt lat="49.2675" lon="2.41328">
        <ele>84</ele>
        <time>2024-09-01T09:25:07Z</time>
      </trkpt>
      <trkpt lat="49.2675" lon="2.4133">
        <ele>84</ele>
        <time>2024-09-01T09:25:08Z</time>
      </trkpt>
      <trkpt lat="49.26749" lon="2.41333">
        <ele>83.9</ele>
        <time>2024-09-01T09:25:09Z</time>
      </trkpt>
      <trkpt lat="49.26749" lon="2.41335">
        <ele>83.9</ele>
        <time>2024-09-01T09:25:10Z</time>
      </trkpt>
      <trkpt lat="49.26749" lon="2.41338">
        <ele>83.9</ele>
        <time>2024-09-01T09:25:11Z</time>
      </trkpt>
      <trkpt lat="49.26748" lon="2.4134">
        <ele>83.8</ele>
        <time>2024-09-01T09:25:12Z</time>
      </trkpt>
      <trkpt lat="49.26748" lon="2.41342">
        <ele>83.8</ele>
        <time>2024-09-01T09:25:13Z</time>
      </trkpt>
      <trkpt lat="49.26747" lon="2.41345">
        <ele>83.7</ele>
        <time>2024-09-01T09:25:14Z</time>
      </trkpt>
      <trkpt lat="49.26747" lon="2.41347">
        <ele>83.7</ele>
        <time>2024-09-01T09:25:15Z</time>
      </trkpt>
      <trkpt lat="49.26746" lon="2.4135">
        <ele>83.7</ele>
        <time>2024-09-01T09:25:16Z</time>
      </trkpt>
      <trkpt lat="49.26746" lon="2.41353">
        <ele>83.7</ele>
        <time>2024-09-01T09:25:17Z</time>
      </trkpt>
      <trkpt lat="49.26745" lon="2.41355">
        <ele>83.6</ele>
        <time>2024-09-01T09:25:18Z</time>
      </trkpt>
      <trkpt lat="49.26745" lon="2.41358">
        <ele>83.6</ele>
        <time>2024-09-01T09:25:19Z</time>
      </trkpt>
      <trkpt lat="49.26744" lon="2.4136">
        <ele>83.6</ele>
        <time>2024-09-01T09:25:20Z</time>
      </trkpt>
      <trkpt lat="49.26744" lon="2.41363">
        <ele>83.6</ele>
        <time>2024-09-01T09:25:21Z</time>
      </trkpt>
      <trkpt lat="49.26743" lon="2.41366">
        <ele>83.6</ele>
        <time>2024-09-01T09:25:22Z</time>
      </trkpt>
      <trkpt lat="49.26743" lon="2.41368">
        <ele>83.6</ele>
        <time>2024-09-01T09:25:23Z</time>
      </trkpt>
      <trkpt lat="49.26742" lon="2.41371">
        <ele>83.6</ele>
        <time>2024-09-01T09:25:24Z</time>
      </trkpt>
      <trkpt lat="49.26741" lon="2.41373">
        <ele>83.7</ele>
        <time>2024-09-01T09:25:25Z</time>
      </trkpt>
      <trkpt lat="49.26741" lon="2.41376">
        <ele>83.7</ele>
        <time>2024-09-01T09:25:26Z</time>
      </trkpt>
      <trkpt lat="49.26741" lon="2.41378">
        <ele>83.7</ele>
        <time>2024-09-01T09:25:27Z</time>
      </trkpt>
      <trkpt lat="49.2674" lon="2.41381">
        <ele>83.8</ele>
        <time>2024-09-01T09:25:28Z</time>
      </trkpt>
      <trkpt lat="49.26739" lon="2.41383">
        <ele>83.8</ele>
        <time>2024-09-01T09:25:29Z</time>
      </trkpt>
      <trkpt lat="49.26739" lon="2.41385">
        <ele>83.9</ele>
        <time>2024-09-01T09:25:30Z</time>
      </trkpt>
      <trkpt lat="49.26738" lon="2.41387">
        <ele>83.9</ele>
        <time>2024-09-01T09:25:31Z</time>
      </trkpt>
      <trkpt lat="49.26738" lon="2.41388">
        <ele>84</ele>
        <time>2024-09-01T09:25:32Z</time>
      </trkpt>
      <trkpt lat="49.26738" lon="2.4139">
        <ele>84</ele>
        <time>2024-09-01T09:25:33Z</time>
      </trkpt>
      <trkpt lat="49.26737" lon="2.41391">
        <ele>84.1</ele>
        <time>2024-09-01T09:25:34Z</time>
      </trkpt>
      <trkpt lat="49.26737" lon="2.41393">
        <ele>84.1</ele>
        <time>2024-09-01T09:25:35Z</time>
      </trkpt>
      <trkpt lat="49.26736" lon="2.41395">
        <ele>84.2</ele>
        <time>2024-09-01T09:25:36Z</time>
      </trkpt>
      <trkpt lat="49.26735" lon="2.41397">
        <ele>84.3</ele>
        <time>2024-09-01T09:25:37Z</time>
      </trkpt>
      <trkpt lat="49.26734" lon="2.41398">
        <ele>84.3</ele>
        <time>2024-09-01T09:25:38Z</time>
      </trkpt>
      <trkpt lat="49.26733" lon="2.414">
        <ele>84.4</ele>
        <time>2024-09-01T09:25:39Z</time>
      </trkpt>
      <trkpt lat="49.26732" lon="2.41402">
        <ele>84.5</ele>
        <time>2024-09-01T09:25:40Z</time>
      </trkpt>
      <trkpt lat="49.26731" lon="2.41404">
        <ele>84.5</ele>
        <time>2024-09-01T09:25:41Z</time>
      </trkpt>
      <trkpt lat="49.2673" lon="2.41406">
        <ele>84.6</ele>
        <time>2024-09-01T09:25:42Z</time>
      </trkpt>
      <trkpt lat="49.26729" lon="2.41408">
        <ele>84.7</ele>
        <time>2024-09-01T09:25:43Z</time>
      </trkpt>
      <trkpt lat="49.26729" lon="2.4141">
        <ele>84.8</ele>
        <time>2024-09-01T09:25:44Z</time>
      </trkpt>
      <trkpt lat="49.26728" lon="2.41412">
        <ele>84.8</ele>
        <time>2024-09-01T09:25:45Z</time>
      </trkpt>
      <trkpt lat="49.26727" lon="2.41414">
        <ele>84.9</ele>
        <time>2024-09-01T09:25:46Z</time>
      </trkpt>
      <trkpt lat="49.26726" lon="2.41417">
        <ele>85</ele>
        <time>2024-09-01T09:25:47Z</time>
      </trkpt>
      <trkpt lat="49.26725" lon="2.41419">
        <ele>85.1</ele>
        <time>2024-09-01T09:25:48Z</time>
      </trkpt>
      <trkpt lat="49.26724" lon="2.41421">
        <ele>85.2</ele>
        <time>2024-09-01T09:25:49Z</time>
      </trkpt>
      <trkpt lat="49.26724" lon="2.41424">
        <ele>85.2</ele>
        <time>2024-09-01T09:25:50Z</time>
      </trkpt>
      <trkpt lat="49.26723" lon="2.41426">
        <ele>85.3</ele>
        <time>2024-09-01T09:25:51Z</time>
      </trkpt>
      <trkpt lat="49.26723" lon="2.41428">
        <ele>85.4</ele>
        <time>2024-09-01T09:25:52Z</time>
      </trkpt>
      <trkpt lat="49.26723" lon="2.4143">
        <ele>85.5</ele>
        <time>2024-09-01T09:25:53Z</time>
      </trkpt>
      <trkpt lat="49.26724" lon="2.41432">
        <ele>85.5</ele>
        <time>2024-09-01T09:25:54Z</time>
      </trkpt>
      <trkpt lat="49.26725" lon="2.41434">
        <ele>85.6</ele>
        <time>2024-09-01T09:25:55Z</time>
      </trkpt>
      <trkpt lat="49.26725" lon="2.41437">
        <ele>85.6</ele>
        <time>2024-09-01T09:25:56Z</time>
      </trkpt>
      <trkpt lat="49.26726" lon="2.41439">
        <ele>85.7</ele>
        <time>2024-09-01T09:25:57Z</time>
      </trkpt>
      <trkpt lat="49.26727" lon="2.4144">
        <ele>85.7</ele>
        <time>2024-09-01T09:25:58Z</time>
      </trkpt>
      <trkpt lat="49.26729" lon="2.41442">
        <ele>85.7</ele>
        <time>2024-09-01T09:25:59Z</time>
      </trkpt>
      <trkpt lat="49.2673" lon="2.41442">
        <ele>85.7</ele>
        <time>2024-09-01T09:26:00Z</time>
      </trkpt>
      <trkpt lat="49.26731" lon="2.41442">
        <ele>85.6</ele>
        <time>2024-09-01T09:26:01Z</time>
      </trkpt>
      <trkpt lat="49.26733" lon="2.41441">
        <ele>85.6</ele>
        <time>2024-09-01T09:26:02Z</time>
      </trkpt>
      <trkpt lat="49.26734" lon="2.41441">
        <ele>85.5</ele>
        <time>2024-09-01T09:26:03Z</time>
      </trkpt>
      <trkpt lat="49.26735" lon="2.4144">
        <ele>85.4</ele>
        <time>2024-09-01T09:26:04Z</time>
      </trkpt>
      <trkpt lat="49.26737" lon="2.41438">
        <ele>85.4</ele>
        <time>2024-09-01T09:26:05Z</time>
      </trkpt>
      <trkpt lat="49.26738" lon="2.41437">
        <ele>85.3</ele>
        <time>2024-09-01T09:26:06Z</time>
      </trkpt>
      <trkpt lat="49.2674" lon="2.41436">
        <ele>85.3</ele>
        <time>2024-09-01T09:26:07Z</time>
      </trkpt>
      <trkpt lat="49.26741" lon="2.41435">
        <ele>85.2</ele>
        <time>2024-09-01T09:26:08Z</time>
      </trkpt>
      <trkpt lat="49.26743" lon="2.41434">
        <ele>85.2</ele>
        <time>2024-09-01T09:26:09Z</time>
      </trkpt>
      <trkpt lat="49.26744" lon="2.41433">
        <ele>85.1</ele>
        <time>2024-09-01T09:26:10Z</time>
      </trkpt>
      <trkpt lat="49.26745" lon="2.41432">
        <ele>85.1</ele>
        <time>2024-09-01T09:26:11Z</time>
      </trkpt>
      <trkpt lat="49.26747" lon="2.4143">
        <ele>85.1</ele>
        <time>2024-09-01T09:26:12Z</time>
      </trkpt>
      <trkpt lat="49.26749" lon="2.41429">
        <ele>85</ele>
        <time>2024-09-01T09:26:13Z</time>
      </trkpt>
      <trkpt lat="49.2675" lon="2.41428">
        <ele>85</ele>
        <time>2024-09-01T09:26:14Z</time>
      </trkpt>
      <trkpt lat="49.26751" lon="2.41426">
        <ele>85</ele>
        <time>2024-09-01T09:26:15Z</time>
      </trkpt>
      <trkpt lat="49.26753" lon="2.41425">
        <ele>85.1</ele>
        <time>2024-09-01T09:26:16Z</time>
      </trkpt>
      <trkpt lat="49.26754" lon="2.41424">
        <ele>85.2</ele>
        <time>2024-09-01T09:26:17Z</time>
      </trkpt>
      <trkpt lat="49.26756" lon="2.41422">
        <ele>85.2</ele>
        <time>2024-09-01T09:26:18Z</time>
      </trkpt>
      <trkpt lat="49.26757" lon="2.41421">
        <ele>85.3</ele>
        <time>2024-09-01T09:26:19Z</time>
      </trkpt>
      <trkpt lat="49.26759" lon="2.4142">
        <ele>85.3</ele>
        <time>2024-09-01T09:26:20Z</time>
      </trkpt>
      <trkpt lat="49.26761" lon="2.41419">
        <ele>85.4</ele>
        <time>2024-09-01T09:26:21Z</time>
      </trkpt>
      <trkpt lat="49.26762" lon="2.41418">
        <ele>85.4</ele>
        <time>2024-09-01T09:26:22Z</time>
      </trkpt>
      <trkpt lat="49.26764" lon="2.41417">
        <ele>85.5</ele>
        <time>2024-09-01T09:26:23Z</time>
      </trkpt>
      <trkpt lat="49.26766" lon="2.41416">
        <ele>85.5</ele>
        <time>2024-09-01T09:26:24Z</time>
      </trkpt>
      <trkpt lat="49.26767" lon="2.41414">
        <ele>85.5</ele>
        <time>2024-09-01T09:26:25Z</time>
      </trkpt>
      <trkpt lat="49.26769" lon="2.41413">
        <ele>85.5</ele>
        <time>2024-09-01T09:26:26Z</time>
      </trkpt>
      <trkpt lat="49.2677" lon="2.41412">
        <ele>85.6</ele>
        <time>2024-09-01T09:26:27Z</time>
      </trkpt>
      <trkpt lat="49.26771" lon="2.41411">
        <ele>85.6</ele>
        <time>2024-09-01T09:26:28Z</time>
      </trkpt>
      <trkpt lat="49.26773" lon="2.41409">
        <ele>85.6</ele>
        <time>2024-09-01T09:26:29Z</time>
      </trkpt>
      <trkpt lat="49.26774" lon="2.41408">
        <ele>85.6</ele>
        <time>2024-09-01T09:26:30Z</time>
      </trkpt>
      <trkpt lat="49.26775" lon="2.41406">
        <ele>85.5</ele>
        <time>2024-09-01T09:26:31Z</time>
      </trkpt>
      <trkpt lat="49.26777" lon="2.41405">
        <ele>85.5</ele>
        <time>2024-09-01T09:26:32Z</time>
      </trkpt>
      <trkpt lat="49.26778" lon="2.41403">
        <ele>85.5</ele>
        <time>2024-09-01T09:26:33Z</time>
      </trkpt>
      <trkpt lat="49.2678" lon="2.41402">
        <ele>85.5</ele>
        <time>2024-09-01T09:26:34Z</time>
      </trkpt>
      <trkpt lat="49.26781" lon="2.414">
        <ele>85.5</ele>
        <time>2024-09-01T09:26:35Z</time>
      </trkpt>
      <trkpt lat="49.26783" lon="2.41399">
        <ele>85.5</ele>
        <time>2024-09-01T09:26:36Z</time>
      </trkpt>
      <trkpt lat="49.26784" lon="2.41397">
        <ele>85.5</ele>
        <time>2024-09-01T09:26:37Z</time>
      </trkpt>
      <trkpt lat="49.26786" lon="2.41396">
        <ele>85.5</ele>
        <time>2024-09-01T09:26:38Z</time>
      </trkpt>
      <trkpt lat="49.26787" lon="2.41394">
        <ele>85.5</ele>
        <time>2024-09-01T09:26:39Z</time>
      </trkpt>
      <trkpt lat="49.26789" lon="2.41393">
        <ele>85.5</ele>
        <time>2024-09-01T09:26:40Z</time>
      </trkpt>
      <trkpt lat="49.2679" lon="2.41391">
        <ele>85.5</ele>
        <time>2024-09-01T09:26:41Z</time>
      </trkpt>
      <trkpt lat="49.26791" lon="2.4139">
        <ele>85.5</ele>
        <time>2024-09-01T09:26:42Z</time>
      </trkpt>
      <trkpt lat="49.26793" lon="2.41388">
        <ele>85.5</ele>
        <time>2024-09-01T09:26:43Z</time>
      </trkpt>
      <trkpt lat="49.26794" lon="2.41387">
        <ele>85.6</ele>
        <time>2024-09-01T09:26:44Z</time>
      </trkpt>
      <trkpt lat="49.26796" lon="2.41385">
        <ele>85.6</ele>
        <time>2024-09-01T09:26:45Z</time>
      </trkpt>
      <trkpt lat="49.26797" lon="2.41383">
        <ele>85.7</ele>
        <time>2024-09-01T09:26:46Z</time>
      </trkpt>
      <trkpt lat="49.26799" lon="2.41382">
        <ele>85.8</ele>
        <time>2024-09-01T09:26:47Z</time>
      </trkpt>
      <trkpt lat="49.268" lon="2.4138">
        <ele>85.8</ele>
        <time>2024-09-01T09:26:48Z</time>
      </trkpt>
      <trkpt lat="49.26802" lon="2.41378">
        <ele>85.9</ele>
        <time>2024-09-01T09:26:49Z</time>
      </trkpt>
      <trkpt lat="49.26803" lon="2.41377">
        <ele>85.9</ele>
        <time>2024-09-01T09:26:50Z</time>
      </trkpt>
      <trkpt lat="49.26805" lon="2.41375">
        <ele>86</ele>
        <time>2024-09-01T09:26:51Z</time>
      </trkpt>
      <trkpt lat="49.26806" lon="2.41374">
        <ele>86</ele>
        <time>2024-09-01T09:26:52Z</time>
      </trkpt>
      <trkpt lat="49.26808" lon="2.41372">
        <ele>86</ele>
        <time>2024-09-01T09:26:53Z</time>
      </trkpt>
      <trkpt lat="49.26809" lon="2.41371">
        <ele>86.1</ele>
        <time>2024-09-01T09:26:54Z</time>
      </trkpt>
      <trkpt lat="49.26811" lon="2.41369">
        <ele>86.1</ele>
        <time>2024-09-01T09:26:55Z</time>
      </trkpt>
      <trkpt lat="49.26812" lon="2.41367">
        <ele>86.2</ele>
        <time>2024-09-01T09:26:56Z</time>
      </trkpt>
      <trkpt lat="49.26813" lon="2.41366">
        <ele>86.2</ele>
        <time>2024-09-01T09:26:57Z</time>
      </trkpt>
      <trkpt lat="49.26815" lon="2.41364">
        <ele>86.3</ele>
        <time>2024-09-01T09:26:58Z</time>
      </trkpt>
      <trkpt lat="49.26816" lon="2.41363">
        <ele>86.4</ele>
        <time>2024-09-01T09:26:59Z</time>
      </trkpt>
      <trkpt lat="49.26818" lon="2.41361">
        <ele>86.4</ele>
        <time>2024-09-01T09:27:00Z</time>
      </trkpt>
      <trkpt lat="49.26819" lon="2.41359">
        <ele>86.5</ele>
        <time>2024-09-01T09:27:01Z</time>
      </trkpt>
      <trkpt lat="49.2682" lon="2.41358">
        <ele>86.5</ele>
        <time>2024-09-01T09:27:02Z</time>
      </trkpt>
      <trkpt lat="49.26822" lon="2.41356">
        <ele>86.6</ele>
        <time>2024-09-01T09:27:03Z</time>
      </trkpt>
      <trkpt lat="49.26823" lon="2.41355">
        <ele>86.6</ele>
        <time>2024-09-01T09:27:04Z</time>
      </trkpt>
      <trkpt lat="49.26825" lon="2.41353">
        <ele>86.7</ele>
        <time>2024-09-01T09:27:05Z</time>
      </trkpt>
      <trkpt lat="49.26826" lon="2.41352">
        <ele>86.7</ele>
        <time>2024-09-01T09:27:06Z</time>
      </trkpt>
      <trkpt lat="49.26828" lon="2.4135">
        <ele>86.8</ele>
        <time>2024-09-01T09:27:07Z</time>
      </trkpt>
      <trkpt lat="49.26829" lon="2.41348">
        <ele>86.8</ele>
        <time>2024-09-01T09:27:08Z</time>
      </trkpt>
      <trkpt lat="49.26831" lon="2.41347">
        <ele>86.9</ele>
        <time>2024-09-01T09:27:09Z</time>
      </trkpt>
      <trkpt lat="49.26832" lon="2.41345">
        <ele>87</ele>
        <time>2024-09-01T09:27:10Z</time>
      </trkpt>
      <trkpt lat="49.26833" lon="2.41344">
        <ele>87</ele>
        <time>2024-09-01T09:27:11Z</time>
      </trkpt>
      <trkpt lat="49.26835" lon="2.41343">
        <ele>87.1</ele>
        <time>2024-09-01T09:27:12Z</time>
      </trkpt>
      <trkpt lat="49.26837" lon="2.41342">
        <ele>87.1</ele>
        <time>2024-09-01T09:27:13Z</time>
      </trkpt>
      <trkpt lat="49.26838" lon="2.41341">
        <ele>87.2</ele>
        <time>2024-09-01T09:27:14Z</time>
      </trkpt>
      <trkpt lat="49.26839" lon="2.41339">
        <ele>87.2</ele>
        <time>2024-09-01T09:27:15Z</time>
      </trkpt>
      <trkpt lat="49.26841" lon="2.41338">
        <ele>87.3</ele>
        <time>2024-09-01T09:27:16Z</time>
      </trkpt>
      <trkpt lat="49.26842" lon="2.41337">
        <ele>87.3</ele>
        <time>2024-09-01T09:27:17Z</time>
      </trkpt>
      <trkpt lat="49.26844" lon="2.41335">
        <ele>87.4</ele>
        <time>2024-09-01T09:27:18Z</time>
      </trkpt>
      <trkpt lat="49.26845" lon="2.41334">
        <ele>87.4</ele>
        <time>2024-09-01T09:27:19Z</time>
      </trkpt>
      <trkpt lat="49.26847" lon="2.41332">
        <ele>87.5</ele>
        <time>2024-09-01T09:27:20Z</time>
      </trkpt>
      <trkpt lat="49.26848" lon="2.41331">
        <ele>87.5</ele>
        <time>2024-09-01T09:27:21Z</time>
      </trkpt>
      <trkpt lat="49.2685" lon="2.4133">
        <ele>87.6</ele>
        <time>2024-09-01T09:27:22Z</time>
      </trkpt>
      <trkpt lat="49.26851" lon="2.41328">
        <ele>87.7</ele>
        <time>2024-09-01T09:27:23Z</time>
      </trkpt>
      <trkpt lat="49.26853" lon="2.41327">
        <ele>87.7</ele>
        <time>2024-09-01T09:27:24Z</time>
      </trkpt>
      <trkpt lat="49.26855" lon="2.41326">
        <ele>87.8</ele>
        <time>2024-09-01T09:27:25Z</time>
      </trkpt>
      <trkpt lat="49.26856" lon="2.41324">
        <ele>87.8</ele>
        <time>2024-09-01T09:27:26Z</time>
      </trkpt>
      <trkpt lat="49.26858" lon="2.41323">
        <ele>87.9</ele>
        <time>2024-09-01T09:27:27Z</time>
      </trkpt>
      <trkpt lat="49.26859" lon="2.41321">
        <ele>87.9</ele>
        <time>2024-09-01T09:27:28Z</time>
      </trkpt>
      <trkpt lat="49.26861" lon="2.4132">
        <ele>88</ele>
        <time>2024-09-01T09:27:29Z</time>
      </trkpt>
      <trkpt lat="49.26862" lon="2.41318">
        <ele>88</ele>
        <time>2024-09-01T09:27:30Z</time>
      </trkpt>
      <trkpt lat="49.26864" lon="2.41316">
        <ele>88.1</ele>
        <time>2024-09-01T09:27:31Z</time>
      </trkpt>
      <trkpt lat="49.26865" lon="2.41315">
        <ele>88.1</ele>
        <time>2024-09-01T09:27:32Z</time>
      </trkpt>
      <trkpt lat="49.26867" lon="2.41313">
        <ele>88.2</ele>
        <time>2024-09-01T09:27:33Z</time>
      </trkpt>
      <trkpt lat="49.26868" lon="2.41312">
        <ele>88.2</ele>
        <time>2024-09-01T09:27:34Z</time>
      </trkpt>
      <trkpt lat="49.26869" lon="2.41311">
        <ele>88.3</ele>
        <time>2024-09-01T09:27:35Z</time>
      </trkpt>
      <trkpt lat="49.26871" lon="2.41309">
        <ele>88.3</ele>
        <time>2024-09-01T09:27:36Z</time>
      </trkpt>
      <trkpt lat="49.26872" lon="2.41308">
        <ele>88.4</ele>
        <time>2024-09-01T09:27:37Z</time>
      </trkpt>
      <trkpt lat="49.26874" lon="2.41306">
        <ele>88.5</ele>
        <time>2024-09-01T09:27:38Z</time>
      </trkpt>
      <trkpt lat="49.26875" lon="2.41305">
        <ele>88.5</ele>
        <time>2024-09-01T09:27:39Z</time>
      </trkpt>
      <trkpt lat="49.26877" lon="2.41304">
        <ele>88.6</ele>
        <time>2024-09-01T09:27:40Z</time>
      </trkpt>
      <trkpt lat="49.26878" lon="2.41302">
        <ele>88.6</ele>
        <time>2024-09-01T09:27:41Z</time>
      </trkpt>
      <trkpt lat="49.2688" lon="2.41301">
        <ele>88.7</ele>
        <time>2024-09-01T09:27:42Z</time>
      </trkpt>
      <trkpt lat="49.26881" lon="2.41299">
        <ele>88.7</ele>
        <time>2024-09-01T09:27:43Z</time>
      </trkpt>
      <trkpt lat="49.26883" lon="2.41298">
        <ele>88.8</ele>
        <time>2024-09-01T09:27:44Z</time>
      </trkpt>
      <trkpt lat="49.26884" lon="2.41297">
        <ele>88.8</ele>
        <time>2024-09-01T09:27:45Z</time>
      </trkpt>
      <trkpt lat="49.26886" lon="2.41295">
        <ele>88.9</ele>
        <time>2024-09-01T09:27:46Z</time>
      </trkpt>
      <trkpt lat="49.26887" lon="2.41294">
        <ele>88.9</ele>
        <time>2024-09-01T09:27:47Z</time>
      </trkpt>
      <trkpt lat="49.26888" lon="2.41292">
        <ele>89</ele>
        <time>2024-09-01T09:27:48Z</time>
      </trkpt>
      <trkpt lat="49.2689" lon="2.41291">
        <ele>89</ele>
        <time>2024-09-01T09:27:49Z</time>
      </trkpt>
      <trkpt lat="49.26891" lon="2.4129">
        <ele>89.1</ele>
        <time>2024-09-01T09:27:50Z</time>
      </trkpt>
      <trkpt lat="49.26892" lon="2.41289">
        <ele>89.1</ele>
        <time>2024-09-01T09:27:51Z</time>
      </trkpt>
      <trkpt lat="49.26893" lon="2.41288">
        <ele>89.1</ele>
        <time>2024-09-01T09:27:52Z</time>
      </trkpt>
      <trkpt lat="49.26894" lon="2.41287">
        <ele>89.2</ele>
        <time>2024-09-01T09:27:53Z</time>
      </trkpt>
      <trkpt lat="49.26894" lon="2.41287">
        <ele>89.2</ele>
        <time>2024-09-01T09:27:54Z</time>
      </trkpt>
      <trkpt lat="49.26895" lon="2.41286">
        <ele>89.2</ele>
        <time>2024-09-01T09:27:55Z</time>
      </trkpt>
      <trkpt lat="49.26896" lon="2.41285">
        <ele>89.3</ele>
        <time>2024-09-01T09:27:56Z</time>
      </trkpt>
      <trkpt lat="49.26897" lon="2.41284">
        <ele>89.3</ele>
        <time>2024-09-01T09:27:57Z</time>
      </trkpt>
      <trkpt lat="49.26898" lon="2.41283">
        <ele>89.3</ele>
        <time>2024-09-01T09:27:58Z</time>
      </trkpt>
      <trkpt lat="49.26899" lon="2.41282">
        <ele>89.4</ele>
        <time>2024-09-01T09:27:59Z</time>
      </trkpt>
      <trkpt lat="49.269" lon="2.41281">
        <ele>89.4</ele>
        <time>2024-09-01T09:28:00Z</time>
      </trkpt>
      <trkpt lat="49.26901" lon="2.4128">
        <ele>89.4</ele>
        <time>2024-09-01T09:28:01Z</time>
      </trkpt>
      <trkpt lat="49.26903" lon="2.41279">
        <ele>89.5</ele>
        <time>2024-09-01T09:28:02Z</time>
      </trkpt>
      <trkpt lat="49.26904" lon="2.41278">
        <ele>89.5</ele>
        <time>2024-09-01T09:28:03Z</time>
      </trkpt>
      <trkpt lat="49.26905" lon="2.41277">
        <ele>89.6</ele>
        <time>2024-09-01T09:28:04Z</time>
      </trkpt>
      <trkpt lat="49.26907" lon="2.41276">
        <ele>89.7</ele>
        <time>2024-09-01T09:28:05Z</time>
      </trkpt>
      <trkpt lat="49.26908" lon="2.41275">
        <ele>89.8</ele>
        <time>2024-09-01T09:28:06Z</time>
      </trkpt>
      <trkpt lat="49.26909" lon="2.41274">
        <ele>89.9</ele>
        <time>2024-09-01T09:28:07Z</time>
      </trkpt>
      <trkpt lat="49.26911" lon="2.41274">
        <ele>89.9</ele>
        <time>2024-09-01T09:28:08Z</time>
      </trkpt>
      <trkpt lat="49.26912" lon="2.41273">
        <ele>90</ele>
        <time>2024-09-01T09:28:09Z</time>
      </trkpt>
      <trkpt lat="49.26914" lon="2.41272">
        <ele>90.1</ele>
        <time>2024-09-01T09:28:10Z</time>
      </trkpt>
      <trkpt lat="49.26915" lon="2.41272">
        <ele>90.2</ele>
        <time>2024-09-01T09:28:11Z</time>
      </trkpt>
      <trkpt lat="49.26917" lon="2.41271">
        <ele>90.3</ele>
        <time>2024-09-01T09:28:12Z</time>
      </trkpt>
      <trkpt lat="49.26918" lon="2.4127">
        <ele>90.3</ele>
        <time>2024-09-01T09:28:13Z</time>
      </trkpt>
      <trkpt lat="49.2692" lon="2.41269">
        <ele>90.4</ele>
        <time>2024-09-01T09:28:14Z</time>
      </trkpt>
      <trkpt lat="49.26921" lon="2.41268">
        <ele>90.5</ele>
        <time>2024-09-01T09:28:15Z</time>
      </trkpt>
      <trkpt lat="49.26923" lon="2.41267">
        <ele>90.5</ele>
        <time>2024-09-01T09:28:16Z</time>
      </trkpt>
      <trkpt lat="49.26924" lon="2.41265">
        <ele>90.6</ele>
        <time>2024-09-01T09:28:17Z</time>
      </trkpt>
      <trkpt lat="49.26925" lon="2.41264">
        <ele>90.6</ele>
        <time>2024-09-01T09:28:18Z</time>
      </trkpt>
      <trkpt lat="49.26927" lon="2.41263">
        <ele>90.7</ele>
        <time>2024-09-01T09:28:19Z</time>
      </trkpt>
      <trkpt lat="49.26928" lon="2.41262">
        <ele>90.7</ele>
        <time>2024-09-01T09:28:20Z</time>
      </trkpt>
      <trkpt lat="49.2693" lon="2.41261">
        <ele>90.8</ele>
        <time>2024-09-01T09:28:21Z</time>
      </trkpt>
      <trkpt lat="49.26931" lon="2.4126">
        <ele>90.8</ele>
        <time>2024-09-01T09:28:22Z</time>
      </trkpt>
      <trkpt lat="49.26933" lon="2.41259">
        <ele>90.9</ele>
        <time>2024-09-01T09:28:23Z</time>
      </trkpt>
      <trkpt lat="49.26934" lon="2.41257">
        <ele>90.9</ele>
        <time>2024-09-01T09:28:24Z</time>
      </trkpt>
      <trkpt lat="49.26936" lon="2.41256">
        <ele>90.9</ele>
        <time>2024-09-01T09:28:25Z</time>
      </trkpt>
      <trkpt lat="49.26937" lon="2.41255">
        <ele>91</ele>
        <time>2024-09-01T09:28:26Z</time>
      </trkpt>
      <trkpt lat="49.26939" lon="2.41254">
        <ele>91</ele>
        <time>2024-09-01T09:28:27Z</time>
      </trkpt>
      <trkpt lat="49.2694" lon="2.41252">
        <ele>91</ele>
        <time>2024-09-01T09:28:28Z</time>
      </trkpt>
      <trkpt lat="49.26942" lon="2.41251">
        <ele>91</ele>
        <time>2024-09-01T09:28:29Z</time>
      </trkpt>
      <trkpt lat="49.26944" lon="2.4125">
        <ele>91</ele>
        <time>2024-09-01T09:28:30Z</time>
      </trkpt>
      <trkpt lat="49.26945" lon="2.41249">
        <ele>91.1</ele>
        <time>2024-09-01T09:28:31Z</time>
      </trkpt>
      <trkpt lat="49.26947" lon="2.41247">
        <ele>91.2</ele>
        <time>2024-09-01T09:28:32Z</time>
      </trkpt>
      <trkpt lat="49.26948" lon="2.41246">
        <ele>91.3</ele>
        <time>2024-09-01T09:28:33Z</time>
      </trkpt>
      <trkpt lat="49.2695" lon="2.41245">
        <ele>91.3</ele>
        <time>2024-09-01T09:28:34Z</time>
      </trkpt>
      <trkpt lat="49.26951" lon="2.41244">
        <ele>91.4</ele>
        <time>2024-09-01T09:28:35Z</time>
      </trkpt>
      <trkpt lat="49.26953" lon="2.41242">
        <ele>91.5</ele>
        <time>2024-09-01T09:28:36Z</time>
      </trkpt>
      <trkpt lat="49.26954" lon="2.41241">
        <ele>91.6</ele>
        <time>2024-09-01T09:28:37Z</time>
      </trkpt>
      <trkpt lat="49.26956" lon="2.4124">
        <ele>91.6</ele>
        <time>2024-09-01T09:28:38Z</time>
      </trkpt>
      <trkpt lat="49.26957" lon="2.41239">
        <ele>91.7</ele>
        <time>2024-09-01T09:28:39Z</time>
      </trkpt>
      <trkpt lat="49.26959" lon="2.41238">
        <ele>91.7</ele>
        <time>2024-09-01T09:28:40Z</time>
      </trkpt>
      <trkpt lat="49.2696" lon="2.41236">
        <ele>91.8</ele>
        <time>2024-09-01T09:28:41Z</time>
      </trkpt>
      <trkpt lat="49.26962" lon="2.41236">
        <ele>91.8</ele>
        <time>2024-09-01T09:28:42Z</time>
      </trkpt>
      <trkpt lat="49.26963" lon="2.41235">
        <ele>91.9</ele>
        <time>2024-09-01T09:28:43Z</time>
      </trkpt>
      <trkpt lat="49.26965" lon="2.41234">
        <ele>91.9</ele>
        <time>2024-09-01T09:28:44Z</time>
      </trkpt>
      <trkpt lat="49.26966" lon="2.41233">
        <ele>91.9</ele>
        <time>2024-09-01T09:28:45Z</time>
      </trkpt>
      <trkpt lat="49.26968" lon="2.41232">
        <ele>91.9</ele>
        <time>2024-09-01T09:28:46Z</time>
      </trkpt>
      <trkpt lat="49.2697" lon="2.4123">
        <ele>92</ele>
        <time>2024-09-01T09:28:47Z</time>
      </trkpt>
      <trkpt lat="49.26971" lon="2.41229">
        <ele>92</ele>
        <time>2024-09-01T09:28:48Z</time>
      </trkpt>
      <trkpt lat="49.26973" lon="2.41228">
        <ele>92</ele>
        <time>2024-09-01T09:28:49Z</time>
      </trkpt>
      <trkpt lat="49.26974" lon="2.41227">
        <ele>92.1</ele>
        <time>2024-09-01T09:28:50Z</time>
      </trkpt>
      <trkpt lat="49.26976" lon="2.41226">
        <ele>92.1</ele>
        <time>2024-09-01T09:28:51Z</time>
      </trkpt>
      <trkpt lat="49.26977" lon="2.41224">
        <ele>92.2</ele>
        <time>2024-09-01T09:28:52Z</time>
      </trkpt>
      <trkpt lat="49.26979" lon="2.41223">
        <ele>92.2</ele>
        <time>2024-09-01T09:28:53Z</time>
      </trkpt>
      <trkpt lat="49.2698" lon="2.41222">
        <ele>92.3</ele>
        <time>2024-09-01T09:28:54Z</time>
      </trkpt>
      <trkpt lat="49.26982" lon="2.41221">
        <ele>92.4</ele>
        <time>2024-09-01T09:28:55Z</time>
      </trkpt>
      <trkpt lat="49.26983" lon="2.4122">
        <ele>92.5</ele>
        <time>2024-09-01T09:28:56Z</time>
      </trkpt>
      <trkpt lat="49.26985" lon="2.41219">
        <ele>92.5</ele>
        <time>2024-09-01T09:28:57Z</time>
      </trkpt>
      <trkpt lat="49.26987" lon="2.41218">
        <ele>92.6</ele>
        <time>2024-09-01T09:28:58Z</time>
      </trkpt>
      <trkpt lat="49.26988" lon="2.41217">
        <ele>92.7</ele>
        <time>2024-09-01T09:28:59Z</time>
      </trkpt>
      <trkpt lat="49.2699" lon="2.41216">
        <ele>92.7</ele>
        <time>2024-09-01T09:29:00Z</time>
      </trkpt>
      <trkpt lat="49.26992" lon="2.41215">
        <ele>92.8</ele>
        <time>2024-09-01T09:29:01Z</time>
      </trkpt>
      <trkpt lat="49.26993" lon="2.41214">
        <ele>92.8</ele>
        <time>2024-09-01T09:29:02Z</time>
      </trkpt>
      <trkpt lat="49.26995" lon="2.41214">
        <ele>92.9</ele>
        <time>2024-09-01T09:29:03Z</time>
      </trkpt>
      <trkpt lat="49.26997" lon="2.41213">
        <ele>92.9</ele>
        <time>2024-09-01T09:29:04Z</time>
      </trkpt>
      <trkpt lat="49.26999" lon="2.41212">
        <ele>93</ele>
        <time>2024-09-01T09:29:05Z</time>
      </trkpt>
      <trkpt lat="49.27" lon="2.41211">
        <ele>93</ele>
        <time>2024-09-01T09:29:06Z</time>
      </trkpt>
      <trkpt lat="49.27002" lon="2.41211">
        <ele>93.1</ele>
        <time>2024-09-01T09:29:07Z</time>
      </trkpt>
      <trkpt lat="49.27003" lon="2.4121">
        <ele>93.1</ele>
        <time>2024-09-01T09:29:08Z</time>
      </trkpt>
      <trkpt lat="49.27005" lon="2.41209">
        <ele>93.2</ele>
        <time>2024-09-01T09:29:09Z</time>
      </trkpt>
      <trkpt lat="49.27007" lon="2.41208">
        <ele>93.2</ele>
        <time>2024-09-01T09:29:10Z</time>
      </trkpt>
      <trkpt lat="49.27008" lon="2.41207">
        <ele>93.3</ele>
        <time>2024-09-01T09:29:11Z</time>
      </trkpt>
      <trkpt lat="49.2701" lon="2.41206">
        <ele>93.3</ele>
        <time>2024-09-01T09:29:12Z</time>
      </trkpt>
      <trkpt lat="49.27011" lon="2.41205">
        <ele>93.4</ele>
        <time>2024-09-01T09:29:13Z</time>
      </trkpt>
      <trkpt lat="49.27013" lon="2.41203">
        <ele>93.5</ele>
        <time>2024-09-01T09:29:14Z</time>
      </trkpt>
      <trkpt lat="49.27015" lon="2.41202">
        <ele>93.5</ele>
        <time>2024-09-01T09:29:15Z</time>
      </trkpt>
      <trkpt lat="49.27016" lon="2.41201">
        <ele>93.6</ele>
        <time>2024-09-01T09:29:16Z</time>
      </trkpt>
      <trkpt lat="49.27018" lon="2.412">
        <ele>93.6</ele>
        <time>2024-09-01T09:29:17Z</time>
      </trkpt>
      <trkpt lat="49.2702" lon="2.41198">
        <ele>93.7</ele>
        <time>2024-09-01T09:29:18Z</time>
      </trkpt>
      <trkpt lat="49.27021" lon="2.41197">
        <ele>93.8</ele>
        <time>2024-09-01T09:29:19Z</time>
      </trkpt>
      <trkpt lat="49.27023" lon="2.41196">
        <ele>93.8</ele>
        <time>2024-09-01T09:29:20Z</time>
      </trkpt>
      <trkpt lat="49.27024" lon="2.41195">
        <ele>93.9</ele>
        <time>2024-09-01T09:29:21Z</time>
      </trkpt>
      <trkpt lat="49.27026" lon="2.41193">
        <ele>93.9</ele>
        <time>2024-09-01T09:29:22Z</time>
      </trkpt>
      <trkpt lat="49.27027" lon="2.41192">
        <ele>94</ele>
        <time>2024-09-01T09:29:23Z</time>
      </trkpt>
      <trkpt lat="49.27029" lon="2.41191">
        <ele>94</ele>
        <time>2024-09-01T09:29:24Z</time>
      </trkpt>
      <trkpt lat="49.27031" lon="2.4119">
        <ele>94.1</ele>
        <time>2024-09-01T09:29:25Z</time>
      </trkpt>
      <trkpt lat="49.27032" lon="2.41189">
        <ele>94.2</ele>
        <time>2024-09-01T09:29:26Z</time>
      </trkpt>
      <trkpt lat="49.27034" lon="2.41188">
        <ele>94.2</ele>
        <time>2024-09-01T09:29:27Z</time>
      </trkpt>
      <trkpt lat="49.27035" lon="2.41186">
        <ele>94.3</ele>
        <time>2024-09-01T09:29:28Z</time>
      </trkpt>
      <trkpt lat="49.27037" lon="2.41185">
        <ele>94.3</ele>
        <time>2024-09-01T09:29:29Z</time>
      </trkpt>
      <trkpt lat="49.27038" lon="2.41184">
        <ele>94.4</ele>
        <time>2024-09-01T09:29:30Z</time>
      </trkpt>
      <trkpt lat="49.2704" lon="2.41183">
        <ele>94.4</ele>
        <time>2024-09-01T09:29:31Z</time>
      </trkpt>
      <trkpt lat="49.27041" lon="2.41182">
        <ele>94.5</ele>
        <time>2024-09-01T09:29:32Z</time>
      </trkpt>
      <trkpt lat="49.27042" lon="2.41181">
        <ele>94.5</ele>
        <time>2024-09-01T09:29:33Z</time>
      </trkpt>
      <trkpt lat="49.27043" lon="2.4118">
        <ele>94.6</ele>
        <time>2024-09-01T09:29:34Z</time>
      </trkpt>
      <trkpt lat="49.27044" lon="2.41179">
        <ele>94.6</ele>
        <time>2024-09-01T09:29:35Z</time>
      </trkpt>
      <trkpt lat="49.27045" lon="2.41178">
        <ele>94.6</ele>
        <time>2024-09-01T09:29:36Z</time>
      </trkpt>
      <trkpt lat="49.27047" lon="2.41177">
        <ele>94.7</ele>
        <time>2024-09-01T09:29:37Z</time>
      </trkpt>
      <trkpt lat="49.27048" lon="2.41176">
        <ele>94.7</ele>
        <time>2024-09-01T09:29:38Z</time>
      </trkpt>
      <trkpt lat="49.27049" lon="2.41175">
        <ele>94.8</ele>
        <time>2024-09-01T09:29:39Z</time>
      </trkpt>
      <trkpt lat="49.27051" lon="2.41173">
        <ele>94.8</ele>
        <time>2024-09-01T09:29:40Z</time>
      </trkpt>
      <trkpt lat="49.27052" lon="2.41172">
        <ele>94.9</ele>
        <time>2024-09-01T09:29:41Z</time>
      </trkpt>
      <trkpt lat="49.27053" lon="2.41171">
        <ele>94.9</ele>
        <time>2024-09-01T09:29:42Z</time>
      </trkpt>
      <trkpt lat="49.27055" lon="2.4117">
        <ele>95</ele>
        <time>2024-09-01T09:29:43Z</time>
      </trkpt>
      <trkpt lat="49.27056" lon="2.41169">
        <ele>95</ele>
        <time>2024-09-01T09:29:44Z</time>
      </trkpt>
      <trkpt lat="49.27058" lon="2.41168">
        <ele>95</ele>
        <time>2024-09-01T09:29:45Z</time>
      </trkpt>
      <trkpt lat="49.27059" lon="2.41167">
        <ele>95</ele>
        <time>2024-09-01T09:29:46Z</time>
      </trkpt>
      <trkpt lat="49.27061" lon="2.41166">
        <ele>95</ele>
        <time>2024-09-01T09:29:47Z</time>
      </trkpt>
      <trkpt lat="49.27063" lon="2.41165">
        <ele>95</ele>
        <time>2024-09-01T09:29:48Z</time>
      </trkpt>
      <trkpt lat="49.27064" lon="2.41164">
        <ele>94.9</ele>
        <time>2024-09-01T09:29:49Z</time>
      </trkpt>
      <trkpt lat="49.27066" lon="2.41164">
        <ele>94.9</ele>
        <time>2024-09-01T09:29:50Z</time>
      </trkpt>
      <trkpt lat="49.27067" lon="2.41163">
        <ele>94.9</ele>
        <time>2024-09-01T09:29:51Z</time>
      </trkpt>
      <trkpt lat="49.27069" lon="2.41162">
        <ele>94.9</ele>
        <time>2024-09-01T09:29:52Z</time>
      </trkpt>
      <trkpt lat="49.2707" lon="2.41161">
        <ele>94.9</ele>
        <time>2024-09-01T09:29:53Z</time>
      </trkpt>
      <trkpt lat="49.27072" lon="2.4116">
        <ele>94.9</ele>
        <time>2024-09-01T09:29:54Z</time>
      </trkpt>
      <trkpt lat="49.27074" lon="2.41159">
        <ele>94.9</ele>
        <time>2024-09-01T09:29:55Z</time>
      </trkpt>
      <trkpt lat="49.27075" lon="2.41158">
        <ele>94.9</ele>
        <time>2024-09-01T09:29:56Z</time>
      </trkpt>
      <trkpt lat="49.27077" lon="2.41157">
        <ele>94.9</ele>
        <time>2024-09-01T09:29:57Z</time>
      </trkpt>
      <trkpt lat="49.27078" lon="2.41157">
        <ele>94.9</ele>
        <time>2024-09-01T09:29:58Z</time>
      </trkpt>
      <trkpt lat="49.2708" lon="2.41156">
        <ele>94.9</ele>
        <time>2024-09-01T09:29:59Z</time>
      </trkpt>
      <trkpt lat="49.27081" lon="2.41155">
        <ele>95</ele>
        <time>2024-09-01T09:30:00Z</time>
      </trkpt>
      <trkpt lat="49.27083" lon="2.41154">
        <ele>95</ele>
        <time>2024-09-01T09:30:01Z</time>
      </trkpt>
      <trkpt lat="49.27085" lon="2.41153">
        <ele>95</ele>
        <time>2024-09-01T09:30:02Z</time>
      </trkpt>
      <trkpt lat="49.27086" lon="2.41151">
        <ele>95</ele>
        <time>2024-09-01T09:30:03Z</time>
      </trkpt>
      <trkpt lat="49.27088" lon="2.4115">
        <ele>95.1</ele>
        <time>2024-09-01T09:30:04Z</time>
      </trkpt>
      <trkpt lat="49.27089" lon="2.41149">
        <ele>95.1</ele>
        <time>2024-09-01T09:30:05Z</time>
      </trkpt>
      <trkpt lat="49.2709" lon="2.41148">
        <ele>95.1</ele>
        <time>2024-09-01T09:30:06Z</time>
      </trkpt>
      <trkpt lat="49.27092" lon="2.41146">
        <ele>95.1</ele>
        <time>2024-09-01T09:30:07Z</time>
      </trkpt>
      <trkpt lat="49.27093" lon="2.41145">
        <ele>95.1</ele>
        <time>2024-09-01T09:30:08Z</time>
      </trkpt>
      <trkpt lat="49.27095" lon="2.41144">
        <ele>95.1</ele>
        <time>2024-09-01T09:30:09Z</time>
      </trkpt>
      <trkpt lat="49.27096" lon="2.41143">
        <ele>95.1</ele>
        <time>2024-09-01T09:30:10Z</time>
      </trkpt>
      <trkpt lat="49.27098" lon="2.41142">
        <ele>95.1</ele>
        <time>2024-09-01T09:30:11Z</time>
      </trkpt>
      <trkpt lat="49.271" lon="2.41141">
        <ele>95</ele>
        <time>2024-09-01T09:30:12Z</time>
      </trkpt>
      <trkpt lat="49.27101" lon="2.4114">
        <ele>95</ele>
        <time>2024-09-01T09:30:13Z</time>
      </trkpt>
      <trkpt lat="49.27103" lon="2.41139">
        <ele>95</ele>
        <time>2024-09-01T09:30:14Z</time>
      </trkpt>
      <trkpt lat="49.27105" lon="2.41137">
        <ele>95</ele>
        <time>2024-09-01T09:30:15Z</time>
      </trkpt>
      <trkpt lat="49.27106" lon="2.41136">
        <ele>95</ele>
        <time>2024-09-01T09:30:16Z</time>
      </trkpt>
      <trkpt lat="49.27108" lon="2.41135">
        <ele>95</ele>
        <time>2024-09-01T09:30:17Z</time>
      </trkpt>
      <trkpt lat="49.27109" lon="2.41134">
        <ele>95</ele>
        <time>2024-09-01T09:30:18Z</time>
      </trkpt>
      <trkpt lat="49.27111" lon="2.41133">
        <ele>95</ele>
        <time>2024-09-01T09:30:19Z</time>
      </trkpt>
      <trkpt lat="49.27112" lon="2.41131">
        <ele>95</ele>
        <time>2024-09-01T09:30:20Z</time>
      </trkpt>
      <trkpt lat="49.27114" lon="2.4113">
        <ele>95.1</ele>
        <time>2024-09-01T09:30:21Z</time>
      </trkpt>
      <trkpt lat="49.27115" lon="2.41129">
        <ele>95.1</ele>
        <time>2024-09-01T09:30:22Z</time>
      </trkpt>
      <trkpt lat="49.27117" lon="2.41128">
        <ele>95.2</ele>
        <time>2024-09-01T09:30:23Z</time>
      </trkpt>
      <trkpt lat="49.27118" lon="2.41126">
        <ele>95.2</ele>
        <time>2024-09-01T09:30:24Z</time>
      </trkpt>
      <trkpt lat="49.27119" lon="2.41125">
        <ele>95.3</ele>
        <time>2024-09-01T09:30:25Z</time>
      </trkpt>
      <trkpt lat="49.27121" lon="2.41124">
        <ele>95.4</ele>
        <time>2024-09-01T09:30:26Z</time>
      </trkpt>
      <trkpt lat="49.27122" lon="2.41123">
        <ele>95.4</ele>
        <time>2024-09-01T09:30:27Z</time>
      </trkpt>
      <trkpt lat="49.27124" lon="2.41121">
        <ele>95.5</ele>
        <time>2024-09-01T09:30:28Z</time>
      </trkpt>
      <trkpt lat="49.27125" lon="2.4112">
        <ele>95.5</ele>
        <time>2024-09-01T09:30:29Z</time>
      </trkpt>
      <trkpt lat="49.27127" lon="2.41119">
        <ele>95.6</ele>
        <time>2024-09-01T09:30:30Z</time>
      </trkpt>
      <trkpt lat="49.27129" lon="2.41118">
        <ele>95.6</ele>
        <time>2024-09-01T09:30:31Z</time>
      </trkpt>
      <trkpt lat="49.2713" lon="2.41117">
        <ele>95.7</ele>
        <time>2024-09-01T09:30:32Z</time>
      </trkpt>
      <trkpt lat="49.27132" lon="2.41115">
        <ele>95.7</ele>
        <time>2024-09-01T09:30:33Z</time>
      </trkpt>
      <trkpt lat="49.27134" lon="2.41114">
        <ele>95.8</ele>
        <time>2024-09-01T09:30:34Z</time>
      </trkpt>
      <trkpt lat="49.27135" lon="2.41113">
        <ele>95.9</ele>
        <time>2024-09-01T09:30:35Z</time>
      </trkpt>
      <trkpt lat="49.27136" lon="2.41112">
        <ele>95.9</ele>
        <time>2024-09-01T09:30:36Z</time>
      </trkpt>
      <trkpt lat="49.27138" lon="2.4111">
        <ele>95.9</ele>
        <time>2024-09-01T09:30:37Z</time>
      </trkpt>
      <trkpt lat="49.27139" lon="2.41109">
        <ele>95.9</ele>
        <time>2024-09-01T09:30:38Z</time>
      </trkpt>
      <trkpt lat="49.2714" lon="2.41108">
        <ele>95.9</ele>
        <time>2024-09-01T09:30:39Z</time>
      </trkpt>
      <trkpt lat="49.27141" lon="2.41107">
        <ele>95.8</ele>
        <time>2024-09-01T09:30:40Z</time>
      </trkpt>
      <trkpt lat="49.27142" lon="2.41106">
        <ele>95.8</ele>
        <time>2024-09-01T09:30:41Z</time>
      </trkpt>
      <trkpt lat="49.27143" lon="2.41105">
        <ele>95.8</ele>
        <time>2024-09-01T09:30:42Z</time>
      </trkpt>
      <trkpt lat="49.27144" lon="2.41104">
        <ele>95.7</ele>
        <time>2024-09-01T09:30:43Z</time>
      </trkpt>
      <trkpt lat="49.27145" lon="2.41102">
        <ele>95.7</ele>
        <time>2024-09-01T09:30:44Z</time>
      </trkpt>
      <trkpt lat="49.27147" lon="2.41101">
        <ele>95.6</ele>
        <time>2024-09-01T09:30:45Z</time>
      </trkpt>
      <trkpt lat="49.27148" lon="2.411">
        <ele>95.6</ele>
        <time>2024-09-01T09:30:46Z</time>
      </trkpt>
      <trkpt lat="49.27149" lon="2.41099">
        <ele>95.6</ele>
        <time>2024-09-01T09:30:47Z</time>
      </trkpt>
      <trkpt lat="49.27151" lon="2.41097">
        <ele>95.5</ele>
        <time>2024-09-01T09:30:48Z</time>
      </trkpt>
      <trkpt lat="49.27152" lon="2.41096">
        <ele>95.4</ele>
        <time>2024-09-01T09:30:49Z</time>
      </trkpt>
      <trkpt lat="49.27153" lon="2.41094">
        <ele>95.4</ele>
        <time>2024-09-01T09:30:50Z</time>
      </trkpt>
      <trkpt lat="49.27154" lon="2.41092">
        <ele>95.3</ele>
        <time>2024-09-01T09:30:51Z</time>
      </trkpt>
      <trkpt lat="49.27156" lon="2.4109">
        <ele>95.2</ele>
        <time>2024-09-01T09:30:52Z</time>
      </trkpt>
      <trkpt lat="49.27157" lon="2.41088">
        <ele>95.2</ele>
        <time>2024-09-01T09:30:53Z</time>
      </trkpt>
      <trkpt lat="49.27159" lon="2.41087">
        <ele>95.1</ele>
        <time>2024-09-01T09:30:54Z</time>
      </trkpt>
      <trkpt lat="49.27161" lon="2.41085">
        <ele>95.1</ele>
        <time>2024-09-01T09:30:55Z</time>
      </trkpt>
      <trkpt lat="49.27163" lon="2.41084">
        <ele>95</ele>
        <time>2024-09-01T09:30:56Z</time>
      </trkpt>
      <trkpt lat="49.27164" lon="2.41083">
        <ele>95</ele>
        <time>2024-09-01T09:30:57Z</time>
      </trkpt>
      <trkpt lat="49.27166" lon="2.41082">
        <ele>95</ele>
        <time>2024-09-01T09:30:58Z</time>
      </trkpt>
      <trkpt lat="49.27168" lon="2.41081">
        <ele>95</ele>
        <time>2024-09-01T09:30:59Z</time>
      </trkpt>
      <trkpt lat="49.2717" lon="2.4108">
        <ele>95.1</ele>
        <time>2024-09-01T09:31:00Z</time>
      </trkpt>
      <trkpt lat="49.27172" lon="2.41079">
        <ele>95.1</ele>
        <time>2024-09-01T09:31:01Z</time>
      </trkpt>
      <trkpt lat="49.27173" lon="2.41078">
        <ele>95.2</ele>
        <time>2024-09-01T09:31:02Z</time>
      </trkpt>
      <trkpt lat="49.27174" lon="2.41076">
        <ele>95.2</ele>
        <time>2024-09-01T09:31:03Z</time>
      </trkpt>
      <trkpt lat="49.27176" lon="2.41074">
        <ele>95.2</ele>
        <time>2024-09-01T09:31:04Z</time>
      </trkpt>
      <trkpt lat="49.27177" lon="2.41073">
        <ele>95.2</ele>
        <time>2024-09-01T09:31:05Z</time>
      </trkpt>
      <trkpt lat="49.27178" lon="2.41071">
        <ele>95.2</ele>
        <time>2024-09-01T09:31:06Z</time>
      </trkpt>
      <trkpt lat="49.2718" lon="2.4107">
        <ele>95.2</ele>
        <time>2024-09-01T09:31:07Z</time>
      </trkpt>
      <trkpt lat="49.27181" lon="2.41068">
        <ele>95.2</ele>
        <time>2024-09-01T09:31:08Z</time>
      </trkpt>
      <trkpt lat="49.27183" lon="2.41067">
        <ele>95.2</ele>
        <time>2024-09-01T09:31:09Z</time>
      </trkpt>
      <trkpt lat="49.27184" lon="2.41066">
        <ele>95.2</ele>
        <time>2024-09-01T09:31:10Z</time>
      </trkpt>
      <trkpt lat="49.27186" lon="2.41064">
        <ele>95.2</ele>
        <time>2024-09-01T09:31:11Z</time>
      </trkpt>
      <trkpt lat="49.27187" lon="2.41063">
        <ele>95.2</ele>
        <time>2024-09-01T09:31:12Z</time>
      </trkpt>
      <trkpt lat="49.27189" lon="2.41062">
        <ele>95.2</ele>
        <time>2024-09-01T09:31:13Z</time>
      </trkpt>
      <trkpt lat="49.27191" lon="2.41061">
        <ele>95.2</ele>
        <time>2024-09-01T09:31:14Z</time>
      </trkpt>
      <trkpt lat="49.27192" lon="2.4106">
        <ele>95.1</ele>
        <time>2024-09-01T09:31:15Z</time>
      </trkpt>
      <trkpt lat="49.27194" lon="2.41059">
        <ele>95.1</ele>
        <time>2024-09-01T09:31:16Z</time>
      </trkpt>
      <trkpt lat="49.27196" lon="2.41058">
        <ele>95.1</ele>
        <time>2024-09-01T09:31:17Z</time>
      </trkpt>
      <trkpt lat="49.27197" lon="2.41057">
        <ele>95</ele>
        <time>2024-09-01T09:31:18Z</time>
      </trkpt>
      <trkpt lat="49.27198" lon="2.41056">
        <ele>94.9</ele>
        <time>2024-09-01T09:31:19Z</time>
      </trkpt>
      <trkpt lat="49.27199" lon="2.41054">
        <ele>94.8</ele>
        <time>2024-09-01T09:31:20Z</time>
      </trkpt>
      <trkpt lat="49.27201" lon="2.41053">
        <ele>94.7</ele>
        <time>2024-09-01T09:31:21Z</time>
      </trkpt>
      <trkpt lat="49.27202" lon="2.41052">
        <ele>94.6</ele>
        <time>2024-09-01T09:31:22Z</time>
      </trkpt>
      <trkpt lat="49.27203" lon="2.41051">
        <ele>94.6</ele>
        <time>2024-09-01T09:31:23Z</time>
      </trkpt>
      <trkpt lat="49.27205" lon="2.41049">
        <ele>94.5</ele>
        <time>2024-09-01T09:31:24Z</time>
      </trkpt>
      <trkpt lat="49.27206" lon="2.41048">
        <ele>94.4</ele>
        <time>2024-09-01T09:31:25Z</time>
      </trkpt>
      <trkpt lat="49.27207" lon="2.41046">
        <ele>94.4</ele>
        <time>2024-09-01T09:31:26Z</time>
      </trkpt>
      <trkpt lat="49.27208" lon="2.41045">
        <ele>94.3</ele>
        <time>2024-09-01T09:31:27Z</time>
      </trkpt>
      <trkpt lat="49.2721" lon="2.41043">
        <ele>94.3</ele>
        <time>2024-09-01T09:31:28Z</time>
      </trkpt>
      <trkpt lat="49.27211" lon="2.41042">
        <ele>94.2</ele>
        <time>2024-09-01T09:31:29Z</time>
      </trkpt>
      <trkpt lat="49.27212" lon="2.4104">
        <ele>94.2</ele>
        <time>2024-09-01T09:31:30Z</time>
      </trkpt>
      <trkpt lat="49.27213" lon="2.41039">
        <ele>94.1</ele>
        <time>2024-09-01T09:31:31Z</time>
      </trkpt>
      <trkpt lat="49.27215" lon="2.41038">
        <ele>94.1</ele>
        <time>2024-09-01T09:31:32Z</time>
      </trkpt>
      <trkpt lat="49.27216" lon="2.41036">
        <ele>94.1</ele>
        <time>2024-09-01T09:31:33Z</time>
      </trkpt>
      <trkpt lat="49.27217" lon="2.41035">
        <ele>94</ele>
        <time>2024-09-01T09:31:34Z</time>
      </trkpt>
      <trkpt lat="49.27219" lon="2.41034">
        <ele>94</ele>
        <time>2024-09-01T09:31:35Z</time>
      </trkpt>
      <trkpt lat="49.2722" lon="2.41032">
        <ele>94</ele>
        <time>2024-09-01T09:31:36Z</time>
      </trkpt>
      <trkpt lat="49.27221" lon="2.41031">
        <ele>94</ele>
        <time>2024-09-01T09:31:37Z</time>
      </trkpt>
      <trkpt lat="49.27223" lon="2.4103">
        <ele>94</ele>
        <time>2024-09-01T09:31:38Z</time>
      </trkpt>
      <trkpt lat="49.27224" lon="2.41028">
        <ele>94.1</ele>
        <time>2024-09-01T09:31:39Z</time>
      </trkpt>
      <trkpt lat="49.27226" lon="2.41027">
        <ele>94.1</ele>
        <time>2024-09-01T09:31:40Z</time>
      </trkpt>
      <trkpt lat="49.27227" lon="2.41025">
        <ele>94.2</ele>
        <time>2024-09-01T09:31:41Z</time>
      </trkpt>
      <trkpt lat="49.27229" lon="2.41024">
        <ele>94.2</ele>
        <time>2024-09-01T09:31:42Z</time>
      </trkpt>
      <trkpt lat="49.27231" lon="2.41023">
        <ele>94.2</ele>
        <time>2024-09-01T09:31:43Z</time>
      </trkpt>
      <trkpt lat="49.27232" lon="2.41021">
        <ele>94.3</ele>
        <time>2024-09-01T09:31:44Z</time>
      </trkpt>
      <trkpt lat="49.27234" lon="2.4102">
        <ele>94.3</ele>
        <time>2024-09-01T09:31:45Z</time>
      </trkpt>
      <trkpt lat="49.27235" lon="2.41018">
        <ele>94.3</ele>
        <time>2024-09-01T09:31:46Z</time>
      </trkpt>
      <trkpt lat="49.27237" lon="2.41017">
        <ele>94.3</ele>
        <time>2024-09-01T09:31:47Z</time>
      </trkpt>
      <trkpt lat="49.27239" lon="2.41015">
        <ele>94.3</ele>
        <time>2024-09-01T09:31:48Z</time>
      </trkpt>
      <trkpt lat="49.2724" lon="2.41014">
        <ele>94.3</ele>
        <time>2024-09-01T09:31:49Z</time>
      </trkpt>
      <trkpt lat="49.27242" lon="2.41012">
        <ele>94.3</ele>
        <time>2024-09-01T09:31:50Z</time>
      </trkpt>
      <trkpt lat="49.27243" lon="2.4101">
        <ele>94.3</ele>
        <time>2024-09-01T09:31:51Z</time>
      </trkpt>
      <trkpt lat="49.27245" lon="2.41009">
        <ele>94.3</ele>
        <time>2024-09-01T09:31:52Z</time>
      </trkpt>
      <trkpt lat="49.27247" lon="2.41007">
        <ele>94.2</ele>
        <time>2024-09-01T09:31:53Z</time>
      </trkpt>
      <trkpt lat="49.27248" lon="2.41005">
        <ele>94.2</ele>
        <time>2024-09-01T09:31:54Z</time>
      </trkpt>
      <trkpt lat="49.27249" lon="2.41003">
        <ele>94.1</ele>
        <time>2024-09-01T09:31:55Z</time>
      </trkpt>
      <trkpt lat="49.27251" lon="2.41001">
        <ele>94.1</ele>
        <time>2024-09-01T09:31:56Z</time>
      </trkpt>
      <trkpt lat="49.27252" lon="2.41">
        <ele>94</ele>
        <time>2024-09-01T09:31:57Z</time>
      </trkpt>
      <trkpt lat="49.27254" lon="2.40998">
        <ele>94</ele>
        <time>2024-09-01T09:31:58Z</time>
      </trkpt>
      <trkpt lat="49.27255" lon="2.40996">
        <ele>94</ele>
        <time>2024-09-01T09:31:59Z</time>
      </trkpt>
      <trkpt lat="49.27257" lon="2.40994">
        <ele>94</ele>
        <time>2024-09-01T09:32:00Z</time>
      </trkpt>
      <trkpt lat="49.27258" lon="2.40992">
        <ele>94</ele>
        <time>2024-09-01T09:32:01Z</time>
      </trkpt>
      <trkpt lat="49.2726" lon="2.4099">
        <ele>94</ele>
        <time>2024-09-01T09:32:02Z</time>
      </trkpt>
      <trkpt lat="49.27261" lon="2.40988">
        <ele>94</ele>
        <time>2024-09-01T09:32:03Z</time>
      </trkpt>
      <trkpt lat="49.27263" lon="2.40987">
        <ele>94</ele>
        <time>2024-09-01T09:32:04Z</time>
      </trkpt>
      <trkpt lat="49.27264" lon="2.40985">
        <ele>94</ele>
        <time>2024-09-01T09:32:05Z</time>
      </trkpt>
      <trkpt lat="49.27266" lon="2.40984">
        <ele>94</ele>
        <time>2024-09-01T09:32:06Z</time>
      </trkpt>
      <trkpt lat="49.27267" lon="2.40983">
        <ele>94</ele>
        <time>2024-09-01T09:32:07Z</time>
      </trkpt>
      <trkpt lat="49.27269" lon="2.40981">
        <ele>94</ele>
        <time>2024-09-01T09:32:08Z</time>
      </trkpt>
      <trkpt lat="49.2727" lon="2.4098">
        <ele>94</ele>
        <time>2024-09-01T09:32:09Z</time>
      </trkpt>
      <trkpt lat="49.27271" lon="2.40978">
        <ele>94</ele>
        <time>2024-09-01T09:32:10Z</time>
      </trkpt>
      <trkpt lat="49.27273" lon="2.40977">
        <ele>94</ele>
        <time>2024-09-01T09:32:11Z</time>
      </trkpt>
      <trkpt lat="49.27274" lon="2.40975">
        <ele>94</ele>
        <time>2024-09-01T09:32:12Z</time>
      </trkpt>
      <trkpt lat="49.27276" lon="2.40973">
        <ele>94</ele>
        <time>2024-09-01T09:32:13Z</time>
      </trkpt>
      <trkpt lat="49.27277" lon="2.40972">
        <ele>94</ele>
        <time>2024-09-01T09:32:14Z</time>
      </trkpt>
      <trkpt lat="49.27279" lon="2.4097">
        <ele>94</ele>
        <time>2024-09-01T09:32:15Z</time>
      </trkpt>
      <trkpt lat="49.2728" lon="2.40969">
        <ele>94</ele>
        <time>2024-09-01T09:32:16Z</time>
      </trkpt>
      <trkpt lat="49.27282" lon="2.40967">
        <ele>94</ele>
        <time>2024-09-01T09:32:17Z</time>
      </trkpt>
      <trkpt lat="49.27283" lon="2.40966">
        <ele>94</ele>
        <time>2024-09-01T09:32:18Z</time>
      </trkpt>
      <trkpt lat="49.27285" lon="2.40964">
        <ele>94</ele>
        <time>2024-09-01T09:32:19Z</time>
      </trkpt>
      <trkpt lat="49.27286" lon="2.40962">
        <ele>94</ele>
        <time>2024-09-01T09:32:20Z</time>
      </trkpt>
      <trkpt lat="49.27288" lon="2.40961">
        <ele>94</ele>
        <time>2024-09-01T09:32:21Z</time>
      </trkpt>
      <trkpt lat="49.27289" lon="2.40959">
        <ele>94</ele>
        <time>2024-09-01T09:32:22Z</time>
      </trkpt>
      <trkpt lat="49.2729" lon="2.40957">
        <ele>94</ele>
        <time>2024-09-01T09:32:23Z</time>
      </trkpt>
      <trkpt lat="49.27292" lon="2.40955">
        <ele>94</ele>
        <time>2024-09-01T09:32:24Z</time>
      </trkpt>
      <trkpt lat="49.27293" lon="2.40954">
        <ele>94</ele>
        <time>2024-09-01T09:32:25Z</time>
      </trkpt>
      <trkpt lat="49.27295" lon="2.40952">
        <ele>94</ele>
        <time>2024-09-01T09:32:26Z</time>
      </trkpt>
      <trkpt lat="49.27296" lon="2.4095">
        <ele>94</ele>
        <time>2024-09-01T09:32:27Z</time>
      </trkpt>
      <trkpt lat="49.27297" lon="2.40949">
        <ele>94</ele>
        <time>2024-09-01T09:32:28Z</time>
      </trkpt>
      <trkpt lat="49.27299" lon="2.40947">
        <ele>94</ele>
        <time>2024-09-01T09:32:29Z</time>
      </trkpt>
      <trkpt lat="49.273" lon="2.40946">
        <ele>94</ele>
        <time>2024-09-01T09:32:30Z</time>
      </trkpt>
      <trkpt lat="49.27302" lon="2.40944">
        <ele>94</ele>
        <time>2024-09-01T09:32:31Z</time>
      </trkpt>
      <trkpt lat="49.27303" lon="2.40942">
        <ele>94</ele>
        <time>2024-09-01T09:32:32Z</time>
      </trkpt>
      <trkpt lat="49.27305" lon="2.40941">
        <ele>94</ele>
        <time>2024-09-01T09:32:33Z</time>
      </trkpt>
      <trkpt lat="49.27306" lon="2.40939">
        <ele>94</ele>
        <time>2024-09-01T09:32:34Z</time>
      </trkpt>
      <trkpt lat="49.27308" lon="2.40938">
        <ele>94.1</ele>
        <time>2024-09-01T09:32:35Z</time>
      </trkpt>
      <trkpt lat="49.27309" lon="2.40936">
        <ele>94.1</ele>
        <time>2024-09-01T09:32:36Z</time>
      </trkpt>
      <trkpt lat="49.2731" lon="2.40935">
        <ele>94.2</ele>
        <time>2024-09-01T09:32:37Z</time>
      </trkpt>
      <trkpt lat="49.27311" lon="2.40934">
        <ele>94.2</ele>
        <time>2024-09-01T09:32:38Z</time>
      </trkpt>
      <trkpt lat="49.27313" lon="2.40932">
        <ele>94.3</ele>
        <time>2024-09-01T09:32:39Z</time>
      </trkpt>
      <trkpt lat="49.27314" lon="2.4093">
        <ele>94.3</ele>
        <time>2024-09-01T09:32:40Z</time>
      </trkpt>
      <trkpt lat="49.27315" lon="2.40929">
        <ele>94.4</ele>
        <time>2024-09-01T09:32:41Z</time>
      </trkpt>
      <trkpt lat="49.27317" lon="2.40927">
        <ele>94.4</ele>
        <time>2024-09-01T09:32:42Z</time>
      </trkpt>
      <trkpt lat="49.27318" lon="2.40925">
        <ele>94.5</ele>
        <time>2024-09-01T09:32:43Z</time>
      </trkpt>
      <trkpt lat="49.2732" lon="2.40923">
        <ele>94.5</ele>
        <time>2024-09-01T09:32:44Z</time>
      </trkpt>
      <trkpt lat="49.27321" lon="2.40922">
        <ele>94.6</ele>
        <time>2024-09-01T09:32:45Z</time>
      </trkpt>
      <trkpt lat="49.27323" lon="2.4092">
        <ele>94.6</ele>
        <time>2024-09-01T09:32:46Z</time>
      </trkpt>
      <trkpt lat="49.27324" lon="2.40919">
        <ele>94.7</ele>
        <time>2024-09-01T09:32:47Z</time>
      </trkpt>
      <trkpt lat="49.27326" lon="2.40917">
        <ele>94.7</ele>
        <time>2024-09-01T09:32:48Z</time>
      </trkpt>
      <trkpt lat="49.27327" lon="2.40916">
        <ele>94.8</ele>
        <time>2024-09-01T09:32:49Z</time>
      </trkpt>
      <trkpt lat="49.27329" lon="2.40914">
        <ele>94.8</ele>
        <time>2024-09-01T09:32:50Z</time>
      </trkpt>
      <trkpt lat="49.2733" lon="2.40912">
        <ele>94.9</ele>
        <time>2024-09-01T09:32:51Z</time>
      </trkpt>
      <trkpt lat="49.27332" lon="2.4091">
        <ele>95</ele>
        <time>2024-09-01T09:32:52Z</time>
      </trkpt>
      <trkpt lat="49.27333" lon="2.40908">
        <ele>95</ele>
        <time>2024-09-01T09:32:53Z</time>
      </trkpt>
      <trkpt lat="49.27334" lon="2.40907">
        <ele>95</ele>
        <time>2024-09-01T09:32:54Z</time>
      </trkpt>
      <trkpt lat="49.27336" lon="2.40905">
        <ele>95</ele>
        <time>2024-09-01T09:32:55Z</time>
      </trkpt>
      <trkpt lat="49.27337" lon="2.40903">
        <ele>95</ele>
        <time>2024-09-01T09:32:56Z</time>
      </trkpt>
      <trkpt lat="49.27339" lon="2.40901">
        <ele>95</ele>
        <time>2024-09-01T09:32:57Z</time>
      </trkpt>
      <trkpt lat="49.2734" lon="2.40899">
        <ele>95</ele>
        <time>2024-09-01T09:32:58Z</time>
      </trkpt>
      <trkpt lat="49.27341" lon="2.40897">
        <ele>95</ele>
        <time>2024-09-01T09:32:59Z</time>
      </trkpt>
      <trkpt lat="49.27343" lon="2.40895">
        <ele>95</ele>
        <time>2024-09-01T09:33:00Z</time>
      </trkpt>
      <trkpt lat="49.27344" lon="2.40893">
        <ele>95</ele>
        <time>2024-09-01T09:33:01Z</time>
      </trkpt>
      <trkpt lat="49.27346" lon="2.40892">
        <ele>95</ele>
        <time>2024-09-01T09:33:02Z</time>
      </trkpt>
      <trkpt lat="49.27347" lon="2.4089">
        <ele>95</ele>
        <time>2024-09-01T09:33:03Z</time>
      </trkpt>
      <trkpt lat="49.27348" lon="2.40888">
        <ele>95</ele>
        <time>2024-09-01T09:33:04Z</time>
      </trkpt>
      <trkpt lat="49.2735" lon="2.40887">
        <ele>95</ele>
        <time>2024-09-01T09:33:05Z</time>
      </trkpt>
      <trkpt lat="49.27351" lon="2.40885">
        <ele>95</ele>
        <time>2024-09-01T09:33:06Z</time>
      </trkpt>
      <trkpt lat="49.27352" lon="2.40883">
        <ele>95</ele>
        <time>2024-09-01T09:33:07Z</time>
      </trkpt>
      <trkpt lat="49.27353" lon="2.40881">
        <ele>95</ele>
        <time>2024-09-01T09:33:08Z</time>
      </trkpt>
      <trkpt lat="49.27355" lon="2.40879">
        <ele>95</ele>
        <time>2024-09-01T09:33:09Z</time>
      </trkpt>
      <trkpt lat="49.27356" lon="2.40877">
        <ele>95</ele>
        <time>2024-09-01T09:33:10Z</time>
      </trkpt>
      <trkpt lat="49.27357" lon="2.40875">
        <ele>95</ele>
        <time>2024-09-01T09:33:11Z</time>
      </trkpt>
      <trkpt lat="49.27358" lon="2.40873">
        <ele>95</ele>
        <time>2024-09-01T09:33:12Z</time>
      </trkpt>
      <trkpt lat="49.2736" lon="2.40871">
        <ele>95</ele>
        <time>2024-09-01T09:33:13Z</time>
      </trkpt>
      <trkpt lat="49.27361" lon="2.40869">
        <ele>95</ele>
        <time>2024-09-01T09:33:14Z</time>
      </trkpt>
      <trkpt lat="49.27362" lon="2.40867">
        <ele>95</ele>
        <time>2024-09-01T09:33:15Z</time>
      </trkpt>
      <trkpt lat="49.27364" lon="2.40865">
        <ele>95.1</ele>
        <time>2024-09-01T09:33:16Z</time>
      </trkpt>
      <trkpt lat="49.27365" lon="2.40863">
        <ele>95.1</ele>
        <time>2024-09-01T09:33:17Z</time>
      </trkpt>
      <trkpt lat="49.27366" lon="2.40861">
        <ele>95.2</ele>
        <time>2024-09-01T09:33:18Z</time>
      </trkpt>
      <trkpt lat="49.27368" lon="2.4086">
        <ele>95.2</ele>
        <time>2024-09-01T09:33:19Z</time>
      </trkpt>
      <trkpt lat="49.27369" lon="2.40858">
        <ele>95.3</ele>
        <time>2024-09-01T09:33:20Z</time>
      </trkpt>
      <trkpt lat="49.2737" lon="2.40856">
        <ele>95.3</ele>
        <time>2024-09-01T09:33:21Z</time>
      </trkpt>
      <trkpt lat="49.27372" lon="2.40854">
        <ele>95.4</ele>
        <time>2024-09-01T09:33:22Z</time>
      </trkpt>
      <trkpt lat="49.27373" lon="2.40852">
        <ele>95.4</ele>
        <time>2024-09-01T09:33:23Z</time>
      </trkpt>
      <trkpt lat="49.27375" lon="2.4085">
        <ele>95.5</ele>
        <time>2024-09-01T09:33:24Z</time>
      </trkpt>
      <trkpt lat="49.27376" lon="2.40848">
        <ele>95.5</ele>
        <time>2024-09-01T09:33:25Z</time>
      </trkpt>
      <trkpt lat="49.27377" lon="2.40846">
        <ele>95.6</ele>
        <time>2024-09-01T09:33:26Z</time>
      </trkpt>
      <trkpt lat="49.27379" lon="2.40845">
        <ele>95.6</ele>
        <time>2024-09-01T09:33:27Z</time>
      </trkpt>
      <trkpt lat="49.2738" lon="2.40843">
        <ele>95.7</ele>
        <time>2024-09-01T09:33:28Z</time>
      </trkpt>
      <trkpt lat="49.27382" lon="2.40841">
        <ele>95.7</ele>
        <time>2024-09-01T09:33:29Z</time>
      </trkpt>
      <trkpt lat="49.27383" lon="2.40839">
        <ele>95.8</ele>
        <time>2024-09-01T09:33:30Z</time>
      </trkpt>
      <trkpt lat="49.27384" lon="2.40837">
        <ele>95.8</ele>
        <time>2024-09-01T09:33:31Z</time>
      </trkpt>
      <trkpt lat="49.27385" lon="2.40835">
        <ele>95.9</ele>
        <time>2024-09-01T09:33:32Z</time>
      </trkpt>
      <trkpt lat="49.27387" lon="2.40833">
        <ele>95.9</ele>
        <time>2024-09-01T09:33:33Z</time>
      </trkpt>
      <trkpt lat="49.27388" lon="2.40831">
        <ele>96</ele>
        <time>2024-09-01T09:33:34Z</time>
      </trkpt>
      <trkpt lat="49.27389" lon="2.40829">
        <ele>96</ele>
        <time>2024-09-01T09:33:35Z</time>
      </trkpt>
      <trkpt lat="49.2739" lon="2.40827">
        <ele>96</ele>
        <time>2024-09-01T09:33:36Z</time>
      </trkpt>
      <trkpt lat="49.27392" lon="2.40825">
        <ele>96</ele>
        <time>2024-09-01T09:33:37Z</time>
      </trkpt>
      <trkpt lat="49.27393" lon="2.40823">
        <ele>96</ele>
        <time>2024-09-01T09:33:38Z</time>
      </trkpt>
      <trkpt lat="49.27394" lon="2.4082">
        <ele>96</ele>
        <time>2024-09-01T09:33:39Z</time>
      </trkpt>
      <trkpt lat="49.27395" lon="2.40818">
        <ele>96</ele>
        <time>2024-09-01T09:33:40Z</time>
      </trkpt>
      <trkpt lat="49.27396" lon="2.40816">
        <ele>96</ele>
        <time>2024-09-01T09:33:41Z</time>
      </trkpt>
      <trkpt lat="49.27397" lon="2.40813">
        <ele>96</ele>
        <time>2024-09-01T09:33:42Z</time>
      </trkpt>
      <trkpt lat="49.27398" lon="2.40811">
        <ele>96</ele>
        <time>2024-09-01T09:33:43Z</time>
      </trkpt>
      <trkpt lat="49.27399" lon="2.40808">
        <ele>96</ele>
        <time>2024-09-01T09:33:44Z</time>
      </trkpt>
      <trkpt lat="49.274" lon="2.40806">
        <ele>96</ele>
        <time>2024-09-01T09:33:45Z</time>
      </trkpt>
      <trkpt lat="49.27401" lon="2.40804">
        <ele>96</ele>
        <time>2024-09-01T09:33:46Z</time>
      </trkpt>
      <trkpt lat="49.27402" lon="2.40802">
        <ele>96</ele>
        <time>2024-09-01T09:33:47Z</time>
      </trkpt>
      <trkpt lat="49.27403" lon="2.40799">
        <ele>96</ele>
        <time>2024-09-01T09:33:48Z</time>
      </trkpt>
      <trkpt lat="49.27404" lon="2.40797">
        <ele>96</ele>
        <time>2024-09-01T09:33:49Z</time>
      </trkpt>
      <trkpt lat="49.27405" lon="2.40795">
        <ele>96</ele>
        <time>2024-09-01T09:33:50Z</time>
      </trkpt>
      <trkpt lat="49.27407" lon="2.40793">
        <ele>96</ele>
        <time>2024-09-01T09:33:51Z</time>
      </trkpt>
      <trkpt lat="49.27408" lon="2.4079">
        <ele>96</ele>
        <time>2024-09-01T09:33:52Z</time>
      </trkpt>
      <trkpt lat="49.27409" lon="2.40788">
        <ele>96</ele>
        <time>2024-09-01T09:33:53Z</time>
      </trkpt>
      <trkpt lat="49.2741" lon="2.40786">
        <ele>96</ele>
        <time>2024-09-01T09:33:54Z</time>
      </trkpt>
      <trkpt lat="49.27411" lon="2.40783">
        <ele>96</ele>
        <time>2024-09-01T09:33:55Z</time>
      </trkpt>
      <trkpt lat="49.27412" lon="2.40781">
        <ele>96</ele>
        <time>2024-09-01T09:33:56Z</time>
      </trkpt>
      <trkpt lat="49.27413" lon="2.40779">
        <ele>96</ele>
        <time>2024-09-01T09:33:57Z</time>
      </trkpt>
      <trkpt lat="49.27414" lon="2.40776">
        <ele>96.1</ele>
        <time>2024-09-01T09:33:58Z</time>
      </trkpt>
      <trkpt lat="49.27415" lon="2.40774">
        <ele>96.1</ele>
        <time>2024-09-01T09:33:59Z</time>
      </trkpt>
      <trkpt lat="49.27416" lon="2.40771">
        <ele>96.2</ele>
        <time>2024-09-01T09:34:00Z</time>
      </trkpt>
      <trkpt lat="49.27417" lon="2.40769">
        <ele>96.3</ele>
        <time>2024-09-01T09:34:01Z</time>
      </trkpt>
      <trkpt lat="49.27418" lon="2.40768">
        <ele>96.4</ele>
        <time>2024-09-01T09:34:02Z</time>
      </trkpt>
      <trkpt lat="49.27419" lon="2.40766">
        <ele>96.5</ele>
        <time>2024-09-01T09:34:03Z</time>
      </trkpt>
      <trkpt lat="49.27421" lon="2.40764">
        <ele>96.6</ele>
        <time>2024-09-01T09:34:04Z</time>
      </trkpt>
      <trkpt lat="49.27422" lon="2.40762">
        <ele>96.6</ele>
        <time>2024-09-01T09:34:05Z</time>
      </trkpt>
      <trkpt lat="49.27423" lon="2.4076">
        <ele>96.7</ele>
        <time>2024-09-01T09:34:06Z</time>
      </trkpt>
      <trkpt lat="49.27424" lon="2.40758">
        <ele>96.8</ele>
        <time>2024-09-01T09:34:07Z</time>
      </trkpt>
      <trkpt lat="49.27425" lon="2.40756">
        <ele>96.8</ele>
        <time>2024-09-01T09:34:08Z</time>
      </trkpt>
      <trkpt lat="49.27426" lon="2.40754">
        <ele>96.9</ele>
        <time>2024-09-01T09:34:09Z</time>
      </trkpt>
      <trkpt lat="49.27427" lon="2.40752">
        <ele>97</ele>
        <time>2024-09-01T09:34:10Z</time>
      </trkpt>
      <trkpt lat="49.27428" lon="2.40749">
        <ele>97</ele>
        <time>2024-09-01T09:34:11Z</time>
      </trkpt>
      <trkpt lat="49.27429" lon="2.40747">
        <ele>97</ele>
        <time>2024-09-01T09:34:12Z</time>
      </trkpt>
      <trkpt lat="49.2743" lon="2.40745">
        <ele>97</ele>
        <time>2024-09-01T09:34:13Z</time>
      </trkpt>
      <trkpt lat="49.27431" lon="2.40742">
        <ele>97</ele>
        <time>2024-09-01T09:34:14Z</time>
      </trkpt>
      <trkpt lat="49.27432" lon="2.4074">
        <ele>97</ele>
        <time>2024-09-01T09:34:15Z</time>
      </trkpt>
      <trkpt lat="49.27434" lon="2.40738">
        <ele>97</ele>
        <time>2024-09-01T09:34:16Z</time>
      </trkpt>
      <trkpt lat="49.27435" lon="2.40736">
        <ele>97</ele>
        <time>2024-09-01T09:34:17Z</time>
      </trkpt>
      <trkpt lat="49.27436" lon="2.40733">
        <ele>97</ele>
        <time>2024-09-01T09:34:18Z</time>
      </trkpt>
      <trkpt lat="49.27437" lon="2.40731">
        <ele>97</ele>
        <time>2024-09-01T09:34:19Z</time>
      </trkpt>
      <trkpt lat="49.27438" lon="2.40729">
        <ele>97</ele>
        <time>2024-09-01T09:34:20Z</time>
      </trkpt>
      <trkpt lat="49.27439" lon="2.40726">
        <ele>97</ele>
        <time>2024-09-01T09:34:21Z</time>
      </trkpt>
      <trkpt lat="49.2744" lon="2.40724">
        <ele>97</ele>
        <time>2024-09-01T09:34:22Z</time>
      </trkpt>
      <trkpt lat="49.27441" lon="2.40721">
        <ele>97</ele>
        <time>2024-09-01T09:34:23Z</time>
      </trkpt>
      <trkpt lat="49.27442" lon="2.40719">
        <ele>97.1</ele>
        <time>2024-09-01T09:34:24Z</time>
      </trkpt>
      <trkpt lat="49.27443" lon="2.40717">
        <ele>97.2</ele>
        <time>2024-09-01T09:34:25Z</time>
      </trkpt>
      <trkpt lat="49.27444" lon="2.40715">
        <ele>97.3</ele>
        <time>2024-09-01T09:34:26Z</time>
      </trkpt>
      <trkpt lat="49.27445" lon="2.40712">
        <ele>97.4</ele>
        <time>2024-09-01T09:34:27Z</time>
      </trkpt>
      <trkpt lat="49.27446" lon="2.4071">
        <ele>97.5</ele>
        <time>2024-09-01T09:34:28Z</time>
      </trkpt>
      <trkpt lat="49.27448" lon="2.40708">
        <ele>97.6</ele>
        <time>2024-09-01T09:34:29Z</time>
      </trkpt>
      <trkpt lat="49.27449" lon="2.40706">
        <ele>97.7</ele>
        <time>2024-09-01T09:34:30Z</time>
      </trkpt>
      <trkpt lat="49.2745" lon="2.40703">
        <ele>97.7</ele>
        <time>2024-09-01T09:34:31Z</time>
      </trkpt>
      <trkpt lat="49.27451" lon="2.40701">
        <ele>97.8</ele>
        <time>2024-09-01T09:34:32Z</time>
      </trkpt>
      <trkpt lat="49.27452" lon="2.40699">
        <ele>97.9</ele>
        <time>2024-09-01T09:34:33Z</time>
      </trkpt>
      <trkpt lat="49.27453" lon="2.40697">
        <ele>97.9</ele>
        <time>2024-09-01T09:34:34Z</time>
      </trkpt>
      <trkpt lat="49.27454" lon="2.40695">
        <ele>98</ele>
        <time>2024-09-01T09:34:35Z</time>
      </trkpt>
      <trkpt lat="49.27454" lon="2.40693">
        <ele>98</ele>
        <time>2024-09-01T09:34:36Z</time>
      </trkpt>
      <trkpt lat="49.27455" lon="2.40691">
        <ele>98</ele>
        <time>2024-09-01T09:34:37Z</time>
      </trkpt>
      <trkpt lat="49.27456" lon="2.4069">
        <ele>98</ele>
        <time>2024-09-01T09:34:38Z</time>
      </trkpt>
      <trkpt lat="49.27456" lon="2.40689">
        <ele>98</ele>
        <time>2024-09-01T09:34:39Z</time>
      </trkpt>
      <trkpt lat="49.27456" lon="2.40689">
        <ele>98</ele>
        <time>2024-09-01T09:34:40Z</time>
      </trkpt>
      <trkpt lat="49.27456" lon="2.40688">
        <ele>98</ele>
        <time>2024-09-01T09:34:41Z</time>
      </trkpt>
      <trkpt lat="49.27456" lon="2.40688">
        <ele>98</ele>
        <time>2024-09-01T09:34:42Z</time>
      </trkpt>
      <trkpt lat="49.27456" lon="2.40687">
        <ele>98</ele>
        <time>2024-09-01T09:34:43Z</time>
      </trkpt>
      <trkpt lat="49.27457" lon="2.40686">
        <ele>98</ele>
        <time>2024-09-01T09:34:44Z</time>
      </trkpt>
      <trkpt lat="49.27457" lon="2.40685">
        <ele>98</ele>
        <time>2024-09-01T09:34:45Z</time>
      </trkpt>
      <trkpt lat="49.27458" lon="2.40684">
        <ele>98</ele>
        <time>2024-09-01T09:34:46Z</time>
      </trkpt>
      <trkpt lat="49.27458" lon="2.40683">
        <ele>98</ele>
        <time>2024-09-01T09:34:47Z</time>
      </trkpt>
      <trkpt lat="49.27459" lon="2.40681">
        <ele>98</ele>
        <time>2024-09-01T09:34:48Z</time>
      </trkpt>
      <trkpt lat="49.2746" lon="2.4068">
        <ele>98</ele>
        <time>2024-09-01T09:34:49Z</time>
      </trkpt>
      <trkpt lat="49.27461" lon="2.40678">
        <ele>98</ele>
        <time>2024-09-01T09:34:50Z</time>
      </trkpt>
      <trkpt lat="49.27462" lon="2.40676">
        <ele>98</ele>
        <time>2024-09-01T09:34:51Z</time>
      </trkpt>
      <trkpt lat="49.27463" lon="2.40674">
        <ele>98</ele>
        <time>2024-09-01T09:34:52Z</time>
      </trkpt>
      <trkpt lat="49.27464" lon="2.40672">
        <ele>98</ele>
        <time>2024-09-01T09:34:53Z</time>
      </trkpt>
      <trkpt lat="49.27465" lon="2.4067">
        <ele>98</ele>
        <time>2024-09-01T09:34:54Z</time>
      </trkpt>
      <trkpt lat="49.27466" lon="2.40668">
        <ele>98</ele>
        <time>2024-09-01T09:34:55Z</time>
      </trkpt>
      <trkpt lat="49.27467" lon="2.40666">
        <ele>98</ele>
        <time>2024-09-01T09:34:56Z</time>
      </trkpt>
      <trkpt lat="49.27468" lon="2.40664">
        <ele>98.1</ele>
        <time>2024-09-01T09:34:57Z</time>
      </trkpt>
      <trkpt lat="49.27469" lon="2.40662">
        <ele>98.1</ele>
        <time>2024-09-01T09:34:58Z</time>
      </trkpt>
      <trkpt lat="49.2747" lon="2.4066">
        <ele>98.2</ele>
        <time>2024-09-01T09:34:59Z</time>
      </trkpt>
      <trkpt lat="49.2747" lon="2.4066">
        <ele>98.2</ele>
        <time>2024-09-01T09:35:00Z</time>
      </trkpt>
      <trkpt lat="49.27471" lon="2.40659">
        <ele>98.3</ele>
        <time>2024-09-01T09:35:01Z</time>
      </trkpt>
      <trkpt lat="49.27471" lon="2.40658">
        <ele>98.3</ele>
        <time>2024-09-01T09:35:02Z</time>
      </trkpt>
      <trkpt lat="49.27472" lon="2.40657">
        <ele>98.3</ele>
        <time>2024-09-01T09:35:03Z</time>
      </trkpt>
      <trkpt lat="49.27472" lon="2.40656">
        <ele>98.4</ele>
        <time>2024-09-01T09:35:04Z</time>
      </trkpt>
      <trkpt lat="49.27473" lon="2.40655">
        <ele>98.4</ele>
        <time>2024-09-01T09:35:05Z</time>
      </trkpt>
      <trkpt lat="49.27474" lon="2.40654">
        <ele>98.5</ele>
        <time>2024-09-01T09:35:06Z</time>
      </trkpt>
      <trkpt lat="49.27475" lon="2.40652">
        <ele>98.6</ele>
        <time>2024-09-01T09:35:07Z</time>
      </trkpt>
      <trkpt lat="49.27476" lon="2.40651">
        <ele>98.6</ele>
        <time>2024-09-01T09:35:08Z</time>
      </trkpt>
      <trkpt lat="49.27477" lon="2.40649">
        <ele>98.7</ele>
        <time>2024-09-01T09:35:09Z</time>
      </trkpt>
      <trkpt lat="49.27478" lon="2.40647">
        <ele>98.8</ele>
        <time>2024-09-01T09:35:10Z</time>
      </trkpt>
      <trkpt lat="49.27479" lon="2.40645">
        <ele>98.8</ele>
        <time>2024-09-01T09:35:11Z</time>
      </trkpt>
      <trkpt lat="49.2748" lon="2.40643">
        <ele>98.9</ele>
        <time>2024-09-01T09:35:12Z</time>
      </trkpt>
      <trkpt lat="49.27481" lon="2.40641">
        <ele>98.9</ele>
        <time>2024-09-01T09:35:13Z</time>
      </trkpt>
      <trkpt lat="49.27482" lon="2.4064">
        <ele>99</ele>
        <time>2024-09-01T09:35:14Z</time>
      </trkpt>
      <trkpt lat="49.27483" lon="2.40638">
        <ele>99</ele>
        <time>2024-09-01T09:35:15Z</time>
      </trkpt>
      <trkpt lat="49.27484" lon="2.40636">
        <ele>99</ele>
        <time>2024-09-01T09:35:16Z</time>
      </trkpt>
      <trkpt lat="49.27485" lon="2.40634">
        <ele>99</ele>
        <time>2024-09-01T09:35:17Z</time>
      </trkpt>
      <trkpt lat="49.27486" lon="2.40632">
        <ele>99</ele>
        <time>2024-09-01T09:35:18Z</time>
      </trkpt>
      <trkpt lat="49.27487" lon="2.4063">
        <ele>99</ele>
        <time>2024-09-01T09:35:19Z</time>
      </trkpt>
      <trkpt lat="49.27488" lon="2.40628">
        <ele>99</ele>
        <time>2024-09-01T09:35:20Z</time>
      </trkpt>
      <trkpt lat="49.27489" lon="2.40626">
        <ele>99</ele>
        <time>2024-09-01T09:35:21Z</time>
      </trkpt>
      <trkpt lat="49.2749" lon="2.40624">
        <ele>99</ele>
        <time>2024-09-01T09:35:22Z</time>
      </trkpt>
      <trkpt lat="49.27491" lon="2.40622">
        <ele>99</ele>
        <time>2024-09-01T09:35:23Z</time>
      </trkpt>
      <trkpt lat="49.27492" lon="2.4062">
        <ele>99</ele>
        <time>2024-09-01T09:35:24Z</time>
      </trkpt>
      <trkpt lat="49.27493" lon="2.40618">
        <ele>99</ele>
        <time>2024-09-01T09:35:25Z</time>
      </trkpt>
      <trkpt lat="49.27494" lon="2.40615">
        <ele>99</ele>
        <time>2024-09-01T09:35:26Z</time>
      </trkpt>
      <trkpt lat="49.27495" lon="2.40613">
        <ele>99</ele>
        <time>2024-09-01T09:35:27Z</time>
      </trkpt>
      <trkpt lat="49.27496" lon="2.40611">
        <ele>99</ele>
        <time>2024-09-01T09:35:28Z</time>
      </trkpt>
      <trkpt lat="49.27497" lon="2.40609">
        <ele>99.1</ele>
        <time>2024-09-01T09:35:29Z</time>
      </trkpt>
      <trkpt lat="49.27498" lon="2.40607">
        <ele>99.1</ele>
        <time>2024-09-01T09:35:30Z</time>
      </trkpt>
      <trkpt lat="49.27499" lon="2.40605">
        <ele>99.2</ele>
        <time>2024-09-01T09:35:31Z</time>
      </trkpt>
      <trkpt lat="49.275" lon="2.40603">
        <ele>99.3</ele>
        <time>2024-09-01T09:35:32Z</time>
      </trkpt>
      <trkpt lat="49.27501" lon="2.40601">
        <ele>99.4</ele>
        <time>2024-09-01T09:35:33Z</time>
      </trkpt>
      <trkpt lat="49.27502" lon="2.40599">
        <ele>99.5</ele>
        <time>2024-09-01T09:35:34Z</time>
      </trkpt>
      <trkpt lat="49.27503" lon="2.40597">
        <ele>99.6</ele>
        <time>2024-09-01T09:35:35Z</time>
      </trkpt>
      <trkpt lat="49.27504" lon="2.40595">
        <ele>99.6</ele>
        <time>2024-09-01T09:35:36Z</time>
      </trkpt>
      <trkpt lat="49.27505" lon="2.40593">
        <ele>99.7</ele>
        <time>2024-09-01T09:35:37Z</time>
      </trkpt>
      <trkpt lat="49.27506" lon="2.40591">
        <ele>99.8</ele>
        <time>2024-09-01T09:35:38Z</time>
      </trkpt>
      <trkpt lat="49.27507" lon="2.4059">
        <ele>99.8</ele>
        <time>2024-09-01T09:35:39Z</time>
      </trkpt>
      <trkpt lat="49.27508" lon="2.40588">
        <ele>99.9</ele>
        <time>2024-09-01T09:35:40Z</time>
      </trkpt>
      <trkpt lat="49.27509" lon="2.40586">
        <ele>99.9</ele>
        <time>2024-09-01T09:35:41Z</time>
      </trkpt>
      <trkpt lat="49.2751" lon="2.40583">
        <ele>100</ele>
        <time>2024-09-01T09:35:42Z</time>
      </trkpt>
      <trkpt lat="49.27511" lon="2.40581">
        <ele>100</ele>
        <time>2024-09-01T09:35:43Z</time>
      </trkpt>
      <trkpt lat="49.27512" lon="2.40579">
        <ele>100.1</ele>
        <time>2024-09-01T09:35:44Z</time>
      </trkpt>
      <trkpt lat="49.27513" lon="2.40577">
        <ele>100.1</ele>
        <time>2024-09-01T09:35:45Z</time>
      </trkpt>
      <trkpt lat="49.27514" lon="2.40575">
        <ele>100.1</ele>
        <time>2024-09-01T09:35:46Z</time>
      </trkpt>
      <trkpt lat="49.27514" lon="2.40573">
        <ele>100.2</ele>
        <time>2024-09-01T09:35:47Z</time>
      </trkpt>
      <trkpt lat="49.27515" lon="2.40571">
        <ele>100.2</ele>
        <time>2024-09-01T09:35:48Z</time>
      </trkpt>
      <trkpt lat="49.27516" lon="2.4057">
        <ele>100.3</ele>
        <time>2024-09-01T09:35:49Z</time>
      </trkpt>
      <trkpt lat="49.27517" lon="2.40568">
        <ele>100.3</ele>
        <time>2024-09-01T09:35:50Z</time>
      </trkpt>
      <trkpt lat="49.27518" lon="2.40566">
        <ele>100.4</ele>
        <time>2024-09-01T09:35:51Z</time>
      </trkpt>
      <trkpt lat="49.27519" lon="2.40564">
        <ele>100.5</ele>
        <time>2024-09-01T09:35:52Z</time>
      </trkpt>
      <trkpt lat="49.2752" lon="2.40562">
        <ele>100.6</ele>
        <time>2024-09-01T09:35:53Z</time>
      </trkpt>
      <trkpt lat="49.27521" lon="2.4056">
        <ele>100.6</ele>
        <time>2024-09-01T09:35:54Z</time>
      </trkpt>
      <trkpt lat="49.27522" lon="2.40558">
        <ele>100.7</ele>
        <time>2024-09-01T09:35:55Z</time>
      </trkpt>
      <trkpt lat="49.27523" lon="2.40555">
        <ele>100.8</ele>
        <time>2024-09-01T09:35:56Z</time>
      </trkpt>
      <trkpt lat="49.27524" lon="2.40553">
        <ele>100.9</ele>
        <time>2024-09-01T09:35:57Z</time>
      </trkpt>
      <trkpt lat="49.27525" lon="2.40551">
        <ele>100.9</ele>
        <time>2024-09-01T09:35:58Z</time>
      </trkpt>
      <trkpt lat="49.27526" lon="2.40549">
        <ele>100.9</ele>
        <time>2024-09-01T09:35:59Z</time>
      </trkpt>
      <trkpt lat="49.27527" lon="2.40546">
        <ele>101</ele>
        <time>2024-09-01T09:36:00Z</time>
      </trkpt>
      <trkpt lat="49.27528" lon="2.40544">
        <ele>101</ele>
        <time>2024-09-01T09:36:01Z</time>
      </trkpt>
      <trkpt lat="49.27529" lon="2.40542">
        <ele>101</ele>
        <time>2024-09-01T09:36:02Z</time>
      </trkpt>
      <trkpt lat="49.2753" lon="2.4054">
        <ele>101.1</ele>
        <time>2024-09-01T09:36:03Z</time>
      </trkpt>
      <trkpt lat="49.2753" lon="2.40538">
        <ele>101.1</ele>
        <time>2024-09-01T09:36:04Z</time>
      </trkpt>
      <trkpt lat="49.27531" lon="2.40536">
        <ele>101.1</ele>
        <time>2024-09-01T09:36:05Z</time>
      </trkpt>
      <trkpt lat="49.27532" lon="2.40534">
        <ele>101.2</ele>
        <time>2024-09-01T09:36:06Z</time>
      </trkpt>
      <trkpt lat="49.27533" lon="2.40532">
        <ele>101.2</ele>
        <time>2024-09-01T09:36:07Z</time>
      </trkpt>
      <trkpt lat="49.27534" lon="2.40529">
        <ele>101.2</ele>
        <time>2024-09-01T09:36:08Z</time>
      </trkpt>
      <trkpt lat="49.27535" lon="2.40527">
        <ele>101.3</ele>
        <time>2024-09-01T09:36:09Z</time>
      </trkpt>
      <trkpt lat="49.27536" lon="2.40525">
        <ele>101.4</ele>
        <time>2024-09-01T09:36:10Z</time>
      </trkpt>
      <trkpt lat="49.27537" lon="2.40523">
        <ele>101.5</ele>
        <time>2024-09-01T09:36:11Z</time>
      </trkpt>
      <trkpt lat="49.27538" lon="2.40521">
        <ele>101.6</ele>
        <time>2024-09-01T09:36:12Z</time>
      </trkpt>
      <trkpt lat="49.27539" lon="2.40519">
        <ele>101.7</ele>
        <time>2024-09-01T09:36:13Z</time>
      </trkpt>
      <trkpt lat="49.2754" lon="2.40517">
        <ele>101.8</ele>
        <time>2024-09-01T09:36:14Z</time>
      </trkpt>
      <trkpt lat="49.27541" lon="2.40514">
        <ele>101.9</ele>
        <time>2024-09-01T09:36:15Z</time>
      </trkpt>
      <trkpt lat="49.27541" lon="2.40512">
        <ele>102.1</ele>
        <time>2024-09-01T09:36:16Z</time>
      </trkpt>
      <trkpt lat="49.27542" lon="2.4051">
        <ele>102.2</ele>
        <time>2024-09-01T09:36:17Z</time>
      </trkpt>
      <trkpt lat="49.27543" lon="2.40508">
        <ele>102.3</ele>
        <time>2024-09-01T09:36:18Z</time>
      </trkpt>
      <trkpt lat="49.27544" lon="2.40505">
        <ele>102.4</ele>
        <time>2024-09-01T09:36:19Z</time>
      </trkpt>
      <trkpt lat="49.27544" lon="2.40503">
        <ele>102.5</ele>
        <time>2024-09-01T09:36:20Z</time>
      </trkpt>
      <trkpt lat="49.27545" lon="2.40501">
        <ele>102.6</ele>
        <time>2024-09-01T09:36:21Z</time>
      </trkpt>
      <trkpt lat="49.27545" lon="2.40499">
        <ele>102.6</ele>
        <time>2024-09-01T09:36:22Z</time>
      </trkpt>
      <trkpt lat="49.27546" lon="2.40496">
        <ele>102.6</ele>
        <time>2024-09-01T09:36:23Z</time>
      </trkpt>
      <trkpt lat="49.27546" lon="2.40494">
        <ele>102.6</ele>
        <time>2024-09-01T09:36:24Z</time>
      </trkpt>
      <trkpt lat="49.27546" lon="2.40492">
        <ele>102.7</ele>
        <time>2024-09-01T09:36:25Z</time>
      </trkpt>
      <trkpt lat="49.27546" lon="2.4049">
        <ele>102.7</ele>
        <time>2024-09-01T09:36:26Z</time>
      </trkpt>
      <trkpt lat="49.27546" lon="2.40487">
        <ele>102.7</ele>
        <time>2024-09-01T09:36:27Z</time>
      </trkpt>
      <trkpt lat="49.27546" lon="2.40485">
        <ele>102.7</ele>
        <time>2024-09-01T09:36:28Z</time>
      </trkpt>
      <trkpt lat="49.27547" lon="2.40482">
        <ele>102.7</ele>
        <time>2024-09-01T09:36:29Z</time>
      </trkpt>
      <trkpt lat="49.27546" lon="2.4048">
        <ele>102.7</ele>
        <time>2024-09-01T09:36:30Z</time>
      </trkpt>
      <trkpt lat="49.27546" lon="2.40477">
        <ele>102.7</ele>
        <time>2024-09-01T09:36:31Z</time>
      </trkpt>
      <trkpt lat="49.27546" lon="2.40475">
        <ele>102.6</ele>
        <time>2024-09-01T09:36:32Z</time>
      </trkpt>
      <trkpt lat="49.27546" lon="2.40472">
        <ele>102.6</ele>
        <time>2024-09-01T09:36:33Z</time>
      </trkpt>
      <trkpt lat="49.27545" lon="2.4047">
        <ele>102.7</ele>
        <time>2024-09-01T09:36:34Z</time>
      </trkpt>
      <trkpt lat="49.27545" lon="2.40467">
        <ele>102.7</ele>
        <time>2024-09-01T09:36:35Z</time>
      </trkpt>
      <trkpt lat="49.27545" lon="2.40464">
        <ele>102.7</ele>
        <time>2024-09-01T09:36:36Z</time>
      </trkpt>
      <trkpt lat="49.27545" lon="2.40462">
        <ele>102.8</ele>
        <time>2024-09-01T09:36:37Z</time>
      </trkpt>
      <trkpt lat="49.27545" lon="2.40459">
        <ele>102.8</ele>
        <time>2024-09-01T09:36:38Z</time>
      </trkpt>
      <trkpt lat="49.27545" lon="2.40457">
        <ele>102.8</ele>
        <time>2024-09-01T09:36:39Z</time>
      </trkpt>
      <trkpt lat="49.27545" lon="2.40454">
        <ele>102.9</ele>
        <time>2024-09-01T09:36:40Z</time>
      </trkpt>
      <trkpt lat="49.27545" lon="2.40452">
        <ele>102.9</ele>
        <time>2024-09-01T09:36:41Z</time>
      </trkpt>
      <trkpt lat="49.27545" lon="2.40449">
        <ele>102.9</ele>
        <time>2024-09-01T09:36:42Z</time>
      </trkpt>
      <trkpt lat="49.27546" lon="2.40446">
        <ele>103</ele>
        <time>2024-09-01T09:36:43Z</time>
      </trkpt>
      <trkpt lat="49.27546" lon="2.40443">
        <ele>103</ele>
        <time>2024-09-01T09:36:44Z</time>
      </trkpt>
      <trkpt lat="49.27546" lon="2.4044">
        <ele>103</ele>
        <time>2024-09-01T09:36:45Z</time>
      </trkpt>
      <trkpt lat="49.27546" lon="2.40438">
        <ele>103</ele>
        <time>2024-09-01T09:36:46Z</time>
      </trkpt>
      <trkpt lat="49.27546" lon="2.40435">
        <ele>103</ele>
        <time>2024-09-01T09:36:47Z</time>
      </trkpt>
      <trkpt lat="49.27546" lon="2.40433">
        <ele>103</ele>
        <time>2024-09-01T09:36:48Z</time>
      </trkpt>
      <trkpt lat="49.27547" lon="2.4043">
        <ele>103</ele>
        <time>2024-09-01T09:36:49Z</time>
      </trkpt>
      <trkpt lat="49.27547" lon="2.40428">
        <ele>103</ele>
        <time>2024-09-01T09:36:50Z</time>
      </trkpt>
      <trkpt lat="49.27548" lon="2.40426">
        <ele>103</ele>
        <time>2024-09-01T09:36:51Z</time>
      </trkpt>
      <trkpt lat="49.27548" lon="2.40423">
        <ele>103</ele>
        <time>2024-09-01T09:36:52Z</time>
      </trkpt>
      <trkpt lat="49.27549" lon="2.40421">
        <ele>103</ele>
        <time>2024-09-01T09:36:53Z</time>
      </trkpt>
      <trkpt lat="49.27549" lon="2.40419">
        <ele>103</ele>
        <time>2024-09-01T09:36:54Z</time>
      </trkpt>
      <trkpt lat="49.2755" lon="2.40417">
        <ele>103</ele>
        <time>2024-09-01T09:36:55Z</time>
      </trkpt>
      <trkpt lat="49.2755" lon="2.40414">
        <ele>103</ele>
        <time>2024-09-01T09:36:56Z</time>
      </trkpt>
      <trkpt lat="49.2755" lon="2.40412">
        <ele>103</ele>
        <time>2024-09-01T09:36:57Z</time>
      </trkpt>
      <trkpt lat="49.27551" lon="2.4041">
        <ele>103</ele>
        <time>2024-09-01T09:36:58Z</time>
      </trkpt>
      <trkpt lat="49.27551" lon="2.40408">
        <ele>103</ele>
        <time>2024-09-01T09:36:59Z</time>
      </trkpt>
      <trkpt lat="49.27552" lon="2.40406">
        <ele>103</ele>
        <time>2024-09-01T09:37:00Z</time>
      </trkpt>
      <trkpt lat="49.27552" lon="2.40404">
        <ele>103</ele>
        <time>2024-09-01T09:37:01Z</time>
      </trkpt>
      <trkpt lat="49.27553" lon="2.40402">
        <ele>103</ele>
        <time>2024-09-01T09:37:02Z</time>
      </trkpt>
      <trkpt lat="49.27553" lon="2.404">
        <ele>103</ele>
        <time>2024-09-01T09:37:03Z</time>
      </trkpt>
      <trkpt lat="49.27554" lon="2.40397">
        <ele>103</ele>
        <time>2024-09-01T09:37:04Z</time>
      </trkpt>
      <trkpt lat="49.27555" lon="2.40394">
        <ele>103</ele>
        <time>2024-09-01T09:37:05Z</time>
      </trkpt>
      <trkpt lat="49.27555" lon="2.40392">
        <ele>103</ele>
        <time>2024-09-01T09:37:06Z</time>
      </trkpt>
      <trkpt lat="49.27556" lon="2.40389">
        <ele>103</ele>
        <time>2024-09-01T09:37:07Z</time>
      </trkpt>
      <trkpt lat="49.27556" lon="2.40386">
        <ele>103.1</ele>
        <time>2024-09-01T09:37:08Z</time>
      </trkpt>
      <trkpt lat="49.27557" lon="2.40384">
        <ele>103.2</ele>
        <time>2024-09-01T09:37:09Z</time>
      </trkpt>
      <trkpt lat="49.27557" lon="2.40381">
        <ele>103.3</ele>
        <time>2024-09-01T09:37:10Z</time>
      </trkpt>
      <trkpt lat="49.27558" lon="2.40379">
        <ele>103.4</ele>
        <time>2024-09-01T09:37:11Z</time>
      </trkpt>
      <trkpt lat="49.27558" lon="2.40377">
        <ele>103.5</ele>
        <time>2024-09-01T09:37:12Z</time>
      </trkpt>
      <trkpt lat="49.27559" lon="2.40375">
        <ele>103.6</ele>
        <time>2024-09-01T09:37:13Z</time>
      </trkpt>
      <trkpt lat="49.27559" lon="2.40373">
        <ele>103.6</ele>
        <time>2024-09-01T09:37:14Z</time>
      </trkpt>
      <trkpt lat="49.2756" lon="2.40371">
        <ele>103.7</ele>
        <time>2024-09-01T09:37:15Z</time>
      </trkpt>
      <trkpt lat="49.2756" lon="2.40369">
        <ele>103.8</ele>
        <time>2024-09-01T09:37:16Z</time>
      </trkpt>
      <trkpt lat="49.27561" lon="2.40367">
        <ele>103.8</ele>
        <time>2024-09-01T09:37:17Z</time>
      </trkpt>
      <trkpt lat="49.27561" lon="2.40364">
        <ele>103.9</ele>
        <time>2024-09-01T09:37:18Z</time>
      </trkpt>
      <trkpt lat="49.27562" lon="2.40362">
        <ele>104</ele>
        <time>2024-09-01T09:37:19Z</time>
      </trkpt>
      <trkpt lat="49.27562" lon="2.40359">
        <ele>104</ele>
        <time>2024-09-01T09:37:20Z</time>
      </trkpt>
      <trkpt lat="49.27562" lon="2.40357">
        <ele>104.1</ele>
        <time>2024-09-01T09:37:21Z</time>
      </trkpt>
      <trkpt lat="49.27563" lon="2.40354">
        <ele>104.2</ele>
        <time>2024-09-01T09:37:22Z</time>
      </trkpt>
      <trkpt lat="49.27563" lon="2.40351">
        <ele>104.3</ele>
        <time>2024-09-01T09:37:23Z</time>
      </trkpt>
      <trkpt lat="49.27563" lon="2.40348">
        <ele>104.3</ele>
        <time>2024-09-01T09:37:24Z</time>
      </trkpt>
      <trkpt lat="49.27564" lon="2.40346">
        <ele>104.4</ele>
        <time>2024-09-01T09:37:25Z</time>
      </trkpt>
      <trkpt lat="49.27564" lon="2.40343">
        <ele>104.5</ele>
        <time>2024-09-01T09:37:26Z</time>
      </trkpt>
      <trkpt lat="49.27565" lon="2.4034">
        <ele>104.5</ele>
        <time>2024-09-01T09:37:27Z</time>
      </trkpt>
      <trkpt lat="49.27566" lon="2.40338">
        <ele>104.5</ele>
        <time>2024-09-01T09:37:28Z</time>
      </trkpt>
      <trkpt lat="49.27566" lon="2.40335">
        <ele>104.6</ele>
        <time>2024-09-01T09:37:29Z</time>
      </trkpt>
      <trkpt lat="49.27567" lon="2.40333">
        <ele>104.6</ele>
        <time>2024-09-01T09:37:30Z</time>
      </trkpt>
      <trkpt lat="49.27567" lon="2.40331">
        <ele>104.5</ele>
        <time>2024-09-01T09:37:31Z</time>
      </trkpt>
      <trkpt lat="49.27567" lon="2.40328">
        <ele>104.5</ele>
        <time>2024-09-01T09:37:32Z</time>
      </trkpt>
      <trkpt lat="49.27568" lon="2.40326">
        <ele>104.4</ele>
        <time>2024-09-01T09:37:33Z</time>
      </trkpt>
      <trkpt lat="49.27568" lon="2.40323">
        <ele>104.4</ele>
        <time>2024-09-01T09:37:34Z</time>
      </trkpt>
      <trkpt lat="49.27568" lon="2.40321">
        <ele>104.3</ele>
        <time>2024-09-01T09:37:35Z</time>
      </trkpt>
      <trkpt lat="49.27568" lon="2.40319">
        <ele>104.3</ele>
        <time>2024-09-01T09:37:36Z</time>
      </trkpt>
      <trkpt lat="49.27568" lon="2.40316">
        <ele>104.2</ele>
        <time>2024-09-01T09:37:37Z</time>
      </trkpt>
      <trkpt lat="49.27568" lon="2.40314">
        <ele>104.2</ele>
        <time>2024-09-01T09:37:38Z</time>
      </trkpt>
      <trkpt lat="49.27568" lon="2.40312">
        <ele>104.1</ele>
        <time>2024-09-01T09:37:39Z</time>
      </trkpt>
      <trkpt lat="49.27568" lon="2.4031">
        <ele>104.1</ele>
        <time>2024-09-01T09:37:40Z</time>
      </trkpt>
      <trkpt lat="49.27568" lon="2.40308">
        <ele>104</ele>
        <time>2024-09-01T09:37:41Z</time>
      </trkpt>
      <trkpt lat="49.27569" lon="2.40306">
        <ele>104</ele>
        <time>2024-09-01T09:37:42Z</time>
      </trkpt>
      <trkpt lat="49.27569" lon="2.40304">
        <ele>104</ele>
        <time>2024-09-01T09:37:43Z</time>
      </trkpt>
      <trkpt lat="49.27569" lon="2.40302">
        <ele>104</ele>
        <time>2024-09-01T09:37:44Z</time>
      </trkpt>
      <trkpt lat="49.27569" lon="2.403">
        <ele>104</ele>
        <time>2024-09-01T09:37:45Z</time>
      </trkpt>
      <trkpt lat="49.27569" lon="2.40297">
        <ele>104</ele>
        <time>2024-09-01T09:37:46Z</time>
      </trkpt>
      <trkpt lat="49.2757" lon="2.40295">
        <ele>104</ele>
        <time>2024-09-01T09:37:47Z</time>
      </trkpt>
      <trkpt lat="49.2757" lon="2.40293">
        <ele>104</ele>
        <time>2024-09-01T09:37:48Z</time>
      </trkpt>
      <trkpt lat="49.27571" lon="2.4029">
        <ele>104</ele>
        <time>2024-09-01T09:37:49Z</time>
      </trkpt>
      <trkpt lat="49.27571" lon="2.40288">
        <ele>103.9</ele>
        <time>2024-09-01T09:37:50Z</time>
      </trkpt>
      <trkpt lat="49.27571" lon="2.40285">
        <ele>103.9</ele>
        <time>2024-09-01T09:37:51Z</time>
      </trkpt>
      <trkpt lat="49.27572" lon="2.40282">
        <ele>103.9</ele>
        <time>2024-09-01T09:37:52Z</time>
      </trkpt>
      <trkpt lat="49.27572" lon="2.4028">
        <ele>103.8</ele>
        <time>2024-09-01T09:37:53Z</time>
      </trkpt>
      <trkpt lat="49.27572" lon="2.40278">
        <ele>103.8</ele>
        <time>2024-09-01T09:37:54Z</time>
      </trkpt>
      <trkpt lat="49.27572" lon="2.40275">
        <ele>103.7</ele>
        <time>2024-09-01T09:37:55Z</time>
      </trkpt>
      <trkpt lat="49.27572" lon="2.40273">
        <ele>103.6</ele>
        <time>2024-09-01T09:37:56Z</time>
      </trkpt>
      <trkpt lat="49.27572" lon="2.40271">
        <ele>103.5</ele>
        <time>2024-09-01T09:37:57Z</time>
      </trkpt>
      <trkpt lat="49.27572" lon="2.40268">
        <ele>103.4</ele>
        <time>2024-09-01T09:37:58Z</time>
      </trkpt>
      <trkpt lat="49.27572" lon="2.40266">
        <ele>103.3</ele>
        <time>2024-09-01T09:37:59Z</time>
      </trkpt>
      <trkpt lat="49.27572" lon="2.40263">
        <ele>103.2</ele>
        <time>2024-09-01T09:38:00Z</time>
      </trkpt>
      <trkpt lat="49.27571" lon="2.4026">
        <ele>103</ele>
        <time>2024-09-01T09:38:01Z</time>
      </trkpt>
      <trkpt lat="49.27571" lon="2.40257">
        <ele>102.9</ele>
        <time>2024-09-01T09:38:02Z</time>
      </trkpt>
      <trkpt lat="49.2757" lon="2.40254">
        <ele>102.7</ele>
        <time>2024-09-01T09:38:03Z</time>
      </trkpt>
      <trkpt lat="49.2757" lon="2.40251">
        <ele>102.6</ele>
        <time>2024-09-01T09:38:04Z</time>
      </trkpt>
      <trkpt lat="49.27569" lon="2.40248">
        <ele>102.5</ele>
        <time>2024-09-01T09:38:05Z</time>
      </trkpt>
      <trkpt lat="49.27569" lon="2.40245">
        <ele>102.4</ele>
        <time>2024-09-01T09:38:06Z</time>
      </trkpt>
      <trkpt lat="49.27568" lon="2.40242">
        <ele>102.3</ele>
        <time>2024-09-01T09:38:07Z</time>
      </trkpt>
      <trkpt lat="49.27567" lon="2.4024">
        <ele>102.3</ele>
        <time>2024-09-01T09:38:08Z</time>
      </trkpt>
      <trkpt lat="49.27567" lon="2.40237">
        <ele>102.2</ele>
        <time>2024-09-01T09:38:09Z</time>
      </trkpt>
      <trkpt lat="49.27566" lon="2.40235">
        <ele>102.2</ele>
        <time>2024-09-01T09:38:10Z</time>
      </trkpt>
      <trkpt lat="49.27566" lon="2.40233">
        <ele>102.1</ele>
        <time>2024-09-01T09:38:11Z</time>
      </trkpt>
      <trkpt lat="49.27565" lon="2.40231">
        <ele>102.1</ele>
        <time>2024-09-01T09:38:12Z</time>
      </trkpt>
      <trkpt lat="49.27565" lon="2.40228">
        <ele>102.1</ele>
        <time>2024-09-01T09:38:13Z</time>
      </trkpt>
      <trkpt lat="49.27565" lon="2.40226">
        <ele>102</ele>
        <time>2024-09-01T09:38:14Z</time>
      </trkpt>
      <trkpt lat="49.27564" lon="2.40224">
        <ele>102</ele>
        <time>2024-09-01T09:38:15Z</time>
      </trkpt>
      <trkpt lat="49.27564" lon="2.40222">
        <ele>102</ele>
        <time>2024-09-01T09:38:16Z</time>
      </trkpt>
      <trkpt lat="49.27563" lon="2.40219">
        <ele>101.9</ele>
        <time>2024-09-01T09:38:17Z</time>
      </trkpt>
      <trkpt lat="49.27563" lon="2.40217">
        <ele>101.9</ele>
        <time>2024-09-01T09:38:18Z</time>
      </trkpt>
      <trkpt lat="49.27562" lon="2.40214">
        <ele>101.8</ele>
        <time>2024-09-01T09:38:19Z</time>
      </trkpt>
      <trkpt lat="49.27562" lon="2.40212">
        <ele>101.7</ele>
        <time>2024-09-01T09:38:20Z</time>
      </trkpt>
      <trkpt lat="49.27561" lon="2.4021">
        <ele>101.6</ele>
        <time>2024-09-01T09:38:21Z</time>
      </trkpt>
      <trkpt lat="49.27561" lon="2.40207">
        <ele>101.6</ele>
        <time>2024-09-01T09:38:22Z</time>
      </trkpt>
      <trkpt lat="49.2756" lon="2.40205">
        <ele>101.5</ele>
        <time>2024-09-01T09:38:23Z</time>
      </trkpt>
      <trkpt lat="49.2756" lon="2.40202">
        <ele>101.4</ele>
        <time>2024-09-01T09:38:24Z</time>
      </trkpt>
      <trkpt lat="49.27559" lon="2.402">
        <ele>101.3</ele>
        <time>2024-09-01T09:38:25Z</time>
      </trkpt>
      <trkpt lat="49.27559" lon="2.40197">
        <ele>101.2</ele>
        <time>2024-09-01T09:38:26Z</time>
      </trkpt>
      <trkpt lat="49.27559" lon="2.40195">
        <ele>101.1</ele>
        <time>2024-09-01T09:38:27Z</time>
      </trkpt>
      <trkpt lat="49.27559" lon="2.40192">
        <ele>101</ele>
        <time>2024-09-01T09:38:28Z</time>
      </trkpt>
      <trkpt lat="49.27559" lon="2.4019">
        <ele>101</ele>
        <time>2024-09-01T09:38:29Z</time>
      </trkpt>
      <trkpt lat="49.27559" lon="2.40188">
        <ele>100.9</ele>
        <time>2024-09-01T09:38:30Z</time>
      </trkpt>
      <trkpt lat="49.27558" lon="2.40186">
        <ele>100.8</ele>
        <time>2024-09-01T09:38:31Z</time>
      </trkpt>
      <trkpt lat="49.27558" lon="2.40184">
        <ele>100.7</ele>
        <time>2024-09-01T09:38:32Z</time>
      </trkpt>
      <trkpt lat="49.27558" lon="2.40181">
        <ele>100.6</ele>
        <time>2024-09-01T09:38:33Z</time>
      </trkpt>
      <trkpt lat="49.27558" lon="2.40179">
        <ele>100.5</ele>
        <time>2024-09-01T09:38:34Z</time>
      </trkpt>
      <trkpt lat="49.27558" lon="2.40177">
        <ele>100.4</ele>
        <time>2024-09-01T09:38:35Z</time>
      </trkpt>
      <trkpt lat="49.27557" lon="2.40174">
        <ele>100.3</ele>
        <time>2024-09-01T09:38:36Z</time>
      </trkpt>
      <trkpt lat="49.27557" lon="2.40172">
        <ele>100.2</ele>
        <time>2024-09-01T09:38:37Z</time>
      </trkpt>
      <trkpt lat="49.27557" lon="2.4017">
        <ele>100.2</ele>
        <time>2024-09-01T09:38:38Z</time>
      </trkpt>
      <trkpt lat="49.27557" lon="2.40167">
        <ele>100.1</ele>
        <time>2024-09-01T09:38:39Z</time>
      </trkpt>
      <trkpt lat="49.27557" lon="2.40165">
        <ele>100</ele>
        <time>2024-09-01T09:38:40Z</time>
      </trkpt>
      <trkpt lat="49.27557" lon="2.40163">
        <ele>100</ele>
        <time>2024-09-01T09:38:41Z</time>
      </trkpt>
      <trkpt lat="49.27556" lon="2.40161">
        <ele>100</ele>
        <time>2024-09-01T09:38:42Z</time>
      </trkpt>
      <trkpt lat="49.27556" lon="2.40159">
        <ele>100</ele>
        <time>2024-09-01T09:38:43Z</time>
      </trkpt>
      <trkpt lat="49.27556" lon="2.40157">
        <ele>100</ele>
        <time>2024-09-01T09:38:44Z</time>
      </trkpt>
      <trkpt lat="49.27556" lon="2.40154">
        <ele>100</ele>
        <time>2024-09-01T09:38:45Z</time>
      </trkpt>
      <trkpt lat="49.27556" lon="2.40153">
        <ele>100</ele>
        <time>2024-09-01T09:38:46Z</time>
      </trkpt>
      <trkpt lat="49.27555" lon="2.40151">
        <ele>100</ele>
        <time>2024-09-01T09:38:47Z</time>
      </trkpt>
      <trkpt lat="49.27555" lon="2.40149">
        <ele>100</ele>
        <time>2024-09-01T09:38:48Z</time>
      </trkpt>
      <trkpt lat="49.27554" lon="2.40147">
        <ele>100</ele>
        <time>2024-09-01T09:38:49Z</time>
      </trkpt>
      <trkpt lat="49.27554" lon="2.40145">
        <ele>100</ele>
        <time>2024-09-01T09:38:50Z</time>
      </trkpt>
      <trkpt lat="49.27553" lon="2.40143">
        <ele>100</ele>
        <time>2024-09-01T09:38:51Z</time>
      </trkpt>
      <trkpt lat="49.27552" lon="2.4014">
        <ele>100</ele>
        <time>2024-09-01T09:38:52Z</time>
      </trkpt>
      <trkpt lat="49.27552" lon="2.40137">
        <ele>99.9</ele>
        <time>2024-09-01T09:38:53Z</time>
      </trkpt>
      <trkpt lat="49.27551" lon="2.40134">
        <ele>99.9</ele>
        <time>2024-09-01T09:38:54Z</time>
      </trkpt>
      <trkpt lat="49.27551" lon="2.40131">
        <ele>99.8</ele>
        <time>2024-09-01T09:38:55Z</time>
      </trkpt>
      <trkpt lat="49.2755" lon="2.40128">
        <ele>99.7</ele>
        <time>2024-09-01T09:38:56Z</time>
      </trkpt>
      <trkpt lat="49.2755" lon="2.40125">
        <ele>99.6</ele>
        <time>2024-09-01T09:38:57Z</time>
      </trkpt>
      <trkpt lat="49.27549" lon="2.40123">
        <ele>99.5</ele>
        <time>2024-09-01T09:38:58Z</time>
      </trkpt>
      <trkpt lat="49.27549" lon="2.4012">
        <ele>99.5</ele>
        <time>2024-09-01T09:38:59Z</time>
      </trkpt>
      <trkpt lat="49.27549" lon="2.40117">
        <ele>99.4</ele>
        <time>2024-09-01T09:39:00Z</time>
      </trkpt>
      <trkpt lat="49.27548" lon="2.40114">
        <ele>99.3</ele>
        <time>2024-09-01T09:39:01Z</time>
      </trkpt>
      <trkpt lat="49.27548" lon="2.40111">
        <ele>99.3</ele>
        <time>2024-09-01T09:39:02Z</time>
      </trkpt>
      <trkpt lat="49.27548" lon="2.40109">
        <ele>99.3</ele>
        <time>2024-09-01T09:39:03Z</time>
      </trkpt>
      <trkpt lat="49.27547" lon="2.40106">
        <ele>99.2</ele>
        <time>2024-09-01T09:39:04Z</time>
      </trkpt>
      <trkpt lat="49.27547" lon="2.40103">
        <ele>99.2</ele>
        <time>2024-09-01T09:39:05Z</time>
      </trkpt>
      <trkpt lat="49.27546" lon="2.401">
        <ele>99.2</ele>
        <time>2024-09-01T09:39:06Z</time>
      </trkpt>
      <trkpt lat="49.27549" lon="2.40085">
        <ele>99</ele>
        <time>2024-09-01T09:42:49Z</time>
      </trkpt>
      <trkpt lat="49.27549" lon="2.40084">
        <ele>99</ele>
        <time>2024-09-01T09:42:50Z</time>
      </trkpt>
      <trkpt lat="49.27549" lon="2.40083">
        <ele>99</ele>
        <time>2024-09-01T09:42:51Z</time>
      </trkpt>
      <trkpt lat="49.27549" lon="2.40081">
        <ele>99</ele>
        <time>2024-09-01T09:42:52Z</time>
      </trkpt>
      <trkpt lat="49.27549" lon="2.4008">
        <ele>99</ele>
        <time>2024-09-01T09:42:53Z</time>
      </trkpt>
      <trkpt lat="49.27549" lon="2.40078">
        <ele>99</ele>
        <time>2024-09-01T09:42:54Z</time>
      </trkpt>
      <trkpt lat="49.27549" lon="2.40076">
        <ele>99</ele>
        <time>2024-09-01T09:42:55Z</time>
      </trkpt>
      <trkpt lat="49.27549" lon="2.40074">
        <ele>99</ele>
        <time>2024-09-01T09:42:56Z</time>
      </trkpt>
      <trkpt lat="49.27549" lon="2.40072">
        <ele>99</ele>
        <time>2024-09-01T09:42:57Z</time>
      </trkpt>
      <trkpt lat="49.2755" lon="2.4007">
        <ele>99</ele>
        <time>2024-09-01T09:42:58Z</time>
      </trkpt>
      <trkpt lat="49.2755" lon="2.40068">
        <ele>99</ele>
        <time>2024-09-01T09:42:59Z</time>
      </trkpt>
      <trkpt lat="49.2755" lon="2.40065">
        <ele>99</ele>
        <time>2024-09-01T09:43:00Z</time>
      </trkpt>
      <trkpt lat="49.2755" lon="2.40062">
        <ele>99</ele>
        <time>2024-09-01T09:43:01Z</time>
      </trkpt>
      <trkpt lat="49.2755" lon="2.4006">
        <ele>99</ele>
        <time>2024-09-01T09:43:02Z</time>
      </trkpt>
      <trkpt lat="49.27551" lon="2.40057">
        <ele>99</ele>
        <time>2024-09-01T09:43:03Z</time>
      </trkpt>
      <trkpt lat="49.27551" lon="2.40055">
        <ele>99</ele>
        <time>2024-09-01T09:43:04Z</time>
      </trkpt>
      <trkpt lat="49.27551" lon="2.40052">
        <ele>99</ele>
        <time>2024-09-01T09:43:05Z</time>
      </trkpt>
      <trkpt lat="49.27551" lon="2.40049">
        <ele>99</ele>
        <time>2024-09-01T09:43:06Z</time>
      </trkpt>
      <trkpt lat="49.27551" lon="2.40047">
        <ele>99</ele>
        <time>2024-09-01T09:43:07Z</time>
      </trkpt>
      <trkpt lat="49.27551" lon="2.40044">
        <ele>99</ele>
        <time>2024-09-01T09:43:08Z</time>
      </trkpt>
      <trkpt lat="49.27551" lon="2.40042">
        <ele>99</ele>
        <time>2024-09-01T09:43:09Z</time>
      </trkpt>
      <trkpt lat="49.27551" lon="2.40039">
        <ele>99</ele>
        <time>2024-09-01T09:43:10Z</time>
      </trkpt>
      <trkpt lat="49.27551" lon="2.40037">
        <ele>99</ele>
        <time>2024-09-01T09:43:11Z</time>
      </trkpt>
      <trkpt lat="49.27551" lon="2.40034">
        <ele>99</ele>
        <time>2024-09-01T09:43:12Z</time>
      </trkpt>
      <trkpt lat="49.27551" lon="2.40031">
        <ele>99</ele>
        <time>2024-09-01T09:43:13Z</time>
      </trkpt>
      <trkpt lat="49.27551" lon="2.40029">
        <ele>99</ele>
        <time>2024-09-01T09:43:14Z</time>
      </trkpt>
      <trkpt lat="49.27551" lon="2.40026">
        <ele>99</ele>
        <time>2024-09-01T09:43:15Z</time>
      </trkpt>
      <trkpt lat="49.27551" lon="2.40024">
        <ele>99</ele>
        <time>2024-09-01T09:43:16Z</time>
      </trkpt>
      <trkpt lat="49.27551" lon="2.40022">
        <ele>99</ele>
        <time>2024-09-01T09:43:17Z</time>
      </trkpt>
      <trkpt lat="49.27551" lon="2.40019">
        <ele>99</ele>
        <time>2024-09-01T09:43:18Z</time>
      </trkpt>
      <trkpt lat="49.27552" lon="2.40017">
        <ele>99</ele>
        <time>2024-09-01T09:43:19Z</time>
      </trkpt>
      <trkpt lat="49.27552" lon="2.40015">
        <ele>99</ele>
        <time>2024-09-01T09:43:20Z</time>
      </trkpt>
      <trkpt lat="49.27552" lon="2.40012">
        <ele>99</ele>
        <time>2024-09-01T09:43:21Z</time>
      </trkpt>
      <trkpt lat="49.27552" lon="2.4001">
        <ele>99</ele>
        <time>2024-09-01T09:43:22Z</time>
      </trkpt>
      <trkpt lat="49.27552" lon="2.40007">
        <ele>99</ele>
        <time>2024-09-01T09:43:23Z</time>
      </trkpt>
      <trkpt lat="49.27552" lon="2.40005">
        <ele>99</ele>
        <time>2024-09-01T09:43:24Z</time>
      </trkpt>
      <trkpt lat="49.27552" lon="2.40002">
        <ele>99</ele>
        <time>2024-09-01T09:43:25Z</time>
      </trkpt>
      <trkpt lat="49.27553" lon="2.4">
        <ele>99</ele>
        <time>2024-09-01T09:43:26Z</time>
      </trkpt>
      <trkpt lat="49.27553" lon="2.39998">
        <ele>98.9</ele>
        <time>2024-09-01T09:43:27Z</time>
      </trkpt>
      <trkpt lat="49.27553" lon="2.39995">
        <ele>98.8</ele>
        <time>2024-09-01T09:43:28Z</time>
      </trkpt>
      <trkpt lat="49.27553" lon="2.39993">
        <ele>98.7</ele>
        <time>2024-09-01T09:43:29Z</time>
      </trkpt>
      <trkpt lat="49.27553" lon="2.3999">
        <ele>98.7</ele>
        <time>2024-09-01T09:43:30Z</time>
      </trkpt>
      <trkpt lat="49.27554" lon="2.39988">
        <ele>98.6</ele>
        <time>2024-09-01T09:43:31Z</time>
      </trkpt>
      <trkpt lat="49.27554" lon="2.39986">
        <ele>98.5</ele>
        <time>2024-09-01T09:43:32Z</time>
      </trkpt>
      <trkpt lat="49.27554" lon="2.39983">
        <ele>98.4</ele>
        <time>2024-09-01T09:43:33Z</time>
      </trkpt>
      <trkpt lat="49.27554" lon="2.39981">
        <ele>98.3</ele>
        <time>2024-09-01T09:43:34Z</time>
      </trkpt>
      <trkpt lat="49.27554" lon="2.39978">
        <ele>98.2</ele>
        <time>2024-09-01T09:43:35Z</time>
      </trkpt>
      <trkpt lat="49.27554" lon="2.39975">
        <ele>98.1</ele>
        <time>2024-09-01T09:43:36Z</time>
      </trkpt>
      <trkpt lat="49.27554" lon="2.39972">
        <ele>98</ele>
        <time>2024-09-01T09:43:37Z</time>
      </trkpt>
      <trkpt lat="49.27554" lon="2.3997">
        <ele>98.1</ele>
        <time>2024-09-01T09:43:38Z</time>
      </trkpt>
      <trkpt lat="49.27554" lon="2.39967">
        <ele>98.2</ele>
        <time>2024-09-01T09:43:39Z</time>
      </trkpt>
      <trkpt lat="49.27554" lon="2.39965">
        <ele>98.3</ele>
        <time>2024-09-01T09:43:40Z</time>
      </trkpt>
      <trkpt lat="49.27555" lon="2.39962">
        <ele>98.4</ele>
        <time>2024-09-01T09:43:41Z</time>
      </trkpt>
      <trkpt lat="49.27555" lon="2.3996">
        <ele>98.4</ele>
        <time>2024-09-01T09:43:42Z</time>
      </trkpt>
      <trkpt lat="49.27555" lon="2.39957">
        <ele>98.5</ele>
        <time>2024-09-01T09:43:43Z</time>
      </trkpt>
      <trkpt lat="49.27555" lon="2.39955">
        <ele>98.6</ele>
        <time>2024-09-01T09:43:44Z</time>
      </trkpt>
      <trkpt lat="49.27555" lon="2.39953">
        <ele>98.7</ele>
        <time>2024-09-01T09:43:45Z</time>
      </trkpt>
      <trkpt lat="49.27555" lon="2.3995">
        <ele>98.8</ele>
        <time>2024-09-01T09:43:46Z</time>
      </trkpt>
      <trkpt lat="49.27555" lon="2.39947">
        <ele>98.9</ele>
        <time>2024-09-01T09:43:47Z</time>
      </trkpt>
      <trkpt lat="49.27555" lon="2.39944">
        <ele>99</ele>
        <time>2024-09-01T09:43:48Z</time>
      </trkpt>
      <trkpt lat="49.27555" lon="2.39942">
        <ele>99</ele>
        <time>2024-09-01T09:43:49Z</time>
      </trkpt>
      <trkpt lat="49.27555" lon="2.39939">
        <ele>99</ele>
        <time>2024-09-01T09:43:50Z</time>
      </trkpt>
      <trkpt lat="49.27555" lon="2.39936">
        <ele>99</ele>
        <time>2024-09-01T09:43:51Z</time>
      </trkpt>
      <trkpt lat="49.27555" lon="2.39934">
        <ele>99</ele>
        <time>2024-09-01T09:43:52Z</time>
      </trkpt>
      <trkpt lat="49.27555" lon="2.39931">
        <ele>99</ele>
        <time>2024-09-01T09:43:53Z</time>
      </trkpt>
      <trkpt lat="49.27555" lon="2.39928">
        <ele>99</ele>
        <time>2024-09-01T09:43:54Z</time>
      </trkpt>
      <trkpt lat="49.27555" lon="2.39926">
        <ele>99</ele>
        <time>2024-09-01T09:43:55Z</time>
      </trkpt>
      <trkpt lat="49.27555" lon="2.39923">
        <ele>99</ele>
        <time>2024-09-01T09:43:56Z</time>
      </trkpt>
      <trkpt lat="49.27555" lon="2.39921">
        <ele>99</ele>
        <time>2024-09-01T09:43:57Z</time>
      </trkpt>
      <trkpt lat="49.27555" lon="2.39918">
        <ele>99</ele>
        <time>2024-09-01T09:43:58Z</time>
      </trkpt>
      <trkpt lat="49.27555" lon="2.39916">
        <ele>99</ele>
        <time>2024-09-01T09:43:59Z</time>
      </trkpt>
      <trkpt lat="49.27555" lon="2.39913">
        <ele>99</ele>
        <time>2024-09-01T09:44:00Z</time>
      </trkpt>
      <trkpt lat="49.27555" lon="2.39911">
        <ele>99</ele>
        <time>2024-09-01T09:44:01Z</time>
      </trkpt>
      <trkpt lat="49.27555" lon="2.39909">
        <ele>99</ele>
        <time>2024-09-01T09:44:02Z</time>
      </trkpt>
      <trkpt lat="49.27555" lon="2.39906">
        <ele>99</ele>
        <time>2024-09-01T09:44:03Z</time>
      </trkpt>
      <trkpt lat="49.27556" lon="2.39904">
        <ele>99</ele>
        <time>2024-09-01T09:44:04Z</time>
      </trkpt>
      <trkpt lat="49.27556" lon="2.39901">
        <ele>99</ele>
        <time>2024-09-01T09:44:05Z</time>
      </trkpt>
      <trkpt lat="49.27556" lon="2.39899">
        <ele>99</ele>
        <time>2024-09-01T09:44:06Z</time>
      </trkpt>
      <trkpt lat="49.27556" lon="2.39896">
        <ele>99</ele>
        <time>2024-09-01T09:44:07Z</time>
      </trkpt>
      <trkpt lat="49.27556" lon="2.39893">
        <ele>99</ele>
        <time>2024-09-01T09:44:08Z</time>
      </trkpt>
      <trkpt lat="49.27556" lon="2.39891">
        <ele>99</ele>
        <time>2024-09-01T09:44:09Z</time>
      </trkpt>
      <trkpt lat="49.27556" lon="2.39888">
        <ele>99</ele>
        <time>2024-09-01T09:44:10Z</time>
      </trkpt>
      <trkpt lat="49.27556" lon="2.39886">
        <ele>99</ele>
        <time>2024-09-01T09:44:11Z</time>
      </trkpt>
      <trkpt lat="49.27556" lon="2.39883">
        <ele>99</ele>
        <time>2024-09-01T09:44:12Z</time>
      </trkpt>
      <trkpt lat="49.27556" lon="2.39881">
        <ele>99</ele>
        <time>2024-09-01T09:44:13Z</time>
      </trkpt>
      <trkpt lat="49.27556" lon="2.39878">
        <ele>99</ele>
        <time>2024-09-01T09:44:14Z</time>
      </trkpt>
      <trkpt lat="49.27556" lon="2.39875">
        <ele>99</ele>
        <time>2024-09-01T09:44:15Z</time>
      </trkpt>
      <trkpt lat="49.27556" lon="2.39873">
        <ele>99</ele>
        <time>2024-09-01T09:44:16Z</time>
      </trkpt>
      <trkpt lat="49.27556" lon="2.3987">
        <ele>99</ele>
        <time>2024-09-01T09:44:17Z</time>
      </trkpt>
      <trkpt lat="49.27556" lon="2.39867">
        <ele>99</ele>
        <time>2024-09-01T09:44:18Z</time>
      </trkpt>
      <trkpt lat="49.27556" lon="2.39865">
        <ele>99</ele>
        <time>2024-09-01T09:44:19Z</time>
      </trkpt>
      <trkpt lat="49.27556" lon="2.39862">
        <ele>99</ele>
        <time>2024-09-01T09:44:20Z</time>
      </trkpt>
      <trkpt lat="49.27556" lon="2.39859">
        <ele>99</ele>
        <time>2024-09-01T09:44:21Z</time>
      </trkpt>
      <trkpt lat="49.27556" lon="2.39857">
        <ele>99</ele>
        <time>2024-09-01T09:44:22Z</time>
      </trkpt>
      <trkpt lat="49.27556" lon="2.39854">
        <ele>99</ele>
        <time>2024-09-01T09:44:23Z</time>
      </trkpt>
      <trkpt lat="49.27556" lon="2.39851">
        <ele>99</ele>
        <time>2024-09-01T09:44:24Z</time>
      </trkpt>
      <trkpt lat="49.27556" lon="2.39849">
        <ele>99</ele>
        <time>2024-09-01T09:44:25Z</time>
      </trkpt>
      <trkpt lat="49.27556" lon="2.39846">
        <ele>99</ele>
        <time>2024-09-01T09:44:26Z</time>
      </trkpt>
      <trkpt lat="49.27556" lon="2.39844">
        <ele>99</ele>
        <time>2024-09-01T09:44:27Z</time>
      </trkpt>
      <trkpt lat="49.27556" lon="2.39841">
        <ele>99</ele>
        <time>2024-09-01T09:44:28Z</time>
      </trkpt>
      <trkpt lat="49.27556" lon="2.39839">
        <ele>99</ele>
        <time>2024-09-01T09:44:29Z</time>
      </trkpt>
      <trkpt lat="49.27556" lon="2.39836">
        <ele>99</ele>
        <time>2024-09-01T09:44:30Z</time>
      </trkpt>
      <trkpt lat="49.27556" lon="2.39833">
        <ele>99</ele>
        <time>2024-09-01T09:44:31Z</time>
      </trkpt>
      <trkpt lat="49.27556" lon="2.39831">
        <ele>99.1</ele>
        <time>2024-09-01T09:44:32Z</time>
      </trkpt>
      <trkpt lat="49.27556" lon="2.39829">
        <ele>99.2</ele>
        <time>2024-09-01T09:44:33Z</time>
      </trkpt>
      <trkpt lat="49.27556" lon="2.39826">
        <ele>99.3</ele>
        <time>2024-09-01T09:44:34Z</time>
      </trkpt>
      <trkpt lat="49.27556" lon="2.39823">
        <ele>99.4</ele>
        <time>2024-09-01T09:44:35Z</time>
      </trkpt>
      <trkpt lat="49.27556" lon="2.39821">
        <ele>99.5</ele>
        <time>2024-09-01T09:44:36Z</time>
      </trkpt>
      <trkpt lat="49.27556" lon="2.39818">
        <ele>99.6</ele>
        <time>2024-09-01T09:44:37Z</time>
      </trkpt>
      <trkpt lat="49.27556" lon="2.39816">
        <ele>99.7</ele>
        <time>2024-09-01T09:44:38Z</time>
      </trkpt>
      <trkpt lat="49.27556" lon="2.39813">
        <ele>99.8</ele>
        <time>2024-09-01T09:44:39Z</time>
      </trkpt>
      <trkpt lat="49.27556" lon="2.39811">
        <ele>99.8</ele>
        <time>2024-09-01T09:44:40Z</time>
      </trkpt>
      <trkpt lat="49.27556" lon="2.39808">
        <ele>99.9</ele>
        <time>2024-09-01T09:44:41Z</time>
      </trkpt>
      <trkpt lat="49.27556" lon="2.39806">
        <ele>100</ele>
        <time>2024-09-01T09:44:42Z</time>
      </trkpt>
      <trkpt lat="49.27556" lon="2.39803">
        <ele>100</ele>
        <time>2024-09-01T09:44:43Z</time>
      </trkpt>
      <trkpt lat="49.27556" lon="2.39801">
        <ele>100</ele>
        <time>2024-09-01T09:44:44Z</time>
      </trkpt>
      <trkpt lat="49.27556" lon="2.39798">
        <ele>100</ele>
        <time>2024-09-01T09:44:45Z</time>
      </trkpt>
      <trkpt lat="49.27556" lon="2.39797">
        <ele>100</ele>
        <time>2024-09-01T09:44:46Z</time>
      </trkpt>
      <trkpt lat="49.27556" lon="2.39795">
        <ele>100</ele>
        <time>2024-09-01T09:44:47Z</time>
      </trkpt>
      <trkpt lat="49.27556" lon="2.39793">
        <ele>100</ele>
        <time>2024-09-01T09:44:48Z</time>
      </trkpt>
      <trkpt lat="49.27557" lon="2.39791">
        <ele>100</ele>
        <time>2024-09-01T09:44:49Z</time>
      </trkpt>
      <trkpt lat="49.27556" lon="2.39788">
        <ele>100</ele>
        <time>2024-09-01T09:44:50Z</time>
      </trkpt>
      <trkpt lat="49.27556" lon="2.39786">
        <ele>100</ele>
        <time>2024-09-01T09:44:51Z</time>
      </trkpt>
      <trkpt lat="49.27556" lon="2.39784">
        <ele>100</ele>
        <time>2024-09-01T09:44:52Z</time>
      </trkpt>
      <trkpt lat="49.27556" lon="2.39781">
        <ele>100</ele>
        <time>2024-09-01T09:44:53Z</time>
      </trkpt>
      <trkpt lat="49.27556" lon="2.39779">
        <ele>100</ele>
        <time>2024-09-01T09:44:54Z</time>
      </trkpt>
      <trkpt lat="49.27556" lon="2.39777">
        <ele>100.1</ele>
        <time>2024-09-01T09:44:55Z</time>
      </trkpt>
      <trkpt lat="49.27557" lon="2.39774">
        <ele>100.2</ele>
        <time>2024-09-01T09:44:56Z</time>
      </trkpt>
      <trkpt lat="49.27557" lon="2.39772">
        <ele>100.3</ele>
        <time>2024-09-01T09:44:57Z</time>
      </trkpt>
      <trkpt lat="49.27557" lon="2.3977">
        <ele>100.3</ele>
        <time>2024-09-01T09:44:58Z</time>
      </trkpt>
      <trkpt lat="49.27557" lon="2.39767">
        <ele>100.4</ele>
        <time>2024-09-01T09:44:59Z</time>
      </trkpt>
      <trkpt lat="49.27557" lon="2.39765">
        <ele>100.5</ele>
        <time>2024-09-01T09:45:00Z</time>
      </trkpt>
      <trkpt lat="49.27557" lon="2.39763">
        <ele>100.6</ele>
        <time>2024-09-01T09:45:01Z</time>
      </trkpt>
      <trkpt lat="49.27557" lon="2.3976">
        <ele>100.7</ele>
        <time>2024-09-01T09:45:02Z</time>
      </trkpt>
      <trkpt lat="49.27558" lon="2.39758">
        <ele>100.8</ele>
        <time>2024-09-01T09:45:03Z</time>
      </trkpt>
      <trkpt lat="49.27558" lon="2.39755">
        <ele>100.9</ele>
        <time>2024-09-01T09:45:04Z</time>
      </trkpt>
      <trkpt lat="49.27558" lon="2.39753">
        <ele>101</ele>
        <time>2024-09-01T09:45:05Z</time>
      </trkpt>
      <trkpt lat="49.27558" lon="2.3975">
        <ele>101.1</ele>
        <time>2024-09-01T09:45:06Z</time>
      </trkpt>
      <trkpt lat="49.27558" lon="2.39748">
        <ele>101.1</ele>
        <time>2024-09-01T09:45:07Z</time>
      </trkpt>
      <trkpt lat="49.27558" lon="2.39746">
        <ele>101.1</ele>
        <time>2024-09-01T09:45:08Z</time>
      </trkpt>
      <trkpt lat="49.27558" lon="2.39743">
        <ele>101.1</ele>
        <time>2024-09-01T09:45:09Z</time>
      </trkpt>
      <trkpt lat="49.27558" lon="2.39741">
        <ele>101.1</ele>
        <time>2024-09-01T09:45:10Z</time>
      </trkpt>
      <trkpt lat="49.27558" lon="2.39738">
        <ele>101.1</ele>
        <time>2024-09-01T09:45:11Z</time>
      </trkpt>
      <trkpt lat="49.27558" lon="2.39736">
        <ele>101.1</ele>
        <time>2024-09-01T09:45:12Z</time>
      </trkpt>
      <trkpt lat="49.27558" lon="2.39733">
        <ele>101.1</ele>
        <time>2024-09-01T09:45:13Z</time>
      </trkpt>
      <trkpt lat="49.27558" lon="2.39731">
        <ele>101.1</ele>
        <time>2024-09-01T09:45:14Z</time>
      </trkpt>
      <trkpt lat="49.27558" lon="2.39729">
        <ele>101.1</ele>
        <time>2024-09-01T09:45:15Z</time>
      </trkpt>
      <trkpt lat="49.27558" lon="2.39726">
        <ele>101.1</ele>
        <time>2024-09-01T09:45:16Z</time>
      </trkpt>
      <trkpt lat="49.27558" lon="2.39724">
        <ele>101.1</ele>
        <time>2024-09-01T09:45:17Z</time>
      </trkpt>
      <trkpt lat="49.27558" lon="2.39722">
        <ele>101.1</ele>
        <time>2024-09-01T09:45:18Z</time>
      </trkpt>
      <trkpt lat="49.27558" lon="2.39719">
        <ele>101.1</ele>
        <time>2024-09-01T09:45:19Z</time>
      </trkpt>
      <trkpt lat="49.27557" lon="2.39716">
        <ele>101.1</ele>
        <time>2024-09-01T09:45:20Z</time>
      </trkpt>
      <trkpt lat="49.27557" lon="2.39714">
        <ele>101.1</ele>
        <time>2024-09-01T09:45:21Z</time>
      </trkpt>
      <trkpt lat="49.27557" lon="2.39711">
        <ele>101</ele>
        <time>2024-09-01T09:45:22Z</time>
      </trkpt>
      <trkpt lat="49.27557" lon="2.39709">
        <ele>101</ele>
        <time>2024-09-01T09:45:23Z</time>
      </trkpt>
      <trkpt lat="49.27557" lon="2.39706">
        <ele>101</ele>
        <time>2024-09-01T09:45:24Z</time>
      </trkpt>
      <trkpt lat="49.27557" lon="2.39704">
        <ele>101</ele>
        <time>2024-09-01T09:45:25Z</time>
      </trkpt>
      <trkpt lat="49.27557" lon="2.39701">
        <ele>101</ele>
        <time>2024-09-01T09:45:26Z</time>
      </trkpt>
      <trkpt lat="49.27557" lon="2.39699">
        <ele>101</ele>
        <time>2024-09-01T09:45:27Z</time>
      </trkpt>
      <trkpt lat="49.27557" lon="2.39696">
        <ele>101</ele>
        <time>2024-09-01T09:45:28Z</time>
      </trkpt>
      <trkpt lat="49.27557" lon="2.39693">
        <ele>101</ele>
        <time>2024-09-01T09:45:29Z</time>
      </trkpt>
      <trkpt lat="49.27557" lon="2.39691">
        <ele>100.9</ele>
        <time>2024-09-01T09:45:30Z</time>
      </trkpt>
      <trkpt lat="49.27557" lon="2.39688">
        <ele>100.8</ele>
        <time>2024-09-01T09:45:31Z</time>
      </trkpt>
      <trkpt lat="49.27557" lon="2.39685">
        <ele>100.7</ele>
        <time>2024-09-01T09:45:32Z</time>
      </trkpt>
      <trkpt lat="49.27557" lon="2.39683">
        <ele>100.6</ele>
        <time>2024-09-01T09:45:33Z</time>
      </trkpt>
      <trkpt lat="49.27557" lon="2.3968">
        <ele>100.5</ele>
        <time>2024-09-01T09:45:34Z</time>
      </trkpt>
      <trkpt lat="49.27557" lon="2.39678">
        <ele>100.4</ele>
        <time>2024-09-01T09:45:35Z</time>
      </trkpt>
      <trkpt lat="49.27556" lon="2.39675">
        <ele>100.3</ele>
        <time>2024-09-01T09:45:36Z</time>
      </trkpt>
      <trkpt lat="49.27556" lon="2.39672">
        <ele>100.2</ele>
        <time>2024-09-01T09:45:37Z</time>
      </trkpt>
      <trkpt lat="49.27556" lon="2.39669">
        <ele>100.1</ele>
        <time>2024-09-01T09:45:38Z</time>
      </trkpt>
      <trkpt lat="49.27556" lon="2.39667">
        <ele>100.1</ele>
        <time>2024-09-01T09:45:39Z</time>
      </trkpt>
      <trkpt lat="49.27556" lon="2.39664">
        <ele>100</ele>
        <time>2024-09-01T09:45:40Z</time>
      </trkpt>
      <trkpt lat="49.27556" lon="2.39662">
        <ele>100</ele>
        <time>2024-09-01T09:45:41Z</time>
      </trkpt>
      <trkpt lat="49.27556" lon="2.39659">
        <ele>100</ele>
        <time>2024-09-01T09:45:42Z</time>
      </trkpt>
      <trkpt lat="49.27556" lon="2.39657">
        <ele>100.1</ele>
        <time>2024-09-01T09:45:43Z</time>
      </trkpt>
      <trkpt lat="49.27556" lon="2.39654">
        <ele>100.1</ele>
        <time>2024-09-01T09:45:44Z</time>
      </trkpt>
      <trkpt lat="49.27556" lon="2.39651">
        <ele>100.1</ele>
        <time>2024-09-01T09:45:45Z</time>
      </trkpt>
      <trkpt lat="49.27556" lon="2.39649">
        <ele>100.1</ele>
        <time>2024-09-01T09:45:46Z</time>
      </trkpt>
      <trkpt lat="49.27556" lon="2.39646">
        <ele>100.1</ele>
        <time>2024-09-01T09:45:47Z</time>
      </trkpt>
      <trkpt lat="49.27556" lon="2.39643">
        <ele>100</ele>
        <time>2024-09-01T09:45:48Z</time>
      </trkpt>
      <trkpt lat="49.27556" lon="2.3964">
        <ele>100</ele>
        <time>2024-09-01T09:45:49Z</time>
      </trkpt>
      <trkpt lat="49.27556" lon="2.39638">
        <ele>100</ele>
        <time>2024-09-01T09:45:50Z</time>
      </trkpt>
      <trkpt lat="49.27556" lon="2.39635">
        <ele>100</ele>
        <time>2024-09-01T09:45:51Z</time>
      </trkpt>
      <trkpt lat="49.27556" lon="2.39632">
        <ele>100</ele>
        <time>2024-09-01T09:45:52Z</time>
      </trkpt>
      <trkpt lat="49.27556" lon="2.3963">
        <ele>100</ele>
        <time>2024-09-01T09:45:53Z</time>
      </trkpt>
      <trkpt lat="49.27556" lon="2.39627">
        <ele>100</ele>
        <time>2024-09-01T09:45:54Z</time>
      </trkpt>
      <trkpt lat="49.27556" lon="2.39624">
        <ele>100</ele>
        <time>2024-09-01T09:45:55Z</time>
      </trkpt>
      <trkpt lat="49.27556" lon="2.39622">
        <ele>100</ele>
        <time>2024-09-01T09:45:56Z</time>
      </trkpt>
      <trkpt lat="49.27556" lon="2.39619">
        <ele>100</ele>
        <time>2024-09-01T09:45:57Z</time>
      </trkpt>
      <trkpt lat="49.27556" lon="2.39616">
        <ele>100</ele>
        <time>2024-09-01T09:45:58Z</time>
      </trkpt>
      <trkpt lat="49.27556" lon="2.39614">
        <ele>100</ele>
        <time>2024-09-01T09:45:59Z</time>
      </trkpt>
      <trkpt lat="49.27556" lon="2.39611">
        <ele>100</ele>
        <time>2024-09-01T09:46:00Z</time>
      </trkpt>
      <trkpt lat="49.27556" lon="2.39608">
        <ele>100</ele>
        <time>2024-09-01T09:46:01Z</time>
      </trkpt>
      <trkpt lat="49.27555" lon="2.39606">
        <ele>100</ele>
        <time>2024-09-01T09:46:02Z</time>
      </trkpt>
      <trkpt lat="49.27555" lon="2.39603">
        <ele>100</ele>
        <time>2024-09-01T09:46:03Z</time>
      </trkpt>
      <trkpt lat="49.27555" lon="2.396">
        <ele>100</ele>
        <time>2024-09-01T09:46:04Z</time>
      </trkpt>
      <trkpt lat="49.27555" lon="2.39598">
        <ele>100</ele>
        <time>2024-09-01T09:46:05Z</time>
      </trkpt>
      <trkpt lat="49.27554" lon="2.39595">
        <ele>100</ele>
        <time>2024-09-01T09:46:06Z</time>
      </trkpt>
      <trkpt lat="49.27554" lon="2.39593">
        <ele>99.9</ele>
        <time>2024-09-01T09:46:07Z</time>
      </trkpt>
      <trkpt lat="49.27554" lon="2.3959">
        <ele>99.9</ele>
        <time>2024-09-01T09:46:08Z</time>
      </trkpt>
      <trkpt lat="49.27553" lon="2.39588">
        <ele>99.9</ele>
        <time>2024-09-01T09:46:09Z</time>
      </trkpt>
      <trkpt lat="49.27553" lon="2.39585">
        <ele>99.9</ele>
        <time>2024-09-01T09:46:10Z</time>
      </trkpt>
      <trkpt lat="49.27553" lon="2.39582">
        <ele>99.9</ele>
        <time>2024-09-01T09:46:11Z</time>
      </trkpt>
      <trkpt lat="49.27553" lon="2.39579">
        <ele>99.9</ele>
        <time>2024-09-01T09:46:12Z</time>
      </trkpt>
      <trkpt lat="49.27553" lon="2.39577">
        <ele>99.9</ele>
        <time>2024-09-01T09:46:13Z</time>
      </trkpt>
      <trkpt lat="49.27553" lon="2.39574">
        <ele>99.9</ele>
        <time>2024-09-01T09:46:14Z</time>
      </trkpt>
      <trkpt lat="49.27553" lon="2.39571">
        <ele>99.9</ele>
        <time>2024-09-01T09:46:15Z</time>
      </trkpt>
      <trkpt lat="49.27553" lon="2.39568">
        <ele>99.9</ele>
        <time>2024-09-01T09:46:16Z</time>
      </trkpt>
      <trkpt lat="49.27553" lon="2.39566">
        <ele>99.9</ele>
        <time>2024-09-01T09:46:17Z</time>
      </trkpt>
      <trkpt lat="49.27553" lon="2.39563">
        <ele>99.9</ele>
        <time>2024-09-01T09:46:18Z</time>
      </trkpt>
      <trkpt lat="49.27553" lon="2.39561">
        <ele>99.9</ele>
        <time>2024-09-01T09:46:19Z</time>
      </trkpt>
      <trkpt lat="49.27552" lon="2.39558">
        <ele>99.9</ele>
        <time>2024-09-01T09:46:20Z</time>
      </trkpt>
      <trkpt lat="49.27552" lon="2.39555">
        <ele>99.9</ele>
        <time>2024-09-01T09:46:21Z</time>
      </trkpt>
      <trkpt lat="49.27552" lon="2.39552">
        <ele>99.9</ele>
        <time>2024-09-01T09:46:22Z</time>
      </trkpt>
      <trkpt lat="49.27552" lon="2.39549">
        <ele>99.9</ele>
        <time>2024-09-01T09:46:23Z</time>
      </trkpt>
      <trkpt lat="49.27552" lon="2.39547">
        <ele>99.9</ele>
        <time>2024-09-01T09:46:24Z</time>
      </trkpt>
      <trkpt lat="49.27552" lon="2.39544">
        <ele>99.9</ele>
        <time>2024-09-01T09:46:25Z</time>
      </trkpt>
      <trkpt lat="49.27552" lon="2.39541">
        <ele>99.9</ele>
        <time>2024-09-01T09:46:26Z</time>
      </trkpt>
      <trkpt lat="49.27552" lon="2.39538">
        <ele>99.9</ele>
        <time>2024-09-01T09:46:27Z</time>
      </trkpt>
      <trkpt lat="49.27552" lon="2.39535">
        <ele>99.9</ele>
        <time>2024-09-01T09:46:28Z</time>
      </trkpt>
      <trkpt lat="49.27552" lon="2.39532">
        <ele>99.9</ele>
        <time>2024-09-01T09:46:29Z</time>
      </trkpt>
      <trkpt lat="49.27552" lon="2.3953">
        <ele>99.9</ele>
        <time>2024-09-01T09:46:30Z</time>
      </trkpt>
      <trkpt lat="49.27552" lon="2.39527">
        <ele>99.9</ele>
        <time>2024-09-01T09:46:31Z</time>
      </trkpt>
      <trkpt lat="49.27552" lon="2.39524">
        <ele>99.9</ele>
        <time>2024-09-01T09:46:32Z</time>
      </trkpt>
      <trkpt lat="49.27552" lon="2.39522">
        <ele>99.8</ele>
        <time>2024-09-01T09:46:33Z</time>
      </trkpt>
      <trkpt lat="49.27552" lon="2.39519">
        <ele>99.8</ele>
        <time>2024-09-01T09:46:34Z</time>
      </trkpt>
      <trkpt lat="49.27551" lon="2.39516">
        <ele>99.8</ele>
        <time>2024-09-01T09:46:35Z</time>
      </trkpt>
      <trkpt lat="49.27551" lon="2.39513">
        <ele>99.8</ele>
        <time>2024-09-01T09:46:36Z</time>
      </trkpt>
      <trkpt lat="49.27552" lon="2.39511">
        <ele>99.8</ele>
        <time>2024-09-01T09:46:37Z</time>
      </trkpt>
      <trkpt lat="49.27551" lon="2.39508">
        <ele>99.7</ele>
        <time>2024-09-01T09:46:38Z</time>
      </trkpt>
      <trkpt lat="49.27551" lon="2.39506">
        <ele>99.7</ele>
        <time>2024-09-01T09:46:39Z</time>
      </trkpt>
      <trkpt lat="49.27551" lon="2.39503">
        <ele>99.7</ele>
        <time>2024-09-01T09:46:40Z</time>
      </trkpt>
      <trkpt lat="49.27551" lon="2.395">
        <ele>99.7</ele>
        <time>2024-09-01T09:46:41Z</time>
      </trkpt>
      <trkpt lat="49.27551" lon="2.39498">
        <ele>99.6</ele>
        <time>2024-09-01T09:46:42Z</time>
      </trkpt>
      <trkpt lat="49.2755" lon="2.39496">
        <ele>99.5</ele>
        <time>2024-09-01T09:46:43Z</time>
      </trkpt>
      <trkpt lat="49.2755" lon="2.39495">
        <ele>99.4</ele>
        <time>2024-09-01T09:46:44Z</time>
      </trkpt>
      <trkpt lat="49.2755" lon="2.39493">
        <ele>99.4</ele>
        <time>2024-09-01T09:46:45Z</time>
      </trkpt>
      <trkpt lat="49.2755" lon="2.39491">
        <ele>99.3</ele>
        <time>2024-09-01T09:46:46Z</time>
      </trkpt>
      <trkpt lat="49.2755" lon="2.3949">
        <ele>99.3</ele>
        <time>2024-09-01T09:46:47Z</time>
      </trkpt>
      <trkpt lat="49.27549" lon="2.39488">
        <ele>99.2</ele>
        <time>2024-09-01T09:46:48Z</time>
      </trkpt>
      <trkpt lat="49.27549" lon="2.39485">
        <ele>99.1</ele>
        <time>2024-09-01T09:46:49Z</time>
      </trkpt>
      <trkpt lat="49.27549" lon="2.39483">
        <ele>99.1</ele>
        <time>2024-09-01T09:46:50Z</time>
      </trkpt>
      <trkpt lat="49.27549" lon="2.3948">
        <ele>99</ele>
        <time>2024-09-01T09:46:51Z</time>
      </trkpt>
      <trkpt lat="49.27549" lon="2.39478">
        <ele>98.9</ele>
        <time>2024-09-01T09:46:52Z</time>
      </trkpt>
      <trkpt lat="49.27549" lon="2.39476">
        <ele>98.8</ele>
        <time>2024-09-01T09:46:53Z</time>
      </trkpt>
      <trkpt lat="49.27549" lon="2.39473">
        <ele>98.8</ele>
        <time>2024-09-01T09:46:54Z</time>
      </trkpt>
      <trkpt lat="49.27548" lon="2.39471">
        <ele>98.8</ele>
        <time>2024-09-01T09:46:55Z</time>
      </trkpt>
      <trkpt lat="49.27548" lon="2.39468">
        <ele>98.9</ele>
        <time>2024-09-01T09:46:56Z</time>
      </trkpt>
      <trkpt lat="49.27548" lon="2.39465">
        <ele>98.9</ele>
        <time>2024-09-01T09:46:57Z</time>
      </trkpt>
      <trkpt lat="49.27548" lon="2.39463">
        <ele>99</ele>
        <time>2024-09-01T09:46:58Z</time>
      </trkpt>
      <trkpt lat="49.27548" lon="2.3946">
        <ele>99.1</ele>
        <time>2024-09-01T09:46:59Z</time>
      </trkpt>
      <trkpt lat="49.27548" lon="2.39458">
        <ele>99.1</ele>
        <time>2024-09-01T09:47:00Z</time>
      </trkpt>
      <trkpt lat="49.27548" lon="2.39455">
        <ele>99.2</ele>
        <time>2024-09-01T09:47:01Z</time>
      </trkpt>
      <trkpt lat="49.27548" lon="2.39453">
        <ele>99.3</ele>
        <time>2024-09-01T09:47:02Z</time>
      </trkpt>
      <trkpt lat="49.27549" lon="2.3945">
        <ele>99.3</ele>
        <time>2024-09-01T09:47:03Z</time>
      </trkpt>
      <trkpt lat="49.27549" lon="2.39448">
        <ele>99.4</ele>
        <time>2024-09-01T09:47:04Z</time>
      </trkpt>
      <trkpt lat="49.27549" lon="2.39445">
        <ele>99.5</ele>
        <time>2024-09-01T09:47:05Z</time>
      </trkpt>
      <trkpt lat="49.27549" lon="2.39442">
        <ele>99.5</ele>
        <time>2024-09-01T09:47:06Z</time>
      </trkpt>
      <trkpt lat="49.27548" lon="2.3944">
        <ele>99.5</ele>
        <time>2024-09-01T09:47:07Z</time>
      </trkpt>
      <trkpt lat="49.27548" lon="2.39438">
        <ele>99.5</ele>
        <time>2024-09-01T09:47:08Z</time>
      </trkpt>
      <trkpt lat="49.27548" lon="2.39435">
        <ele>99.5</ele>
        <time>2024-09-01T09:47:09Z</time>
      </trkpt>
      <trkpt lat="49.27548" lon="2.39433">
        <ele>99.5</ele>
        <time>2024-09-01T09:47:10Z</time>
      </trkpt>
      <trkpt lat="49.27548" lon="2.39431">
        <ele>99.5</ele>
        <time>2024-09-01T09:47:11Z</time>
      </trkpt>
      <trkpt lat="49.27548" lon="2.39428">
        <ele>99.5</ele>
        <time>2024-09-01T09:47:12Z</time>
      </trkpt>
      <trkpt lat="49.27548" lon="2.39425">
        <ele>99.5</ele>
        <time>2024-09-01T09:47:13Z</time>
      </trkpt>
      <trkpt lat="49.27548" lon="2.39423">
        <ele>99.5</ele>
        <time>2024-09-01T09:47:14Z</time>
      </trkpt>
      <trkpt lat="49.27548" lon="2.3942">
        <ele>99.5</ele>
        <time>2024-09-01T09:47:15Z</time>
      </trkpt>
      <trkpt lat="49.27548" lon="2.39418">
        <ele>99.5</ele>
        <time>2024-09-01T09:47:16Z</time>
      </trkpt>
      <trkpt lat="49.27548" lon="2.39415">
        <ele>99.4</ele>
        <time>2024-09-01T09:47:17Z</time>
      </trkpt>
      <trkpt lat="49.27548" lon="2.39413">
        <ele>99.4</ele>
        <time>2024-09-01T09:47:18Z</time>
      </trkpt>
      <trkpt lat="49.27548" lon="2.3941">
        <ele>99.3</ele>
        <time>2024-09-01T09:47:19Z</time>
      </trkpt>
      <trkpt lat="49.27548" lon="2.39408">
        <ele>99.2</ele>
        <time>2024-09-01T09:47:20Z</time>
      </trkpt>
      <trkpt lat="49.27548" lon="2.39406">
        <ele>99.2</ele>
        <time>2024-09-01T09:47:21Z</time>
      </trkpt>
      <trkpt lat="49.27548" lon="2.39403">
        <ele>99.1</ele>
        <time>2024-09-01T09:47:22Z</time>
      </trkpt>
      <trkpt lat="49.27548" lon="2.39401">
        <ele>99</ele>
        <time>2024-09-01T09:47:23Z</time>
      </trkpt>
      <trkpt lat="49.27548" lon="2.39398">
        <ele>98.9</ele>
        <time>2024-09-01T09:47:24Z</time>
      </trkpt>
      <trkpt lat="49.27547" lon="2.39396">
        <ele>98.9</ele>
        <time>2024-09-01T09:47:25Z</time>
      </trkpt>
      <trkpt lat="49.27547" lon="2.39393">
        <ele>98.8</ele>
        <time>2024-09-01T09:47:26Z</time>
      </trkpt>
      <trkpt lat="49.27547" lon="2.39391">
        <ele>98.7</ele>
        <time>2024-09-01T09:47:27Z</time>
      </trkpt>
      <trkpt lat="49.27547" lon="2.39389">
        <ele>98.7</ele>
        <time>2024-09-01T09:47:28Z</time>
      </trkpt>
      <trkpt lat="49.27547" lon="2.39386">
        <ele>98.7</ele>
        <time>2024-09-01T09:47:29Z</time>
      </trkpt>
      <trkpt lat="49.27547" lon="2.39384">
        <ele>98.7</ele>
        <time>2024-09-01T09:47:30Z</time>
      </trkpt>
      <trkpt lat="49.27548" lon="2.39381">
        <ele>98.7</ele>
        <time>2024-09-01T09:47:31Z</time>
      </trkpt>
      <trkpt lat="49.27548" lon="2.39379">
        <ele>98.7</ele>
        <time>2024-09-01T09:47:32Z</time>
      </trkpt>
      <trkpt lat="49.27548" lon="2.39376">
        <ele>98.7</ele>
        <time>2024-09-01T09:47:33Z</time>
      </trkpt>
      <trkpt lat="49.27548" lon="2.39374">
        <ele>98.7</ele>
        <time>2024-09-01T09:47:34Z</time>
      </trkpt>
      <trkpt lat="49.27549" lon="2.39372">
        <ele>98.8</ele>
        <time>2024-09-01T09:47:35Z</time>
      </trkpt>
      <trkpt lat="49.27549" lon="2.39369">
        <ele>98.8</ele>
        <time>2024-09-01T09:47:36Z</time>
      </trkpt>
      <trkpt lat="49.2755" lon="2.39367">
        <ele>98.8</ele>
        <time>2024-09-01T09:47:37Z</time>
      </trkpt>
      <trkpt lat="49.2755" lon="2.39365">
        <ele>98.8</ele>
        <time>2024-09-01T09:47:38Z</time>
      </trkpt>
      <trkpt lat="49.2755" lon="2.39363">
        <ele>98.8</ele>
        <time>2024-09-01T09:47:39Z</time>
      </trkpt>
      <trkpt lat="49.2755" lon="2.3936">
        <ele>98.8</ele>
        <time>2024-09-01T09:47:40Z</time>
      </trkpt>
      <trkpt lat="49.27551" lon="2.39358">
        <ele>98.8</ele>
        <time>2024-09-01T09:47:41Z</time>
      </trkpt>
      <trkpt lat="49.27551" lon="2.39355">
        <ele>98.8</ele>
        <time>2024-09-01T09:47:42Z</time>
      </trkpt>
      <trkpt lat="49.27551" lon="2.39353">
        <ele>98.9</ele>
        <time>2024-09-01T09:47:43Z</time>
      </trkpt>
      <trkpt lat="49.27552" lon="2.3935">
        <ele>98.9</ele>
        <time>2024-09-01T09:47:44Z</time>
      </trkpt>
      <trkpt lat="49.27552" lon="2.39347">
        <ele>98.9</ele>
        <time>2024-09-01T09:47:45Z</time>
      </trkpt>
      <trkpt lat="49.27553" lon="2.39345">
        <ele>98.9</ele>
        <time>2024-09-01T09:47:46Z</time>
      </trkpt>
      <trkpt lat="49.27553" lon="2.39343">
        <ele>98.9</ele>
        <time>2024-09-01T09:47:47Z</time>
      </trkpt>
      <trkpt lat="49.27554" lon="2.39341">
        <ele>98.9</ele>
        <time>2024-09-01T09:47:48Z</time>
      </trkpt>
      <trkpt lat="49.27554" lon="2.39338">
        <ele>98.9</ele>
        <time>2024-09-01T09:47:49Z</time>
      </trkpt>
      <trkpt lat="49.27555" lon="2.39336">
        <ele>99</ele>
        <time>2024-09-01T09:47:50Z</time>
      </trkpt>
      <trkpt lat="49.27555" lon="2.39333">
        <ele>99</ele>
        <time>2024-09-01T09:47:51Z</time>
      </trkpt>
      <trkpt lat="49.27555" lon="2.39331">
        <ele>98.9</ele>
        <time>2024-09-01T09:47:52Z</time>
      </trkpt>
      <trkpt lat="49.27556" lon="2.39328">
        <ele>98.8</ele>
        <time>2024-09-01T09:47:53Z</time>
      </trkpt>
      <trkpt lat="49.27556" lon="2.39326">
        <ele>98.7</ele>
        <time>2024-09-01T09:47:54Z</time>
      </trkpt>
      <trkpt lat="49.27557" lon="2.39324">
        <ele>98.7</ele>
        <time>2024-09-01T09:47:55Z</time>
      </trkpt>
      <trkpt lat="49.27557" lon="2.39322">
        <ele>98.6</ele>
        <time>2024-09-01T09:47:56Z</time>
      </trkpt>
      <trkpt lat="49.27558" lon="2.3932">
        <ele>98.5</ele>
        <time>2024-09-01T09:47:57Z</time>
      </trkpt>
      <trkpt lat="49.27558" lon="2.39318">
        <ele>98.5</ele>
        <time>2024-09-01T09:47:58Z</time>
      </trkpt>
      <trkpt lat="49.27559" lon="2.39316">
        <ele>98.4</ele>
        <time>2024-09-01T09:47:59Z</time>
      </trkpt>
      <trkpt lat="49.27559" lon="2.39313">
        <ele>98.4</ele>
        <time>2024-09-01T09:48:00Z</time>
      </trkpt>
      <trkpt lat="49.2756" lon="2.39311">
        <ele>98.3</ele>
        <time>2024-09-01T09:48:01Z</time>
      </trkpt>
      <trkpt lat="49.27561" lon="2.39309">
        <ele>98.3</ele>
        <time>2024-09-01T09:48:02Z</time>
      </trkpt>
      <trkpt lat="49.27561" lon="2.39307">
        <ele>98.2</ele>
        <time>2024-09-01T09:48:03Z</time>
      </trkpt>
      <trkpt lat="49.27562" lon="2.39305">
        <ele>98.2</ele>
        <time>2024-09-01T09:48:04Z</time>
      </trkpt>
      <trkpt lat="49.27562" lon="2.39302">
        <ele>98.2</ele>
        <time>2024-09-01T09:48:05Z</time>
      </trkpt>
      <trkpt lat="49.27563" lon="2.393">
        <ele>98.2</ele>
        <time>2024-09-01T09:48:06Z</time>
      </trkpt>
      <trkpt lat="49.27563" lon="2.39298">
        <ele>98.3</ele>
        <time>2024-09-01T09:48:07Z</time>
      </trkpt>
      <trkpt lat="49.27564" lon="2.39296">
        <ele>98.3</ele>
        <time>2024-09-01T09:48:08Z</time>
      </trkpt>
      <trkpt lat="49.27564" lon="2.39294">
        <ele>98.3</ele>
        <time>2024-09-01T09:48:09Z</time>
      </trkpt>
      <trkpt lat="49.27565" lon="2.39292">
        <ele>98.3</ele>
        <time>2024-09-01T09:48:10Z</time>
      </trkpt>
      <trkpt lat="49.27566" lon="2.3929">
        <ele>98.4</ele>
        <time>2024-09-01T09:48:11Z</time>
      </trkpt>
      <trkpt lat="49.27567" lon="2.39289">
        <ele>98.4</ele>
        <time>2024-09-01T09:48:12Z</time>
      </trkpt>
      <trkpt lat="49.27568" lon="2.39287">
        <ele>98.5</ele>
        <time>2024-09-01T09:48:13Z</time>
      </trkpt>
      <trkpt lat="49.2757" lon="2.39286">
        <ele>98.5</ele>
        <time>2024-09-01T09:48:14Z</time>
      </trkpt>
      <trkpt lat="49.27571" lon="2.39285">
        <ele>98.6</ele>
        <time>2024-09-01T09:48:15Z</time>
      </trkpt>
      <trkpt lat="49.27573" lon="2.39285">
        <ele>98.6</ele>
        <time>2024-09-01T09:48:16Z</time>
      </trkpt>
      <trkpt lat="49.27574" lon="2.39285">
        <ele>98.7</ele>
        <time>2024-09-01T09:48:17Z</time>
      </trkpt>
      <trkpt lat="49.27575" lon="2.39286">
        <ele>98.7</ele>
        <time>2024-09-01T09:48:18Z</time>
      </trkpt>
      <trkpt lat="49.27577" lon="2.39286">
        <ele>98.8</ele>
        <time>2024-09-01T09:48:19Z</time>
      </trkpt>
      <trkpt lat="49.27578" lon="2.39287">
        <ele>98.8</ele>
        <time>2024-09-01T09:48:20Z</time>
      </trkpt>
      <trkpt lat="49.27579" lon="2.39288">
        <ele>98.8</ele>
        <time>2024-09-01T09:48:21Z</time>
      </trkpt>
      <trkpt lat="49.2758" lon="2.39289">
        <ele>98.9</ele>
        <time>2024-09-01T09:48:22Z</time>
      </trkpt>
      <trkpt lat="49.27582" lon="2.39289">
        <ele>98.9</ele>
        <time>2024-09-01T09:48:23Z</time>
      </trkpt>
      <trkpt lat="49.27583" lon="2.3929">
        <ele>99</ele>
        <time>2024-09-01T09:48:24Z</time>
      </trkpt>
      <trkpt lat="49.27584" lon="2.3929">
        <ele>99</ele>
        <time>2024-09-01T09:48:25Z</time>
      </trkpt>
      <trkpt lat="49.27586" lon="2.39291">
        <ele>99</ele>
        <time>2024-09-01T09:48:26Z</time>
      </trkpt>
      <trkpt lat="49.27587" lon="2.39291">
        <ele>99</ele>
        <time>2024-09-01T09:48:27Z</time>
      </trkpt>
      <trkpt lat="49.27588" lon="2.39292">
        <ele>99</ele>
        <time>2024-09-01T09:48:28Z</time>
      </trkpt>
      <trkpt lat="49.2759" lon="2.39292">
        <ele>99</ele>
        <time>2024-09-01T09:48:29Z</time>
      </trkpt>
      <trkpt lat="49.27591" lon="2.39292">
        <ele>99</ele>
        <time>2024-09-01T09:48:30Z</time>
      </trkpt>
      <trkpt lat="49.27592" lon="2.39293">
        <ele>99</ele>
        <time>2024-09-01T09:48:31Z</time>
      </trkpt>
      <trkpt lat="49.27593" lon="2.39293">
        <ele>99</ele>
        <time>2024-09-01T09:48:32Z</time>
      </trkpt>
      <trkpt lat="49.27594" lon="2.39293">
        <ele>99</ele>
        <time>2024-09-01T09:48:33Z</time>
      </trkpt>
      <trkpt lat="49.27595" lon="2.39293">
        <ele>99</ele>
        <time>2024-09-01T09:48:34Z</time>
      </trkpt>
      <trkpt lat="49.27596" lon="2.39294">
        <ele>99</ele>
        <time>2024-09-01T09:48:35Z</time>
      </trkpt>
      <trkpt lat="49.27597" lon="2.39294">
        <ele>99</ele>
        <time>2024-09-01T09:48:36Z</time>
      </trkpt>
      <trkpt lat="49.27598" lon="2.39294">
        <ele>99</ele>
        <time>2024-09-01T09:48:37Z</time>
      </trkpt>
      <trkpt lat="49.27599" lon="2.39295">
        <ele>99</ele>
        <time>2024-09-01T09:48:38Z</time>
      </trkpt>
      <trkpt lat="49.276" lon="2.39295">
        <ele>99</ele>
        <time>2024-09-01T09:48:39Z</time>
      </trkpt>
      <trkpt lat="49.27602" lon="2.39295">
        <ele>99</ele>
        <time>2024-09-01T09:48:40Z</time>
      </trkpt>
      <trkpt lat="49.27603" lon="2.39296">
        <ele>99</ele>
        <time>2024-09-01T09:48:41Z</time>
      </trkpt>
      <trkpt lat="49.27605" lon="2.39297">
        <ele>99</ele>
        <time>2024-09-01T09:48:42Z</time>
      </trkpt>
      <trkpt lat="49.27606" lon="2.39297">
        <ele>99</ele>
        <time>2024-09-01T09:48:43Z</time>
      </trkpt>
      <trkpt lat="49.27607" lon="2.39298">
        <ele>99</ele>
        <time>2024-09-01T09:48:44Z</time>
      </trkpt>
      <trkpt lat="49.27608" lon="2.39298">
        <ele>99</ele>
        <time>2024-09-01T09:48:45Z</time>
      </trkpt>
      <trkpt lat="49.27609" lon="2.39298">
        <ele>99</ele>
        <time>2024-09-01T09:48:46Z</time>
      </trkpt>
      <trkpt lat="49.2761" lon="2.39299">
        <ele>99</ele>
        <time>2024-09-01T09:48:47Z</time>
      </trkpt>
      <trkpt lat="49.27612" lon="2.39299">
        <ele>99</ele>
        <time>2024-09-01T09:48:48Z</time>
      </trkpt>
      <trkpt lat="49.27613" lon="2.393">
        <ele>99</ele>
        <time>2024-09-01T09:48:49Z</time>
      </trkpt>
      <trkpt lat="49.27614" lon="2.39301">
        <ele>99.1</ele>
        <time>2024-09-01T09:48:50Z</time>
      </trkpt>
      <trkpt lat="49.27615" lon="2.39301">
        <ele>99.1</ele>
        <time>2024-09-01T09:48:51Z</time>
      </trkpt>
      <trkpt lat="49.27617" lon="2.39302">
        <ele>99.2</ele>
        <time>2024-09-01T09:48:52Z</time>
      </trkpt>
      <trkpt lat="49.27618" lon="2.39303">
        <ele>99.2</ele>
        <time>2024-09-01T09:48:53Z</time>
      </trkpt>
      <trkpt lat="49.2762" lon="2.39304">
        <ele>99.3</ele>
        <time>2024-09-01T09:48:54Z</time>
      </trkpt>
      <trkpt lat="49.27621" lon="2.39305">
        <ele>99.4</ele>
        <time>2024-09-01T09:48:55Z</time>
      </trkpt>
      <trkpt lat="49.27622" lon="2.39306">
        <ele>99.4</ele>
        <time>2024-09-01T09:48:56Z</time>
      </trkpt>
      <trkpt lat="49.27624" lon="2.39307">
        <ele>99.5</ele>
        <time>2024-09-01T09:48:57Z</time>
      </trkpt>
      <trkpt lat="49.27625" lon="2.39307">
        <ele>99.5</ele>
        <time>2024-09-01T09:48:58Z</time>
      </trkpt>
      <trkpt lat="49.27626" lon="2.39308">
        <ele>99.6</ele>
        <time>2024-09-01T09:48:59Z</time>
      </trkpt>
      <trkpt lat="49.27628" lon="2.39309">
        <ele>99.6</ele>
        <time>2024-09-01T09:49:00Z</time>
      </trkpt>
      <trkpt lat="49.27629" lon="2.39309">
        <ele>99.7</ele>
        <time>2024-09-01T09:49:01Z</time>
      </trkpt>
      <trkpt lat="49.2763" lon="2.3931">
        <ele>99.7</ele>
        <time>2024-09-01T09:49:02Z</time>
      </trkpt>
      <trkpt lat="49.27632" lon="2.39311">
        <ele>99.8</ele>
        <time>2024-09-01T09:49:03Z</time>
      </trkpt>
      <trkpt lat="49.27633" lon="2.39311">
        <ele>99.8</ele>
        <time>2024-09-01T09:49:04Z</time>
      </trkpt>
      <trkpt lat="49.27635" lon="2.39312">
        <ele>99.9</ele>
        <time>2024-09-01T09:49:05Z</time>
      </trkpt>
      <trkpt lat="49.27636" lon="2.39312">
        <ele>99.9</ele>
        <time>2024-09-01T09:49:06Z</time>
      </trkpt>
      <trkpt lat="49.27638" lon="2.39313">
        <ele>100</ele>
        <time>2024-09-01T09:49:07Z</time>
      </trkpt>
      <trkpt lat="49.27639" lon="2.39313">
        <ele>100</ele>
        <time>2024-09-01T09:49:08Z</time>
      </trkpt>
      <trkpt lat="49.2764" lon="2.39314">
        <ele>100</ele>
        <time>2024-09-01T09:49:09Z</time>
      </trkpt>
      <trkpt lat="49.27642" lon="2.39314">
        <ele>100</ele>
        <time>2024-09-01T09:49:10Z</time>
      </trkpt>
      <trkpt lat="49.27643" lon="2.39315">
        <ele>100</ele>
        <time>2024-09-01T09:49:11Z</time>
      </trkpt>
      <trkpt lat="49.27644" lon="2.39315">
        <ele>100.1</ele>
        <time>2024-09-01T09:49:12Z</time>
      </trkpt>
      <trkpt lat="49.27645" lon="2.39316">
        <ele>100.1</ele>
        <time>2024-09-01T09:49:13Z</time>
      </trkpt>
      <trkpt lat="49.27646" lon="2.39317">
        <ele>100.1</ele>
        <time>2024-09-01T09:49:14Z</time>
      </trkpt>
      <trkpt lat="49.27648" lon="2.39317">
        <ele>100.1</ele>
        <time>2024-09-01T09:49:15Z</time>
      </trkpt>
      <trkpt lat="49.27649" lon="2.39318">
        <ele>100.2</ele>
        <time>2024-09-01T09:49:16Z</time>
      </trkpt>
      <trkpt lat="49.27651" lon="2.39319">
        <ele>100.2</ele>
        <time>2024-09-01T09:49:17Z</time>
      </trkpt>
      <trkpt lat="49.27653" lon="2.3932">
        <ele>100.3</ele>
        <time>2024-09-01T09:49:18Z</time>
      </trkpt>
      <trkpt lat="49.27654" lon="2.39321">
        <ele>100.3</ele>
        <time>2024-09-01T09:49:19Z</time>
      </trkpt>
      <trkpt lat="49.27657" lon="2.39322">
        <ele>100.4</ele>
        <time>2024-09-01T09:49:20Z</time>
      </trkpt>
      <trkpt lat="49.27659" lon="2.39323">
        <ele>100.4</ele>
        <time>2024-09-01T09:49:21Z</time>
      </trkpt>
      <trkpt lat="49.27661" lon="2.39324">
        <ele>100.5</ele>
        <time>2024-09-01T09:49:22Z</time>
      </trkpt>
      <trkpt lat="49.27662" lon="2.39325">
        <ele>100.6</ele>
        <time>2024-09-01T09:49:23Z</time>
      </trkpt>
      <trkpt lat="49.27664" lon="2.39326">
        <ele>100.7</ele>
        <time>2024-09-01T09:49:24Z</time>
      </trkpt>
      <trkpt lat="49.27666" lon="2.39327">
        <ele>100.8</ele>
        <time>2024-09-01T09:49:25Z</time>
      </trkpt>
      <trkpt lat="49.27668" lon="2.39328">
        <ele>100.8</ele>
        <time>2024-09-01T09:49:26Z</time>
      </trkpt>
      <trkpt lat="49.27669" lon="2.3933">
        <ele>100.9</ele>
        <time>2024-09-01T09:49:27Z</time>
      </trkpt>
      <trkpt lat="49.2767" lon="2.39331">
        <ele>100.9</ele>
        <time>2024-09-01T09:49:28Z</time>
      </trkpt>
      <trkpt lat="49.27672" lon="2.39331">
        <ele>100.9</ele>
        <time>2024-09-01T09:49:29Z</time>
      </trkpt>
      <trkpt lat="49.27672" lon="2.39332">
        <ele>101</ele>
        <time>2024-09-01T09:49:30Z</time>
      </trkpt>
      <trkpt lat="49.27673" lon="2.39333">
        <ele>101</ele>
        <time>2024-09-01T09:49:31Z</time>
      </trkpt>
      <trkpt lat="49.27673" lon="2.39333">
        <ele>101</ele>
        <time>2024-09-01T09:49:32Z</time>
      </trkpt>
      <trkpt lat="49.27674" lon="2.39333">
        <ele>101</ele>
        <time>2024-09-01T09:49:33Z</time>
      </trkpt>
      <trkpt lat="49.27674" lon="2.39334">
        <ele>101</ele>
        <time>2024-09-01T09:49:34Z</time>
      </trkpt>
      <trkpt lat="49.27675" lon="2.39334">
        <ele>101</ele>
        <time>2024-09-01T09:49:35Z</time>
      </trkpt>
      <trkpt lat="49.27677" lon="2.39335">
        <ele>101</ele>
        <time>2024-09-01T09:49:36Z</time>
      </trkpt>
      <trkpt lat="49.27678" lon="2.39336">
        <ele>101</ele>
        <time>2024-09-01T09:49:37Z</time>
      </trkpt>
      <trkpt lat="49.27679" lon="2.39337">
        <ele>101.1</ele>
        <time>2024-09-01T09:49:38Z</time>
      </trkpt>
      <trkpt lat="49.27681" lon="2.39338">
        <ele>101.1</ele>
        <time>2024-09-01T09:49:39Z</time>
      </trkpt>
      <trkpt lat="49.27682" lon="2.39339">
        <ele>101.1</ele>
        <time>2024-09-01T09:49:40Z</time>
      </trkpt>
      <trkpt lat="49.27684" lon="2.3934">
        <ele>101.1</ele>
        <time>2024-09-01T09:49:41Z</time>
      </trkpt>
      <trkpt lat="49.27685" lon="2.39341">
        <ele>101.2</ele>
        <time>2024-09-01T09:49:42Z</time>
      </trkpt>
      <trkpt lat="49.27687" lon="2.39342">
        <ele>101.2</ele>
        <time>2024-09-01T09:49:43Z</time>
      </trkpt>
      <trkpt lat="49.27688" lon="2.39342">
        <ele>101.3</ele>
        <time>2024-09-01T09:49:44Z</time>
      </trkpt>
      <trkpt lat="49.2769" lon="2.39343">
        <ele>101.3</ele>
        <time>2024-09-01T09:49:45Z</time>
      </trkpt>
      <trkpt lat="49.27692" lon="2.39344">
        <ele>101.4</ele>
        <time>2024-09-01T09:49:46Z</time>
      </trkpt>
      <trkpt lat="49.27693" lon="2.39346">
        <ele>101.4</ele>
        <time>2024-09-01T09:49:47Z</time>
      </trkpt>
      <trkpt lat="49.27695" lon="2.39347">
        <ele>101.5</ele>
        <time>2024-09-01T09:49:48Z</time>
      </trkpt>
      <trkpt lat="49.27696" lon="2.39348">
        <ele>101.5</ele>
        <time>2024-09-01T09:49:49Z</time>
      </trkpt>
      <trkpt lat="49.27698" lon="2.3935">
        <ele>101.5</ele>
        <time>2024-09-01T09:49:50Z</time>
      </trkpt>
      <trkpt lat="49.27699" lon="2.39351">
        <ele>101.5</ele>
        <time>2024-09-01T09:49:51Z</time>
      </trkpt>
      <trkpt lat="49.277" lon="2.39352">
        <ele>101.5</ele>
        <time>2024-09-01T09:49:52Z</time>
      </trkpt>
      <trkpt lat="49.27702" lon="2.39354">
        <ele>101.5</ele>
        <time>2024-09-01T09:49:53Z</time>
      </trkpt>
      <trkpt lat="49.27703" lon="2.39355">
        <ele>101.5</ele>
        <time>2024-09-01T09:49:54Z</time>
      </trkpt>
      <trkpt lat="49.27705" lon="2.39356">
        <ele>101.5</ele>
        <time>2024-09-01T09:49:55Z</time>
      </trkpt>
      <trkpt lat="49.27706" lon="2.39358">
        <ele>101.5</ele>
        <time>2024-09-01T09:49:56Z</time>
      </trkpt>
      <trkpt lat="49.27708" lon="2.39359">
        <ele>101.5</ele>
        <time>2024-09-01T09:49:57Z</time>
      </trkpt>
      <trkpt lat="49.27709" lon="2.39361">
        <ele>101.5</ele>
        <time>2024-09-01T09:49:58Z</time>
      </trkpt>
      <trkpt lat="49.27711" lon="2.39362">
        <ele>101.4</ele>
        <time>2024-09-01T09:49:59Z</time>
      </trkpt>
      <trkpt lat="49.27712" lon="2.39364">
        <ele>101.4</ele>
        <time>2024-09-01T09:50:00Z</time>
      </trkpt>
      <trkpt lat="49.27713" lon="2.39365">
        <ele>101.4</ele>
        <time>2024-09-01T09:50:01Z</time>
      </trkpt>
      <trkpt lat="49.27714" lon="2.39366">
        <ele>101.4</ele>
        <time>2024-09-01T09:50:02Z</time>
      </trkpt>
      <trkpt lat="49.27716" lon="2.39368">
        <ele>101.4</ele>
        <time>2024-09-01T09:50:03Z</time>
      </trkpt>
      <trkpt lat="49.27717" lon="2.3937">
        <ele>101.4</ele>
        <time>2024-09-01T09:50:04Z</time>
      </trkpt>
      <trkpt lat="49.27719" lon="2.39371">
        <ele>101.4</ele>
        <time>2024-09-01T09:50:05Z</time>
      </trkpt>
      <trkpt lat="49.2772" lon="2.39373">
        <ele>101.5</ele>
        <time>2024-09-01T09:50:06Z</time>
      </trkpt>
      <trkpt lat="49.27721" lon="2.39375">
        <ele>101.5</ele>
        <time>2024-09-01T09:50:07Z</time>
      </trkpt>
      <trkpt lat="49.27723" lon="2.39377">
        <ele>101.6</ele>
        <time>2024-09-01T09:50:08Z</time>
      </trkpt>
      <trkpt lat="49.27724" lon="2.39379">
        <ele>101.6</ele>
        <time>2024-09-01T09:50:09Z</time>
      </trkpt>
      <trkpt lat="49.27725" lon="2.3938">
        <ele>101.7</ele>
        <time>2024-09-01T09:50:10Z</time>
      </trkpt>
      <trkpt lat="49.27727" lon="2.39382">
        <ele>101.8</ele>
        <time>2024-09-01T09:50:11Z</time>
      </trkpt>
      <trkpt lat="49.27728" lon="2.39384">
        <ele>101.8</ele>
        <time>2024-09-01T09:50:12Z</time>
      </trkpt>
      <trkpt lat="49.27729" lon="2.39386">
        <ele>101.9</ele>
        <time>2024-09-01T09:50:13Z</time>
      </trkpt>
      <trkpt lat="49.2773" lon="2.39387">
        <ele>101.9</ele>
        <time>2024-09-01T09:50:14Z</time>
      </trkpt>
      <trkpt lat="49.27732" lon="2.39389">
        <ele>102</ele>
        <time>2024-09-01T09:50:15Z</time>
      </trkpt>
      <trkpt lat="49.27733" lon="2.3939">
        <ele>102</ele>
        <time>2024-09-01T09:50:16Z</time>
      </trkpt>
      <trkpt lat="49.27734" lon="2.39391">
        <ele>102</ele>
        <time>2024-09-01T09:50:17Z</time>
      </trkpt>
      <trkpt lat="49.27736" lon="2.39393">
        <ele>102.1</ele>
        <time>2024-09-01T09:50:18Z</time>
      </trkpt>
      <trkpt lat="49.27737" lon="2.39394">
        <ele>102.1</ele>
        <time>2024-09-01T09:50:19Z</time>
      </trkpt>
      <trkpt lat="49.27739" lon="2.39396">
        <ele>102.1</ele>
        <time>2024-09-01T09:50:20Z</time>
      </trkpt>
      <trkpt lat="49.2774" lon="2.39397">
        <ele>102.2</ele>
        <time>2024-09-01T09:50:21Z</time>
      </trkpt>
      <trkpt lat="49.27742" lon="2.394">
        <ele>102.3</ele>
        <time>2024-09-01T09:50:22Z</time>
      </trkpt>
      <trkpt lat="49.27744" lon="2.39402">
        <ele>102.4</ele>
        <time>2024-09-01T09:50:23Z</time>
      </trkpt>
      <trkpt lat="49.27745" lon="2.39404">
        <ele>102.4</ele>
        <time>2024-09-01T09:50:24Z</time>
      </trkpt>
      <trkpt lat="49.27747" lon="2.39406">
        <ele>102.5</ele>
        <time>2024-09-01T09:50:25Z</time>
      </trkpt>
      <trkpt lat="49.27748" lon="2.39408">
        <ele>102.6</ele>
        <time>2024-09-01T09:50:26Z</time>
      </trkpt>
      <trkpt lat="49.2775" lon="2.3941">
        <ele>102.7</ele>
        <time>2024-09-01T09:50:27Z</time>
      </trkpt>
      <trkpt lat="49.27751" lon="2.39411">
        <ele>102.8</ele>
        <time>2024-09-01T09:50:28Z</time>
      </trkpt>
      <trkpt lat="49.27752" lon="2.39413">
        <ele>102.8</ele>
        <time>2024-09-01T09:50:29Z</time>
      </trkpt>
      <trkpt lat="49.27754" lon="2.39415">
        <ele>102.8</ele>
        <time>2024-09-01T09:50:30Z</time>
      </trkpt>
      <trkpt lat="49.27755" lon="2.39417">
        <ele>102.8</ele>
        <time>2024-09-01T09:50:31Z</time>
      </trkpt>
      <trkpt lat="49.27756" lon="2.39418">
        <ele>102.8</ele>
        <time>2024-09-01T09:50:32Z</time>
      </trkpt>
      <trkpt lat="49.27758" lon="2.3942">
        <ele>102.8</ele>
        <time>2024-09-01T09:50:33Z</time>
      </trkpt>
      <trkpt lat="49.27759" lon="2.39421">
        <ele>102.7</ele>
        <time>2024-09-01T09:50:34Z</time>
      </trkpt>
      <trkpt lat="49.2776" lon="2.39423">
        <ele>102.7</ele>
        <time>2024-09-01T09:50:35Z</time>
      </trkpt>
      <trkpt lat="49.2776" lon="2.39424">
        <ele>102.7</ele>
        <time>2024-09-01T09:50:36Z</time>
      </trkpt>
      <trkpt lat="49.27761" lon="2.39425">
        <ele>102.7</ele>
        <time>2024-09-01T09:50:37Z</time>
      </trkpt>
      <trkpt lat="49.27762" lon="2.39426">
        <ele>102.7</ele>
        <time>2024-09-01T09:50:38Z</time>
      </trkpt>
      <trkpt lat="49.27763" lon="2.39428">
        <ele>102.7</ele>
        <time>2024-09-01T09:50:39Z</time>
      </trkpt>
      <trkpt lat="49.27764" lon="2.39429">
        <ele>102.7</ele>
        <time>2024-09-01T09:50:40Z</time>
      </trkpt>
      <trkpt lat="49.27765" lon="2.3943">
        <ele>102.7</ele>
        <time>2024-09-01T09:50:41Z</time>
      </trkpt>
      <trkpt lat="49.27766" lon="2.39431">
        <ele>102.7</ele>
        <time>2024-09-01T09:50:42Z</time>
      </trkpt>
      <trkpt lat="49.27767" lon="2.39432">
        <ele>102.7</ele>
        <time>2024-09-01T09:50:43Z</time>
      </trkpt>
      <trkpt lat="49.27768" lon="2.39434">
        <ele>102.7</ele>
        <time>2024-09-01T09:50:44Z</time>
      </trkpt>
      <trkpt lat="49.27769" lon="2.39435">
        <ele>102.8</ele>
        <time>2024-09-01T09:50:45Z</time>
      </trkpt>
      <trkpt lat="49.27771" lon="2.39437">
        <ele>102.8</ele>
        <time>2024-09-01T09:50:46Z</time>
      </trkpt>
      <trkpt lat="49.27772" lon="2.39438">
        <ele>102.8</ele>
        <time>2024-09-01T09:50:47Z</time>
      </trkpt>
      <trkpt lat="49.27774" lon="2.3944">
        <ele>102.9</ele>
        <time>2024-09-01T09:50:48Z</time>
      </trkpt>
      <trkpt lat="49.27775" lon="2.39441">
        <ele>102.9</ele>
        <time>2024-09-01T09:50:49Z</time>
      </trkpt>
      <trkpt lat="49.27777" lon="2.39443">
        <ele>102.9</ele>
        <time>2024-09-01T09:50:50Z</time>
      </trkpt>
      <trkpt lat="49.27779" lon="2.39444">
        <ele>103</ele>
        <time>2024-09-01T09:50:51Z</time>
      </trkpt>
      <trkpt lat="49.27781" lon="2.39446">
        <ele>103</ele>
        <time>2024-09-01T09:50:52Z</time>
      </trkpt>
      <trkpt lat="49.27782" lon="2.39448">
        <ele>103</ele>
        <time>2024-09-01T09:50:53Z</time>
      </trkpt>
      <trkpt lat="49.27784" lon="2.3945">
        <ele>103</ele>
        <time>2024-09-01T09:50:54Z</time>
      </trkpt>
      <trkpt lat="49.27785" lon="2.39452">
        <ele>103</ele>
        <time>2024-09-01T09:50:55Z</time>
      </trkpt>
      <trkpt lat="49.27787" lon="2.39454">
        <ele>103</ele>
        <time>2024-09-01T09:50:56Z</time>
      </trkpt>
      <trkpt lat="49.27788" lon="2.39456">
        <ele>103</ele>
        <time>2024-09-01T09:50:57Z</time>
      </trkpt>
      <trkpt lat="49.2779" lon="2.39458">
        <ele>103</ele>
        <time>2024-09-01T09:50:58Z</time>
      </trkpt>
      <trkpt lat="49.27791" lon="2.3946">
        <ele>103</ele>
        <time>2024-09-01T09:50:59Z</time>
      </trkpt>
      <trkpt lat="49.27793" lon="2.39461">
        <ele>103</ele>
        <time>2024-09-01T09:51:00Z</time>
      </trkpt>
      <trkpt lat="49.27794" lon="2.39463">
        <ele>103</ele>
        <time>2024-09-01T09:51:01Z</time>
      </trkpt>
      <trkpt lat="49.27796" lon="2.39464">
        <ele>103</ele>
        <time>2024-09-01T09:51:02Z</time>
      </trkpt>
      <trkpt lat="49.27797" lon="2.39466">
        <ele>103</ele>
        <time>2024-09-01T09:51:03Z</time>
      </trkpt>
      <trkpt lat="49.27799" lon="2.39467">
        <ele>103</ele>
        <time>2024-09-01T09:51:04Z</time>
      </trkpt>
      <trkpt lat="49.27801" lon="2.39469">
        <ele>103</ele>
        <time>2024-09-01T09:51:05Z</time>
      </trkpt>
      <trkpt lat="49.27802" lon="2.3947">
        <ele>103</ele>
        <time>2024-09-01T09:51:06Z</time>
      </trkpt>
      <trkpt lat="49.27804" lon="2.39471">
        <ele>103</ele>
        <time>2024-09-01T09:51:07Z</time>
      </trkpt>
      <trkpt lat="49.27806" lon="2.39472">
        <ele>103</ele>
        <time>2024-09-01T09:51:08Z</time>
      </trkpt>
      <trkpt lat="49.27807" lon="2.39474">
        <ele>103.1</ele>
        <time>2024-09-01T09:51:09Z</time>
      </trkpt>
      <trkpt lat="49.27809" lon="2.39475">
        <ele>103.1</ele>
        <time>2024-09-01T09:51:10Z</time>
      </trkpt>
      <trkpt lat="49.2781" lon="2.39477">
        <ele>103.2</ele>
        <time>2024-09-01T09:51:11Z</time>
      </trkpt>
      <trkpt lat="49.27812" lon="2.39479">
        <ele>103.2</ele>
        <time>2024-09-01T09:51:12Z</time>
      </trkpt>
      <trkpt lat="49.27813" lon="2.3948">
        <ele>103.3</ele>
        <time>2024-09-01T09:51:13Z</time>
      </trkpt>
      <trkpt lat="49.27814" lon="2.39482">
        <ele>103.3</ele>
        <time>2024-09-01T09:51:14Z</time>
      </trkpt>
      <trkpt lat="49.27815" lon="2.39483">
        <ele>103.4</ele>
        <time>2024-09-01T09:51:15Z</time>
      </trkpt>
      <trkpt lat="49.27817" lon="2.39485">
        <ele>103.5</ele>
        <time>2024-09-01T09:51:16Z</time>
      </trkpt>
      <trkpt lat="49.27818" lon="2.39486">
        <ele>103.5</ele>
        <time>2024-09-01T09:51:17Z</time>
      </trkpt>
      <trkpt lat="49.27819" lon="2.39487">
        <ele>103.5</ele>
        <time>2024-09-01T09:51:18Z</time>
      </trkpt>
      <trkpt lat="49.27821" lon="2.39489">
        <ele>103.6</ele>
        <time>2024-09-01T09:51:19Z</time>
      </trkpt>
      <trkpt lat="49.27822" lon="2.3949">
        <ele>103.6</ele>
        <time>2024-09-01T09:51:20Z</time>
      </trkpt>
      <trkpt lat="49.27823" lon="2.39491">
        <ele>103.7</ele>
        <time>2024-09-01T09:51:21Z</time>
      </trkpt>
      <trkpt lat="49.27824" lon="2.39492">
        <ele>103.7</ele>
        <time>2024-09-01T09:51:22Z</time>
      </trkpt>
      <trkpt lat="49.27826" lon="2.39493">
        <ele>103.7</ele>
        <time>2024-09-01T09:51:23Z</time>
      </trkpt>
      <trkpt lat="49.27827" lon="2.39495">
        <ele>103.8</ele>
        <time>2024-09-01T09:51:24Z</time>
      </trkpt>
      <trkpt lat="49.27828" lon="2.39496">
        <ele>103.9</ele>
        <time>2024-09-01T09:51:25Z</time>
      </trkpt>
      <trkpt lat="49.27829" lon="2.39498">
        <ele>103.9</ele>
        <time>2024-09-01T09:51:26Z</time>
      </trkpt>
      <trkpt lat="49.2783" lon="2.395">
        <ele>104</ele>
        <time>2024-09-01T09:51:27Z</time>
      </trkpt>
      <trkpt lat="49.27832" lon="2.39501">
        <ele>104</ele>
        <time>2024-09-01T09:51:28Z</time>
      </trkpt>
      <trkpt lat="49.27833" lon="2.39503">
        <ele>104</ele>
        <time>2024-09-01T09:51:29Z</time>
      </trkpt>
      <trkpt lat="49.27834" lon="2.39505">
        <ele>104</ele>
        <time>2024-09-01T09:51:30Z</time>
      </trkpt>
      <trkpt lat="49.27835" lon="2.39506">
        <ele>104</ele>
        <time>2024-09-01T09:51:31Z</time>
      </trkpt>
      <trkpt lat="49.27836" lon="2.39508">
        <ele>104</ele>
        <time>2024-09-01T09:51:32Z</time>
      </trkpt>
      <trkpt lat="49.27837" lon="2.3951">
        <ele>104.1</ele>
        <time>2024-09-01T09:51:33Z</time>
      </trkpt>
      <trkpt lat="49.27839" lon="2.39512">
        <ele>104.1</ele>
        <time>2024-09-01T09:51:34Z</time>
      </trkpt>
      <trkpt lat="49.2784" lon="2.39513">
        <ele>104.1</ele>
        <time>2024-09-01T09:51:35Z</time>
      </trkpt>
      <trkpt lat="49.27841" lon="2.39515">
        <ele>104.1</ele>
        <time>2024-09-01T09:51:36Z</time>
      </trkpt>
      <trkpt lat="49.27842" lon="2.39516">
        <ele>104.2</ele>
        <time>2024-09-01T09:51:37Z</time>
      </trkpt>
      <trkpt lat="49.27843" lon="2.39517">
        <ele>104.2</ele>
        <time>2024-09-01T09:51:38Z</time>
      </trkpt>
      <trkpt lat="49.27845" lon="2.39519">
        <ele>104.3</ele>
        <time>2024-09-01T09:51:39Z</time>
      </trkpt>
      <trkpt lat="49.27846" lon="2.3952">
        <ele>104.3</ele>
        <time>2024-09-01T09:51:40Z</time>
      </trkpt>
      <trkpt lat="49.27847" lon="2.39522">
        <ele>104.4</ele>
        <time>2024-09-01T09:51:41Z</time>
      </trkpt>
      <trkpt lat="49.27848" lon="2.39523">
        <ele>104.4</ele>
        <time>2024-09-01T09:51:42Z</time>
      </trkpt>
      <trkpt lat="49.27849" lon="2.39525">
        <ele>104.5</ele>
        <time>2024-09-01T09:51:43Z</time>
      </trkpt>
      <trkpt lat="49.2785" lon="2.39526">
        <ele>104.6</ele>
        <time>2024-09-01T09:51:44Z</time>
      </trkpt>
      <trkpt lat="49.27852" lon="2.39528">
        <ele>104.7</ele>
        <time>2024-09-01T09:51:45Z</time>
      </trkpt>
      <trkpt lat="49.27853" lon="2.3953">
        <ele>104.7</ele>
        <time>2024-09-01T09:51:46Z</time>
      </trkpt>
      <trkpt lat="49.27854" lon="2.39531">
        <ele>104.8</ele>
        <time>2024-09-01T09:51:47Z</time>
      </trkpt>
      <trkpt lat="49.27855" lon="2.39533">
        <ele>104.8</ele>
        <time>2024-09-01T09:51:48Z</time>
      </trkpt>
      <trkpt lat="49.27856" lon="2.39534">
        <ele>104.9</ele>
        <time>2024-09-01T09:51:49Z</time>
      </trkpt>
      <trkpt lat="49.27858" lon="2.39536">
        <ele>104.9</ele>
        <time>2024-09-01T09:51:50Z</time>
      </trkpt>
      <trkpt lat="49.27859" lon="2.39538">
        <ele>105</ele>
        <time>2024-09-01T09:51:51Z</time>
      </trkpt>
      <trkpt lat="49.27861" lon="2.39539">
        <ele>105</ele>
        <time>2024-09-01T09:51:52Z</time>
      </trkpt>
      <trkpt lat="49.27863" lon="2.39541">
        <ele>105</ele>
        <time>2024-09-01T09:51:53Z</time>
      </trkpt>
      <trkpt lat="49.27865" lon="2.39542">
        <ele>105</ele>
        <time>2024-09-01T09:51:54Z</time>
      </trkpt>
      <trkpt lat="49.27867" lon="2.39544">
        <ele>105</ele>
        <time>2024-09-01T09:51:55Z</time>
      </trkpt>
      <trkpt lat="49.27869" lon="2.39546">
        <ele>105</ele>
        <time>2024-09-01T09:51:56Z</time>
      </trkpt>
      <trkpt lat="49.27871" lon="2.39548">
        <ele>105</ele>
        <time>2024-09-01T09:51:57Z</time>
      </trkpt>
      <trkpt lat="49.27873" lon="2.3955">
        <ele>105</ele>
        <time>2024-09-01T09:51:58Z</time>
      </trkpt>
      <trkpt lat="49.27875" lon="2.39553">
        <ele>105</ele>
        <time>2024-09-01T09:51:59Z</time>
      </trkpt>
      <trkpt lat="49.27877" lon="2.39555">
        <ele>105</ele>
        <time>2024-09-01T09:52:00Z</time>
      </trkpt>
      <trkpt lat="49.27879" lon="2.39557">
        <ele>105</ele>
        <time>2024-09-01T09:52:01Z</time>
      </trkpt>
      <trkpt lat="49.27881" lon="2.39559">
        <ele>105.1</ele>
        <time>2024-09-01T09:52:02Z</time>
      </trkpt>
      <trkpt lat="49.27882" lon="2.39561">
        <ele>105.1</ele>
        <time>2024-09-01T09:52:03Z</time>
      </trkpt>
      <trkpt lat="49.27884" lon="2.39563">
        <ele>105.2</ele>
        <time>2024-09-01T09:52:04Z</time>
      </trkpt>
      <trkpt lat="49.27885" lon="2.39564">
        <ele>105.3</ele>
        <time>2024-09-01T09:52:05Z</time>
      </trkpt>
      <trkpt lat="49.27887" lon="2.39566">
        <ele>105.3</ele>
        <time>2024-09-01T09:52:06Z</time>
      </trkpt>
      <trkpt lat="49.27888" lon="2.39567">
        <ele>105.4</ele>
        <time>2024-09-01T09:52:07Z</time>
      </trkpt>
      <trkpt lat="49.27889" lon="2.39569">
        <ele>105.5</ele>
        <time>2024-09-01T09:52:08Z</time>
      </trkpt>
      <trkpt lat="49.2789" lon="2.3957">
        <ele>105.5</ele>
        <time>2024-09-01T09:52:09Z</time>
      </trkpt>
      <trkpt lat="49.27891" lon="2.39572">
        <ele>105.6</ele>
        <time>2024-09-01T09:52:10Z</time>
      </trkpt>
      <trkpt lat="49.27892" lon="2.39573">
        <ele>105.6</ele>
        <time>2024-09-01T09:52:11Z</time>
      </trkpt>
      <trkpt lat="49.27893" lon="2.39574">
        <ele>105.7</ele>
        <time>2024-09-01T09:52:12Z</time>
      </trkpt>
      <trkpt lat="49.27894" lon="2.39575">
        <ele>105.7</ele>
        <time>2024-09-01T09:52:13Z</time>
      </trkpt>
      <trkpt lat="49.27896" lon="2.39576">
        <ele>105.7</ele>
        <time>2024-09-01T09:52:14Z</time>
      </trkpt>
      <trkpt lat="49.27897" lon="2.39577">
        <ele>105.8</ele>
        <time>2024-09-01T09:52:15Z</time>
      </trkpt>
      <trkpt lat="49.27898" lon="2.39579">
        <ele>105.8</ele>
        <time>2024-09-01T09:52:16Z</time>
      </trkpt>
      <trkpt lat="49.27899" lon="2.3958">
        <ele>105.9</ele>
        <time>2024-09-01T09:52:17Z</time>
      </trkpt>
      <trkpt lat="49.27901" lon="2.39582">
        <ele>105.9</ele>
        <time>2024-09-01T09:52:18Z</time>
      </trkpt>
      <trkpt lat="49.27902" lon="2.39583">
        <ele>106</ele>
        <time>2024-09-01T09:52:19Z</time>
      </trkpt>
      <trkpt lat="49.27903" lon="2.39585">
        <ele>106</ele>
        <time>2024-09-01T09:52:20Z</time>
      </trkpt>
      <trkpt lat="49.27904" lon="2.39587">
        <ele>106.1</ele>
        <time>2024-09-01T09:52:21Z</time>
      </trkpt>
      <trkpt lat="49.27905" lon="2.39589">
        <ele>106.1</ele>
        <time>2024-09-01T09:52:22Z</time>
      </trkpt>
      <trkpt lat="49.27906" lon="2.39591">
        <ele>106.2</ele>
        <time>2024-09-01T09:52:23Z</time>
      </trkpt>
      <trkpt lat="49.27908" lon="2.39593">
        <ele>106.2</ele>
        <time>2024-09-01T09:52:24Z</time>
      </trkpt>
      <trkpt lat="49.2791" lon="2.39594">
        <ele>106.3</ele>
        <time>2024-09-01T09:52:25Z</time>
      </trkpt>
      <trkpt lat="49.27911" lon="2.39596">
        <ele>106.4</ele>
        <time>2024-09-01T09:52:26Z</time>
      </trkpt>
      <trkpt lat="49.27913" lon="2.39597">
        <ele>106.4</ele>
        <time>2024-09-01T09:52:27Z</time>
      </trkpt>
      <trkpt lat="49.27914" lon="2.39599">
        <ele>106.5</ele>
        <time>2024-09-01T09:52:28Z</time>
      </trkpt>
      <trkpt lat="49.27916" lon="2.39601">
        <ele>106.6</ele>
        <time>2024-09-01T09:52:29Z</time>
      </trkpt>
      <trkpt lat="49.27917" lon="2.39602">
        <ele>106.7</ele>
        <time>2024-09-01T09:52:30Z</time>
      </trkpt>
      <trkpt lat="49.27918" lon="2.39604">
        <ele>106.7</ele>
        <time>2024-09-01T09:52:31Z</time>
      </trkpt>
      <trkpt lat="49.27919" lon="2.39605">
        <ele>106.7</ele>
        <time>2024-09-01T09:52:32Z</time>
      </trkpt>
      <trkpt lat="49.2792" lon="2.39607">
        <ele>106.7</ele>
        <time>2024-09-01T09:52:33Z</time>
      </trkpt>
      <trkpt lat="49.27921" lon="2.39608">
        <ele>106.7</ele>
        <time>2024-09-01T09:52:34Z</time>
      </trkpt>
      <trkpt lat="49.27922" lon="2.39609">
        <ele>106.8</ele>
        <time>2024-09-01T09:52:35Z</time>
      </trkpt>
      <trkpt lat="49.27923" lon="2.39611">
        <ele>106.8</ele>
        <time>2024-09-01T09:52:36Z</time>
      </trkpt>
      <trkpt lat="49.27924" lon="2.39612">
        <ele>106.8</ele>
        <time>2024-09-01T09:52:37Z</time>
      </trkpt>
      <trkpt lat="49.27924" lon="2.39614">
        <ele>106.8</ele>
        <time>2024-09-01T09:52:38Z</time>
      </trkpt>
      <trkpt lat="49.27926" lon="2.39616">
        <ele>106.7</ele>
        <time>2024-09-01T09:52:39Z</time>
      </trkpt>
      <trkpt lat="49.27927" lon="2.39617">
        <ele>106.7</ele>
        <time>2024-09-01T09:52:40Z</time>
      </trkpt>
      <trkpt lat="49.27928" lon="2.39619">
        <ele>106.7</ele>
        <time>2024-09-01T09:52:41Z</time>
      </trkpt>
      <trkpt lat="49.2793" lon="2.39621">
        <ele>106.7</ele>
        <time>2024-09-01T09:52:42Z</time>
      </trkpt>
      <trkpt lat="49.27931" lon="2.39622">
        <ele>106.7</ele>
        <time>2024-09-01T09:52:43Z</time>
      </trkpt>
      <trkpt lat="49.27933" lon="2.39623">
        <ele>106.7</ele>
        <time>2024-09-01T09:52:44Z</time>
      </trkpt>
      <trkpt lat="49.27934" lon="2.39625">
        <ele>106.7</ele>
        <time>2024-09-01T09:52:45Z</time>
      </trkpt>
      <trkpt lat="49.27936" lon="2.39626">
        <ele>106.7</ele>
        <time>2024-09-01T09:52:46Z</time>
      </trkpt>
      <trkpt lat="49.27937" lon="2.39627">
        <ele>106.7</ele>
        <time>2024-09-01T09:52:47Z</time>
      </trkpt>
      <trkpt lat="49.27939" lon="2.39628">
        <ele>106.7</ele>
        <time>2024-09-01T09:52:48Z</time>
      </trkpt>
      <trkpt lat="49.27941" lon="2.3963">
        <ele>106.7</ele>
        <time>2024-09-01T09:52:49Z</time>
      </trkpt>
      <trkpt lat="49.27943" lon="2.39631">
        <ele>106.7</ele>
        <time>2024-09-01T09:52:50Z</time>
      </trkpt>
      <trkpt lat="49.27944" lon="2.39632">
        <ele>106.8</ele>
        <time>2024-09-01T09:52:51Z</time>
      </trkpt>
      <trkpt lat="49.27946" lon="2.39634">
        <ele>106.8</ele>
        <time>2024-09-01T09:52:52Z</time>
      </trkpt>
      <trkpt lat="49.27947" lon="2.39635">
        <ele>106.8</ele>
        <time>2024-09-01T09:52:53Z</time>
      </trkpt>
      <trkpt lat="49.27948" lon="2.39637">
        <ele>106.8</ele>
        <time>2024-09-01T09:52:54Z</time>
      </trkpt>
      <trkpt lat="49.27949" lon="2.39639">
        <ele>106.8</ele>
        <time>2024-09-01T09:52:55Z</time>
      </trkpt>
      <trkpt lat="49.27951" lon="2.39641">
        <ele>106.8</ele>
        <time>2024-09-01T09:52:56Z</time>
      </trkpt>
      <trkpt lat="49.27952" lon="2.39643">
        <ele>106.7</ele>
        <time>2024-09-01T09:52:57Z</time>
      </trkpt>
      <trkpt lat="49.27953" lon="2.39645">
        <ele>106.7</ele>
        <time>2024-09-01T09:52:58Z</time>
      </trkpt>
      <trkpt lat="49.27954" lon="2.39646">
        <ele>106.7</ele>
        <time>2024-09-01T09:52:59Z</time>
      </trkpt>
      <trkpt lat="49.27955" lon="2.39648">
        <ele>106.6</ele>
        <time>2024-09-01T09:53:00Z</time>
      </trkpt>
      <trkpt lat="49.27956" lon="2.39649">
        <ele>106.6</ele>
        <time>2024-09-01T09:53:01Z</time>
      </trkpt>
      <trkpt lat="49.27957" lon="2.39651">
        <ele>106.5</ele>
        <time>2024-09-01T09:53:02Z</time>
      </trkpt>
      <trkpt lat="49.27958" lon="2.39652">
        <ele>106.5</ele>
        <time>2024-09-01T09:53:03Z</time>
      </trkpt>
      <trkpt lat="49.27959" lon="2.39654">
        <ele>106.5</ele>
        <time>2024-09-01T09:53:04Z</time>
      </trkpt>
      <trkpt lat="49.27961" lon="2.39655">
        <ele>106.4</ele>
        <time>2024-09-01T09:53:05Z</time>
      </trkpt>
      <trkpt lat="49.27962" lon="2.39657">
        <ele>106.4</ele>
        <time>2024-09-01T09:53:06Z</time>
      </trkpt>
      <trkpt lat="49.27963" lon="2.39658">
        <ele>106.3</ele>
        <time>2024-09-01T09:53:07Z</time>
      </trkpt>
      <trkpt lat="49.27965" lon="2.3966">
        <ele>106.3</ele>
        <time>2024-09-01T09:53:08Z</time>
      </trkpt>
      <trkpt lat="49.27966" lon="2.39661">
        <ele>106.2</ele>
        <time>2024-09-01T09:53:09Z</time>
      </trkpt>
      <trkpt lat="49.27967" lon="2.39662">
        <ele>106.2</ele>
        <time>2024-09-01T09:53:10Z</time>
      </trkpt>
      <trkpt lat="49.27968" lon="2.39663">
        <ele>106.1</ele>
        <time>2024-09-01T09:53:11Z</time>
      </trkpt>
      <trkpt lat="49.2797" lon="2.39664">
        <ele>106.1</ele>
        <time>2024-09-01T09:53:12Z</time>
      </trkpt>
      <trkpt lat="49.27971" lon="2.39666">
        <ele>106.1</ele>
        <time>2024-09-01T09:53:13Z</time>
      </trkpt>
      <trkpt lat="49.27972" lon="2.39667">
        <ele>106</ele>
        <time>2024-09-01T09:53:14Z</time>
      </trkpt>
      <trkpt lat="49.27973" lon="2.39669">
        <ele>106</ele>
        <time>2024-09-01T09:53:15Z</time>
      </trkpt>
      <trkpt lat="49.27974" lon="2.3967">
        <ele>105.9</ele>
        <time>2024-09-01T09:53:16Z</time>
      </trkpt>
      <trkpt lat="49.27975" lon="2.39671">
        <ele>105.9</ele>
        <time>2024-09-01T09:53:17Z</time>
      </trkpt>
      <trkpt lat="49.27976" lon="2.39673">
        <ele>105.9</ele>
        <time>2024-09-01T09:53:18Z</time>
      </trkpt>
      <trkpt lat="49.27977" lon="2.39674">
        <ele>105.8</ele>
        <time>2024-09-01T09:53:19Z</time>
      </trkpt>
      <trkpt lat="49.27978" lon="2.39676">
        <ele>105.8</ele>
        <time>2024-09-01T09:53:20Z</time>
      </trkpt>
      <trkpt lat="49.27979" lon="2.39677">
        <ele>105.7</ele>
        <time>2024-09-01T09:53:21Z</time>
      </trkpt>
      <trkpt lat="49.2798" lon="2.39679">
        <ele>105.7</ele>
        <time>2024-09-01T09:53:22Z</time>
      </trkpt>
      <trkpt lat="49.27982" lon="2.39681">
        <ele>105.7</ele>
        <time>2024-09-01T09:53:23Z</time>
      </trkpt>
      <trkpt lat="49.27983" lon="2.39682">
        <ele>105.6</ele>
        <time>2024-09-01T09:53:24Z</time>
      </trkpt>
      <trkpt lat="49.27985" lon="2.39684">
        <ele>105.5</ele>
        <time>2024-09-01T09:53:25Z</time>
      </trkpt>
      <trkpt lat="49.27987" lon="2.39685">
        <ele>105.5</ele>
        <time>2024-09-01T09:53:26Z</time>
      </trkpt>
      <trkpt lat="49.27989" lon="2.39687">
        <ele>105.4</ele>
        <time>2024-09-01T09:53:27Z</time>
      </trkpt>
      <trkpt lat="49.2799" lon="2.39688">
        <ele>105.4</ele>
        <time>2024-09-01T09:53:28Z</time>
      </trkpt>
      <trkpt lat="49.27992" lon="2.3969">
        <ele>105.3</ele>
        <time>2024-09-01T09:53:29Z</time>
      </trkpt>
      <trkpt lat="49.27994" lon="2.39691">
        <ele>105.2</ele>
        <time>2024-09-01T09:53:30Z</time>
      </trkpt>
      <trkpt lat="49.27995" lon="2.39693">
        <ele>105.2</ele>
        <time>2024-09-01T09:53:31Z</time>
      </trkpt>
      <trkpt lat="49.27996" lon="2.39694">
        <ele>105.1</ele>
        <time>2024-09-01T09:53:32Z</time>
      </trkpt>
      <trkpt lat="49.27998" lon="2.39696">
        <ele>105.1</ele>
        <time>2024-09-01T09:53:33Z</time>
      </trkpt>
      <trkpt lat="49.27999" lon="2.39697">
        <ele>105</ele>
        <time>2024-09-01T09:53:34Z</time>
      </trkpt>
      <trkpt lat="49.28" lon="2.39699">
        <ele>105</ele>
        <time>2024-09-01T09:53:35Z</time>
      </trkpt>
      <trkpt lat="49.28001" lon="2.397">
        <ele>104.9</ele>
        <time>2024-09-01T09:53:36Z</time>
      </trkpt>
      <trkpt lat="49.28003" lon="2.39702">
        <ele>104.9</ele>
        <time>2024-09-01T09:53:37Z</time>
      </trkpt>
      <trkpt lat="49.28005" lon="2.39704">
        <ele>104.8</ele>
        <time>2024-09-01T09:53:38Z</time>
      </trkpt>
      <trkpt lat="49.28006" lon="2.39706">
        <ele>104.8</ele>
        <time>2024-09-01T09:53:39Z</time>
      </trkpt>
      <trkpt lat="49.28008" lon="2.39708">
        <ele>104.7</ele>
        <time>2024-09-01T09:53:40Z</time>
      </trkpt>
      <trkpt lat="49.28011" lon="2.3971">
        <ele>104.6</ele>
        <time>2024-09-01T09:53:41Z</time>
      </trkpt>
      <trkpt lat="49.28013" lon="2.39712">
        <ele>104.5</ele>
        <time>2024-09-01T09:53:42Z</time>
      </trkpt>
      <trkpt lat="49.28015" lon="2.39714">
        <ele>104.5</ele>
        <time>2024-09-01T09:53:43Z</time>
      </trkpt>
      <trkpt lat="49.28017" lon="2.39716">
        <ele>104.4</ele>
        <time>2024-09-01T09:53:44Z</time>
      </trkpt>
      <trkpt lat="49.28019" lon="2.39717">
        <ele>104.3</ele>
        <time>2024-09-01T09:53:45Z</time>
      </trkpt>
      <trkpt lat="49.28021" lon="2.39718">
        <ele>104.2</ele>
        <time>2024-09-01T09:53:46Z</time>
      </trkpt>
      <trkpt lat="49.28023" lon="2.39719">
        <ele>104.2</ele>
        <time>2024-09-01T09:53:47Z</time>
      </trkpt>
      <trkpt lat="49.28025" lon="2.3972">
        <ele>104.1</ele>
        <time>2024-09-01T09:53:48Z</time>
      </trkpt>
      <trkpt lat="49.28027" lon="2.39722">
        <ele>104</ele>
        <time>2024-09-01T09:53:49Z</time>
      </trkpt>
      <trkpt lat="49.28028" lon="2.39723">
        <ele>104</ele>
        <time>2024-09-01T09:53:50Z</time>
      </trkpt>
      <trkpt lat="49.28029" lon="2.39724">
        <ele>104.1</ele>
        <time>2024-09-01T09:53:51Z</time>
      </trkpt>
      <trkpt lat="49.28031" lon="2.39725">
        <ele>104.1</ele>
        <time>2024-09-01T09:53:52Z</time>
      </trkpt>
      <trkpt lat="49.28032" lon="2.39726">
        <ele>104.1</ele>
        <time>2024-09-01T09:53:53Z</time>
      </trkpt>
      <trkpt lat="49.28033" lon="2.39727">
        <ele>104.2</ele>
        <time>2024-09-01T09:53:54Z</time>
      </trkpt>
      <trkpt lat="49.28034" lon="2.39728">
        <ele>104.2</ele>
        <time>2024-09-01T09:53:55Z</time>
      </trkpt>
      <trkpt lat="49.28035" lon="2.39729">
        <ele>104.2</ele>
        <time>2024-09-01T09:53:56Z</time>
      </trkpt>
      <trkpt lat="49.28036" lon="2.39731">
        <ele>104.2</ele>
        <time>2024-09-01T09:53:57Z</time>
      </trkpt>
      <trkpt lat="49.28038" lon="2.39732">
        <ele>104.2</ele>
        <time>2024-09-01T09:53:58Z</time>
      </trkpt>
      <trkpt lat="49.28039" lon="2.39733">
        <ele>104.2</ele>
        <time>2024-09-01T09:53:59Z</time>
      </trkpt>
      <trkpt lat="49.2804" lon="2.39734">
        <ele>104.2</ele>
        <time>2024-09-01T09:54:00Z</time>
      </trkpt>
      <trkpt lat="49.28041" lon="2.39735">
        <ele>104.2</ele>
        <time>2024-09-01T09:54:01Z</time>
      </trkpt>
      <trkpt lat="49.28043" lon="2.39736">
        <ele>104.2</ele>
        <time>2024-09-01T09:54:02Z</time>
      </trkpt>
      <trkpt lat="49.28044" lon="2.39737">
        <ele>104.2</ele>
        <time>2024-09-01T09:54:03Z</time>
      </trkpt>
      <trkpt lat="49.28046" lon="2.39739">
        <ele>104.2</ele>
        <time>2024-09-01T09:54:04Z</time>
      </trkpt>
      <trkpt lat="49.28047" lon="2.3974">
        <ele>104.2</ele>
        <time>2024-09-01T09:54:05Z</time>
      </trkpt>
      <trkpt lat="49.28049" lon="2.39741">
        <ele>104.2</ele>
        <time>2024-09-01T09:54:06Z</time>
      </trkpt>
      <trkpt lat="49.2805" lon="2.39742">
        <ele>104.1</ele>
        <time>2024-09-01T09:54:07Z</time>
      </trkpt>
      <trkpt lat="49.28052" lon="2.39743">
        <ele>104.1</ele>
        <time>2024-09-01T09:54:08Z</time>
      </trkpt>
      <trkpt lat="49.28054" lon="2.39744">
        <ele>104.1</ele>
        <time>2024-09-01T09:54:09Z</time>
      </trkpt>
      <trkpt lat="49.28055" lon="2.39745">
        <ele>104</ele>
        <time>2024-09-01T09:54:10Z</time>
      </trkpt>
      <trkpt lat="49.28056" lon="2.39745">
        <ele>104</ele>
        <time>2024-09-01T09:54:11Z</time>
      </trkpt>
      <trkpt lat="49.28058" lon="2.39746">
        <ele>104</ele>
        <time>2024-09-01T09:54:12Z</time>
      </trkpt>
      <trkpt lat="49.28059" lon="2.39747">
        <ele>104</ele>
        <time>2024-09-01T09:54:13Z</time>
      </trkpt>
      <trkpt lat="49.2806" lon="2.39747">
        <ele>104</ele>
        <time>2024-09-01T09:54:14Z</time>
      </trkpt>
      <trkpt lat="49.28062" lon="2.39748">
        <ele>104</ele>
        <time>2024-09-01T09:54:15Z</time>
      </trkpt>
      <trkpt lat="49.28063" lon="2.39748">
        <ele>104</ele>
        <time>2024-09-01T09:54:16Z</time>
      </trkpt>
      <trkpt lat="49.28065" lon="2.39749">
        <ele>104</ele>
        <time>2024-09-01T09:54:17Z</time>
      </trkpt>
      <trkpt lat="49.28066" lon="2.3975">
        <ele>104</ele>
        <time>2024-09-01T09:54:18Z</time>
      </trkpt>
      <trkpt lat="49.28067" lon="2.3975">
        <ele>104</ele>
        <time>2024-09-01T09:54:19Z</time>
      </trkpt>
      <trkpt lat="49.28069" lon="2.39751">
        <ele>104</ele>
        <time>2024-09-01T09:54:20Z</time>
      </trkpt>
      <trkpt lat="49.2807" lon="2.39752">
        <ele>104</ele>
        <time>2024-09-01T09:54:21Z</time>
      </trkpt>
      <trkpt lat="49.28071" lon="2.39752">
        <ele>104</ele>
        <time>2024-09-01T09:54:22Z</time>
      </trkpt>
      <trkpt lat="49.28073" lon="2.39752">
        <ele>104</ele>
        <time>2024-09-01T09:54:23Z</time>
      </trkpt>
      <trkpt lat="49.28075" lon="2.39753">
        <ele>104</ele>
        <time>2024-09-01T09:54:24Z</time>
      </trkpt>
      <trkpt lat="49.28077" lon="2.39753">
        <ele>104</ele>
        <time>2024-09-01T09:54:25Z</time>
      </trkpt>
      <trkpt lat="49.28079" lon="2.39754">
        <ele>104</ele>
        <time>2024-09-01T09:54:26Z</time>
      </trkpt>
      <trkpt lat="49.28081" lon="2.39755">
        <ele>104</ele>
        <time>2024-09-01T09:54:27Z</time>
      </trkpt>
      <trkpt lat="49.28083" lon="2.39755">
        <ele>104</ele>
        <time>2024-09-01T09:54:28Z</time>
      </trkpt>
      <trkpt lat="49.28086" lon="2.39756">
        <ele>103.9</ele>
        <time>2024-09-01T09:54:29Z</time>
      </trkpt>
      <trkpt lat="49.28088" lon="2.39757">
        <ele>103.9</ele>
        <time>2024-09-01T09:54:30Z</time>
      </trkpt>
      <trkpt lat="49.2809" lon="2.39758">
        <ele>103.8</ele>
        <time>2024-09-01T09:54:31Z</time>
      </trkpt>
      <trkpt lat="49.28091" lon="2.39759">
        <ele>103.8</ele>
        <time>2024-09-01T09:54:32Z</time>
      </trkpt>
      <trkpt lat="49.28093" lon="2.3976">
        <ele>103.8</ele>
        <time>2024-09-01T09:54:33Z</time>
      </trkpt>
      <trkpt lat="49.28095" lon="2.39761">
        <ele>103.7</ele>
        <time>2024-09-01T09:54:34Z</time>
      </trkpt>
      <trkpt lat="49.28096" lon="2.39761">
        <ele>103.7</ele>
        <time>2024-09-01T09:54:35Z</time>
      </trkpt>
      <trkpt lat="49.28097" lon="2.39762">
        <ele>103.7</ele>
        <time>2024-09-01T09:54:36Z</time>
      </trkpt>
      <trkpt lat="49.28099" lon="2.39763">
        <ele>103.7</ele>
        <time>2024-09-01T09:54:37Z</time>
      </trkpt>
      <trkpt lat="49.281" lon="2.39763">
        <ele>103.7</ele>
        <time>2024-09-01T09:54:38Z</time>
      </trkpt>
      <trkpt lat="49.28101" lon="2.39764">
        <ele>103.7</ele>
        <time>2024-09-01T09:54:39Z</time>
      </trkpt>
      <trkpt lat="49.28102" lon="2.39765">
        <ele>103.7</ele>
        <time>2024-09-01T09:54:40Z</time>
      </trkpt>
      <trkpt lat="49.28103" lon="2.39765">
        <ele>103.7</ele>
        <time>2024-09-01T09:54:41Z</time>
      </trkpt>
      <trkpt lat="49.28105" lon="2.39766">
        <ele>103.7</ele>
        <time>2024-09-01T09:54:42Z</time>
      </trkpt>
      <trkpt lat="49.28106" lon="2.39767">
        <ele>103.7</ele>
        <time>2024-09-01T09:54:43Z</time>
      </trkpt>
      <trkpt lat="49.28108" lon="2.39768">
        <ele>103.7</ele>
        <time>2024-09-01T09:54:44Z</time>
      </trkpt>
      <trkpt lat="49.2811" lon="2.39769">
        <ele>103.7</ele>
        <time>2024-09-01T09:54:45Z</time>
      </trkpt>
      <trkpt lat="49.28112" lon="2.3977">
        <ele>103.7</ele>
        <time>2024-09-01T09:54:46Z</time>
      </trkpt>
      <trkpt lat="49.28115" lon="2.39772">
        <ele>103.8</ele>
        <time>2024-09-01T09:54:47Z</time>
      </trkpt>
      <trkpt lat="49.28117" lon="2.39773">
        <ele>103.8</ele>
        <time>2024-09-01T09:54:48Z</time>
      </trkpt>
      <trkpt lat="49.28119" lon="2.39774">
        <ele>103.9</ele>
        <time>2024-09-01T09:54:49Z</time>
      </trkpt>
      <trkpt lat="49.28121" lon="2.39775">
        <ele>103.9</ele>
        <time>2024-09-01T09:54:50Z</time>
      </trkpt>
      <trkpt lat="49.28123" lon="2.39776">
        <ele>103.9</ele>
        <time>2024-09-01T09:54:51Z</time>
      </trkpt>
      <trkpt lat="49.28124" lon="2.39776">
        <ele>103.9</ele>
        <time>2024-09-01T09:54:52Z</time>
      </trkpt>
      <trkpt lat="49.28124" lon="2.39776">
        <ele>103.9</ele>
        <time>2024-09-01T09:54:53Z</time>
      </trkpt>
      <trkpt lat="49.28125" lon="2.39776">
        <ele>103.9</ele>
        <time>2024-09-01T09:54:54Z</time>
      </trkpt>
      <trkpt lat="49.28125" lon="2.39776">
        <ele>103.9</ele>
        <time>2024-09-01T09:54:55Z</time>
      </trkpt>
      <trkpt lat="49.28125" lon="2.39776">
        <ele>103.9</ele>
        <time>2024-09-01T09:54:56Z</time>
      </trkpt>
      <trkpt lat="49.28126" lon="2.39776">
        <ele>103.9</ele>
        <time>2024-09-01T09:54:57Z</time>
      </trkpt>
      <trkpt lat="49.28127" lon="2.39776">
        <ele>103.9</ele>
        <time>2024-09-01T09:54:58Z</time>
      </trkpt>
      <trkpt lat="49.28128" lon="2.39775">
        <ele>103.9</ele>
        <time>2024-09-01T09:54:59Z</time>
      </trkpt>
      <trkpt lat="49.28129" lon="2.39775">
        <ele>103.9</ele>
        <time>2024-09-01T09:55:00Z</time>
      </trkpt>
      <trkpt lat="49.2813" lon="2.39775">
        <ele>103.9</ele>
        <time>2024-09-01T09:55:01Z</time>
      </trkpt>
      <trkpt lat="49.28132" lon="2.39776">
        <ele>103.9</ele>
        <time>2024-09-01T09:55:02Z</time>
      </trkpt>
      <trkpt lat="49.28133" lon="2.39776">
        <ele>103.9</ele>
        <time>2024-09-01T09:55:03Z</time>
      </trkpt>
      <trkpt lat="49.28134" lon="2.39775">
        <ele>103.9</ele>
        <time>2024-09-01T09:55:04Z</time>
      </trkpt>
      <trkpt lat="49.28136" lon="2.39775">
        <ele>103.9</ele>
        <time>2024-09-01T09:55:05Z</time>
      </trkpt>
      <trkpt lat="49.28137" lon="2.39774">
        <ele>103.9</ele>
        <time>2024-09-01T09:55:06Z</time>
      </trkpt>
      <trkpt lat="49.28139" lon="2.39773">
        <ele>103.8</ele>
        <time>2024-09-01T09:55:07Z</time>
      </trkpt>
      <trkpt lat="49.2814" lon="2.39773">
        <ele>103.8</ele>
        <time>2024-09-01T09:55:08Z</time>
      </trkpt>
      <trkpt lat="49.28141" lon="2.39772">
        <ele>103.7</ele>
        <time>2024-09-01T09:55:09Z</time>
      </trkpt>
      <trkpt lat="49.28142" lon="2.39771">
        <ele>103.7</ele>
        <time>2024-09-01T09:55:10Z</time>
      </trkpt>
      <trkpt lat="49.28144" lon="2.3977">
        <ele>103.6</ele>
        <time>2024-09-01T09:55:11Z</time>
      </trkpt>
      <trkpt lat="49.28145" lon="2.39769">
        <ele>103.5</ele>
        <time>2024-09-01T09:55:12Z</time>
      </trkpt>
      <trkpt lat="49.28146" lon="2.39768">
        <ele>103.5</ele>
        <time>2024-09-01T09:55:13Z</time>
      </trkpt>
      <trkpt lat="49.28148" lon="2.39768">
        <ele>103.4</ele>
        <time>2024-09-01T09:55:14Z</time>
      </trkpt>
      <trkpt lat="49.28149" lon="2.39767">
        <ele>103.4</ele>
        <time>2024-09-01T09:55:15Z</time>
      </trkpt>
      <trkpt lat="49.28151" lon="2.39767">
        <ele>103.3</ele>
        <time>2024-09-01T09:55:16Z</time>
      </trkpt>
      <trkpt lat="49.28152" lon="2.39766">
        <ele>103.3</ele>
        <time>2024-09-01T09:55:17Z</time>
      </trkpt>
      <trkpt lat="49.28154" lon="2.39766">
        <ele>103.3</ele>
        <time>2024-09-01T09:55:18Z</time>
      </trkpt>
      <trkpt lat="49.28156" lon="2.39765">
        <ele>103.2</ele>
        <time>2024-09-01T09:55:19Z</time>
      </trkpt>
      <trkpt lat="49.28157" lon="2.39765">
        <ele>103.2</ele>
        <time>2024-09-01T09:55:20Z</time>
      </trkpt>
      <trkpt lat="49.28159" lon="2.39764">
        <ele>103.1</ele>
        <time>2024-09-01T09:55:21Z</time>
      </trkpt>
      <trkpt lat="49.28161" lon="2.39763">
        <ele>103.1</ele>
        <time>2024-09-01T09:55:22Z</time>
      </trkpt>
      <trkpt lat="49.28163" lon="2.39763">
        <ele>103.1</ele>
        <time>2024-09-01T09:55:23Z</time>
      </trkpt>
      <trkpt lat="49.28165" lon="2.39762">
        <ele>103</ele>
        <time>2024-09-01T09:55:24Z</time>
      </trkpt>
      <trkpt lat="49.28167" lon="2.39761">
        <ele>103</ele>
        <time>2024-09-01T09:55:25Z</time>
      </trkpt>
      <trkpt lat="49.28168" lon="2.3976">
        <ele>102.9</ele>
        <time>2024-09-01T09:55:26Z</time>
      </trkpt>
      <trkpt lat="49.2817" lon="2.3976">
        <ele>102.9</ele>
        <time>2024-09-01T09:55:27Z</time>
      </trkpt>
      <trkpt lat="49.28172" lon="2.39759">
        <ele>102.8</ele>
        <time>2024-09-01T09:55:28Z</time>
      </trkpt>
      <trkpt lat="49.28173" lon="2.39758">
        <ele>102.8</ele>
        <time>2024-09-01T09:55:29Z</time>
      </trkpt>
      <trkpt lat="49.28175" lon="2.39758">
        <ele>102.7</ele>
        <time>2024-09-01T09:55:30Z</time>
      </trkpt>
      <trkpt lat="49.28177" lon="2.39757">
        <ele>102.6</ele>
        <time>2024-09-01T09:55:31Z</time>
      </trkpt>
      <trkpt lat="49.28178" lon="2.39757">
        <ele>102.6</ele>
        <time>2024-09-01T09:55:32Z</time>
      </trkpt>
      <trkpt lat="49.2818" lon="2.39756">
        <ele>102.5</ele>
        <time>2024-09-01T09:55:33Z</time>
      </trkpt>
      <trkpt lat="49.28181" lon="2.39755">
        <ele>102.5</ele>
        <time>2024-09-01T09:55:34Z</time>
      </trkpt>
      <trkpt lat="49.28183" lon="2.39754">
        <ele>102.4</ele>
        <time>2024-09-01T09:55:35Z</time>
      </trkpt>
      <trkpt lat="49.28184" lon="2.39753">
        <ele>102.4</ele>
        <time>2024-09-01T09:55:36Z</time>
      </trkpt>
      <trkpt lat="49.28186" lon="2.39752">
        <ele>102.3</ele>
        <time>2024-09-01T09:55:37Z</time>
      </trkpt>
      <trkpt lat="49.28187" lon="2.39751">
        <ele>102.3</ele>
        <time>2024-09-01T09:55:38Z</time>
      </trkpt>
      <trkpt lat="49.28189" lon="2.39751">
        <ele>102.2</ele>
        <time>2024-09-01T09:55:39Z</time>
      </trkpt>
      <trkpt lat="49.2819" lon="2.3975">
        <ele>102.1</ele>
        <time>2024-09-01T09:55:40Z</time>
      </trkpt>
      <trkpt lat="49.28192" lon="2.3975">
        <ele>102.1</ele>
        <time>2024-09-01T09:55:41Z</time>
      </trkpt>
      <trkpt lat="49.28194" lon="2.39749">
        <ele>102.1</ele>
        <time>2024-09-01T09:55:42Z</time>
      </trkpt>
      <trkpt lat="49.28196" lon="2.39749">
        <ele>102</ele>
        <time>2024-09-01T09:55:43Z</time>
      </trkpt>
      <trkpt lat="49.28197" lon="2.39749">
        <ele>101.9</ele>
        <time>2024-09-01T09:55:44Z</time>
      </trkpt>
      <trkpt lat="49.28199" lon="2.39749">
        <ele>101.8</ele>
        <time>2024-09-01T09:55:45Z</time>
      </trkpt>
      <trkpt lat="49.28201" lon="2.39748">
        <ele>101.7</ele>
        <time>2024-09-01T09:55:46Z</time>
      </trkpt>
      <trkpt lat="49.28202" lon="2.39748">
        <ele>101.6</ele>
        <time>2024-09-01T09:55:47Z</time>
      </trkpt>
      <trkpt lat="49.28204" lon="2.39748">
        <ele>101.5</ele>
        <time>2024-09-01T09:55:48Z</time>
      </trkpt>
      <trkpt lat="49.28205" lon="2.39748">
        <ele>101.4</ele>
        <time>2024-09-01T09:55:49Z</time>
      </trkpt>
      <trkpt lat="49.28207" lon="2.39747">
        <ele>101.3</ele>
        <time>2024-09-01T09:55:50Z</time>
      </trkpt>
      <trkpt lat="49.28208" lon="2.39746">
        <ele>101.2</ele>
        <time>2024-09-01T09:55:51Z</time>
      </trkpt>
      <trkpt lat="49.28209" lon="2.39746">
        <ele>101.1</ele>
        <time>2024-09-01T09:55:52Z</time>
      </trkpt>
      <trkpt lat="49.2821" lon="2.39744">
        <ele>101.1</ele>
        <time>2024-09-01T09:55:53Z</time>
      </trkpt>
      <trkpt lat="49.28211" lon="2.39743">
        <ele>101.1</ele>
        <time>2024-09-01T09:55:54Z</time>
      </trkpt>
      <trkpt lat="49.28212" lon="2.3974">
        <ele>101.1</ele>
        <time>2024-09-01T09:55:55Z</time>
      </trkpt>
      <trkpt lat="49.28213" lon="2.39738">
        <ele>101.1</ele>
        <time>2024-09-01T09:55:56Z</time>
      </trkpt>
      <trkpt lat="49.28213" lon="2.39736">
        <ele>101.2</ele>
        <time>2024-09-01T09:55:57Z</time>
      </trkpt>
      <trkpt lat="49.28214" lon="2.39733">
        <ele>101.2</ele>
        <time>2024-09-01T09:55:58Z</time>
      </trkpt>
      <trkpt lat="49.28214" lon="2.39731">
        <ele>101.2</ele>
        <time>2024-09-01T09:55:59Z</time>
      </trkpt>
      <trkpt lat="49.28214" lon="2.39728">
        <ele>101.2</ele>
        <time>2024-09-01T09:56:00Z</time>
      </trkpt>
      <trkpt lat="49.28215" lon="2.39726">
        <ele>101.3</ele>
        <time>2024-09-01T09:56:01Z</time>
      </trkpt>
      <trkpt lat="49.28215" lon="2.39723">
        <ele>101.3</ele>
        <time>2024-09-01T09:56:02Z</time>
      </trkpt>
      <trkpt lat="49.28215" lon="2.39721">
        <ele>101.3</ele>
        <time>2024-09-01T09:56:03Z</time>
      </trkpt>
      <trkpt lat="49.28216" lon="2.39718">
        <ele>101.2</ele>
        <time>2024-09-01T09:56:04Z</time>
      </trkpt>
      <trkpt lat="49.28216" lon="2.39716">
        <ele>101.1</ele>
        <time>2024-09-01T09:56:05Z</time>
      </trkpt>
      <trkpt lat="49.28217" lon="2.39713">
        <ele>101</ele>
        <time>2024-09-01T09:56:06Z</time>
      </trkpt>
      <trkpt lat="49.28217" lon="2.39711">
        <ele>100.8</ele>
        <time>2024-09-01T09:56:07Z</time>
      </trkpt>
      <trkpt lat="49.28218" lon="2.39709">
        <ele>100.7</ele>
        <time>2024-09-01T09:56:08Z</time>
      </trkpt>
      <trkpt lat="49.28218" lon="2.39707">
        <ele>100.6</ele>
        <time>2024-09-01T09:56:09Z</time>
      </trkpt>
      <trkpt lat="49.28219" lon="2.39705">
        <ele>100.5</ele>
        <time>2024-09-01T09:56:10Z</time>
      </trkpt>
      <trkpt lat="49.2822" lon="2.39703">
        <ele>100.4</ele>
        <time>2024-09-01T09:56:11Z</time>
      </trkpt>
      <trkpt lat="49.2822" lon="2.39701">
        <ele>100.3</ele>
        <time>2024-09-01T09:56:12Z</time>
      </trkpt>
      <trkpt lat="49.28221" lon="2.39699">
        <ele>100.2</ele>
        <time>2024-09-01T09:56:13Z</time>
      </trkpt>
      <trkpt lat="49.28222" lon="2.39698">
        <ele>100.1</ele>
        <time>2024-09-01T09:56:14Z</time>
      </trkpt>
      <trkpt lat="49.28222" lon="2.39696">
        <ele>100</ele>
        <time>2024-09-01T09:56:15Z</time>
      </trkpt>
      <trkpt lat="49.28223" lon="2.39693">
        <ele>100</ele>
        <time>2024-09-01T09:56:16Z</time>
      </trkpt>
      <trkpt lat="49.28223" lon="2.39691">
        <ele>100</ele>
        <time>2024-09-01T09:56:17Z</time>
      </trkpt>
      <trkpt lat="49.28224" lon="2.39689">
        <ele>100</ele>
        <time>2024-09-01T09:56:18Z</time>
      </trkpt>
      <trkpt lat="49.28225" lon="2.39687">
        <ele>100</ele>
        <time>2024-09-01T09:56:19Z</time>
      </trkpt>
      <trkpt lat="49.28226" lon="2.39685">
        <ele>100</ele>
        <time>2024-09-01T09:56:20Z</time>
      </trkpt>
      <trkpt lat="49.28226" lon="2.39683">
        <ele>100</ele>
        <time>2024-09-01T09:56:21Z</time>
      </trkpt>
      <trkpt lat="49.28227" lon="2.39681">
        <ele>100</ele>
        <time>2024-09-01T09:56:22Z</time>
      </trkpt>
      <trkpt lat="49.28228" lon="2.39679">
        <ele>100</ele>
        <time>2024-09-01T09:56:23Z</time>
      </trkpt>
      <trkpt lat="49.28228" lon="2.39678">
        <ele>100</ele>
        <time>2024-09-01T09:56:24Z</time>
      </trkpt>
      <trkpt lat="49.28229" lon="2.39675">
        <ele>100</ele>
        <time>2024-09-01T09:56:25Z</time>
      </trkpt>
      <trkpt lat="49.2823" lon="2.39673">
        <ele>100</ele>
        <time>2024-09-01T09:56:26Z</time>
      </trkpt>
      <trkpt lat="49.2823" lon="2.39671">
        <ele>100</ele>
        <time>2024-09-01T09:56:27Z</time>
      </trkpt>
      <trkpt lat="49.28231" lon="2.39669">
        <ele>100</ele>
        <time>2024-09-01T09:56:28Z</time>
      </trkpt>
      <trkpt lat="49.28232" lon="2.39667">
        <ele>100</ele>
        <time>2024-09-01T09:56:29Z</time>
      </trkpt>
      <trkpt lat="49.28232" lon="2.39664">
        <ele>100</ele>
        <time>2024-09-01T09:56:30Z</time>
      </trkpt>
      <trkpt lat="49.28233" lon="2.39662">
        <ele>99.9</ele>
        <time>2024-09-01T09:56:31Z</time>
      </trkpt>
      <trkpt lat="49.28234" lon="2.3966">
        <ele>99.9</ele>
        <time>2024-09-01T09:56:32Z</time>
      </trkpt>
      <trkpt lat="49.28235" lon="2.39658">
        <ele>99.9</ele>
        <time>2024-09-01T09:56:33Z</time>
      </trkpt>
      <trkpt lat="49.28235" lon="2.39656">
        <ele>99.8</ele>
        <time>2024-09-01T09:56:34Z</time>
      </trkpt>
      <trkpt lat="49.28236" lon="2.39654">
        <ele>99.8</ele>
        <time>2024-09-01T09:56:35Z</time>
      </trkpt>
      <trkpt lat="49.28237" lon="2.39652">
        <ele>99.7</ele>
        <time>2024-09-01T09:56:36Z</time>
      </trkpt>
      <trkpt lat="49.28237" lon="2.39649">
        <ele>99.7</ele>
        <time>2024-09-01T09:56:37Z</time>
      </trkpt>
      <trkpt lat="49.28238" lon="2.39647">
        <ele>99.6</ele>
        <time>2024-09-01T09:56:38Z</time>
      </trkpt>
      <trkpt lat="49.28239" lon="2.39644">
        <ele>99.5</ele>
        <time>2024-09-01T09:56:39Z</time>
      </trkpt>
      <trkpt lat="49.28239" lon="2.39642">
        <ele>99.4</ele>
        <time>2024-09-01T09:56:40Z</time>
      </trkpt>
      <trkpt lat="49.2824" lon="2.39639">
        <ele>99.4</ele>
        <time>2024-09-01T09:56:41Z</time>
      </trkpt>
      <trkpt lat="49.28241" lon="2.39637">
        <ele>99.3</ele>
        <time>2024-09-01T09:56:42Z</time>
      </trkpt>
      <trkpt lat="49.28241" lon="2.39634">
        <ele>99.3</ele>
        <time>2024-09-01T09:56:43Z</time>
      </trkpt>
      <trkpt lat="49.28242" lon="2.39632">
        <ele>99.3</ele>
        <time>2024-09-01T09:56:44Z</time>
      </trkpt>
      <trkpt lat="49.28243" lon="2.39629">
        <ele>99.3</ele>
        <time>2024-09-01T09:56:45Z</time>
      </trkpt>
      <trkpt lat="49.28244" lon="2.39627">
        <ele>99.2</ele>
        <time>2024-09-01T09:56:46Z</time>
      </trkpt>
      <trkpt lat="49.28244" lon="2.39625">
        <ele>99.2</ele>
        <time>2024-09-01T09:56:47Z</time>
      </trkpt>
      <trkpt lat="49.28244" lon="2.39623">
        <ele>99.2</ele>
        <time>2024-09-01T09:56:48Z</time>
      </trkpt>
      <trkpt lat="49.28245" lon="2.3962">
        <ele>99.2</ele>
        <time>2024-09-01T09:56:49Z</time>
      </trkpt>
      <trkpt lat="49.28245" lon="2.39618">
        <ele>99.2</ele>
        <time>2024-09-01T09:56:50Z</time>
      </trkpt>
      <trkpt lat="49.28246" lon="2.39615">
        <ele>99.2</ele>
        <time>2024-09-01T09:56:51Z</time>
      </trkpt>
      <trkpt lat="49.28246" lon="2.39613">
        <ele>99.2</ele>
        <time>2024-09-01T09:56:52Z</time>
      </trkpt>
      <trkpt lat="49.28246" lon="2.3961">
        <ele>99.1</ele>
        <time>2024-09-01T09:56:53Z</time>
      </trkpt>
      <trkpt lat="49.28247" lon="2.39608">
        <ele>99.1</ele>
        <time>2024-09-01T09:56:54Z</time>
      </trkpt>
      <trkpt lat="49.28248" lon="2.39606">
        <ele>99.1</ele>
        <time>2024-09-01T09:56:55Z</time>
      </trkpt>
      <trkpt lat="49.28248" lon="2.39604">
        <ele>99</ele>
        <time>2024-09-01T09:56:56Z</time>
      </trkpt>
      <trkpt lat="49.28249" lon="2.39601">
        <ele>99</ele>
        <time>2024-09-01T09:56:57Z</time>
      </trkpt>
      <trkpt lat="49.2825" lon="2.39599">
        <ele>99</ele>
        <time>2024-09-01T09:56:58Z</time>
      </trkpt>
      <trkpt lat="49.28251" lon="2.39597">
        <ele>99</ele>
        <time>2024-09-01T09:56:59Z</time>
      </trkpt>
      <trkpt lat="49.28251" lon="2.39595">
        <ele>99</ele>
        <time>2024-09-01T09:57:00Z</time>
      </trkpt>
      <trkpt lat="49.28252" lon="2.39593">
        <ele>99</ele>
        <time>2024-09-01T09:57:01Z</time>
      </trkpt>
      <trkpt lat="49.28253" lon="2.39591">
        <ele>99</ele>
        <time>2024-09-01T09:57:02Z</time>
      </trkpt>
      <trkpt lat="49.28254" lon="2.39588">
        <ele>99</ele>
        <time>2024-09-01T09:57:03Z</time>
      </trkpt>
      <trkpt lat="49.28255" lon="2.39586">
        <ele>99</ele>
        <time>2024-09-01T09:57:04Z</time>
      </trkpt>
      <trkpt lat="49.28256" lon="2.39584">
        <ele>99</ele>
        <time>2024-09-01T09:57:05Z</time>
      </trkpt>
      <trkpt lat="49.28257" lon="2.39581">
        <ele>99</ele>
        <time>2024-09-01T09:57:06Z</time>
      </trkpt>
      <trkpt lat="49.28258" lon="2.39579">
        <ele>99</ele>
        <time>2024-09-01T09:57:07Z</time>
      </trkpt>
      <trkpt lat="49.28259" lon="2.39577">
        <ele>98.9</ele>
        <time>2024-09-01T09:57:08Z</time>
      </trkpt>
      <trkpt lat="49.2826" lon="2.39576">
        <ele>98.9</ele>
        <time>2024-09-01T09:57:09Z</time>
      </trkpt>
      <trkpt lat="49.28261" lon="2.39574">
        <ele>98.9</ele>
        <time>2024-09-01T09:57:10Z</time>
      </trkpt>
      <trkpt lat="49.28263" lon="2.39572">
        <ele>98.8</ele>
        <time>2024-09-01T09:57:11Z</time>
      </trkpt>
      <trkpt lat="49.28264" lon="2.39571">
        <ele>98.8</ele>
        <time>2024-09-01T09:57:12Z</time>
      </trkpt>
      <trkpt lat="49.28266" lon="2.39569">
        <ele>98.7</ele>
        <time>2024-09-01T09:57:13Z</time>
      </trkpt>
      <trkpt lat="49.28267" lon="2.39567">
        <ele>98.6</ele>
        <time>2024-09-01T09:57:14Z</time>
      </trkpt>
      <trkpt lat="49.28268" lon="2.39566">
        <ele>98.6</ele>
        <time>2024-09-01T09:57:15Z</time>
      </trkpt>
      <trkpt lat="49.2827" lon="2.39564">
        <ele>98.5</ele>
        <time>2024-09-01T09:57:16Z</time>
      </trkpt>
      <trkpt lat="49.28271" lon="2.39563">
        <ele>98.4</ele>
        <time>2024-09-01T09:57:17Z</time>
      </trkpt>
      <trkpt lat="49.28273" lon="2.39561">
        <ele>98.4</ele>
        <time>2024-09-01T09:57:18Z</time>
      </trkpt>
      <trkpt lat="49.28274" lon="2.3956">
        <ele>98.3</ele>
        <time>2024-09-01T09:57:19Z</time>
      </trkpt>
      <trkpt lat="49.28276" lon="2.39558">
        <ele>98.2</ele>
        <time>2024-09-01T09:57:20Z</time>
      </trkpt>
      <trkpt lat="49.28277" lon="2.39557">
        <ele>98.1</ele>
        <time>2024-09-01T09:57:21Z</time>
      </trkpt>
      <trkpt lat="49.28279" lon="2.39555">
        <ele>98</ele>
        <time>2024-09-01T09:57:22Z</time>
      </trkpt>
      <trkpt lat="49.2828" lon="2.39554">
        <ele>98</ele>
        <time>2024-09-01T09:57:23Z</time>
      </trkpt>
      <trkpt lat="49.28282" lon="2.39553">
        <ele>98.1</ele>
        <time>2024-09-01T09:57:24Z</time>
      </trkpt>
      <trkpt lat="49.28284" lon="2.39552">
        <ele>98.1</ele>
        <time>2024-09-01T09:57:25Z</time>
      </trkpt>
      <trkpt lat="49.28285" lon="2.39551">
        <ele>98.1</ele>
        <time>2024-09-01T09:57:26Z</time>
      </trkpt>
      <trkpt lat="49.28287" lon="2.3955">
        <ele>98.1</ele>
        <time>2024-09-01T09:57:27Z</time>
      </trkpt>
      <trkpt lat="49.28289" lon="2.39549">
        <ele>98.2</ele>
        <time>2024-09-01T09:57:28Z</time>
      </trkpt>
      <trkpt lat="49.2829" lon="2.39548">
        <ele>98.2</ele>
        <time>2024-09-01T09:57:29Z</time>
      </trkpt>
      <trkpt lat="49.28292" lon="2.39547">
        <ele>98.2</ele>
        <time>2024-09-01T09:57:30Z</time>
      </trkpt>
      <trkpt lat="49.28293" lon="2.39546">
        <ele>98.2</ele>
        <time>2024-09-01T09:57:31Z</time>
      </trkpt>
      <trkpt lat="49.28295" lon="2.39545">
        <ele>98.2</ele>
        <time>2024-09-01T09:57:32Z</time>
      </trkpt>
      <trkpt lat="49.28296" lon="2.39544">
        <ele>98.1</ele>
        <time>2024-09-01T09:57:33Z</time>
      </trkpt>
      <trkpt lat="49.28298" lon="2.39542">
        <ele>98.1</ele>
        <time>2024-09-01T09:57:34Z</time>
      </trkpt>
      <trkpt lat="49.283" lon="2.39541">
        <ele>98.1</ele>
        <time>2024-09-01T09:57:35Z</time>
      </trkpt>
      <trkpt lat="49.28301" lon="2.3954">
        <ele>98.1</ele>
        <time>2024-09-01T09:57:36Z</time>
      </trkpt>
      <trkpt lat="49.28303" lon="2.39538">
        <ele>98.1</ele>
        <time>2024-09-01T09:57:37Z</time>
      </trkpt>
      <trkpt lat="49.28304" lon="2.39537">
        <ele>98</ele>
        <time>2024-09-01T09:57:38Z</time>
      </trkpt>
      <trkpt lat="49.28305" lon="2.39536">
        <ele>98</ele>
        <time>2024-09-01T09:57:39Z</time>
      </trkpt>
      <trkpt lat="49.28307" lon="2.39534">
        <ele>98</ele>
        <time>2024-09-01T09:57:40Z</time>
      </trkpt>
      <trkpt lat="49.28308" lon="2.39532">
        <ele>98</ele>
        <time>2024-09-01T09:57:41Z</time>
      </trkpt>
      <trkpt lat="49.28309" lon="2.39531">
        <ele>98</ele>
        <time>2024-09-01T09:57:42Z</time>
      </trkpt>
      <trkpt lat="49.28311" lon="2.39529">
        <ele>98</ele>
        <time>2024-09-01T09:57:43Z</time>
      </trkpt>
      <trkpt lat="49.28312" lon="2.39527">
        <ele>98</ele>
        <time>2024-09-01T09:57:44Z</time>
      </trkpt>
      <trkpt lat="49.28313" lon="2.39525">
        <ele>98</ele>
        <time>2024-09-01T09:57:45Z</time>
      </trkpt>
      <trkpt lat="49.28315" lon="2.39523">
        <ele>98</ele>
        <time>2024-09-01T09:57:46Z</time>
      </trkpt>
      <trkpt lat="49.28316" lon="2.39521">
        <ele>98</ele>
        <time>2024-09-01T09:57:47Z</time>
      </trkpt>
      <trkpt lat="49.28317" lon="2.39519">
        <ele>98</ele>
        <time>2024-09-01T09:57:48Z</time>
      </trkpt>
      <trkpt lat="49.28318" lon="2.39516">
        <ele>98</ele>
        <time>2024-09-01T09:57:49Z</time>
      </trkpt>
      <trkpt lat="49.28319" lon="2.39514">
        <ele>98</ele>
        <time>2024-09-01T09:57:50Z</time>
      </trkpt>
      <trkpt lat="49.2832" lon="2.39512">
        <ele>98</ele>
        <time>2024-09-01T09:57:51Z</time>
      </trkpt>
      <trkpt lat="49.28321" lon="2.39509">
        <ele>98</ele>
        <time>2024-09-01T09:57:52Z</time>
      </trkpt>
      <trkpt lat="49.28322" lon="2.39507">
        <ele>98</ele>
        <time>2024-09-01T09:57:53Z</time>
      </trkpt>
      <trkpt lat="49.28322" lon="2.39505">
        <ele>98</ele>
        <time>2024-09-01T09:57:54Z</time>
      </trkpt>
      <trkpt lat="49.28323" lon="2.39503">
        <ele>98</ele>
        <time>2024-09-01T09:57:55Z</time>
      </trkpt>
      <trkpt lat="49.28324" lon="2.395">
        <ele>98</ele>
        <time>2024-09-01T09:57:56Z</time>
      </trkpt>
      <trkpt lat="49.28325" lon="2.39498">
        <ele>97.9</ele>
        <time>2024-09-01T09:57:57Z</time>
      </trkpt>
      <trkpt lat="49.28326" lon="2.39496">
        <ele>97.9</ele>
        <time>2024-09-01T09:57:58Z</time>
      </trkpt>
      <trkpt lat="49.28327" lon="2.39494">
        <ele>97.8</ele>
        <time>2024-09-01T09:57:59Z</time>
      </trkpt>
      <trkpt lat="49.28328" lon="2.39491">
        <ele>97.8</ele>
        <time>2024-09-01T09:58:00Z</time>
      </trkpt>
      <trkpt lat="49.28328" lon="2.39489">
        <ele>97.7</ele>
        <time>2024-09-01T09:58:01Z</time>
      </trkpt>
      <trkpt lat="49.28329" lon="2.39486">
        <ele>97.6</ele>
        <time>2024-09-01T09:58:02Z</time>
      </trkpt>
      <trkpt lat="49.28329" lon="2.39484">
        <ele>97.5</ele>
        <time>2024-09-01T09:58:03Z</time>
      </trkpt>
      <trkpt lat="49.2833" lon="2.39481">
        <ele>97.4</ele>
        <time>2024-09-01T09:58:04Z</time>
      </trkpt>
      <trkpt lat="49.2833" lon="2.39479">
        <ele>97.3</ele>
        <time>2024-09-01T09:58:05Z</time>
      </trkpt>
      <trkpt lat="49.28331" lon="2.39476">
        <ele>97.2</ele>
        <time>2024-09-01T09:58:06Z</time>
      </trkpt>
      <trkpt lat="49.28331" lon="2.39474">
        <ele>97.1</ele>
        <time>2024-09-01T09:58:07Z</time>
      </trkpt>
      <trkpt lat="49.28331" lon="2.39471">
        <ele>97.1</ele>
        <time>2024-09-01T09:58:08Z</time>
      </trkpt>
      <trkpt lat="49.28332" lon="2.39468">
        <ele>97.1</ele>
        <time>2024-09-01T09:58:09Z</time>
      </trkpt>
      <trkpt lat="49.28332" lon="2.39466">
        <ele>97.1</ele>
        <time>2024-09-01T09:58:10Z</time>
      </trkpt>
      <trkpt lat="49.28332" lon="2.39463">
        <ele>97.1</ele>
        <time>2024-09-01T09:58:11Z</time>
      </trkpt>
      <trkpt lat="49.28332" lon="2.39461">
        <ele>97.1</ele>
        <time>2024-09-01T09:58:12Z</time>
      </trkpt>
      <trkpt lat="49.28332" lon="2.39458">
        <ele>97</ele>
        <time>2024-09-01T09:58:13Z</time>
      </trkpt>
      <trkpt lat="49.28332" lon="2.39455">
        <ele>97</ele>
        <time>2024-09-01T09:58:14Z</time>
      </trkpt>
      <trkpt lat="49.28332" lon="2.39453">
        <ele>97</ele>
        <time>2024-09-01T09:58:15Z</time>
      </trkpt>
      <trkpt lat="49.28332" lon="2.3945">
        <ele>97</ele>
        <time>2024-09-01T09:58:16Z</time>
      </trkpt>
      <trkpt lat="49.28332" lon="2.39448">
        <ele>97</ele>
        <time>2024-09-01T09:58:17Z</time>
      </trkpt>
      <trkpt lat="49.28332" lon="2.39446">
        <ele>97</ele>
        <time>2024-09-01T09:58:18Z</time>
      </trkpt>
      <trkpt lat="49.28332" lon="2.39444">
        <ele>97</ele>
        <time>2024-09-01T09:58:19Z</time>
      </trkpt>
      <trkpt lat="49.28332" lon="2.39442">
        <ele>97</ele>
        <time>2024-09-01T09:58:20Z</time>
      </trkpt>
      <trkpt lat="49.28332" lon="2.3944">
        <ele>97</ele>
        <time>2024-09-01T09:58:21Z</time>
      </trkpt>
      <trkpt lat="49.28333" lon="2.39438">
        <ele>97</ele>
        <time>2024-09-01T09:58:22Z</time>
      </trkpt>
      <trkpt lat="49.28333" lon="2.39435">
        <ele>97</ele>
        <time>2024-09-01T09:58:23Z</time>
      </trkpt>
      <trkpt lat="49.28333" lon="2.39433">
        <ele>97</ele>
        <time>2024-09-01T09:58:24Z</time>
      </trkpt>
      <trkpt lat="49.28333" lon="2.3943">
        <ele>97</ele>
        <time>2024-09-01T09:58:25Z</time>
      </trkpt>
      <trkpt lat="49.28333" lon="2.39428">
        <ele>97</ele>
        <time>2024-09-01T09:58:26Z</time>
      </trkpt>
      <trkpt lat="49.28333" lon="2.39426">
        <ele>97</ele>
        <time>2024-09-01T09:58:27Z</time>
      </trkpt>
      <trkpt lat="49.28333" lon="2.39423">
        <ele>97</ele>
        <time>2024-09-01T09:58:28Z</time>
      </trkpt>
      <trkpt lat="49.28333" lon="2.39421">
        <ele>97</ele>
        <time>2024-09-01T09:58:29Z</time>
      </trkpt>
      <trkpt lat="49.28333" lon="2.39419">
        <ele>97</ele>
        <time>2024-09-01T09:58:30Z</time>
      </trkpt>
      <trkpt lat="49.28333" lon="2.39416">
        <ele>97</ele>
        <time>2024-09-01T09:58:31Z</time>
      </trkpt>
      <trkpt lat="49.28333" lon="2.39414">
        <ele>97</ele>
        <time>2024-09-01T09:58:32Z</time>
      </trkpt>
      <trkpt lat="49.28333" lon="2.39411">
        <ele>97</ele>
        <time>2024-09-01T09:58:33Z</time>
      </trkpt>
      <trkpt lat="49.28333" lon="2.39409">
        <ele>97</ele>
        <time>2024-09-01T09:58:34Z</time>
      </trkpt>
      <trkpt lat="49.28333" lon="2.39407">
        <ele>97</ele>
        <time>2024-09-01T09:58:35Z</time>
      </trkpt>
      <trkpt lat="49.28333" lon="2.39404">
        <ele>97</ele>
        <time>2024-09-01T09:58:36Z</time>
      </trkpt>
      <trkpt lat="49.28333" lon="2.39402">
        <ele>97</ele>
        <time>2024-09-01T09:58:37Z</time>
      </trkpt>
      <trkpt lat="49.28334" lon="2.39399">
        <ele>97</ele>
        <time>2024-09-01T09:58:38Z</time>
      </trkpt>
      <trkpt lat="49.28334" lon="2.39397">
        <ele>97</ele>
        <time>2024-09-01T09:58:39Z</time>
      </trkpt>
      <trkpt lat="49.28334" lon="2.39394">
        <ele>97</ele>
        <time>2024-09-01T09:58:40Z</time>
      </trkpt>
      <trkpt lat="49.28334" lon="2.39391">
        <ele>97</ele>
        <time>2024-09-01T09:58:41Z</time>
      </trkpt>
      <trkpt lat="49.28334" lon="2.39389">
        <ele>97</ele>
        <time>2024-09-01T09:58:42Z</time>
      </trkpt>
      <trkpt lat="49.28334" lon="2.39387">
        <ele>97</ele>
        <time>2024-09-01T09:58:43Z</time>
      </trkpt>
      <trkpt lat="49.28334" lon="2.39384">
        <ele>97</ele>
        <time>2024-09-01T09:58:44Z</time>
      </trkpt>
      <trkpt lat="49.28334" lon="2.39382">
        <ele>97</ele>
        <time>2024-09-01T09:58:45Z</time>
      </trkpt>
      <trkpt lat="49.28334" lon="2.3938">
        <ele>97</ele>
        <time>2024-09-01T09:58:46Z</time>
      </trkpt>
      <trkpt lat="49.28334" lon="2.39377">
        <ele>97</ele>
        <time>2024-09-01T09:58:47Z</time>
      </trkpt>
      <trkpt lat="49.28334" lon="2.39375">
        <ele>97</ele>
        <time>2024-09-01T09:58:48Z</time>
      </trkpt>
      <trkpt lat="49.28334" lon="2.39372">
        <ele>97</ele>
        <time>2024-09-01T09:58:49Z</time>
      </trkpt>
      <trkpt lat="49.28334" lon="2.3937">
        <ele>97</ele>
        <time>2024-09-01T09:58:50Z</time>
      </trkpt>
      <trkpt lat="49.28334" lon="2.39367">
        <ele>97</ele>
        <time>2024-09-01T09:58:51Z</time>
      </trkpt>
      <trkpt lat="49.28334" lon="2.39365">
        <ele>97</ele>
        <time>2024-09-01T09:58:52Z</time>
      </trkpt>
      <trkpt lat="49.28334" lon="2.39363">
        <ele>97</ele>
        <time>2024-09-01T09:58:53Z</time>
      </trkpt>
      <trkpt lat="49.28334" lon="2.39361">
        <ele>97</ele>
        <time>2024-09-01T09:58:54Z</time>
      </trkpt>
      <trkpt lat="49.28334" lon="2.39358">
        <ele>97</ele>
        <time>2024-09-01T09:58:55Z</time>
      </trkpt>
      <trkpt lat="49.28333" lon="2.39356">
        <ele>97</ele>
        <time>2024-09-01T09:58:56Z</time>
      </trkpt>
      <trkpt lat="49.28333" lon="2.39355">
        <ele>97</ele>
        <time>2024-09-01T09:58:57Z</time>
      </trkpt>
      <trkpt lat="49.28333" lon="2.39353">
        <ele>97</ele>
        <time>2024-09-01T09:58:58Z</time>
      </trkpt>
      <trkpt lat="49.28333" lon="2.39351">
        <ele>97</ele>
        <time>2024-09-01T09:58:59Z</time>
      </trkpt>
      <trkpt lat="49.28333" lon="2.39349">
        <ele>97</ele>
        <time>2024-09-01T09:59:00Z</time>
      </trkpt>
      <trkpt lat="49.28333" lon="2.39346">
        <ele>97</ele>
        <time>2024-09-01T09:59:01Z</time>
      </trkpt>
      <trkpt lat="49.28333" lon="2.39344">
        <ele>97</ele>
        <time>2024-09-01T09:59:02Z</time>
      </trkpt>
      <trkpt lat="49.28333" lon="2.39341">
        <ele>97</ele>
        <time>2024-09-01T09:59:03Z</time>
      </trkpt>
      <trkpt lat="49.28334" lon="2.39339">
        <ele>97</ele>
        <time>2024-09-01T09:59:04Z</time>
      </trkpt>
      <trkpt lat="49.28334" lon="2.39336">
        <ele>97</ele>
        <time>2024-09-01T09:59:05Z</time>
      </trkpt>
      <trkpt lat="49.28334" lon="2.39334">
        <ele>97</ele>
        <time>2024-09-01T09:59:06Z</time>
      </trkpt>
      <trkpt lat="49.28334" lon="2.39331">
        <ele>97</ele>
        <time>2024-09-01T09:59:07Z</time>
      </trkpt>
      <trkpt lat="49.28333" lon="2.39329">
        <ele>97</ele>
        <time>2024-09-01T09:59:08Z</time>
      </trkpt>
      <trkpt lat="49.28333" lon="2.39327">
        <ele>97</ele>
        <time>2024-09-01T09:59:09Z</time>
      </trkpt>
      <trkpt lat="49.28333" lon="2.39324">
        <ele>97</ele>
        <time>2024-09-01T09:59:10Z</time>
      </trkpt>
      <trkpt lat="49.28334" lon="2.39322">
        <ele>97</ele>
        <time>2024-09-01T09:59:11Z</time>
      </trkpt>
      <trkpt lat="49.28334" lon="2.3932">
        <ele>97</ele>
        <time>2024-09-01T09:59:12Z</time>
      </trkpt>
      <trkpt lat="49.28334" lon="2.39317">
        <ele>97</ele>
        <time>2024-09-01T09:59:13Z</time>
      </trkpt>
      <trkpt lat="49.28334" lon="2.39315">
        <ele>97</ele>
        <time>2024-09-01T09:59:14Z</time>
      </trkpt>
      <trkpt lat="49.28334" lon="2.39312">
        <ele>97</ele>
        <time>2024-09-01T09:59:15Z</time>
      </trkpt>
      <trkpt lat="49.28334" lon="2.3931">
        <ele>97</ele>
        <time>2024-09-01T09:59:16Z</time>
      </trkpt>
      <trkpt lat="49.28334" lon="2.39307">
        <ele>97</ele>
        <time>2024-09-01T09:59:17Z</time>
      </trkpt>
      <trkpt lat="49.28334" lon="2.39305">
        <ele>97</ele>
        <time>2024-09-01T09:59:18Z</time>
      </trkpt>
      <trkpt lat="49.28334" lon="2.39302">
        <ele>97</ele>
        <time>2024-09-01T09:59:19Z</time>
      </trkpt>
      <trkpt lat="49.28334" lon="2.393">
        <ele>97</ele>
        <time>2024-09-01T09:59:20Z</time>
      </trkpt>
      <trkpt lat="49.28335" lon="2.39297">
        <ele>97</ele>
        <time>2024-09-01T09:59:21Z</time>
      </trkpt>
      <trkpt lat="49.28335" lon="2.39295">
        <ele>97</ele>
        <time>2024-09-01T09:59:22Z</time>
      </trkpt>
      <trkpt lat="49.28335" lon="2.39293">
        <ele>97</ele>
        <time>2024-09-01T09:59:23Z</time>
      </trkpt>
      <trkpt lat="49.28335" lon="2.39291">
        <ele>97.1</ele>
        <time>2024-09-01T09:59:24Z</time>
      </trkpt>
      <trkpt lat="49.28335" lon="2.39288">
        <ele>97.1</ele>
        <time>2024-09-01T09:59:25Z</time>
      </trkpt>
      <trkpt lat="49.28335" lon="2.39286">
        <ele>97.1</ele>
        <time>2024-09-01T09:59:26Z</time>
      </trkpt>
      <trkpt lat="49.28335" lon="2.39284">
        <ele>97.1</ele>
        <time>2024-09-01T09:59:27Z</time>
      </trkpt>
      <trkpt lat="49.28335" lon="2.39282">
        <ele>97.1</ele>
        <time>2024-09-01T09:59:28Z</time>
      </trkpt>
      <trkpt lat="49.28335" lon="2.39279">
        <ele>97.1</ele>
        <time>2024-09-01T09:59:29Z</time>
      </trkpt>
      <trkpt lat="49.28335" lon="2.39277">
        <ele>97.1</ele>
        <time>2024-09-01T09:59:30Z</time>
      </trkpt>
      <trkpt lat="49.28335" lon="2.39274">
        <ele>97.2</ele>
        <time>2024-09-01T09:59:31Z</time>
      </trkpt>
      <trkpt lat="49.28335" lon="2.39272">
        <ele>97.3</ele>
        <time>2024-09-01T09:59:32Z</time>
      </trkpt>
      <trkpt lat="49.28335" lon="2.39269">
        <ele>97.3</ele>
        <time>2024-09-01T09:59:33Z</time>
      </trkpt>
      <trkpt lat="49.28335" lon="2.39267">
        <ele>97.4</ele>
        <time>2024-09-01T09:59:34Z</time>
      </trkpt>
      <trkpt lat="49.28335" lon="2.39265">
        <ele>97.5</ele>
        <time>2024-09-01T09:59:35Z</time>
      </trkpt>
      <trkpt lat="49.28335" lon="2.39262">
        <ele>97.6</ele>
        <time>2024-09-01T09:59:36Z</time>
      </trkpt>
      <trkpt lat="49.28334" lon="2.3926">
        <ele>97.7</ele>
        <time>2024-09-01T09:59:37Z</time>
      </trkpt>
      <trkpt lat="49.28334" lon="2.39258">
        <ele>97.7</ele>
        <time>2024-09-01T09:59:38Z</time>
      </trkpt>
      <trkpt lat="49.28334" lon="2.39255">
        <ele>97.8</ele>
        <time>2024-09-01T09:59:39Z</time>
      </trkpt>
      <trkpt lat="49.28333" lon="2.39253">
        <ele>97.9</ele>
        <time>2024-09-01T09:59:40Z</time>
      </trkpt>
      <trkpt lat="49.28333" lon="2.3925">
        <ele>98</ele>
        <time>2024-09-01T09:59:41Z</time>
      </trkpt>
      <trkpt lat="49.28332" lon="2.39248">
        <ele>98</ele>
        <time>2024-09-01T09:59:42Z</time>
      </trkpt>
      <trkpt lat="49.28332" lon="2.39245">
        <ele>97.9</ele>
        <time>2024-09-01T09:59:43Z</time>
      </trkpt>
      <trkpt lat="49.28331" lon="2.39243">
        <ele>97.9</ele>
        <time>2024-09-01T09:59:44Z</time>
      </trkpt>
      <trkpt lat="49.28331" lon="2.39241">
        <ele>97.9</ele>
        <time>2024-09-01T09:59:45Z</time>
      </trkpt>
      <trkpt lat="49.2833" lon="2.39239">
        <ele>97.9</ele>
        <time>2024-09-01T09:59:46Z</time>
      </trkpt>
      <trkpt lat="49.2833" lon="2.39237">
        <ele>97.9</ele>
        <time>2024-09-01T09:59:47Z</time>
      </trkpt>
      <trkpt lat="49.28329" lon="2.39235">
        <ele>97.9</ele>
        <time>2024-09-01T09:59:48Z</time>
      </trkpt>
      <trkpt lat="49.28329" lon="2.39233">
        <ele>97.8</ele>
        <time>2024-09-01T09:59:49Z</time>
      </trkpt>
      <trkpt lat="49.28328" lon="2.3923">
        <ele>97.8</ele>
        <time>2024-09-01T09:59:50Z</time>
      </trkpt>
      <trkpt lat="49.28328" lon="2.39228">
        <ele>97.8</ele>
        <time>2024-09-01T09:59:51Z</time>
      </trkpt>
      <trkpt lat="49.28327" lon="2.39226">
        <ele>97.8</ele>
        <time>2024-09-01T09:59:52Z</time>
      </trkpt>
      <trkpt lat="49.28326" lon="2.39224">
        <ele>97.7</ele>
        <time>2024-09-01T09:59:53Z</time>
      </trkpt>
      <trkpt lat="49.28325" lon="2.39222">
        <ele>97.7</ele>
        <time>2024-09-01T09:59:54Z</time>
      </trkpt>
      <trkpt lat="49.28324" lon="2.39219">
        <ele>97.7</ele>
        <time>2024-09-01T09:59:55Z</time>
      </trkpt>
      <trkpt lat="49.28323" lon="2.39218">
        <ele>97.7</ele>
        <time>2024-09-01T09:59:56Z</time>
      </trkpt>
      <trkpt lat="49.28323" lon="2.39216">
        <ele>97.7</ele>
        <time>2024-09-01T09:59:57Z</time>
      </trkpt>
      <trkpt lat="49.28322" lon="2.39214">
        <ele>97.7</ele>
        <time>2024-09-01T09:59:58Z</time>
      </trkpt>
      <trkpt lat="49.28321" lon="2.39213">
        <ele>97.7</ele>
        <time>2024-09-01T09:59:59Z</time>
      </trkpt>
      <trkpt lat="49.2832" lon="2.39211">
        <ele>97.7</ele>
        <time>2024-09-01T10:00:00Z</time>
      </trkpt>
      <trkpt lat="49.28318" lon="2.39209">
        <ele>97.7</ele>
        <time>2024-09-01T10:00:01Z</time>
      </trkpt>
      <trkpt lat="49.28317" lon="2.39208">
        <ele>97.7</ele>
        <time>2024-09-01T10:00:02Z</time>
      </trkpt>
      <trkpt lat="49.28316" lon="2.39206">
        <ele>97.7</ele>
        <time>2024-09-01T10:00:03Z</time>
      </trkpt>
      <trkpt lat="49.28315" lon="2.39204">
        <ele>97.8</ele>
        <time>2024-09-01T10:00:04Z</time>
      </trkpt>
      <trkpt lat="49.28313" lon="2.39202">
        <ele>97.8</ele>
        <time>2024-09-01T10:00:05Z</time>
      </trkpt>
      <trkpt lat="49.28312" lon="2.39201">
        <ele>97.8</ele>
        <time>2024-09-01T10:00:06Z</time>
      </trkpt>
      <trkpt lat="49.28311" lon="2.39199">
        <ele>97.9</ele>
        <time>2024-09-01T10:00:07Z</time>
      </trkpt>
      <trkpt lat="49.2831" lon="2.39197">
        <ele>97.9</ele>
        <time>2024-09-01T10:00:08Z</time>
      </trkpt>
      <trkpt lat="49.28309" lon="2.39196">
        <ele>98</ele>
        <time>2024-09-01T10:00:09Z</time>
      </trkpt>
      <trkpt lat="49.28308" lon="2.39195">
        <ele>98</ele>
        <time>2024-09-01T10:00:10Z</time>
      </trkpt>
      <trkpt lat="49.28307" lon="2.39193">
        <ele>98</ele>
        <time>2024-09-01T10:00:11Z</time>
      </trkpt>
      <trkpt lat="49.28306" lon="2.39191">
        <ele>98</ele>
        <time>2024-09-01T10:00:12Z</time>
      </trkpt>
      <trkpt lat="49.28305" lon="2.3919">
        <ele>98</ele>
        <time>2024-09-01T10:00:13Z</time>
      </trkpt>
      <trkpt lat="49.28304" lon="2.39188">
        <ele>98</ele>
        <time>2024-09-01T10:00:14Z</time>
      </trkpt>
      <trkpt lat="49.28303" lon="2.39186">
        <ele>97.9</ele>
        <time>2024-09-01T10:00:15Z</time>
      </trkpt>
      <trkpt lat="49.28302" lon="2.39185">
        <ele>97.9</ele>
        <time>2024-09-01T10:00:16Z</time>
      </trkpt>
      <trkpt lat="49.283" lon="2.39183">
        <ele>97.9</ele>
        <time>2024-09-01T10:00:17Z</time>
      </trkpt>
      <trkpt lat="49.28299" lon="2.39181">
        <ele>97.9</ele>
        <time>2024-09-01T10:00:18Z</time>
      </trkpt>
      <trkpt lat="49.28298" lon="2.3918">
        <ele>97.9</ele>
        <time>2024-09-01T10:00:19Z</time>
      </trkpt>
      <trkpt lat="49.28297" lon="2.39178">
        <ele>97.9</ele>
        <time>2024-09-01T10:00:20Z</time>
      </trkpt>
      <trkpt lat="49.28296" lon="2.39176">
        <ele>97.9</ele>
        <time>2024-09-01T10:00:21Z</time>
      </trkpt>
      <trkpt lat="49.28295" lon="2.39175">
        <ele>97.9</ele>
        <time>2024-09-01T10:00:22Z</time>
      </trkpt>
      <trkpt lat="49.28293" lon="2.39173">
        <ele>97.9</ele>
        <time>2024-09-01T10:00:23Z</time>
      </trkpt>
      <trkpt lat="49.28292" lon="2.39171">
        <ele>97.9</ele>
        <time>2024-09-01T10:00:24Z</time>
      </trkpt>
      <trkpt lat="49.28291" lon="2.39169">
        <ele>97.9</ele>
        <time>2024-09-01T10:00:25Z</time>
      </trkpt>
      <trkpt lat="49.2829" lon="2.39168">
        <ele>98</ele>
        <time>2024-09-01T10:00:26Z</time>
      </trkpt>
      <trkpt lat="49.28288" lon="2.39166">
        <ele>98</ele>
        <time>2024-09-01T10:00:27Z</time>
      </trkpt>
      <trkpt lat="49.28287" lon="2.39164">
        <ele>97.9</ele>
        <time>2024-09-01T10:00:28Z</time>
      </trkpt>
      <trkpt lat="49.28286" lon="2.39163">
        <ele>97.9</ele>
        <time>2024-09-01T10:00:29Z</time>
      </trkpt>
      <trkpt lat="49.28285" lon="2.39161">
        <ele>97.9</ele>
        <time>2024-09-01T10:00:30Z</time>
      </trkpt>
      <trkpt lat="49.28284" lon="2.39159">
        <ele>97.8</ele>
        <time>2024-09-01T10:00:31Z</time>
      </trkpt>
      <trkpt lat="49.28283" lon="2.39157">
        <ele>97.7</ele>
        <time>2024-09-01T10:00:32Z</time>
      </trkpt>
      <trkpt lat="49.28282" lon="2.39155">
        <ele>97.6</ele>
        <time>2024-09-01T10:00:33Z</time>
      </trkpt>
      <trkpt lat="49.28281" lon="2.39153">
        <ele>97.6</ele>
        <time>2024-09-01T10:00:34Z</time>
      </trkpt>
      <trkpt lat="49.2828" lon="2.39151">
        <ele>97.5</ele>
        <time>2024-09-01T10:00:35Z</time>
      </trkpt>
      <trkpt lat="49.28279" lon="2.39149">
        <ele>97.4</ele>
        <time>2024-09-01T10:00:36Z</time>
      </trkpt>
      <trkpt lat="49.28278" lon="2.39147">
        <ele>97.3</ele>
        <time>2024-09-01T10:00:37Z</time>
      </trkpt>
      <trkpt lat="49.28277" lon="2.39145">
        <ele>97.2</ele>
        <time>2024-09-01T10:00:38Z</time>
      </trkpt>
      <trkpt lat="49.28276" lon="2.39143">
        <ele>97.1</ele>
        <time>2024-09-01T10:00:39Z</time>
      </trkpt>
      <trkpt lat="49.28275" lon="2.39142">
        <ele>97.1</ele>
        <time>2024-09-01T10:00:40Z</time>
      </trkpt>
      <trkpt lat="49.28274" lon="2.3914">
        <ele>97</ele>
        <time>2024-09-01T10:00:41Z</time>
      </trkpt>
      <trkpt lat="49.28273" lon="2.39138">
        <ele>97</ele>
        <time>2024-09-01T10:00:42Z</time>
      </trkpt>
      <trkpt lat="49.28272" lon="2.39136">
        <ele>97</ele>
        <time>2024-09-01T10:00:43Z</time>
      </trkpt>
      <trkpt lat="49.28271" lon="2.39134">
        <ele>97</ele>
        <time>2024-09-01T10:00:44Z</time>
      </trkpt>
      <trkpt lat="49.28269" lon="2.39133">
        <ele>97</ele>
        <time>2024-09-01T10:00:45Z</time>
      </trkpt>
      <trkpt lat="49.28268" lon="2.39131">
        <ele>97</ele>
        <time>2024-09-01T10:00:46Z</time>
      </trkpt>
      <trkpt lat="49.28267" lon="2.39129">
        <ele>97</ele>
        <time>2024-09-01T10:00:47Z</time>
      </trkpt>
      <trkpt lat="49.28266" lon="2.39127">
        <ele>97</ele>
        <time>2024-09-01T10:00:48Z</time>
      </trkpt>
      <trkpt lat="49.28265" lon="2.39125">
        <ele>97</ele>
        <time>2024-09-01T10:00:49Z</time>
      </trkpt>
      <trkpt lat="49.28264" lon="2.39124">
        <ele>97</ele>
        <time>2024-09-01T10:00:50Z</time>
      </trkpt>
      <trkpt lat="49.28263" lon="2.39122">
        <ele>97</ele>
        <time>2024-09-01T10:00:51Z</time>
      </trkpt>
      <trkpt lat="49.28262" lon="2.3912">
        <ele>97</ele>
        <time>2024-09-01T10:00:52Z</time>
      </trkpt>
      <trkpt lat="49.28261" lon="2.39118">
        <ele>97</ele>
        <time>2024-09-01T10:00:53Z</time>
      </trkpt>
      <trkpt lat="49.2826" lon="2.39116">
        <ele>97</ele>
        <time>2024-09-01T10:00:54Z</time>
      </trkpt>
      <trkpt lat="49.28259" lon="2.39114">
        <ele>97</ele>
        <time>2024-09-01T10:00:55Z</time>
      </trkpt>
      <trkpt lat="49.28258" lon="2.39112">
        <ele>97</ele>
        <time>2024-09-01T10:00:56Z</time>
      </trkpt>
      <trkpt lat="49.28257" lon="2.39111">
        <ele>97</ele>
        <time>2024-09-01T10:00:57Z</time>
      </trkpt>
      <trkpt lat="49.28256" lon="2.39109">
        <ele>97</ele>
        <time>2024-09-01T10:00:58Z</time>
      </trkpt>
      <trkpt lat="49.28255" lon="2.39107">
        <ele>97</ele>
        <time>2024-09-01T10:00:59Z</time>
      </trkpt>
      <trkpt lat="49.28254" lon="2.39106">
        <ele>97</ele>
        <time>2024-09-01T10:01:00Z</time>
      </trkpt>
      <trkpt lat="49.28253" lon="2.39104">
        <ele>97</ele>
        <time>2024-09-01T10:01:01Z</time>
      </trkpt>
      <trkpt lat="49.28252" lon="2.39103">
        <ele>97</ele>
        <time>2024-09-01T10:01:02Z</time>
      </trkpt>
      <trkpt lat="49.28251" lon="2.39101">
        <ele>97</ele>
        <time>2024-09-01T10:01:03Z</time>
      </trkpt>
      <trkpt lat="49.2825" lon="2.39099">
        <ele>97</ele>
        <time>2024-09-01T10:01:04Z</time>
      </trkpt>
      <trkpt lat="49.28249" lon="2.39097">
        <ele>96.9</ele>
        <time>2024-09-01T10:01:05Z</time>
      </trkpt>
      <trkpt lat="49.28247" lon="2.39095">
        <ele>96.9</ele>
        <time>2024-09-01T10:01:06Z</time>
      </trkpt>
      <trkpt lat="49.28246" lon="2.39093">
        <ele>96.9</ele>
        <time>2024-09-01T10:01:07Z</time>
      </trkpt>
      <trkpt lat="49.28245" lon="2.39092">
        <ele>96.8</ele>
        <time>2024-09-01T10:01:08Z</time>
      </trkpt>
      <trkpt lat="49.28244" lon="2.3909">
        <ele>96.8</ele>
        <time>2024-09-01T10:01:09Z</time>
      </trkpt>
      <trkpt lat="49.28243" lon="2.39088">
        <ele>96.8</ele>
        <time>2024-09-01T10:01:10Z</time>
      </trkpt>
      <trkpt lat="49.28242" lon="2.39086">
        <ele>96.7</ele>
        <time>2024-09-01T10:01:11Z</time>
      </trkpt>
      <trkpt lat="49.28241" lon="2.39084">
        <ele>96.7</ele>
        <time>2024-09-01T10:01:12Z</time>
      </trkpt>
      <trkpt lat="49.2824" lon="2.39082">
        <ele>96.6</ele>
        <time>2024-09-01T10:01:13Z</time>
      </trkpt>
      <trkpt lat="49.28239" lon="2.3908">
        <ele>96.6</ele>
        <time>2024-09-01T10:01:14Z</time>
      </trkpt>
      <trkpt lat="49.28238" lon="2.39079">
        <ele>96.6</ele>
        <time>2024-09-01T10:01:15Z</time>
      </trkpt>
      <trkpt lat="49.28237" lon="2.39077">
        <ele>96.5</ele>
        <time>2024-09-01T10:01:16Z</time>
      </trkpt>
      <trkpt lat="49.28236" lon="2.39075">
        <ele>96.5</ele>
        <time>2024-09-01T10:01:17Z</time>
      </trkpt>
      <trkpt lat="49.28235" lon="2.39074">
        <ele>96.5</ele>
        <time>2024-09-01T10:01:18Z</time>
      </trkpt>
      <trkpt lat="49.28234" lon="2.39072">
        <ele>96.4</ele>
        <time>2024-09-01T10:01:19Z</time>
      </trkpt>
      <trkpt lat="49.28233" lon="2.3907">
        <ele>96.4</ele>
        <time>2024-09-01T10:01:20Z</time>
      </trkpt>
      <trkpt lat="49.28232" lon="2.39069">
        <ele>96.4</ele>
        <time>2024-09-01T10:01:21Z</time>
      </trkpt>
      <trkpt lat="49.28231" lon="2.39067">
        <ele>96.3</ele>
        <time>2024-09-01T10:01:22Z</time>
      </trkpt>
      <trkpt lat="49.2823" lon="2.39065">
        <ele>96.3</ele>
        <time>2024-09-01T10:01:23Z</time>
      </trkpt>
      <trkpt lat="49.28229" lon="2.39064">
        <ele>96.3</ele>
        <time>2024-09-01T10:01:24Z</time>
      </trkpt>
      <trkpt lat="49.28228" lon="2.39062">
        <ele>96.2</ele>
        <time>2024-09-01T10:01:25Z</time>
      </trkpt>
      <trkpt lat="49.28227" lon="2.3906">
        <ele>96.2</ele>
        <time>2024-09-01T10:01:26Z</time>
      </trkpt>
      <trkpt lat="49.28226" lon="2.39058">
        <ele>96.1</ele>
        <time>2024-09-01T10:01:27Z</time>
      </trkpt>
      <trkpt lat="49.28224" lon="2.39056">
        <ele>96.1</ele>
        <time>2024-09-01T10:01:28Z</time>
      </trkpt>
      <trkpt lat="49.28223" lon="2.39055">
        <ele>96.1</ele>
        <time>2024-09-01T10:01:29Z</time>
      </trkpt>
      <trkpt lat="49.28222" lon="2.39053">
        <ele>96.1</ele>
        <time>2024-09-01T10:01:30Z</time>
      </trkpt>
      <trkpt lat="49.28221" lon="2.39051">
        <ele>96.1</ele>
        <time>2024-09-01T10:01:31Z</time>
      </trkpt>
      <trkpt lat="49.2822" lon="2.3905">
        <ele>96.2</ele>
        <time>2024-09-01T10:01:32Z</time>
      </trkpt>
      <trkpt lat="49.28219" lon="2.39048">
        <ele>96.2</ele>
        <time>2024-09-01T10:01:33Z</time>
      </trkpt>
      <trkpt lat="49.28217" lon="2.39046">
        <ele>96.3</ele>
        <time>2024-09-01T10:01:34Z</time>
      </trkpt>
      <trkpt lat="49.28216" lon="2.39044">
        <ele>96.3</ele>
        <time>2024-09-01T10:01:35Z</time>
      </trkpt>
      <trkpt lat="49.28215" lon="2.39042">
        <ele>96.4</ele>
        <time>2024-09-01T10:01:36Z</time>
      </trkpt>
      <trkpt lat="49.28214" lon="2.3904">
        <ele>96.4</ele>
        <time>2024-09-01T10:01:37Z</time>
      </trkpt>
      <trkpt lat="49.28213" lon="2.39038">
        <ele>96.4</ele>
        <time>2024-09-01T10:01:38Z</time>
      </trkpt>
      <trkpt lat="49.28212" lon="2.39037">
        <ele>96.4</ele>
        <time>2024-09-01T10:01:39Z</time>
      </trkpt>
      <trkpt lat="49.28211" lon="2.39035">
        <ele>96.5</ele>
        <time>2024-09-01T10:01:40Z</time>
      </trkpt>
      <trkpt lat="49.2821" lon="2.39033">
        <ele>96.5</ele>
        <time>2024-09-01T10:01:41Z</time>
      </trkpt>
      <trkpt lat="49.28209" lon="2.39031">
        <ele>96.5</ele>
        <time>2024-09-01T10:01:42Z</time>
      </trkpt>
      <trkpt lat="49.28208" lon="2.39029">
        <ele>96.5</ele>
        <time>2024-09-01T10:01:43Z</time>
      </trkpt>
      <trkpt lat="49.28207" lon="2.39027">
        <ele>96.4</ele>
        <time>2024-09-01T10:01:44Z</time>
      </trkpt>
      <trkpt lat="49.28206" lon="2.39025">
        <ele>96.4</ele>
        <time>2024-09-01T10:01:45Z</time>
      </trkpt>
      <trkpt lat="49.28205" lon="2.39023">
        <ele>96.4</ele>
        <time>2024-09-01T10:01:46Z</time>
      </trkpt>
      <trkpt lat="49.28204" lon="2.39021">
        <ele>96.3</ele>
        <time>2024-09-01T10:01:47Z</time>
      </trkpt>
      <trkpt lat="49.28203" lon="2.39019">
        <ele>96.3</ele>
        <time>2024-09-01T10:01:48Z</time>
      </trkpt>
      <trkpt lat="49.28202" lon="2.39018">
        <ele>96.3</ele>
        <time>2024-09-01T10:01:49Z</time>
      </trkpt>
      <trkpt lat="49.28201" lon="2.39016">
        <ele>96.2</ele>
        <time>2024-09-01T10:01:50Z</time>
      </trkpt>
      <trkpt lat="49.282" lon="2.39014">
        <ele>96.2</ele>
        <time>2024-09-01T10:01:51Z</time>
      </trkpt>
      <trkpt lat="49.28199" lon="2.39012">
        <ele>96.2</ele>
        <time>2024-09-01T10:01:52Z</time>
      </trkpt>
      <trkpt lat="49.28198" lon="2.3901">
        <ele>96.1</ele>
        <time>2024-09-01T10:01:53Z</time>
      </trkpt>
      <trkpt lat="49.28197" lon="2.39008">
        <ele>96.1</ele>
        <time>2024-09-01T10:01:54Z</time>
      </trkpt>
      <trkpt lat="49.28196" lon="2.39006">
        <ele>96.1</ele>
        <time>2024-09-01T10:01:55Z</time>
      </trkpt>
      <trkpt lat="49.28195" lon="2.39004">
        <ele>96</ele>
        <time>2024-09-01T10:01:56Z</time>
      </trkpt>
      <trkpt lat="49.28194" lon="2.39002">
        <ele>96</ele>
        <time>2024-09-01T10:01:57Z</time>
      </trkpt>
      <trkpt lat="49.28193" lon="2.39">
        <ele>96</ele>
        <time>2024-09-01T10:01:58Z</time>
      </trkpt>
      <trkpt lat="49.28192" lon="2.38998">
        <ele>95.9</ele>
        <time>2024-09-01T10:01:59Z</time>
      </trkpt>
      <trkpt lat="49.28192" lon="2.38997">
        <ele>95.9</ele>
        <time>2024-09-01T10:02:00Z</time>
      </trkpt>
      <trkpt lat="49.28191" lon="2.38995">
        <ele>95.9</ele>
        <time>2024-09-01T10:02:01Z</time>
      </trkpt>
      <trkpt lat="49.2819" lon="2.38993">
        <ele>95.8</ele>
        <time>2024-09-01T10:02:02Z</time>
      </trkpt>
      <trkpt lat="49.28189" lon="2.38991">
        <ele>95.8</ele>
        <time>2024-09-01T10:02:03Z</time>
      </trkpt>
      <trkpt lat="49.28188" lon="2.38989">
        <ele>95.8</ele>
        <time>2024-09-01T10:02:04Z</time>
      </trkpt>
      <trkpt lat="49.28187" lon="2.38987">
        <ele>95.7</ele>
        <time>2024-09-01T10:02:05Z</time>
      </trkpt>
      <trkpt lat="49.28186" lon="2.38985">
        <ele>95.7</ele>
        <time>2024-09-01T10:02:06Z</time>
      </trkpt>
      <trkpt lat="49.28185" lon="2.38983">
        <ele>95.7</ele>
        <time>2024-09-01T10:02:07Z</time>
      </trkpt>
      <trkpt lat="49.28184" lon="2.38981">
        <ele>95.6</ele>
        <time>2024-09-01T10:02:08Z</time>
      </trkpt>
      <trkpt lat="49.28183" lon="2.38979">
        <ele>95.6</ele>
        <time>2024-09-01T10:02:09Z</time>
      </trkpt>
      <trkpt lat="49.28183" lon="2.38977">
        <ele>95.6</ele>
        <time>2024-09-01T10:02:10Z</time>
      </trkpt>
      <trkpt lat="49.28182" lon="2.38975">
        <ele>95.5</ele>
        <time>2024-09-01T10:02:11Z</time>
      </trkpt>
      <trkpt lat="49.28181" lon="2.38973">
        <ele>95.5</ele>
        <time>2024-09-01T10:02:12Z</time>
      </trkpt>
      <trkpt lat="49.2818" lon="2.38971">
        <ele>95.5</ele>
        <time>2024-09-01T10:02:13Z</time>
      </trkpt>
      <trkpt lat="49.28179" lon="2.38968">
        <ele>95.6</ele>
        <time>2024-09-01T10:02:14Z</time>
      </trkpt>
      <trkpt lat="49.28178" lon="2.38966">
        <ele>95.6</ele>
        <time>2024-09-01T10:02:15Z</time>
      </trkpt>
      <trkpt lat="49.28177" lon="2.38964">
        <ele>95.7</ele>
        <time>2024-09-01T10:02:16Z</time>
      </trkpt>
      <trkpt lat="49.28176" lon="2.38962">
        <ele>95.7</ele>
        <time>2024-09-01T10:02:17Z</time>
      </trkpt>
      <trkpt lat="49.28176" lon="2.3896">
        <ele>95.8</ele>
        <time>2024-09-01T10:02:18Z</time>
      </trkpt>
      <trkpt lat="49.28175" lon="2.38958">
        <ele>95.8</ele>
        <time>2024-09-01T10:02:19Z</time>
      </trkpt>
      <trkpt lat="49.28174" lon="2.38956">
        <ele>95.8</ele>
        <time>2024-09-01T10:02:20Z</time>
      </trkpt>
      <trkpt lat="49.28173" lon="2.38954">
        <ele>95.9</ele>
        <time>2024-09-01T10:02:21Z</time>
      </trkpt>
      <trkpt lat="49.28172" lon="2.38952">
        <ele>95.9</ele>
        <time>2024-09-01T10:02:22Z</time>
      </trkpt>
      <trkpt lat="49.28172" lon="2.3895">
        <ele>96</ele>
        <time>2024-09-01T10:02:23Z</time>
      </trkpt>
      <trkpt lat="49.28171" lon="2.38947">
        <ele>96</ele>
        <time>2024-09-01T10:02:24Z</time>
      </trkpt>
      <trkpt lat="49.2817" lon="2.38945">
        <ele>96.1</ele>
        <time>2024-09-01T10:02:25Z</time>
      </trkpt>
      <trkpt lat="49.28169" lon="2.38943">
        <ele>96.1</ele>
        <time>2024-09-01T10:02:26Z</time>
      </trkpt>
      <trkpt lat="49.28168" lon="2.38941">
        <ele>96</ele>
        <time>2024-09-01T10:02:27Z</time>
      </trkpt>
      <trkpt lat="49.28167" lon="2.38938">
        <ele>96</ele>
        <time>2024-09-01T10:02:28Z</time>
      </trkpt>
      <trkpt lat="49.28166" lon="2.38936">
        <ele>96</ele>
        <time>2024-09-01T10:02:29Z</time>
      </trkpt>
      <trkpt lat="49.28165" lon="2.38934">
        <ele>95.9</ele>
        <time>2024-09-01T10:02:30Z</time>
      </trkpt>
      <trkpt lat="49.28164" lon="2.38931">
        <ele>95.8</ele>
        <time>2024-09-01T10:02:31Z</time>
      </trkpt>
      <trkpt lat="49.28164" lon="2.38929">
        <ele>95.8</ele>
        <time>2024-09-01T10:02:32Z</time>
      </trkpt>
      <trkpt lat="49.28163" lon="2.38927">
        <ele>95.7</ele>
        <time>2024-09-01T10:02:33Z</time>
      </trkpt>
      <trkpt lat="49.28162" lon="2.38924">
        <ele>95.6</ele>
        <time>2024-09-01T10:02:34Z</time>
      </trkpt>
      <trkpt lat="49.28161" lon="2.38922">
        <ele>95.6</ele>
        <time>2024-09-01T10:02:35Z</time>
      </trkpt>
      <trkpt lat="49.2816" lon="2.3892">
        <ele>95.5</ele>
        <time>2024-09-01T10:02:36Z</time>
      </trkpt>
      <trkpt lat="49.28159" lon="2.38917">
        <ele>95.4</ele>
        <time>2024-09-01T10:02:37Z</time>
      </trkpt>
      <trkpt lat="49.28158" lon="2.38915">
        <ele>95.4</ele>
        <time>2024-09-01T10:02:38Z</time>
      </trkpt>
      <trkpt lat="49.28157" lon="2.38912">
        <ele>95.4</ele>
        <time>2024-09-01T10:02:39Z</time>
      </trkpt>
      <trkpt lat="49.28157" lon="2.3891">
        <ele>95.4</ele>
        <time>2024-09-01T10:02:40Z</time>
      </trkpt>
      <trkpt lat="49.28156" lon="2.38907">
        <ele>95.4</ele>
        <time>2024-09-01T10:02:41Z</time>
      </trkpt>
      <trkpt lat="49.28155" lon="2.38905">
        <ele>95.3</ele>
        <time>2024-09-01T10:02:42Z</time>
      </trkpt>
      <trkpt lat="49.28155" lon="2.38902">
        <ele>95.4</ele>
        <time>2024-09-01T10:02:43Z</time>
      </trkpt>
      <trkpt lat="49.28154" lon="2.389">
        <ele>95.4</ele>
        <time>2024-09-01T10:02:44Z</time>
      </trkpt>
      <trkpt lat="49.28153" lon="2.38897">
        <ele>95.4</ele>
        <time>2024-09-01T10:02:45Z</time>
      </trkpt>
      <trkpt lat="49.28152" lon="2.38895">
        <ele>95.4</ele>
        <time>2024-09-01T10:02:46Z</time>
      </trkpt>
      <trkpt lat="49.28152" lon="2.38893">
        <ele>95.4</ele>
        <time>2024-09-01T10:02:47Z</time>
      </trkpt>
      <trkpt lat="49.28151" lon="2.3889">
        <ele>95.4</ele>
        <time>2024-09-01T10:02:48Z</time>
      </trkpt>
      <trkpt lat="49.2815" lon="2.38888">
        <ele>95.4</ele>
        <time>2024-09-01T10:02:49Z</time>
      </trkpt>
      <trkpt lat="49.28149" lon="2.38886">
        <ele>95.4</ele>
        <time>2024-09-01T10:02:50Z</time>
      </trkpt>
      <trkpt lat="49.28149" lon="2.38883">
        <ele>95.4</ele>
        <time>2024-09-01T10:02:51Z</time>
      </trkpt>
      <trkpt lat="49.28148" lon="2.3888">
        <ele>95.3</ele>
        <time>2024-09-01T10:02:52Z</time>
      </trkpt>
      <trkpt lat="49.28147" lon="2.38877">
        <ele>95.3</ele>
        <time>2024-09-01T10:02:53Z</time>
      </trkpt>
      <trkpt lat="49.28146" lon="2.38874">
        <ele>95.3</ele>
        <time>2024-09-01T10:02:54Z</time>
      </trkpt>
      <trkpt lat="49.28145" lon="2.38871">
        <ele>95.2</ele>
        <time>2024-09-01T10:02:55Z</time>
      </trkpt>
      <trkpt lat="49.28144" lon="2.38869">
        <ele>95.2</ele>
        <time>2024-09-01T10:02:56Z</time>
      </trkpt>
      <trkpt lat="49.28144" lon="2.38866">
        <ele>95.2</ele>
        <time>2024-09-01T10:02:57Z</time>
      </trkpt>
      <trkpt lat="49.28143" lon="2.38864">
        <ele>95.1</ele>
        <time>2024-09-01T10:02:58Z</time>
      </trkpt>
      <trkpt lat="49.28142" lon="2.38861">
        <ele>95.1</ele>
        <time>2024-09-01T10:02:59Z</time>
      </trkpt>
      <trkpt lat="49.28142" lon="2.3886">
        <ele>95.1</ele>
        <time>2024-09-01T10:03:00Z</time>
      </trkpt>
      <trkpt lat="49.28141" lon="2.38858">
        <ele>95.1</ele>
        <time>2024-09-01T10:03:01Z</time>
      </trkpt>
      <trkpt lat="49.2814" lon="2.38857">
        <ele>95.1</ele>
        <time>2024-09-01T10:03:02Z</time>
      </trkpt>
      <trkpt lat="49.2814" lon="2.38855">
        <ele>95</ele>
        <time>2024-09-01T10:03:03Z</time>
      </trkpt>
      <trkpt lat="49.28139" lon="2.38853">
        <ele>95</ele>
        <time>2024-09-01T10:03:04Z</time>
      </trkpt>
      <trkpt lat="49.28139" lon="2.38851">
        <ele>95</ele>
        <time>2024-09-01T10:03:05Z</time>
      </trkpt>
      <trkpt lat="49.28138" lon="2.38849">
        <ele>95</ele>
        <time>2024-09-01T10:03:06Z</time>
      </trkpt>
      <trkpt lat="49.28137" lon="2.38846">
        <ele>94.9</ele>
        <time>2024-09-01T10:03:07Z</time>
      </trkpt>
      <trkpt lat="49.28137" lon="2.38844">
        <ele>94.9</ele>
        <time>2024-09-01T10:03:08Z</time>
      </trkpt>
      <trkpt lat="49.28136" lon="2.38842">
        <ele>94.9</ele>
        <time>2024-09-01T10:03:09Z</time>
      </trkpt>
      <trkpt lat="49.28135" lon="2.3884">
        <ele>94.9</ele>
        <time>2024-09-01T10:03:10Z</time>
      </trkpt>
      <trkpt lat="49.28134" lon="2.38837">
        <ele>94.8</ele>
        <time>2024-09-01T10:03:11Z</time>
      </trkpt>
      <trkpt lat="49.28134" lon="2.38835">
        <ele>94.8</ele>
        <time>2024-09-01T10:03:12Z</time>
      </trkpt>
      <trkpt lat="49.28133" lon="2.38833">
        <ele>94.8</ele>
        <time>2024-09-01T10:03:13Z</time>
      </trkpt>
      <trkpt lat="49.28133" lon="2.3883">
        <ele>94.8</ele>
        <time>2024-09-01T10:03:14Z</time>
      </trkpt>
      <trkpt lat="49.28132" lon="2.38828">
        <ele>94.8</ele>
        <time>2024-09-01T10:03:15Z</time>
      </trkpt>
      <trkpt lat="49.28132" lon="2.38826">
        <ele>94.7</ele>
        <time>2024-09-01T10:03:16Z</time>
      </trkpt>
      <trkpt lat="49.28131" lon="2.38823">
        <ele>94.7</ele>
        <time>2024-09-01T10:03:17Z</time>
      </trkpt>
      <trkpt lat="49.28131" lon="2.38821">
        <ele>94.7</ele>
        <time>2024-09-01T10:03:18Z</time>
      </trkpt>
      <trkpt lat="49.2813" lon="2.38819">
        <ele>94.7</ele>
        <time>2024-09-01T10:03:19Z</time>
      </trkpt>
      <trkpt lat="49.2813" lon="2.38817">
        <ele>94.7</ele>
        <time>2024-09-01T10:03:20Z</time>
      </trkpt>
      <trkpt lat="49.28129" lon="2.38815">
        <ele>94.6</ele>
        <time>2024-09-01T10:03:21Z</time>
      </trkpt>
      <trkpt lat="49.28128" lon="2.38813">
        <ele>94.6</ele>
        <time>2024-09-01T10:03:22Z</time>
      </trkpt>
      <trkpt lat="49.28127" lon="2.38811">
        <ele>94.6</ele>
        <time>2024-09-01T10:03:23Z</time>
      </trkpt>
      <trkpt lat="49.28127" lon="2.38809">
        <ele>94.6</ele>
        <time>2024-09-01T10:03:24Z</time>
      </trkpt>
      <trkpt lat="49.28126" lon="2.38807">
        <ele>94.5</ele>
        <time>2024-09-01T10:03:25Z</time>
      </trkpt>
      <trkpt lat="49.28125" lon="2.38804">
        <ele>94.5</ele>
        <time>2024-09-01T10:03:26Z</time>
      </trkpt>
      <trkpt lat="49.28125" lon="2.38802">
        <ele>94.5</ele>
        <time>2024-09-01T10:03:27Z</time>
      </trkpt>
      <trkpt lat="49.28124" lon="2.388">
        <ele>94.5</ele>
        <time>2024-09-01T10:03:28Z</time>
      </trkpt>
      <trkpt lat="49.28123" lon="2.38798">
        <ele>94.4</ele>
        <time>2024-09-01T10:03:29Z</time>
      </trkpt>
      <trkpt lat="49.28123" lon="2.38796">
        <ele>94.4</ele>
        <time>2024-09-01T10:03:30Z</time>
      </trkpt>
      <trkpt lat="49.28122" lon="2.38793">
        <ele>94.4</ele>
        <time>2024-09-01T10:03:31Z</time>
      </trkpt>
      <trkpt lat="49.28121" lon="2.38791">
        <ele>94.4</ele>
        <time>2024-09-01T10:03:32Z</time>
      </trkpt>
      <trkpt lat="49.2812" lon="2.38789">
        <ele>94.3</ele>
        <time>2024-09-01T10:03:33Z</time>
      </trkpt>
      <trkpt lat="49.2812" lon="2.38786">
        <ele>94.3</ele>
        <time>2024-09-01T10:03:34Z</time>
      </trkpt>
      <trkpt lat="49.28119" lon="2.38784">
        <ele>94.3</ele>
        <time>2024-09-01T10:03:35Z</time>
      </trkpt>
      <trkpt lat="49.28118" lon="2.38782">
        <ele>94.3</ele>
        <time>2024-09-01T10:03:36Z</time>
      </trkpt>
      <trkpt lat="49.28118" lon="2.3878">
        <ele>94.2</ele>
        <time>2024-09-01T10:03:37Z</time>
      </trkpt>
      <trkpt lat="49.28117" lon="2.38778">
        <ele>94.2</ele>
        <time>2024-09-01T10:03:38Z</time>
      </trkpt>
      <trkpt lat="49.28116" lon="2.38775">
        <ele>94.2</ele>
        <time>2024-09-01T10:03:39Z</time>
      </trkpt>
      <trkpt lat="49.28116" lon="2.38773">
        <ele>94.2</ele>
        <time>2024-09-01T10:03:40Z</time>
      </trkpt>
      <trkpt lat="49.28115" lon="2.3877">
        <ele>94.1</ele>
        <time>2024-09-01T10:03:41Z</time>
      </trkpt>
      <trkpt lat="49.28114" lon="2.38768">
        <ele>94.1</ele>
        <time>2024-09-01T10:03:42Z</time>
      </trkpt>
      <trkpt lat="49.28113" lon="2.38766">
        <ele>94.1</ele>
        <time>2024-09-01T10:03:43Z</time>
      </trkpt>
      <trkpt lat="49.28112" lon="2.38764">
        <ele>94</ele>
        <time>2024-09-01T10:03:44Z</time>
      </trkpt>
      <trkpt lat="49.28112" lon="2.38761">
        <ele>94</ele>
        <time>2024-09-01T10:03:45Z</time>
      </trkpt>
      <trkpt lat="49.28111" lon="2.38759">
        <ele>94</ele>
        <time>2024-09-01T10:03:46Z</time>
      </trkpt>
      <trkpt lat="49.2811" lon="2.38757">
        <ele>93.9</ele>
        <time>2024-09-01T10:03:47Z</time>
      </trkpt>
      <trkpt lat="49.28109" lon="2.38755">
        <ele>93.9</ele>
        <time>2024-09-01T10:03:48Z</time>
      </trkpt>
      <trkpt lat="49.28108" lon="2.38753">
        <ele>93.8</ele>
        <time>2024-09-01T10:03:49Z</time>
      </trkpt>
      <trkpt lat="49.28107" lon="2.38751">
        <ele>93.7</ele>
        <time>2024-09-01T10:03:50Z</time>
      </trkpt>
      <trkpt lat="49.28106" lon="2.38748">
        <ele>93.7</ele>
        <time>2024-09-01T10:03:51Z</time>
      </trkpt>
      <trkpt lat="49.28106" lon="2.38746">
        <ele>93.6</ele>
        <time>2024-09-01T10:03:52Z</time>
      </trkpt>
      <trkpt lat="49.28105" lon="2.38744">
        <ele>93.6</ele>
        <time>2024-09-01T10:03:53Z</time>
      </trkpt>
      <trkpt lat="49.28104" lon="2.38742">
        <ele>93.6</ele>
        <time>2024-09-01T10:03:54Z</time>
      </trkpt>
      <trkpt lat="49.28103" lon="2.3874">
        <ele>93.5</ele>
        <time>2024-09-01T10:03:55Z</time>
      </trkpt>
      <trkpt lat="49.28102" lon="2.38738">
        <ele>93.5</ele>
        <time>2024-09-01T10:03:56Z</time>
      </trkpt>
      <trkpt lat="49.28102" lon="2.38735">
        <ele>93.5</ele>
        <time>2024-09-01T10:03:57Z</time>
      </trkpt>
      <trkpt lat="49.28101" lon="2.38733">
        <ele>93.5</ele>
        <time>2024-09-01T10:03:58Z</time>
      </trkpt>
      <trkpt lat="49.281" lon="2.38731">
        <ele>93.5</ele>
        <time>2024-09-01T10:03:59Z</time>
      </trkpt>
      <trkpt lat="49.28099" lon="2.38729">
        <ele>93.5</ele>
        <time>2024-09-01T10:04:00Z</time>
      </trkpt>
      <trkpt lat="49.28099" lon="2.38726">
        <ele>93.5</ele>
        <time>2024-09-01T10:04:01Z</time>
      </trkpt>
      <trkpt lat="49.28098" lon="2.38724">
        <ele>93.5</ele>
        <time>2024-09-01T10:04:02Z</time>
      </trkpt>
      <trkpt lat="49.28097" lon="2.38722">
        <ele>93.5</ele>
        <time>2024-09-01T10:04:03Z</time>
      </trkpt>
      <trkpt lat="49.28096" lon="2.3872">
        <ele>93.5</ele>
        <time>2024-09-01T10:04:04Z</time>
      </trkpt>
      <trkpt lat="49.28095" lon="2.38719">
        <ele>93.4</ele>
        <time>2024-09-01T10:04:05Z</time>
      </trkpt>
      <trkpt lat="49.28094" lon="2.38717">
        <ele>93.4</ele>
        <time>2024-09-01T10:04:06Z</time>
      </trkpt>
      <trkpt lat="49.28094" lon="2.38715">
        <ele>93.4</ele>
        <time>2024-09-01T10:04:07Z</time>
      </trkpt>
      <trkpt lat="49.28093" lon="2.38713">
        <ele>93.3</ele>
        <time>2024-09-01T10:04:08Z</time>
      </trkpt>
      <trkpt lat="49.28092" lon="2.38711">
        <ele>93.3</ele>
        <time>2024-09-01T10:04:09Z</time>
      </trkpt>
      <trkpt lat="49.28091" lon="2.38709">
        <ele>93.3</ele>
        <time>2024-09-01T10:04:10Z</time>
      </trkpt>
      <trkpt lat="49.2809" lon="2.38707">
        <ele>93.2</ele>
        <time>2024-09-01T10:04:11Z</time>
      </trkpt>
      <trkpt lat="49.28089" lon="2.38705">
        <ele>93.2</ele>
        <time>2024-09-01T10:04:12Z</time>
      </trkpt>
      <trkpt lat="49.28088" lon="2.38702">
        <ele>93.2</ele>
        <time>2024-09-01T10:04:13Z</time>
      </trkpt>
      <trkpt lat="49.28088" lon="2.387">
        <ele>93.2</ele>
        <time>2024-09-01T10:04:14Z</time>
      </trkpt>
      <trkpt lat="49.28087" lon="2.38698">
        <ele>93.1</ele>
        <time>2024-09-01T10:04:15Z</time>
      </trkpt>
      <trkpt lat="49.28086" lon="2.38695">
        <ele>93.1</ele>
        <time>2024-09-01T10:04:16Z</time>
      </trkpt>
      <trkpt lat="49.28086" lon="2.38693">
        <ele>93.1</ele>
        <time>2024-09-01T10:04:17Z</time>
      </trkpt>
      <trkpt lat="49.28085" lon="2.38691">
        <ele>93.2</ele>
        <time>2024-09-01T10:04:18Z</time>
      </trkpt>
      <trkpt lat="49.28084" lon="2.38689">
        <ele>93.2</ele>
        <time>2024-09-01T10:04:19Z</time>
      </trkpt>
      <trkpt lat="49.28084" lon="2.38687">
        <ele>93.3</ele>
        <time>2024-09-01T10:04:20Z</time>
      </trkpt>
      <trkpt lat="49.28083" lon="2.38685">
        <ele>93.3</ele>
        <time>2024-09-01T10:04:21Z</time>
      </trkpt>
      <trkpt lat="49.28082" lon="2.38682">
        <ele>93.3</ele>
        <time>2024-09-01T10:04:22Z</time>
      </trkpt>
      <trkpt lat="49.28081" lon="2.3868">
        <ele>93.3</ele>
        <time>2024-09-01T10:04:23Z</time>
      </trkpt>
      <trkpt lat="49.28081" lon="2.38678">
        <ele>93.3</ele>
        <time>2024-09-01T10:04:24Z</time>
      </trkpt>
      <trkpt lat="49.2808" lon="2.38676">
        <ele>93.3</ele>
        <time>2024-09-01T10:04:25Z</time>
      </trkpt>
      <trkpt lat="49.28079" lon="2.38674">
        <ele>93.3</ele>
        <time>2024-09-01T10:04:26Z</time>
      </trkpt>
      <trkpt lat="49.28078" lon="2.38672">
        <ele>93.3</ele>
        <time>2024-09-01T10:04:27Z</time>
      </trkpt>
      <trkpt lat="49.28077" lon="2.3867">
        <ele>93.3</ele>
        <time>2024-09-01T10:04:28Z</time>
      </trkpt>
      <trkpt lat="49.28077" lon="2.38667">
        <ele>93.2</ele>
        <time>2024-09-01T10:04:29Z</time>
      </trkpt>
      <trkpt lat="49.28076" lon="2.38665">
        <ele>93.2</ele>
        <time>2024-09-01T10:04:30Z</time>
      </trkpt>
      <trkpt lat="49.28075" lon="2.38663">
        <ele>93.1</ele>
        <time>2024-09-01T10:04:31Z</time>
      </trkpt>
      <trkpt lat="49.28074" lon="2.3866">
        <ele>93.1</ele>
        <time>2024-09-01T10:04:32Z</time>
      </trkpt>
      <trkpt lat="49.28073" lon="2.38658">
        <ele>93</ele>
        <time>2024-09-01T10:04:33Z</time>
      </trkpt>
      <trkpt lat="49.28073" lon="2.38656">
        <ele>93</ele>
        <time>2024-09-01T10:04:34Z</time>
      </trkpt>
      <trkpt lat="49.28072" lon="2.38654">
        <ele>93</ele>
        <time>2024-09-01T10:04:35Z</time>
      </trkpt>
      <trkpt lat="49.28071" lon="2.38652">
        <ele>92.9</ele>
        <time>2024-09-01T10:04:36Z</time>
      </trkpt>
      <trkpt lat="49.2807" lon="2.3865">
        <ele>92.9</ele>
        <time>2024-09-01T10:04:37Z</time>
      </trkpt>
      <trkpt lat="49.2807" lon="2.38647">
        <ele>92.9</ele>
        <time>2024-09-01T10:04:38Z</time>
      </trkpt>
      <trkpt lat="49.28069" lon="2.38645">
        <ele>92.8</ele>
        <time>2024-09-01T10:04:39Z</time>
      </trkpt>
      <trkpt lat="49.28068" lon="2.38643">
        <ele>92.8</ele>
        <time>2024-09-01T10:04:40Z</time>
      </trkpt>
      <trkpt lat="49.28067" lon="2.38641">
        <ele>92.8</ele>
        <time>2024-09-01T10:04:41Z</time>
      </trkpt>
      <trkpt lat="49.28066" lon="2.38639">
        <ele>92.7</ele>
        <time>2024-09-01T10:04:42Z</time>
      </trkpt>
      <trkpt lat="49.28065" lon="2.38636">
        <ele>92.7</ele>
        <time>2024-09-01T10:04:43Z</time>
      </trkpt>
      <trkpt lat="49.28064" lon="2.38634">
        <ele>92.7</ele>
        <time>2024-09-01T10:04:44Z</time>
      </trkpt>
      <trkpt lat="49.28063" lon="2.38632">
        <ele>92.7</ele>
        <time>2024-09-01T10:04:45Z</time>
      </trkpt>
      <trkpt lat="49.28062" lon="2.3863">
        <ele>92.7</ele>
        <time>2024-09-01T10:04:46Z</time>
      </trkpt>
      <trkpt lat="49.28061" lon="2.38628">
        <ele>92.7</ele>
        <time>2024-09-01T10:04:47Z</time>
      </trkpt>
      <trkpt lat="49.2806" lon="2.38626">
        <ele>92.7</ele>
        <time>2024-09-01T10:04:48Z</time>
      </trkpt>
      <trkpt lat="49.2806" lon="2.38624">
        <ele>92.8</ele>
        <time>2024-09-01T10:04:49Z</time>
      </trkpt>
      <trkpt lat="49.28059" lon="2.38621">
        <ele>92.8</ele>
        <time>2024-09-01T10:04:50Z</time>
      </trkpt>
      <trkpt lat="49.28058" lon="2.38619">
        <ele>92.8</ele>
        <time>2024-09-01T10:04:51Z</time>
      </trkpt>
      <trkpt lat="49.28057" lon="2.38617">
        <ele>92.9</ele>
        <time>2024-09-01T10:04:52Z</time>
      </trkpt>
      <trkpt lat="49.28057" lon="2.38614">
        <ele>92.9</ele>
        <time>2024-09-01T10:04:53Z</time>
      </trkpt>
      <trkpt lat="49.28056" lon="2.38612">
        <ele>93</ele>
        <time>2024-09-01T10:04:54Z</time>
      </trkpt>
      <trkpt lat="49.28055" lon="2.3861">
        <ele>93</ele>
        <time>2024-09-01T10:04:55Z</time>
      </trkpt>
      <trkpt lat="49.28054" lon="2.38608">
        <ele>92.9</ele>
        <time>2024-09-01T10:04:56Z</time>
      </trkpt>
      <trkpt lat="49.28054" lon="2.38606">
        <ele>92.9</ele>
        <time>2024-09-01T10:04:57Z</time>
      </trkpt>
      <trkpt lat="49.28053" lon="2.38604">
        <ele>92.8</ele>
        <time>2024-09-01T10:04:58Z</time>
      </trkpt>
      <trkpt lat="49.28052" lon="2.38601">
        <ele>92.8</ele>
        <time>2024-09-01T10:04:59Z</time>
      </trkpt>
      <trkpt lat="49.28051" lon="2.38599">
        <ele>92.8</ele>
        <time>2024-09-01T10:05:00Z</time>
      </trkpt>
      <trkpt lat="49.2805" lon="2.38597">
        <ele>92.7</ele>
        <time>2024-09-01T10:05:01Z</time>
      </trkpt>
      <trkpt lat="49.28049" lon="2.38595">
        <ele>92.7</ele>
        <time>2024-09-01T10:05:02Z</time>
      </trkpt>
      <trkpt lat="49.28048" lon="2.38592">
        <ele>92.7</ele>
        <time>2024-09-01T10:05:03Z</time>
      </trkpt>
      <trkpt lat="49.28047" lon="2.3859">
        <ele>92.6</ele>
        <time>2024-09-01T10:05:04Z</time>
      </trkpt>
      <trkpt lat="49.28046" lon="2.38588">
        <ele>92.6</ele>
        <time>2024-09-01T10:05:05Z</time>
      </trkpt>
      <trkpt lat="49.28045" lon="2.38585">
        <ele>92.6</ele>
        <time>2024-09-01T10:05:06Z</time>
      </trkpt>
      <trkpt lat="49.28044" lon="2.38583">
        <ele>92.6</ele>
        <time>2024-09-01T10:05:07Z</time>
      </trkpt>
      <trkpt lat="49.28043" lon="2.38581">
        <ele>92.6</ele>
        <time>2024-09-01T10:05:08Z</time>
      </trkpt>
      <trkpt lat="49.28042" lon="2.38579">
        <ele>92.6</ele>
        <time>2024-09-01T10:05:09Z</time>
      </trkpt>
      <trkpt lat="49.28041" lon="2.38577">
        <ele>92.6</ele>
        <time>2024-09-01T10:05:10Z</time>
      </trkpt>
      <trkpt lat="49.2804" lon="2.38575">
        <ele>92.6</ele>
        <time>2024-09-01T10:05:11Z</time>
      </trkpt>
      <trkpt lat="49.28039" lon="2.38573">
        <ele>92.6</ele>
        <time>2024-09-01T10:05:12Z</time>
      </trkpt>
      <trkpt lat="49.28038" lon="2.38571">
        <ele>92.7</ele>
        <time>2024-09-01T10:05:13Z</time>
      </trkpt>
      <trkpt lat="49.28037" lon="2.38569">
        <ele>92.7</ele>
        <time>2024-09-01T10:05:14Z</time>
      </trkpt>
      <trkpt lat="49.28036" lon="2.38567">
        <ele>92.7</ele>
        <time>2024-09-01T10:05:15Z</time>
      </trkpt>
      <trkpt lat="49.28035" lon="2.38565">
        <ele>92.8</ele>
        <time>2024-09-01T10:05:16Z</time>
      </trkpt>
      <trkpt lat="49.28034" lon="2.38563">
        <ele>92.8</ele>
        <time>2024-09-01T10:05:17Z</time>
      </trkpt>
      <trkpt lat="49.28033" lon="2.38561">
        <ele>92.8</ele>
        <time>2024-09-01T10:05:18Z</time>
      </trkpt>
      <trkpt lat="49.28032" lon="2.38559">
        <ele>92.9</ele>
        <time>2024-09-01T10:05:19Z</time>
      </trkpt>
      <trkpt lat="49.28031" lon="2.38557">
        <ele>93</ele>
        <time>2024-09-01T10:05:20Z</time>
      </trkpt>
      <trkpt lat="49.2803" lon="2.38555">
        <ele>93</ele>
        <time>2024-09-01T10:05:21Z</time>
      </trkpt>
      <trkpt lat="49.28029" lon="2.38553">
        <ele>93</ele>
        <time>2024-09-01T10:05:22Z</time>
      </trkpt>
      <trkpt lat="49.28028" lon="2.38551">
        <ele>93</ele>
        <time>2024-09-01T10:05:23Z</time>
      </trkpt>
      <trkpt lat="49.28027" lon="2.3855">
        <ele>92.9</ele>
        <time>2024-09-01T10:05:24Z</time>
      </trkpt>
      <trkpt lat="49.28026" lon="2.38548">
        <ele>92.8</ele>
        <time>2024-09-01T10:05:25Z</time>
      </trkpt>
      <trkpt lat="49.28025" lon="2.38546">
        <ele>92.8</ele>
        <time>2024-09-01T10:05:26Z</time>
      </trkpt>
      <trkpt lat="49.28024" lon="2.38545">
        <ele>92.7</ele>
        <time>2024-09-01T10:05:27Z</time>
      </trkpt>
      <trkpt lat="49.28023" lon="2.38543">
        <ele>92.6</ele>
        <time>2024-09-01T10:05:28Z</time>
      </trkpt>
      <trkpt lat="49.28022" lon="2.38541">
        <ele>92.6</ele>
        <time>2024-09-01T10:05:29Z</time>
      </trkpt>
      <trkpt lat="49.2802" lon="2.38539">
        <ele>92.5</ele>
        <time>2024-09-01T10:05:30Z</time>
      </trkpt>
      <trkpt lat="49.28019" lon="2.38537">
        <ele>92.5</ele>
        <time>2024-09-01T10:05:31Z</time>
      </trkpt>
      <trkpt lat="49.28018" lon="2.38535">
        <ele>92.5</ele>
        <time>2024-09-01T10:05:32Z</time>
      </trkpt>
      <trkpt lat="49.28017" lon="2.38534">
        <ele>92.5</ele>
        <time>2024-09-01T10:05:33Z</time>
      </trkpt>
      <trkpt lat="49.28016" lon="2.38532">
        <ele>92.5</ele>
        <time>2024-09-01T10:05:34Z</time>
      </trkpt>
      <trkpt lat="49.28015" lon="2.3853">
        <ele>92.5</ele>
        <time>2024-09-01T10:05:35Z</time>
      </trkpt>
      <trkpt lat="49.28014" lon="2.38529">
        <ele>92.5</ele>
        <time>2024-09-01T10:05:36Z</time>
      </trkpt>
      <trkpt lat="49.28013" lon="2.38527">
        <ele>92.5</ele>
        <time>2024-09-01T10:05:37Z</time>
      </trkpt>
      <trkpt lat="49.28012" lon="2.38526">
        <ele>92.5</ele>
        <time>2024-09-01T10:05:38Z</time>
      </trkpt>
      <trkpt lat="49.28011" lon="2.38524">
        <ele>92.5</ele>
        <time>2024-09-01T10:05:39Z</time>
      </trkpt>
      <trkpt lat="49.2801" lon="2.38522">
        <ele>92.5</ele>
        <time>2024-09-01T10:05:40Z</time>
      </trkpt>
      <trkpt lat="49.2801" lon="2.38521">
        <ele>92.5</ele>
        <time>2024-09-01T10:05:41Z</time>
      </trkpt>
      <trkpt lat="49.28009" lon="2.38519">
        <ele>92.5</ele>
        <time>2024-09-01T10:05:42Z</time>
      </trkpt>
      <trkpt lat="49.28008" lon="2.38517">
        <ele>92.6</ele>
        <time>2024-09-01T10:05:43Z</time>
      </trkpt>
      <trkpt lat="49.28007" lon="2.38516">
        <ele>92.6</ele>
        <time>2024-09-01T10:05:44Z</time>
      </trkpt>
      <trkpt lat="49.28006" lon="2.38514">
        <ele>92.6</ele>
        <time>2024-09-01T10:05:45Z</time>
      </trkpt>
      <trkpt lat="49.28005" lon="2.38512">
        <ele>92.6</ele>
        <time>2024-09-01T10:05:46Z</time>
      </trkpt>
      <trkpt lat="49.28004" lon="2.3851">
        <ele>92.7</ele>
        <time>2024-09-01T10:05:47Z</time>
      </trkpt>
      <trkpt lat="49.28003" lon="2.38508">
        <ele>92.7</ele>
        <time>2024-09-01T10:05:48Z</time>
      </trkpt>
      <trkpt lat="49.28002" lon="2.38506">
        <ele>92.8</ele>
        <time>2024-09-01T10:05:49Z</time>
      </trkpt>
      <trkpt lat="49.28001" lon="2.38503">
        <ele>92.9</ele>
        <time>2024-09-01T10:05:50Z</time>
      </trkpt>
      <trkpt lat="49.28" lon="2.38501">
        <ele>92.9</ele>
        <time>2024-09-01T10:05:51Z</time>
      </trkpt>
      <trkpt lat="49.27999" lon="2.38499">
        <ele>92.9</ele>
        <time>2024-09-01T10:05:52Z</time>
      </trkpt>
      <trkpt lat="49.27998" lon="2.38497">
        <ele>92.8</ele>
        <time>2024-09-01T10:05:53Z</time>
      </trkpt>
      <trkpt lat="49.27997" lon="2.38495">
        <ele>92.8</ele>
        <time>2024-09-01T10:05:54Z</time>
      </trkpt>
      <trkpt lat="49.27996" lon="2.38493">
        <ele>92.7</ele>
        <time>2024-09-01T10:05:55Z</time>
      </trkpt>
      <trkpt lat="49.27995" lon="2.38491">
        <ele>92.7</ele>
        <time>2024-09-01T10:05:56Z</time>
      </trkpt>
      <trkpt lat="49.27994" lon="2.38489">
        <ele>92.6</ele>
        <time>2024-09-01T10:05:57Z</time>
      </trkpt>
      <trkpt lat="49.27993" lon="2.38488">
        <ele>92.6</ele>
        <time>2024-09-01T10:05:58Z</time>
      </trkpt>
      <trkpt lat="49.27992" lon="2.38486">
        <ele>92.5</ele>
        <time>2024-09-01T10:05:59Z</time>
      </trkpt>
      <trkpt lat="49.27991" lon="2.38484">
        <ele>92.5</ele>
        <time>2024-09-01T10:06:00Z</time>
      </trkpt>
      <trkpt lat="49.2799" lon="2.38482">
        <ele>92.5</ele>
        <time>2024-09-01T10:06:01Z</time>
      </trkpt>
      <trkpt lat="49.27989" lon="2.3848">
        <ele>92.5</ele>
        <time>2024-09-01T10:06:02Z</time>
      </trkpt>
      <trkpt lat="49.27988" lon="2.38478">
        <ele>92.5</ele>
        <time>2024-09-01T10:06:03Z</time>
      </trkpt>
      <trkpt lat="49.27986" lon="2.38476">
        <ele>92.4</ele>
        <time>2024-09-01T10:06:04Z</time>
      </trkpt>
      <trkpt lat="49.27986" lon="2.38474">
        <ele>92.4</ele>
        <time>2024-09-01T10:06:05Z</time>
      </trkpt>
      <trkpt lat="49.27985" lon="2.38472">
        <ele>92.4</ele>
        <time>2024-09-01T10:06:06Z</time>
      </trkpt>
      <trkpt lat="49.27984" lon="2.3847">
        <ele>92.4</ele>
        <time>2024-09-01T10:06:07Z</time>
      </trkpt>
      <trkpt lat="49.27983" lon="2.38468">
        <ele>92.4</ele>
        <time>2024-09-01T10:06:08Z</time>
      </trkpt>
      <trkpt lat="49.27983" lon="2.38465">
        <ele>92.4</ele>
        <time>2024-09-01T10:06:09Z</time>
      </trkpt>
      <trkpt lat="49.27982" lon="2.38463">
        <ele>92.3</ele>
        <time>2024-09-01T10:06:10Z</time>
      </trkpt>
      <trkpt lat="49.27981" lon="2.38461">
        <ele>92.3</ele>
        <time>2024-09-01T10:06:11Z</time>
      </trkpt>
      <trkpt lat="49.2798" lon="2.38459">
        <ele>92.3</ele>
        <time>2024-09-01T10:06:12Z</time>
      </trkpt>
      <trkpt lat="49.27979" lon="2.38457">
        <ele>92.2</ele>
        <time>2024-09-01T10:06:13Z</time>
      </trkpt>
      <trkpt lat="49.27978" lon="2.38455">
        <ele>92.2</ele>
        <time>2024-09-01T10:06:14Z</time>
      </trkpt>
      <trkpt lat="49.27977" lon="2.38453">
        <ele>92.2</ele>
        <time>2024-09-01T10:06:15Z</time>
      </trkpt>
      <trkpt lat="49.27975" lon="2.38451">
        <ele>92.1</ele>
        <time>2024-09-01T10:06:16Z</time>
      </trkpt>
      <trkpt lat="49.27974" lon="2.38449">
        <ele>92.1</ele>
        <time>2024-09-01T10:06:17Z</time>
      </trkpt>
      <trkpt lat="49.27973" lon="2.38447">
        <ele>92</ele>
        <time>2024-09-01T10:06:18Z</time>
      </trkpt>
      <trkpt lat="49.27972" lon="2.38445">
        <ele>92</ele>
        <time>2024-09-01T10:06:19Z</time>
      </trkpt>
      <trkpt lat="49.27971" lon="2.38443">
        <ele>92.1</ele>
        <time>2024-09-01T10:06:20Z</time>
      </trkpt>
      <trkpt lat="49.27971" lon="2.38441">
        <ele>92.1</ele>
        <time>2024-09-01T10:06:21Z</time>
      </trkpt>
      <trkpt lat="49.2797" lon="2.38439">
        <ele>92.2</ele>
        <time>2024-09-01T10:06:22Z</time>
      </trkpt>
      <trkpt lat="49.2797" lon="2.38437">
        <ele>92.2</ele>
        <time>2024-09-01T10:06:23Z</time>
      </trkpt>
      <trkpt lat="49.27969" lon="2.38435">
        <ele>92.3</ele>
        <time>2024-09-01T10:06:24Z</time>
      </trkpt>
      <trkpt lat="49.27968" lon="2.38433">
        <ele>92.3</ele>
        <time>2024-09-01T10:06:25Z</time>
      </trkpt>
      <trkpt lat="49.27968" lon="2.38431">
        <ele>92.3</ele>
        <time>2024-09-01T10:06:26Z</time>
      </trkpt>
      <trkpt lat="49.27967" lon="2.38429">
        <ele>92.3</ele>
        <time>2024-09-01T10:06:27Z</time>
      </trkpt>
      <trkpt lat="49.27966" lon="2.38427">
        <ele>92.3</ele>
        <time>2024-09-01T10:06:28Z</time>
      </trkpt>
      <trkpt lat="49.27965" lon="2.38426">
        <ele>92.3</ele>
        <time>2024-09-01T10:06:29Z</time>
      </trkpt>
      <trkpt lat="49.27964" lon="2.38425">
        <ele>92.3</ele>
        <time>2024-09-01T10:06:30Z</time>
      </trkpt>
      <trkpt lat="49.27963" lon="2.38425">
        <ele>92.2</ele>
        <time>2024-09-01T10:06:31Z</time>
      </trkpt>
      <trkpt lat="49.27962" lon="2.38425">
        <ele>92.2</ele>
        <time>2024-09-01T10:06:32Z</time>
      </trkpt>
      <trkpt lat="49.2796" lon="2.38425">
        <ele>92.1</ele>
        <time>2024-09-01T10:06:33Z</time>
      </trkpt>
      <trkpt lat="49.27959" lon="2.38425">
        <ele>92</ele>
        <time>2024-09-01T10:06:34Z</time>
      </trkpt>
      <trkpt lat="49.27958" lon="2.38425">
        <ele>92</ele>
        <time>2024-09-01T10:06:35Z</time>
      </trkpt>
      <trkpt lat="49.27957" lon="2.38426">
        <ele>91.9</ele>
        <time>2024-09-01T10:06:36Z</time>
      </trkpt>
      <trkpt lat="49.27955" lon="2.38426">
        <ele>91.9</ele>
        <time>2024-09-01T10:06:37Z</time>
      </trkpt>
      <trkpt lat="49.27954" lon="2.38426">
        <ele>91.8</ele>
        <time>2024-09-01T10:06:38Z</time>
      </trkpt>
      <trkpt lat="49.27953" lon="2.38427">
        <ele>91.8</ele>
        <time>2024-09-01T10:06:39Z</time>
      </trkpt>
      <trkpt lat="49.27952" lon="2.38427">
        <ele>91.7</ele>
        <time>2024-09-01T10:06:40Z</time>
      </trkpt>
      <trkpt lat="49.27951" lon="2.38427">
        <ele>91.7</ele>
        <time>2024-09-01T10:06:41Z</time>
      </trkpt>
      <trkpt lat="49.2795" lon="2.38428">
        <ele>91.6</ele>
        <time>2024-09-01T10:06:42Z</time>
      </trkpt>
      <trkpt lat="49.27949" lon="2.38428">
        <ele>91.6</ele>
        <time>2024-09-01T10:06:43Z</time>
      </trkpt>
      <trkpt lat="49.27948" lon="2.38429">
        <ele>91.6</ele>
        <time>2024-09-01T10:06:44Z</time>
      </trkpt>
      <trkpt lat="49.27946" lon="2.38429">
        <ele>91.5</ele>
        <time>2024-09-01T10:06:45Z</time>
      </trkpt>
      <trkpt lat="49.27944" lon="2.3843">
        <ele>91.5</ele>
        <time>2024-09-01T10:06:46Z</time>
      </trkpt>
      <trkpt lat="49.27942" lon="2.3843">
        <ele>91.4</ele>
        <time>2024-09-01T10:06:47Z</time>
      </trkpt>
      <trkpt lat="49.2794" lon="2.3843">
        <ele>91.3</ele>
        <time>2024-09-01T10:06:48Z</time>
      </trkpt>
      <trkpt lat="49.27938" lon="2.3843">
        <ele>91.2</ele>
        <time>2024-09-01T10:06:49Z</time>
      </trkpt>
      <trkpt lat="49.27936" lon="2.38429">
        <ele>91.2</ele>
        <time>2024-09-01T10:06:50Z</time>
      </trkpt>
      <trkpt lat="49.27934" lon="2.38429">
        <ele>91.1</ele>
        <time>2024-09-01T10:06:51Z</time>
      </trkpt>
      <trkpt lat="49.27933" lon="2.38428">
        <ele>91.1</ele>
        <time>2024-09-01T10:06:52Z</time>
      </trkpt>
      <trkpt lat="49.27932" lon="2.38427">
        <ele>91</ele>
        <time>2024-09-01T10:06:53Z</time>
      </trkpt>
      <trkpt lat="49.2793" lon="2.38426">
        <ele>91</ele>
        <time>2024-09-01T10:06:54Z</time>
      </trkpt>
      <trkpt lat="49.27929" lon="2.38425">
        <ele>91</ele>
        <time>2024-09-01T10:06:55Z</time>
      </trkpt>
      <trkpt lat="49.27928" lon="2.38424">
        <ele>91</ele>
        <time>2024-09-01T10:06:56Z</time>
      </trkpt>
      <trkpt lat="49.27928" lon="2.38422">
        <ele>91</ele>
        <time>2024-09-01T10:06:57Z</time>
      </trkpt>
      <trkpt lat="49.27927" lon="2.38421">
        <ele>91</ele>
        <time>2024-09-01T10:06:58Z</time>
      </trkpt>
      <trkpt lat="49.27926" lon="2.3842">
        <ele>91</ele>
        <time>2024-09-01T10:06:59Z</time>
      </trkpt>
      <trkpt lat="49.27924" lon="2.38418">
        <ele>91</ele>
        <time>2024-09-01T10:07:00Z</time>
      </trkpt>
      <trkpt lat="49.27923" lon="2.38417">
        <ele>91</ele>
        <time>2024-09-01T10:07:01Z</time>
      </trkpt>
      <trkpt lat="49.27921" lon="2.38416">
        <ele>91</ele>
        <time>2024-09-01T10:07:02Z</time>
      </trkpt>
      <trkpt lat="49.2792" lon="2.38415">
        <ele>91</ele>
        <time>2024-09-01T10:07:03Z</time>
      </trkpt>
      <trkpt lat="49.27918" lon="2.38414">
        <ele>91</ele>
        <time>2024-09-01T10:07:04Z</time>
      </trkpt>
      <trkpt lat="49.27917" lon="2.38413">
        <ele>91</ele>
        <time>2024-09-01T10:07:05Z</time>
      </trkpt>
      <trkpt lat="49.27915" lon="2.38411">
        <ele>90.9</ele>
        <time>2024-09-01T10:07:06Z</time>
      </trkpt>
      <trkpt lat="49.27914" lon="2.3841">
        <ele>90.8</ele>
        <time>2024-09-01T10:07:07Z</time>
      </trkpt>
      <trkpt lat="49.27913" lon="2.38409">
        <ele>90.7</ele>
        <time>2024-09-01T10:07:08Z</time>
      </trkpt>
      <trkpt lat="49.27911" lon="2.38408">
        <ele>90.7</ele>
        <time>2024-09-01T10:07:09Z</time>
      </trkpt>
      <trkpt lat="49.2791" lon="2.38407">
        <ele>90.6</ele>
        <time>2024-09-01T10:07:10Z</time>
      </trkpt>
      <trkpt lat="49.27908" lon="2.38406">
        <ele>90.5</ele>
        <time>2024-09-01T10:07:11Z</time>
      </trkpt>
      <trkpt lat="49.27907" lon="2.38404">
        <ele>90.5</ele>
        <time>2024-09-01T10:07:12Z</time>
      </trkpt>
      <trkpt lat="49.27906" lon="2.38403">
        <ele>90.4</ele>
        <time>2024-09-01T10:07:13Z</time>
      </trkpt>
      <trkpt lat="49.27904" lon="2.38401">
        <ele>90.4</ele>
        <time>2024-09-01T10:07:14Z</time>
      </trkpt>
      <trkpt lat="49.27903" lon="2.384">
        <ele>90.3</ele>
        <time>2024-09-01T10:07:15Z</time>
      </trkpt>
      <trkpt lat="49.27902" lon="2.38399">
        <ele>90.3</ele>
        <time>2024-09-01T10:07:16Z</time>
      </trkpt>
      <trkpt lat="49.279" lon="2.38398">
        <ele>90.2</ele>
        <time>2024-09-01T10:07:17Z</time>
      </trkpt>
      <trkpt lat="49.27899" lon="2.38397">
        <ele>90.2</ele>
        <time>2024-09-01T10:07:18Z</time>
      </trkpt>
      <trkpt lat="49.27897" lon="2.38397">
        <ele>90.1</ele>
        <time>2024-09-01T10:07:19Z</time>
      </trkpt>
      <trkpt lat="49.27895" lon="2.38396">
        <ele>90</ele>
        <time>2024-09-01T10:07:20Z</time>
      </trkpt>
      <trkpt lat="49.27894" lon="2.38395">
        <ele>90</ele>
        <time>2024-09-01T10:07:21Z</time>
      </trkpt>
      <trkpt lat="49.27893" lon="2.38395">
        <ele>90</ele>
        <time>2024-09-01T10:07:22Z</time>
      </trkpt>
      <trkpt lat="49.27892" lon="2.38394">
        <ele>89.9</ele>
        <time>2024-09-01T10:07:23Z</time>
      </trkpt>
      <trkpt lat="49.2789" lon="2.38393">
        <ele>89.9</ele>
        <time>2024-09-01T10:07:24Z</time>
      </trkpt>
      <trkpt lat="49.27889" lon="2.38392">
        <ele>89.9</ele>
        <time>2024-09-01T10:07:25Z</time>
      </trkpt>
      <trkpt lat="49.27888" lon="2.38391">
        <ele>89.9</ele>
        <time>2024-09-01T10:07:26Z</time>
      </trkpt>
      <trkpt lat="49.27887" lon="2.3839">
        <ele>89.8</ele>
        <time>2024-09-01T10:07:27Z</time>
      </trkpt>
      <trkpt lat="49.27885" lon="2.38389">
        <ele>89.8</ele>
        <time>2024-09-01T10:07:28Z</time>
      </trkpt>
      <trkpt lat="49.27884" lon="2.38387">
        <ele>89.7</ele>
        <time>2024-09-01T10:07:29Z</time>
      </trkpt>
      <trkpt lat="49.27882" lon="2.38386">
        <ele>89.6</ele>
        <time>2024-09-01T10:07:30Z</time>
      </trkpt>
      <trkpt lat="49.27881" lon="2.38385">
        <ele>89.6</ele>
        <time>2024-09-01T10:07:31Z</time>
      </trkpt>
      <trkpt lat="49.27879" lon="2.38383">
        <ele>89.5</ele>
        <time>2024-09-01T10:07:32Z</time>
      </trkpt>
      <trkpt lat="49.27878" lon="2.38382">
        <ele>89.4</ele>
        <time>2024-09-01T10:07:33Z</time>
      </trkpt>
      <trkpt lat="49.27876" lon="2.38381">
        <ele>89.4</ele>
        <time>2024-09-01T10:07:34Z</time>
      </trkpt>
      <trkpt lat="49.27875" lon="2.3838">
        <ele>89.3</ele>
        <time>2024-09-01T10:07:35Z</time>
      </trkpt>
      <trkpt lat="49.27874" lon="2.38379">
        <ele>89.3</ele>
        <time>2024-09-01T10:07:36Z</time>
      </trkpt>
      <trkpt lat="49.27872" lon="2.38378">
        <ele>89.2</ele>
        <time>2024-09-01T10:07:37Z</time>
      </trkpt>
      <trkpt lat="49.27871" lon="2.38377">
        <ele>89.1</ele>
        <time>2024-09-01T10:07:38Z</time>
      </trkpt>
      <trkpt lat="49.27869" lon="2.38375">
        <ele>89</ele>
        <time>2024-09-01T10:07:39Z</time>
      </trkpt>
      <trkpt lat="49.27867" lon="2.38374">
        <ele>89</ele>
        <time>2024-09-01T10:07:40Z</time>
      </trkpt>
      <trkpt lat="49.27865" lon="2.38372">
        <ele>88.9</ele>
        <time>2024-09-01T10:07:41Z</time>
      </trkpt>
      <trkpt lat="49.27864" lon="2.3837">
        <ele>88.8</ele>
        <time>2024-09-01T10:07:42Z</time>
      </trkpt>
      <trkpt lat="49.27862" lon="2.38369">
        <ele>88.8</ele>
        <time>2024-09-01T10:07:43Z</time>
      </trkpt>
      <trkpt lat="49.27861" lon="2.38367">
        <ele>88.8</ele>
        <time>2024-09-01T10:07:44Z</time>
      </trkpt>
      <trkpt lat="49.2786" lon="2.38365">
        <ele>88.7</ele>
        <time>2024-09-01T10:07:45Z</time>
      </trkpt>
      <trkpt lat="49.27859" lon="2.38364">
        <ele>88.7</ele>
        <time>2024-09-01T10:07:46Z</time>
      </trkpt>
      <trkpt lat="49.27858" lon="2.38362">
        <ele>88.6</ele>
        <time>2024-09-01T10:07:47Z</time>
      </trkpt>
      <trkpt lat="49.27857" lon="2.38361">
        <ele>88.5</ele>
        <time>2024-09-01T10:07:48Z</time>
      </trkpt>
      <trkpt lat="49.27855" lon="2.3836">
        <ele>88.4</ele>
        <time>2024-09-01T10:07:49Z</time>
      </trkpt>
      <trkpt lat="49.27854" lon="2.38359">
        <ele>88.3</ele>
        <time>2024-09-01T10:07:50Z</time>
      </trkpt>
      <trkpt lat="49.27853" lon="2.38358">
        <ele>88.2</ele>
        <time>2024-09-01T10:07:51Z</time>
      </trkpt>
      <trkpt lat="49.27851" lon="2.38358">
        <ele>88</ele>
        <time>2024-09-01T10:07:52Z</time>
      </trkpt>
      <trkpt lat="49.2785" lon="2.38357">
        <ele>87.9</ele>
        <time>2024-09-01T10:07:53Z</time>
      </trkpt>
      <trkpt lat="49.27848" lon="2.38357">
        <ele>87.8</ele>
        <time>2024-09-01T10:07:54Z</time>
      </trkpt>
      <trkpt lat="49.27847" lon="2.38356">
        <ele>87.6</ele>
        <time>2024-09-01T10:07:55Z</time>
      </trkpt>
      <trkpt lat="49.27846" lon="2.38355">
        <ele>87.5</ele>
        <time>2024-09-01T10:07:56Z</time>
      </trkpt>
      <trkpt lat="49.27844" lon="2.38354">
        <ele>87.4</ele>
        <time>2024-09-01T10:07:57Z</time>
      </trkpt>
      <trkpt lat="49.27842" lon="2.38353">
        <ele>87.3</ele>
        <time>2024-09-01T10:07:58Z</time>
      </trkpt>
      <trkpt lat="49.27841" lon="2.38352">
        <ele>87.1</ele>
        <time>2024-09-01T10:07:59Z</time>
      </trkpt>
      <trkpt lat="49.27839" lon="2.38351">
        <ele>87</ele>
        <time>2024-09-01T10:08:00Z</time>
      </trkpt>
      <trkpt lat="49.27837" lon="2.38349">
        <ele>86.8</ele>
        <time>2024-09-01T10:08:01Z</time>
      </trkpt>
      <trkpt lat="49.27835" lon="2.38348">
        <ele>86.7</ele>
        <time>2024-09-01T10:08:02Z</time>
      </trkpt>
      <trkpt lat="49.27834" lon="2.38347">
        <ele>86.6</ele>
        <time>2024-09-01T10:08:03Z</time>
      </trkpt>
      <trkpt lat="49.27833" lon="2.38347">
        <ele>86.5</ele>
        <time>2024-09-01T10:08:04Z</time>
      </trkpt>
      <trkpt lat="49.27831" lon="2.38346">
        <ele>86.6</ele>
        <time>2024-09-01T10:08:05Z</time>
      </trkpt>
      <trkpt lat="49.2783" lon="2.38345">
        <ele>86.6</ele>
        <time>2024-09-01T10:08:06Z</time>
      </trkpt>
      <trkpt lat="49.27829" lon="2.38345">
        <ele>86.7</ele>
        <time>2024-09-01T10:08:07Z</time>
      </trkpt>
      <trkpt lat="49.27828" lon="2.38344">
        <ele>86.7</ele>
        <time>2024-09-01T10:08:08Z</time>
      </trkpt>
      <trkpt lat="49.27827" lon="2.38344">
        <ele>86.8</ele>
        <time>2024-09-01T10:08:09Z</time>
      </trkpt>
      <trkpt lat="49.27826" lon="2.38344">
        <ele>86.8</ele>
        <time>2024-09-01T10:08:10Z</time>
      </trkpt>
      <trkpt lat="49.27826" lon="2.38344">
        <ele>86.8</ele>
        <time>2024-09-01T10:08:11Z</time>
      </trkpt>
      <trkpt lat="49.27825" lon="2.38345">
        <ele>86.8</ele>
        <time>2024-09-01T10:08:12Z</time>
      </trkpt>
      <trkpt lat="49.27825" lon="2.38346">
        <ele>86.7</ele>
        <time>2024-09-01T10:08:13Z</time>
      </trkpt>
      <trkpt lat="49.27825" lon="2.38347">
        <ele>86.7</ele>
        <time>2024-09-01T10:08:14Z</time>
      </trkpt>
      <trkpt lat="49.27825" lon="2.38348">
        <ele>86.6</ele>
        <time>2024-09-01T10:08:15Z</time>
      </trkpt>
      <trkpt lat="49.27825" lon="2.38349">
        <ele>86.5</ele>
        <time>2024-09-01T10:08:16Z</time>
      </trkpt>
      <trkpt lat="49.27825" lon="2.38351">
        <ele>86.5</ele>
        <time>2024-09-01T10:08:17Z</time>
      </trkpt>
      <trkpt lat="49.27825" lon="2.38353">
        <ele>86.4</ele>
        <time>2024-09-01T10:08:18Z</time>
      </trkpt>
      <trkpt lat="49.27826" lon="2.38355">
        <ele>86.3</ele>
        <time>2024-09-01T10:08:19Z</time>
      </trkpt>
      <trkpt lat="49.27826" lon="2.38357">
        <ele>86.2</ele>
        <time>2024-09-01T10:08:20Z</time>
      </trkpt>
      <trkpt lat="49.27827" lon="2.38358">
        <ele>86.1</ele>
        <time>2024-09-01T10:08:21Z</time>
      </trkpt>
      <trkpt lat="49.27827" lon="2.3836">
        <ele>86</ele>
        <time>2024-09-01T10:08:22Z</time>
      </trkpt>
      <trkpt lat="49.27828" lon="2.38362">
        <ele>85.9</ele>
        <time>2024-09-01T10:08:23Z</time>
      </trkpt>
      <trkpt lat="49.27828" lon="2.38364">
        <ele>85.7</ele>
        <time>2024-09-01T10:08:24Z</time>
      </trkpt>
      <trkpt lat="49.27828" lon="2.38366">
        <ele>85.6</ele>
        <time>2024-09-01T10:08:25Z</time>
      </trkpt>
      <trkpt lat="49.27829" lon="2.38368">
        <ele>85.5</ele>
        <time>2024-09-01T10:08:26Z</time>
      </trkpt>
      <trkpt lat="49.27829" lon="2.3837">
        <ele>85.3</ele>
        <time>2024-09-01T10:08:27Z</time>
      </trkpt>
      <trkpt lat="49.27829" lon="2.38372">
        <ele>85.1</ele>
        <time>2024-09-01T10:08:28Z</time>
      </trkpt>
      <trkpt lat="49.27829" lon="2.38374">
        <ele>84.9</ele>
        <time>2024-09-01T10:08:29Z</time>
      </trkpt>
      <trkpt lat="49.2783" lon="2.38377">
        <ele>84.7</ele>
        <time>2024-09-01T10:08:30Z</time>
      </trkpt>
      <trkpt lat="49.2783" lon="2.38379">
        <ele>84.5</ele>
        <time>2024-09-01T10:08:31Z</time>
      </trkpt>
      <trkpt lat="49.2783" lon="2.38382">
        <ele>84.3</ele>
        <time>2024-09-01T10:08:32Z</time>
      </trkpt>
      <trkpt lat="49.2783" lon="2.38384">
        <ele>84.1</ele>
        <time>2024-09-01T10:08:33Z</time>
      </trkpt>
      <trkpt lat="49.2783" lon="2.38387">
        <ele>83.9</ele>
        <time>2024-09-01T10:08:34Z</time>
      </trkpt>
      <trkpt lat="49.2783" lon="2.38389">
        <ele>83.8</ele>
        <time>2024-09-01T10:08:35Z</time>
      </trkpt>
      <trkpt lat="49.2783" lon="2.38391">
        <ele>83.8</ele>
        <time>2024-09-01T10:08:36Z</time>
      </trkpt>
      <trkpt lat="49.27831" lon="2.38394">
        <ele>83.8</ele>
        <time>2024-09-01T10:08:37Z</time>
      </trkpt>
      <trkpt lat="49.27831" lon="2.38396">
        <ele>83.8</ele>
        <time>2024-09-01T10:08:38Z</time>
      </trkpt>
      <trkpt lat="49.27831" lon="2.38399">
        <ele>83.8</ele>
        <time>2024-09-01T10:08:39Z</time>
      </trkpt>
      <trkpt lat="49.27832" lon="2.38401">
        <ele>83.9</ele>
        <time>2024-09-01T10:08:40Z</time>
      </trkpt>
      <trkpt lat="49.27832" lon="2.38404">
        <ele>83.9</ele>
        <time>2024-09-01T10:08:41Z</time>
      </trkpt>
      <trkpt lat="49.27832" lon="2.38407">
        <ele>83.9</ele>
        <time>2024-09-01T10:08:42Z</time>
      </trkpt>
      <trkpt lat="49.27832" lon="2.38409">
        <ele>83.9</ele>
        <time>2024-09-01T10:08:43Z</time>
      </trkpt>
      <trkpt lat="49.27832" lon="2.38412">
        <ele>83.9</ele>
        <time>2024-09-01T10:08:44Z</time>
      </trkpt>
      <trkpt lat="49.27832" lon="2.38414">
        <ele>83.9</ele>
        <time>2024-09-01T10:08:45Z</time>
      </trkpt>
      <trkpt lat="49.27833" lon="2.38417">
        <ele>83.9</ele>
        <time>2024-09-01T10:08:46Z</time>
      </trkpt>
      <trkpt lat="49.27833" lon="2.3842">
        <ele>83.9</ele>
        <time>2024-09-01T10:08:47Z</time>
      </trkpt>
      <trkpt lat="49.27833" lon="2.38422">
        <ele>84</ele>
        <time>2024-09-01T10:08:48Z</time>
      </trkpt>
      <trkpt lat="49.27833" lon="2.38425">
        <ele>84</ele>
        <time>2024-09-01T10:08:49Z</time>
      </trkpt>
      <trkpt lat="49.27833" lon="2.38428">
        <ele>84</ele>
        <time>2024-09-01T10:08:50Z</time>
      </trkpt>
      <trkpt lat="49.27833" lon="2.3843">
        <ele>84</ele>
        <time>2024-09-01T10:08:51Z</time>
      </trkpt>
      <trkpt lat="49.27834" lon="2.38433">
        <ele>84</ele>
        <time>2024-09-01T10:08:52Z</time>
      </trkpt>
      <trkpt lat="49.27834" lon="2.38436">
        <ele>84</ele>
        <time>2024-09-01T10:08:53Z</time>
      </trkpt>
      <trkpt lat="49.27834" lon="2.38438">
        <ele>84</ele>
        <time>2024-09-01T10:08:54Z</time>
      </trkpt>
      <trkpt lat="49.27835" lon="2.3844">
        <ele>83.9</ele>
        <time>2024-09-01T10:08:55Z</time>
      </trkpt>
      <trkpt lat="49.27835" lon="2.38443">
        <ele>83.9</ele>
        <time>2024-09-01T10:08:56Z</time>
      </trkpt>
      <trkpt lat="49.27836" lon="2.38445">
        <ele>83.8</ele>
        <time>2024-09-01T10:08:57Z</time>
      </trkpt>
      <trkpt lat="49.27836" lon="2.38447">
        <ele>83.8</ele>
        <time>2024-09-01T10:08:58Z</time>
      </trkpt>
      <trkpt lat="49.27836" lon="2.38449">
        <ele>83.8</ele>
        <time>2024-09-01T10:08:59Z</time>
      </trkpt>
      <trkpt lat="49.27837" lon="2.38451">
        <ele>83.8</ele>
        <time>2024-09-01T10:09:00Z</time>
      </trkpt>
      <trkpt lat="49.27836" lon="2.38454">
        <ele>83.8</ele>
        <time>2024-09-01T10:09:01Z</time>
      </trkpt>
      <trkpt lat="49.27836" lon="2.38456">
        <ele>83.8</ele>
        <time>2024-09-01T10:09:02Z</time>
      </trkpt>
      <trkpt lat="49.27836" lon="2.38458">
        <ele>83.8</ele>
        <time>2024-09-01T10:09:03Z</time>
      </trkpt>
      <trkpt lat="49.27836" lon="2.38461">
        <ele>83.9</ele>
        <time>2024-09-01T10:09:04Z</time>
      </trkpt>
      <trkpt lat="49.27836" lon="2.38463">
        <ele>83.9</ele>
        <time>2024-09-01T10:09:05Z</time>
      </trkpt>
      <trkpt lat="49.27837" lon="2.38466">
        <ele>83.9</ele>
        <time>2024-09-01T10:09:06Z</time>
      </trkpt>
      <trkpt lat="49.27837" lon="2.38468">
        <ele>83.9</ele>
        <time>2024-09-01T10:09:07Z</time>
      </trkpt>
      <trkpt lat="49.27837" lon="2.38471">
        <ele>83.9</ele>
        <time>2024-09-01T10:09:08Z</time>
      </trkpt>
      <trkpt lat="49.27837" lon="2.38473">
        <ele>83.9</ele>
        <time>2024-09-01T10:09:09Z</time>
      </trkpt>
      <trkpt lat="49.27837" lon="2.38476">
        <ele>84</ele>
        <time>2024-09-01T10:09:10Z</time>
      </trkpt>
      <trkpt lat="49.27836" lon="2.38479">
        <ele>84.1</ele>
        <time>2024-09-01T10:09:11Z</time>
      </trkpt>
      <trkpt lat="49.27836" lon="2.38482">
        <ele>84.3</ele>
        <time>2024-09-01T10:09:12Z</time>
      </trkpt>
      <trkpt lat="49.27836" lon="2.38485">
        <ele>84.4</ele>
        <time>2024-09-01T10:09:13Z</time>
      </trkpt>
      <trkpt lat="49.27836" lon="2.38488">
        <ele>84.5</ele>
        <time>2024-09-01T10:09:14Z</time>
      </trkpt>
      <trkpt lat="49.27835" lon="2.3849">
        <ele>84.6</ele>
        <time>2024-09-01T10:09:15Z</time>
      </trkpt>
      <trkpt lat="49.27835" lon="2.38492">
        <ele>84.6</ele>
        <time>2024-09-01T10:09:16Z</time>
      </trkpt>
      <trkpt lat="49.27835" lon="2.38493">
        <ele>84.7</ele>
        <time>2024-09-01T10:09:17Z</time>
      </trkpt>
      <trkpt lat="49.27835" lon="2.38496">
        <ele>84.8</ele>
        <time>2024-09-01T10:09:18Z</time>
      </trkpt>
      <trkpt lat="49.27834" lon="2.38498">
        <ele>84.9</ele>
        <time>2024-09-01T10:09:19Z</time>
      </trkpt>
      <trkpt lat="49.27834" lon="2.385">
        <ele>85</ele>
        <time>2024-09-01T10:09:20Z</time>
      </trkpt>
      <trkpt lat="49.27833" lon="2.38502">
        <ele>85.2</ele>
        <time>2024-09-01T10:09:21Z</time>
      </trkpt>
      <trkpt lat="49.27833" lon="2.38504">
        <ele>85.4</ele>
        <time>2024-09-01T10:09:22Z</time>
      </trkpt>
      <trkpt lat="49.27832" lon="2.38506">
        <ele>85.7</ele>
        <time>2024-09-01T10:09:23Z</time>
      </trkpt>
      <trkpt lat="49.27832" lon="2.38507">
        <ele>85.9</ele>
        <time>2024-09-01T10:09:24Z</time>
      </trkpt>
      <trkpt lat="49.27832" lon="2.38509">
        <ele>86.1</ele>
        <time>2024-09-01T10:09:25Z</time>
      </trkpt>
      <trkpt lat="49.27831" lon="2.38511">
        <ele>86.3</ele>
        <time>2024-09-01T10:09:26Z</time>
      </trkpt>
      <trkpt lat="49.27831" lon="2.38512">
        <ele>86.4</ele>
        <time>2024-09-01T10:09:27Z</time>
      </trkpt>
      <trkpt lat="49.27831" lon="2.38512">
        <ele>86.5</ele>
        <time>2024-09-01T10:09:28Z</time>
      </trkpt>
      <trkpt lat="49.27831" lon="2.38513">
        <ele>86.5</ele>
        <time>2024-09-01T10:09:29Z</time>
      </trkpt>
      <trkpt lat="49.2783" lon="2.38513">
        <ele>86.6</ele>
        <time>2024-09-01T10:09:30Z</time>
      </trkpt>
      <trkpt lat="49.2783" lon="2.38514">
        <ele>86.7</ele>
        <time>2024-09-01T10:09:31Z</time>
      </trkpt>
      <trkpt lat="49.2783" lon="2.38515">
        <ele>86.8</ele>
        <time>2024-09-01T10:09:32Z</time>
      </trkpt>
      <trkpt lat="49.2783" lon="2.38516">
        <ele>87</ele>
        <time>2024-09-01T10:09:33Z</time>
      </trkpt>
      <trkpt lat="49.27829" lon="2.38518">
        <ele>87.1</ele>
        <time>2024-09-01T10:09:34Z</time>
      </trkpt>
      <trkpt lat="49.27829" lon="2.38519">
        <ele>87.3</ele>
        <time>2024-09-01T10:09:35Z</time>
      </trkpt>
      <trkpt lat="49.27828" lon="2.3852">
        <ele>87.4</ele>
        <time>2024-09-01T10:09:36Z</time>
      </trkpt>
      <trkpt lat="49.27827" lon="2.38522">
        <ele>87.6</ele>
        <time>2024-09-01T10:09:37Z</time>
      </trkpt>
      <trkpt lat="49.27826" lon="2.38524">
        <ele>87.9</ele>
        <time>2024-09-01T10:09:38Z</time>
      </trkpt>
      <trkpt lat="49.27826" lon="2.38526">
        <ele>88.1</ele>
        <time>2024-09-01T10:09:39Z</time>
      </trkpt>
      <trkpt lat="49.27825" lon="2.38528">
        <ele>88.3</ele>
        <time>2024-09-01T10:09:40Z</time>
      </trkpt>
      <trkpt lat="49.27824" lon="2.3853">
        <ele>88.4</ele>
        <time>2024-09-01T10:09:41Z</time>
      </trkpt>
      <trkpt lat="49.27823" lon="2.38532">
        <ele>88.6</ele>
        <time>2024-09-01T10:09:42Z</time>
      </trkpt>
      <trkpt lat="49.27822" lon="2.38534">
        <ele>88.7</ele>
        <time>2024-09-01T10:09:43Z</time>
      </trkpt>
      <trkpt lat="49.2782" lon="2.38536">
        <ele>88.8</ele>
        <time>2024-09-01T10:09:44Z</time>
      </trkpt>
      <trkpt lat="49.27819" lon="2.38538">
        <ele>88.9</ele>
        <time>2024-09-01T10:09:45Z</time>
      </trkpt>
      <trkpt lat="49.27818" lon="2.3854">
        <ele>88.9</ele>
        <time>2024-09-01T10:09:46Z</time>
      </trkpt>
      <trkpt lat="49.27817" lon="2.38542">
        <ele>89</ele>
        <time>2024-09-01T10:09:47Z</time>
      </trkpt>
      <trkpt lat="49.27816" lon="2.38544">
        <ele>89.1</ele>
        <time>2024-09-01T10:09:48Z</time>
      </trkpt>
      <trkpt lat="49.27815" lon="2.38546">
        <ele>89.1</ele>
        <time>2024-09-01T10:09:49Z</time>
      </trkpt>
      <trkpt lat="49.27813" lon="2.38548">
        <ele>89.1</ele>
        <time>2024-09-01T10:09:50Z</time>
      </trkpt>
      <trkpt lat="49.27812" lon="2.38549">
        <ele>89.1</ele>
        <time>2024-09-01T10:09:51Z</time>
      </trkpt>
      <trkpt lat="49.27811" lon="2.38551">
        <ele>89.1</ele>
        <time>2024-09-01T10:09:52Z</time>
      </trkpt>
      <trkpt lat="49.2781" lon="2.38552">
        <ele>89.1</ele>
        <time>2024-09-01T10:09:53Z</time>
      </trkpt>
      <trkpt lat="49.27809" lon="2.38554">
        <ele>89.1</ele>
        <time>2024-09-01T10:09:54Z</time>
      </trkpt>
      <trkpt lat="49.27808" lon="2.38555">
        <ele>89.1</ele>
        <time>2024-09-01T10:09:55Z</time>
      </trkpt>
      <trkpt lat="49.27808" lon="2.38556">
        <ele>89.1</ele>
        <time>2024-09-01T10:09:56Z</time>
      </trkpt>
      <trkpt lat="49.27807" lon="2.38558">
        <ele>89.1</ele>
        <time>2024-09-01T10:09:57Z</time>
      </trkpt>
      <trkpt lat="49.27807" lon="2.38559">
        <ele>89.2</ele>
        <time>2024-09-01T10:09:58Z</time>
      </trkpt>
      <trkpt lat="49.27806" lon="2.38561">
        <ele>89.2</ele>
        <time>2024-09-01T10:09:59Z</time>
      </trkpt>
      <trkpt lat="49.27806" lon="2.38563">
        <ele>89.3</ele>
        <time>2024-09-01T10:10:00Z</time>
      </trkpt>
      <trkpt lat="49.27805" lon="2.38564">
        <ele>89.3</ele>
        <time>2024-09-01T10:10:01Z</time>
      </trkpt>
      <trkpt lat="49.27804" lon="2.38566">
        <ele>89.4</ele>
        <time>2024-09-01T10:10:02Z</time>
      </trkpt>
      <trkpt lat="49.27803" lon="2.38568">
        <ele>89.4</ele>
        <time>2024-09-01T10:10:03Z</time>
      </trkpt>
      <trkpt lat="49.27803" lon="2.3857">
        <ele>89.5</ele>
        <time>2024-09-01T10:10:04Z</time>
      </trkpt>
      <trkpt lat="49.27802" lon="2.38571">
        <ele>89.6</ele>
        <time>2024-09-01T10:10:05Z</time>
      </trkpt>
      <trkpt lat="49.27801" lon="2.38573">
        <ele>89.6</ele>
        <time>2024-09-01T10:10:06Z</time>
      </trkpt>
      <trkpt lat="49.27799" lon="2.38575">
        <ele>89.7</ele>
        <time>2024-09-01T10:10:07Z</time>
      </trkpt>
      <trkpt lat="49.27798" lon="2.38577">
        <ele>89.8</ele>
        <time>2024-09-01T10:10:08Z</time>
      </trkpt>
      <trkpt lat="49.27797" lon="2.38579">
        <ele>89.8</ele>
        <time>2024-09-01T10:10:09Z</time>
      </trkpt>
      <trkpt lat="49.27796" lon="2.38581">
        <ele>89.9</ele>
        <time>2024-09-01T10:10:10Z</time>
      </trkpt>
      <trkpt lat="49.27796" lon="2.38583">
        <ele>90</ele>
        <time>2024-09-01T10:10:11Z</time>
      </trkpt>
      <trkpt lat="49.27795" lon="2.38585">
        <ele>90</ele>
        <time>2024-09-01T10:10:12Z</time>
      </trkpt>
      <trkpt lat="49.27794" lon="2.38588">
        <ele>90.1</ele>
        <time>2024-09-01T10:10:13Z</time>
      </trkpt>
      <trkpt lat="49.27793" lon="2.3859">
        <ele>90.1</ele>
        <time>2024-09-01T10:10:14Z</time>
      </trkpt>
      <trkpt lat="49.27793" lon="2.38592">
        <ele>90.2</ele>
        <time>2024-09-01T10:10:15Z</time>
      </trkpt>
      <trkpt lat="49.27792" lon="2.38594">
        <ele>90.2</ele>
        <time>2024-09-01T10:10:16Z</time>
      </trkpt>
      <trkpt lat="49.27791" lon="2.38597">
        <ele>90.2</ele>
        <time>2024-09-01T10:10:17Z</time>
      </trkpt>
      <trkpt lat="49.27791" lon="2.38599">
        <ele>90.3</ele>
        <time>2024-09-01T10:10:18Z</time>
      </trkpt>
      <trkpt lat="49.2779" lon="2.38601">
        <ele>90.3</ele>
        <time>2024-09-01T10:10:19Z</time>
      </trkpt>
      <trkpt lat="49.27789" lon="2.38604">
        <ele>90.3</ele>
        <time>2024-09-01T10:10:20Z</time>
      </trkpt>
      <trkpt lat="49.27788" lon="2.38606">
        <ele>90.3</ele>
        <time>2024-09-01T10:10:21Z</time>
      </trkpt>
      <trkpt lat="49.27787" lon="2.38608">
        <ele>90.3</ele>
        <time>2024-09-01T10:10:22Z</time>
      </trkpt>
      <trkpt lat="49.27786" lon="2.38611">
        <ele>90.3</ele>
        <time>2024-09-01T10:10:23Z</time>
      </trkpt>
      <trkpt lat="49.27785" lon="2.38613">
        <ele>90.3</ele>
        <time>2024-09-01T10:10:24Z</time>
      </trkpt>
      <trkpt lat="49.27784" lon="2.38615">
        <ele>90.3</ele>
        <time>2024-09-01T10:10:25Z</time>
      </trkpt>
      <trkpt lat="49.27783" lon="2.38618">
        <ele>90.4</ele>
        <time>2024-09-01T10:10:26Z</time>
      </trkpt>
      <trkpt lat="49.27782" lon="2.3862">
        <ele>90.4</ele>
        <time>2024-09-01T10:10:27Z</time>
      </trkpt>
      <trkpt lat="49.27781" lon="2.38622">
        <ele>90.5</ele>
        <time>2024-09-01T10:10:28Z</time>
      </trkpt>
      <trkpt lat="49.2778" lon="2.38625">
        <ele>90.5</ele>
        <time>2024-09-01T10:10:29Z</time>
      </trkpt>
      <trkpt lat="49.27779" lon="2.38627">
        <ele>90.6</ele>
        <time>2024-09-01T10:10:30Z</time>
      </trkpt>
      <trkpt lat="49.27779" lon="2.38629">
        <ele>90.7</ele>
        <time>2024-09-01T10:10:31Z</time>
      </trkpt>
      <trkpt lat="49.27778" lon="2.38632">
        <ele>90.7</ele>
        <time>2024-09-01T10:10:32Z</time>
      </trkpt>
      <trkpt lat="49.27777" lon="2.38634">
        <ele>90.8</ele>
        <time>2024-09-01T10:10:33Z</time>
      </trkpt>
      <trkpt lat="49.27776" lon="2.38637">
        <ele>90.9</ele>
        <time>2024-09-01T10:10:34Z</time>
      </trkpt>
      <trkpt lat="49.27775" lon="2.38639">
        <ele>90.9</ele>
        <time>2024-09-01T10:10:35Z</time>
      </trkpt>
      <trkpt lat="49.27774" lon="2.38642">
        <ele>90.9</ele>
        <time>2024-09-01T10:10:36Z</time>
      </trkpt>
      <trkpt lat="49.27773" lon="2.38644">
        <ele>90.8</ele>
        <time>2024-09-01T10:10:37Z</time>
      </trkpt>
      <trkpt lat="49.27772" lon="2.38646">
        <ele>90.8</ele>
        <time>2024-09-01T10:10:38Z</time>
      </trkpt>
      <trkpt lat="49.27771" lon="2.38648">
        <ele>90.8</ele>
        <time>2024-09-01T10:10:39Z</time>
      </trkpt>
      <trkpt lat="49.2777" lon="2.38651">
        <ele>90.7</ele>
        <time>2024-09-01T10:10:40Z</time>
      </trkpt>
      <trkpt lat="49.2777" lon="2.38653">
        <ele>90.7</ele>
        <time>2024-09-01T10:10:41Z</time>
      </trkpt>
      <trkpt lat="49.27769" lon="2.38655">
        <ele>90.7</ele>
        <time>2024-09-01T10:10:42Z</time>
      </trkpt>
      <trkpt lat="49.27769" lon="2.38657">
        <ele>90.7</ele>
        <time>2024-09-01T10:10:43Z</time>
      </trkpt>
      <trkpt lat="49.27768" lon="2.38659">
        <ele>90.6</ele>
        <time>2024-09-01T10:10:44Z</time>
      </trkpt>
      <trkpt lat="49.27767" lon="2.38661">
        <ele>90.6</ele>
        <time>2024-09-01T10:10:45Z</time>
      </trkpt>
      <trkpt lat="49.27767" lon="2.38664">
        <ele>90.6</ele>
        <time>2024-09-01T10:10:46Z</time>
      </trkpt>
      <trkpt lat="49.27766" lon="2.38666">
        <ele>90.6</ele>
        <time>2024-09-01T10:10:47Z</time>
      </trkpt>
      <trkpt lat="49.27766" lon="2.38668">
        <ele>90.6</ele>
        <time>2024-09-01T10:10:48Z</time>
      </trkpt>
      <trkpt lat="49.27765" lon="2.3867">
        <ele>90.6</ele>
        <time>2024-09-01T10:10:49Z</time>
      </trkpt>
      <trkpt lat="49.27765" lon="2.38672">
        <ele>90.6</ele>
        <time>2024-09-01T10:10:50Z</time>
      </trkpt>
      <trkpt lat="49.27764" lon="2.38675">
        <ele>90.6</ele>
        <time>2024-09-01T10:10:51Z</time>
      </trkpt>
      <trkpt lat="49.27763" lon="2.38677">
        <ele>90.7</ele>
        <time>2024-09-01T10:10:52Z</time>
      </trkpt>
      <trkpt lat="49.27762" lon="2.38679">
        <ele>90.7</ele>
        <time>2024-09-01T10:10:53Z</time>
      </trkpt>
      <trkpt lat="49.27761" lon="2.38682">
        <ele>90.7</ele>
        <time>2024-09-01T10:10:54Z</time>
      </trkpt>
      <trkpt lat="49.27761" lon="2.38684">
        <ele>90.8</ele>
        <time>2024-09-01T10:10:55Z</time>
      </trkpt>
      <trkpt lat="49.2776" lon="2.38686">
        <ele>90.8</ele>
        <time>2024-09-01T10:10:56Z</time>
      </trkpt>
      <trkpt lat="49.27759" lon="2.38689">
        <ele>90.9</ele>
        <time>2024-09-01T10:10:57Z</time>
      </trkpt>
      <trkpt lat="49.27758" lon="2.38691">
        <ele>90.9</ele>
        <time>2024-09-01T10:10:58Z</time>
      </trkpt>
      <trkpt lat="49.27757" lon="2.38693">
        <ele>91</ele>
        <time>2024-09-01T10:10:59Z</time>
      </trkpt>
      <trkpt lat="49.27756" lon="2.38696">
        <ele>91</ele>
        <time>2024-09-01T10:11:00Z</time>
      </trkpt>
      <trkpt lat="49.27755" lon="2.38698">
        <ele>91</ele>
        <time>2024-09-01T10:11:01Z</time>
      </trkpt>
      <trkpt lat="49.27754" lon="2.387">
        <ele>91</ele>
        <time>2024-09-01T10:11:02Z</time>
      </trkpt>
      <trkpt lat="49.27753" lon="2.38702">
        <ele>91</ele>
        <time>2024-09-01T10:11:03Z</time>
      </trkpt>
      <trkpt lat="49.27753" lon="2.38705">
        <ele>91</ele>
        <time>2024-09-01T10:11:04Z</time>
      </trkpt>
      <trkpt lat="49.27752" lon="2.38707">
        <ele>91</ele>
        <time>2024-09-01T10:11:05Z</time>
      </trkpt>
      <trkpt lat="49.27751" lon="2.38709">
        <ele>91</ele>
        <time>2024-09-01T10:11:06Z</time>
      </trkpt>
      <trkpt lat="49.2775" lon="2.38712">
        <ele>91</ele>
        <time>2024-09-01T10:11:07Z</time>
      </trkpt>
      <trkpt lat="49.27749" lon="2.38714">
        <ele>91</ele>
        <time>2024-09-01T10:11:08Z</time>
      </trkpt>
      <trkpt lat="49.27748" lon="2.38716">
        <ele>90.9</ele>
        <time>2024-09-01T10:11:09Z</time>
      </trkpt>
      <trkpt lat="49.27747" lon="2.38719">
        <ele>90.9</ele>
        <time>2024-09-01T10:11:10Z</time>
      </trkpt>
      <trkpt lat="49.27747" lon="2.38721">
        <ele>90.9</ele>
        <time>2024-09-01T10:11:11Z</time>
      </trkpt>
      <trkpt lat="49.27746" lon="2.38723">
        <ele>90.8</ele>
        <time>2024-09-01T10:11:12Z</time>
      </trkpt>
      <trkpt lat="49.27745" lon="2.38726">
        <ele>90.8</ele>
        <time>2024-09-01T10:11:13Z</time>
      </trkpt>
      <trkpt lat="49.27745" lon="2.38728">
        <ele>90.8</ele>
        <time>2024-09-01T10:11:14Z</time>
      </trkpt>
      <trkpt lat="49.27744" lon="2.3873">
        <ele>90.8</ele>
        <time>2024-09-01T10:11:15Z</time>
      </trkpt>
      <trkpt lat="49.27744" lon="2.38733">
        <ele>90.8</ele>
        <time>2024-09-01T10:11:16Z</time>
      </trkpt>
      <trkpt lat="49.27743" lon="2.38735">
        <ele>90.8</ele>
        <time>2024-09-01T10:11:17Z</time>
      </trkpt>
      <trkpt lat="49.27743" lon="2.38737">
        <ele>90.7</ele>
        <time>2024-09-01T10:11:18Z</time>
      </trkpt>
      <trkpt lat="49.27742" lon="2.38739">
        <ele>90.7</ele>
        <time>2024-09-01T10:11:19Z</time>
      </trkpt>
      <trkpt lat="49.27741" lon="2.38741">
        <ele>90.7</ele>
        <time>2024-09-01T10:11:20Z</time>
      </trkpt>
      <trkpt lat="49.27741" lon="2.38744">
        <ele>90.7</ele>
        <time>2024-09-01T10:11:21Z</time>
      </trkpt>
      <trkpt lat="49.2774" lon="2.38746">
        <ele>90.6</ele>
        <time>2024-09-01T10:11:22Z</time>
      </trkpt>
      <trkpt lat="49.27739" lon="2.38747">
        <ele>90.6</ele>
        <time>2024-09-01T10:11:23Z</time>
      </trkpt>
      <trkpt lat="49.27738" lon="2.38749">
        <ele>90.6</ele>
        <time>2024-09-01T10:11:24Z</time>
      </trkpt>
      <trkpt lat="49.27737" lon="2.38751">
        <ele>90.5</ele>
        <time>2024-09-01T10:11:25Z</time>
      </trkpt>
      <trkpt lat="49.27736" lon="2.38753">
        <ele>90.5</ele>
        <time>2024-09-01T10:11:26Z</time>
      </trkpt>
      <trkpt lat="49.27735" lon="2.38755">
        <ele>90.5</ele>
        <time>2024-09-01T10:11:27Z</time>
      </trkpt>
      <trkpt lat="49.27734" lon="2.38757">
        <ele>90.5</ele>
        <time>2024-09-01T10:11:28Z</time>
      </trkpt>
      <trkpt lat="49.27733" lon="2.38759">
        <ele>90.6</ele>
        <time>2024-09-01T10:11:29Z</time>
      </trkpt>
      <trkpt lat="49.27732" lon="2.38761">
        <ele>90.6</ele>
        <time>2024-09-01T10:11:30Z</time>
      </trkpt>
      <trkpt lat="49.27731" lon="2.38763">
        <ele>90.6</ele>
        <time>2024-09-01T10:11:31Z</time>
      </trkpt>
      <trkpt lat="49.2773" lon="2.38766">
        <ele>90.7</ele>
        <time>2024-09-01T10:11:32Z</time>
      </trkpt>
      <trkpt lat="49.27729" lon="2.38768">
        <ele>90.7</ele>
        <time>2024-09-01T10:11:33Z</time>
      </trkpt>
      <trkpt lat="49.27729" lon="2.38771">
        <ele>90.8</ele>
        <time>2024-09-01T10:11:34Z</time>
      </trkpt>
      <trkpt lat="49.27728" lon="2.38773">
        <ele>90.9</ele>
        <time>2024-09-01T10:11:35Z</time>
      </trkpt>
      <trkpt lat="49.27727" lon="2.38776">
        <ele>90.9</ele>
        <time>2024-09-01T10:11:36Z</time>
      </trkpt>
      <trkpt lat="49.27726" lon="2.38779">
        <ele>91</ele>
        <time>2024-09-01T10:11:37Z</time>
      </trkpt>
      <trkpt lat="49.27726" lon="2.38781">
        <ele>91</ele>
        <time>2024-09-01T10:11:38Z</time>
      </trkpt>
      <trkpt lat="49.27725" lon="2.38784">
        <ele>91</ele>
        <time>2024-09-01T10:11:39Z</time>
      </trkpt>
      <trkpt lat="49.27724" lon="2.38786">
        <ele>91</ele>
        <time>2024-09-01T10:11:40Z</time>
      </trkpt>
      <trkpt lat="49.27723" lon="2.38788">
        <ele>91</ele>
        <time>2024-09-01T10:11:41Z</time>
      </trkpt>
      <trkpt lat="49.27722" lon="2.38791">
        <ele>91</ele>
        <time>2024-09-01T10:11:42Z</time>
      </trkpt>
      <trkpt lat="49.27722" lon="2.38793">
        <ele>91</ele>
        <time>2024-09-01T10:11:43Z</time>
      </trkpt>
      <trkpt lat="49.27721" lon="2.38795">
        <ele>91</ele>
        <time>2024-09-01T10:11:44Z</time>
      </trkpt>
      <trkpt lat="49.2772" lon="2.38798">
        <ele>91</ele>
        <time>2024-09-01T10:11:45Z</time>
      </trkpt>
      <trkpt lat="49.27719" lon="2.38801">
        <ele>91</ele>
        <time>2024-09-01T10:11:46Z</time>
      </trkpt>
      <trkpt lat="49.27718" lon="2.38803">
        <ele>91</ele>
        <time>2024-09-01T10:11:47Z</time>
      </trkpt>
      <trkpt lat="49.27717" lon="2.38806">
        <ele>91</ele>
        <time>2024-09-01T10:11:48Z</time>
      </trkpt>
      <trkpt lat="49.27716" lon="2.38809">
        <ele>91</ele>
        <time>2024-09-01T10:11:49Z</time>
      </trkpt>
      <trkpt lat="49.27715" lon="2.38812">
        <ele>91</ele>
        <time>2024-09-01T10:11:50Z</time>
      </trkpt>
      <trkpt lat="49.27714" lon="2.38815">
        <ele>91</ele>
        <time>2024-09-01T10:11:51Z</time>
      </trkpt>
      <trkpt lat="49.27713" lon="2.38818">
        <ele>91</ele>
        <time>2024-09-01T10:11:52Z</time>
      </trkpt>
      <trkpt lat="49.27712" lon="2.38821">
        <ele>91</ele>
        <time>2024-09-01T10:11:53Z</time>
      </trkpt>
      <trkpt lat="49.27711" lon="2.38823">
        <ele>91</ele>
        <time>2024-09-01T10:11:54Z</time>
      </trkpt>
      <trkpt lat="49.2771" lon="2.38826">
        <ele>91</ele>
        <time>2024-09-01T10:11:55Z</time>
      </trkpt>
      <trkpt lat="49.27709" lon="2.38829">
        <ele>91</ele>
        <time>2024-09-01T10:11:56Z</time>
      </trkpt>
      <trkpt lat="49.27708" lon="2.38831">
        <ele>91</ele>
        <time>2024-09-01T10:11:57Z</time>
      </trkpt>
      <trkpt lat="49.27706" lon="2.38834">
        <ele>91</ele>
        <time>2024-09-01T10:11:58Z</time>
      </trkpt>
      <trkpt lat="49.27705" lon="2.38837">
        <ele>91.1</ele>
        <time>2024-09-01T10:11:59Z</time>
      </trkpt>
      <trkpt lat="49.27704" lon="2.38839">
        <ele>91.2</ele>
        <time>2024-09-01T10:12:00Z</time>
      </trkpt>
      <trkpt lat="49.27703" lon="2.38842">
        <ele>91.3</ele>
        <time>2024-09-01T10:12:01Z</time>
      </trkpt>
      <trkpt lat="49.27702" lon="2.38845">
        <ele>91.4</ele>
        <time>2024-09-01T10:12:02Z</time>
      </trkpt>
      <trkpt lat="49.27701" lon="2.38847">
        <ele>91.5</ele>
        <time>2024-09-01T10:12:03Z</time>
      </trkpt>
      <trkpt lat="49.277" lon="2.3885">
        <ele>91.6</ele>
        <time>2024-09-01T10:12:04Z</time>
      </trkpt>
      <trkpt lat="49.27699" lon="2.38852">
        <ele>91.7</ele>
        <time>2024-09-01T10:12:05Z</time>
      </trkpt>
      <trkpt lat="49.27698" lon="2.38854">
        <ele>91.8</ele>
        <time>2024-09-01T10:12:06Z</time>
      </trkpt>
      <trkpt lat="49.27697" lon="2.38857">
        <ele>91.8</ele>
        <time>2024-09-01T10:12:07Z</time>
      </trkpt>
      <trkpt lat="49.27696" lon="2.38859">
        <ele>91.9</ele>
        <time>2024-09-01T10:12:08Z</time>
      </trkpt>
      <trkpt lat="49.27695" lon="2.38862">
        <ele>92</ele>
        <time>2024-09-01T10:12:09Z</time>
      </trkpt>
      <trkpt lat="49.27694" lon="2.38865">
        <ele>92</ele>
        <time>2024-09-01T10:12:10Z</time>
      </trkpt>
      <trkpt lat="49.27693" lon="2.38867">
        <ele>92</ele>
        <time>2024-09-01T10:12:11Z</time>
      </trkpt>
      <trkpt lat="49.27692" lon="2.3887">
        <ele>92</ele>
        <time>2024-09-01T10:12:12Z</time>
      </trkpt>
      <trkpt lat="49.27691" lon="2.38873">
        <ele>92</ele>
        <time>2024-09-01T10:12:13Z</time>
      </trkpt>
      <trkpt lat="49.2769" lon="2.38875">
        <ele>92</ele>
        <time>2024-09-01T10:12:14Z</time>
      </trkpt>
      <trkpt lat="49.27689" lon="2.38878">
        <ele>92</ele>
        <time>2024-09-01T10:12:15Z</time>
      </trkpt>
      <trkpt lat="49.27688" lon="2.3888">
        <ele>92</ele>
        <time>2024-09-01T10:12:16Z</time>
      </trkpt>
      <trkpt lat="49.27687" lon="2.38883">
        <ele>92</ele>
        <time>2024-09-01T10:12:17Z</time>
      </trkpt>
      <trkpt lat="49.27686" lon="2.38885">
        <ele>92</ele>
        <time>2024-09-01T10:12:18Z</time>
      </trkpt>
      <trkpt lat="49.27685" lon="2.38888">
        <ele>92</ele>
        <time>2024-09-01T10:12:19Z</time>
      </trkpt>
      <trkpt lat="49.27684" lon="2.3889">
        <ele>92</ele>
        <time>2024-09-01T10:12:20Z</time>
      </trkpt>
      <trkpt lat="49.27683" lon="2.38893">
        <ele>92</ele>
        <time>2024-09-01T10:12:21Z</time>
      </trkpt>
      <trkpt lat="49.27682" lon="2.38895">
        <ele>92</ele>
        <time>2024-09-01T10:12:22Z</time>
      </trkpt>
      <trkpt lat="49.27681" lon="2.38897">
        <ele>92</ele>
        <time>2024-09-01T10:12:23Z</time>
      </trkpt>
      <trkpt lat="49.27679" lon="2.389">
        <ele>92</ele>
        <time>2024-09-01T10:12:24Z</time>
      </trkpt>
      <trkpt lat="49.27678" lon="2.38902">
        <ele>92</ele>
        <time>2024-09-01T10:12:25Z</time>
      </trkpt>
      <trkpt lat="49.27677" lon="2.38904">
        <ele>92</ele>
        <time>2024-09-01T10:12:26Z</time>
      </trkpt>
      <trkpt lat="49.27676" lon="2.38907">
        <ele>92</ele>
        <time>2024-09-01T10:12:27Z</time>
      </trkpt>
      <trkpt lat="49.27675" lon="2.38909">
        <ele>92</ele>
        <time>2024-09-01T10:12:28Z</time>
      </trkpt>
      <trkpt lat="49.27674" lon="2.38912">
        <ele>92</ele>
        <time>2024-09-01T10:12:29Z</time>
      </trkpt>
      <trkpt lat="49.27673" lon="2.38914">
        <ele>92</ele>
        <time>2024-09-01T10:12:30Z</time>
      </trkpt>
      <trkpt lat="49.27672" lon="2.38916">
        <ele>92</ele>
        <time>2024-09-01T10:12:31Z</time>
      </trkpt>
      <trkpt lat="49.27671" lon="2.38919">
        <ele>92.1</ele>
        <time>2024-09-01T10:12:32Z</time>
      </trkpt>
      <trkpt lat="49.2767" lon="2.38921">
        <ele>92.1</ele>
        <time>2024-09-01T10:12:33Z</time>
      </trkpt>
      <trkpt lat="49.27669" lon="2.38923">
        <ele>92.2</ele>
        <time>2024-09-01T10:12:34Z</time>
      </trkpt>
      <trkpt lat="49.27668" lon="2.38926">
        <ele>92.3</ele>
        <time>2024-09-01T10:12:35Z</time>
      </trkpt>
      <trkpt lat="49.27668" lon="2.38928">
        <ele>92.4</ele>
        <time>2024-09-01T10:12:36Z</time>
      </trkpt>
      <trkpt lat="49.27667" lon="2.38931">
        <ele>92.5</ele>
        <time>2024-09-01T10:12:37Z</time>
      </trkpt>
      <trkpt lat="49.27665" lon="2.38933">
        <ele>92.6</ele>
        <time>2024-09-01T10:12:38Z</time>
      </trkpt>
      <trkpt lat="49.27664" lon="2.38935">
        <ele>92.7</ele>
        <time>2024-09-01T10:12:39Z</time>
      </trkpt>
      <trkpt lat="49.27663" lon="2.38938">
        <ele>92.8</ele>
        <time>2024-09-01T10:12:40Z</time>
      </trkpt>
      <trkpt lat="49.27663" lon="2.3894">
        <ele>92.9</ele>
        <time>2024-09-01T10:12:41Z</time>
      </trkpt>
      <trkpt lat="49.27662" lon="2.38943">
        <ele>93</ele>
        <time>2024-09-01T10:12:42Z</time>
      </trkpt>
      <trkpt lat="49.27661" lon="2.38945">
        <ele>93</ele>
        <time>2024-09-01T10:12:43Z</time>
      </trkpt>
      <trkpt lat="49.27661" lon="2.38948">
        <ele>93.1</ele>
        <time>2024-09-01T10:12:44Z</time>
      </trkpt>
      <trkpt lat="49.27661" lon="2.38949">
        <ele>93.2</ele>
        <time>2024-09-01T10:12:45Z</time>
      </trkpt>
      <trkpt lat="49.2766" lon="2.38951">
        <ele>93.2</ele>
        <time>2024-09-01T10:12:46Z</time>
      </trkpt>
      <trkpt lat="49.2766" lon="2.38952">
        <ele>93.3</ele>
        <time>2024-09-01T10:12:47Z</time>
      </trkpt>
      <trkpt lat="49.2766" lon="2.38954">
        <ele>93.3</ele>
        <time>2024-09-01T10:12:48Z</time>
      </trkpt>
      <trkpt lat="49.27659" lon="2.38955">
        <ele>93.4</ele>
        <time>2024-09-01T10:12:49Z</time>
      </trkpt>
      <trkpt lat="49.27659" lon="2.38957">
        <ele>93.5</ele>
        <time>2024-09-01T10:12:50Z</time>
      </trkpt>
      <trkpt lat="49.27658" lon="2.38959">
        <ele>93.5</ele>
        <time>2024-09-01T10:12:51Z</time>
      </trkpt>
      <trkpt lat="49.27658" lon="2.38961">
        <ele>93.6</ele>
        <time>2024-09-01T10:12:52Z</time>
      </trkpt>
      <trkpt lat="49.27658" lon="2.38963">
        <ele>93.7</ele>
        <time>2024-09-01T10:12:53Z</time>
      </trkpt>
      <trkpt lat="49.27657" lon="2.38965">
        <ele>93.7</ele>
        <time>2024-09-01T10:12:54Z</time>
      </trkpt>
      <trkpt lat="49.27656" lon="2.38967">
        <ele>93.8</ele>
        <time>2024-09-01T10:12:55Z</time>
      </trkpt>
      <trkpt lat="49.27656" lon="2.38969">
        <ele>93.9</ele>
        <time>2024-09-01T10:12:56Z</time>
      </trkpt>
      <trkpt lat="49.27655" lon="2.38971">
        <ele>94</ele>
        <time>2024-09-01T10:12:57Z</time>
      </trkpt>
      <trkpt lat="49.27654" lon="2.38973">
        <ele>94</ele>
        <time>2024-09-01T10:12:58Z</time>
      </trkpt>
      <trkpt lat="49.27654" lon="2.38975">
        <ele>94</ele>
        <time>2024-09-01T10:12:59Z</time>
      </trkpt>
      <trkpt lat="49.27653" lon="2.38977">
        <ele>94</ele>
        <time>2024-09-01T10:13:00Z</time>
      </trkpt>
      <trkpt lat="49.27653" lon="2.38979">
        <ele>94</ele>
        <time>2024-09-01T10:13:01Z</time>
      </trkpt>
      <trkpt lat="49.27652" lon="2.38981">
        <ele>94</ele>
        <time>2024-09-01T10:13:02Z</time>
      </trkpt>
      <trkpt lat="49.27652" lon="2.38983">
        <ele>94</ele>
        <time>2024-09-01T10:13:03Z</time>
      </trkpt>
      <trkpt lat="49.27651" lon="2.38985">
        <ele>94</ele>
        <time>2024-09-01T10:13:04Z</time>
      </trkpt>
      <trkpt lat="49.27651" lon="2.38987">
        <ele>94</ele>
        <time>2024-09-01T10:13:05Z</time>
      </trkpt>
      <trkpt lat="49.2765" lon="2.38989">
        <ele>94</ele>
        <time>2024-09-01T10:13:06Z</time>
      </trkpt>
      <trkpt lat="49.27649" lon="2.38991">
        <ele>94</ele>
        <time>2024-09-01T10:13:07Z</time>
      </trkpt>
      <trkpt lat="49.27649" lon="2.38993">
        <ele>94</ele>
        <time>2024-09-01T10:13:08Z</time>
      </trkpt>
      <trkpt lat="49.27648" lon="2.38995">
        <ele>94</ele>
        <time>2024-09-01T10:13:09Z</time>
      </trkpt>
      <trkpt lat="49.27647" lon="2.38997">
        <ele>94</ele>
        <time>2024-09-01T10:13:10Z</time>
      </trkpt>
      <trkpt lat="49.27646" lon="2.38999">
        <ele>94</ele>
        <time>2024-09-01T10:13:11Z</time>
      </trkpt>
      <trkpt lat="49.27645" lon="2.39001">
        <ele>94</ele>
        <time>2024-09-01T10:13:12Z</time>
      </trkpt>
      <trkpt lat="49.27645" lon="2.39003">
        <ele>94</ele>
        <time>2024-09-01T10:13:13Z</time>
      </trkpt>
      <trkpt lat="49.27644" lon="2.39005">
        <ele>94</ele>
        <time>2024-09-01T10:13:14Z</time>
      </trkpt>
      <trkpt lat="49.27644" lon="2.39007">
        <ele>94</ele>
        <time>2024-09-01T10:13:15Z</time>
      </trkpt>
      <trkpt lat="49.27643" lon="2.3901">
        <ele>94.1</ele>
        <time>2024-09-01T10:13:16Z</time>
      </trkpt>
      <trkpt lat="49.27642" lon="2.39012">
        <ele>94.1</ele>
        <time>2024-09-01T10:13:17Z</time>
      </trkpt>
      <trkpt lat="49.27642" lon="2.39014">
        <ele>94.1</ele>
        <time>2024-09-01T10:13:18Z</time>
      </trkpt>
      <trkpt lat="49.27641" lon="2.39016">
        <ele>94</ele>
        <time>2024-09-01T10:13:19Z</time>
      </trkpt>
      <trkpt lat="49.2764" lon="2.39018">
        <ele>94</ele>
        <time>2024-09-01T10:13:20Z</time>
      </trkpt>
      <trkpt lat="49.2764" lon="2.39021">
        <ele>94</ele>
        <time>2024-09-01T10:13:21Z</time>
      </trkpt>
      <trkpt lat="49.27639" lon="2.39023">
        <ele>94</ele>
        <time>2024-09-01T10:13:22Z</time>
      </trkpt>
      <trkpt lat="49.27638" lon="2.39026">
        <ele>94</ele>
        <time>2024-09-01T10:13:23Z</time>
      </trkpt>
      <trkpt lat="49.27637" lon="2.39028">
        <ele>94.1</ele>
        <time>2024-09-01T10:13:24Z</time>
      </trkpt>
      <trkpt lat="49.27637" lon="2.39031">
        <ele>94.2</ele>
        <time>2024-09-01T10:13:25Z</time>
      </trkpt>
      <trkpt lat="49.27636" lon="2.39033">
        <ele>94.3</ele>
        <time>2024-09-01T10:13:26Z</time>
      </trkpt>
      <trkpt lat="49.27636" lon="2.39036">
        <ele>94.4</ele>
        <time>2024-09-01T10:13:27Z</time>
      </trkpt>
      <trkpt lat="49.27636" lon="2.39039">
        <ele>94.5</ele>
        <time>2024-09-01T10:13:28Z</time>
      </trkpt>
      <trkpt lat="49.27635" lon="2.39041">
        <ele>94.6</ele>
        <time>2024-09-01T10:13:29Z</time>
      </trkpt>
      <trkpt lat="49.27634" lon="2.39044">
        <ele>94.6</ele>
        <time>2024-09-01T10:13:30Z</time>
      </trkpt>
      <trkpt lat="49.27634" lon="2.39047">
        <ele>94.7</ele>
        <time>2024-09-01T10:13:31Z</time>
      </trkpt>
      <trkpt lat="49.27633" lon="2.39049">
        <ele>94.8</ele>
        <time>2024-09-01T10:13:32Z</time>
      </trkpt>
      <trkpt lat="49.27632" lon="2.39052">
        <ele>94.9</ele>
        <time>2024-09-01T10:13:33Z</time>
      </trkpt>
      <trkpt lat="49.27632" lon="2.39055">
        <ele>95</ele>
        <time>2024-09-01T10:13:34Z</time>
      </trkpt>
      <trkpt lat="49.27631" lon="2.39057">
        <ele>95</ele>
        <time>2024-09-01T10:13:35Z</time>
      </trkpt>
      <trkpt lat="49.2763" lon="2.39059">
        <ele>95.1</ele>
        <time>2024-09-01T10:13:36Z</time>
      </trkpt>
      <trkpt lat="49.2763" lon="2.39061">
        <ele>95.1</ele>
        <time>2024-09-01T10:13:37Z</time>
      </trkpt>
      <trkpt lat="49.2763" lon="2.39063">
        <ele>95.2</ele>
        <time>2024-09-01T10:13:38Z</time>
      </trkpt>
      <trkpt lat="49.27629" lon="2.39066">
        <ele>95.2</ele>
        <time>2024-09-01T10:13:39Z</time>
      </trkpt>
      <trkpt lat="49.27629" lon="2.39068">
        <ele>95.3</ele>
        <time>2024-09-01T10:13:40Z</time>
      </trkpt>
      <trkpt lat="49.27628" lon="2.3907">
        <ele>95.3</ele>
        <time>2024-09-01T10:13:41Z</time>
      </trkpt>
      <trkpt lat="49.27628" lon="2.39072">
        <ele>95.4</ele>
        <time>2024-09-01T10:13:42Z</time>
      </trkpt>
      <trkpt lat="49.27627" lon="2.39075">
        <ele>95.4</ele>
        <time>2024-09-01T10:13:43Z</time>
      </trkpt>
      <trkpt lat="49.27626" lon="2.39077">
        <ele>95.4</ele>
        <time>2024-09-01T10:13:44Z</time>
      </trkpt>
      <trkpt lat="49.27626" lon="2.3908">
        <ele>95.5</ele>
        <time>2024-09-01T10:13:45Z</time>
      </trkpt>
      <trkpt lat="49.27625" lon="2.39083">
        <ele>95.5</ele>
        <time>2024-09-01T10:13:46Z</time>
      </trkpt>
      <trkpt lat="49.27624" lon="2.39085">
        <ele>95.5</ele>
        <time>2024-09-01T10:13:47Z</time>
      </trkpt>
      <trkpt lat="49.27623" lon="2.39088">
        <ele>95.5</ele>
        <time>2024-09-01T10:13:48Z</time>
      </trkpt>
      <trkpt lat="49.27622" lon="2.39091">
        <ele>95.6</ele>
        <time>2024-09-01T10:13:49Z</time>
      </trkpt>
      <trkpt lat="49.27621" lon="2.39093">
        <ele>95.6</ele>
        <time>2024-09-01T10:13:50Z</time>
      </trkpt>
      <trkpt lat="49.27621" lon="2.39096">
        <ele>95.6</ele>
        <time>2024-09-01T10:13:51Z</time>
      </trkpt>
      <trkpt lat="49.2762" lon="2.39098">
        <ele>95.7</ele>
        <time>2024-09-01T10:13:52Z</time>
      </trkpt>
      <trkpt lat="49.2762" lon="2.39101">
        <ele>95.7</ele>
        <time>2024-09-01T10:13:53Z</time>
      </trkpt>
      <trkpt lat="49.27619" lon="2.39103">
        <ele>95.8</ele>
        <time>2024-09-01T10:13:54Z</time>
      </trkpt>
      <trkpt lat="49.27619" lon="2.39106">
        <ele>95.9</ele>
        <time>2024-09-01T10:13:55Z</time>
      </trkpt>
      <trkpt lat="49.27618" lon="2.39108">
        <ele>95.9</ele>
        <time>2024-09-01T10:13:56Z</time>
      </trkpt>
      <trkpt lat="49.27618" lon="2.39111">
        <ele>96</ele>
        <time>2024-09-01T10:13:57Z</time>
      </trkpt>
      <trkpt lat="49.27617" lon="2.39113">
        <ele>96</ele>
        <time>2024-09-01T10:13:58Z</time>
      </trkpt>
      <trkpt lat="49.27616" lon="2.39116">
        <ele>96</ele>
        <time>2024-09-01T10:13:59Z</time>
      </trkpt>
      <trkpt lat="49.27616" lon="2.39119">
        <ele>96</ele>
        <time>2024-09-01T10:14:00Z</time>
      </trkpt>
      <trkpt lat="49.27615" lon="2.39121">
        <ele>96.1</ele>
        <time>2024-09-01T10:14:01Z</time>
      </trkpt>
      <trkpt lat="49.27614" lon="2.39124">
        <ele>96.1</ele>
        <time>2024-09-01T10:14:02Z</time>
      </trkpt>
      <trkpt lat="49.27614" lon="2.39126">
        <ele>96</ele>
        <time>2024-09-01T10:14:03Z</time>
      </trkpt>
      <trkpt lat="49.27613" lon="2.39128">
        <ele>96</ele>
        <time>2024-09-01T10:14:04Z</time>
      </trkpt>
      <trkpt lat="49.27612" lon="2.39131">
        <ele>96</ele>
        <time>2024-09-01T10:14:05Z</time>
      </trkpt>
      <trkpt lat="49.27611" lon="2.39133">
        <ele>96</ele>
        <time>2024-09-01T10:14:06Z</time>
      </trkpt>
      <trkpt lat="49.2761" lon="2.39135">
        <ele>96</ele>
        <time>2024-09-01T10:14:07Z</time>
      </trkpt>
      <trkpt lat="49.27609" lon="2.39138">
        <ele>96.1</ele>
        <time>2024-09-01T10:14:08Z</time>
      </trkpt>
      <trkpt lat="49.27608" lon="2.3914">
        <ele>96.2</ele>
        <time>2024-09-01T10:14:09Z</time>
      </trkpt>
      <trkpt lat="49.27607" lon="2.39143">
        <ele>96.3</ele>
        <time>2024-09-01T10:14:10Z</time>
      </trkpt>
      <trkpt lat="49.27606" lon="2.39145">
        <ele>96.4</ele>
        <time>2024-09-01T10:14:11Z</time>
      </trkpt>
      <trkpt lat="49.27605" lon="2.39148">
        <ele>96.5</ele>
        <time>2024-09-01T10:14:12Z</time>
      </trkpt>
      <trkpt lat="49.27603" lon="2.39151">
        <ele>96.6</ele>
        <time>2024-09-01T10:14:13Z</time>
      </trkpt>
      <trkpt lat="49.27602" lon="2.39154">
        <ele>96.7</ele>
        <time>2024-09-01T10:14:14Z</time>
      </trkpt>
      <trkpt lat="49.27602" lon="2.39156">
        <ele>96.8</ele>
        <time>2024-09-01T10:14:15Z</time>
      </trkpt>
      <trkpt lat="49.27601" lon="2.39159">
        <ele>96.8</ele>
        <time>2024-09-01T10:14:16Z</time>
      </trkpt>
      <trkpt lat="49.276" lon="2.39162">
        <ele>96.9</ele>
        <time>2024-09-01T10:14:17Z</time>
      </trkpt>
      <trkpt lat="49.27599" lon="2.39165">
        <ele>97</ele>
        <time>2024-09-01T10:14:18Z</time>
      </trkpt>
      <trkpt lat="49.27599" lon="2.39169">
        <ele>97</ele>
        <time>2024-09-01T10:14:19Z</time>
      </trkpt>
      <trkpt lat="49.27598" lon="2.39172">
        <ele>97</ele>
        <time>2024-09-01T10:14:20Z</time>
      </trkpt>
      <trkpt lat="49.27597" lon="2.39175">
        <ele>97</ele>
        <time>2024-09-01T10:14:21Z</time>
      </trkpt>
      <trkpt lat="49.27597" lon="2.39178">
        <ele>97</ele>
        <time>2024-09-01T10:14:22Z</time>
      </trkpt>
      <trkpt lat="49.27596" lon="2.3918">
        <ele>97</ele>
        <time>2024-09-01T10:14:23Z</time>
      </trkpt>
      <trkpt lat="49.27595" lon="2.39183">
        <ele>97</ele>
        <time>2024-09-01T10:14:24Z</time>
      </trkpt>
      <trkpt lat="49.27595" lon="2.39186">
        <ele>97</ele>
        <time>2024-09-01T10:14:25Z</time>
      </trkpt>
      <trkpt lat="49.27594" lon="2.39188">
        <ele>97</ele>
        <time>2024-09-01T10:14:26Z</time>
      </trkpt>
      <trkpt lat="49.27593" lon="2.3919">
        <ele>97</ele>
        <time>2024-09-01T10:14:27Z</time>
      </trkpt>
      <trkpt lat="49.27592" lon="2.39193">
        <ele>97</ele>
        <time>2024-09-01T10:14:28Z</time>
      </trkpt>
      <trkpt lat="49.27591" lon="2.39195">
        <ele>97</ele>
        <time>2024-09-01T10:14:29Z</time>
      </trkpt>
      <trkpt lat="49.27591" lon="2.39198">
        <ele>97</ele>
        <time>2024-09-01T10:14:30Z</time>
      </trkpt>
      <trkpt lat="49.2759" lon="2.392">
        <ele>97</ele>
        <time>2024-09-01T10:14:31Z</time>
      </trkpt>
      <trkpt lat="49.27589" lon="2.39203">
        <ele>97.1</ele>
        <time>2024-09-01T10:14:32Z</time>
      </trkpt>
      <trkpt lat="49.27588" lon="2.39205">
        <ele>97.1</ele>
        <time>2024-09-01T10:14:33Z</time>
      </trkpt>
      <trkpt lat="49.27587" lon="2.39207">
        <ele>97.1</ele>
        <time>2024-09-01T10:14:34Z</time>
      </trkpt>
      <trkpt lat="49.27586" lon="2.3921">
        <ele>97.1</ele>
        <time>2024-09-01T10:14:35Z</time>
      </trkpt>
      <trkpt lat="49.27586" lon="2.39212">
        <ele>97.1</ele>
        <time>2024-09-01T10:14:36Z</time>
      </trkpt>
      <trkpt lat="49.27586" lon="2.39215">
        <ele>97.1</ele>
        <time>2024-09-01T10:14:37Z</time>
      </trkpt>
      <trkpt lat="49.27585" lon="2.39217">
        <ele>97.1</ele>
        <time>2024-09-01T10:14:38Z</time>
      </trkpt>
      <trkpt lat="49.27585" lon="2.3922">
        <ele>97.1</ele>
        <time>2024-09-01T10:14:39Z</time>
      </trkpt>
      <trkpt lat="49.27585" lon="2.39223">
        <ele>97.1</ele>
        <time>2024-09-01T10:14:40Z</time>
      </trkpt>
      <trkpt lat="49.27585" lon="2.39225">
        <ele>97.2</ele>
        <time>2024-09-01T10:14:41Z</time>
      </trkpt>
      <trkpt lat="49.27584" lon="2.39228">
        <ele>97.2</ele>
        <time>2024-09-01T10:14:42Z</time>
      </trkpt>
      <trkpt lat="49.27583" lon="2.39231">
        <ele>97.3</ele>
        <time>2024-09-01T10:14:43Z</time>
      </trkpt>
      <trkpt lat="49.27583" lon="2.39234">
        <ele>97.4</ele>
        <time>2024-09-01T10:14:44Z</time>
      </trkpt>
      <trkpt lat="49.27582" lon="2.39236">
        <ele>97.5</ele>
        <time>2024-09-01T10:14:45Z</time>
      </trkpt>
      <trkpt lat="49.2758" lon="2.39239">
        <ele>97.6</ele>
        <time>2024-09-01T10:14:46Z</time>
      </trkpt>
      <trkpt lat="49.27579" lon="2.39241">
        <ele>97.7</ele>
        <time>2024-09-01T10:14:47Z</time>
      </trkpt>
      <trkpt lat="49.27578" lon="2.39244">
        <ele>97.8</ele>
        <time>2024-09-01T10:14:48Z</time>
      </trkpt>
      <trkpt lat="49.27577" lon="2.39246">
        <ele>97.9</ele>
        <time>2024-09-01T10:14:49Z</time>
      </trkpt>
      <trkpt lat="49.27576" lon="2.39249">
        <ele>98</ele>
        <time>2024-09-01T10:14:50Z</time>
      </trkpt>
      <trkpt lat="49.27575" lon="2.39252">
        <ele>98</ele>
        <time>2024-09-01T10:14:51Z</time>
      </trkpt>
      <trkpt lat="49.27574" lon="2.39254">
        <ele>98.1</ele>
        <time>2024-09-01T10:14:52Z</time>
      </trkpt>
      <trkpt lat="49.27574" lon="2.39257">
        <ele>98.2</ele>
        <time>2024-09-01T10:14:53Z</time>
      </trkpt>
      <trkpt lat="49.27573" lon="2.3926">
        <ele>98.2</ele>
        <time>2024-09-01T10:14:54Z</time>
      </trkpt>
      <trkpt lat="49.27572" lon="2.39263">
        <ele>98.3</ele>
        <time>2024-09-01T10:14:55Z</time>
      </trkpt>
      <trkpt lat="49.27572" lon="2.39266">
        <ele>98.3</ele>
        <time>2024-09-01T10:14:56Z</time>
      </trkpt>
      <trkpt lat="49.27571" lon="2.39269">
        <ele>98.4</ele>
        <time>2024-09-01T10:14:57Z</time>
      </trkpt>
      <trkpt lat="49.2757" lon="2.39272">
        <ele>98.4</ele>
        <time>2024-09-01T10:14:58Z</time>
      </trkpt>
      <trkpt lat="49.27569" lon="2.39274">
        <ele>98.4</ele>
        <time>2024-09-01T10:14:59Z</time>
      </trkpt>
      <trkpt lat="49.27568" lon="2.39277">
        <ele>98.4</ele>
        <time>2024-09-01T10:15:00Z</time>
      </trkpt>
      <trkpt lat="49.27567" lon="2.39279">
        <ele>98.4</ele>
        <time>2024-09-01T10:15:01Z</time>
      </trkpt>
      <trkpt lat="49.27565" lon="2.3928">
        <ele>98.3</ele>
        <time>2024-09-01T10:15:02Z</time>
      </trkpt>
      <trkpt lat="49.27564" lon="2.39282">
        <ele>98.3</ele>
        <time>2024-09-01T10:15:03Z</time>
      </trkpt>
      <trkpt lat="49.27562" lon="2.39283">
        <ele>98.2</ele>
        <time>2024-09-01T10:15:04Z</time>
      </trkpt>
      <trkpt lat="49.2756" lon="2.39283">
        <ele>98.1</ele>
        <time>2024-09-01T10:15:05Z</time>
      </trkpt>
      <trkpt lat="49.27558" lon="2.39283">
        <ele>98.1</ele>
        <time>2024-09-01T10:15:06Z</time>
      </trkpt>
      <trkpt lat="49.27556" lon="2.39283">
        <ele>98</ele>
        <time>2024-09-01T10:15:07Z</time>
      </trkpt>
      <trkpt lat="49.27554" lon="2.39283">
        <ele>97.9</ele>
        <time>2024-09-01T10:15:08Z</time>
      </trkpt>
      <trkpt lat="49.27552" lon="2.39282">
        <ele>97.9</ele>
        <time>2024-09-01T10:15:09Z</time>
      </trkpt>
      <trkpt lat="49.2755" lon="2.39282">
        <ele>97.8</ele>
        <time>2024-09-01T10:15:10Z</time>
      </trkpt>
      <trkpt lat="49.27548" lon="2.39281">
        <ele>97.8</ele>
        <time>2024-09-01T10:15:11Z</time>
      </trkpt>
      <trkpt lat="49.27546" lon="2.39281">
        <ele>97.7</ele>
        <time>2024-09-01T10:15:12Z</time>
      </trkpt>
      <trkpt lat="49.27544" lon="2.3928">
        <ele>97.6</ele>
        <time>2024-09-01T10:15:13Z</time>
      </trkpt>
      <trkpt lat="49.27543" lon="2.39279">
        <ele>97.6</ele>
        <time>2024-09-01T10:15:14Z</time>
      </trkpt>
      <trkpt lat="49.27541" lon="2.39278">
        <ele>97.5</ele>
        <time>2024-09-01T10:15:15Z</time>
      </trkpt>
      <trkpt lat="49.27539" lon="2.39278">
        <ele>97.4</ele>
        <time>2024-09-01T10:15:16Z</time>
      </trkpt>
      <trkpt lat="49.27537" lon="2.39277">
        <ele>97.3</ele>
        <time>2024-09-01T10:15:17Z</time>
      </trkpt>
      <trkpt lat="49.27535" lon="2.39277">
        <ele>97.3</ele>
        <time>2024-09-01T10:15:18Z</time>
      </trkpt>
      <trkpt lat="49.27533" lon="2.39276">
        <ele>97.2</ele>
        <time>2024-09-01T10:15:19Z</time>
      </trkpt>
      <trkpt lat="49.27531" lon="2.39276">
        <ele>97.1</ele>
        <time>2024-09-01T10:15:20Z</time>
      </trkpt>
      <trkpt lat="49.27529" lon="2.39275">
        <ele>97.1</ele>
        <time>2024-09-01T10:15:21Z</time>
      </trkpt>
      <trkpt lat="49.27528" lon="2.39275">
        <ele>97</ele>
        <time>2024-09-01T10:15:22Z</time>
      </trkpt>
      <trkpt lat="49.27526" lon="2.39274">
        <ele>97</ele>
        <time>2024-09-01T10:15:23Z</time>
      </trkpt>
      <trkpt lat="49.27524" lon="2.39274">
        <ele>97</ele>
        <time>2024-09-01T10:15:24Z</time>
      </trkpt>
      <trkpt lat="49.27522" lon="2.39273">
        <ele>97</ele>
        <time>2024-09-01T10:15:25Z</time>
      </trkpt>
      <trkpt lat="49.2752" lon="2.39273">
        <ele>97</ele>
        <time>2024-09-01T10:15:26Z</time>
      </trkpt>
      <trkpt lat="49.27518" lon="2.39272">
        <ele>97</ele>
        <time>2024-09-01T10:15:27Z</time>
      </trkpt>
      <trkpt lat="49.27516" lon="2.39272">
        <ele>97</ele>
        <time>2024-09-01T10:15:28Z</time>
      </trkpt>
      <trkpt lat="49.27514" lon="2.39271">
        <ele>97</ele>
        <time>2024-09-01T10:15:29Z</time>
      </trkpt>
      <trkpt lat="49.27512" lon="2.39271">
        <ele>97</ele>
        <time>2024-09-01T10:15:30Z</time>
      </trkpt>
      <trkpt lat="49.2751" lon="2.3927">
        <ele>97</ele>
        <time>2024-09-01T10:15:31Z</time>
      </trkpt>
      <trkpt lat="49.27508" lon="2.3927">
        <ele>97</ele>
        <time>2024-09-01T10:15:32Z</time>
      </trkpt>
      <trkpt lat="49.27506" lon="2.39269">
        <ele>97</ele>
        <time>2024-09-01T10:15:33Z</time>
      </trkpt>
      <trkpt lat="49.27504" lon="2.39269">
        <ele>97</ele>
        <time>2024-09-01T10:15:34Z</time>
      </trkpt>
      <trkpt lat="49.27502" lon="2.39268">
        <ele>97</ele>
        <time>2024-09-01T10:15:35Z</time>
      </trkpt>
      <trkpt lat="49.275" lon="2.39268">
        <ele>97</ele>
        <time>2024-09-01T10:15:36Z</time>
      </trkpt>
      <trkpt lat="49.27499" lon="2.39267">
        <ele>96.9</ele>
        <time>2024-09-01T10:15:37Z</time>
      </trkpt>
      <trkpt lat="49.27497" lon="2.39267">
        <ele>96.9</ele>
        <time>2024-09-01T10:15:38Z</time>
      </trkpt>
      <trkpt lat="49.27495" lon="2.39267">
        <ele>96.8</ele>
        <time>2024-09-01T10:15:39Z</time>
      </trkpt>
      <trkpt lat="49.27493" lon="2.39267">
        <ele>96.7</ele>
        <time>2024-09-01T10:15:40Z</time>
      </trkpt>
      <trkpt lat="49.27491" lon="2.39266">
        <ele>96.7</ele>
        <time>2024-09-01T10:15:41Z</time>
      </trkpt>
      <trkpt lat="49.27489" lon="2.39266">
        <ele>96.6</ele>
        <time>2024-09-01T10:15:42Z</time>
      </trkpt>
      <trkpt lat="49.27487" lon="2.39265">
        <ele>96.5</ele>
        <time>2024-09-01T10:15:43Z</time>
      </trkpt>
      <trkpt lat="49.27485" lon="2.39265">
        <ele>96.5</ele>
        <time>2024-09-01T10:15:44Z</time>
      </trkpt>
      <trkpt lat="49.27484" lon="2.39264">
        <ele>96.4</ele>
        <time>2024-09-01T10:15:45Z</time>
      </trkpt>
      <trkpt lat="49.27482" lon="2.39264">
        <ele>96.3</ele>
        <time>2024-09-01T10:15:46Z</time>
      </trkpt>
      <trkpt lat="49.2748" lon="2.39264">
        <ele>96.3</ele>
        <time>2024-09-01T10:15:47Z</time>
      </trkpt>
      <trkpt lat="49.27478" lon="2.39263">
        <ele>96.2</ele>
        <time>2024-09-01T10:15:48Z</time>
      </trkpt>
      <trkpt lat="49.27476" lon="2.39263">
        <ele>96.1</ele>
        <time>2024-09-01T10:15:49Z</time>
      </trkpt>
      <trkpt lat="49.27474" lon="2.39262">
        <ele>96.1</ele>
        <time>2024-09-01T10:15:50Z</time>
      </trkpt>
      <trkpt lat="49.27473" lon="2.39262">
        <ele>96</ele>
        <time>2024-09-01T10:15:51Z</time>
      </trkpt>
      <trkpt lat="49.27471" lon="2.39261">
        <ele>96</ele>
        <time>2024-09-01T10:15:52Z</time>
      </trkpt>
      <trkpt lat="49.27469" lon="2.39261">
        <ele>96</ele>
        <time>2024-09-01T10:15:53Z</time>
      </trkpt>
      <trkpt lat="49.27467" lon="2.3926">
        <ele>96</ele>
        <time>2024-09-01T10:15:54Z</time>
      </trkpt>
      <trkpt lat="49.27465" lon="2.3926">
        <ele>96</ele>
        <time>2024-09-01T10:15:55Z</time>
      </trkpt>
      <trkpt lat="49.27463" lon="2.39259">
        <ele>96</ele>
        <time>2024-09-01T10:15:56Z</time>
      </trkpt>
      <trkpt lat="49.27461" lon="2.39259">
        <ele>96</ele>
        <time>2024-09-01T10:15:57Z</time>
      </trkpt>
      <trkpt lat="49.2746" lon="2.39259">
        <ele>96</ele>
        <time>2024-09-01T10:15:58Z</time>
      </trkpt>
      <trkpt lat="49.27458" lon="2.39258">
        <ele>96</ele>
        <time>2024-09-01T10:15:59Z</time>
      </trkpt>
      <trkpt lat="49.27456" lon="2.39257">
        <ele>96</ele>
        <time>2024-09-01T10:16:00Z</time>
      </trkpt>
      <trkpt lat="49.27454" lon="2.39257">
        <ele>96</ele>
        <time>2024-09-01T10:16:01Z</time>
      </trkpt>
      <trkpt lat="49.27452" lon="2.39256">
        <ele>96</ele>
        <time>2024-09-01T10:16:02Z</time>
      </trkpt>
      <trkpt lat="49.2745" lon="2.39256">
        <ele>96</ele>
        <time>2024-09-01T10:16:03Z</time>
      </trkpt>
      <trkpt lat="49.27448" lon="2.39255">
        <ele>96</ele>
        <time>2024-09-01T10:16:04Z</time>
      </trkpt>
      <trkpt lat="49.27446" lon="2.39255">
        <ele>96</ele>
        <time>2024-09-01T10:16:05Z</time>
      </trkpt>
      <trkpt lat="49.27444" lon="2.39254">
        <ele>96</ele>
        <time>2024-09-01T10:16:06Z</time>
      </trkpt>
      <trkpt lat="49.27442" lon="2.39254">
        <ele>95.9</ele>
        <time>2024-09-01T10:16:07Z</time>
      </trkpt>
      <trkpt lat="49.2744" lon="2.39253">
        <ele>95.8</ele>
        <time>2024-09-01T10:16:08Z</time>
      </trkpt>
      <trkpt lat="49.27438" lon="2.39252">
        <ele>95.8</ele>
        <time>2024-09-01T10:16:09Z</time>
      </trkpt>
      <trkpt lat="49.27436" lon="2.39252">
        <ele>95.7</ele>
        <time>2024-09-01T10:16:10Z</time>
      </trkpt>
      <trkpt lat="49.27435" lon="2.39251">
        <ele>95.6</ele>
        <time>2024-09-01T10:16:11Z</time>
      </trkpt>
      <trkpt lat="49.27433" lon="2.39251">
        <ele>95.6</ele>
        <time>2024-09-01T10:16:12Z</time>
      </trkpt>
      <trkpt lat="49.27431" lon="2.3925">
        <ele>95.5</ele>
        <time>2024-09-01T10:16:13Z</time>
      </trkpt>
      <trkpt lat="49.27429" lon="2.3925">
        <ele>95.4</ele>
        <time>2024-09-01T10:16:14Z</time>
      </trkpt>
      <trkpt lat="49.27427" lon="2.39249">
        <ele>95.4</ele>
        <time>2024-09-01T10:16:15Z</time>
      </trkpt>
      <trkpt lat="49.27425" lon="2.39249">
        <ele>95.3</ele>
        <time>2024-09-01T10:16:16Z</time>
      </trkpt>
      <trkpt lat="49.27423" lon="2.39248">
        <ele>95.2</ele>
        <time>2024-09-01T10:16:17Z</time>
      </trkpt>
      <trkpt lat="49.27421" lon="2.39248">
        <ele>95.2</ele>
        <time>2024-09-01T10:16:18Z</time>
      </trkpt>
      <trkpt lat="49.27419" lon="2.39247">
        <ele>95.1</ele>
        <time>2024-09-01T10:16:19Z</time>
      </trkpt>
      <trkpt lat="49.27418" lon="2.39247">
        <ele>95</ele>
        <time>2024-09-01T10:16:20Z</time>
      </trkpt>
      <trkpt lat="49.27416" lon="2.39246">
        <ele>95</ele>
        <time>2024-09-01T10:16:21Z</time>
      </trkpt>
      <trkpt lat="49.27414" lon="2.39245">
        <ele>94.9</ele>
        <time>2024-09-01T10:16:22Z</time>
      </trkpt>
      <trkpt lat="49.27412" lon="2.39245">
        <ele>94.8</ele>
        <time>2024-09-01T10:16:23Z</time>
      </trkpt>
      <trkpt lat="49.2741" lon="2.39244">
        <ele>94.7</ele>
        <time>2024-09-01T10:16:24Z</time>
      </trkpt>
      <trkpt lat="49.27408" lon="2.39244">
        <ele>94.7</ele>
        <time>2024-09-01T10:16:25Z</time>
      </trkpt>
      <trkpt lat="49.27406" lon="2.39243">
        <ele>94.6</ele>
        <time>2024-09-01T10:16:26Z</time>
      </trkpt>
      <trkpt lat="49.27404" lon="2.39243">
        <ele>94.6</ele>
        <time>2024-09-01T10:16:27Z</time>
      </trkpt>
      <trkpt lat="49.27403" lon="2.39243">
        <ele>94.5</ele>
        <time>2024-09-01T10:16:28Z</time>
      </trkpt>
      <trkpt lat="49.27401" lon="2.39242">
        <ele>94.4</ele>
        <time>2024-09-01T10:16:29Z</time>
      </trkpt>
      <trkpt lat="49.27399" lon="2.39242">
        <ele>94.4</ele>
        <time>2024-09-01T10:16:30Z</time>
      </trkpt>
      <trkpt lat="49.27397" lon="2.39241">
        <ele>94.3</ele>
        <time>2024-09-01T10:16:31Z</time>
      </trkpt>
      <trkpt lat="49.27396" lon="2.39241">
        <ele>94.2</ele>
        <time>2024-09-01T10:16:32Z</time>
      </trkpt>
      <trkpt lat="49.27394" lon="2.3924">
        <ele>94.2</ele>
        <time>2024-09-01T10:16:33Z</time>
      </trkpt>
      <trkpt lat="49.27392" lon="2.3924">
        <ele>94.1</ele>
        <time>2024-09-01T10:16:34Z</time>
      </trkpt>
      <trkpt lat="49.2739" lon="2.39239">
        <ele>94</ele>
        <time>2024-09-01T10:16:35Z</time>
      </trkpt>
      <trkpt lat="49.27388" lon="2.39239">
        <ele>94</ele>
        <time>2024-09-01T10:16:36Z</time>
      </trkpt>
      <trkpt lat="49.27386" lon="2.39238">
        <ele>93.9</ele>
        <time>2024-09-01T10:16:37Z</time>
      </trkpt>
      <trkpt lat="49.27384" lon="2.39238">
        <ele>93.8</ele>
        <time>2024-09-01T10:16:38Z</time>
      </trkpt>
      <trkpt lat="49.27383" lon="2.39237">
        <ele>93.8</ele>
        <time>2024-09-01T10:16:39Z</time>
      </trkpt>
      <trkpt lat="49.27381" lon="2.39237">
        <ele>93.7</ele>
        <time>2024-09-01T10:16:40Z</time>
      </trkpt>
      <trkpt lat="49.27379" lon="2.39237">
        <ele>93.6</ele>
        <time>2024-09-01T10:16:41Z</time>
      </trkpt>
      <trkpt lat="49.27377" lon="2.39236">
        <ele>93.6</ele>
        <time>2024-09-01T10:16:42Z</time>
      </trkpt>
      <trkpt lat="49.27375" lon="2.39235">
        <ele>93.5</ele>
        <time>2024-09-01T10:16:43Z</time>
      </trkpt>
      <trkpt lat="49.27373" lon="2.39235">
        <ele>93.4</ele>
        <time>2024-09-01T10:16:44Z</time>
      </trkpt>
      <trkpt lat="49.27372" lon="2.39234">
        <ele>93.4</ele>
        <time>2024-09-01T10:16:45Z</time>
      </trkpt>
      <trkpt lat="49.2737" lon="2.39234">
        <ele>93.3</ele>
        <time>2024-09-01T10:16:46Z</time>
      </trkpt>
      <trkpt lat="49.27368" lon="2.39233">
        <ele>93.2</ele>
        <time>2024-09-01T10:16:47Z</time>
      </trkpt>
      <trkpt lat="49.27366" lon="2.39232">
        <ele>93.2</ele>
        <time>2024-09-01T10:16:48Z</time>
      </trkpt>
      <trkpt lat="49.27364" lon="2.39231">
        <ele>93.1</ele>
        <time>2024-09-01T10:16:49Z</time>
      </trkpt>
      <trkpt lat="49.27363" lon="2.39231">
        <ele>93.1</ele>
        <time>2024-09-01T10:16:50Z</time>
      </trkpt>
      <trkpt lat="49.27361" lon="2.3923">
        <ele>93</ele>
        <time>2024-09-01T10:16:51Z</time>
      </trkpt>
      <trkpt lat="49.27359" lon="2.39229">
        <ele>93</ele>
        <time>2024-09-01T10:16:52Z</time>
      </trkpt>
      <trkpt lat="49.27357" lon="2.39228">
        <ele>93</ele>
        <time>2024-09-01T10:16:53Z</time>
      </trkpt>
      <trkpt lat="49.27355" lon="2.39227">
        <ele>93</ele>
        <time>2024-09-01T10:16:54Z</time>
      </trkpt>
      <trkpt lat="49.27354" lon="2.39226">
        <ele>93</ele>
        <time>2024-09-01T10:16:55Z</time>
      </trkpt>
      <trkpt lat="49.27352" lon="2.39225">
        <ele>93</ele>
        <time>2024-09-01T10:16:56Z</time>
      </trkpt>
      <trkpt lat="49.2735" lon="2.39224">
        <ele>93</ele>
        <time>2024-09-01T10:16:57Z</time>
      </trkpt>
      <trkpt lat="49.27348" lon="2.39224">
        <ele>93</ele>
        <time>2024-09-01T10:16:58Z</time>
      </trkpt>
      <trkpt lat="49.27346" lon="2.39223">
        <ele>93</ele>
        <time>2024-09-01T10:16:59Z</time>
      </trkpt>
      <trkpt lat="49.27344" lon="2.39222">
        <ele>93</ele>
        <time>2024-09-01T10:17:00Z</time>
      </trkpt>
      <trkpt lat="49.27342" lon="2.39221">
        <ele>93</ele>
        <time>2024-09-01T10:17:01Z</time>
      </trkpt>
      <trkpt lat="49.2734" lon="2.39221">
        <ele>93</ele>
        <time>2024-09-01T10:17:02Z</time>
      </trkpt>
      <trkpt lat="49.27339" lon="2.3922">
        <ele>92.9</ele>
        <time>2024-09-01T10:17:03Z</time>
      </trkpt>
      <trkpt lat="49.27337" lon="2.39219">
        <ele>92.9</ele>
        <time>2024-09-01T10:17:04Z</time>
      </trkpt>
      <trkpt lat="49.27335" lon="2.39219">
        <ele>92.9</ele>
        <time>2024-09-01T10:17:05Z</time>
      </trkpt>
      <trkpt lat="49.27333" lon="2.39218">
        <ele>92.8</ele>
        <time>2024-09-01T10:17:06Z</time>
      </trkpt>
      <trkpt lat="49.27331" lon="2.39217">
        <ele>92.7</ele>
        <time>2024-09-01T10:17:07Z</time>
      </trkpt>
      <trkpt lat="49.27329" lon="2.39216">
        <ele>92.7</ele>
        <time>2024-09-01T10:17:08Z</time>
      </trkpt>
      <trkpt lat="49.27327" lon="2.39215">
        <ele>92.6</ele>
        <time>2024-09-01T10:17:09Z</time>
      </trkpt>
      <trkpt lat="49.27326" lon="2.39214">
        <ele>92.5</ele>
        <time>2024-09-01T10:17:10Z</time>
      </trkpt>
      <trkpt lat="49.27324" lon="2.39213">
        <ele>92.4</ele>
        <time>2024-09-01T10:17:11Z</time>
      </trkpt>
      <trkpt lat="49.27322" lon="2.39213">
        <ele>92.4</ele>
        <time>2024-09-01T10:17:12Z</time>
      </trkpt>
      <trkpt lat="49.2732" lon="2.39212">
        <ele>92.3</ele>
        <time>2024-09-01T10:17:13Z</time>
      </trkpt>
      <trkpt lat="49.27318" lon="2.39211">
        <ele>92.3</ele>
        <time>2024-09-01T10:17:14Z</time>
      </trkpt>
      <trkpt lat="49.27316" lon="2.3921">
        <ele>92.2</ele>
        <time>2024-09-01T10:17:15Z</time>
      </trkpt>
      <trkpt lat="49.27314" lon="2.39209">
        <ele>92.2</ele>
        <time>2024-09-01T10:17:16Z</time>
      </trkpt>
      <trkpt lat="49.27312" lon="2.39209">
        <ele>92.1</ele>
        <time>2024-09-01T10:17:17Z</time>
      </trkpt>
      <trkpt lat="49.2731" lon="2.39208">
        <ele>92.1</ele>
        <time>2024-09-01T10:17:18Z</time>
      </trkpt>
      <trkpt lat="49.27308" lon="2.39207">
        <ele>92</ele>
        <time>2024-09-01T10:17:19Z</time>
      </trkpt>
      <trkpt lat="49.27306" lon="2.39207">
        <ele>92</ele>
        <time>2024-09-01T10:17:20Z</time>
      </trkpt>
      <trkpt lat="49.27304" lon="2.39206">
        <ele>92</ele>
        <time>2024-09-01T10:17:21Z</time>
      </trkpt>
      <trkpt lat="49.27302" lon="2.39205">
        <ele>91.9</ele>
        <time>2024-09-01T10:17:22Z</time>
      </trkpt>
      <trkpt lat="49.273" lon="2.39204">
        <ele>91.8</ele>
        <time>2024-09-01T10:17:23Z</time>
      </trkpt>
      <trkpt lat="49.27298" lon="2.39203">
        <ele>91.7</ele>
        <time>2024-09-01T10:17:24Z</time>
      </trkpt>
      <trkpt lat="49.27297" lon="2.39202">
        <ele>91.7</ele>
        <time>2024-09-01T10:17:25Z</time>
      </trkpt>
      <trkpt lat="49.27295" lon="2.39201">
        <ele>91.6</ele>
        <time>2024-09-01T10:17:26Z</time>
      </trkpt>
      <trkpt lat="49.27293" lon="2.392">
        <ele>91.5</ele>
        <time>2024-09-01T10:17:27Z</time>
      </trkpt>
      <trkpt lat="49.27291" lon="2.392">
        <ele>91.5</ele>
        <time>2024-09-01T10:17:28Z</time>
      </trkpt>
      <trkpt lat="49.27289" lon="2.39199">
        <ele>91.4</ele>
        <time>2024-09-01T10:17:29Z</time>
      </trkpt>
      <trkpt lat="49.27287" lon="2.39198">
        <ele>91.3</ele>
        <time>2024-09-01T10:17:30Z</time>
      </trkpt>
      <trkpt lat="49.27286" lon="2.39197">
        <ele>91.3</ele>
        <time>2024-09-01T10:17:31Z</time>
      </trkpt>
      <trkpt lat="49.27284" lon="2.39196">
        <ele>91.2</ele>
        <time>2024-09-01T10:17:32Z</time>
      </trkpt>
      <trkpt lat="49.27282" lon="2.39195">
        <ele>91.1</ele>
        <time>2024-09-01T10:17:33Z</time>
      </trkpt>
      <trkpt lat="49.2728" lon="2.39194">
        <ele>91.1</ele>
        <time>2024-09-01T10:17:34Z</time>
      </trkpt>
      <trkpt lat="49.27278" lon="2.39193">
        <ele>91</ele>
        <time>2024-09-01T10:17:35Z</time>
      </trkpt>
      <trkpt lat="49.27276" lon="2.39192">
        <ele>90.9</ele>
        <time>2024-09-01T10:17:36Z</time>
      </trkpt>
      <trkpt lat="49.27274" lon="2.3919">
        <ele>90.9</ele>
        <time>2024-09-01T10:17:37Z</time>
      </trkpt>
      <trkpt lat="49.27272" lon="2.39189">
        <ele>90.8</ele>
        <time>2024-09-01T10:17:38Z</time>
      </trkpt>
      <trkpt lat="49.27271" lon="2.39188">
        <ele>90.7</ele>
        <time>2024-09-01T10:17:39Z</time>
      </trkpt>
      <trkpt lat="49.27269" lon="2.39187">
        <ele>90.7</ele>
        <time>2024-09-01T10:17:40Z</time>
      </trkpt>
      <trkpt lat="49.27267" lon="2.39186">
        <ele>90.6</ele>
        <time>2024-09-01T10:17:41Z</time>
      </trkpt>
      <trkpt lat="49.27265" lon="2.39185">
        <ele>90.5</ele>
        <time>2024-09-01T10:17:42Z</time>
      </trkpt>
      <trkpt lat="49.27263" lon="2.39184">
        <ele>90.5</ele>
        <time>2024-09-01T10:17:43Z</time>
      </trkpt>
      <trkpt lat="49.27262" lon="2.39183">
        <ele>90.4</ele>
        <time>2024-09-01T10:17:44Z</time>
      </trkpt>
      <trkpt lat="49.2726" lon="2.39182">
        <ele>90.3</ele>
        <time>2024-09-01T10:17:45Z</time>
      </trkpt>
      <trkpt lat="49.27258" lon="2.3918">
        <ele>90.3</ele>
        <time>2024-09-01T10:17:46Z</time>
      </trkpt>
      <trkpt lat="49.27256" lon="2.39179">
        <ele>90.2</ele>
        <time>2024-09-01T10:17:47Z</time>
      </trkpt>
      <trkpt lat="49.27254" lon="2.39178">
        <ele>90.1</ele>
        <time>2024-09-01T10:17:48Z</time>
      </trkpt>
      <trkpt lat="49.27252" lon="2.39177">
        <ele>90.1</ele>
        <time>2024-09-01T10:17:49Z</time>
      </trkpt>
      <trkpt lat="49.2725" lon="2.39176">
        <ele>90</ele>
        <time>2024-09-01T10:17:50Z</time>
      </trkpt>
      <trkpt lat="49.27248" lon="2.39175">
        <ele>89.9</ele>
        <time>2024-09-01T10:17:51Z</time>
      </trkpt>
      <trkpt lat="49.27246" lon="2.39174">
        <ele>89.9</ele>
        <time>2024-09-01T10:17:52Z</time>
      </trkpt>
      <trkpt lat="49.27244" lon="2.39172">
        <ele>89.8</ele>
        <time>2024-09-01T10:17:53Z</time>
      </trkpt>
      <trkpt lat="49.27242" lon="2.39171">
        <ele>89.8</ele>
        <time>2024-09-01T10:17:54Z</time>
      </trkpt>
      <trkpt lat="49.27241" lon="2.3917">
        <ele>89.7</ele>
        <time>2024-09-01T10:17:55Z</time>
      </trkpt>
      <trkpt lat="49.27239" lon="2.39169">
        <ele>89.6</ele>
        <time>2024-09-01T10:17:56Z</time>
      </trkpt>
      <trkpt lat="49.27237" lon="2.39168">
        <ele>89.5</ele>
        <time>2024-09-01T10:17:57Z</time>
      </trkpt>
      <trkpt lat="49.27235" lon="2.39167">
        <ele>89.5</ele>
        <time>2024-09-01T10:17:58Z</time>
      </trkpt>
      <trkpt lat="49.27233" lon="2.39166">
        <ele>89.4</ele>
        <time>2024-09-01T10:17:59Z</time>
      </trkpt>
      <trkpt lat="49.27232" lon="2.39165">
        <ele>89.3</ele>
        <time>2024-09-01T10:18:00Z</time>
      </trkpt>
      <trkpt lat="49.2723" lon="2.39163">
        <ele>89.2</ele>
        <time>2024-09-01T10:18:01Z</time>
      </trkpt>
      <trkpt lat="49.27228" lon="2.39162">
        <ele>89.2</ele>
        <time>2024-09-01T10:18:02Z</time>
      </trkpt>
      <trkpt lat="49.27227" lon="2.39161">
        <ele>89.1</ele>
        <time>2024-09-01T10:18:03Z</time>
      </trkpt>
      <trkpt lat="49.27225" lon="2.3916">
        <ele>89.1</ele>
        <time>2024-09-01T10:18:04Z</time>
      </trkpt>
      <trkpt lat="49.27223" lon="2.39159">
        <ele>89</ele>
        <time>2024-09-01T10:18:05Z</time>
      </trkpt>
      <trkpt lat="49.27222" lon="2.39158">
        <ele>89</ele>
        <time>2024-09-01T10:18:06Z</time>
      </trkpt>
      <trkpt lat="49.2722" lon="2.39157">
        <ele>88.9</ele>
        <time>2024-09-01T10:18:07Z</time>
      </trkpt>
      <trkpt lat="49.27218" lon="2.39156">
        <ele>88.9</ele>
        <time>2024-09-01T10:18:08Z</time>
      </trkpt>
      <trkpt lat="49.27216" lon="2.39155">
        <ele>88.9</ele>
        <time>2024-09-01T10:18:09Z</time>
      </trkpt>
      <trkpt lat="49.27214" lon="2.39154">
        <ele>88.8</ele>
        <time>2024-09-01T10:18:10Z</time>
      </trkpt>
      <trkpt lat="49.27213" lon="2.39153">
        <ele>88.8</ele>
        <time>2024-09-01T10:18:11Z</time>
      </trkpt>
      <trkpt lat="49.27211" lon="2.39151">
        <ele>88.8</ele>
        <time>2024-09-01T10:18:12Z</time>
      </trkpt>
      <trkpt lat="49.27209" lon="2.3915">
        <ele>88.8</ele>
        <time>2024-09-01T10:18:13Z</time>
      </trkpt>
      <trkpt lat="49.27208" lon="2.39149">
        <ele>88.8</ele>
        <time>2024-09-01T10:18:14Z</time>
      </trkpt>
      <trkpt lat="49.27206" lon="2.39147">
        <ele>88.8</ele>
        <time>2024-09-01T10:18:15Z</time>
      </trkpt>
      <trkpt lat="49.27205" lon="2.39146">
        <ele>88.8</ele>
        <time>2024-09-01T10:18:16Z</time>
      </trkpt>
      <trkpt lat="49.27203" lon="2.39144">
        <ele>88.9</ele>
        <time>2024-09-01T10:18:17Z</time>
      </trkpt>
      <trkpt lat="49.27202" lon="2.39142">
        <ele>88.9</ele>
        <time>2024-09-01T10:18:18Z</time>
      </trkpt>
      <trkpt lat="49.272" lon="2.39141">
        <ele>88.9</ele>
        <time>2024-09-01T10:18:19Z</time>
      </trkpt>
      <trkpt lat="49.27199" lon="2.3914">
        <ele>89</ele>
        <time>2024-09-01T10:18:20Z</time>
      </trkpt>
      <trkpt lat="49.27197" lon="2.39138">
        <ele>89</ele>
        <time>2024-09-01T10:18:21Z</time>
      </trkpt>
      <trkpt lat="49.27196" lon="2.39137">
        <ele>89</ele>
        <time>2024-09-01T10:18:22Z</time>
      </trkpt>
      <trkpt lat="49.27194" lon="2.39135">
        <ele>89</ele>
        <time>2024-09-01T10:18:23Z</time>
      </trkpt>
      <trkpt lat="49.27193" lon="2.39134">
        <ele>88.9</ele>
        <time>2024-09-01T10:18:24Z</time>
      </trkpt>
      <trkpt lat="49.27191" lon="2.39133">
        <ele>88.9</ele>
        <time>2024-09-01T10:18:25Z</time>
      </trkpt>
      <trkpt lat="49.2719" lon="2.39132">
        <ele>88.8</ele>
        <time>2024-09-01T10:18:26Z</time>
      </trkpt>
      <trkpt lat="49.27188" lon="2.3913">
        <ele>88.8</ele>
        <time>2024-09-01T10:18:27Z</time>
      </trkpt>
      <trkpt lat="49.27187" lon="2.39129">
        <ele>88.7</ele>
        <time>2024-09-01T10:18:28Z</time>
      </trkpt>
      <trkpt lat="49.27185" lon="2.39128">
        <ele>88.7</ele>
        <time>2024-09-01T10:18:29Z</time>
      </trkpt>
      <trkpt lat="49.27184" lon="2.39128">
        <ele>88.6</ele>
        <time>2024-09-01T10:18:30Z</time>
      </trkpt>
      <trkpt lat="49.27182" lon="2.39127">
        <ele>88.6</ele>
        <time>2024-09-01T10:18:31Z</time>
      </trkpt>
      <trkpt lat="49.27181" lon="2.39126">
        <ele>88.5</ele>
        <time>2024-09-01T10:18:32Z</time>
      </trkpt>
      <trkpt lat="49.2718" lon="2.39125">
        <ele>88.5</ele>
        <time>2024-09-01T10:18:33Z</time>
      </trkpt>
      <trkpt lat="49.27179" lon="2.39124">
        <ele>88.4</ele>
        <time>2024-09-01T10:18:34Z</time>
      </trkpt>
      <trkpt lat="49.27178" lon="2.39123">
        <ele>88.4</ele>
        <time>2024-09-01T10:18:35Z</time>
      </trkpt>
      <trkpt lat="49.27176" lon="2.39122">
        <ele>88.3</ele>
        <time>2024-09-01T10:18:36Z</time>
      </trkpt>
      <trkpt lat="49.27175" lon="2.39121">
        <ele>88.3</ele>
        <time>2024-09-01T10:18:37Z</time>
      </trkpt>
      <trkpt lat="49.27174" lon="2.3912">
        <ele>88.3</ele>
        <time>2024-09-01T10:18:38Z</time>
      </trkpt>
      <trkpt lat="49.27173" lon="2.39119">
        <ele>88.2</ele>
        <time>2024-09-01T10:18:39Z</time>
      </trkpt>
      <trkpt lat="49.27171" lon="2.39118">
        <ele>88.2</ele>
        <time>2024-09-01T10:18:40Z</time>
      </trkpt>
      <trkpt lat="49.2717" lon="2.39117">
        <ele>88.1</ele>
        <time>2024-09-01T10:18:41Z</time>
      </trkpt>
      <trkpt lat="49.27168" lon="2.39116">
        <ele>88.1</ele>
        <time>2024-09-01T10:18:42Z</time>
      </trkpt>
      <trkpt lat="49.27167" lon="2.39115">
        <ele>88</ele>
        <time>2024-09-01T10:18:43Z</time>
      </trkpt>
      <trkpt lat="49.27166" lon="2.39115">
        <ele>87.9</ele>
        <time>2024-09-01T10:18:44Z</time>
      </trkpt>
      <trkpt lat="49.27164" lon="2.39114">
        <ele>87.8</ele>
        <time>2024-09-01T10:18:45Z</time>
      </trkpt>
      <trkpt lat="49.27164" lon="2.39114">
        <ele>87.8</ele>
        <time>2024-09-01T10:18:46Z</time>
      </trkpt>
      <trkpt lat="49.27163" lon="2.39113">
        <ele>87.7</ele>
        <time>2024-09-01T10:18:47Z</time>
      </trkpt>
      <trkpt lat="49.27162" lon="2.39113">
        <ele>87.6</ele>
        <time>2024-09-01T10:18:48Z</time>
      </trkpt>
      <trkpt lat="49.27161" lon="2.39112">
        <ele>87.6</ele>
        <time>2024-09-01T10:18:49Z</time>
      </trkpt>
      <trkpt lat="49.2716" lon="2.39112">
        <ele>87.5</ele>
        <time>2024-09-01T10:18:50Z</time>
      </trkpt>
      <trkpt lat="49.27158" lon="2.39111">
        <ele>87.4</ele>
        <time>2024-09-01T10:18:51Z</time>
      </trkpt>
      <trkpt lat="49.27157" lon="2.3911">
        <ele>87.3</ele>
        <time>2024-09-01T10:18:52Z</time>
      </trkpt>
      <trkpt lat="49.27156" lon="2.39109">
        <ele>87.2</ele>
        <time>2024-09-01T10:18:53Z</time>
      </trkpt>
      <trkpt lat="49.27154" lon="2.39108">
        <ele>87.1</ele>
        <time>2024-09-01T10:18:54Z</time>
      </trkpt>
      <trkpt lat="49.27153" lon="2.39106">
        <ele>87.1</ele>
        <time>2024-09-01T10:18:55Z</time>
      </trkpt>
      <trkpt lat="49.27151" lon="2.39105">
        <ele>87</ele>
        <time>2024-09-01T10:18:56Z</time>
      </trkpt>
      <trkpt lat="49.2715" lon="2.39104">
        <ele>86.9</ele>
        <time>2024-09-01T10:18:57Z</time>
      </trkpt>
      <trkpt lat="49.27148" lon="2.39103">
        <ele>86.9</ele>
        <time>2024-09-01T10:18:58Z</time>
      </trkpt>
      <trkpt lat="49.27147" lon="2.39102">
        <ele>86.8</ele>
        <time>2024-09-01T10:18:59Z</time>
      </trkpt>
      <trkpt lat="49.27145" lon="2.39101">
        <ele>86.7</ele>
        <time>2024-09-01T10:19:00Z</time>
      </trkpt>
      <trkpt lat="49.27144" lon="2.391">
        <ele>86.7</ele>
        <time>2024-09-01T10:19:01Z</time>
      </trkpt>
      <trkpt lat="49.27142" lon="2.39099">
        <ele>86.6</ele>
        <time>2024-09-01T10:19:02Z</time>
      </trkpt>
      <trkpt lat="49.2714" lon="2.39098">
        <ele>86.6</ele>
        <time>2024-09-01T10:19:03Z</time>
      </trkpt>
      <trkpt lat="49.27139" lon="2.39097">
        <ele>86.5</ele>
        <time>2024-09-01T10:19:04Z</time>
      </trkpt>
      <trkpt lat="49.27137" lon="2.39096">
        <ele>86.5</ele>
        <time>2024-09-01T10:19:05Z</time>
      </trkpt>
      <trkpt lat="49.27135" lon="2.39095">
        <ele>86.5</ele>
        <time>2024-09-01T10:19:06Z</time>
      </trkpt>
      <trkpt lat="49.27133" lon="2.39094">
        <ele>86.5</ele>
        <time>2024-09-01T10:19:07Z</time>
      </trkpt>
      <trkpt lat="49.27132" lon="2.39093">
        <ele>86.5</ele>
        <time>2024-09-01T10:19:08Z</time>
      </trkpt>
      <trkpt lat="49.2713" lon="2.39092">
        <ele>86.5</ele>
        <time>2024-09-01T10:19:09Z</time>
      </trkpt>
      <trkpt lat="49.27128" lon="2.39091">
        <ele>86.5</ele>
        <time>2024-09-01T10:19:10Z</time>
      </trkpt>
      <trkpt lat="49.27126" lon="2.39091">
        <ele>86.5</ele>
        <time>2024-09-01T10:19:11Z</time>
      </trkpt>
      <trkpt lat="49.27125" lon="2.3909">
        <ele>86.5</ele>
        <time>2024-09-01T10:19:12Z</time>
      </trkpt>
      <trkpt lat="49.27123" lon="2.39089">
        <ele>86.5</ele>
        <time>2024-09-01T10:19:13Z</time>
      </trkpt>
      <trkpt lat="49.27121" lon="2.39089">
        <ele>86.6</ele>
        <time>2024-09-01T10:19:14Z</time>
      </trkpt>
      <trkpt lat="49.2712" lon="2.39088">
        <ele>86.6</ele>
        <time>2024-09-01T10:19:15Z</time>
      </trkpt>
      <trkpt lat="49.27118" lon="2.39087">
        <ele>86.7</ele>
        <time>2024-09-01T10:19:16Z</time>
      </trkpt>
      <trkpt lat="49.27117" lon="2.39086">
        <ele>86.7</ele>
        <time>2024-09-01T10:19:17Z</time>
      </trkpt>
      <trkpt lat="49.27115" lon="2.39085">
        <ele>86.8</ele>
        <time>2024-09-01T10:19:18Z</time>
      </trkpt>
      <trkpt lat="49.27113" lon="2.39084">
        <ele>86.9</ele>
        <time>2024-09-01T10:19:19Z</time>
      </trkpt>
      <trkpt lat="49.27111" lon="2.39083">
        <ele>87</ele>
        <time>2024-09-01T10:19:20Z</time>
      </trkpt>
      <trkpt lat="49.2711" lon="2.39082">
        <ele>86.9</ele>
        <time>2024-09-01T10:19:21Z</time>
      </trkpt>
      <trkpt lat="49.27108" lon="2.39081">
        <ele>86.8</ele>
        <time>2024-09-01T10:19:22Z</time>
      </trkpt>
      <trkpt lat="49.27106" lon="2.3908">
        <ele>86.7</ele>
        <time>2024-09-01T10:19:23Z</time>
      </trkpt>
      <trkpt lat="49.27104" lon="2.39079">
        <ele>86.6</ele>
        <time>2024-09-01T10:19:24Z</time>
      </trkpt>
      <trkpt lat="49.27102" lon="2.39079">
        <ele>86.6</ele>
        <time>2024-09-01T10:19:25Z</time>
      </trkpt>
      <trkpt lat="49.27101" lon="2.39078">
        <ele>86.5</ele>
        <time>2024-09-01T10:19:26Z</time>
      </trkpt>
      <trkpt lat="49.27099" lon="2.39077">
        <ele>86.4</ele>
        <time>2024-09-01T10:19:27Z</time>
      </trkpt>
      <trkpt lat="49.27097" lon="2.39076">
        <ele>86.4</ele>
        <time>2024-09-01T10:19:28Z</time>
      </trkpt>
      <trkpt lat="49.27096" lon="2.39076">
        <ele>86.3</ele>
        <time>2024-09-01T10:19:29Z</time>
      </trkpt>
      <trkpt lat="49.27094" lon="2.39075">
        <ele>86.3</ele>
        <time>2024-09-01T10:19:30Z</time>
      </trkpt>
      <trkpt lat="49.27093" lon="2.39074">
        <ele>86.2</ele>
        <time>2024-09-01T10:19:31Z</time>
      </trkpt>
      <trkpt lat="49.27091" lon="2.39074">
        <ele>86.2</ele>
        <time>2024-09-01T10:19:32Z</time>
      </trkpt>
      <trkpt lat="49.27089" lon="2.39073">
        <ele>86.1</ele>
        <time>2024-09-01T10:19:33Z</time>
      </trkpt>
      <trkpt lat="49.27087" lon="2.39072">
        <ele>86.1</ele>
        <time>2024-09-01T10:19:34Z</time>
      </trkpt>
      <trkpt lat="49.27085" lon="2.39072">
        <ele>86</ele>
        <time>2024-09-01T10:19:35Z</time>
      </trkpt>
      <trkpt lat="49.27083" lon="2.39071">
        <ele>86</ele>
        <time>2024-09-01T10:19:36Z</time>
      </trkpt>
      <trkpt lat="49.27082" lon="2.3907">
        <ele>85.7</ele>
        <time>2024-09-01T10:19:37Z</time>
      </trkpt>
      <trkpt lat="49.2708" lon="2.39069">
        <ele>85.5</ele>
        <time>2024-09-01T10:19:38Z</time>
      </trkpt>
      <trkpt lat="49.27078" lon="2.39069">
        <ele>85.2</ele>
        <time>2024-09-01T10:19:39Z</time>
      </trkpt>
      <trkpt lat="49.27076" lon="2.39068">
        <ele>85</ele>
        <time>2024-09-01T10:19:40Z</time>
      </trkpt>
      <trkpt lat="49.27074" lon="2.39067">
        <ele>84.8</ele>
        <time>2024-09-01T10:19:41Z</time>
      </trkpt>
      <trkpt lat="49.27072" lon="2.39066">
        <ele>84.7</ele>
        <time>2024-09-01T10:19:42Z</time>
      </trkpt>
      <trkpt lat="49.2707" lon="2.39065">
        <ele>84.5</ele>
        <time>2024-09-01T10:19:43Z</time>
      </trkpt>
      <trkpt lat="49.27068" lon="2.39064">
        <ele>84.4</ele>
        <time>2024-09-01T10:19:44Z</time>
      </trkpt>
      <trkpt lat="49.27066" lon="2.39063">
        <ele>84.4</ele>
        <time>2024-09-01T10:19:45Z</time>
      </trkpt>
      <trkpt lat="49.27064" lon="2.39062">
        <ele>84.4</ele>
        <time>2024-09-01T10:19:46Z</time>
      </trkpt>
      <trkpt lat="49.27062" lon="2.39061">
        <ele>84.4</ele>
        <time>2024-09-01T10:19:47Z</time>
      </trkpt>
      <trkpt lat="49.2706" lon="2.3906">
        <ele>84.4</ele>
        <time>2024-09-01T10:19:48Z</time>
      </trkpt>
      <trkpt lat="49.27059" lon="2.39059">
        <ele>84.4</ele>
        <time>2024-09-01T10:19:49Z</time>
      </trkpt>
      <trkpt lat="49.27057" lon="2.39058">
        <ele>84.5</ele>
        <time>2024-09-01T10:19:50Z</time>
      </trkpt>
      <trkpt lat="49.27055" lon="2.39057">
        <ele>84.6</ele>
        <time>2024-09-01T10:19:51Z</time>
      </trkpt>
      <trkpt lat="49.27053" lon="2.39057">
        <ele>84.9</ele>
        <time>2024-09-01T10:19:52Z</time>
      </trkpt>
      <trkpt lat="49.27052" lon="2.39056">
        <ele>85.1</ele>
        <time>2024-09-01T10:19:53Z</time>
      </trkpt>
      <trkpt lat="49.2705" lon="2.39055">
        <ele>85.2</ele>
        <time>2024-09-01T10:19:54Z</time>
      </trkpt>
      <trkpt lat="49.27048" lon="2.39054">
        <ele>85.2</ele>
        <time>2024-09-01T10:19:55Z</time>
      </trkpt>
      <trkpt lat="49.27046" lon="2.39053">
        <ele>85.3</ele>
        <time>2024-09-01T10:19:56Z</time>
      </trkpt>
      <trkpt lat="49.27044" lon="2.39052">
        <ele>85.3</ele>
        <time>2024-09-01T10:19:57Z</time>
      </trkpt>
      <trkpt lat="49.27042" lon="2.39051">
        <ele>85.3</ele>
        <time>2024-09-01T10:19:58Z</time>
      </trkpt>
      <trkpt lat="49.2704" lon="2.3905">
        <ele>85.4</ele>
        <time>2024-09-01T10:19:59Z</time>
      </trkpt>
      <trkpt lat="49.27038" lon="2.3905">
        <ele>85.4</ele>
        <time>2024-09-01T10:20:00Z</time>
      </trkpt>
      <trkpt lat="49.27036" lon="2.39049">
        <ele>85.4</ele>
        <time>2024-09-01T10:20:01Z</time>
      </trkpt>
      <trkpt lat="49.27033" lon="2.39048">
        <ele>85.4</ele>
        <time>2024-09-01T10:20:02Z</time>
      </trkpt>
      <trkpt lat="49.27031" lon="2.39047">
        <ele>85.4</ele>
        <time>2024-09-01T10:20:03Z</time>
      </trkpt>
      <trkpt lat="49.27029" lon="2.39047">
        <ele>85.3</ele>
        <time>2024-09-01T10:20:04Z</time>
      </trkpt>
      <trkpt lat="49.27027" lon="2.39046">
        <ele>85.3</ele>
        <time>2024-09-01T10:20:05Z</time>
      </trkpt>
      <trkpt lat="49.27025" lon="2.39045">
        <ele>85.1</ele>
        <time>2024-09-01T10:20:06Z</time>
      </trkpt>
      <trkpt lat="49.27023" lon="2.39045">
        <ele>85</ele>
        <time>2024-09-01T10:20:07Z</time>
      </trkpt>
      <trkpt lat="49.27021" lon="2.39044">
        <ele>84.9</ele>
        <time>2024-09-01T10:20:08Z</time>
      </trkpt>
      <trkpt lat="49.2702" lon="2.39043">
        <ele>84.8</ele>
        <time>2024-09-01T10:20:09Z</time>
      </trkpt>
      <trkpt lat="49.27018" lon="2.39043">
        <ele>84.7</ele>
        <time>2024-09-01T10:20:10Z</time>
      </trkpt>
      <trkpt lat="49.27016" lon="2.39042">
        <ele>84.6</ele>
        <time>2024-09-01T10:20:11Z</time>
      </trkpt>
      <trkpt lat="49.27014" lon="2.39042">
        <ele>84.5</ele>
        <time>2024-09-01T10:20:12Z</time>
      </trkpt>
      <trkpt lat="49.27012" lon="2.39041">
        <ele>84.4</ele>
        <time>2024-09-01T10:20:13Z</time>
      </trkpt>
      <trkpt lat="49.2701" lon="2.3904">
        <ele>84.3</ele>
        <time>2024-09-01T10:20:14Z</time>
      </trkpt>
      <trkpt lat="49.27009" lon="2.3904">
        <ele>84.3</ele>
        <time>2024-09-01T10:20:15Z</time>
      </trkpt>
      <trkpt lat="49.27007" lon="2.3904">
        <ele>84.2</ele>
        <time>2024-09-01T10:20:16Z</time>
      </trkpt>
      <trkpt lat="49.27005" lon="2.39039">
        <ele>84.2</ele>
        <time>2024-09-01T10:20:17Z</time>
      </trkpt>
      <trkpt lat="49.27003" lon="2.39039">
        <ele>84.1</ele>
        <time>2024-09-01T10:20:18Z</time>
      </trkpt>
      <trkpt lat="49.27001" lon="2.39039">
        <ele>84</ele>
        <time>2024-09-01T10:20:19Z</time>
      </trkpt>
      <trkpt lat="49.27" lon="2.39038">
        <ele>84</ele>
        <time>2024-09-01T10:20:20Z</time>
      </trkpt>
      <trkpt lat="49.26998" lon="2.39038">
        <ele>83.8</ele>
        <time>2024-09-01T10:20:21Z</time>
      </trkpt>
      <trkpt lat="49.26996" lon="2.39038">
        <ele>83.7</ele>
        <time>2024-09-01T10:20:22Z</time>
      </trkpt>
      <trkpt lat="49.26994" lon="2.39037">
        <ele>83.6</ele>
        <time>2024-09-01T10:20:23Z</time>
      </trkpt>
      <trkpt lat="49.26992" lon="2.39037">
        <ele>83.4</ele>
        <time>2024-09-01T10:20:24Z</time>
      </trkpt>
      <trkpt lat="49.2699" lon="2.39036">
        <ele>83.3</ele>
        <time>2024-09-01T10:20:25Z</time>
      </trkpt>
      <trkpt lat="49.26988" lon="2.39036">
        <ele>83.2</ele>
        <time>2024-09-01T10:20:26Z</time>
      </trkpt>
      <trkpt lat="49.26986" lon="2.39035">
        <ele>83</ele>
        <time>2024-09-01T10:20:27Z</time>
      </trkpt>
      <trkpt lat="49.26984" lon="2.39034">
        <ele>82.9</ele>
        <time>2024-09-01T10:20:28Z</time>
      </trkpt>
      <trkpt lat="49.26982" lon="2.39033">
        <ele>82.7</ele>
        <time>2024-09-01T10:20:29Z</time>
      </trkpt>
      <trkpt lat="49.2698" lon="2.39033">
        <ele>82.6</ele>
        <time>2024-09-01T10:20:30Z</time>
      </trkpt>
      <trkpt lat="49.26978" lon="2.39032">
        <ele>82.4</ele>
        <time>2024-09-01T10:20:31Z</time>
      </trkpt>
      <trkpt lat="49.26976" lon="2.39031">
        <ele>82.3</ele>
        <time>2024-09-01T10:20:32Z</time>
      </trkpt>
      <trkpt lat="49.26974" lon="2.3903">
        <ele>82.1</ele>
        <time>2024-09-01T10:20:33Z</time>
      </trkpt>
      <trkpt lat="49.26972" lon="2.39029">
        <ele>82</ele>
        <time>2024-09-01T10:20:34Z</time>
      </trkpt>
      <trkpt lat="49.2697" lon="2.39028">
        <ele>81.9</ele>
        <time>2024-09-01T10:20:35Z</time>
      </trkpt>
      <trkpt lat="49.26969" lon="2.39027">
        <ele>81.9</ele>
        <time>2024-09-01T10:20:36Z</time>
      </trkpt>
      <trkpt lat="49.26967" lon="2.39026">
        <ele>81.8</ele>
        <time>2024-09-01T10:20:37Z</time>
      </trkpt>
      <trkpt lat="49.26965" lon="2.39025">
        <ele>81.8</ele>
        <time>2024-09-01T10:20:38Z</time>
      </trkpt>
      <trkpt lat="49.26963" lon="2.39024">
        <ele>81.7</ele>
        <time>2024-09-01T10:20:39Z</time>
      </trkpt>
      <trkpt lat="49.26961" lon="2.39023">
        <ele>81.7</ele>
        <time>2024-09-01T10:20:40Z</time>
      </trkpt>
      <trkpt lat="49.2696" lon="2.39022">
        <ele>81.6</ele>
        <time>2024-09-01T10:20:41Z</time>
      </trkpt>
      <trkpt lat="49.26958" lon="2.3902">
        <ele>81.6</ele>
        <time>2024-09-01T10:20:42Z</time>
      </trkpt>
      <trkpt lat="49.26956" lon="2.39019">
        <ele>81.6</ele>
        <time>2024-09-01T10:20:43Z</time>
      </trkpt>
      <trkpt lat="49.26955" lon="2.39017">
        <ele>81.6</ele>
        <time>2024-09-01T10:20:44Z</time>
      </trkpt>
      <trkpt lat="49.26953" lon="2.39016">
        <ele>81.6</ele>
        <time>2024-09-01T10:20:45Z</time>
      </trkpt>
      <trkpt lat="49.26951" lon="2.39014">
        <ele>81.6</ele>
        <time>2024-09-01T10:20:46Z</time>
      </trkpt>
      <trkpt lat="49.2695" lon="2.39012">
        <ele>81.6</ele>
        <time>2024-09-01T10:20:47Z</time>
      </trkpt>
      <trkpt lat="49.26948" lon="2.3901">
        <ele>81.7</ele>
        <time>2024-09-01T10:20:48Z</time>
      </trkpt>
      <trkpt lat="49.26946" lon="2.39008">
        <ele>81.7</ele>
        <time>2024-09-01T10:20:49Z</time>
      </trkpt>
      <trkpt lat="49.26945" lon="2.39006">
        <ele>81.8</ele>
        <time>2024-09-01T10:20:50Z</time>
      </trkpt>
      <trkpt lat="49.26943" lon="2.39004">
        <ele>81.8</ele>
        <time>2024-09-01T10:20:51Z</time>
      </trkpt>
      <trkpt lat="49.26942" lon="2.39002">
        <ele>81.7</ele>
        <time>2024-09-01T10:20:52Z</time>
      </trkpt>
      <trkpt lat="49.2694" lon="2.39">
        <ele>81.7</ele>
        <time>2024-09-01T10:20:53Z</time>
      </trkpt>
      <trkpt lat="49.26938" lon="2.38998">
        <ele>81.6</ele>
        <time>2024-09-01T10:20:54Z</time>
      </trkpt>
      <trkpt lat="49.26937" lon="2.38996">
        <ele>81.5</ele>
        <time>2024-09-01T10:20:55Z</time>
      </trkpt>
      <trkpt lat="49.26935" lon="2.38994">
        <ele>81.4</ele>
        <time>2024-09-01T10:20:56Z</time>
      </trkpt>
      <trkpt lat="49.26934" lon="2.38993">
        <ele>81.3</ele>
        <time>2024-09-01T10:20:57Z</time>
      </trkpt>
      <trkpt lat="49.26932" lon="2.38991">
        <ele>81.3</ele>
        <time>2024-09-01T10:20:58Z</time>
      </trkpt>
      <trkpt lat="49.26931" lon="2.38989">
        <ele>81.2</ele>
        <time>2024-09-01T10:20:59Z</time>
      </trkpt>
      <trkpt lat="49.2693" lon="2.38988">
        <ele>81.2</ele>
        <time>2024-09-01T10:21:00Z</time>
      </trkpt>
      <trkpt lat="49.26928" lon="2.38986">
        <ele>81.1</ele>
        <time>2024-09-01T10:21:01Z</time>
      </trkpt>
      <trkpt lat="49.26927" lon="2.38984">
        <ele>81.1</ele>
        <time>2024-09-01T10:21:02Z</time>
      </trkpt>
      <trkpt lat="49.26925" lon="2.38982">
        <ele>81.1</ele>
        <time>2024-09-01T10:21:03Z</time>
      </trkpt>
      <trkpt lat="49.26924" lon="2.38981">
        <ele>81</ele>
        <time>2024-09-01T10:21:04Z</time>
      </trkpt>
      <trkpt lat="49.26922" lon="2.38979">
        <ele>81</ele>
        <time>2024-09-01T10:21:05Z</time>
      </trkpt>
      <trkpt lat="49.2692" lon="2.38978">
        <ele>81</ele>
        <time>2024-09-01T10:21:06Z</time>
      </trkpt>
      <trkpt lat="49.26919" lon="2.38976">
        <ele>80.9</ele>
        <time>2024-09-01T10:21:07Z</time>
      </trkpt>
      <trkpt lat="49.26917" lon="2.38975">
        <ele>80.9</ele>
        <time>2024-09-01T10:21:08Z</time>
      </trkpt>
      <trkpt lat="49.26915" lon="2.38974">
        <ele>80.9</ele>
        <time>2024-09-01T10:21:09Z</time>
      </trkpt>
      <trkpt lat="49.26914" lon="2.38973">
        <ele>80.9</ele>
        <time>2024-09-01T10:21:10Z</time>
      </trkpt>
      <trkpt lat="49.26912" lon="2.38972">
        <ele>80.8</ele>
        <time>2024-09-01T10:21:11Z</time>
      </trkpt>
      <trkpt lat="49.2691" lon="2.38972">
        <ele>80.8</ele>
        <time>2024-09-01T10:21:12Z</time>
      </trkpt>
      <trkpt lat="49.26908" lon="2.38971">
        <ele>80.7</ele>
        <time>2024-09-01T10:21:13Z</time>
      </trkpt>
      <trkpt lat="49.26906" lon="2.38971">
        <ele>80.7</ele>
        <time>2024-09-01T10:21:14Z</time>
      </trkpt>
      <trkpt lat="49.26904" lon="2.38971">
        <ele>80.6</ele>
        <time>2024-09-01T10:21:15Z</time>
      </trkpt>
      <trkpt lat="49.26902" lon="2.38971">
        <ele>80.5</ele>
        <time>2024-09-01T10:21:16Z</time>
      </trkpt>
      <trkpt lat="49.26901" lon="2.3897">
        <ele>80.5</ele>
        <time>2024-09-01T10:21:17Z</time>
      </trkpt>
      <trkpt lat="49.26899" lon="2.3897">
        <ele>80.4</ele>
        <time>2024-09-01T10:21:18Z</time>
      </trkpt>
      <trkpt lat="49.26897" lon="2.38971">
        <ele>80.3</ele>
        <time>2024-09-01T10:21:19Z</time>
      </trkpt>
      <trkpt lat="49.26895" lon="2.38971">
        <ele>80.3</ele>
        <time>2024-09-01T10:21:20Z</time>
      </trkpt>
      <trkpt lat="49.26893" lon="2.38971">
        <ele>80.2</ele>
        <time>2024-09-01T10:21:21Z</time>
      </trkpt>
      <trkpt lat="49.2689" lon="2.38971">
        <ele>80.1</ele>
        <time>2024-09-01T10:21:22Z</time>
      </trkpt>
      <trkpt lat="49.26888" lon="2.38971">
        <ele>80</ele>
        <time>2024-09-01T10:21:23Z</time>
      </trkpt>
      <trkpt lat="49.26886" lon="2.38972">
        <ele>79.8</ele>
        <time>2024-09-01T10:21:24Z</time>
      </trkpt>
      <trkpt lat="49.26885" lon="2.38972">
        <ele>79.7</ele>
        <time>2024-09-01T10:21:25Z</time>
      </trkpt>
      <trkpt lat="49.26883" lon="2.38972">
        <ele>79.6</ele>
        <time>2024-09-01T10:21:26Z</time>
      </trkpt>
      <trkpt lat="49.26881" lon="2.38972">
        <ele>79.4</ele>
        <time>2024-09-01T10:21:27Z</time>
      </trkpt>
      <trkpt lat="49.26879" lon="2.38972">
        <ele>79.3</ele>
        <time>2024-09-01T10:21:28Z</time>
      </trkpt>
      <trkpt lat="49.26877" lon="2.38972">
        <ele>79.1</ele>
        <time>2024-09-01T10:21:29Z</time>
      </trkpt>
      <trkpt lat="49.26875" lon="2.38973">
        <ele>79</ele>
        <time>2024-09-01T10:21:30Z</time>
      </trkpt>
      <trkpt lat="49.26872" lon="2.38973">
        <ele>78.8</ele>
        <time>2024-09-01T10:21:31Z</time>
      </trkpt>
      <trkpt lat="49.2687" lon="2.38974">
        <ele>78.7</ele>
        <time>2024-09-01T10:21:32Z</time>
      </trkpt>
      <trkpt lat="49.26868" lon="2.38975">
        <ele>78.6</ele>
        <time>2024-09-01T10:21:33Z</time>
      </trkpt>
      <trkpt lat="49.26866" lon="2.38975">
        <ele>78.4</ele>
        <time>2024-09-01T10:21:34Z</time>
      </trkpt>
      <trkpt lat="49.26864" lon="2.38976">
        <ele>78.3</ele>
        <time>2024-09-01T10:21:35Z</time>
      </trkpt>
      <trkpt lat="49.26862" lon="2.38977">
        <ele>78.2</ele>
        <time>2024-09-01T10:21:36Z</time>
      </trkpt>
      <trkpt lat="49.2686" lon="2.38978">
        <ele>78.1</ele>
        <time>2024-09-01T10:21:37Z</time>
      </trkpt>
      <trkpt lat="49.26857" lon="2.38978">
        <ele>78.1</ele>
        <time>2024-09-01T10:21:38Z</time>
      </trkpt>
      <trkpt lat="49.26855" lon="2.38979">
        <ele>78</ele>
        <time>2024-09-01T10:21:39Z</time>
      </trkpt>
      <trkpt lat="49.26853" lon="2.3898">
        <ele>77.9</ele>
        <time>2024-09-01T10:21:40Z</time>
      </trkpt>
      <trkpt lat="49.26851" lon="2.3898">
        <ele>77.8</ele>
        <time>2024-09-01T10:21:41Z</time>
      </trkpt>
      <trkpt lat="49.26849" lon="2.38981">
        <ele>77.7</ele>
        <time>2024-09-01T10:21:42Z</time>
      </trkpt>
      <trkpt lat="49.26847" lon="2.38982">
        <ele>77.7</ele>
        <time>2024-09-01T10:21:43Z</time>
      </trkpt>
      <trkpt lat="49.26845" lon="2.38983">
        <ele>77.6</ele>
        <time>2024-09-01T10:21:44Z</time>
      </trkpt>
      <trkpt lat="49.26843" lon="2.38984">
        <ele>77.5</ele>
        <time>2024-09-01T10:21:45Z</time>
      </trkpt>
      <trkpt lat="49.26841" lon="2.38984">
        <ele>77.4</ele>
        <time>2024-09-01T10:21:46Z</time>
      </trkpt>
      <trkpt lat="49.26839" lon="2.38985">
        <ele>77.3</ele>
        <time>2024-09-01T10:21:47Z</time>
      </trkpt>
      <trkpt lat="49.26838" lon="2.38985">
        <ele>77.2</ele>
        <time>2024-09-01T10:21:48Z</time>
      </trkpt>
      <trkpt lat="49.26836" lon="2.38985">
        <ele>77.1</ele>
        <time>2024-09-01T10:21:49Z</time>
      </trkpt>
      <trkpt lat="49.26834" lon="2.38986">
        <ele>77</ele>
        <time>2024-09-01T10:21:50Z</time>
      </trkpt>
      <trkpt lat="49.26832" lon="2.38986">
        <ele>76.9</ele>
        <time>2024-09-01T10:21:51Z</time>
      </trkpt>
      <trkpt lat="49.26831" lon="2.38986">
        <ele>76.8</ele>
        <time>2024-09-01T10:21:52Z</time>
      </trkpt>
      <trkpt lat="49.26829" lon="2.38986">
        <ele>76.7</ele>
        <time>2024-09-01T10:21:53Z</time>
      </trkpt>
      <trkpt lat="49.26828" lon="2.38986">
        <ele>76.6</ele>
        <time>2024-09-01T10:21:54Z</time>
      </trkpt>
      <trkpt lat="49.26826" lon="2.38986">
        <ele>76.5</ele>
        <time>2024-09-01T10:21:55Z</time>
      </trkpt>
      <trkpt lat="49.26824" lon="2.38986">
        <ele>76.4</ele>
        <time>2024-09-01T10:21:56Z</time>
      </trkpt>
      <trkpt lat="49.26823" lon="2.38986">
        <ele>76.2</ele>
        <time>2024-09-01T10:21:57Z</time>
      </trkpt>
      <trkpt lat="49.26821" lon="2.38986">
        <ele>76.1</ele>
        <time>2024-09-01T10:21:58Z</time>
      </trkpt>
      <trkpt lat="49.2682" lon="2.38985">
        <ele>76</ele>
        <time>2024-09-01T10:21:59Z</time>
      </trkpt>
      <trkpt lat="49.26818" lon="2.38985">
        <ele>75.9</ele>
        <time>2024-09-01T10:22:00Z</time>
      </trkpt>
      <trkpt lat="49.26817" lon="2.38985">
        <ele>75.8</ele>
        <time>2024-09-01T10:22:01Z</time>
      </trkpt>
      <trkpt lat="49.26816" lon="2.38984">
        <ele>75.7</ele>
        <time>2024-09-01T10:22:02Z</time>
      </trkpt>
      <trkpt lat="49.26814" lon="2.38984">
        <ele>75.6</ele>
        <time>2024-09-01T10:22:03Z</time>
      </trkpt>
      <trkpt lat="49.26813" lon="2.38984">
        <ele>75.5</ele>
        <time>2024-09-01T10:22:04Z</time>
      </trkpt>
      <trkpt lat="49.26811" lon="2.38984">
        <ele>75.4</ele>
        <time>2024-09-01T10:22:05Z</time>
      </trkpt>
      <trkpt lat="49.2681" lon="2.38983">
        <ele>75.3</ele>
        <time>2024-09-01T10:22:06Z</time>
      </trkpt>
      <trkpt lat="49.26808" lon="2.38983">
        <ele>75.2</ele>
        <time>2024-09-01T10:22:07Z</time>
      </trkpt>
      <trkpt lat="49.26805" lon="2.38982">
        <ele>75</ele>
        <time>2024-09-01T10:22:08Z</time>
      </trkpt>
      <trkpt lat="49.26803" lon="2.38981">
        <ele>74.8</ele>
        <time>2024-09-01T10:22:09Z</time>
      </trkpt>
    </trkseg>
  </trk>
</gpx>